<?xml version="1.0" encoding="UTF-8" standalone="no" ?>
<gpx xmlns="http://www.topografix.com/GPX/1/1" xmlns:xsi="http://www.w3.org/2001/XMLSchema-instance" xsi:schemaLocation="http://www.topografix.com/GPX/1/1 http://www.topografix.com/GPX/1/1/gpx.xsd" version="1.1" creator="VisuGPX - https://www.visugpx.com">
  <metadata>
    <name>2011-07-03 Rando St OUrs 13km</name>
    <desc><![CDATA[rando de la fromagerie de St Ours avec un départ de la maison ]]></desc>
  </metadata>
  <trk>
    <name><![CDATA[2011-07-03 Rando St OUrs 13km_1]]></name>
    <trkseg>
      <trkpt lat="45.7347" lon="6.00139">
        <ele>597</ele>
        <time>2011-07-03T06:32:52Z</time>
      </trkpt>
      <trkpt lat="45.73471" lon="6.00123">
        <ele>595</ele>
        <time>2011-07-03T06:33:49Z</time>
      </trkpt>
      <trkpt lat="45.73471" lon="6.0012">
        <ele>595</ele>
        <time>2011-07-03T06:33:50Z</time>
      </trkpt>
      <trkpt lat="45.73471" lon="6.00118">
        <ele>595</ele>
        <time>2011-07-03T06:33:51Z</time>
      </trkpt>
      <trkpt lat="45.73471" lon="6.00115">
        <ele>595</ele>
        <time>2011-07-03T06:33:53Z</time>
      </trkpt>
      <trkpt lat="45.73469" lon="6.00113">
        <ele>595</ele>
        <time>2011-07-03T06:33:56Z</time>
      </trkpt>
      <trkpt lat="45.73468" lon="6.00109">
        <ele>595</ele>
        <time>2011-07-03T06:33:58Z</time>
      </trkpt>
      <trkpt lat="45.73467" lon="6.00106">
        <ele>595</ele>
        <time>2011-07-03T06:33:59Z</time>
      </trkpt>
      <trkpt lat="45.73466" lon="6.00104">
        <ele>594</ele>
        <time>2011-07-03T06:34:01Z</time>
      </trkpt>
      <trkpt lat="45.73467" lon="6.00103">
        <ele>593</ele>
        <time>2011-07-03T06:34:02Z</time>
      </trkpt>
      <trkpt lat="45.73467" lon="6.001">
        <ele>592</ele>
        <time>2011-07-03T06:34:03Z</time>
      </trkpt>
      <trkpt lat="45.73465" lon="6.00099">
        <ele>590</ele>
        <time>2011-07-03T06:34:05Z</time>
      </trkpt>
      <trkpt lat="45.73465" lon="6.00102">
        <ele>589</ele>
        <time>2011-07-03T06:34:07Z</time>
      </trkpt>
      <trkpt lat="45.73467" lon="6.00102">
        <ele>589</ele>
        <time>2011-07-03T06:34:09Z</time>
      </trkpt>
      <trkpt lat="45.73469" lon="6.00101">
        <ele>589</ele>
        <time>2011-07-03T06:34:11Z</time>
      </trkpt>
      <trkpt lat="45.7347" lon="6.001">
        <ele>589</ele>
        <time>2011-07-03T06:34:13Z</time>
      </trkpt>
      <trkpt lat="45.73472" lon="6.00096">
        <ele>589</ele>
        <time>2011-07-03T06:34:15Z</time>
      </trkpt>
      <trkpt lat="45.73471" lon="6.00092">
        <ele>589</ele>
        <time>2011-07-03T06:34:16Z</time>
      </trkpt>
      <trkpt lat="45.73472" lon="6.00088">
        <ele>589</ele>
        <time>2011-07-03T06:34:17Z</time>
      </trkpt>
      <trkpt lat="45.73472" lon="6.00084">
        <ele>589</ele>
        <time>2011-07-03T06:34:18Z</time>
      </trkpt>
      <trkpt lat="45.73473" lon="6.0008">
        <ele>589</ele>
        <time>2011-07-03T06:34:19Z</time>
      </trkpt>
      <trkpt lat="45.73473" lon="6.00075">
        <ele>589</ele>
        <time>2011-07-03T06:34:20Z</time>
      </trkpt>
      <trkpt lat="45.73475" lon="6.00071">
        <ele>589</ele>
        <time>2011-07-03T06:34:21Z</time>
      </trkpt>
      <trkpt lat="45.73478" lon="6.00068">
        <ele>589</ele>
        <time>2011-07-03T06:34:22Z</time>
      </trkpt>
      <trkpt lat="45.73482" lon="6.00068">
        <ele>590</ele>
        <time>2011-07-03T06:34:23Z</time>
      </trkpt>
      <trkpt lat="45.73486" lon="6.00068">
        <ele>590</ele>
        <time>2011-07-03T06:34:24Z</time>
      </trkpt>
      <trkpt lat="45.73489" lon="6.0007">
        <ele>590</ele>
        <time>2011-07-03T06:34:25Z</time>
      </trkpt>
      <trkpt lat="45.73492" lon="6.00072">
        <ele>590</ele>
        <time>2011-07-03T06:34:26Z</time>
      </trkpt>
      <trkpt lat="45.73495" lon="6.00073">
        <ele>590</ele>
        <time>2011-07-03T06:34:27Z</time>
      </trkpt>
      <trkpt lat="45.73497" lon="6.00075">
        <ele>590</ele>
        <time>2011-07-03T06:34:28Z</time>
      </trkpt>
      <trkpt lat="45.735" lon="6.00076">
        <ele>590</ele>
        <time>2011-07-03T06:34:29Z</time>
      </trkpt>
      <trkpt lat="45.73504" lon="6.00077">
        <ele>590</ele>
        <time>2011-07-03T06:34:30Z</time>
      </trkpt>
      <trkpt lat="45.73507" lon="6.00078">
        <ele>590</ele>
        <time>2011-07-03T06:34:31Z</time>
      </trkpt>
      <trkpt lat="45.7351" lon="6.0008">
        <ele>590</ele>
        <time>2011-07-03T06:34:32Z</time>
      </trkpt>
      <trkpt lat="45.73513" lon="6.00081">
        <ele>591</ele>
        <time>2011-07-03T06:34:33Z</time>
      </trkpt>
      <trkpt lat="45.73515" lon="6.00082">
        <ele>591</ele>
        <time>2011-07-03T06:34:34Z</time>
      </trkpt>
      <trkpt lat="45.73518" lon="6.00083">
        <ele>592</ele>
        <time>2011-07-03T06:34:35Z</time>
      </trkpt>
      <trkpt lat="45.73521" lon="6.00086">
        <ele>592</ele>
        <time>2011-07-03T06:34:36Z</time>
      </trkpt>
      <trkpt lat="45.73524" lon="6.00088">
        <ele>592</ele>
        <time>2011-07-03T06:34:37Z</time>
      </trkpt>
      <trkpt lat="45.73527" lon="6.0009">
        <ele>592</ele>
        <time>2011-07-03T06:34:38Z</time>
      </trkpt>
      <trkpt lat="45.7353" lon="6.00092">
        <ele>592</ele>
        <time>2011-07-03T06:34:39Z</time>
      </trkpt>
      <trkpt lat="45.73533" lon="6.00094">
        <ele>592</ele>
        <time>2011-07-03T06:34:40Z</time>
      </trkpt>
      <trkpt lat="45.73536" lon="6.00095">
        <ele>592</ele>
        <time>2011-07-03T06:34:41Z</time>
      </trkpt>
      <trkpt lat="45.73539" lon="6.00097">
        <ele>592</ele>
        <time>2011-07-03T06:34:42Z</time>
      </trkpt>
      <trkpt lat="45.73542" lon="6.00099">
        <ele>592</ele>
        <time>2011-07-03T06:34:43Z</time>
      </trkpt>
      <trkpt lat="45.73545" lon="6.001">
        <ele>592</ele>
        <time>2011-07-03T06:34:44Z</time>
      </trkpt>
      <trkpt lat="45.73547" lon="6.00102">
        <ele>592</ele>
        <time>2011-07-03T06:34:45Z</time>
      </trkpt>
      <trkpt lat="45.7355" lon="6.00104">
        <ele>592</ele>
        <time>2011-07-03T06:34:46Z</time>
      </trkpt>
      <trkpt lat="45.73552" lon="6.00106">
        <ele>592</ele>
        <time>2011-07-03T06:34:47Z</time>
      </trkpt>
      <trkpt lat="45.73554" lon="6.00108">
        <ele>592</ele>
        <time>2011-07-03T06:34:48Z</time>
      </trkpt>
      <trkpt lat="45.73556" lon="6.00108">
        <ele>592</ele>
        <time>2011-07-03T06:34:49Z</time>
      </trkpt>
      <trkpt lat="45.73559" lon="6.00107">
        <ele>592</ele>
        <time>2011-07-03T06:34:50Z</time>
      </trkpt>
      <trkpt lat="45.73561" lon="6.00104">
        <ele>592</ele>
        <time>2011-07-03T06:34:51Z</time>
      </trkpt>
      <trkpt lat="45.73564" lon="6.001">
        <ele>592</ele>
        <time>2011-07-03T06:34:52Z</time>
      </trkpt>
      <trkpt lat="45.73567" lon="6.00095">
        <ele>592</ele>
        <time>2011-07-03T06:34:53Z</time>
      </trkpt>
      <trkpt lat="45.7357" lon="6.00091">
        <ele>592</ele>
        <time>2011-07-03T06:34:54Z</time>
      </trkpt>
      <trkpt lat="45.73574" lon="6.00086">
        <ele>592</ele>
        <time>2011-07-03T06:34:55Z</time>
      </trkpt>
      <trkpt lat="45.73577" lon="6.00081">
        <ele>592</ele>
        <time>2011-07-03T06:34:56Z</time>
      </trkpt>
      <trkpt lat="45.7358" lon="6.00075">
        <ele>592</ele>
        <time>2011-07-03T06:34:57Z</time>
      </trkpt>
      <trkpt lat="45.73584" lon="6.0007">
        <ele>592</ele>
        <time>2011-07-03T06:34:58Z</time>
      </trkpt>
      <trkpt lat="45.73587" lon="6.00065">
        <ele>592</ele>
        <time>2011-07-03T06:34:59Z</time>
      </trkpt>
      <trkpt lat="45.7359" lon="6.00059">
        <ele>592</ele>
        <time>2011-07-03T06:35:00Z</time>
      </trkpt>
      <trkpt lat="45.73595" lon="6.00052">
        <ele>592</ele>
        <time>2011-07-03T06:35:01Z</time>
      </trkpt>
      <trkpt lat="45.73598" lon="6.00045">
        <ele>592</ele>
        <time>2011-07-03T06:35:02Z</time>
      </trkpt>
      <trkpt lat="45.73602" lon="6.00039">
        <ele>592</ele>
        <time>2011-07-03T06:35:03Z</time>
      </trkpt>
      <trkpt lat="45.73605" lon="6.00033">
        <ele>592</ele>
        <time>2011-07-03T06:35:04Z</time>
      </trkpt>
      <trkpt lat="45.73609" lon="6.00026">
        <ele>592</ele>
        <time>2011-07-03T06:35:05Z</time>
      </trkpt>
      <trkpt lat="45.73613" lon="6.0002">
        <ele>592</ele>
        <time>2011-07-03T06:35:06Z</time>
      </trkpt>
      <trkpt lat="45.73617" lon="6.00013">
        <ele>591</ele>
        <time>2011-07-03T06:35:07Z</time>
      </trkpt>
      <trkpt lat="45.7362" lon="6.00008">
        <ele>591</ele>
        <time>2011-07-03T06:35:08Z</time>
      </trkpt>
      <trkpt lat="45.73623" lon="6.00003">
        <ele>591</ele>
        <time>2011-07-03T06:35:09Z</time>
      </trkpt>
      <trkpt lat="45.73626" lon="5.99998">
        <ele>591</ele>
        <time>2011-07-03T06:35:10Z</time>
      </trkpt>
      <trkpt lat="45.73629" lon="5.99993">
        <ele>591</ele>
        <time>2011-07-03T06:35:11Z</time>
      </trkpt>
      <trkpt lat="45.73632" lon="5.99989">
        <ele>590</ele>
        <time>2011-07-03T06:35:12Z</time>
      </trkpt>
      <trkpt lat="45.73635" lon="5.99985">
        <ele>590</ele>
        <time>2011-07-03T06:35:13Z</time>
      </trkpt>
      <trkpt lat="45.73639" lon="5.9998">
        <ele>590</ele>
        <time>2011-07-03T06:35:14Z</time>
      </trkpt>
      <trkpt lat="45.73643" lon="5.99974">
        <ele>590</ele>
        <time>2011-07-03T06:35:15Z</time>
      </trkpt>
      <trkpt lat="45.73647" lon="5.99969">
        <ele>590</ele>
        <time>2011-07-03T06:35:16Z</time>
      </trkpt>
      <trkpt lat="45.73651" lon="5.99964">
        <ele>590</ele>
        <time>2011-07-03T06:35:17Z</time>
      </trkpt>
      <trkpt lat="45.73655" lon="5.99959">
        <ele>590</ele>
        <time>2011-07-03T06:35:18Z</time>
      </trkpt>
      <trkpt lat="45.73658" lon="5.99954">
        <ele>590</ele>
        <time>2011-07-03T06:35:19Z</time>
      </trkpt>
      <trkpt lat="45.73661" lon="5.99949">
        <ele>590</ele>
        <time>2011-07-03T06:35:20Z</time>
      </trkpt>
      <trkpt lat="45.73663" lon="5.99947">
        <ele>590</ele>
        <time>2011-07-03T06:35:21Z</time>
      </trkpt>
      <trkpt lat="45.73665" lon="5.99943">
        <ele>590</ele>
        <time>2011-07-03T06:35:22Z</time>
      </trkpt>
      <trkpt lat="45.73667" lon="5.99938">
        <ele>590</ele>
        <time>2011-07-03T06:35:23Z</time>
      </trkpt>
      <trkpt lat="45.73669" lon="5.99934">
        <ele>590</ele>
        <time>2011-07-03T06:35:24Z</time>
      </trkpt>
      <trkpt lat="45.73669" lon="5.9993">
        <ele>590</ele>
        <time>2011-07-03T06:35:25Z</time>
      </trkpt>
      <trkpt lat="45.7367" lon="5.99926">
        <ele>590</ele>
        <time>2011-07-03T06:35:26Z</time>
      </trkpt>
      <trkpt lat="45.73671" lon="5.99921">
        <ele>590</ele>
        <time>2011-07-03T06:35:27Z</time>
      </trkpt>
      <trkpt lat="45.73674" lon="5.99916">
        <ele>590</ele>
        <time>2011-07-03T06:35:28Z</time>
      </trkpt>
      <trkpt lat="45.73676" lon="5.99911">
        <ele>590</ele>
        <time>2011-07-03T06:35:29Z</time>
      </trkpt>
      <trkpt lat="45.73678" lon="5.99907">
        <ele>590</ele>
        <time>2011-07-03T06:35:30Z</time>
      </trkpt>
      <trkpt lat="45.7368" lon="5.99902">
        <ele>590</ele>
        <time>2011-07-03T06:35:31Z</time>
      </trkpt>
      <trkpt lat="45.73682" lon="5.99898">
        <ele>590</ele>
        <time>2011-07-03T06:35:32Z</time>
      </trkpt>
      <trkpt lat="45.73685" lon="5.99892">
        <ele>590</ele>
        <time>2011-07-03T06:35:33Z</time>
      </trkpt>
      <trkpt lat="45.73687" lon="5.99887">
        <ele>590</ele>
        <time>2011-07-03T06:35:34Z</time>
      </trkpt>
      <trkpt lat="45.73689" lon="5.99882">
        <ele>590</ele>
        <time>2011-07-03T06:35:35Z</time>
      </trkpt>
      <trkpt lat="45.7369" lon="5.99878">
        <ele>590</ele>
        <time>2011-07-03T06:35:36Z</time>
      </trkpt>
      <trkpt lat="45.73692" lon="5.99873">
        <ele>590</ele>
        <time>2011-07-03T06:35:37Z</time>
      </trkpt>
      <trkpt lat="45.73695" lon="5.99867">
        <ele>590</ele>
        <time>2011-07-03T06:35:38Z</time>
      </trkpt>
      <trkpt lat="45.73697" lon="5.99862">
        <ele>591</ele>
        <time>2011-07-03T06:35:39Z</time>
      </trkpt>
      <trkpt lat="45.73699" lon="5.99858">
        <ele>592</ele>
        <time>2011-07-03T06:35:40Z</time>
      </trkpt>
      <trkpt lat="45.737" lon="5.99853">
        <ele>592</ele>
        <time>2011-07-03T06:35:41Z</time>
      </trkpt>
      <trkpt lat="45.73701" lon="5.99849">
        <ele>593</ele>
        <time>2011-07-03T06:35:42Z</time>
      </trkpt>
      <trkpt lat="45.73703" lon="5.99845">
        <ele>593</ele>
        <time>2011-07-03T06:35:43Z</time>
      </trkpt>
      <trkpt lat="45.73705" lon="5.99839">
        <ele>593</ele>
        <time>2011-07-03T06:35:44Z</time>
      </trkpt>
      <trkpt lat="45.73708" lon="5.99834">
        <ele>593</ele>
        <time>2011-07-03T06:35:45Z</time>
      </trkpt>
      <trkpt lat="45.73709" lon="5.9983">
        <ele>593</ele>
        <time>2011-07-03T06:35:47Z</time>
      </trkpt>
      <trkpt lat="45.73712" lon="5.99824">
        <ele>593</ele>
        <time>2011-07-03T06:35:47Z</time>
      </trkpt>
      <trkpt lat="45.73714" lon="5.99819">
        <ele>593</ele>
        <time>2011-07-03T06:35:48Z</time>
      </trkpt>
      <trkpt lat="45.73716" lon="5.99814">
        <ele>593</ele>
        <time>2011-07-03T06:35:49Z</time>
      </trkpt>
      <trkpt lat="45.73718" lon="5.9981">
        <ele>593</ele>
        <time>2011-07-03T06:35:50Z</time>
      </trkpt>
      <trkpt lat="45.7372" lon="5.99804">
        <ele>593</ele>
        <time>2011-07-03T06:35:51Z</time>
      </trkpt>
      <trkpt lat="45.73722" lon="5.99798">
        <ele>593</ele>
        <time>2011-07-03T06:35:52Z</time>
      </trkpt>
      <trkpt lat="45.73725" lon="5.99792">
        <ele>593</ele>
        <time>2011-07-03T06:35:53Z</time>
      </trkpt>
      <trkpt lat="45.73727" lon="5.99786">
        <ele>593</ele>
        <time>2011-07-03T06:35:54Z</time>
      </trkpt>
      <trkpt lat="45.7373" lon="5.99779">
        <ele>593</ele>
        <time>2011-07-03T06:35:55Z</time>
      </trkpt>
      <trkpt lat="45.73733" lon="5.99772">
        <ele>593</ele>
        <time>2011-07-03T06:35:56Z</time>
      </trkpt>
      <trkpt lat="45.73736" lon="5.99764">
        <ele>593</ele>
        <time>2011-07-03T06:35:57Z</time>
      </trkpt>
      <trkpt lat="45.73739" lon="5.99757">
        <ele>593</ele>
        <time>2011-07-03T06:35:58Z</time>
      </trkpt>
      <trkpt lat="45.73743" lon="5.99751">
        <ele>593</ele>
        <time>2011-07-03T06:35:59Z</time>
      </trkpt>
      <trkpt lat="45.73747" lon="5.99744">
        <ele>593</ele>
        <time>2011-07-03T06:36:00Z</time>
      </trkpt>
      <trkpt lat="45.73752" lon="5.99737">
        <ele>593</ele>
        <time>2011-07-03T06:36:01Z</time>
      </trkpt>
      <trkpt lat="45.73756" lon="5.99731">
        <ele>593</ele>
        <time>2011-07-03T06:36:02Z</time>
      </trkpt>
      <trkpt lat="45.7376" lon="5.99725">
        <ele>593</ele>
        <time>2011-07-03T06:36:03Z</time>
      </trkpt>
      <trkpt lat="45.73763" lon="5.99719">
        <ele>593</ele>
        <time>2011-07-03T06:36:04Z</time>
      </trkpt>
      <trkpt lat="45.73767" lon="5.99713">
        <ele>593</ele>
        <time>2011-07-03T06:36:05Z</time>
      </trkpt>
      <trkpt lat="45.73771" lon="5.99708">
        <ele>592</ele>
        <time>2011-07-03T06:36:06Z</time>
      </trkpt>
      <trkpt lat="45.73774" lon="5.99702">
        <ele>591</ele>
        <time>2011-07-03T06:36:07Z</time>
      </trkpt>
      <trkpt lat="45.73778" lon="5.99696">
        <ele>590</ele>
        <time>2011-07-03T06:36:08Z</time>
      </trkpt>
      <trkpt lat="45.73781" lon="5.99689">
        <ele>590</ele>
        <time>2011-07-03T06:36:09Z</time>
      </trkpt>
      <trkpt lat="45.73784" lon="5.99682">
        <ele>589</ele>
        <time>2011-07-03T06:36:10Z</time>
      </trkpt>
      <trkpt lat="45.73786" lon="5.99673">
        <ele>588</ele>
        <time>2011-07-03T06:36:11Z</time>
      </trkpt>
      <trkpt lat="45.73789" lon="5.99665">
        <ele>587</ele>
        <time>2011-07-03T06:36:12Z</time>
      </trkpt>
      <trkpt lat="45.73792" lon="5.99656">
        <ele>586</ele>
        <time>2011-07-03T06:36:13Z</time>
      </trkpt>
      <trkpt lat="45.73795" lon="5.99647">
        <ele>585</ele>
        <time>2011-07-03T06:36:14Z</time>
      </trkpt>
      <trkpt lat="45.73797" lon="5.99638">
        <ele>584</ele>
        <time>2011-07-03T06:36:15Z</time>
      </trkpt>
      <trkpt lat="45.73801" lon="5.99628">
        <ele>583</ele>
        <time>2011-07-03T06:36:16Z</time>
      </trkpt>
      <trkpt lat="45.73806" lon="5.9962">
        <ele>582</ele>
        <time>2011-07-03T06:36:17Z</time>
      </trkpt>
      <trkpt lat="45.73811" lon="5.99614">
        <ele>581</ele>
        <time>2011-07-03T06:36:18Z</time>
      </trkpt>
      <trkpt lat="45.73817" lon="5.99611">
        <ele>580</ele>
        <time>2011-07-03T06:36:19Z</time>
      </trkpt>
      <trkpt lat="45.73824" lon="5.99609">
        <ele>579</ele>
        <time>2011-07-03T06:36:20Z</time>
      </trkpt>
      <trkpt lat="45.73832" lon="5.99609">
        <ele>578</ele>
        <time>2011-07-03T06:36:21Z</time>
      </trkpt>
      <trkpt lat="45.7384" lon="5.99612">
        <ele>577</ele>
        <time>2011-07-03T06:36:22Z</time>
      </trkpt>
      <trkpt lat="45.73848" lon="5.99617">
        <ele>576</ele>
        <time>2011-07-03T06:36:23Z</time>
      </trkpt>
      <trkpt lat="45.73854" lon="5.99623">
        <ele>575</ele>
        <time>2011-07-03T06:36:24Z</time>
      </trkpt>
      <trkpt lat="45.73861" lon="5.9963">
        <ele>574</ele>
        <time>2011-07-03T06:36:25Z</time>
      </trkpt>
      <trkpt lat="45.73869" lon="5.99636">
        <ele>573</ele>
        <time>2011-07-03T06:36:26Z</time>
      </trkpt>
      <trkpt lat="45.73876" lon="5.9964">
        <ele>572</ele>
        <time>2011-07-03T06:36:27Z</time>
      </trkpt>
      <trkpt lat="45.73883" lon="5.99644">
        <ele>571</ele>
        <time>2011-07-03T06:36:28Z</time>
      </trkpt>
      <trkpt lat="45.73891" lon="5.99645">
        <ele>570</ele>
        <time>2011-07-03T06:36:29Z</time>
      </trkpt>
      <trkpt lat="45.73899" lon="5.99645">
        <ele>569</ele>
        <time>2011-07-03T06:36:30Z</time>
      </trkpt>
      <trkpt lat="45.73906" lon="5.99644">
        <ele>568</ele>
        <time>2011-07-03T06:36:31Z</time>
      </trkpt>
      <trkpt lat="45.73914" lon="5.99641">
        <ele>567</ele>
        <time>2011-07-03T06:36:32Z</time>
      </trkpt>
      <trkpt lat="45.73922" lon="5.99639">
        <ele>566</ele>
        <time>2011-07-03T06:36:33Z</time>
      </trkpt>
      <trkpt lat="45.7393" lon="5.99635">
        <ele>565</ele>
        <time>2011-07-03T06:36:34Z</time>
      </trkpt>
      <trkpt lat="45.73938" lon="5.99632">
        <ele>564</ele>
        <time>2011-07-03T06:36:35Z</time>
      </trkpt>
      <trkpt lat="45.73946" lon="5.99629">
        <ele>563</ele>
        <time>2011-07-03T06:36:36Z</time>
      </trkpt>
      <trkpt lat="45.73955" lon="5.99627">
        <ele>562</ele>
        <time>2011-07-03T06:36:37Z</time>
      </trkpt>
      <trkpt lat="45.73963" lon="5.99625">
        <ele>561</ele>
        <time>2011-07-03T06:36:38Z</time>
      </trkpt>
      <trkpt lat="45.73972" lon="5.99623">
        <ele>560</ele>
        <time>2011-07-03T06:36:40Z</time>
      </trkpt>
      <trkpt lat="45.7398" lon="5.99623">
        <ele>559</ele>
        <time>2011-07-03T06:36:40Z</time>
      </trkpt>
      <trkpt lat="45.73989" lon="5.99624">
        <ele>558</ele>
        <time>2011-07-03T06:36:41Z</time>
      </trkpt>
      <trkpt lat="45.73997" lon="5.99626">
        <ele>557</ele>
        <time>2011-07-03T06:36:42Z</time>
      </trkpt>
      <trkpt lat="45.74006" lon="5.99628">
        <ele>556</ele>
        <time>2011-07-03T06:36:43Z</time>
      </trkpt>
      <trkpt lat="45.74014" lon="5.99628">
        <ele>555</ele>
        <time>2011-07-03T06:36:44Z</time>
      </trkpt>
      <trkpt lat="45.74023" lon="5.99628">
        <ele>554</ele>
        <time>2011-07-03T06:36:45Z</time>
      </trkpt>
      <trkpt lat="45.7403" lon="5.99626">
        <ele>554</ele>
        <time>2011-07-03T06:36:46Z</time>
      </trkpt>
      <trkpt lat="45.74038" lon="5.99624">
        <ele>553</ele>
        <time>2011-07-03T06:36:47Z</time>
      </trkpt>
      <trkpt lat="45.74045" lon="5.99621">
        <ele>552</ele>
        <time>2011-07-03T06:36:48Z</time>
      </trkpt>
      <trkpt lat="45.74053" lon="5.99618">
        <ele>551</ele>
        <time>2011-07-03T06:36:49Z</time>
      </trkpt>
      <trkpt lat="45.7406" lon="5.99616">
        <ele>551</ele>
        <time>2011-07-03T06:36:50Z</time>
      </trkpt>
      <trkpt lat="45.74069" lon="5.99614">
        <ele>550</ele>
        <time>2011-07-03T06:36:51Z</time>
      </trkpt>
      <trkpt lat="45.74077" lon="5.99612">
        <ele>549</ele>
        <time>2011-07-03T06:36:52Z</time>
      </trkpt>
      <trkpt lat="45.74086" lon="5.99611">
        <ele>548</ele>
        <time>2011-07-03T06:36:53Z</time>
      </trkpt>
      <trkpt lat="45.74094" lon="5.9961">
        <ele>547</ele>
        <time>2011-07-03T06:36:54Z</time>
      </trkpt>
      <trkpt lat="45.74102" lon="5.99611">
        <ele>547</ele>
        <time>2011-07-03T06:36:55Z</time>
      </trkpt>
      <trkpt lat="45.74109" lon="5.99613">
        <ele>546</ele>
        <time>2011-07-03T06:36:56Z</time>
      </trkpt>
      <trkpt lat="45.74115" lon="5.99615">
        <ele>546</ele>
        <time>2011-07-03T06:36:57Z</time>
      </trkpt>
      <trkpt lat="45.74121" lon="5.99618">
        <ele>545</ele>
        <time>2011-07-03T06:36:58Z</time>
      </trkpt>
      <trkpt lat="45.74128" lon="5.99622">
        <ele>544</ele>
        <time>2011-07-03T06:36:59Z</time>
      </trkpt>
      <trkpt lat="45.74134" lon="5.99625">
        <ele>544</ele>
        <time>2011-07-03T06:37:00Z</time>
      </trkpt>
      <trkpt lat="45.74139" lon="5.99628">
        <ele>543</ele>
        <time>2011-07-03T06:37:01Z</time>
      </trkpt>
      <trkpt lat="45.74145" lon="5.99632">
        <ele>543</ele>
        <time>2011-07-03T06:37:02Z</time>
      </trkpt>
      <trkpt lat="45.74151" lon="5.99635">
        <ele>543</ele>
        <time>2011-07-03T06:37:03Z</time>
      </trkpt>
      <trkpt lat="45.74157" lon="5.99638">
        <ele>543</ele>
        <time>2011-07-03T06:37:04Z</time>
      </trkpt>
      <trkpt lat="45.74163" lon="5.99642">
        <ele>542</ele>
        <time>2011-07-03T06:37:05Z</time>
      </trkpt>
      <trkpt lat="45.7417" lon="5.99644">
        <ele>542</ele>
        <time>2011-07-03T06:37:06Z</time>
      </trkpt>
      <trkpt lat="45.74177" lon="5.99645">
        <ele>541</ele>
        <time>2011-07-03T06:37:07Z</time>
      </trkpt>
      <trkpt lat="45.74183" lon="5.99643">
        <ele>541</ele>
        <time>2011-07-03T06:37:08Z</time>
      </trkpt>
      <trkpt lat="45.7419" lon="5.9964">
        <ele>540</ele>
        <time>2011-07-03T06:37:09Z</time>
      </trkpt>
      <trkpt lat="45.74195" lon="5.99633">
        <ele>539</ele>
        <time>2011-07-03T06:37:10Z</time>
      </trkpt>
      <trkpt lat="45.742" lon="5.99624">
        <ele>538</ele>
        <time>2011-07-03T06:37:11Z</time>
      </trkpt>
      <trkpt lat="45.74205" lon="5.99614">
        <ele>538</ele>
        <time>2011-07-03T06:37:12Z</time>
      </trkpt>
      <trkpt lat="45.7421" lon="5.99604">
        <ele>537</ele>
        <time>2011-07-03T06:37:13Z</time>
      </trkpt>
      <trkpt lat="45.74215" lon="5.99593">
        <ele>536</ele>
        <time>2011-07-03T06:37:14Z</time>
      </trkpt>
      <trkpt lat="45.7422" lon="5.99583">
        <ele>536</ele>
        <time>2011-07-03T06:37:15Z</time>
      </trkpt>
      <trkpt lat="45.74226" lon="5.99575">
        <ele>535</ele>
        <time>2011-07-03T06:37:16Z</time>
      </trkpt>
      <trkpt lat="45.74231" lon="5.99568">
        <ele>534</ele>
        <time>2011-07-03T06:37:17Z</time>
      </trkpt>
      <trkpt lat="45.74237" lon="5.9956">
        <ele>533</ele>
        <time>2011-07-03T06:37:18Z</time>
      </trkpt>
      <trkpt lat="45.74243" lon="5.99554">
        <ele>532</ele>
        <time>2011-07-03T06:37:19Z</time>
      </trkpt>
      <trkpt lat="45.7425" lon="5.99548">
        <ele>531</ele>
        <time>2011-07-03T06:37:20Z</time>
      </trkpt>
      <trkpt lat="45.74257" lon="5.99542">
        <ele>530</ele>
        <time>2011-07-03T06:37:21Z</time>
      </trkpt>
      <trkpt lat="45.74265" lon="5.99537">
        <ele>529</ele>
        <time>2011-07-03T06:37:22Z</time>
      </trkpt>
      <trkpt lat="45.74272" lon="5.99532">
        <ele>528</ele>
        <time>2011-07-03T06:37:23Z</time>
      </trkpt>
      <trkpt lat="45.7428" lon="5.99527">
        <ele>527</ele>
        <time>2011-07-03T06:37:24Z</time>
      </trkpt>
      <trkpt lat="45.74288" lon="5.99522">
        <ele>526</ele>
        <time>2011-07-03T06:37:25Z</time>
      </trkpt>
      <trkpt lat="45.74295" lon="5.99517">
        <ele>525</ele>
        <time>2011-07-03T06:37:26Z</time>
      </trkpt>
      <trkpt lat="45.74303" lon="5.99513">
        <ele>524</ele>
        <time>2011-07-03T06:37:27Z</time>
      </trkpt>
      <trkpt lat="45.74308" lon="5.99508">
        <ele>524</ele>
        <time>2011-07-03T06:37:28Z</time>
      </trkpt>
      <trkpt lat="45.74314" lon="5.99505">
        <ele>523</ele>
        <time>2011-07-03T06:37:29Z</time>
      </trkpt>
      <trkpt lat="45.74319" lon="5.99502">
        <ele>523</ele>
        <time>2011-07-03T06:37:30Z</time>
      </trkpt>
      <trkpt lat="45.74323" lon="5.99499">
        <ele>522</ele>
        <time>2011-07-03T06:37:31Z</time>
      </trkpt>
      <trkpt lat="45.74326" lon="5.99498">
        <ele>522</ele>
        <time>2011-07-03T06:37:32Z</time>
      </trkpt>
      <trkpt lat="45.74329" lon="5.99496">
        <ele>521</ele>
        <time>2011-07-03T06:37:33Z</time>
      </trkpt>
      <trkpt lat="45.74332" lon="5.99494">
        <ele>521</ele>
        <time>2011-07-03T06:37:34Z</time>
      </trkpt>
      <trkpt lat="45.74336" lon="5.99492">
        <ele>520</ele>
        <time>2011-07-03T06:37:35Z</time>
      </trkpt>
      <trkpt lat="45.74339" lon="5.9949">
        <ele>520</ele>
        <time>2011-07-03T06:37:36Z</time>
      </trkpt>
      <trkpt lat="45.74342" lon="5.99487">
        <ele>520</ele>
        <time>2011-07-03T06:37:37Z</time>
      </trkpt>
      <trkpt lat="45.74345" lon="5.99483">
        <ele>519</ele>
        <time>2011-07-03T06:37:38Z</time>
      </trkpt>
      <trkpt lat="45.74348" lon="5.9948">
        <ele>519</ele>
        <time>2011-07-03T06:37:39Z</time>
      </trkpt>
      <trkpt lat="45.74353" lon="5.99476">
        <ele>518</ele>
        <time>2011-07-03T06:37:40Z</time>
      </trkpt>
      <trkpt lat="45.74358" lon="5.99472">
        <ele>518</ele>
        <time>2011-07-03T06:37:41Z</time>
      </trkpt>
      <trkpt lat="45.74363" lon="5.99468">
        <ele>518</ele>
        <time>2011-07-03T06:37:42Z</time>
      </trkpt>
      <trkpt lat="45.74368" lon="5.99463">
        <ele>518</ele>
        <time>2011-07-03T06:37:43Z</time>
      </trkpt>
      <trkpt lat="45.74374" lon="5.99459">
        <ele>518</ele>
        <time>2011-07-03T06:37:44Z</time>
      </trkpt>
      <trkpt lat="45.7438" lon="5.99454">
        <ele>518</ele>
        <time>2011-07-03T06:37:45Z</time>
      </trkpt>
      <trkpt lat="45.74385" lon="5.99448">
        <ele>517</ele>
        <time>2011-07-03T06:37:46Z</time>
      </trkpt>
      <trkpt lat="45.74391" lon="5.99442">
        <ele>517</ele>
        <time>2011-07-03T06:37:47Z</time>
      </trkpt>
      <trkpt lat="45.74398" lon="5.99434">
        <ele>516</ele>
        <time>2011-07-03T06:37:48Z</time>
      </trkpt>
      <trkpt lat="45.74404" lon="5.99426">
        <ele>515</ele>
        <time>2011-07-03T06:37:49Z</time>
      </trkpt>
      <trkpt lat="45.7441" lon="5.99418">
        <ele>515</ele>
        <time>2011-07-03T06:37:50Z</time>
      </trkpt>
      <trkpt lat="45.74416" lon="5.99408">
        <ele>514</ele>
        <time>2011-07-03T06:37:51Z</time>
      </trkpt>
      <trkpt lat="45.74423" lon="5.99399">
        <ele>513</ele>
        <time>2011-07-03T06:37:52Z</time>
      </trkpt>
      <trkpt lat="45.74429" lon="5.9939">
        <ele>512</ele>
        <time>2011-07-03T06:37:53Z</time>
      </trkpt>
      <trkpt lat="45.74435" lon="5.99381">
        <ele>512</ele>
        <time>2011-07-03T06:37:54Z</time>
      </trkpt>
      <trkpt lat="45.74442" lon="5.99373">
        <ele>511</ele>
        <time>2011-07-03T06:37:55Z</time>
      </trkpt>
      <trkpt lat="45.74448" lon="5.99365">
        <ele>510</ele>
        <time>2011-07-03T06:37:56Z</time>
      </trkpt>
      <trkpt lat="45.74454" lon="5.99357">
        <ele>510</ele>
        <time>2011-07-03T06:37:57Z</time>
      </trkpt>
      <trkpt lat="45.74459" lon="5.9935">
        <ele>509</ele>
        <time>2011-07-03T06:37:58Z</time>
      </trkpt>
      <trkpt lat="45.74465" lon="5.99342">
        <ele>509</ele>
        <time>2011-07-03T06:37:59Z</time>
      </trkpt>
      <trkpt lat="45.74471" lon="5.99334">
        <ele>508</ele>
        <time>2011-07-03T06:38:00Z</time>
      </trkpt>
      <trkpt lat="45.74476" lon="5.99326">
        <ele>507</ele>
        <time>2011-07-03T06:38:01Z</time>
      </trkpt>
      <trkpt lat="45.74482" lon="5.99319">
        <ele>507</ele>
        <time>2011-07-03T06:38:02Z</time>
      </trkpt>
      <trkpt lat="45.74488" lon="5.99311">
        <ele>506</ele>
        <time>2011-07-03T06:38:03Z</time>
      </trkpt>
      <trkpt lat="45.74494" lon="5.99303">
        <ele>505</ele>
        <time>2011-07-03T06:38:04Z</time>
      </trkpt>
      <trkpt lat="45.745" lon="5.99295">
        <ele>505</ele>
        <time>2011-07-03T06:38:05Z</time>
      </trkpt>
      <trkpt lat="45.74506" lon="5.99288">
        <ele>504</ele>
        <time>2011-07-03T06:38:06Z</time>
      </trkpt>
      <trkpt lat="45.74513" lon="5.99281">
        <ele>504</ele>
        <time>2011-07-03T06:38:07Z</time>
      </trkpt>
      <trkpt lat="45.7452" lon="5.99274">
        <ele>504</ele>
        <time>2011-07-03T06:38:08Z</time>
      </trkpt>
      <trkpt lat="45.74527" lon="5.99267">
        <ele>504</ele>
        <time>2011-07-03T06:38:09Z</time>
      </trkpt>
      <trkpt lat="45.74533" lon="5.99261">
        <ele>504</ele>
        <time>2011-07-03T06:38:10Z</time>
      </trkpt>
      <trkpt lat="45.74539" lon="5.99255">
        <ele>503</ele>
        <time>2011-07-03T06:38:11Z</time>
      </trkpt>
      <trkpt lat="45.74546" lon="5.99249">
        <ele>503</ele>
        <time>2011-07-03T06:38:12Z</time>
      </trkpt>
      <trkpt lat="45.74551" lon="5.99244">
        <ele>503</ele>
        <time>2011-07-03T06:38:14Z</time>
      </trkpt>
      <trkpt lat="45.74557" lon="5.99239">
        <ele>503</ele>
        <time>2011-07-03T06:38:14Z</time>
      </trkpt>
      <trkpt lat="45.74562" lon="5.99233">
        <ele>503</ele>
        <time>2011-07-03T06:38:15Z</time>
      </trkpt>
      <trkpt lat="45.74568" lon="5.99228">
        <ele>503</ele>
        <time>2011-07-03T06:38:16Z</time>
      </trkpt>
      <trkpt lat="45.74572" lon="5.99224">
        <ele>503</ele>
        <time>2011-07-03T06:38:17Z</time>
      </trkpt>
      <trkpt lat="45.74577" lon="5.99219">
        <ele>503</ele>
        <time>2011-07-03T06:38:18Z</time>
      </trkpt>
      <trkpt lat="45.74581" lon="5.99215">
        <ele>503</ele>
        <time>2011-07-03T06:38:19Z</time>
      </trkpt>
      <trkpt lat="45.74585" lon="5.99211">
        <ele>503</ele>
        <time>2011-07-03T06:38:20Z</time>
      </trkpt>
      <trkpt lat="45.74589" lon="5.99206">
        <ele>503</ele>
        <time>2011-07-03T06:38:21Z</time>
      </trkpt>
      <trkpt lat="45.74593" lon="5.99202">
        <ele>503</ele>
        <time>2011-07-03T06:38:22Z</time>
      </trkpt>
      <trkpt lat="45.74597" lon="5.99198">
        <ele>503</ele>
        <time>2011-07-03T06:38:23Z</time>
      </trkpt>
      <trkpt lat="45.74601" lon="5.99193">
        <ele>503</ele>
        <time>2011-07-03T06:38:24Z</time>
      </trkpt>
      <trkpt lat="45.74605" lon="5.99189">
        <ele>503</ele>
        <time>2011-07-03T06:38:25Z</time>
      </trkpt>
      <trkpt lat="45.74609" lon="5.99185">
        <ele>503</ele>
        <time>2011-07-03T06:38:26Z</time>
      </trkpt>
      <trkpt lat="45.74613" lon="5.9918">
        <ele>503</ele>
        <time>2011-07-03T06:38:27Z</time>
      </trkpt>
      <trkpt lat="45.74617" lon="5.99176">
        <ele>503</ele>
        <time>2011-07-03T06:38:28Z</time>
      </trkpt>
      <trkpt lat="45.7462" lon="5.99171">
        <ele>503</ele>
        <time>2011-07-03T06:38:29Z</time>
      </trkpt>
      <trkpt lat="45.74624" lon="5.99166">
        <ele>503</ele>
        <time>2011-07-03T06:38:30Z</time>
      </trkpt>
      <trkpt lat="45.74628" lon="5.99161">
        <ele>503</ele>
        <time>2011-07-03T06:38:31Z</time>
      </trkpt>
      <trkpt lat="45.74632" lon="5.99156">
        <ele>503</ele>
        <time>2011-07-03T06:38:32Z</time>
      </trkpt>
      <trkpt lat="45.74637" lon="5.99149">
        <ele>503</ele>
        <time>2011-07-03T06:38:33Z</time>
      </trkpt>
      <trkpt lat="45.74643" lon="5.99143">
        <ele>503</ele>
        <time>2011-07-03T06:38:34Z</time>
      </trkpt>
      <trkpt lat="45.74648" lon="5.99136">
        <ele>503</ele>
        <time>2011-07-03T06:38:35Z</time>
      </trkpt>
      <trkpt lat="45.74653" lon="5.99129">
        <ele>503</ele>
        <time>2011-07-03T06:38:36Z</time>
      </trkpt>
      <trkpt lat="45.74659" lon="5.99122">
        <ele>503</ele>
        <time>2011-07-03T06:38:37Z</time>
      </trkpt>
      <trkpt lat="45.74664" lon="5.99115">
        <ele>503</ele>
        <time>2011-07-03T06:38:38Z</time>
      </trkpt>
      <trkpt lat="45.7467" lon="5.99107">
        <ele>503</ele>
        <time>2011-07-03T06:38:39Z</time>
      </trkpt>
      <trkpt lat="45.74675" lon="5.99099">
        <ele>503</ele>
        <time>2011-07-03T06:38:40Z</time>
      </trkpt>
      <trkpt lat="45.74681" lon="5.99093">
        <ele>503</ele>
        <time>2011-07-03T06:38:41Z</time>
      </trkpt>
      <trkpt lat="45.74687" lon="5.99086">
        <ele>503</ele>
        <time>2011-07-03T06:38:42Z</time>
      </trkpt>
      <trkpt lat="45.74693" lon="5.99081">
        <ele>502</ele>
        <time>2011-07-03T06:38:43Z</time>
      </trkpt>
      <trkpt lat="45.747" lon="5.99078">
        <ele>502</ele>
        <time>2011-07-03T06:38:44Z</time>
      </trkpt>
      <trkpt lat="45.74706" lon="5.99076">
        <ele>501</ele>
        <time>2011-07-03T06:38:45Z</time>
      </trkpt>
      <trkpt lat="45.74713" lon="5.99075">
        <ele>501</ele>
        <time>2011-07-03T06:38:46Z</time>
      </trkpt>
      <trkpt lat="45.74719" lon="5.99075">
        <ele>500</ele>
        <time>2011-07-03T06:38:47Z</time>
      </trkpt>
      <trkpt lat="45.74725" lon="5.99076">
        <ele>500</ele>
        <time>2011-07-03T06:38:48Z</time>
      </trkpt>
      <trkpt lat="45.74732" lon="5.99076">
        <ele>500</ele>
        <time>2011-07-03T06:38:49Z</time>
      </trkpt>
      <trkpt lat="45.74738" lon="5.99077">
        <ele>500</ele>
        <time>2011-07-03T06:38:50Z</time>
      </trkpt>
      <trkpt lat="45.74743" lon="5.99078">
        <ele>500</ele>
        <time>2011-07-03T06:38:51Z</time>
      </trkpt>
      <trkpt lat="45.74748" lon="5.99079">
        <ele>500</ele>
        <time>2011-07-03T06:38:52Z</time>
      </trkpt>
      <trkpt lat="45.74753" lon="5.9908">
        <ele>500</ele>
        <time>2011-07-03T06:38:53Z</time>
      </trkpt>
      <trkpt lat="45.74757" lon="5.99081">
        <ele>500</ele>
        <time>2011-07-03T06:38:54Z</time>
      </trkpt>
      <trkpt lat="45.74762" lon="5.99081">
        <ele>500</ele>
        <time>2011-07-03T06:38:55Z</time>
      </trkpt>
      <trkpt lat="45.74767" lon="5.99082">
        <ele>500</ele>
        <time>2011-07-03T06:38:56Z</time>
      </trkpt>
      <trkpt lat="45.74772" lon="5.99081">
        <ele>500</ele>
        <time>2011-07-03T06:38:57Z</time>
      </trkpt>
      <trkpt lat="45.74776" lon="5.99081">
        <ele>500</ele>
        <time>2011-07-03T06:38:58Z</time>
      </trkpt>
      <trkpt lat="45.74781" lon="5.9908">
        <ele>500</ele>
        <time>2011-07-03T06:38:59Z</time>
      </trkpt>
      <trkpt lat="45.74785" lon="5.99079">
        <ele>500</ele>
        <time>2011-07-03T06:39:00Z</time>
      </trkpt>
      <trkpt lat="45.74789" lon="5.99077">
        <ele>500</ele>
        <time>2011-07-03T06:39:01Z</time>
      </trkpt>
      <trkpt lat="45.74794" lon="5.99076">
        <ele>500</ele>
        <time>2011-07-03T06:39:02Z</time>
      </trkpt>
      <trkpt lat="45.74798" lon="5.99074">
        <ele>500</ele>
        <time>2011-07-03T06:39:03Z</time>
      </trkpt>
      <trkpt lat="45.74802" lon="5.99072">
        <ele>500</ele>
        <time>2011-07-03T06:39:04Z</time>
      </trkpt>
      <trkpt lat="45.74806" lon="5.99071">
        <ele>500</ele>
        <time>2011-07-03T06:39:05Z</time>
      </trkpt>
      <trkpt lat="45.7481" lon="5.99068">
        <ele>500</ele>
        <time>2011-07-03T06:39:06Z</time>
      </trkpt>
      <trkpt lat="45.74814" lon="5.99066">
        <ele>500</ele>
        <time>2011-07-03T06:39:07Z</time>
      </trkpt>
      <trkpt lat="45.74818" lon="5.99064">
        <ele>500</ele>
        <time>2011-07-03T06:39:08Z</time>
      </trkpt>
      <trkpt lat="45.74822" lon="5.99061">
        <ele>500</ele>
        <time>2011-07-03T06:39:09Z</time>
      </trkpt>
      <trkpt lat="45.74825" lon="5.99058">
        <ele>500</ele>
        <time>2011-07-03T06:39:10Z</time>
      </trkpt>
      <trkpt lat="45.74828" lon="5.99055">
        <ele>500</ele>
        <time>2011-07-03T06:39:11Z</time>
      </trkpt>
      <trkpt lat="45.74831" lon="5.99052">
        <ele>500</ele>
        <time>2011-07-03T06:39:12Z</time>
      </trkpt>
      <trkpt lat="45.74834" lon="5.99048">
        <ele>500</ele>
        <time>2011-07-03T06:39:13Z</time>
      </trkpt>
      <trkpt lat="45.74836" lon="5.99045">
        <ele>500</ele>
        <time>2011-07-03T06:39:14Z</time>
      </trkpt>
      <trkpt lat="45.74838" lon="5.99042">
        <ele>500</ele>
        <time>2011-07-03T06:39:15Z</time>
      </trkpt>
      <trkpt lat="45.7484" lon="5.99039">
        <ele>500</ele>
        <time>2011-07-03T06:39:16Z</time>
      </trkpt>
      <trkpt lat="45.74842" lon="5.99036">
        <ele>500</ele>
        <time>2011-07-03T06:39:17Z</time>
      </trkpt>
      <trkpt lat="45.74844" lon="5.99034">
        <ele>500</ele>
        <time>2011-07-03T06:39:18Z</time>
      </trkpt>
      <trkpt lat="45.74846" lon="5.99031">
        <ele>500</ele>
        <time>2011-07-03T06:39:19Z</time>
      </trkpt>
      <trkpt lat="45.74847" lon="5.9903">
        <ele>500</ele>
        <time>2011-07-03T06:39:20Z</time>
      </trkpt>
      <trkpt lat="45.74848" lon="5.99028">
        <ele>500</ele>
        <time>2011-07-03T06:39:21Z</time>
      </trkpt>
      <trkpt lat="45.74849" lon="5.99026">
        <ele>500</ele>
        <time>2011-07-03T06:39:22Z</time>
      </trkpt>
      <trkpt lat="45.7485" lon="5.99024">
        <ele>500</ele>
        <time>2011-07-03T06:39:23Z</time>
      </trkpt>
      <trkpt lat="45.74851" lon="5.99022">
        <ele>500</ele>
        <time>2011-07-03T06:39:24Z</time>
      </trkpt>
      <trkpt lat="45.74852" lon="5.9902">
        <ele>500</ele>
        <time>2011-07-03T06:39:25Z</time>
      </trkpt>
      <trkpt lat="45.74852" lon="5.99019">
        <ele>500</ele>
        <time>2011-07-03T06:39:26Z</time>
      </trkpt>
      <trkpt lat="45.74852" lon="5.99016">
        <ele>500</ele>
        <time>2011-07-03T06:39:27Z</time>
      </trkpt>
      <trkpt lat="45.74852" lon="5.99014">
        <ele>500</ele>
        <time>2011-07-03T06:39:28Z</time>
      </trkpt>
      <trkpt lat="45.7485" lon="5.9901">
        <ele>500</ele>
        <time>2011-07-03T06:39:29Z</time>
      </trkpt>
      <trkpt lat="45.74849" lon="5.99006">
        <ele>500</ele>
        <time>2011-07-03T06:39:30Z</time>
      </trkpt>
      <trkpt lat="45.74848" lon="5.99002">
        <ele>500</ele>
        <time>2011-07-03T06:39:31Z</time>
      </trkpt>
      <trkpt lat="45.74848" lon="5.98997">
        <ele>500</ele>
        <time>2011-07-03T06:39:32Z</time>
      </trkpt>
      <trkpt lat="45.74846" lon="5.98993">
        <ele>500</ele>
        <time>2011-07-03T06:39:33Z</time>
      </trkpt>
      <trkpt lat="45.74845" lon="5.98989">
        <ele>500</ele>
        <time>2011-07-03T06:39:34Z</time>
      </trkpt>
      <trkpt lat="45.74844" lon="5.98984">
        <ele>500</ele>
        <time>2011-07-03T06:39:35Z</time>
      </trkpt>
      <trkpt lat="45.74843" lon="5.98979">
        <ele>500</ele>
        <time>2011-07-03T06:39:36Z</time>
      </trkpt>
      <trkpt lat="45.74842" lon="5.98973">
        <ele>500</ele>
        <time>2011-07-03T06:39:37Z</time>
      </trkpt>
      <trkpt lat="45.74841" lon="5.98967">
        <ele>500</ele>
        <time>2011-07-03T06:39:38Z</time>
      </trkpt>
      <trkpt lat="45.74839" lon="5.9896">
        <ele>500</ele>
        <time>2011-07-03T06:39:39Z</time>
      </trkpt>
      <trkpt lat="45.74837" lon="5.98954">
        <ele>500</ele>
        <time>2011-07-03T06:39:40Z</time>
      </trkpt>
      <trkpt lat="45.74835" lon="5.98947">
        <ele>500</ele>
        <time>2011-07-03T06:39:41Z</time>
      </trkpt>
      <trkpt lat="45.74833" lon="5.98939">
        <ele>500</ele>
        <time>2011-07-03T06:39:42Z</time>
      </trkpt>
      <trkpt lat="45.74832" lon="5.98931">
        <ele>499</ele>
        <time>2011-07-03T06:39:43Z</time>
      </trkpt>
      <trkpt lat="45.74831" lon="5.98922">
        <ele>498</ele>
        <time>2011-07-03T06:39:44Z</time>
      </trkpt>
      <trkpt lat="45.74829" lon="5.98914">
        <ele>497</ele>
        <time>2011-07-03T06:39:45Z</time>
      </trkpt>
      <trkpt lat="45.74828" lon="5.98906">
        <ele>496</ele>
        <time>2011-07-03T06:39:46Z</time>
      </trkpt>
      <trkpt lat="45.74826" lon="5.98897">
        <ele>496</ele>
        <time>2011-07-03T06:39:47Z</time>
      </trkpt>
      <trkpt lat="45.74825" lon="5.98889">
        <ele>495</ele>
        <time>2011-07-03T06:39:48Z</time>
      </trkpt>
      <trkpt lat="45.74823" lon="5.9888">
        <ele>495</ele>
        <time>2011-07-03T06:39:49Z</time>
      </trkpt>
      <trkpt lat="45.7482" lon="5.98872">
        <ele>494</ele>
        <time>2011-07-03T06:39:50Z</time>
      </trkpt>
      <trkpt lat="45.74817" lon="5.98864">
        <ele>494</ele>
        <time>2011-07-03T06:39:51Z</time>
      </trkpt>
      <trkpt lat="45.74814" lon="5.98855">
        <ele>493</ele>
        <time>2011-07-03T06:39:52Z</time>
      </trkpt>
      <trkpt lat="45.74812" lon="5.98846">
        <ele>493</ele>
        <time>2011-07-03T06:39:53Z</time>
      </trkpt>
      <trkpt lat="45.74809" lon="5.98837">
        <ele>493</ele>
        <time>2011-07-03T06:39:54Z</time>
      </trkpt>
      <trkpt lat="45.74805" lon="5.98828">
        <ele>492</ele>
        <time>2011-07-03T06:39:55Z</time>
      </trkpt>
      <trkpt lat="45.74802" lon="5.98821">
        <ele>492</ele>
        <time>2011-07-03T06:39:56Z</time>
      </trkpt>
      <trkpt lat="45.748" lon="5.98813">
        <ele>491</ele>
        <time>2011-07-03T06:39:57Z</time>
      </trkpt>
      <trkpt lat="45.74798" lon="5.98806">
        <ele>490</ele>
        <time>2011-07-03T06:39:58Z</time>
      </trkpt>
      <trkpt lat="45.74796" lon="5.98798">
        <ele>490</ele>
        <time>2011-07-03T06:39:59Z</time>
      </trkpt>
      <trkpt lat="45.74794" lon="5.98791">
        <ele>489</ele>
        <time>2011-07-03T06:40:00Z</time>
      </trkpt>
      <trkpt lat="45.74794" lon="5.98783">
        <ele>488</ele>
        <time>2011-07-03T06:40:01Z</time>
      </trkpt>
      <trkpt lat="45.74794" lon="5.98775">
        <ele>488</ele>
        <time>2011-07-03T06:40:02Z</time>
      </trkpt>
      <trkpt lat="45.74795" lon="5.98769">
        <ele>487</ele>
        <time>2011-07-03T06:40:03Z</time>
      </trkpt>
      <trkpt lat="45.74795" lon="5.98764">
        <ele>487</ele>
        <time>2011-07-03T06:40:04Z</time>
      </trkpt>
      <trkpt lat="45.74796" lon="5.98759">
        <ele>487</ele>
        <time>2011-07-03T06:40:05Z</time>
      </trkpt>
      <trkpt lat="45.74795" lon="5.98755">
        <ele>487</ele>
        <time>2011-07-03T06:40:06Z</time>
      </trkpt>
      <trkpt lat="45.74794" lon="5.98751">
        <ele>487</ele>
        <time>2011-07-03T06:40:07Z</time>
      </trkpt>
      <trkpt lat="45.74792" lon="5.98747">
        <ele>487</ele>
        <time>2011-07-03T06:40:08Z</time>
      </trkpt>
      <trkpt lat="45.74791" lon="5.98744">
        <ele>487</ele>
        <time>2011-07-03T06:40:09Z</time>
      </trkpt>
      <trkpt lat="45.74789" lon="5.98741">
        <ele>487</ele>
        <time>2011-07-03T06:40:10Z</time>
      </trkpt>
      <trkpt lat="45.74788" lon="5.98737">
        <ele>487</ele>
        <time>2011-07-03T06:40:11Z</time>
      </trkpt>
      <trkpt lat="45.74787" lon="5.98734">
        <ele>487</ele>
        <time>2011-07-03T06:40:12Z</time>
      </trkpt>
      <trkpt lat="45.74786" lon="5.98731">
        <ele>487</ele>
        <time>2011-07-03T06:40:13Z</time>
      </trkpt>
      <trkpt lat="45.74784" lon="5.98728">
        <ele>487</ele>
        <time>2011-07-03T06:40:14Z</time>
      </trkpt>
      <trkpt lat="45.74783" lon="5.98725">
        <ele>487</ele>
        <time>2011-07-03T06:40:15Z</time>
      </trkpt>
      <trkpt lat="45.74782" lon="5.98723">
        <ele>487</ele>
        <time>2011-07-03T06:40:16Z</time>
      </trkpt>
      <trkpt lat="45.74781" lon="5.98721">
        <ele>487</ele>
        <time>2011-07-03T06:40:18Z</time>
      </trkpt>
      <trkpt lat="45.74781" lon="5.98718">
        <ele>487</ele>
        <time>2011-07-03T06:40:20Z</time>
      </trkpt>
      <trkpt lat="45.7478" lon="5.98717">
        <ele>487</ele>
        <time>2011-07-03T06:40:21Z</time>
      </trkpt>
      <trkpt lat="45.7478" lon="5.98715">
        <ele>487</ele>
        <time>2011-07-03T06:40:22Z</time>
      </trkpt>
      <trkpt lat="45.74781" lon="5.98712">
        <ele>487</ele>
        <time>2011-07-03T06:40:23Z</time>
      </trkpt>
      <trkpt lat="45.74783" lon="5.98709">
        <ele>487</ele>
        <time>2011-07-03T06:40:24Z</time>
      </trkpt>
      <trkpt lat="45.74785" lon="5.98707">
        <ele>487</ele>
        <time>2011-07-03T06:40:25Z</time>
      </trkpt>
      <trkpt lat="45.74786" lon="5.98704">
        <ele>487</ele>
        <time>2011-07-03T06:40:26Z</time>
      </trkpt>
      <trkpt lat="45.74787" lon="5.98702">
        <ele>487</ele>
        <time>2011-07-03T06:40:27Z</time>
      </trkpt>
      <trkpt lat="45.74787" lon="5.987">
        <ele>487</ele>
        <time>2011-07-03T06:40:28Z</time>
      </trkpt>
      <trkpt lat="45.74787" lon="5.98697">
        <ele>487</ele>
        <time>2011-07-03T06:40:30Z</time>
      </trkpt>
      <trkpt lat="45.74788" lon="5.98695">
        <ele>487</ele>
        <time>2011-07-03T06:40:32Z</time>
      </trkpt>
      <trkpt lat="45.74786" lon="5.98693">
        <ele>487</ele>
        <time>2011-07-03T06:40:34Z</time>
      </trkpt>
      <trkpt lat="45.74785" lon="5.98692">
        <ele>487</ele>
        <time>2011-07-03T06:40:35Z</time>
      </trkpt>
      <trkpt lat="45.74783" lon="5.98691">
        <ele>487</ele>
        <time>2011-07-03T06:40:36Z</time>
      </trkpt>
      <trkpt lat="45.74782" lon="5.98689">
        <ele>487</ele>
        <time>2011-07-03T06:40:37Z</time>
      </trkpt>
      <trkpt lat="45.74781" lon="5.98688">
        <ele>487</ele>
        <time>2011-07-03T06:40:38Z</time>
      </trkpt>
      <trkpt lat="45.74778" lon="5.98686">
        <ele>487</ele>
        <time>2011-07-03T06:40:40Z</time>
      </trkpt>
      <trkpt lat="45.74777" lon="5.98686">
        <ele>487</ele>
        <time>2011-07-03T06:40:41Z</time>
      </trkpt>
      <trkpt lat="45.74775" lon="5.98687">
        <ele>487</ele>
        <time>2011-07-03T06:40:43Z</time>
      </trkpt>
      <trkpt lat="45.74773" lon="5.98687">
        <ele>486</ele>
        <time>2011-07-03T06:40:47Z</time>
      </trkpt>
      <trkpt lat="45.74772" lon="5.98687">
        <ele>486</ele>
        <time>2011-07-03T06:40:51Z</time>
      </trkpt>
      <trkpt lat="45.74772" lon="5.98686">
        <ele>483</ele>
        <time>2011-07-03T06:41:15Z</time>
      </trkpt>
      <trkpt lat="45.74771" lon="5.98684">
        <ele>482</ele>
        <time>2011-07-03T06:41:58Z</time>
      </trkpt>
      <trkpt lat="45.74773" lon="5.98684">
        <ele>482</ele>
        <time>2011-07-03T06:42:10Z</time>
      </trkpt>
      <trkpt lat="45.74774" lon="5.98683">
        <ele>482</ele>
        <time>2011-07-03T06:42:18Z</time>
      </trkpt>
      <trkpt lat="45.74773" lon="5.98683">
        <ele>482</ele>
        <time>2011-07-03T06:42:49Z</time>
      </trkpt>
      <trkpt lat="45.74774" lon="5.98684">
        <ele>482</ele>
        <time>2011-07-03T06:46:24Z</time>
      </trkpt>
      <trkpt lat="45.74773" lon="5.98684">
        <ele>482</ele>
        <time>2011-07-03T06:46:47Z</time>
      </trkpt>
      <trkpt lat="45.74771" lon="5.98684">
        <ele>482</ele>
        <time>2011-07-03T06:47:14Z</time>
      </trkpt>
      <trkpt lat="45.7477" lon="5.98685">
        <ele>482</ele>
        <time>2011-07-03T06:48:37Z</time>
      </trkpt>
      <trkpt lat="45.74771" lon="5.98684">
        <ele>482</ele>
        <time>2011-07-03T06:49:11Z</time>
      </trkpt>
      <trkpt lat="45.74773" lon="5.98683">
        <ele>482</ele>
        <time>2011-07-03T06:49:17Z</time>
      </trkpt>
      <trkpt lat="45.74774" lon="5.98684">
        <ele>482</ele>
        <time>2011-07-03T06:49:25Z</time>
      </trkpt>
      <trkpt lat="45.74776" lon="5.98687">
        <ele>482</ele>
        <time>2011-07-03T06:49:27Z</time>
      </trkpt>
      <trkpt lat="45.74779" lon="5.98689">
        <ele>482</ele>
        <time>2011-07-03T06:49:28Z</time>
      </trkpt>
      <trkpt lat="45.74781" lon="5.98691">
        <ele>482</ele>
        <time>2011-07-03T06:49:29Z</time>
      </trkpt>
      <trkpt lat="45.74783" lon="5.98695">
        <ele>482</ele>
        <time>2011-07-03T06:49:30Z</time>
      </trkpt>
      <trkpt lat="45.74783" lon="5.98699">
        <ele>482</ele>
        <time>2011-07-03T06:49:31Z</time>
      </trkpt>
      <trkpt lat="45.74783" lon="5.98702">
        <ele>482</ele>
        <time>2011-07-03T06:49:32Z</time>
      </trkpt>
      <trkpt lat="45.74781" lon="5.98704">
        <ele>482</ele>
        <time>2011-07-03T06:49:33Z</time>
      </trkpt>
      <trkpt lat="45.7478" lon="5.98705">
        <ele>482</ele>
        <time>2011-07-03T06:49:34Z</time>
      </trkpt>
      <trkpt lat="45.74779" lon="5.98706">
        <ele>482</ele>
        <time>2011-07-03T06:49:35Z</time>
      </trkpt>
      <trkpt lat="45.74777" lon="5.98707">
        <ele>482</ele>
        <time>2011-07-03T06:49:37Z</time>
      </trkpt>
      <trkpt lat="45.74776" lon="5.98707">
        <ele>482</ele>
        <time>2011-07-03T06:49:38Z</time>
      </trkpt>
      <trkpt lat="45.74775" lon="5.98706">
        <ele>482</ele>
        <time>2011-07-03T06:49:39Z</time>
      </trkpt>
      <trkpt lat="45.74774" lon="5.98704">
        <ele>482</ele>
        <time>2011-07-03T06:49:40Z</time>
      </trkpt>
      <trkpt lat="45.74773" lon="5.98702">
        <ele>482</ele>
        <time>2011-07-03T06:49:41Z</time>
      </trkpt>
      <trkpt lat="45.74772" lon="5.98701">
        <ele>482</ele>
        <time>2011-07-03T06:49:42Z</time>
      </trkpt>
      <trkpt lat="45.74771" lon="5.98699">
        <ele>482</ele>
        <time>2011-07-03T06:49:43Z</time>
      </trkpt>
      <trkpt lat="45.7477" lon="5.98697">
        <ele>482</ele>
        <time>2011-07-03T06:49:44Z</time>
      </trkpt>
      <trkpt lat="45.74769" lon="5.98696">
        <ele>482</ele>
        <time>2011-07-03T06:49:45Z</time>
      </trkpt>
      <trkpt lat="45.74768" lon="5.98694">
        <ele>482</ele>
        <time>2011-07-03T06:49:46Z</time>
      </trkpt>
      <trkpt lat="45.74767" lon="5.98692">
        <ele>482</ele>
        <time>2011-07-03T06:49:47Z</time>
      </trkpt>
      <trkpt lat="45.74766" lon="5.9869">
        <ele>482</ele>
        <time>2011-07-03T06:49:48Z</time>
      </trkpt>
      <trkpt lat="45.74765" lon="5.98687">
        <ele>482</ele>
        <time>2011-07-03T06:49:49Z</time>
      </trkpt>
      <trkpt lat="45.74764" lon="5.98684">
        <ele>482</ele>
        <time>2011-07-03T06:49:50Z</time>
      </trkpt>
      <trkpt lat="45.74763" lon="5.98681">
        <ele>482</ele>
        <time>2011-07-03T06:49:51Z</time>
      </trkpt>
      <trkpt lat="45.74762" lon="5.98678">
        <ele>482</ele>
        <time>2011-07-03T06:49:52Z</time>
      </trkpt>
      <trkpt lat="45.74761" lon="5.98674">
        <ele>482</ele>
        <time>2011-07-03T06:49:53Z</time>
      </trkpt>
      <trkpt lat="45.7476" lon="5.9867">
        <ele>482</ele>
        <time>2011-07-03T06:49:54Z</time>
      </trkpt>
      <trkpt lat="45.74759" lon="5.98667">
        <ele>482</ele>
        <time>2011-07-03T06:49:55Z</time>
      </trkpt>
      <trkpt lat="45.74759" lon="5.98663">
        <ele>482</ele>
        <time>2011-07-03T06:49:56Z</time>
      </trkpt>
      <trkpt lat="45.74759" lon="5.98659">
        <ele>482</ele>
        <time>2011-07-03T06:49:57Z</time>
      </trkpt>
      <trkpt lat="45.74759" lon="5.98655">
        <ele>482</ele>
        <time>2011-07-03T06:49:58Z</time>
      </trkpt>
      <trkpt lat="45.74759" lon="5.98651">
        <ele>482</ele>
        <time>2011-07-03T06:49:59Z</time>
      </trkpt>
      <trkpt lat="45.74759" lon="5.98646">
        <ele>482</ele>
        <time>2011-07-03T06:50:00Z</time>
      </trkpt>
      <trkpt lat="45.74759" lon="5.98641">
        <ele>482</ele>
        <time>2011-07-03T06:50:01Z</time>
      </trkpt>
      <trkpt lat="45.74758" lon="5.98637">
        <ele>482</ele>
        <time>2011-07-03T06:50:02Z</time>
      </trkpt>
      <trkpt lat="45.74758" lon="5.98633">
        <ele>482</ele>
        <time>2011-07-03T06:50:03Z</time>
      </trkpt>
      <trkpt lat="45.74758" lon="5.98629">
        <ele>482</ele>
        <time>2011-07-03T06:50:04Z</time>
      </trkpt>
      <trkpt lat="45.74758" lon="5.98626">
        <ele>482</ele>
        <time>2011-07-03T06:50:05Z</time>
      </trkpt>
      <trkpt lat="45.74758" lon="5.98622">
        <ele>482</ele>
        <time>2011-07-03T06:50:06Z</time>
      </trkpt>
      <trkpt lat="45.74758" lon="5.98619">
        <ele>482</ele>
        <time>2011-07-03T06:50:07Z</time>
      </trkpt>
      <trkpt lat="45.74758" lon="5.98615">
        <ele>482</ele>
        <time>2011-07-03T06:50:08Z</time>
      </trkpt>
      <trkpt lat="45.74758" lon="5.98611">
        <ele>482</ele>
        <time>2011-07-03T06:50:09Z</time>
      </trkpt>
      <trkpt lat="45.74759" lon="5.98607">
        <ele>482</ele>
        <time>2011-07-03T06:50:10Z</time>
      </trkpt>
      <trkpt lat="45.74759" lon="5.98603">
        <ele>482</ele>
        <time>2011-07-03T06:50:11Z</time>
      </trkpt>
      <trkpt lat="45.7476" lon="5.98599">
        <ele>482</ele>
        <time>2011-07-03T06:50:12Z</time>
      </trkpt>
      <trkpt lat="45.7476" lon="5.98594">
        <ele>482</ele>
        <time>2011-07-03T06:50:13Z</time>
      </trkpt>
      <trkpt lat="45.7476" lon="5.9859">
        <ele>482</ele>
        <time>2011-07-03T06:50:14Z</time>
      </trkpt>
      <trkpt lat="45.74761" lon="5.98585">
        <ele>483</ele>
        <time>2011-07-03T06:50:15Z</time>
      </trkpt>
      <trkpt lat="45.74761" lon="5.9858">
        <ele>483</ele>
        <time>2011-07-03T06:50:16Z</time>
      </trkpt>
      <trkpt lat="45.74762" lon="5.98575">
        <ele>483</ele>
        <time>2011-07-03T06:50:17Z</time>
      </trkpt>
      <trkpt lat="45.74762" lon="5.9857">
        <ele>483</ele>
        <time>2011-07-03T06:50:18Z</time>
      </trkpt>
      <trkpt lat="45.74762" lon="5.98565">
        <ele>483</ele>
        <time>2011-07-03T06:50:19Z</time>
      </trkpt>
      <trkpt lat="45.74762" lon="5.9856">
        <ele>483</ele>
        <time>2011-07-03T06:50:20Z</time>
      </trkpt>
      <trkpt lat="45.74763" lon="5.98556">
        <ele>483</ele>
        <time>2011-07-03T06:50:21Z</time>
      </trkpt>
      <trkpt lat="45.74763" lon="5.9855">
        <ele>483</ele>
        <time>2011-07-03T06:50:22Z</time>
      </trkpt>
      <trkpt lat="45.74763" lon="5.98545">
        <ele>484</ele>
        <time>2011-07-03T06:50:23Z</time>
      </trkpt>
      <trkpt lat="45.74764" lon="5.9854">
        <ele>484</ele>
        <time>2011-07-03T06:50:24Z</time>
      </trkpt>
      <trkpt lat="45.74764" lon="5.98535">
        <ele>484</ele>
        <time>2011-07-03T06:50:25Z</time>
      </trkpt>
      <trkpt lat="45.74764" lon="5.98529">
        <ele>484</ele>
        <time>2011-07-03T06:50:26Z</time>
      </trkpt>
      <trkpt lat="45.74765" lon="5.98524">
        <ele>484</ele>
        <time>2011-07-03T06:50:27Z</time>
      </trkpt>
      <trkpt lat="45.74766" lon="5.98518">
        <ele>484</ele>
        <time>2011-07-03T06:50:28Z</time>
      </trkpt>
      <trkpt lat="45.74767" lon="5.98512">
        <ele>484</ele>
        <time>2011-07-03T06:50:29Z</time>
      </trkpt>
      <trkpt lat="45.74767" lon="5.98506">
        <ele>484</ele>
        <time>2011-07-03T06:50:30Z</time>
      </trkpt>
      <trkpt lat="45.74767" lon="5.98501">
        <ele>484</ele>
        <time>2011-07-03T06:50:31Z</time>
      </trkpt>
      <trkpt lat="45.74768" lon="5.98495">
        <ele>484</ele>
        <time>2011-07-03T06:50:32Z</time>
      </trkpt>
      <trkpt lat="45.74768" lon="5.9849">
        <ele>484</ele>
        <time>2011-07-03T06:50:33Z</time>
      </trkpt>
      <trkpt lat="45.74768" lon="5.98485">
        <ele>484</ele>
        <time>2011-07-03T06:50:34Z</time>
      </trkpt>
      <trkpt lat="45.74768" lon="5.9848">
        <ele>485</ele>
        <time>2011-07-03T06:50:35Z</time>
      </trkpt>
      <trkpt lat="45.74769" lon="5.98476">
        <ele>485</ele>
        <time>2011-07-03T06:50:36Z</time>
      </trkpt>
      <trkpt lat="45.74769" lon="5.98471">
        <ele>485</ele>
        <time>2011-07-03T06:50:37Z</time>
      </trkpt>
      <trkpt lat="45.74769" lon="5.98468">
        <ele>485</ele>
        <time>2011-07-03T06:50:38Z</time>
      </trkpt>
      <trkpt lat="45.74769" lon="5.98464">
        <ele>485</ele>
        <time>2011-07-03T06:50:39Z</time>
      </trkpt>
      <trkpt lat="45.74769" lon="5.9846">
        <ele>485</ele>
        <time>2011-07-03T06:50:40Z</time>
      </trkpt>
      <trkpt lat="45.74769" lon="5.98456">
        <ele>486</ele>
        <time>2011-07-03T06:50:41Z</time>
      </trkpt>
      <trkpt lat="45.74769" lon="5.98453">
        <ele>486</ele>
        <time>2011-07-03T06:50:42Z</time>
      </trkpt>
      <trkpt lat="45.74769" lon="5.98448">
        <ele>486</ele>
        <time>2011-07-03T06:50:43Z</time>
      </trkpt>
      <trkpt lat="45.7477" lon="5.98444">
        <ele>486</ele>
        <time>2011-07-03T06:50:44Z</time>
      </trkpt>
      <trkpt lat="45.7477" lon="5.98439">
        <ele>486</ele>
        <time>2011-07-03T06:50:45Z</time>
      </trkpt>
      <trkpt lat="45.7477" lon="5.98434">
        <ele>486</ele>
        <time>2011-07-03T06:50:46Z</time>
      </trkpt>
      <trkpt lat="45.7477" lon="5.9843">
        <ele>486</ele>
        <time>2011-07-03T06:50:47Z</time>
      </trkpt>
      <trkpt lat="45.7477" lon="5.98425">
        <ele>486</ele>
        <time>2011-07-03T06:50:48Z</time>
      </trkpt>
      <trkpt lat="45.74771" lon="5.9842">
        <ele>486</ele>
        <time>2011-07-03T06:50:49Z</time>
      </trkpt>
      <trkpt lat="45.74771" lon="5.98416">
        <ele>486</ele>
        <time>2011-07-03T06:50:50Z</time>
      </trkpt>
      <trkpt lat="45.74771" lon="5.98412">
        <ele>486</ele>
        <time>2011-07-03T06:50:51Z</time>
      </trkpt>
      <trkpt lat="45.74771" lon="5.98408">
        <ele>486</ele>
        <time>2011-07-03T06:50:52Z</time>
      </trkpt>
      <trkpt lat="45.74771" lon="5.98404">
        <ele>486</ele>
        <time>2011-07-03T06:50:53Z</time>
      </trkpt>
      <trkpt lat="45.74772" lon="5.984">
        <ele>486</ele>
        <time>2011-07-03T06:50:54Z</time>
      </trkpt>
      <trkpt lat="45.74772" lon="5.98397">
        <ele>486</ele>
        <time>2011-07-03T06:50:55Z</time>
      </trkpt>
      <trkpt lat="45.74772" lon="5.98393">
        <ele>486</ele>
        <time>2011-07-03T06:50:56Z</time>
      </trkpt>
      <trkpt lat="45.74773" lon="5.98389">
        <ele>486</ele>
        <time>2011-07-03T06:50:57Z</time>
      </trkpt>
      <trkpt lat="45.74773" lon="5.98385">
        <ele>486</ele>
        <time>2011-07-03T06:50:58Z</time>
      </trkpt>
      <trkpt lat="45.74774" lon="5.98381">
        <ele>486</ele>
        <time>2011-07-03T06:50:59Z</time>
      </trkpt>
      <trkpt lat="45.74774" lon="5.98377">
        <ele>486</ele>
        <time>2011-07-03T06:51:00Z</time>
      </trkpt>
      <trkpt lat="45.74775" lon="5.98372">
        <ele>486</ele>
        <time>2011-07-03T06:51:01Z</time>
      </trkpt>
      <trkpt lat="45.74775" lon="5.98368">
        <ele>486</ele>
        <time>2011-07-03T06:51:02Z</time>
      </trkpt>
      <trkpt lat="45.74775" lon="5.98364">
        <ele>486</ele>
        <time>2011-07-03T06:51:03Z</time>
      </trkpt>
      <trkpt lat="45.74776" lon="5.98359">
        <ele>486</ele>
        <time>2011-07-03T06:51:04Z</time>
      </trkpt>
      <trkpt lat="45.74776" lon="5.98355">
        <ele>486</ele>
        <time>2011-07-03T06:51:05Z</time>
      </trkpt>
      <trkpt lat="45.74776" lon="5.98352">
        <ele>486</ele>
        <time>2011-07-03T06:51:06Z</time>
      </trkpt>
      <trkpt lat="45.74776" lon="5.98349">
        <ele>486</ele>
        <time>2011-07-03T06:51:07Z</time>
      </trkpt>
      <trkpt lat="45.74776" lon="5.98347">
        <ele>486</ele>
        <time>2011-07-03T06:51:08Z</time>
      </trkpt>
      <trkpt lat="45.74777" lon="5.98345">
        <ele>486</ele>
        <time>2011-07-03T06:51:09Z</time>
      </trkpt>
      <trkpt lat="45.74777" lon="5.98343">
        <ele>486</ele>
        <time>2011-07-03T06:51:10Z</time>
      </trkpt>
      <trkpt lat="45.74777" lon="5.98341">
        <ele>486</ele>
        <time>2011-07-03T06:51:11Z</time>
      </trkpt>
      <trkpt lat="45.74778" lon="5.98339">
        <ele>486</ele>
        <time>2011-07-03T06:51:12Z</time>
      </trkpt>
      <trkpt lat="45.74778" lon="5.98336">
        <ele>486</ele>
        <time>2011-07-03T06:51:13Z</time>
      </trkpt>
      <trkpt lat="45.74778" lon="5.98332">
        <ele>486</ele>
        <time>2011-07-03T06:51:14Z</time>
      </trkpt>
      <trkpt lat="45.74779" lon="5.98328">
        <ele>486</ele>
        <time>2011-07-03T06:51:15Z</time>
      </trkpt>
      <trkpt lat="45.7478" lon="5.98324">
        <ele>486</ele>
        <time>2011-07-03T06:51:16Z</time>
      </trkpt>
      <trkpt lat="45.74781" lon="5.9832">
        <ele>486</ele>
        <time>2011-07-03T06:51:17Z</time>
      </trkpt>
      <trkpt lat="45.74781" lon="5.98316">
        <ele>486</ele>
        <time>2011-07-03T06:51:18Z</time>
      </trkpt>
      <trkpt lat="45.74782" lon="5.98312">
        <ele>486</ele>
        <time>2011-07-03T06:51:19Z</time>
      </trkpt>
      <trkpt lat="45.74783" lon="5.98307">
        <ele>486</ele>
        <time>2011-07-03T06:51:20Z</time>
      </trkpt>
      <trkpt lat="45.74784" lon="5.98303">
        <ele>486</ele>
        <time>2011-07-03T06:51:22Z</time>
      </trkpt>
      <trkpt lat="45.74785" lon="5.98298">
        <ele>486</ele>
        <time>2011-07-03T06:51:22Z</time>
      </trkpt>
      <trkpt lat="45.74786" lon="5.98293">
        <ele>486</ele>
        <time>2011-07-03T06:51:23Z</time>
      </trkpt>
      <trkpt lat="45.74787" lon="5.98288">
        <ele>486</ele>
        <time>2011-07-03T06:51:24Z</time>
      </trkpt>
      <trkpt lat="45.74789" lon="5.98283">
        <ele>486</ele>
        <time>2011-07-03T06:51:25Z</time>
      </trkpt>
      <trkpt lat="45.7479" lon="5.98278">
        <ele>486</ele>
        <time>2011-07-03T06:51:26Z</time>
      </trkpt>
      <trkpt lat="45.74791" lon="5.98272">
        <ele>486</ele>
        <time>2011-07-03T06:51:27Z</time>
      </trkpt>
      <trkpt lat="45.74793" lon="5.98267">
        <ele>486</ele>
        <time>2011-07-03T06:51:28Z</time>
      </trkpt>
      <trkpt lat="45.74794" lon="5.98261">
        <ele>486</ele>
        <time>2011-07-03T06:51:29Z</time>
      </trkpt>
      <trkpt lat="45.74796" lon="5.98255">
        <ele>486</ele>
        <time>2011-07-03T06:51:30Z</time>
      </trkpt>
      <trkpt lat="45.74797" lon="5.98249">
        <ele>486</ele>
        <time>2011-07-03T06:51:31Z</time>
      </trkpt>
      <trkpt lat="45.74798" lon="5.98243">
        <ele>486</ele>
        <time>2011-07-03T06:51:32Z</time>
      </trkpt>
      <trkpt lat="45.748" lon="5.98237">
        <ele>486</ele>
        <time>2011-07-03T06:51:33Z</time>
      </trkpt>
      <trkpt lat="45.74801" lon="5.98231">
        <ele>486</ele>
        <time>2011-07-03T06:51:34Z</time>
      </trkpt>
      <trkpt lat="45.74802" lon="5.98225">
        <ele>486</ele>
        <time>2011-07-03T06:51:35Z</time>
      </trkpt>
      <trkpt lat="45.74803" lon="5.9822">
        <ele>486</ele>
        <time>2011-07-03T06:51:36Z</time>
      </trkpt>
      <trkpt lat="45.74805" lon="5.98216">
        <ele>486</ele>
        <time>2011-07-03T06:51:37Z</time>
      </trkpt>
      <trkpt lat="45.74807" lon="5.98212">
        <ele>486</ele>
        <time>2011-07-03T06:51:38Z</time>
      </trkpt>
      <trkpt lat="45.74807" lon="5.98208">
        <ele>486</ele>
        <time>2011-07-03T06:51:39Z</time>
      </trkpt>
      <trkpt lat="45.74808" lon="5.98205">
        <ele>486</ele>
        <time>2011-07-03T06:51:40Z</time>
      </trkpt>
      <trkpt lat="45.74809" lon="5.98201">
        <ele>486</ele>
        <time>2011-07-03T06:51:41Z</time>
      </trkpt>
      <trkpt lat="45.74809" lon="5.98198">
        <ele>486</ele>
        <time>2011-07-03T06:51:42Z</time>
      </trkpt>
      <trkpt lat="45.74809" lon="5.98194">
        <ele>486</ele>
        <time>2011-07-03T06:51:43Z</time>
      </trkpt>
      <trkpt lat="45.7481" lon="5.9819">
        <ele>486</ele>
        <time>2011-07-03T06:51:44Z</time>
      </trkpt>
      <trkpt lat="45.7481" lon="5.98186">
        <ele>486</ele>
        <time>2011-07-03T06:51:45Z</time>
      </trkpt>
      <trkpt lat="45.7481" lon="5.98181">
        <ele>486</ele>
        <time>2011-07-03T06:51:46Z</time>
      </trkpt>
      <trkpt lat="45.74811" lon="5.98176">
        <ele>486</ele>
        <time>2011-07-03T06:51:47Z</time>
      </trkpt>
      <trkpt lat="45.74812" lon="5.98171">
        <ele>486</ele>
        <time>2011-07-03T06:51:48Z</time>
      </trkpt>
      <trkpt lat="45.74813" lon="5.98165">
        <ele>486</ele>
        <time>2011-07-03T06:51:49Z</time>
      </trkpt>
      <trkpt lat="45.74814" lon="5.98159">
        <ele>486</ele>
        <time>2011-07-03T06:51:50Z</time>
      </trkpt>
      <trkpt lat="45.74816" lon="5.98153">
        <ele>486</ele>
        <time>2011-07-03T06:51:51Z</time>
      </trkpt>
      <trkpt lat="45.74818" lon="5.98147">
        <ele>486</ele>
        <time>2011-07-03T06:51:52Z</time>
      </trkpt>
      <trkpt lat="45.74821" lon="5.98142">
        <ele>486</ele>
        <time>2011-07-03T06:51:53Z</time>
      </trkpt>
      <trkpt lat="45.74824" lon="5.98136">
        <ele>486</ele>
        <time>2011-07-03T06:51:54Z</time>
      </trkpt>
      <trkpt lat="45.74828" lon="5.98131">
        <ele>486</ele>
        <time>2011-07-03T06:51:55Z</time>
      </trkpt>
      <trkpt lat="45.74833" lon="5.98126">
        <ele>486</ele>
        <time>2011-07-03T06:51:56Z</time>
      </trkpt>
      <trkpt lat="45.74839" lon="5.9812">
        <ele>486</ele>
        <time>2011-07-03T06:51:57Z</time>
      </trkpt>
      <trkpt lat="45.74844" lon="5.98115">
        <ele>486</ele>
        <time>2011-07-03T06:51:58Z</time>
      </trkpt>
      <trkpt lat="45.74849" lon="5.98111">
        <ele>486</ele>
        <time>2011-07-03T06:51:59Z</time>
      </trkpt>
      <trkpt lat="45.74854" lon="5.98107">
        <ele>486</ele>
        <time>2011-07-03T06:52:00Z</time>
      </trkpt>
      <trkpt lat="45.74859" lon="5.98103">
        <ele>486</ele>
        <time>2011-07-03T06:52:01Z</time>
      </trkpt>
      <trkpt lat="45.74863" lon="5.98099">
        <ele>486</ele>
        <time>2011-07-03T06:52:02Z</time>
      </trkpt>
      <trkpt lat="45.74868" lon="5.98095">
        <ele>486</ele>
        <time>2011-07-03T06:52:03Z</time>
      </trkpt>
      <trkpt lat="45.74872" lon="5.98091">
        <ele>485</ele>
        <time>2011-07-03T06:52:04Z</time>
      </trkpt>
      <trkpt lat="45.74876" lon="5.98087">
        <ele>485</ele>
        <time>2011-07-03T06:52:05Z</time>
      </trkpt>
      <trkpt lat="45.7488" lon="5.98083">
        <ele>484</ele>
        <time>2011-07-03T06:52:06Z</time>
      </trkpt>
      <trkpt lat="45.74884" lon="5.98079">
        <ele>484</ele>
        <time>2011-07-03T06:52:07Z</time>
      </trkpt>
      <trkpt lat="45.74888" lon="5.98076">
        <ele>483</ele>
        <time>2011-07-03T06:52:08Z</time>
      </trkpt>
      <trkpt lat="45.74892" lon="5.98073">
        <ele>482</ele>
        <time>2011-07-03T06:52:09Z</time>
      </trkpt>
      <trkpt lat="45.74895" lon="5.98069">
        <ele>481</ele>
        <time>2011-07-03T06:52:10Z</time>
      </trkpt>
      <trkpt lat="45.74898" lon="5.98066">
        <ele>481</ele>
        <time>2011-07-03T06:52:11Z</time>
      </trkpt>
      <trkpt lat="45.74901" lon="5.98062">
        <ele>480</ele>
        <time>2011-07-03T06:52:12Z</time>
      </trkpt>
      <trkpt lat="45.74905" lon="5.98059">
        <ele>479</ele>
        <time>2011-07-03T06:52:13Z</time>
      </trkpt>
      <trkpt lat="45.74908" lon="5.98055">
        <ele>479</ele>
        <time>2011-07-03T06:52:14Z</time>
      </trkpt>
      <trkpt lat="45.74912" lon="5.98051">
        <ele>478</ele>
        <time>2011-07-03T06:52:15Z</time>
      </trkpt>
      <trkpt lat="45.74915" lon="5.98046">
        <ele>477</ele>
        <time>2011-07-03T06:52:16Z</time>
      </trkpt>
      <trkpt lat="45.74918" lon="5.98042">
        <ele>477</ele>
        <time>2011-07-03T06:52:17Z</time>
      </trkpt>
      <trkpt lat="45.7492" lon="5.98038">
        <ele>477</ele>
        <time>2011-07-03T06:52:18Z</time>
      </trkpt>
      <trkpt lat="45.74921" lon="5.98034">
        <ele>476</ele>
        <time>2011-07-03T06:52:19Z</time>
      </trkpt>
      <trkpt lat="45.74922" lon="5.98031">
        <ele>476</ele>
        <time>2011-07-03T06:52:20Z</time>
      </trkpt>
      <trkpt lat="45.74923" lon="5.98026">
        <ele>476</ele>
        <time>2011-07-03T06:52:21Z</time>
      </trkpt>
      <trkpt lat="45.74925" lon="5.98022">
        <ele>475</ele>
        <time>2011-07-03T06:52:22Z</time>
      </trkpt>
      <trkpt lat="45.74926" lon="5.98017">
        <ele>475</ele>
        <time>2011-07-03T06:52:23Z</time>
      </trkpt>
      <trkpt lat="45.74928" lon="5.98012">
        <ele>475</ele>
        <time>2011-07-03T06:52:24Z</time>
      </trkpt>
      <trkpt lat="45.7493" lon="5.98007">
        <ele>474</ele>
        <time>2011-07-03T06:52:25Z</time>
      </trkpt>
      <trkpt lat="45.74931" lon="5.98003">
        <ele>474</ele>
        <time>2011-07-03T06:52:26Z</time>
      </trkpt>
      <trkpt lat="45.74932" lon="5.97999">
        <ele>474</ele>
        <time>2011-07-03T06:52:27Z</time>
      </trkpt>
      <trkpt lat="45.74933" lon="5.97997">
        <ele>473</ele>
        <time>2011-07-03T06:52:28Z</time>
      </trkpt>
      <trkpt lat="45.74934" lon="5.97994">
        <ele>473</ele>
        <time>2011-07-03T06:52:29Z</time>
      </trkpt>
      <trkpt lat="45.74935" lon="5.97992">
        <ele>473</ele>
        <time>2011-07-03T06:52:30Z</time>
      </trkpt>
      <trkpt lat="45.74936" lon="5.97989">
        <ele>472</ele>
        <time>2011-07-03T06:52:31Z</time>
      </trkpt>
      <trkpt lat="45.74937" lon="5.97986">
        <ele>472</ele>
        <time>2011-07-03T06:52:32Z</time>
      </trkpt>
      <trkpt lat="45.74937" lon="5.97984">
        <ele>472</ele>
        <time>2011-07-03T06:52:33Z</time>
      </trkpt>
      <trkpt lat="45.74938" lon="5.9798">
        <ele>472</ele>
        <time>2011-07-03T06:52:34Z</time>
      </trkpt>
      <trkpt lat="45.74939" lon="5.97976">
        <ele>472</ele>
        <time>2011-07-03T06:52:35Z</time>
      </trkpt>
      <trkpt lat="45.7494" lon="5.97972">
        <ele>472</ele>
        <time>2011-07-03T06:52:36Z</time>
      </trkpt>
      <trkpt lat="45.74941" lon="5.97968">
        <ele>472</ele>
        <time>2011-07-03T06:52:37Z</time>
      </trkpt>
      <trkpt lat="45.74943" lon="5.97963">
        <ele>472</ele>
        <time>2011-07-03T06:52:38Z</time>
      </trkpt>
      <trkpt lat="45.74945" lon="5.97959">
        <ele>472</ele>
        <time>2011-07-03T06:52:39Z</time>
      </trkpt>
      <trkpt lat="45.74947" lon="5.97954">
        <ele>472</ele>
        <time>2011-07-03T06:52:40Z</time>
      </trkpt>
      <trkpt lat="45.74948" lon="5.97948">
        <ele>471</ele>
        <time>2011-07-03T06:52:41Z</time>
      </trkpt>
      <trkpt lat="45.7495" lon="5.97943">
        <ele>471</ele>
        <time>2011-07-03T06:52:42Z</time>
      </trkpt>
      <trkpt lat="45.74951" lon="5.97938">
        <ele>471</ele>
        <time>2011-07-03T06:52:43Z</time>
      </trkpt>
      <trkpt lat="45.74952" lon="5.97935">
        <ele>470</ele>
        <time>2011-07-03T06:52:44Z</time>
      </trkpt>
      <trkpt lat="45.74952" lon="5.97932">
        <ele>470</ele>
        <time>2011-07-03T06:52:45Z</time>
      </trkpt>
      <trkpt lat="45.74951" lon="5.9793">
        <ele>470</ele>
        <time>2011-07-03T06:52:46Z</time>
      </trkpt>
      <trkpt lat="45.74949" lon="5.97927">
        <ele>470</ele>
        <time>2011-07-03T06:52:47Z</time>
      </trkpt>
      <trkpt lat="45.74946" lon="5.97926">
        <ele>470</ele>
        <time>2011-07-03T06:52:48Z</time>
      </trkpt>
      <trkpt lat="45.74943" lon="5.97925">
        <ele>470</ele>
        <time>2011-07-03T06:52:49Z</time>
      </trkpt>
      <trkpt lat="45.74939" lon="5.97923">
        <ele>469</ele>
        <time>2011-07-03T06:52:50Z</time>
      </trkpt>
      <trkpt lat="45.74936" lon="5.97922">
        <ele>469</ele>
        <time>2011-07-03T06:52:51Z</time>
      </trkpt>
      <trkpt lat="45.74933" lon="5.97921">
        <ele>469</ele>
        <time>2011-07-03T06:52:52Z</time>
      </trkpt>
      <trkpt lat="45.74929" lon="5.9792">
        <ele>469</ele>
        <time>2011-07-03T06:52:53Z</time>
      </trkpt>
      <trkpt lat="45.74926" lon="5.97919">
        <ele>469</ele>
        <time>2011-07-03T06:52:54Z</time>
      </trkpt>
      <trkpt lat="45.74923" lon="5.97918">
        <ele>469</ele>
        <time>2011-07-03T06:52:55Z</time>
      </trkpt>
      <trkpt lat="45.74919" lon="5.97916">
        <ele>469</ele>
        <time>2011-07-03T06:52:56Z</time>
      </trkpt>
      <trkpt lat="45.74916" lon="5.97915">
        <ele>469</ele>
        <time>2011-07-03T06:52:57Z</time>
      </trkpt>
      <trkpt lat="45.74912" lon="5.97914">
        <ele>469</ele>
        <time>2011-07-03T06:52:58Z</time>
      </trkpt>
      <trkpt lat="45.74908" lon="5.97913">
        <ele>468</ele>
        <time>2011-07-03T06:52:59Z</time>
      </trkpt>
      <trkpt lat="45.74905" lon="5.97911">
        <ele>468</ele>
        <time>2011-07-03T06:53:00Z</time>
      </trkpt>
      <trkpt lat="45.74902" lon="5.9791">
        <ele>468</ele>
        <time>2011-07-03T06:53:01Z</time>
      </trkpt>
      <trkpt lat="45.74899" lon="5.97908">
        <ele>467</ele>
        <time>2011-07-03T06:53:02Z</time>
      </trkpt>
      <trkpt lat="45.74896" lon="5.97906">
        <ele>467</ele>
        <time>2011-07-03T06:53:03Z</time>
      </trkpt>
      <trkpt lat="45.74892" lon="5.97904">
        <ele>467</ele>
        <time>2011-07-03T06:53:04Z</time>
      </trkpt>
      <trkpt lat="45.74889" lon="5.97903">
        <ele>467</ele>
        <time>2011-07-03T06:53:05Z</time>
      </trkpt>
      <trkpt lat="45.74886" lon="5.97901">
        <ele>467</ele>
        <time>2011-07-03T06:53:06Z</time>
      </trkpt>
      <trkpt lat="45.74883" lon="5.97898">
        <ele>467</ele>
        <time>2011-07-03T06:53:07Z</time>
      </trkpt>
      <trkpt lat="45.74879" lon="5.97896">
        <ele>467</ele>
        <time>2011-07-03T06:53:08Z</time>
      </trkpt>
      <trkpt lat="45.74876" lon="5.97895">
        <ele>467</ele>
        <time>2011-07-03T06:53:09Z</time>
      </trkpt>
      <trkpt lat="45.74873" lon="5.97894">
        <ele>467</ele>
        <time>2011-07-03T06:53:10Z</time>
      </trkpt>
      <trkpt lat="45.7487" lon="5.97892">
        <ele>467</ele>
        <time>2011-07-03T06:53:11Z</time>
      </trkpt>
      <trkpt lat="45.74866" lon="5.9789">
        <ele>467</ele>
        <time>2011-07-03T06:53:12Z</time>
      </trkpt>
      <trkpt lat="45.74862" lon="5.97888">
        <ele>467</ele>
        <time>2011-07-03T06:53:13Z</time>
      </trkpt>
      <trkpt lat="45.74858" lon="5.97886">
        <ele>467</ele>
        <time>2011-07-03T06:53:14Z</time>
      </trkpt>
      <trkpt lat="45.74855" lon="5.97884">
        <ele>467</ele>
        <time>2011-07-03T06:53:15Z</time>
      </trkpt>
      <trkpt lat="45.74851" lon="5.97883">
        <ele>467</ele>
        <time>2011-07-03T06:53:16Z</time>
      </trkpt>
      <trkpt lat="45.74847" lon="5.97881">
        <ele>467</ele>
        <time>2011-07-03T06:53:17Z</time>
      </trkpt>
      <trkpt lat="45.74842" lon="5.97879">
        <ele>467</ele>
        <time>2011-07-03T06:53:18Z</time>
      </trkpt>
      <trkpt lat="45.74839" lon="5.97877">
        <ele>467</ele>
        <time>2011-07-03T06:53:19Z</time>
      </trkpt>
      <trkpt lat="45.74835" lon="5.97875">
        <ele>467</ele>
        <time>2011-07-03T06:53:20Z</time>
      </trkpt>
      <trkpt lat="45.74833" lon="5.97873">
        <ele>467</ele>
        <time>2011-07-03T06:53:21Z</time>
      </trkpt>
      <trkpt lat="45.74829" lon="5.9787">
        <ele>467</ele>
        <time>2011-07-03T06:53:22Z</time>
      </trkpt>
      <trkpt lat="45.74827" lon="5.97867">
        <ele>467</ele>
        <time>2011-07-03T06:53:23Z</time>
      </trkpt>
      <trkpt lat="45.74824" lon="5.97865">
        <ele>467</ele>
        <time>2011-07-03T06:53:24Z</time>
      </trkpt>
      <trkpt lat="45.74822" lon="5.97861">
        <ele>467</ele>
        <time>2011-07-03T06:53:25Z</time>
      </trkpt>
      <trkpt lat="45.7482" lon="5.97858">
        <ele>467</ele>
        <time>2011-07-03T06:53:26Z</time>
      </trkpt>
      <trkpt lat="45.74818" lon="5.97855">
        <ele>467</ele>
        <time>2011-07-03T06:53:27Z</time>
      </trkpt>
      <trkpt lat="45.74815" lon="5.97853">
        <ele>467</ele>
        <time>2011-07-03T06:53:28Z</time>
      </trkpt>
      <trkpt lat="45.74813" lon="5.97851">
        <ele>468</ele>
        <time>2011-07-03T06:53:29Z</time>
      </trkpt>
      <trkpt lat="45.74811" lon="5.97849">
        <ele>468</ele>
        <time>2011-07-03T06:53:30Z</time>
      </trkpt>
      <trkpt lat="45.74809" lon="5.97847">
        <ele>468</ele>
        <time>2011-07-03T06:53:31Z</time>
      </trkpt>
      <trkpt lat="45.74807" lon="5.97846">
        <ele>468</ele>
        <time>2011-07-03T06:53:32Z</time>
      </trkpt>
      <trkpt lat="45.74804" lon="5.97844">
        <ele>468</ele>
        <time>2011-07-03T06:53:33Z</time>
      </trkpt>
      <trkpt lat="45.74802" lon="5.97842">
        <ele>468</ele>
        <time>2011-07-03T06:53:34Z</time>
      </trkpt>
      <trkpt lat="45.74799" lon="5.9784">
        <ele>468</ele>
        <time>2011-07-03T06:53:35Z</time>
      </trkpt>
      <trkpt lat="45.74795" lon="5.97838">
        <ele>468</ele>
        <time>2011-07-03T06:53:36Z</time>
      </trkpt>
      <trkpt lat="45.74793" lon="5.97836">
        <ele>468</ele>
        <time>2011-07-03T06:53:37Z</time>
      </trkpt>
      <trkpt lat="45.7479" lon="5.97834">
        <ele>468</ele>
        <time>2011-07-03T06:53:38Z</time>
      </trkpt>
      <trkpt lat="45.74788" lon="5.97832">
        <ele>468</ele>
        <time>2011-07-03T06:53:39Z</time>
      </trkpt>
      <trkpt lat="45.74786" lon="5.9783">
        <ele>469</ele>
        <time>2011-07-03T06:53:40Z</time>
      </trkpt>
      <trkpt lat="45.74785" lon="5.97829">
        <ele>470</ele>
        <time>2011-07-03T06:53:41Z</time>
      </trkpt>
      <trkpt lat="45.74784" lon="5.97827">
        <ele>471</ele>
        <time>2011-07-03T06:53:42Z</time>
      </trkpt>
      <trkpt lat="45.74781" lon="5.97826">
        <ele>472</ele>
        <time>2011-07-03T06:53:43Z</time>
      </trkpt>
      <trkpt lat="45.7478" lon="5.97824">
        <ele>473</ele>
        <time>2011-07-03T06:53:44Z</time>
      </trkpt>
      <trkpt lat="45.74778" lon="5.97821">
        <ele>474</ele>
        <time>2011-07-03T06:53:45Z</time>
      </trkpt>
      <trkpt lat="45.74777" lon="5.97818">
        <ele>475</ele>
        <time>2011-07-03T06:53:46Z</time>
      </trkpt>
      <trkpt lat="45.74776" lon="5.97814">
        <ele>476</ele>
        <time>2011-07-03T06:53:47Z</time>
      </trkpt>
      <trkpt lat="45.74776" lon="5.9781">
        <ele>477</ele>
        <time>2011-07-03T06:53:48Z</time>
      </trkpt>
      <trkpt lat="45.74777" lon="5.97806">
        <ele>478</ele>
        <time>2011-07-03T06:53:49Z</time>
      </trkpt>
      <trkpt lat="45.7478" lon="5.97802">
        <ele>478</ele>
        <time>2011-07-03T06:53:50Z</time>
      </trkpt>
      <trkpt lat="45.74782" lon="5.97798">
        <ele>478</ele>
        <time>2011-07-03T06:53:51Z</time>
      </trkpt>
      <trkpt lat="45.74783" lon="5.97796">
        <ele>479</ele>
        <time>2011-07-03T06:53:52Z</time>
      </trkpt>
      <trkpt lat="45.74785" lon="5.97793">
        <ele>479</ele>
        <time>2011-07-03T06:53:53Z</time>
      </trkpt>
      <trkpt lat="45.74788" lon="5.97791">
        <ele>479</ele>
        <time>2011-07-03T06:53:54Z</time>
      </trkpt>
      <trkpt lat="45.74789" lon="5.97788">
        <ele>479</ele>
        <time>2011-07-03T06:53:55Z</time>
      </trkpt>
      <trkpt lat="45.74791" lon="5.97785">
        <ele>479</ele>
        <time>2011-07-03T06:53:56Z</time>
      </trkpt>
      <trkpt lat="45.74793" lon="5.97782">
        <ele>479</ele>
        <time>2011-07-03T06:53:57Z</time>
      </trkpt>
      <trkpt lat="45.74795" lon="5.97778">
        <ele>479</ele>
        <time>2011-07-03T06:53:58Z</time>
      </trkpt>
      <trkpt lat="45.74797" lon="5.97774">
        <ele>479</ele>
        <time>2011-07-03T06:53:59Z</time>
      </trkpt>
      <trkpt lat="45.74798" lon="5.97771">
        <ele>479</ele>
        <time>2011-07-03T06:54:00Z</time>
      </trkpt>
      <trkpt lat="45.74799" lon="5.97768">
        <ele>479</ele>
        <time>2011-07-03T06:54:01Z</time>
      </trkpt>
      <trkpt lat="45.748" lon="5.97766">
        <ele>479</ele>
        <time>2011-07-03T06:54:02Z</time>
      </trkpt>
      <trkpt lat="45.74801" lon="5.97764">
        <ele>479</ele>
        <time>2011-07-03T06:54:03Z</time>
      </trkpt>
      <trkpt lat="45.74802" lon="5.97761">
        <ele>479</ele>
        <time>2011-07-03T06:54:04Z</time>
      </trkpt>
      <trkpt lat="45.74804" lon="5.97758">
        <ele>479</ele>
        <time>2011-07-03T06:54:05Z</time>
      </trkpt>
      <trkpt lat="45.74805" lon="5.97756">
        <ele>479</ele>
        <time>2011-07-03T06:54:06Z</time>
      </trkpt>
      <trkpt lat="45.74807" lon="5.97752">
        <ele>479</ele>
        <time>2011-07-03T06:54:07Z</time>
      </trkpt>
      <trkpt lat="45.74809" lon="5.9775">
        <ele>479</ele>
        <time>2011-07-03T06:54:08Z</time>
      </trkpt>
      <trkpt lat="45.7481" lon="5.97747">
        <ele>479</ele>
        <time>2011-07-03T06:54:09Z</time>
      </trkpt>
      <trkpt lat="45.74811" lon="5.97746">
        <ele>479</ele>
        <time>2011-07-03T06:54:10Z</time>
      </trkpt>
      <trkpt lat="45.74813" lon="5.97743">
        <ele>479</ele>
        <time>2011-07-03T06:54:11Z</time>
      </trkpt>
      <trkpt lat="45.74815" lon="5.97741">
        <ele>479</ele>
        <time>2011-07-03T06:54:12Z</time>
      </trkpt>
      <trkpt lat="45.74817" lon="5.97739">
        <ele>479</ele>
        <time>2011-07-03T06:54:13Z</time>
      </trkpt>
      <trkpt lat="45.74818" lon="5.97736">
        <ele>479</ele>
        <time>2011-07-03T06:54:14Z</time>
      </trkpt>
      <trkpt lat="45.74819" lon="5.97734">
        <ele>479</ele>
        <time>2011-07-03T06:54:15Z</time>
      </trkpt>
      <trkpt lat="45.74821" lon="5.97732">
        <ele>479</ele>
        <time>2011-07-03T06:54:16Z</time>
      </trkpt>
      <trkpt lat="45.74823" lon="5.97729">
        <ele>479</ele>
        <time>2011-07-03T06:54:17Z</time>
      </trkpt>
      <trkpt lat="45.74825" lon="5.97727">
        <ele>479</ele>
        <time>2011-07-03T06:54:18Z</time>
      </trkpt>
      <trkpt lat="45.74827" lon="5.97724">
        <ele>479</ele>
        <time>2011-07-03T06:54:19Z</time>
      </trkpt>
      <trkpt lat="45.74829" lon="5.97721">
        <ele>479</ele>
        <time>2011-07-03T06:54:20Z</time>
      </trkpt>
      <trkpt lat="45.74831" lon="5.97718">
        <ele>479</ele>
        <time>2011-07-03T06:54:21Z</time>
      </trkpt>
      <trkpt lat="45.74833" lon="5.97715">
        <ele>479</ele>
        <time>2011-07-03T06:54:22Z</time>
      </trkpt>
      <trkpt lat="45.74835" lon="5.97713">
        <ele>479</ele>
        <time>2011-07-03T06:54:23Z</time>
      </trkpt>
      <trkpt lat="45.74837" lon="5.9771">
        <ele>479</ele>
        <time>2011-07-03T06:54:24Z</time>
      </trkpt>
      <trkpt lat="45.74839" lon="5.97708">
        <ele>479</ele>
        <time>2011-07-03T06:54:25Z</time>
      </trkpt>
      <trkpt lat="45.74841" lon="5.97705">
        <ele>479</ele>
        <time>2011-07-03T06:54:26Z</time>
      </trkpt>
      <trkpt lat="45.74842" lon="5.97703">
        <ele>479</ele>
        <time>2011-07-03T06:54:27Z</time>
      </trkpt>
      <trkpt lat="45.74844" lon="5.97699">
        <ele>479</ele>
        <time>2011-07-03T06:54:28Z</time>
      </trkpt>
      <trkpt lat="45.74846" lon="5.97697">
        <ele>479</ele>
        <time>2011-07-03T06:54:29Z</time>
      </trkpt>
      <trkpt lat="45.74848" lon="5.97695">
        <ele>479</ele>
        <time>2011-07-03T06:54:30Z</time>
      </trkpt>
      <trkpt lat="45.74849" lon="5.97692">
        <ele>479</ele>
        <time>2011-07-03T06:54:31Z</time>
      </trkpt>
      <trkpt lat="45.7485" lon="5.97689">
        <ele>479</ele>
        <time>2011-07-03T06:54:32Z</time>
      </trkpt>
      <trkpt lat="45.74851" lon="5.97686">
        <ele>479</ele>
        <time>2011-07-03T06:54:33Z</time>
      </trkpt>
      <trkpt lat="45.74852" lon="5.97684">
        <ele>479</ele>
        <time>2011-07-03T06:54:34Z</time>
      </trkpt>
      <trkpt lat="45.74853" lon="5.97683">
        <ele>478</ele>
        <time>2011-07-03T06:54:35Z</time>
      </trkpt>
      <trkpt lat="45.74855" lon="5.97679">
        <ele>478</ele>
        <time>2011-07-03T06:54:36Z</time>
      </trkpt>
      <trkpt lat="45.74857" lon="5.97677">
        <ele>478</ele>
        <time>2011-07-03T06:54:37Z</time>
      </trkpt>
      <trkpt lat="45.74858" lon="5.97675">
        <ele>478</ele>
        <time>2011-07-03T06:54:38Z</time>
      </trkpt>
      <trkpt lat="45.74858" lon="5.97672">
        <ele>478</ele>
        <time>2011-07-03T06:54:39Z</time>
      </trkpt>
      <trkpt lat="45.74858" lon="5.97671">
        <ele>478</ele>
        <time>2011-07-03T06:54:40Z</time>
      </trkpt>
      <trkpt lat="45.74859" lon="5.97669">
        <ele>477</ele>
        <time>2011-07-03T06:54:41Z</time>
      </trkpt>
      <trkpt lat="45.7486" lon="5.97667">
        <ele>477</ele>
        <time>2011-07-03T06:54:42Z</time>
      </trkpt>
      <trkpt lat="45.7486" lon="5.97666">
        <ele>477</ele>
        <time>2011-07-03T06:54:43Z</time>
      </trkpt>
      <trkpt lat="45.74862" lon="5.97663">
        <ele>477</ele>
        <time>2011-07-03T06:54:45Z</time>
      </trkpt>
      <trkpt lat="45.74862" lon="5.97661">
        <ele>477</ele>
        <time>2011-07-03T06:54:46Z</time>
      </trkpt>
      <trkpt lat="45.74862" lon="5.97659">
        <ele>477</ele>
        <time>2011-07-03T06:54:47Z</time>
      </trkpt>
      <trkpt lat="45.74862" lon="5.97657">
        <ele>477</ele>
        <time>2011-07-03T06:54:48Z</time>
      </trkpt>
      <trkpt lat="45.74862" lon="5.97654">
        <ele>477</ele>
        <time>2011-07-03T06:54:49Z</time>
      </trkpt>
      <trkpt lat="45.74862" lon="5.9765">
        <ele>477</ele>
        <time>2011-07-03T06:54:50Z</time>
      </trkpt>
      <trkpt lat="45.74861" lon="5.97648">
        <ele>477</ele>
        <time>2011-07-03T06:54:51Z</time>
      </trkpt>
      <trkpt lat="45.7486" lon="5.97645">
        <ele>477</ele>
        <time>2011-07-03T06:54:52Z</time>
      </trkpt>
      <trkpt lat="45.74859" lon="5.97641">
        <ele>477</ele>
        <time>2011-07-03T06:54:53Z</time>
      </trkpt>
      <trkpt lat="45.74859" lon="5.97637">
        <ele>477</ele>
        <time>2011-07-03T06:54:54Z</time>
      </trkpt>
      <trkpt lat="45.74859" lon="5.97633">
        <ele>477</ele>
        <time>2011-07-03T06:54:55Z</time>
      </trkpt>
      <trkpt lat="45.74859" lon="5.97629">
        <ele>477</ele>
        <time>2011-07-03T06:54:56Z</time>
      </trkpt>
      <trkpt lat="45.74858" lon="5.97626">
        <ele>477</ele>
        <time>2011-07-03T06:54:57Z</time>
      </trkpt>
      <trkpt lat="45.74859" lon="5.97623">
        <ele>477</ele>
        <time>2011-07-03T06:54:58Z</time>
      </trkpt>
      <trkpt lat="45.74859" lon="5.97619">
        <ele>477</ele>
        <time>2011-07-03T06:54:59Z</time>
      </trkpt>
      <trkpt lat="45.74858" lon="5.97617">
        <ele>477</ele>
        <time>2011-07-03T06:55:00Z</time>
      </trkpt>
      <trkpt lat="45.74858" lon="5.97615">
        <ele>477</ele>
        <time>2011-07-03T06:55:01Z</time>
      </trkpt>
      <trkpt lat="45.74859" lon="5.97612">
        <ele>477</ele>
        <time>2011-07-03T06:55:02Z</time>
      </trkpt>
      <trkpt lat="45.74859" lon="5.9761">
        <ele>477</ele>
        <time>2011-07-03T06:55:03Z</time>
      </trkpt>
      <trkpt lat="45.74859" lon="5.97609">
        <ele>477</ele>
        <time>2011-07-03T06:55:04Z</time>
      </trkpt>
      <trkpt lat="45.74859" lon="5.97607">
        <ele>477</ele>
        <time>2011-07-03T06:55:05Z</time>
      </trkpt>
      <trkpt lat="45.7486" lon="5.97605">
        <ele>477</ele>
        <time>2011-07-03T06:55:06Z</time>
      </trkpt>
      <trkpt lat="45.7486" lon="5.97604">
        <ele>477</ele>
        <time>2011-07-03T06:55:07Z</time>
      </trkpt>
      <trkpt lat="45.74859" lon="5.97602">
        <ele>477</ele>
        <time>2011-07-03T06:55:08Z</time>
      </trkpt>
      <trkpt lat="45.74857" lon="5.976">
        <ele>477</ele>
        <time>2011-07-03T06:55:09Z</time>
      </trkpt>
      <trkpt lat="45.74855" lon="5.97599">
        <ele>477</ele>
        <time>2011-07-03T06:55:10Z</time>
      </trkpt>
      <trkpt lat="45.74853" lon="5.97598">
        <ele>477</ele>
        <time>2011-07-03T06:55:11Z</time>
      </trkpt>
      <trkpt lat="45.74851" lon="5.97597">
        <ele>477</ele>
        <time>2011-07-03T06:55:12Z</time>
      </trkpt>
      <trkpt lat="45.74849" lon="5.97596">
        <ele>477</ele>
        <time>2011-07-03T06:55:13Z</time>
      </trkpt>
      <trkpt lat="45.74846" lon="5.97594">
        <ele>477</ele>
        <time>2011-07-03T06:55:14Z</time>
      </trkpt>
      <trkpt lat="45.74843" lon="5.97592">
        <ele>477</ele>
        <time>2011-07-03T06:55:15Z</time>
      </trkpt>
      <trkpt lat="45.7484" lon="5.9759">
        <ele>477</ele>
        <time>2011-07-03T06:55:16Z</time>
      </trkpt>
      <trkpt lat="45.74838" lon="5.97588">
        <ele>477</ele>
        <time>2011-07-03T06:55:17Z</time>
      </trkpt>
      <trkpt lat="45.74836" lon="5.97585">
        <ele>477</ele>
        <time>2011-07-03T06:55:18Z</time>
      </trkpt>
      <trkpt lat="45.74833" lon="5.97583">
        <ele>477</ele>
        <time>2011-07-03T06:55:19Z</time>
      </trkpt>
      <trkpt lat="45.74831" lon="5.97581">
        <ele>477</ele>
        <time>2011-07-03T06:55:20Z</time>
      </trkpt>
      <trkpt lat="45.74829" lon="5.97578">
        <ele>477</ele>
        <time>2011-07-03T06:55:21Z</time>
      </trkpt>
      <trkpt lat="45.74827" lon="5.97576">
        <ele>477</ele>
        <time>2011-07-03T06:55:22Z</time>
      </trkpt>
      <trkpt lat="45.74824" lon="5.97573">
        <ele>477</ele>
        <time>2011-07-03T06:55:23Z</time>
      </trkpt>
      <trkpt lat="45.74823" lon="5.97571">
        <ele>477</ele>
        <time>2011-07-03T06:55:24Z</time>
      </trkpt>
      <trkpt lat="45.74821" lon="5.97568">
        <ele>477</ele>
        <time>2011-07-03T06:55:25Z</time>
      </trkpt>
      <trkpt lat="45.74818" lon="5.97567">
        <ele>477</ele>
        <time>2011-07-03T06:55:26Z</time>
      </trkpt>
      <trkpt lat="45.74815" lon="5.97565">
        <ele>477</ele>
        <time>2011-07-03T06:55:27Z</time>
      </trkpt>
      <trkpt lat="45.74814" lon="5.97563">
        <ele>477</ele>
        <time>2011-07-03T06:55:28Z</time>
      </trkpt>
      <trkpt lat="45.74812" lon="5.97562">
        <ele>477</ele>
        <time>2011-07-03T06:55:29Z</time>
      </trkpt>
      <trkpt lat="45.74809" lon="5.9756">
        <ele>477</ele>
        <time>2011-07-03T06:55:30Z</time>
      </trkpt>
      <trkpt lat="45.74807" lon="5.97558">
        <ele>477</ele>
        <time>2011-07-03T06:55:31Z</time>
      </trkpt>
      <trkpt lat="45.74804" lon="5.97557">
        <ele>477</ele>
        <time>2011-07-03T06:55:32Z</time>
      </trkpt>
      <trkpt lat="45.74802" lon="5.97555">
        <ele>476</ele>
        <time>2011-07-03T06:55:33Z</time>
      </trkpt>
      <trkpt lat="45.748" lon="5.97553">
        <ele>476</ele>
        <time>2011-07-03T06:55:34Z</time>
      </trkpt>
      <trkpt lat="45.74798" lon="5.97551">
        <ele>476</ele>
        <time>2011-07-03T06:55:35Z</time>
      </trkpt>
      <trkpt lat="45.74796" lon="5.9755">
        <ele>476</ele>
        <time>2011-07-03T06:55:36Z</time>
      </trkpt>
      <trkpt lat="45.74794" lon="5.97548">
        <ele>475</ele>
        <time>2011-07-03T06:55:37Z</time>
      </trkpt>
      <trkpt lat="45.74792" lon="5.97547">
        <ele>475</ele>
        <time>2011-07-03T06:55:38Z</time>
      </trkpt>
      <trkpt lat="45.7479" lon="5.97545">
        <ele>475</ele>
        <time>2011-07-03T06:55:39Z</time>
      </trkpt>
      <trkpt lat="45.74788" lon="5.97544">
        <ele>475</ele>
        <time>2011-07-03T06:55:40Z</time>
      </trkpt>
      <trkpt lat="45.74786" lon="5.97543">
        <ele>475</ele>
        <time>2011-07-03T06:55:41Z</time>
      </trkpt>
      <trkpt lat="45.74784" lon="5.97542">
        <ele>474</ele>
        <time>2011-07-03T06:55:42Z</time>
      </trkpt>
      <trkpt lat="45.74782" lon="5.97541">
        <ele>474</ele>
        <time>2011-07-03T06:55:43Z</time>
      </trkpt>
      <trkpt lat="45.7478" lon="5.9754">
        <ele>474</ele>
        <time>2011-07-03T06:55:44Z</time>
      </trkpt>
      <trkpt lat="45.74778" lon="5.97539">
        <ele>474</ele>
        <time>2011-07-03T06:55:45Z</time>
      </trkpt>
      <trkpt lat="45.74776" lon="5.97537">
        <ele>474</ele>
        <time>2011-07-03T06:55:46Z</time>
      </trkpt>
      <trkpt lat="45.74774" lon="5.97536">
        <ele>474</ele>
        <time>2011-07-03T06:55:47Z</time>
      </trkpt>
      <trkpt lat="45.74772" lon="5.97535">
        <ele>474</ele>
        <time>2011-07-03T06:55:48Z</time>
      </trkpt>
      <trkpt lat="45.7477" lon="5.97534">
        <ele>474</ele>
        <time>2011-07-03T06:55:49Z</time>
      </trkpt>
      <trkpt lat="45.74768" lon="5.97533">
        <ele>474</ele>
        <time>2011-07-03T06:55:50Z</time>
      </trkpt>
      <trkpt lat="45.74766" lon="5.97532">
        <ele>474</ele>
        <time>2011-07-03T06:55:51Z</time>
      </trkpt>
      <trkpt lat="45.74764" lon="5.9753">
        <ele>474</ele>
        <time>2011-07-03T06:55:52Z</time>
      </trkpt>
      <trkpt lat="45.74762" lon="5.97529">
        <ele>474</ele>
        <time>2011-07-03T06:55:53Z</time>
      </trkpt>
      <trkpt lat="45.7476" lon="5.97528">
        <ele>474</ele>
        <time>2011-07-03T06:55:54Z</time>
      </trkpt>
      <trkpt lat="45.74758" lon="5.97526">
        <ele>474</ele>
        <time>2011-07-03T06:55:55Z</time>
      </trkpt>
      <trkpt lat="45.74756" lon="5.97523">
        <ele>474</ele>
        <time>2011-07-03T06:55:56Z</time>
      </trkpt>
      <trkpt lat="45.74754" lon="5.97522">
        <ele>474</ele>
        <time>2011-07-03T06:55:57Z</time>
      </trkpt>
      <trkpt lat="45.74751" lon="5.9752">
        <ele>474</ele>
        <time>2011-07-03T06:55:58Z</time>
      </trkpt>
      <trkpt lat="45.74749" lon="5.9752">
        <ele>474</ele>
        <time>2011-07-03T06:55:59Z</time>
      </trkpt>
      <trkpt lat="45.74746" lon="5.9752">
        <ele>474</ele>
        <time>2011-07-03T06:56:00Z</time>
      </trkpt>
      <trkpt lat="45.74744" lon="5.9752">
        <ele>474</ele>
        <time>2011-07-03T06:56:01Z</time>
      </trkpt>
      <trkpt lat="45.74741" lon="5.97519">
        <ele>474</ele>
        <time>2011-07-03T06:56:02Z</time>
      </trkpt>
      <trkpt lat="45.74739" lon="5.97519">
        <ele>473</ele>
        <time>2011-07-03T06:56:03Z</time>
      </trkpt>
      <trkpt lat="45.74736" lon="5.97518">
        <ele>473</ele>
        <time>2011-07-03T06:56:04Z</time>
      </trkpt>
      <trkpt lat="45.74734" lon="5.97517">
        <ele>473</ele>
        <time>2011-07-03T06:56:05Z</time>
      </trkpt>
      <trkpt lat="45.74732" lon="5.97516">
        <ele>472</ele>
        <time>2011-07-03T06:56:06Z</time>
      </trkpt>
      <trkpt lat="45.74729" lon="5.97515">
        <ele>471</ele>
        <time>2011-07-03T06:56:07Z</time>
      </trkpt>
      <trkpt lat="45.74727" lon="5.97514">
        <ele>471</ele>
        <time>2011-07-03T06:56:08Z</time>
      </trkpt>
      <trkpt lat="45.74725" lon="5.97513">
        <ele>471</ele>
        <time>2011-07-03T06:56:09Z</time>
      </trkpt>
      <trkpt lat="45.74723" lon="5.97512">
        <ele>471</ele>
        <time>2011-07-03T06:56:10Z</time>
      </trkpt>
      <trkpt lat="45.7472" lon="5.97511">
        <ele>471</ele>
        <time>2011-07-03T06:56:11Z</time>
      </trkpt>
      <trkpt lat="45.74718" lon="5.97509">
        <ele>471</ele>
        <time>2011-07-03T06:56:12Z</time>
      </trkpt>
      <trkpt lat="45.74716" lon="5.97508">
        <ele>471</ele>
        <time>2011-07-03T06:56:13Z</time>
      </trkpt>
      <trkpt lat="45.74714" lon="5.97507">
        <ele>471</ele>
        <time>2011-07-03T06:56:14Z</time>
      </trkpt>
      <trkpt lat="45.74711" lon="5.97506">
        <ele>470</ele>
        <time>2011-07-03T06:56:15Z</time>
      </trkpt>
      <trkpt lat="45.74709" lon="5.97504">
        <ele>470</ele>
        <time>2011-07-03T06:56:16Z</time>
      </trkpt>
      <trkpt lat="45.74706" lon="5.97503">
        <ele>469</ele>
        <time>2011-07-03T06:56:17Z</time>
      </trkpt>
      <trkpt lat="45.74704" lon="5.97501">
        <ele>469</ele>
        <time>2011-07-03T06:56:18Z</time>
      </trkpt>
      <trkpt lat="45.74701" lon="5.975">
        <ele>468</ele>
        <time>2011-07-03T06:56:19Z</time>
      </trkpt>
      <trkpt lat="45.74697" lon="5.97498">
        <ele>468</ele>
        <time>2011-07-03T06:56:20Z</time>
      </trkpt>
      <trkpt lat="45.74695" lon="5.97495">
        <ele>468</ele>
        <time>2011-07-03T06:56:21Z</time>
      </trkpt>
      <trkpt lat="45.74692" lon="5.97493">
        <ele>467</ele>
        <time>2011-07-03T06:56:22Z</time>
      </trkpt>
      <trkpt lat="45.74689" lon="5.97491">
        <ele>467</ele>
        <time>2011-07-03T06:56:23Z</time>
      </trkpt>
      <trkpt lat="45.74685" lon="5.97489">
        <ele>467</ele>
        <time>2011-07-03T06:56:24Z</time>
      </trkpt>
      <trkpt lat="45.74682" lon="5.97487">
        <ele>467</ele>
        <time>2011-07-03T06:56:25Z</time>
      </trkpt>
      <trkpt lat="45.74679" lon="5.97485">
        <ele>467</ele>
        <time>2011-07-03T06:56:26Z</time>
      </trkpt>
      <trkpt lat="45.74676" lon="5.97484">
        <ele>467</ele>
        <time>2011-07-03T06:56:27Z</time>
      </trkpt>
      <trkpt lat="45.74674" lon="5.97482">
        <ele>467</ele>
        <time>2011-07-03T06:56:28Z</time>
      </trkpt>
      <trkpt lat="45.74671" lon="5.97481">
        <ele>466</ele>
        <time>2011-07-03T06:56:29Z</time>
      </trkpt>
      <trkpt lat="45.74668" lon="5.9748">
        <ele>466</ele>
        <time>2011-07-03T06:56:30Z</time>
      </trkpt>
      <trkpt lat="45.74665" lon="5.97478">
        <ele>465</ele>
        <time>2011-07-03T06:56:31Z</time>
      </trkpt>
      <trkpt lat="45.74663" lon="5.97477">
        <ele>465</ele>
        <time>2011-07-03T06:56:32Z</time>
      </trkpt>
      <trkpt lat="45.74661" lon="5.97474">
        <ele>465</ele>
        <time>2011-07-03T06:56:33Z</time>
      </trkpt>
      <trkpt lat="45.74658" lon="5.97472">
        <ele>465</ele>
        <time>2011-07-03T06:56:34Z</time>
      </trkpt>
      <trkpt lat="45.74656" lon="5.97468">
        <ele>465</ele>
        <time>2011-07-03T06:56:35Z</time>
      </trkpt>
      <trkpt lat="45.74654" lon="5.97464">
        <ele>465</ele>
        <time>2011-07-03T06:56:36Z</time>
      </trkpt>
      <trkpt lat="45.74652" lon="5.97461">
        <ele>465</ele>
        <time>2011-07-03T06:56:37Z</time>
      </trkpt>
      <trkpt lat="45.7465" lon="5.97458">
        <ele>465</ele>
        <time>2011-07-03T06:56:38Z</time>
      </trkpt>
      <trkpt lat="45.74649" lon="5.97455">
        <ele>465</ele>
        <time>2011-07-03T06:56:39Z</time>
      </trkpt>
      <trkpt lat="45.74647" lon="5.97452">
        <ele>465</ele>
        <time>2011-07-03T06:56:40Z</time>
      </trkpt>
      <trkpt lat="45.74645" lon="5.97449">
        <ele>465</ele>
        <time>2011-07-03T06:56:41Z</time>
      </trkpt>
      <trkpt lat="45.74643" lon="5.97447">
        <ele>466</ele>
        <time>2011-07-03T06:56:42Z</time>
      </trkpt>
      <trkpt lat="45.74642" lon="5.97444">
        <ele>466</ele>
        <time>2011-07-03T06:56:43Z</time>
      </trkpt>
      <trkpt lat="45.7464" lon="5.9744">
        <ele>466</ele>
        <time>2011-07-03T06:56:44Z</time>
      </trkpt>
      <trkpt lat="45.74639" lon="5.97437">
        <ele>467</ele>
        <time>2011-07-03T06:56:45Z</time>
      </trkpt>
      <trkpt lat="45.74638" lon="5.97435">
        <ele>467</ele>
        <time>2011-07-03T06:56:46Z</time>
      </trkpt>
      <trkpt lat="45.74636" lon="5.97432">
        <ele>467</ele>
        <time>2011-07-03T06:56:47Z</time>
      </trkpt>
      <trkpt lat="45.74634" lon="5.9743">
        <ele>467</ele>
        <time>2011-07-03T06:56:48Z</time>
      </trkpt>
      <trkpt lat="45.74632" lon="5.97427">
        <ele>467</ele>
        <time>2011-07-03T06:56:49Z</time>
      </trkpt>
      <trkpt lat="45.74631" lon="5.97424">
        <ele>468</ele>
        <time>2011-07-03T06:56:50Z</time>
      </trkpt>
      <trkpt lat="45.74629" lon="5.97422">
        <ele>468</ele>
        <time>2011-07-03T06:56:51Z</time>
      </trkpt>
      <trkpt lat="45.74627" lon="5.97419">
        <ele>468</ele>
        <time>2011-07-03T06:56:52Z</time>
      </trkpt>
      <trkpt lat="45.74625" lon="5.97417">
        <ele>468</ele>
        <time>2011-07-03T06:56:53Z</time>
      </trkpt>
      <trkpt lat="45.74623" lon="5.97416">
        <ele>469</ele>
        <time>2011-07-03T06:56:54Z</time>
      </trkpt>
      <trkpt lat="45.74622" lon="5.97414">
        <ele>469</ele>
        <time>2011-07-03T06:56:55Z</time>
      </trkpt>
      <trkpt lat="45.74621" lon="5.97413">
        <ele>469</ele>
        <time>2011-07-03T06:56:56Z</time>
      </trkpt>
      <trkpt lat="45.74619" lon="5.97411">
        <ele>469</ele>
        <time>2011-07-03T06:56:57Z</time>
      </trkpt>
      <trkpt lat="45.74618" lon="5.97409">
        <ele>469</ele>
        <time>2011-07-03T06:56:58Z</time>
      </trkpt>
      <trkpt lat="45.74617" lon="5.97407">
        <ele>469</ele>
        <time>2011-07-03T06:56:59Z</time>
      </trkpt>
      <trkpt lat="45.74615" lon="5.97405">
        <ele>469</ele>
        <time>2011-07-03T06:57:00Z</time>
      </trkpt>
      <trkpt lat="45.74614" lon="5.97403">
        <ele>469</ele>
        <time>2011-07-03T06:57:01Z</time>
      </trkpt>
      <trkpt lat="45.74612" lon="5.97401">
        <ele>469</ele>
        <time>2011-07-03T06:57:02Z</time>
      </trkpt>
      <trkpt lat="45.74611" lon="5.97399">
        <ele>469</ele>
        <time>2011-07-03T06:57:03Z</time>
      </trkpt>
      <trkpt lat="45.74609" lon="5.97398">
        <ele>469</ele>
        <time>2011-07-03T06:57:04Z</time>
      </trkpt>
      <trkpt lat="45.74608" lon="5.97397">
        <ele>469</ele>
        <time>2011-07-03T06:57:05Z</time>
      </trkpt>
      <trkpt lat="45.74606" lon="5.97396">
        <ele>469</ele>
        <time>2011-07-03T06:57:06Z</time>
      </trkpt>
      <trkpt lat="45.74605" lon="5.97394">
        <ele>469</ele>
        <time>2011-07-03T06:57:07Z</time>
      </trkpt>
      <trkpt lat="45.74603" lon="5.97392">
        <ele>469</ele>
        <time>2011-07-03T06:57:08Z</time>
      </trkpt>
      <trkpt lat="45.74602" lon="5.97391">
        <ele>469</ele>
        <time>2011-07-03T06:57:09Z</time>
      </trkpt>
      <trkpt lat="45.74599" lon="5.97388">
        <ele>469</ele>
        <time>2011-07-03T06:57:11Z</time>
      </trkpt>
      <trkpt lat="45.74598" lon="5.97387">
        <ele>469</ele>
        <time>2011-07-03T06:57:12Z</time>
      </trkpt>
      <trkpt lat="45.74597" lon="5.97386">
        <ele>469</ele>
        <time>2011-07-03T06:57:13Z</time>
      </trkpt>
      <trkpt lat="45.74595" lon="5.97385">
        <ele>469</ele>
        <time>2011-07-03T06:57:14Z</time>
      </trkpt>
      <trkpt lat="45.74594" lon="5.97383">
        <ele>469</ele>
        <time>2011-07-03T06:57:15Z</time>
      </trkpt>
      <trkpt lat="45.74593" lon="5.97382">
        <ele>470</ele>
        <time>2011-07-03T06:57:16Z</time>
      </trkpt>
      <trkpt lat="45.74591" lon="5.97381">
        <ele>470</ele>
        <time>2011-07-03T06:57:17Z</time>
      </trkpt>
      <trkpt lat="45.7459" lon="5.9738">
        <ele>470</ele>
        <time>2011-07-03T06:57:18Z</time>
      </trkpt>
      <trkpt lat="45.74588" lon="5.97379">
        <ele>470</ele>
        <time>2011-07-03T06:57:19Z</time>
      </trkpt>
      <trkpt lat="45.74587" lon="5.97377">
        <ele>471</ele>
        <time>2011-07-03T06:57:20Z</time>
      </trkpt>
      <trkpt lat="45.74586" lon="5.97376">
        <ele>471</ele>
        <time>2011-07-03T06:57:21Z</time>
      </trkpt>
      <trkpt lat="45.74585" lon="5.97375">
        <ele>471</ele>
        <time>2011-07-03T06:57:22Z</time>
      </trkpt>
      <trkpt lat="45.74583" lon="5.97373">
        <ele>471</ele>
        <time>2011-07-03T06:57:23Z</time>
      </trkpt>
      <trkpt lat="45.74582" lon="5.97372">
        <ele>471</ele>
        <time>2011-07-03T06:57:24Z</time>
      </trkpt>
      <trkpt lat="45.7458" lon="5.97371">
        <ele>472</ele>
        <time>2011-07-03T06:57:25Z</time>
      </trkpt>
      <trkpt lat="45.74579" lon="5.97369">
        <ele>472</ele>
        <time>2011-07-03T06:57:26Z</time>
      </trkpt>
      <trkpt lat="45.74577" lon="5.97367">
        <ele>472</ele>
        <time>2011-07-03T06:57:27Z</time>
      </trkpt>
      <trkpt lat="45.74576" lon="5.97366">
        <ele>472</ele>
        <time>2011-07-03T06:57:28Z</time>
      </trkpt>
      <trkpt lat="45.74574" lon="5.97365">
        <ele>472</ele>
        <time>2011-07-03T06:57:29Z</time>
      </trkpt>
      <trkpt lat="45.74573" lon="5.97363">
        <ele>472</ele>
        <time>2011-07-03T06:57:30Z</time>
      </trkpt>
      <trkpt lat="45.74572" lon="5.97362">
        <ele>473</ele>
        <time>2011-07-03T06:57:31Z</time>
      </trkpt>
      <trkpt lat="45.7457" lon="5.9736">
        <ele>473</ele>
        <time>2011-07-03T06:57:32Z</time>
      </trkpt>
      <trkpt lat="45.74569" lon="5.97359">
        <ele>473</ele>
        <time>2011-07-03T06:57:33Z</time>
      </trkpt>
      <trkpt lat="45.74567" lon="5.97358">
        <ele>473</ele>
        <time>2011-07-03T06:57:34Z</time>
      </trkpt>
      <trkpt lat="45.74566" lon="5.97357">
        <ele>473</ele>
        <time>2011-07-03T06:57:35Z</time>
      </trkpt>
      <trkpt lat="45.74565" lon="5.97356">
        <ele>473</ele>
        <time>2011-07-03T06:57:36Z</time>
      </trkpt>
      <trkpt lat="45.74564" lon="5.97355">
        <ele>473</ele>
        <time>2011-07-03T06:57:37Z</time>
      </trkpt>
      <trkpt lat="45.74562" lon="5.97353">
        <ele>473</ele>
        <time>2011-07-03T06:57:38Z</time>
      </trkpt>
      <trkpt lat="45.74561" lon="5.97352">
        <ele>473</ele>
        <time>2011-07-03T06:57:39Z</time>
      </trkpt>
      <trkpt lat="45.74559" lon="5.97351">
        <ele>473</ele>
        <time>2011-07-03T06:57:40Z</time>
      </trkpt>
      <trkpt lat="45.74558" lon="5.97349">
        <ele>473</ele>
        <time>2011-07-03T06:57:41Z</time>
      </trkpt>
      <trkpt lat="45.74557" lon="5.97347">
        <ele>473</ele>
        <time>2011-07-03T06:57:42Z</time>
      </trkpt>
      <trkpt lat="45.74556" lon="5.97345">
        <ele>473</ele>
        <time>2011-07-03T06:57:43Z</time>
      </trkpt>
      <trkpt lat="45.74554" lon="5.97344">
        <ele>473</ele>
        <time>2011-07-03T06:57:44Z</time>
      </trkpt>
      <trkpt lat="45.74552" lon="5.97342">
        <ele>473</ele>
        <time>2011-07-03T06:57:45Z</time>
      </trkpt>
      <trkpt lat="45.74551" lon="5.9734">
        <ele>473</ele>
        <time>2011-07-03T06:57:46Z</time>
      </trkpt>
      <trkpt lat="45.74549" lon="5.97339">
        <ele>473</ele>
        <time>2011-07-03T06:57:47Z</time>
      </trkpt>
      <trkpt lat="45.74547" lon="5.97337">
        <ele>473</ele>
        <time>2011-07-03T06:57:48Z</time>
      </trkpt>
      <trkpt lat="45.74545" lon="5.97336">
        <ele>473</ele>
        <time>2011-07-03T06:57:49Z</time>
      </trkpt>
      <trkpt lat="45.74543" lon="5.97334">
        <ele>473</ele>
        <time>2011-07-03T06:57:50Z</time>
      </trkpt>
      <trkpt lat="45.74542" lon="5.97333">
        <ele>473</ele>
        <time>2011-07-03T06:57:51Z</time>
      </trkpt>
      <trkpt lat="45.7454" lon="5.97331">
        <ele>473</ele>
        <time>2011-07-03T06:57:52Z</time>
      </trkpt>
      <trkpt lat="45.74538" lon="5.9733">
        <ele>473</ele>
        <time>2011-07-03T06:57:53Z</time>
      </trkpt>
      <trkpt lat="45.74536" lon="5.97329">
        <ele>473</ele>
        <time>2011-07-03T06:57:54Z</time>
      </trkpt>
      <trkpt lat="45.74534" lon="5.97327">
        <ele>473</ele>
        <time>2011-07-03T06:57:55Z</time>
      </trkpt>
      <trkpt lat="45.74532" lon="5.97325">
        <ele>473</ele>
        <time>2011-07-03T06:57:56Z</time>
      </trkpt>
      <trkpt lat="45.7453" lon="5.97324">
        <ele>473</ele>
        <time>2011-07-03T06:57:57Z</time>
      </trkpt>
      <trkpt lat="45.74528" lon="5.97322">
        <ele>473</ele>
        <time>2011-07-03T06:57:58Z</time>
      </trkpt>
      <trkpt lat="45.74527" lon="5.9732">
        <ele>473</ele>
        <time>2011-07-03T06:57:59Z</time>
      </trkpt>
      <trkpt lat="45.74525" lon="5.97319">
        <ele>473</ele>
        <time>2011-07-03T06:58:00Z</time>
      </trkpt>
      <trkpt lat="45.74522" lon="5.97317">
        <ele>473</ele>
        <time>2011-07-03T06:58:01Z</time>
      </trkpt>
      <trkpt lat="45.7452" lon="5.97315">
        <ele>473</ele>
        <time>2011-07-03T06:58:02Z</time>
      </trkpt>
      <trkpt lat="45.74519" lon="5.97313">
        <ele>473</ele>
        <time>2011-07-03T06:58:03Z</time>
      </trkpt>
      <trkpt lat="45.74517" lon="5.97311">
        <ele>473</ele>
        <time>2011-07-03T06:58:04Z</time>
      </trkpt>
      <trkpt lat="45.74515" lon="5.97309">
        <ele>473</ele>
        <time>2011-07-03T06:58:05Z</time>
      </trkpt>
      <trkpt lat="45.74513" lon="5.97307">
        <ele>474</ele>
        <time>2011-07-03T06:58:06Z</time>
      </trkpt>
      <trkpt lat="45.74512" lon="5.97305">
        <ele>474</ele>
        <time>2011-07-03T06:58:07Z</time>
      </trkpt>
      <trkpt lat="45.7451" lon="5.97304">
        <ele>474</ele>
        <time>2011-07-03T06:58:08Z</time>
      </trkpt>
      <trkpt lat="45.74509" lon="5.97302">
        <ele>474</ele>
        <time>2011-07-03T06:58:09Z</time>
      </trkpt>
      <trkpt lat="45.74507" lon="5.97301">
        <ele>474</ele>
        <time>2011-07-03T06:58:10Z</time>
      </trkpt>
      <trkpt lat="45.74505" lon="5.97299">
        <ele>474</ele>
        <time>2011-07-03T06:58:11Z</time>
      </trkpt>
      <trkpt lat="45.74503" lon="5.97298">
        <ele>474</ele>
        <time>2011-07-03T06:58:12Z</time>
      </trkpt>
      <trkpt lat="45.74502" lon="5.97297">
        <ele>474</ele>
        <time>2011-07-03T06:58:13Z</time>
      </trkpt>
      <trkpt lat="45.74501" lon="5.97296">
        <ele>474</ele>
        <time>2011-07-03T06:58:14Z</time>
      </trkpt>
      <trkpt lat="45.74499" lon="5.97295">
        <ele>474</ele>
        <time>2011-07-03T06:58:15Z</time>
      </trkpt>
      <trkpt lat="45.74498" lon="5.97294">
        <ele>475</ele>
        <time>2011-07-03T06:58:16Z</time>
      </trkpt>
      <trkpt lat="45.74497" lon="5.97293">
        <ele>475</ele>
        <time>2011-07-03T06:58:17Z</time>
      </trkpt>
      <trkpt lat="45.74495" lon="5.97292">
        <ele>475</ele>
        <time>2011-07-03T06:58:18Z</time>
      </trkpt>
      <trkpt lat="45.74494" lon="5.9729">
        <ele>475</ele>
        <time>2011-07-03T06:58:19Z</time>
      </trkpt>
      <trkpt lat="45.74493" lon="5.97289">
        <ele>475</ele>
        <time>2011-07-03T06:58:20Z</time>
      </trkpt>
      <trkpt lat="45.74491" lon="5.97289">
        <ele>475</ele>
        <time>2011-07-03T06:58:21Z</time>
      </trkpt>
      <trkpt lat="45.7449" lon="5.97287">
        <ele>475</ele>
        <time>2011-07-03T06:58:22Z</time>
      </trkpt>
      <trkpt lat="45.74489" lon="5.97286">
        <ele>475</ele>
        <time>2011-07-03T06:58:23Z</time>
      </trkpt>
      <trkpt lat="45.74487" lon="5.97285">
        <ele>475</ele>
        <time>2011-07-03T06:58:24Z</time>
      </trkpt>
      <trkpt lat="45.74486" lon="5.97284">
        <ele>475</ele>
        <time>2011-07-03T06:58:25Z</time>
      </trkpt>
      <trkpt lat="45.74485" lon="5.97283">
        <ele>475</ele>
        <time>2011-07-03T06:58:26Z</time>
      </trkpt>
      <trkpt lat="45.74483" lon="5.97282">
        <ele>475</ele>
        <time>2011-07-03T06:58:27Z</time>
      </trkpt>
      <trkpt lat="45.74482" lon="5.97281">
        <ele>476</ele>
        <time>2011-07-03T06:58:28Z</time>
      </trkpt>
      <trkpt lat="45.74481" lon="5.9728">
        <ele>476</ele>
        <time>2011-07-03T06:58:29Z</time>
      </trkpt>
      <trkpt lat="45.7448" lon="5.97278">
        <ele>476</ele>
        <time>2011-07-03T06:58:30Z</time>
      </trkpt>
      <trkpt lat="45.74477" lon="5.97276">
        <ele>476</ele>
        <time>2011-07-03T06:58:32Z</time>
      </trkpt>
      <trkpt lat="45.74476" lon="5.97275">
        <ele>476</ele>
        <time>2011-07-03T06:58:33Z</time>
      </trkpt>
      <trkpt lat="45.74475" lon="5.97274">
        <ele>477</ele>
        <time>2011-07-03T06:58:34Z</time>
      </trkpt>
      <trkpt lat="45.74474" lon="5.97273">
        <ele>477</ele>
        <time>2011-07-03T06:58:35Z</time>
      </trkpt>
      <trkpt lat="45.74472" lon="5.97272">
        <ele>477</ele>
        <time>2011-07-03T06:58:36Z</time>
      </trkpt>
      <trkpt lat="45.74471" lon="5.97271">
        <ele>477</ele>
        <time>2011-07-03T06:58:37Z</time>
      </trkpt>
      <trkpt lat="45.7447" lon="5.9727">
        <ele>477</ele>
        <time>2011-07-03T06:58:38Z</time>
      </trkpt>
      <trkpt lat="45.74468" lon="5.97269">
        <ele>477</ele>
        <time>2011-07-03T06:58:39Z</time>
      </trkpt>
      <trkpt lat="45.74467" lon="5.97267">
        <ele>477</ele>
        <time>2011-07-03T06:58:40Z</time>
      </trkpt>
      <trkpt lat="45.74466" lon="5.97264">
        <ele>477</ele>
        <time>2011-07-03T06:58:42Z</time>
      </trkpt>
      <trkpt lat="45.74467" lon="5.97262">
        <ele>477</ele>
        <time>2011-07-03T06:58:43Z</time>
      </trkpt>
      <trkpt lat="45.74467" lon="5.9726">
        <ele>478</ele>
        <time>2011-07-03T06:58:44Z</time>
      </trkpt>
      <trkpt lat="45.74468" lon="5.97258">
        <ele>478</ele>
        <time>2011-07-03T06:58:45Z</time>
      </trkpt>
      <trkpt lat="45.74468" lon="5.97255">
        <ele>478</ele>
        <time>2011-07-03T06:58:46Z</time>
      </trkpt>
      <trkpt lat="45.74469" lon="5.97253">
        <ele>478</ele>
        <time>2011-07-03T06:58:47Z</time>
      </trkpt>
      <trkpt lat="45.74469" lon="5.97252">
        <ele>478</ele>
        <time>2011-07-03T06:58:48Z</time>
      </trkpt>
      <trkpt lat="45.74469" lon="5.97249">
        <ele>478</ele>
        <time>2011-07-03T06:58:49Z</time>
      </trkpt>
      <trkpt lat="45.74469" lon="5.97247">
        <ele>478</ele>
        <time>2011-07-03T06:58:50Z</time>
      </trkpt>
      <trkpt lat="45.74469" lon="5.97244">
        <ele>478</ele>
        <time>2011-07-03T06:58:52Z</time>
      </trkpt>
      <trkpt lat="45.74469" lon="5.97242">
        <ele>478</ele>
        <time>2011-07-03T06:58:54Z</time>
      </trkpt>
      <trkpt lat="45.74469" lon="5.9724">
        <ele>478</ele>
        <time>2011-07-03T06:58:55Z</time>
      </trkpt>
      <trkpt lat="45.7447" lon="5.97238">
        <ele>478</ele>
        <time>2011-07-03T06:58:56Z</time>
      </trkpt>
      <trkpt lat="45.74471" lon="5.97236">
        <ele>478</ele>
        <time>2011-07-03T06:58:57Z</time>
      </trkpt>
      <trkpt lat="45.74471" lon="5.97234">
        <ele>478</ele>
        <time>2011-07-03T06:58:58Z</time>
      </trkpt>
      <trkpt lat="45.74471" lon="5.97232">
        <ele>478</ele>
        <time>2011-07-03T06:58:59Z</time>
      </trkpt>
      <trkpt lat="45.74471" lon="5.9723">
        <ele>478</ele>
        <time>2011-07-03T06:59:00Z</time>
      </trkpt>
      <trkpt lat="45.74471" lon="5.97228">
        <ele>478</ele>
        <time>2011-07-03T06:59:01Z</time>
      </trkpt>
      <trkpt lat="45.7447" lon="5.97227">
        <ele>478</ele>
        <time>2011-07-03T06:59:02Z</time>
      </trkpt>
      <trkpt lat="45.74469" lon="5.97225">
        <ele>478</ele>
        <time>2011-07-03T06:59:03Z</time>
      </trkpt>
      <trkpt lat="45.74468" lon="5.97224">
        <ele>478</ele>
        <time>2011-07-03T06:59:04Z</time>
      </trkpt>
      <trkpt lat="45.74467" lon="5.97222">
        <ele>478</ele>
        <time>2011-07-03T06:59:05Z</time>
      </trkpt>
      <trkpt lat="45.74466" lon="5.97219">
        <ele>478</ele>
        <time>2011-07-03T06:59:07Z</time>
      </trkpt>
      <trkpt lat="45.74465" lon="5.97217">
        <ele>478</ele>
        <time>2011-07-03T06:59:09Z</time>
      </trkpt>
      <trkpt lat="45.74464" lon="5.97215">
        <ele>479</ele>
        <time>2011-07-03T06:59:11Z</time>
      </trkpt>
      <trkpt lat="45.74463" lon="5.97214">
        <ele>479</ele>
        <time>2011-07-03T06:59:12Z</time>
      </trkpt>
      <trkpt lat="45.74461" lon="5.97213">
        <ele>480</ele>
        <time>2011-07-03T06:59:13Z</time>
      </trkpt>
      <trkpt lat="45.74459" lon="5.9721">
        <ele>480</ele>
        <time>2011-07-03T06:59:15Z</time>
      </trkpt>
      <trkpt lat="45.74459" lon="5.97208">
        <ele>480</ele>
        <time>2011-07-03T06:59:16Z</time>
      </trkpt>
      <trkpt lat="45.74458" lon="5.97207">
        <ele>481</ele>
        <time>2011-07-03T06:59:17Z</time>
      </trkpt>
      <trkpt lat="45.74457" lon="5.97205">
        <ele>481</ele>
        <time>2011-07-03T06:59:18Z</time>
      </trkpt>
      <trkpt lat="45.74456" lon="5.97203">
        <ele>481</ele>
        <time>2011-07-03T06:59:19Z</time>
      </trkpt>
      <trkpt lat="45.74456" lon="5.97202">
        <ele>482</ele>
        <time>2011-07-03T06:59:20Z</time>
      </trkpt>
      <trkpt lat="45.74455" lon="5.972">
        <ele>483</ele>
        <time>2011-07-03T06:59:21Z</time>
      </trkpt>
      <trkpt lat="45.74454" lon="5.97199">
        <ele>483</ele>
        <time>2011-07-03T06:59:22Z</time>
      </trkpt>
      <trkpt lat="45.74453" lon="5.97197">
        <ele>484</ele>
        <time>2011-07-03T06:59:23Z</time>
      </trkpt>
      <trkpt lat="45.74451" lon="5.97195">
        <ele>485</ele>
        <time>2011-07-03T06:59:24Z</time>
      </trkpt>
      <trkpt lat="45.7445" lon="5.97193">
        <ele>485</ele>
        <time>2011-07-03T06:59:25Z</time>
      </trkpt>
      <trkpt lat="45.74449" lon="5.97191">
        <ele>486</ele>
        <time>2011-07-03T06:59:26Z</time>
      </trkpt>
      <trkpt lat="45.74448" lon="5.9719">
        <ele>486</ele>
        <time>2011-07-03T06:59:27Z</time>
      </trkpt>
      <trkpt lat="45.74446" lon="5.97188">
        <ele>486</ele>
        <time>2011-07-03T06:59:28Z</time>
      </trkpt>
      <trkpt lat="45.74445" lon="5.97186">
        <ele>487</ele>
        <time>2011-07-03T06:59:29Z</time>
      </trkpt>
      <trkpt lat="45.74444" lon="5.97184">
        <ele>487</ele>
        <time>2011-07-03T06:59:30Z</time>
      </trkpt>
      <trkpt lat="45.74443" lon="5.97183">
        <ele>487</ele>
        <time>2011-07-03T06:59:31Z</time>
      </trkpt>
      <trkpt lat="45.74442" lon="5.97181">
        <ele>488</ele>
        <time>2011-07-03T06:59:32Z</time>
      </trkpt>
      <trkpt lat="45.7444" lon="5.9718">
        <ele>488</ele>
        <time>2011-07-03T06:59:33Z</time>
      </trkpt>
      <trkpt lat="45.74438" lon="5.97178">
        <ele>488</ele>
        <time>2011-07-03T06:59:34Z</time>
      </trkpt>
      <trkpt lat="45.74437" lon="5.97176">
        <ele>489</ele>
        <time>2011-07-03T06:59:35Z</time>
      </trkpt>
      <trkpt lat="45.74435" lon="5.97174">
        <ele>489</ele>
        <time>2011-07-03T06:59:36Z</time>
      </trkpt>
      <trkpt lat="45.74432" lon="5.97171">
        <ele>489</ele>
        <time>2011-07-03T06:59:37Z</time>
      </trkpt>
      <trkpt lat="45.7443" lon="5.97169">
        <ele>489</ele>
        <time>2011-07-03T06:59:38Z</time>
      </trkpt>
      <trkpt lat="45.74428" lon="5.97167">
        <ele>489</ele>
        <time>2011-07-03T06:59:39Z</time>
      </trkpt>
      <trkpt lat="45.74425" lon="5.97165">
        <ele>489</ele>
        <time>2011-07-03T06:59:40Z</time>
      </trkpt>
      <trkpt lat="45.74423" lon="5.97163">
        <ele>489</ele>
        <time>2011-07-03T06:59:41Z</time>
      </trkpt>
      <trkpt lat="45.74421" lon="5.9716">
        <ele>489</ele>
        <time>2011-07-03T06:59:42Z</time>
      </trkpt>
      <trkpt lat="45.74418" lon="5.97158">
        <ele>489</ele>
        <time>2011-07-03T06:59:43Z</time>
      </trkpt>
      <trkpt lat="45.74416" lon="5.97156">
        <ele>489</ele>
        <time>2011-07-03T06:59:44Z</time>
      </trkpt>
      <trkpt lat="45.74414" lon="5.97154">
        <ele>489</ele>
        <time>2011-07-03T06:59:45Z</time>
      </trkpt>
      <trkpt lat="45.74412" lon="5.97152">
        <ele>489</ele>
        <time>2011-07-03T06:59:46Z</time>
      </trkpt>
      <trkpt lat="45.7441" lon="5.97149">
        <ele>489</ele>
        <time>2011-07-03T06:59:47Z</time>
      </trkpt>
      <trkpt lat="45.74409" lon="5.97147">
        <ele>489</ele>
        <time>2011-07-03T06:59:48Z</time>
      </trkpt>
      <trkpt lat="45.74407" lon="5.97145">
        <ele>489</ele>
        <time>2011-07-03T06:59:49Z</time>
      </trkpt>
      <trkpt lat="45.74405" lon="5.97142">
        <ele>489</ele>
        <time>2011-07-03T06:59:50Z</time>
      </trkpt>
      <trkpt lat="45.74404" lon="5.9714">
        <ele>489</ele>
        <time>2011-07-03T06:59:51Z</time>
      </trkpt>
      <trkpt lat="45.74402" lon="5.97137">
        <ele>489</ele>
        <time>2011-07-03T06:59:52Z</time>
      </trkpt>
      <trkpt lat="45.744" lon="5.97134">
        <ele>489</ele>
        <time>2011-07-03T06:59:53Z</time>
      </trkpt>
      <trkpt lat="45.74399" lon="5.97132">
        <ele>489</ele>
        <time>2011-07-03T06:59:54Z</time>
      </trkpt>
      <trkpt lat="45.74397" lon="5.97129">
        <ele>489</ele>
        <time>2011-07-03T06:59:55Z</time>
      </trkpt>
      <trkpt lat="45.74395" lon="5.97126">
        <ele>489</ele>
        <time>2011-07-03T06:59:56Z</time>
      </trkpt>
      <trkpt lat="45.74393" lon="5.97124">
        <ele>489</ele>
        <time>2011-07-03T06:59:57Z</time>
      </trkpt>
      <trkpt lat="45.74392" lon="5.97121">
        <ele>489</ele>
        <time>2011-07-03T06:59:58Z</time>
      </trkpt>
      <trkpt lat="45.7439" lon="5.97118">
        <ele>489</ele>
        <time>2011-07-03T06:59:59Z</time>
      </trkpt>
      <trkpt lat="45.74388" lon="5.97115">
        <ele>489</ele>
        <time>2011-07-03T07:00:00Z</time>
      </trkpt>
      <trkpt lat="45.74385" lon="5.97112">
        <ele>489</ele>
        <time>2011-07-03T07:00:01Z</time>
      </trkpt>
      <trkpt lat="45.74383" lon="5.97109">
        <ele>489</ele>
        <time>2011-07-03T07:00:02Z</time>
      </trkpt>
      <trkpt lat="45.74381" lon="5.97106">
        <ele>489</ele>
        <time>2011-07-03T07:00:03Z</time>
      </trkpt>
      <trkpt lat="45.74379" lon="5.97103">
        <ele>489</ele>
        <time>2011-07-03T07:00:04Z</time>
      </trkpt>
      <trkpt lat="45.74377" lon="5.971">
        <ele>489</ele>
        <time>2011-07-03T07:00:05Z</time>
      </trkpt>
      <trkpt lat="45.74376" lon="5.97097">
        <ele>489</ele>
        <time>2011-07-03T07:00:06Z</time>
      </trkpt>
      <trkpt lat="45.74374" lon="5.97093">
        <ele>489</ele>
        <time>2011-07-03T07:00:07Z</time>
      </trkpt>
      <trkpt lat="45.74372" lon="5.9709">
        <ele>489</ele>
        <time>2011-07-03T07:00:08Z</time>
      </trkpt>
      <trkpt lat="45.7437" lon="5.97087">
        <ele>489</ele>
        <time>2011-07-03T07:00:09Z</time>
      </trkpt>
      <trkpt lat="45.74369" lon="5.97083">
        <ele>489</ele>
        <time>2011-07-03T07:00:10Z</time>
      </trkpt>
      <trkpt lat="45.74367" lon="5.9708">
        <ele>489</ele>
        <time>2011-07-03T07:00:11Z</time>
      </trkpt>
      <trkpt lat="45.74365" lon="5.97076">
        <ele>489</ele>
        <time>2011-07-03T07:00:12Z</time>
      </trkpt>
      <trkpt lat="45.74363" lon="5.97073">
        <ele>489</ele>
        <time>2011-07-03T07:00:13Z</time>
      </trkpt>
      <trkpt lat="45.7436" lon="5.97069">
        <ele>489</ele>
        <time>2011-07-03T07:00:14Z</time>
      </trkpt>
      <trkpt lat="45.74358" lon="5.97065">
        <ele>489</ele>
        <time>2011-07-03T07:00:15Z</time>
      </trkpt>
      <trkpt lat="45.74356" lon="5.97061">
        <ele>489</ele>
        <time>2011-07-03T07:00:16Z</time>
      </trkpt>
      <trkpt lat="45.74354" lon="5.97057">
        <ele>489</ele>
        <time>2011-07-03T07:00:17Z</time>
      </trkpt>
      <trkpt lat="45.74351" lon="5.97053">
        <ele>489</ele>
        <time>2011-07-03T07:00:18Z</time>
      </trkpt>
      <trkpt lat="45.74349" lon="5.97049">
        <ele>489</ele>
        <time>2011-07-03T07:00:19Z</time>
      </trkpt>
      <trkpt lat="45.74347" lon="5.97044">
        <ele>489</ele>
        <time>2011-07-03T07:00:20Z</time>
      </trkpt>
      <trkpt lat="45.74344" lon="5.9704">
        <ele>489</ele>
        <time>2011-07-03T07:00:21Z</time>
      </trkpt>
      <trkpt lat="45.74342" lon="5.97036">
        <ele>489</ele>
        <time>2011-07-03T07:00:22Z</time>
      </trkpt>
      <trkpt lat="45.7434" lon="5.97031">
        <ele>489</ele>
        <time>2011-07-03T07:00:23Z</time>
      </trkpt>
      <trkpt lat="45.74337" lon="5.97027">
        <ele>489</ele>
        <time>2011-07-03T07:00:24Z</time>
      </trkpt>
      <trkpt lat="45.74335" lon="5.97023">
        <ele>489</ele>
        <time>2011-07-03T07:00:25Z</time>
      </trkpt>
      <trkpt lat="45.74333" lon="5.97018">
        <ele>489</ele>
        <time>2011-07-03T07:00:26Z</time>
      </trkpt>
      <trkpt lat="45.7433" lon="5.97014">
        <ele>489</ele>
        <time>2011-07-03T07:00:27Z</time>
      </trkpt>
      <trkpt lat="45.74328" lon="5.9701">
        <ele>489</ele>
        <time>2011-07-03T07:00:28Z</time>
      </trkpt>
      <trkpt lat="45.74326" lon="5.97005">
        <ele>489</ele>
        <time>2011-07-03T07:00:29Z</time>
      </trkpt>
      <trkpt lat="45.74324" lon="5.97001">
        <ele>489</ele>
        <time>2011-07-03T07:00:30Z</time>
      </trkpt>
      <trkpt lat="45.74321" lon="5.96996">
        <ele>489</ele>
        <time>2011-07-03T07:00:31Z</time>
      </trkpt>
      <trkpt lat="45.74319" lon="5.96992">
        <ele>489</ele>
        <time>2011-07-03T07:00:32Z</time>
      </trkpt>
      <trkpt lat="45.74317" lon="5.96988">
        <ele>489</ele>
        <time>2011-07-03T07:00:33Z</time>
      </trkpt>
      <trkpt lat="45.74315" lon="5.96984">
        <ele>489</ele>
        <time>2011-07-03T07:00:34Z</time>
      </trkpt>
      <trkpt lat="45.74313" lon="5.96979">
        <ele>489</ele>
        <time>2011-07-03T07:00:35Z</time>
      </trkpt>
      <trkpt lat="45.74311" lon="5.96975">
        <ele>489</ele>
        <time>2011-07-03T07:00:36Z</time>
      </trkpt>
      <trkpt lat="45.7431" lon="5.96971">
        <ele>489</ele>
        <time>2011-07-03T07:00:37Z</time>
      </trkpt>
      <trkpt lat="45.74308" lon="5.96968">
        <ele>489</ele>
        <time>2011-07-03T07:00:38Z</time>
      </trkpt>
      <trkpt lat="45.74307" lon="5.96965">
        <ele>489</ele>
        <time>2011-07-03T07:00:39Z</time>
      </trkpt>
      <trkpt lat="45.74305" lon="5.96962">
        <ele>488</ele>
        <time>2011-07-03T07:00:40Z</time>
      </trkpt>
      <trkpt lat="45.74304" lon="5.9696">
        <ele>488</ele>
        <time>2011-07-03T07:00:41Z</time>
      </trkpt>
      <trkpt lat="45.74303" lon="5.96959">
        <ele>488</ele>
        <time>2011-07-03T07:00:42Z</time>
      </trkpt>
      <trkpt lat="45.74302" lon="5.96958">
        <ele>488</ele>
        <time>2011-07-03T07:00:43Z</time>
      </trkpt>
      <trkpt lat="45.743" lon="5.96957">
        <ele>488</ele>
        <time>2011-07-03T07:00:44Z</time>
      </trkpt>
      <trkpt lat="45.74298" lon="5.96956">
        <ele>488</ele>
        <time>2011-07-03T07:00:45Z</time>
      </trkpt>
      <trkpt lat="45.74296" lon="5.96954">
        <ele>487</ele>
        <time>2011-07-03T07:00:46Z</time>
      </trkpt>
      <trkpt lat="45.74293" lon="5.96952">
        <ele>487</ele>
        <time>2011-07-03T07:00:47Z</time>
      </trkpt>
      <trkpt lat="45.74289" lon="5.96948">
        <ele>486</ele>
        <time>2011-07-03T07:00:48Z</time>
      </trkpt>
      <trkpt lat="45.74285" lon="5.96945">
        <ele>486</ele>
        <time>2011-07-03T07:00:49Z</time>
      </trkpt>
      <trkpt lat="45.74281" lon="5.96941">
        <ele>485</ele>
        <time>2011-07-03T07:00:50Z</time>
      </trkpt>
      <trkpt lat="45.74277" lon="5.96937">
        <ele>484</ele>
        <time>2011-07-03T07:00:51Z</time>
      </trkpt>
      <trkpt lat="45.74272" lon="5.96932">
        <ele>483</ele>
        <time>2011-07-03T07:00:52Z</time>
      </trkpt>
      <trkpt lat="45.74268" lon="5.96926">
        <ele>482</ele>
        <time>2011-07-03T07:00:53Z</time>
      </trkpt>
      <trkpt lat="45.74263" lon="5.9692">
        <ele>482</ele>
        <time>2011-07-03T07:00:54Z</time>
      </trkpt>
      <trkpt lat="45.74258" lon="5.96914">
        <ele>481</ele>
        <time>2011-07-03T07:00:55Z</time>
      </trkpt>
      <trkpt lat="45.74253" lon="5.96908">
        <ele>480</ele>
        <time>2011-07-03T07:00:56Z</time>
      </trkpt>
      <trkpt lat="45.74248" lon="5.96902">
        <ele>480</ele>
        <time>2011-07-03T07:00:57Z</time>
      </trkpt>
      <trkpt lat="45.74243" lon="5.96895">
        <ele>479</ele>
        <time>2011-07-03T07:00:58Z</time>
      </trkpt>
      <trkpt lat="45.74238" lon="5.96889">
        <ele>478</ele>
        <time>2011-07-03T07:00:59Z</time>
      </trkpt>
      <trkpt lat="45.74234" lon="5.96883">
        <ele>477</ele>
        <time>2011-07-03T07:01:00Z</time>
      </trkpt>
      <trkpt lat="45.74229" lon="5.96877">
        <ele>477</ele>
        <time>2011-07-03T07:01:01Z</time>
      </trkpt>
      <trkpt lat="45.74225" lon="5.9687">
        <ele>476</ele>
        <time>2011-07-03T07:01:02Z</time>
      </trkpt>
      <trkpt lat="45.74221" lon="5.96864">
        <ele>476</ele>
        <time>2011-07-03T07:01:03Z</time>
      </trkpt>
      <trkpt lat="45.74218" lon="5.96859">
        <ele>475</ele>
        <time>2011-07-03T07:01:04Z</time>
      </trkpt>
      <trkpt lat="45.74214" lon="5.96853">
        <ele>475</ele>
        <time>2011-07-03T07:01:05Z</time>
      </trkpt>
      <trkpt lat="45.74211" lon="5.96848">
        <ele>474</ele>
        <time>2011-07-03T07:01:06Z</time>
      </trkpt>
      <trkpt lat="45.74208" lon="5.96843">
        <ele>474</ele>
        <time>2011-07-03T07:01:07Z</time>
      </trkpt>
      <trkpt lat="45.74205" lon="5.96839">
        <ele>474</ele>
        <time>2011-07-03T07:01:08Z</time>
      </trkpt>
      <trkpt lat="45.74202" lon="5.96834">
        <ele>474</ele>
        <time>2011-07-03T07:01:09Z</time>
      </trkpt>
      <trkpt lat="45.742" lon="5.9683">
        <ele>474</ele>
        <time>2011-07-03T07:01:10Z</time>
      </trkpt>
      <trkpt lat="45.74197" lon="5.96825">
        <ele>474</ele>
        <time>2011-07-03T07:01:11Z</time>
      </trkpt>
      <trkpt lat="45.74194" lon="5.9682">
        <ele>473</ele>
        <time>2011-07-03T07:01:12Z</time>
      </trkpt>
      <trkpt lat="45.74191" lon="5.96816">
        <ele>473</ele>
        <time>2011-07-03T07:01:13Z</time>
      </trkpt>
      <trkpt lat="45.74189" lon="5.96812">
        <ele>473</ele>
        <time>2011-07-03T07:01:14Z</time>
      </trkpt>
      <trkpt lat="45.74185" lon="5.96809">
        <ele>473</ele>
        <time>2011-07-03T07:01:15Z</time>
      </trkpt>
      <trkpt lat="45.74182" lon="5.96805">
        <ele>473</ele>
        <time>2011-07-03T07:01:16Z</time>
      </trkpt>
      <trkpt lat="45.7418" lon="5.96801">
        <ele>473</ele>
        <time>2011-07-03T07:01:17Z</time>
      </trkpt>
      <trkpt lat="45.74178" lon="5.96798">
        <ele>473</ele>
        <time>2011-07-03T07:01:18Z</time>
      </trkpt>
      <trkpt lat="45.74176" lon="5.96795">
        <ele>473</ele>
        <time>2011-07-03T07:01:19Z</time>
      </trkpt>
      <trkpt lat="45.74174" lon="5.96792">
        <ele>473</ele>
        <time>2011-07-03T07:01:20Z</time>
      </trkpt>
      <trkpt lat="45.74172" lon="5.96789">
        <ele>473</ele>
        <time>2011-07-03T07:01:21Z</time>
      </trkpt>
      <trkpt lat="45.7417" lon="5.96785">
        <ele>473</ele>
        <time>2011-07-03T07:01:22Z</time>
      </trkpt>
      <trkpt lat="45.74168" lon="5.96782">
        <ele>473</ele>
        <time>2011-07-03T07:01:23Z</time>
      </trkpt>
      <trkpt lat="45.74166" lon="5.96778">
        <ele>473</ele>
        <time>2011-07-03T07:01:24Z</time>
      </trkpt>
      <trkpt lat="45.74165" lon="5.96775">
        <ele>473</ele>
        <time>2011-07-03T07:01:25Z</time>
      </trkpt>
      <trkpt lat="45.74163" lon="5.96772">
        <ele>473</ele>
        <time>2011-07-03T07:01:26Z</time>
      </trkpt>
      <trkpt lat="45.74162" lon="5.96769">
        <ele>473</ele>
        <time>2011-07-03T07:01:27Z</time>
      </trkpt>
      <trkpt lat="45.7416" lon="5.96766">
        <ele>473</ele>
        <time>2011-07-03T07:01:28Z</time>
      </trkpt>
      <trkpt lat="45.74159" lon="5.96763">
        <ele>473</ele>
        <time>2011-07-03T07:01:29Z</time>
      </trkpt>
      <trkpt lat="45.74157" lon="5.9676">
        <ele>473</ele>
        <time>2011-07-03T07:01:30Z</time>
      </trkpt>
      <trkpt lat="45.74156" lon="5.96757">
        <ele>473</ele>
        <time>2011-07-03T07:01:31Z</time>
      </trkpt>
      <trkpt lat="45.74155" lon="5.96753">
        <ele>473</ele>
        <time>2011-07-03T07:01:32Z</time>
      </trkpt>
      <trkpt lat="45.74153" lon="5.9675">
        <ele>473</ele>
        <time>2011-07-03T07:01:33Z</time>
      </trkpt>
      <trkpt lat="45.74152" lon="5.96746">
        <ele>473</ele>
        <time>2011-07-03T07:01:34Z</time>
      </trkpt>
      <trkpt lat="45.74151" lon="5.96742">
        <ele>473</ele>
        <time>2011-07-03T07:01:35Z</time>
      </trkpt>
      <trkpt lat="45.7415" lon="5.96738">
        <ele>473</ele>
        <time>2011-07-03T07:01:36Z</time>
      </trkpt>
      <trkpt lat="45.74149" lon="5.96735">
        <ele>473</ele>
        <time>2011-07-03T07:01:37Z</time>
      </trkpt>
      <trkpt lat="45.74147" lon="5.96731">
        <ele>473</ele>
        <time>2011-07-03T07:01:38Z</time>
      </trkpt>
      <trkpt lat="45.74146" lon="5.96728">
        <ele>473</ele>
        <time>2011-07-03T07:01:39Z</time>
      </trkpt>
      <trkpt lat="45.74145" lon="5.96724">
        <ele>473</ele>
        <time>2011-07-03T07:01:40Z</time>
      </trkpt>
      <trkpt lat="45.74144" lon="5.9672">
        <ele>473</ele>
        <time>2011-07-03T07:01:41Z</time>
      </trkpt>
      <trkpt lat="45.74142" lon="5.96716">
        <ele>473</ele>
        <time>2011-07-03T07:01:42Z</time>
      </trkpt>
      <trkpt lat="45.74141" lon="5.96712">
        <ele>473</ele>
        <time>2011-07-03T07:01:43Z</time>
      </trkpt>
      <trkpt lat="45.7414" lon="5.96708">
        <ele>473</ele>
        <time>2011-07-03T07:01:44Z</time>
      </trkpt>
      <trkpt lat="45.74139" lon="5.96704">
        <ele>473</ele>
        <time>2011-07-03T07:01:45Z</time>
      </trkpt>
      <trkpt lat="45.74138" lon="5.96699">
        <ele>473</ele>
        <time>2011-07-03T07:01:46Z</time>
      </trkpt>
      <trkpt lat="45.74137" lon="5.96696">
        <ele>473</ele>
        <time>2011-07-03T07:01:47Z</time>
      </trkpt>
      <trkpt lat="45.74137" lon="5.96694">
        <ele>473</ele>
        <time>2011-07-03T07:01:48Z</time>
      </trkpt>
      <trkpt lat="45.74135" lon="5.96692">
        <ele>473</ele>
        <time>2011-07-03T07:01:50Z</time>
      </trkpt>
      <trkpt lat="45.74134" lon="5.96689">
        <ele>473</ele>
        <time>2011-07-03T07:01:52Z</time>
      </trkpt>
      <trkpt lat="45.74133" lon="5.96687">
        <ele>473</ele>
        <time>2011-07-03T07:01:53Z</time>
      </trkpt>
      <trkpt lat="45.74132" lon="5.96686">
        <ele>473</ele>
        <time>2011-07-03T07:02:02Z</time>
      </trkpt>
      <trkpt lat="45.74131" lon="5.96684">
        <ele>470</ele>
        <time>2011-07-03T07:02:21Z</time>
      </trkpt>
      <trkpt lat="45.74131" lon="5.96683">
        <ele>466</ele>
        <time>2011-07-03T07:02:41Z</time>
      </trkpt>
      <trkpt lat="45.74131" lon="5.96684">
        <ele>465</ele>
        <time>2011-07-03T07:02:48Z</time>
      </trkpt>
      <trkpt lat="45.7413" lon="5.96685">
        <ele>465</ele>
        <time>2011-07-03T07:02:49Z</time>
      </trkpt>
      <trkpt lat="45.74128" lon="5.96686">
        <ele>464</ele>
        <time>2011-07-03T07:02:50Z</time>
      </trkpt>
      <trkpt lat="45.74127" lon="5.96686">
        <ele>463</ele>
        <time>2011-07-03T07:02:52Z</time>
      </trkpt>
      <trkpt lat="45.74125" lon="5.96686">
        <ele>463</ele>
        <time>2011-07-03T07:02:54Z</time>
      </trkpt>
      <trkpt lat="45.74124" lon="5.96687">
        <ele>463</ele>
        <time>2011-07-03T07:02:55Z</time>
      </trkpt>
      <trkpt lat="45.74123" lon="5.96687">
        <ele>463</ele>
        <time>2011-07-03T07:02:56Z</time>
      </trkpt>
      <trkpt lat="45.74122" lon="5.96688">
        <ele>463</ele>
        <time>2011-07-03T07:02:57Z</time>
      </trkpt>
      <trkpt lat="45.7412" lon="5.96688">
        <ele>463</ele>
        <time>2011-07-03T07:02:59Z</time>
      </trkpt>
      <trkpt lat="45.74118" lon="5.96689">
        <ele>462</ele>
        <time>2011-07-03T07:03:01Z</time>
      </trkpt>
      <trkpt lat="45.74116" lon="5.96689">
        <ele>461</ele>
        <time>2011-07-03T07:03:03Z</time>
      </trkpt>
      <trkpt lat="45.74114" lon="5.9669">
        <ele>460</ele>
        <time>2011-07-03T07:03:05Z</time>
      </trkpt>
      <trkpt lat="45.74112" lon="5.96691">
        <ele>460</ele>
        <time>2011-07-03T07:03:06Z</time>
      </trkpt>
      <trkpt lat="45.74111" lon="5.96691">
        <ele>459</ele>
        <time>2011-07-03T07:03:07Z</time>
      </trkpt>
      <trkpt lat="45.74108" lon="5.96692">
        <ele>459</ele>
        <time>2011-07-03T07:03:08Z</time>
      </trkpt>
      <trkpt lat="45.74105" lon="5.96694">
        <ele>459</ele>
        <time>2011-07-03T07:03:09Z</time>
      </trkpt>
      <trkpt lat="45.74103" lon="5.96696">
        <ele>458</ele>
        <time>2011-07-03T07:03:10Z</time>
      </trkpt>
      <trkpt lat="45.741" lon="5.96699">
        <ele>458</ele>
        <time>2011-07-03T07:03:11Z</time>
      </trkpt>
      <trkpt lat="45.74097" lon="5.96703">
        <ele>457</ele>
        <time>2011-07-03T07:03:12Z</time>
      </trkpt>
      <trkpt lat="45.74095" lon="5.96705">
        <ele>456</ele>
        <time>2011-07-03T07:03:13Z</time>
      </trkpt>
      <trkpt lat="45.74092" lon="5.96707">
        <ele>456</ele>
        <time>2011-07-03T07:03:14Z</time>
      </trkpt>
      <trkpt lat="45.74089" lon="5.96707">
        <ele>455</ele>
        <time>2011-07-03T07:03:15Z</time>
      </trkpt>
      <trkpt lat="45.74087" lon="5.96706">
        <ele>454</ele>
        <time>2011-07-03T07:03:16Z</time>
      </trkpt>
      <trkpt lat="45.74085" lon="5.96704">
        <ele>454</ele>
        <time>2011-07-03T07:03:17Z</time>
      </trkpt>
      <trkpt lat="45.74083" lon="5.96701">
        <ele>454</ele>
        <time>2011-07-03T07:03:18Z</time>
      </trkpt>
      <trkpt lat="45.74081" lon="5.96698">
        <ele>454</ele>
        <time>2011-07-03T07:03:19Z</time>
      </trkpt>
      <trkpt lat="45.74079" lon="5.96694">
        <ele>454</ele>
        <time>2011-07-03T07:03:20Z</time>
      </trkpt>
      <trkpt lat="45.74076" lon="5.96689">
        <ele>454</ele>
        <time>2011-07-03T07:03:21Z</time>
      </trkpt>
      <trkpt lat="45.74074" lon="5.96684">
        <ele>454</ele>
        <time>2011-07-03T07:03:22Z</time>
      </trkpt>
      <trkpt lat="45.74071" lon="5.96679">
        <ele>454</ele>
        <time>2011-07-03T07:03:23Z</time>
      </trkpt>
      <trkpt lat="45.74069" lon="5.96674">
        <ele>454</ele>
        <time>2011-07-03T07:03:24Z</time>
      </trkpt>
      <trkpt lat="45.74067" lon="5.9667">
        <ele>454</ele>
        <time>2011-07-03T07:03:25Z</time>
      </trkpt>
      <trkpt lat="45.74065" lon="5.96665">
        <ele>454</ele>
        <time>2011-07-03T07:03:26Z</time>
      </trkpt>
      <trkpt lat="45.74063" lon="5.9666">
        <ele>454</ele>
        <time>2011-07-03T07:03:27Z</time>
      </trkpt>
      <trkpt lat="45.74061" lon="5.96655">
        <ele>454</ele>
        <time>2011-07-03T07:03:28Z</time>
      </trkpt>
      <trkpt lat="45.74059" lon="5.96649">
        <ele>454</ele>
        <time>2011-07-03T07:03:29Z</time>
      </trkpt>
      <trkpt lat="45.74057" lon="5.96644">
        <ele>454</ele>
        <time>2011-07-03T07:03:30Z</time>
      </trkpt>
      <trkpt lat="45.74055" lon="5.96641">
        <ele>454</ele>
        <time>2011-07-03T07:03:31Z</time>
      </trkpt>
      <trkpt lat="45.74054" lon="5.96638">
        <ele>454</ele>
        <time>2011-07-03T07:03:32Z</time>
      </trkpt>
      <trkpt lat="45.74052" lon="5.96636">
        <ele>454</ele>
        <time>2011-07-03T07:03:33Z</time>
      </trkpt>
      <trkpt lat="45.74051" lon="5.96635">
        <ele>454</ele>
        <time>2011-07-03T07:03:34Z</time>
      </trkpt>
      <trkpt lat="45.7405" lon="5.96635">
        <ele>454</ele>
        <time>2011-07-03T07:03:35Z</time>
      </trkpt>
      <trkpt lat="45.74049" lon="5.96635">
        <ele>454</ele>
        <time>2011-07-03T07:03:36Z</time>
      </trkpt>
      <trkpt lat="45.74047" lon="5.96636">
        <ele>454</ele>
        <time>2011-07-03T07:03:37Z</time>
      </trkpt>
      <trkpt lat="45.74044" lon="5.96636">
        <ele>453</ele>
        <time>2011-07-03T07:03:38Z</time>
      </trkpt>
      <trkpt lat="45.74042" lon="5.96636">
        <ele>453</ele>
        <time>2011-07-03T07:03:39Z</time>
      </trkpt>
      <trkpt lat="45.7404" lon="5.96636">
        <ele>452</ele>
        <time>2011-07-03T07:03:40Z</time>
      </trkpt>
      <trkpt lat="45.74037" lon="5.96635">
        <ele>452</ele>
        <time>2011-07-03T07:03:41Z</time>
      </trkpt>
      <trkpt lat="45.74035" lon="5.96635">
        <ele>451</ele>
        <time>2011-07-03T07:03:42Z</time>
      </trkpt>
      <trkpt lat="45.74033" lon="5.96634">
        <ele>451</ele>
        <time>2011-07-03T07:03:43Z</time>
      </trkpt>
      <trkpt lat="45.74031" lon="5.96633">
        <ele>450</ele>
        <time>2011-07-03T07:03:44Z</time>
      </trkpt>
      <trkpt lat="45.74029" lon="5.96632">
        <ele>450</ele>
        <time>2011-07-03T07:03:45Z</time>
      </trkpt>
      <trkpt lat="45.74027" lon="5.96631">
        <ele>450</ele>
        <time>2011-07-03T07:03:47Z</time>
      </trkpt>
      <trkpt lat="45.74025" lon="5.9663">
        <ele>450</ele>
        <time>2011-07-03T07:03:47Z</time>
      </trkpt>
      <trkpt lat="45.74022" lon="5.9663">
        <ele>450</ele>
        <time>2011-07-03T07:03:48Z</time>
      </trkpt>
      <trkpt lat="45.74019" lon="5.9663">
        <ele>449</ele>
        <time>2011-07-03T07:03:49Z</time>
      </trkpt>
      <trkpt lat="45.74016" lon="5.9663">
        <ele>449</ele>
        <time>2011-07-03T07:03:50Z</time>
      </trkpt>
      <trkpt lat="45.74013" lon="5.9663">
        <ele>449</ele>
        <time>2011-07-03T07:03:51Z</time>
      </trkpt>
      <trkpt lat="45.74011" lon="5.96629">
        <ele>449</ele>
        <time>2011-07-03T07:03:52Z</time>
      </trkpt>
      <trkpt lat="45.74008" lon="5.96628">
        <ele>449</ele>
        <time>2011-07-03T07:03:53Z</time>
      </trkpt>
      <trkpt lat="45.74005" lon="5.96627">
        <ele>449</ele>
        <time>2011-07-03T07:03:54Z</time>
      </trkpt>
      <trkpt lat="45.74002" lon="5.96626">
        <ele>449</ele>
        <time>2011-07-03T07:03:55Z</time>
      </trkpt>
      <trkpt lat="45.73999" lon="5.96625">
        <ele>449</ele>
        <time>2011-07-03T07:03:56Z</time>
      </trkpt>
      <trkpt lat="45.73996" lon="5.96624">
        <ele>449</ele>
        <time>2011-07-03T07:03:57Z</time>
      </trkpt>
      <trkpt lat="45.73993" lon="5.96624">
        <ele>449</ele>
        <time>2011-07-03T07:03:58Z</time>
      </trkpt>
      <trkpt lat="45.7399" lon="5.96623">
        <ele>449</ele>
        <time>2011-07-03T07:03:59Z</time>
      </trkpt>
      <trkpt lat="45.73987" lon="5.96623">
        <ele>449</ele>
        <time>2011-07-03T07:04:00Z</time>
      </trkpt>
      <trkpt lat="45.73984" lon="5.96623">
        <ele>449</ele>
        <time>2011-07-03T07:04:01Z</time>
      </trkpt>
      <trkpt lat="45.73981" lon="5.96622">
        <ele>449</ele>
        <time>2011-07-03T07:04:02Z</time>
      </trkpt>
      <trkpt lat="45.73978" lon="5.96622">
        <ele>449</ele>
        <time>2011-07-03T07:04:03Z</time>
      </trkpt>
      <trkpt lat="45.73975" lon="5.96622">
        <ele>449</ele>
        <time>2011-07-03T07:04:04Z</time>
      </trkpt>
      <trkpt lat="45.73971" lon="5.96621">
        <ele>449</ele>
        <time>2011-07-03T07:04:05Z</time>
      </trkpt>
      <trkpt lat="45.73966" lon="5.96621">
        <ele>449</ele>
        <time>2011-07-03T07:04:06Z</time>
      </trkpt>
      <trkpt lat="45.73962" lon="5.9662">
        <ele>448</ele>
        <time>2011-07-03T07:04:07Z</time>
      </trkpt>
      <trkpt lat="45.73958" lon="5.96619">
        <ele>448</ele>
        <time>2011-07-03T07:04:08Z</time>
      </trkpt>
      <trkpt lat="45.73954" lon="5.96617">
        <ele>448</ele>
        <time>2011-07-03T07:04:09Z</time>
      </trkpt>
      <trkpt lat="45.7395" lon="5.96616">
        <ele>447</ele>
        <time>2011-07-03T07:04:10Z</time>
      </trkpt>
      <trkpt lat="45.73946" lon="5.96615">
        <ele>447</ele>
        <time>2011-07-03T07:04:11Z</time>
      </trkpt>
      <trkpt lat="45.73941" lon="5.96614">
        <ele>446</ele>
        <time>2011-07-03T07:04:12Z</time>
      </trkpt>
      <trkpt lat="45.73937" lon="5.96613">
        <ele>446</ele>
        <time>2011-07-03T07:04:13Z</time>
      </trkpt>
      <trkpt lat="45.73933" lon="5.96611">
        <ele>446</ele>
        <time>2011-07-03T07:04:14Z</time>
      </trkpt>
      <trkpt lat="45.73929" lon="5.96609">
        <ele>445</ele>
        <time>2011-07-03T07:04:15Z</time>
      </trkpt>
      <trkpt lat="45.73925" lon="5.96607">
        <ele>445</ele>
        <time>2011-07-03T07:04:16Z</time>
      </trkpt>
      <trkpt lat="45.73921" lon="5.96605">
        <ele>445</ele>
        <time>2011-07-03T07:04:17Z</time>
      </trkpt>
      <trkpt lat="45.73917" lon="5.96604">
        <ele>445</ele>
        <time>2011-07-03T07:04:18Z</time>
      </trkpt>
      <trkpt lat="45.73914" lon="5.96602">
        <ele>445</ele>
        <time>2011-07-03T07:04:19Z</time>
      </trkpt>
      <trkpt lat="45.7391" lon="5.96601">
        <ele>445</ele>
        <time>2011-07-03T07:04:20Z</time>
      </trkpt>
      <trkpt lat="45.73907" lon="5.96601">
        <ele>445</ele>
        <time>2011-07-03T07:04:21Z</time>
      </trkpt>
      <trkpt lat="45.73904" lon="5.966">
        <ele>445</ele>
        <time>2011-07-03T07:04:22Z</time>
      </trkpt>
      <trkpt lat="45.739" lon="5.96599">
        <ele>445</ele>
        <time>2011-07-03T07:04:23Z</time>
      </trkpt>
      <trkpt lat="45.73896" lon="5.96599">
        <ele>445</ele>
        <time>2011-07-03T07:04:24Z</time>
      </trkpt>
      <trkpt lat="45.73893" lon="5.96598">
        <ele>445</ele>
        <time>2011-07-03T07:04:25Z</time>
      </trkpt>
      <trkpt lat="45.73889" lon="5.96597">
        <ele>445</ele>
        <time>2011-07-03T07:04:26Z</time>
      </trkpt>
      <trkpt lat="45.73885" lon="5.96596">
        <ele>445</ele>
        <time>2011-07-03T07:04:27Z</time>
      </trkpt>
      <trkpt lat="45.73881" lon="5.96595">
        <ele>445</ele>
        <time>2011-07-03T07:04:28Z</time>
      </trkpt>
      <trkpt lat="45.73877" lon="5.96594">
        <ele>445</ele>
        <time>2011-07-03T07:04:29Z</time>
      </trkpt>
      <trkpt lat="45.73873" lon="5.96593">
        <ele>445</ele>
        <time>2011-07-03T07:04:30Z</time>
      </trkpt>
      <trkpt lat="45.73868" lon="5.96592">
        <ele>445</ele>
        <time>2011-07-03T07:04:31Z</time>
      </trkpt>
      <trkpt lat="45.73863" lon="5.9659">
        <ele>445</ele>
        <time>2011-07-03T07:04:32Z</time>
      </trkpt>
      <trkpt lat="45.73859" lon="5.96589">
        <ele>445</ele>
        <time>2011-07-03T07:04:33Z</time>
      </trkpt>
      <trkpt lat="45.73854" lon="5.96588">
        <ele>445</ele>
        <time>2011-07-03T07:04:34Z</time>
      </trkpt>
      <trkpt lat="45.73849" lon="5.96586">
        <ele>445</ele>
        <time>2011-07-03T07:04:35Z</time>
      </trkpt>
      <trkpt lat="45.73844" lon="5.96585">
        <ele>445</ele>
        <time>2011-07-03T07:04:36Z</time>
      </trkpt>
      <trkpt lat="45.73839" lon="5.96583">
        <ele>445</ele>
        <time>2011-07-03T07:04:37Z</time>
      </trkpt>
      <trkpt lat="45.73835" lon="5.96582">
        <ele>445</ele>
        <time>2011-07-03T07:04:38Z</time>
      </trkpt>
      <trkpt lat="45.7383" lon="5.96581">
        <ele>445</ele>
        <time>2011-07-03T07:04:39Z</time>
      </trkpt>
      <trkpt lat="45.73827" lon="5.9658">
        <ele>445</ele>
        <time>2011-07-03T07:04:40Z</time>
      </trkpt>
      <trkpt lat="45.73823" lon="5.96579">
        <ele>445</ele>
        <time>2011-07-03T07:04:41Z</time>
      </trkpt>
      <trkpt lat="45.73819" lon="5.96578">
        <ele>445</ele>
        <time>2011-07-03T07:04:42Z</time>
      </trkpt>
      <trkpt lat="45.73816" lon="5.96578">
        <ele>445</ele>
        <time>2011-07-03T07:04:43Z</time>
      </trkpt>
      <trkpt lat="45.73813" lon="5.96577">
        <ele>445</ele>
        <time>2011-07-03T07:04:44Z</time>
      </trkpt>
      <trkpt lat="45.7381" lon="5.96576">
        <ele>445</ele>
        <time>2011-07-03T07:04:45Z</time>
      </trkpt>
      <trkpt lat="45.73808" lon="5.96575">
        <ele>445</ele>
        <time>2011-07-03T07:04:46Z</time>
      </trkpt>
      <trkpt lat="45.73805" lon="5.96574">
        <ele>445</ele>
        <time>2011-07-03T07:04:47Z</time>
      </trkpt>
      <trkpt lat="45.73803" lon="5.96574">
        <ele>445</ele>
        <time>2011-07-03T07:04:48Z</time>
      </trkpt>
      <trkpt lat="45.73801" lon="5.96573">
        <ele>445</ele>
        <time>2011-07-03T07:04:49Z</time>
      </trkpt>
      <trkpt lat="45.73799" lon="5.96572">
        <ele>445</ele>
        <time>2011-07-03T07:04:50Z</time>
      </trkpt>
      <trkpt lat="45.73797" lon="5.96572">
        <ele>445</ele>
        <time>2011-07-03T07:04:51Z</time>
      </trkpt>
      <trkpt lat="45.73796" lon="5.96571">
        <ele>445</ele>
        <time>2011-07-03T07:04:52Z</time>
      </trkpt>
      <trkpt lat="45.73794" lon="5.9657">
        <ele>445</ele>
        <time>2011-07-03T07:04:53Z</time>
      </trkpt>
      <trkpt lat="45.73792" lon="5.96568">
        <ele>445</ele>
        <time>2011-07-03T07:04:54Z</time>
      </trkpt>
      <trkpt lat="45.7379" lon="5.96567">
        <ele>445</ele>
        <time>2011-07-03T07:04:55Z</time>
      </trkpt>
      <trkpt lat="45.73788" lon="5.96566">
        <ele>445</ele>
        <time>2011-07-03T07:04:56Z</time>
      </trkpt>
      <trkpt lat="45.73785" lon="5.96564">
        <ele>445</ele>
        <time>2011-07-03T07:04:57Z</time>
      </trkpt>
      <trkpt lat="45.73783" lon="5.96562">
        <ele>445</ele>
        <time>2011-07-03T07:04:58Z</time>
      </trkpt>
      <trkpt lat="45.73781" lon="5.96561">
        <ele>445</ele>
        <time>2011-07-03T07:04:59Z</time>
      </trkpt>
      <trkpt lat="45.73778" lon="5.96559">
        <ele>445</ele>
        <time>2011-07-03T07:05:00Z</time>
      </trkpt>
      <trkpt lat="45.73776" lon="5.96558">
        <ele>445</ele>
        <time>2011-07-03T07:05:01Z</time>
      </trkpt>
      <trkpt lat="45.73774" lon="5.96556">
        <ele>445</ele>
        <time>2011-07-03T07:05:02Z</time>
      </trkpt>
      <trkpt lat="45.73771" lon="5.96555">
        <ele>445</ele>
        <time>2011-07-03T07:05:03Z</time>
      </trkpt>
      <trkpt lat="45.73769" lon="5.96554">
        <ele>445</ele>
        <time>2011-07-03T07:05:04Z</time>
      </trkpt>
      <trkpt lat="45.73766" lon="5.96552">
        <ele>445</ele>
        <time>2011-07-03T07:05:05Z</time>
      </trkpt>
      <trkpt lat="45.73764" lon="5.96551">
        <ele>445</ele>
        <time>2011-07-03T07:05:06Z</time>
      </trkpt>
      <trkpt lat="45.73761" lon="5.9655">
        <ele>445</ele>
        <time>2011-07-03T07:05:07Z</time>
      </trkpt>
      <trkpt lat="45.73759" lon="5.96549">
        <ele>445</ele>
        <time>2011-07-03T07:05:08Z</time>
      </trkpt>
      <trkpt lat="45.73756" lon="5.96548">
        <ele>445</ele>
        <time>2011-07-03T07:05:09Z</time>
      </trkpt>
      <trkpt lat="45.73754" lon="5.96547">
        <ele>445</ele>
        <time>2011-07-03T07:05:10Z</time>
      </trkpt>
      <trkpt lat="45.73751" lon="5.96545">
        <ele>445</ele>
        <time>2011-07-03T07:05:11Z</time>
      </trkpt>
      <trkpt lat="45.73748" lon="5.96544">
        <ele>445</ele>
        <time>2011-07-03T07:05:12Z</time>
      </trkpt>
      <trkpt lat="45.73746" lon="5.96542">
        <ele>445</ele>
        <time>2011-07-03T07:05:13Z</time>
      </trkpt>
      <trkpt lat="45.73743" lon="5.9654">
        <ele>445</ele>
        <time>2011-07-03T07:05:14Z</time>
      </trkpt>
      <trkpt lat="45.73741" lon="5.96538">
        <ele>445</ele>
        <time>2011-07-03T07:05:15Z</time>
      </trkpt>
      <trkpt lat="45.73738" lon="5.96536">
        <ele>445</ele>
        <time>2011-07-03T07:05:16Z</time>
      </trkpt>
      <trkpt lat="45.73736" lon="5.96534">
        <ele>445</ele>
        <time>2011-07-03T07:05:17Z</time>
      </trkpt>
      <trkpt lat="45.73733" lon="5.96532">
        <ele>445</ele>
        <time>2011-07-03T07:05:18Z</time>
      </trkpt>
      <trkpt lat="45.73731" lon="5.9653">
        <ele>445</ele>
        <time>2011-07-03T07:05:19Z</time>
      </trkpt>
      <trkpt lat="45.73729" lon="5.96528">
        <ele>445</ele>
        <time>2011-07-03T07:05:20Z</time>
      </trkpt>
      <trkpt lat="45.73728" lon="5.96525">
        <ele>445</ele>
        <time>2011-07-03T07:05:21Z</time>
      </trkpt>
      <trkpt lat="45.73727" lon="5.96524">
        <ele>445</ele>
        <time>2011-07-03T07:05:22Z</time>
      </trkpt>
      <trkpt lat="45.73726" lon="5.96521">
        <ele>445</ele>
        <time>2011-07-03T07:05:23Z</time>
      </trkpt>
      <trkpt lat="45.73725" lon="5.96519">
        <ele>445</ele>
        <time>2011-07-03T07:05:24Z</time>
      </trkpt>
      <trkpt lat="45.73724" lon="5.96517">
        <ele>445</ele>
        <time>2011-07-03T07:05:25Z</time>
      </trkpt>
      <trkpt lat="45.73723" lon="5.96515">
        <ele>446</ele>
        <time>2011-07-03T07:05:26Z</time>
      </trkpt>
      <trkpt lat="45.73723" lon="5.96513">
        <ele>446</ele>
        <time>2011-07-03T07:05:27Z</time>
      </trkpt>
      <trkpt lat="45.73723" lon="5.96511">
        <ele>447</ele>
        <time>2011-07-03T07:05:28Z</time>
      </trkpt>
      <trkpt lat="45.73723" lon="5.96509">
        <ele>447</ele>
        <time>2011-07-03T07:05:29Z</time>
      </trkpt>
      <trkpt lat="45.73722" lon="5.96506">
        <ele>448</ele>
        <time>2011-07-03T07:05:31Z</time>
      </trkpt>
      <trkpt lat="45.73722" lon="5.96504">
        <ele>448</ele>
        <time>2011-07-03T07:05:32Z</time>
      </trkpt>
      <trkpt lat="45.73723" lon="5.96502">
        <ele>448</ele>
        <time>2011-07-03T07:05:33Z</time>
      </trkpt>
      <trkpt lat="45.73723" lon="5.965">
        <ele>449</ele>
        <time>2011-07-03T07:05:35Z</time>
      </trkpt>
      <trkpt lat="45.73723" lon="5.96498">
        <ele>449</ele>
        <time>2011-07-03T07:05:36Z</time>
      </trkpt>
      <trkpt lat="45.73723" lon="5.96496">
        <ele>449</ele>
        <time>2011-07-03T07:05:37Z</time>
      </trkpt>
      <trkpt lat="45.73724" lon="5.96494">
        <ele>449</ele>
        <time>2011-07-03T07:05:38Z</time>
      </trkpt>
      <trkpt lat="45.73724" lon="5.96491">
        <ele>450</ele>
        <time>2011-07-03T07:05:39Z</time>
      </trkpt>
      <trkpt lat="45.73724" lon="5.96489">
        <ele>450</ele>
        <time>2011-07-03T07:05:40Z</time>
      </trkpt>
      <trkpt lat="45.73724" lon="5.96488">
        <ele>450</ele>
        <time>2011-07-03T07:05:41Z</time>
      </trkpt>
      <trkpt lat="45.73724" lon="5.96486">
        <ele>450</ele>
        <time>2011-07-03T07:05:42Z</time>
      </trkpt>
      <trkpt lat="45.73724" lon="5.96484">
        <ele>450</ele>
        <time>2011-07-03T07:05:43Z</time>
      </trkpt>
      <trkpt lat="45.73723" lon="5.96483">
        <ele>450</ele>
        <time>2011-07-03T07:05:44Z</time>
      </trkpt>
      <trkpt lat="45.73723" lon="5.96481">
        <ele>451</ele>
        <time>2011-07-03T07:05:45Z</time>
      </trkpt>
      <trkpt lat="45.73722" lon="5.96479">
        <ele>451</ele>
        <time>2011-07-03T07:05:46Z</time>
      </trkpt>
      <trkpt lat="45.73721" lon="5.96477">
        <ele>451</ele>
        <time>2011-07-03T07:05:47Z</time>
      </trkpt>
      <trkpt lat="45.73721" lon="5.96475">
        <ele>451</ele>
        <time>2011-07-03T07:05:48Z</time>
      </trkpt>
      <trkpt lat="45.7372" lon="5.96473">
        <ele>451</ele>
        <time>2011-07-03T07:05:49Z</time>
      </trkpt>
      <trkpt lat="45.73719" lon="5.96471">
        <ele>451</ele>
        <time>2011-07-03T07:05:50Z</time>
      </trkpt>
      <trkpt lat="45.73719" lon="5.96469">
        <ele>451</ele>
        <time>2011-07-03T07:05:51Z</time>
      </trkpt>
      <trkpt lat="45.73718" lon="5.96467">
        <ele>451</ele>
        <time>2011-07-03T07:05:52Z</time>
      </trkpt>
      <trkpt lat="45.73717" lon="5.96465">
        <ele>451</ele>
        <time>2011-07-03T07:05:53Z</time>
      </trkpt>
      <trkpt lat="45.73717" lon="5.96463">
        <ele>451</ele>
        <time>2011-07-03T07:05:54Z</time>
      </trkpt>
      <trkpt lat="45.73716" lon="5.96461">
        <ele>452</ele>
        <time>2011-07-03T07:05:55Z</time>
      </trkpt>
      <trkpt lat="45.73715" lon="5.96459">
        <ele>452</ele>
        <time>2011-07-03T07:05:56Z</time>
      </trkpt>
      <trkpt lat="45.73714" lon="5.96456">
        <ele>452</ele>
        <time>2011-07-03T07:05:57Z</time>
      </trkpt>
      <trkpt lat="45.73714" lon="5.96454">
        <ele>453</ele>
        <time>2011-07-03T07:05:58Z</time>
      </trkpt>
      <trkpt lat="45.73714" lon="5.96451">
        <ele>453</ele>
        <time>2011-07-03T07:05:59Z</time>
      </trkpt>
      <trkpt lat="45.73714" lon="5.96448">
        <ele>454</ele>
        <time>2011-07-03T07:06:00Z</time>
      </trkpt>
      <trkpt lat="45.73714" lon="5.96445">
        <ele>454</ele>
        <time>2011-07-03T07:06:01Z</time>
      </trkpt>
      <trkpt lat="45.73714" lon="5.96442">
        <ele>454</ele>
        <time>2011-07-03T07:06:02Z</time>
      </trkpt>
      <trkpt lat="45.73714" lon="5.96438">
        <ele>455</ele>
        <time>2011-07-03T07:06:03Z</time>
      </trkpt>
      <trkpt lat="45.73714" lon="5.96435">
        <ele>455</ele>
        <time>2011-07-03T07:06:04Z</time>
      </trkpt>
      <trkpt lat="45.73715" lon="5.96432">
        <ele>455</ele>
        <time>2011-07-03T07:06:05Z</time>
      </trkpt>
      <trkpt lat="45.73716" lon="5.9643">
        <ele>455</ele>
        <time>2011-07-03T07:06:06Z</time>
      </trkpt>
      <trkpt lat="45.73717" lon="5.96427">
        <ele>455</ele>
        <time>2011-07-03T07:06:07Z</time>
      </trkpt>
      <trkpt lat="45.73719" lon="5.96424">
        <ele>455</ele>
        <time>2011-07-03T07:06:08Z</time>
      </trkpt>
      <trkpt lat="45.73719" lon="5.96422">
        <ele>455</ele>
        <time>2011-07-03T07:06:09Z</time>
      </trkpt>
      <trkpt lat="45.7372" lon="5.96419">
        <ele>455</ele>
        <time>2011-07-03T07:06:10Z</time>
      </trkpt>
      <trkpt lat="45.73721" lon="5.96417">
        <ele>456</ele>
        <time>2011-07-03T07:06:11Z</time>
      </trkpt>
      <trkpt lat="45.73722" lon="5.96415">
        <ele>456</ele>
        <time>2011-07-03T07:06:12Z</time>
      </trkpt>
      <trkpt lat="45.73723" lon="5.96412">
        <ele>456</ele>
        <time>2011-07-03T07:06:13Z</time>
      </trkpt>
      <trkpt lat="45.73724" lon="5.9641">
        <ele>456</ele>
        <time>2011-07-03T07:06:14Z</time>
      </trkpt>
      <trkpt lat="45.73725" lon="5.96407">
        <ele>456</ele>
        <time>2011-07-03T07:06:15Z</time>
      </trkpt>
      <trkpt lat="45.73726" lon="5.96405">
        <ele>456</ele>
        <time>2011-07-03T07:06:16Z</time>
      </trkpt>
      <trkpt lat="45.73727" lon="5.96403">
        <ele>456</ele>
        <time>2011-07-03T07:06:17Z</time>
      </trkpt>
      <trkpt lat="45.73727" lon="5.964">
        <ele>457</ele>
        <time>2011-07-03T07:06:18Z</time>
      </trkpt>
      <trkpt lat="45.73728" lon="5.96397">
        <ele>457</ele>
        <time>2011-07-03T07:06:19Z</time>
      </trkpt>
      <trkpt lat="45.73729" lon="5.96395">
        <ele>457</ele>
        <time>2011-07-03T07:06:20Z</time>
      </trkpt>
      <trkpt lat="45.73729" lon="5.96392">
        <ele>457</ele>
        <time>2011-07-03T07:06:21Z</time>
      </trkpt>
      <trkpt lat="45.7373" lon="5.9639">
        <ele>457</ele>
        <time>2011-07-03T07:06:22Z</time>
      </trkpt>
      <trkpt lat="45.73731" lon="5.96388">
        <ele>457</ele>
        <time>2011-07-03T07:06:23Z</time>
      </trkpt>
      <trkpt lat="45.73732" lon="5.96386">
        <ele>457</ele>
        <time>2011-07-03T07:06:24Z</time>
      </trkpt>
      <trkpt lat="45.73733" lon="5.96384">
        <ele>457</ele>
        <time>2011-07-03T07:06:25Z</time>
      </trkpt>
      <trkpt lat="45.73734" lon="5.96383">
        <ele>457</ele>
        <time>2011-07-03T07:06:26Z</time>
      </trkpt>
      <trkpt lat="45.73735" lon="5.96382">
        <ele>457</ele>
        <time>2011-07-03T07:06:27Z</time>
      </trkpt>
      <trkpt lat="45.73736" lon="5.9638">
        <ele>457</ele>
        <time>2011-07-03T07:06:28Z</time>
      </trkpt>
      <trkpt lat="45.73737" lon="5.96378">
        <ele>457</ele>
        <time>2011-07-03T07:06:29Z</time>
      </trkpt>
      <trkpt lat="45.73738" lon="5.96377">
        <ele>457</ele>
        <time>2011-07-03T07:06:30Z</time>
      </trkpt>
      <trkpt lat="45.7374" lon="5.96376">
        <ele>458</ele>
        <time>2011-07-03T07:06:31Z</time>
      </trkpt>
      <trkpt lat="45.73741" lon="5.96374">
        <ele>458</ele>
        <time>2011-07-03T07:06:32Z</time>
      </trkpt>
      <trkpt lat="45.73742" lon="5.96373">
        <ele>458</ele>
        <time>2011-07-03T07:06:33Z</time>
      </trkpt>
      <trkpt lat="45.73744" lon="5.96371">
        <ele>458</ele>
        <time>2011-07-03T07:06:34Z</time>
      </trkpt>
      <trkpt lat="45.73745" lon="5.9637">
        <ele>459</ele>
        <time>2011-07-03T07:06:35Z</time>
      </trkpt>
      <trkpt lat="45.73746" lon="5.96368">
        <ele>459</ele>
        <time>2011-07-03T07:06:36Z</time>
      </trkpt>
      <trkpt lat="45.73748" lon="5.96366">
        <ele>459</ele>
        <time>2011-07-03T07:06:37Z</time>
      </trkpt>
      <trkpt lat="45.73749" lon="5.96365">
        <ele>459</ele>
        <time>2011-07-03T07:06:38Z</time>
      </trkpt>
      <trkpt lat="45.73751" lon="5.96363">
        <ele>460</ele>
        <time>2011-07-03T07:06:39Z</time>
      </trkpt>
      <trkpt lat="45.73752" lon="5.96361">
        <ele>460</ele>
        <time>2011-07-03T07:06:40Z</time>
      </trkpt>
      <trkpt lat="45.73753" lon="5.9636">
        <ele>460</ele>
        <time>2011-07-03T07:06:41Z</time>
      </trkpt>
      <trkpt lat="45.73755" lon="5.96358">
        <ele>460</ele>
        <time>2011-07-03T07:06:42Z</time>
      </trkpt>
      <trkpt lat="45.73756" lon="5.96356">
        <ele>460</ele>
        <time>2011-07-03T07:06:43Z</time>
      </trkpt>
      <trkpt lat="45.73757" lon="5.96354">
        <ele>460</ele>
        <time>2011-07-03T07:06:44Z</time>
      </trkpt>
      <trkpt lat="45.73758" lon="5.96352">
        <ele>460</ele>
        <time>2011-07-03T07:06:45Z</time>
      </trkpt>
      <trkpt lat="45.73759" lon="5.9635">
        <ele>460</ele>
        <time>2011-07-03T07:06:46Z</time>
      </trkpt>
      <trkpt lat="45.7376" lon="5.96349">
        <ele>461</ele>
        <time>2011-07-03T07:06:47Z</time>
      </trkpt>
      <trkpt lat="45.73762" lon="5.96347">
        <ele>461</ele>
        <time>2011-07-03T07:06:49Z</time>
      </trkpt>
      <trkpt lat="45.73764" lon="5.96346">
        <ele>461</ele>
        <time>2011-07-03T07:06:50Z</time>
      </trkpt>
      <trkpt lat="45.73765" lon="5.96345">
        <ele>462</ele>
        <time>2011-07-03T07:06:51Z</time>
      </trkpt>
      <trkpt lat="45.73766" lon="5.96343">
        <ele>462</ele>
        <time>2011-07-03T07:06:52Z</time>
      </trkpt>
      <trkpt lat="45.73766" lon="5.9634">
        <ele>462</ele>
        <time>2011-07-03T07:06:54Z</time>
      </trkpt>
      <trkpt lat="45.73767" lon="5.96339">
        <ele>462</ele>
        <time>2011-07-03T07:06:55Z</time>
      </trkpt>
      <trkpt lat="45.73768" lon="5.96337">
        <ele>462</ele>
        <time>2011-07-03T07:06:56Z</time>
      </trkpt>
      <trkpt lat="45.73769" lon="5.96336">
        <ele>462</ele>
        <time>2011-07-03T07:06:57Z</time>
      </trkpt>
      <trkpt lat="45.73771" lon="5.96333">
        <ele>463</ele>
        <time>2011-07-03T07:06:59Z</time>
      </trkpt>
      <trkpt lat="45.73772" lon="5.96332">
        <ele>463</ele>
        <time>2011-07-03T07:07:00Z</time>
      </trkpt>
      <trkpt lat="45.73773" lon="5.9633">
        <ele>463</ele>
        <time>2011-07-03T07:07:01Z</time>
      </trkpt>
      <trkpt lat="45.73774" lon="5.96328">
        <ele>463</ele>
        <time>2011-07-03T07:07:02Z</time>
      </trkpt>
      <trkpt lat="45.73774" lon="5.96326">
        <ele>463</ele>
        <time>2011-07-03T07:07:03Z</time>
      </trkpt>
      <trkpt lat="45.73775" lon="5.96324">
        <ele>463</ele>
        <time>2011-07-03T07:07:04Z</time>
      </trkpt>
      <trkpt lat="45.73777" lon="5.96322">
        <ele>463</ele>
        <time>2011-07-03T07:07:05Z</time>
      </trkpt>
      <trkpt lat="45.73777" lon="5.9632">
        <ele>463</ele>
        <time>2011-07-03T07:07:06Z</time>
      </trkpt>
      <trkpt lat="45.73778" lon="5.96318">
        <ele>463</ele>
        <time>2011-07-03T07:07:07Z</time>
      </trkpt>
      <trkpt lat="45.73779" lon="5.96316">
        <ele>464</ele>
        <time>2011-07-03T07:07:08Z</time>
      </trkpt>
      <trkpt lat="45.7378" lon="5.96313">
        <ele>464</ele>
        <time>2011-07-03T07:07:09Z</time>
      </trkpt>
      <trkpt lat="45.7378" lon="5.96311">
        <ele>464</ele>
        <time>2011-07-03T07:07:10Z</time>
      </trkpt>
      <trkpt lat="45.73781" lon="5.96309">
        <ele>464</ele>
        <time>2011-07-03T07:07:11Z</time>
      </trkpt>
      <trkpt lat="45.73781" lon="5.96306">
        <ele>465</ele>
        <time>2011-07-03T07:07:12Z</time>
      </trkpt>
      <trkpt lat="45.73782" lon="5.96304">
        <ele>465</ele>
        <time>2011-07-03T07:07:13Z</time>
      </trkpt>
      <trkpt lat="45.73782" lon="5.96302">
        <ele>465</ele>
        <time>2011-07-03T07:07:14Z</time>
      </trkpt>
      <trkpt lat="45.73783" lon="5.963">
        <ele>466</ele>
        <time>2011-07-03T07:07:15Z</time>
      </trkpt>
      <trkpt lat="45.73783" lon="5.96297">
        <ele>466</ele>
        <time>2011-07-03T07:07:16Z</time>
      </trkpt>
      <trkpt lat="45.73783" lon="5.96295">
        <ele>467</ele>
        <time>2011-07-03T07:07:17Z</time>
      </trkpt>
      <trkpt lat="45.73784" lon="5.96293">
        <ele>467</ele>
        <time>2011-07-03T07:07:18Z</time>
      </trkpt>
      <trkpt lat="45.73784" lon="5.96291">
        <ele>468</ele>
        <time>2011-07-03T07:07:19Z</time>
      </trkpt>
      <trkpt lat="45.73784" lon="5.96289">
        <ele>468</ele>
        <time>2011-07-03T07:07:20Z</time>
      </trkpt>
      <trkpt lat="45.73784" lon="5.96287">
        <ele>468</ele>
        <time>2011-07-03T07:07:21Z</time>
      </trkpt>
      <trkpt lat="45.73784" lon="5.96285">
        <ele>469</ele>
        <time>2011-07-03T07:07:22Z</time>
      </trkpt>
      <trkpt lat="45.73784" lon="5.96283">
        <ele>469</ele>
        <time>2011-07-03T07:07:23Z</time>
      </trkpt>
      <trkpt lat="45.73785" lon="5.96281">
        <ele>469</ele>
        <time>2011-07-03T07:07:24Z</time>
      </trkpt>
      <trkpt lat="45.73785" lon="5.96279">
        <ele>470</ele>
        <time>2011-07-03T07:07:25Z</time>
      </trkpt>
      <trkpt lat="45.73784" lon="5.96277">
        <ele>470</ele>
        <time>2011-07-03T07:07:26Z</time>
      </trkpt>
      <trkpt lat="45.73784" lon="5.96275">
        <ele>471</ele>
        <time>2011-07-03T07:07:27Z</time>
      </trkpt>
      <trkpt lat="45.73784" lon="5.96272">
        <ele>471</ele>
        <time>2011-07-03T07:07:28Z</time>
      </trkpt>
      <trkpt lat="45.73784" lon="5.96269">
        <ele>471</ele>
        <time>2011-07-03T07:07:29Z</time>
      </trkpt>
      <trkpt lat="45.73784" lon="5.96266">
        <ele>471</ele>
        <time>2011-07-03T07:07:30Z</time>
      </trkpt>
      <trkpt lat="45.73785" lon="5.96262">
        <ele>471</ele>
        <time>2011-07-03T07:07:31Z</time>
      </trkpt>
      <trkpt lat="45.73786" lon="5.96259">
        <ele>471</ele>
        <time>2011-07-03T07:07:32Z</time>
      </trkpt>
      <trkpt lat="45.73787" lon="5.96256">
        <ele>471</ele>
        <time>2011-07-03T07:07:33Z</time>
      </trkpt>
      <trkpt lat="45.73788" lon="5.96253">
        <ele>471</ele>
        <time>2011-07-03T07:07:34Z</time>
      </trkpt>
      <trkpt lat="45.7379" lon="5.9625">
        <ele>471</ele>
        <time>2011-07-03T07:07:35Z</time>
      </trkpt>
      <trkpt lat="45.73791" lon="5.96248">
        <ele>471</ele>
        <time>2011-07-03T07:07:36Z</time>
      </trkpt>
      <trkpt lat="45.73792" lon="5.96246">
        <ele>471</ele>
        <time>2011-07-03T07:07:37Z</time>
      </trkpt>
      <trkpt lat="45.73793" lon="5.96243">
        <ele>471</ele>
        <time>2011-07-03T07:07:38Z</time>
      </trkpt>
      <trkpt lat="45.73795" lon="5.96241">
        <ele>471</ele>
        <time>2011-07-03T07:07:39Z</time>
      </trkpt>
      <trkpt lat="45.73796" lon="5.96238">
        <ele>471</ele>
        <time>2011-07-03T07:07:40Z</time>
      </trkpt>
      <trkpt lat="45.73798" lon="5.96236">
        <ele>471</ele>
        <time>2011-07-03T07:07:41Z</time>
      </trkpt>
      <trkpt lat="45.73799" lon="5.96234">
        <ele>471</ele>
        <time>2011-07-03T07:07:42Z</time>
      </trkpt>
      <trkpt lat="45.738" lon="5.96231">
        <ele>471</ele>
        <time>2011-07-03T07:07:43Z</time>
      </trkpt>
      <trkpt lat="45.73801" lon="5.9623">
        <ele>471</ele>
        <time>2011-07-03T07:07:44Z</time>
      </trkpt>
      <trkpt lat="45.73803" lon="5.96228">
        <ele>471</ele>
        <time>2011-07-03T07:07:45Z</time>
      </trkpt>
      <trkpt lat="45.73805" lon="5.96225">
        <ele>471</ele>
        <time>2011-07-03T07:07:46Z</time>
      </trkpt>
      <trkpt lat="45.73806" lon="5.96223">
        <ele>471</ele>
        <time>2011-07-03T07:07:47Z</time>
      </trkpt>
      <trkpt lat="45.73808" lon="5.96221">
        <ele>471</ele>
        <time>2011-07-03T07:07:48Z</time>
      </trkpt>
      <trkpt lat="45.73809" lon="5.96219">
        <ele>471</ele>
        <time>2011-07-03T07:07:49Z</time>
      </trkpt>
      <trkpt lat="45.73811" lon="5.96217">
        <ele>471</ele>
        <time>2011-07-03T07:07:50Z</time>
      </trkpt>
      <trkpt lat="45.73813" lon="5.96215">
        <ele>471</ele>
        <time>2011-07-03T07:07:51Z</time>
      </trkpt>
      <trkpt lat="45.73814" lon="5.96213">
        <ele>471</ele>
        <time>2011-07-03T07:07:52Z</time>
      </trkpt>
      <trkpt lat="45.73815" lon="5.9621">
        <ele>471</ele>
        <time>2011-07-03T07:07:53Z</time>
      </trkpt>
      <trkpt lat="45.73816" lon="5.96208">
        <ele>471</ele>
        <time>2011-07-03T07:07:54Z</time>
      </trkpt>
      <trkpt lat="45.73817" lon="5.96206">
        <ele>471</ele>
        <time>2011-07-03T07:07:55Z</time>
      </trkpt>
      <trkpt lat="45.73819" lon="5.96204">
        <ele>471</ele>
        <time>2011-07-03T07:07:56Z</time>
      </trkpt>
      <trkpt lat="45.7382" lon="5.96202">
        <ele>471</ele>
        <time>2011-07-03T07:07:57Z</time>
      </trkpt>
      <trkpt lat="45.73822" lon="5.962">
        <ele>471</ele>
        <time>2011-07-03T07:07:58Z</time>
      </trkpt>
      <trkpt lat="45.73823" lon="5.96198">
        <ele>471</ele>
        <time>2011-07-03T07:07:59Z</time>
      </trkpt>
      <trkpt lat="45.73825" lon="5.96196">
        <ele>471</ele>
        <time>2011-07-03T07:08:00Z</time>
      </trkpt>
      <trkpt lat="45.73827" lon="5.96195">
        <ele>472</ele>
        <time>2011-07-03T07:08:01Z</time>
      </trkpt>
      <trkpt lat="45.73828" lon="5.96193">
        <ele>472</ele>
        <time>2011-07-03T07:08:02Z</time>
      </trkpt>
      <trkpt lat="45.73829" lon="5.96191">
        <ele>472</ele>
        <time>2011-07-03T07:08:03Z</time>
      </trkpt>
      <trkpt lat="45.7383" lon="5.96188">
        <ele>473</ele>
        <time>2011-07-03T07:08:04Z</time>
      </trkpt>
      <trkpt lat="45.73831" lon="5.96186">
        <ele>473</ele>
        <time>2011-07-03T07:08:05Z</time>
      </trkpt>
      <trkpt lat="45.73832" lon="5.96184">
        <ele>473</ele>
        <time>2011-07-03T07:08:06Z</time>
      </trkpt>
      <trkpt lat="45.73833" lon="5.96182">
        <ele>473</ele>
        <time>2011-07-03T07:08:07Z</time>
      </trkpt>
      <trkpt lat="45.73835" lon="5.9618">
        <ele>473</ele>
        <time>2011-07-03T07:08:08Z</time>
      </trkpt>
      <trkpt lat="45.73835" lon="5.96178">
        <ele>473</ele>
        <time>2011-07-03T07:08:09Z</time>
      </trkpt>
      <trkpt lat="45.73836" lon="5.96177">
        <ele>473</ele>
        <time>2011-07-03T07:08:10Z</time>
      </trkpt>
      <trkpt lat="45.73836" lon="5.96175">
        <ele>473</ele>
        <time>2011-07-03T07:08:11Z</time>
      </trkpt>
      <trkpt lat="45.73834" lon="5.96175">
        <ele>473</ele>
        <time>2011-07-03T07:08:16Z</time>
      </trkpt>
      <trkpt lat="45.73833" lon="5.96176">
        <ele>473</ele>
        <time>2011-07-03T07:08:17Z</time>
      </trkpt>
      <trkpt lat="45.73832" lon="5.96178">
        <ele>473</ele>
        <time>2011-07-03T07:08:20Z</time>
      </trkpt>
      <trkpt lat="45.73834" lon="5.96177">
        <ele>473</ele>
        <time>2011-07-03T07:08:23Z</time>
      </trkpt>
      <trkpt lat="45.73835" lon="5.96174">
        <ele>470</ele>
        <time>2011-07-03T07:08:29Z</time>
      </trkpt>
      <trkpt lat="45.73835" lon="5.96172">
        <ele>470</ele>
        <time>2011-07-03T07:08:30Z</time>
      </trkpt>
      <trkpt lat="45.73837" lon="5.9617">
        <ele>470</ele>
        <time>2011-07-03T07:08:31Z</time>
      </trkpt>
      <trkpt lat="45.73838" lon="5.96168">
        <ele>470</ele>
        <time>2011-07-03T07:08:32Z</time>
      </trkpt>
      <trkpt lat="45.73839" lon="5.96166">
        <ele>470</ele>
        <time>2011-07-03T07:08:33Z</time>
      </trkpt>
      <trkpt lat="45.7384" lon="5.96164">
        <ele>470</ele>
        <time>2011-07-03T07:08:34Z</time>
      </trkpt>
      <trkpt lat="45.73841" lon="5.96161">
        <ele>470</ele>
        <time>2011-07-03T07:08:35Z</time>
      </trkpt>
      <trkpt lat="45.73843" lon="5.96159">
        <ele>470</ele>
        <time>2011-07-03T07:08:36Z</time>
      </trkpt>
      <trkpt lat="45.73844" lon="5.96156">
        <ele>470</ele>
        <time>2011-07-03T07:08:37Z</time>
      </trkpt>
      <trkpt lat="45.73845" lon="5.96153">
        <ele>470</ele>
        <time>2011-07-03T07:08:38Z</time>
      </trkpt>
      <trkpt lat="45.73846" lon="5.96151">
        <ele>470</ele>
        <time>2011-07-03T07:08:39Z</time>
      </trkpt>
      <trkpt lat="45.73847" lon="5.96148">
        <ele>470</ele>
        <time>2011-07-03T07:08:40Z</time>
      </trkpt>
      <trkpt lat="45.73848" lon="5.96146">
        <ele>470</ele>
        <time>2011-07-03T07:08:41Z</time>
      </trkpt>
      <trkpt lat="45.73849" lon="5.96144">
        <ele>470</ele>
        <time>2011-07-03T07:08:42Z</time>
      </trkpt>
      <trkpt lat="45.7385" lon="5.96141">
        <ele>470</ele>
        <time>2011-07-03T07:08:43Z</time>
      </trkpt>
      <trkpt lat="45.73851" lon="5.96139">
        <ele>470</ele>
        <time>2011-07-03T07:08:44Z</time>
      </trkpt>
      <trkpt lat="45.73853" lon="5.96137">
        <ele>470</ele>
        <time>2011-07-03T07:08:45Z</time>
      </trkpt>
      <trkpt lat="45.73854" lon="5.96134">
        <ele>470</ele>
        <time>2011-07-03T07:08:46Z</time>
      </trkpt>
      <trkpt lat="45.73856" lon="5.96132">
        <ele>470</ele>
        <time>2011-07-03T07:08:47Z</time>
      </trkpt>
      <trkpt lat="45.73859" lon="5.9613">
        <ele>470</ele>
        <time>2011-07-03T07:08:48Z</time>
      </trkpt>
      <trkpt lat="45.73861" lon="5.96129">
        <ele>470</ele>
        <time>2011-07-03T07:08:49Z</time>
      </trkpt>
      <trkpt lat="45.73862" lon="5.96128">
        <ele>470</ele>
        <time>2011-07-03T07:08:50Z</time>
      </trkpt>
      <trkpt lat="45.73864" lon="5.96126">
        <ele>470</ele>
        <time>2011-07-03T07:08:51Z</time>
      </trkpt>
      <trkpt lat="45.73866" lon="5.96124">
        <ele>470</ele>
        <time>2011-07-03T07:08:52Z</time>
      </trkpt>
      <trkpt lat="45.73868" lon="5.96122">
        <ele>470</ele>
        <time>2011-07-03T07:08:53Z</time>
      </trkpt>
      <trkpt lat="45.7387" lon="5.9612">
        <ele>470</ele>
        <time>2011-07-03T07:08:54Z</time>
      </trkpt>
      <trkpt lat="45.73872" lon="5.96118">
        <ele>470</ele>
        <time>2011-07-03T07:08:55Z</time>
      </trkpt>
      <trkpt lat="45.73873" lon="5.96116">
        <ele>470</ele>
        <time>2011-07-03T07:08:56Z</time>
      </trkpt>
      <trkpt lat="45.73875" lon="5.96114">
        <ele>470</ele>
        <time>2011-07-03T07:08:57Z</time>
      </trkpt>
      <trkpt lat="45.73877" lon="5.96112">
        <ele>470</ele>
        <time>2011-07-03T07:08:58Z</time>
      </trkpt>
      <trkpt lat="45.73878" lon="5.9611">
        <ele>470</ele>
        <time>2011-07-03T07:08:59Z</time>
      </trkpt>
      <trkpt lat="45.73881" lon="5.96108">
        <ele>470</ele>
        <time>2011-07-03T07:09:00Z</time>
      </trkpt>
      <trkpt lat="45.73884" lon="5.96106">
        <ele>470</ele>
        <time>2011-07-03T07:09:01Z</time>
      </trkpt>
      <trkpt lat="45.73886" lon="5.96105">
        <ele>470</ele>
        <time>2011-07-03T07:09:02Z</time>
      </trkpt>
      <trkpt lat="45.73889" lon="5.96103">
        <ele>470</ele>
        <time>2011-07-03T07:09:03Z</time>
      </trkpt>
      <trkpt lat="45.73891" lon="5.96101">
        <ele>470</ele>
        <time>2011-07-03T07:09:04Z</time>
      </trkpt>
      <trkpt lat="45.73893" lon="5.96099">
        <ele>470</ele>
        <time>2011-07-03T07:09:05Z</time>
      </trkpt>
      <trkpt lat="45.73894" lon="5.96096">
        <ele>470</ele>
        <time>2011-07-03T07:09:06Z</time>
      </trkpt>
      <trkpt lat="45.73896" lon="5.96094">
        <ele>470</ele>
        <time>2011-07-03T07:09:07Z</time>
      </trkpt>
      <trkpt lat="45.73898" lon="5.96092">
        <ele>470</ele>
        <time>2011-07-03T07:09:08Z</time>
      </trkpt>
      <trkpt lat="45.739" lon="5.96089">
        <ele>470</ele>
        <time>2011-07-03T07:09:09Z</time>
      </trkpt>
      <trkpt lat="45.73902" lon="5.96086">
        <ele>470</ele>
        <time>2011-07-03T07:09:10Z</time>
      </trkpt>
      <trkpt lat="45.73905" lon="5.96083">
        <ele>470</ele>
        <time>2011-07-03T07:09:11Z</time>
      </trkpt>
      <trkpt lat="45.73906" lon="5.96081">
        <ele>471</ele>
        <time>2011-07-03T07:09:12Z</time>
      </trkpt>
      <trkpt lat="45.73909" lon="5.96079">
        <ele>471</ele>
        <time>2011-07-03T07:09:13Z</time>
      </trkpt>
      <trkpt lat="45.73911" lon="5.96076">
        <ele>471</ele>
        <time>2011-07-03T07:09:14Z</time>
      </trkpt>
      <trkpt lat="45.73915" lon="5.96073">
        <ele>471</ele>
        <time>2011-07-03T07:09:15Z</time>
      </trkpt>
      <trkpt lat="45.73919" lon="5.96068">
        <ele>472</ele>
        <time>2011-07-03T07:09:16Z</time>
      </trkpt>
      <trkpt lat="45.73922" lon="5.96064">
        <ele>472</ele>
        <time>2011-07-03T07:09:17Z</time>
      </trkpt>
      <trkpt lat="45.73926" lon="5.96061">
        <ele>473</ele>
        <time>2011-07-03T07:09:18Z</time>
      </trkpt>
      <trkpt lat="45.7393" lon="5.96057">
        <ele>473</ele>
        <time>2011-07-03T07:09:19Z</time>
      </trkpt>
      <trkpt lat="45.73934" lon="5.96053">
        <ele>473</ele>
        <time>2011-07-03T07:09:20Z</time>
      </trkpt>
      <trkpt lat="45.73938" lon="5.9605">
        <ele>473</ele>
        <time>2011-07-03T07:09:21Z</time>
      </trkpt>
      <trkpt lat="45.73941" lon="5.96046">
        <ele>473</ele>
        <time>2011-07-03T07:09:22Z</time>
      </trkpt>
      <trkpt lat="45.73944" lon="5.96041">
        <ele>473</ele>
        <time>2011-07-03T07:09:23Z</time>
      </trkpt>
      <trkpt lat="45.73946" lon="5.96038">
        <ele>473</ele>
        <time>2011-07-03T07:09:24Z</time>
      </trkpt>
      <trkpt lat="45.73949" lon="5.96035">
        <ele>474</ele>
        <time>2011-07-03T07:09:25Z</time>
      </trkpt>
      <trkpt lat="45.73951" lon="5.96033">
        <ele>474</ele>
        <time>2011-07-03T07:09:26Z</time>
      </trkpt>
      <trkpt lat="45.73954" lon="5.96032">
        <ele>475</ele>
        <time>2011-07-03T07:09:27Z</time>
      </trkpt>
      <trkpt lat="45.73957" lon="5.96031">
        <ele>476</ele>
        <time>2011-07-03T07:09:28Z</time>
      </trkpt>
      <trkpt lat="45.7396" lon="5.96029">
        <ele>476</ele>
        <time>2011-07-03T07:09:29Z</time>
      </trkpt>
      <trkpt lat="45.73964" lon="5.96029">
        <ele>476</ele>
        <time>2011-07-03T07:09:30Z</time>
      </trkpt>
      <trkpt lat="45.73967" lon="5.96028">
        <ele>476</ele>
        <time>2011-07-03T07:09:31Z</time>
      </trkpt>
      <trkpt lat="45.7397" lon="5.96028">
        <ele>476</ele>
        <time>2011-07-03T07:09:32Z</time>
      </trkpt>
      <trkpt lat="45.73974" lon="5.96028">
        <ele>476</ele>
        <time>2011-07-03T07:09:33Z</time>
      </trkpt>
      <trkpt lat="45.73978" lon="5.96029">
        <ele>476</ele>
        <time>2011-07-03T07:09:34Z</time>
      </trkpt>
      <trkpt lat="45.73981" lon="5.9603">
        <ele>476</ele>
        <time>2011-07-03T07:09:35Z</time>
      </trkpt>
      <trkpt lat="45.73984" lon="5.96031">
        <ele>476</ele>
        <time>2011-07-03T07:09:36Z</time>
      </trkpt>
      <trkpt lat="45.73986" lon="5.96032">
        <ele>476</ele>
        <time>2011-07-03T07:09:37Z</time>
      </trkpt>
      <trkpt lat="45.73989" lon="5.96032">
        <ele>476</ele>
        <time>2011-07-03T07:09:38Z</time>
      </trkpt>
      <trkpt lat="45.73993" lon="5.96033">
        <ele>476</ele>
        <time>2011-07-03T07:09:39Z</time>
      </trkpt>
      <trkpt lat="45.73995" lon="5.96033">
        <ele>476</ele>
        <time>2011-07-03T07:09:40Z</time>
      </trkpt>
      <trkpt lat="45.73998" lon="5.96034">
        <ele>476</ele>
        <time>2011-07-03T07:09:41Z</time>
      </trkpt>
      <trkpt lat="45.74001" lon="5.96035">
        <ele>476</ele>
        <time>2011-07-03T07:09:42Z</time>
      </trkpt>
      <trkpt lat="45.74005" lon="5.96036">
        <ele>476</ele>
        <time>2011-07-03T07:09:43Z</time>
      </trkpt>
      <trkpt lat="45.74008" lon="5.96038">
        <ele>476</ele>
        <time>2011-07-03T07:09:44Z</time>
      </trkpt>
      <trkpt lat="45.74011" lon="5.9604">
        <ele>476</ele>
        <time>2011-07-03T07:09:45Z</time>
      </trkpt>
      <trkpt lat="45.74014" lon="5.96042">
        <ele>476</ele>
        <time>2011-07-03T07:09:46Z</time>
      </trkpt>
      <trkpt lat="45.74018" lon="5.96045">
        <ele>475</ele>
        <time>2011-07-03T07:09:47Z</time>
      </trkpt>
      <trkpt lat="45.74022" lon="5.96048">
        <ele>475</ele>
        <time>2011-07-03T07:09:48Z</time>
      </trkpt>
      <trkpt lat="45.74027" lon="5.96051">
        <ele>474</ele>
        <time>2011-07-03T07:09:49Z</time>
      </trkpt>
      <trkpt lat="45.74031" lon="5.96053">
        <ele>474</ele>
        <time>2011-07-03T07:09:50Z</time>
      </trkpt>
      <trkpt lat="45.74034" lon="5.96056">
        <ele>473</ele>
        <time>2011-07-03T07:09:51Z</time>
      </trkpt>
      <trkpt lat="45.74038" lon="5.96059">
        <ele>472</ele>
        <time>2011-07-03T07:09:52Z</time>
      </trkpt>
      <trkpt lat="45.74043" lon="5.96061">
        <ele>472</ele>
        <time>2011-07-03T07:09:53Z</time>
      </trkpt>
      <trkpt lat="45.74047" lon="5.96063">
        <ele>471</ele>
        <time>2011-07-03T07:09:54Z</time>
      </trkpt>
      <trkpt lat="45.74051" lon="5.96065">
        <ele>471</ele>
        <time>2011-07-03T07:09:55Z</time>
      </trkpt>
      <trkpt lat="45.74055" lon="5.96068">
        <ele>470</ele>
        <time>2011-07-03T07:09:56Z</time>
      </trkpt>
      <trkpt lat="45.7406" lon="5.9607">
        <ele>470</ele>
        <time>2011-07-03T07:09:57Z</time>
      </trkpt>
      <trkpt lat="45.74064" lon="5.96072">
        <ele>470</ele>
        <time>2011-07-03T07:09:58Z</time>
      </trkpt>
      <trkpt lat="45.74068" lon="5.96074">
        <ele>469</ele>
        <time>2011-07-03T07:09:59Z</time>
      </trkpt>
      <trkpt lat="45.74073" lon="5.96077">
        <ele>469</ele>
        <time>2011-07-03T07:10:00Z</time>
      </trkpt>
      <trkpt lat="45.74077" lon="5.96079">
        <ele>469</ele>
        <time>2011-07-03T07:10:01Z</time>
      </trkpt>
      <trkpt lat="45.74081" lon="5.96081">
        <ele>469</ele>
        <time>2011-07-03T07:10:02Z</time>
      </trkpt>
      <trkpt lat="45.74086" lon="5.96083">
        <ele>469</ele>
        <time>2011-07-03T07:10:03Z</time>
      </trkpt>
      <trkpt lat="45.74091" lon="5.96086">
        <ele>468</ele>
        <time>2011-07-03T07:10:04Z</time>
      </trkpt>
      <trkpt lat="45.74095" lon="5.96088">
        <ele>468</ele>
        <time>2011-07-03T07:10:05Z</time>
      </trkpt>
      <trkpt lat="45.74099" lon="5.9609">
        <ele>468</ele>
        <time>2011-07-03T07:10:06Z</time>
      </trkpt>
      <trkpt lat="45.74104" lon="5.96092">
        <ele>468</ele>
        <time>2011-07-03T07:10:07Z</time>
      </trkpt>
      <trkpt lat="45.74108" lon="5.96094">
        <ele>468</ele>
        <time>2011-07-03T07:10:08Z</time>
      </trkpt>
      <trkpt lat="45.74112" lon="5.96096">
        <ele>468</ele>
        <time>2011-07-03T07:10:09Z</time>
      </trkpt>
      <trkpt lat="45.74116" lon="5.96098">
        <ele>467</ele>
        <time>2011-07-03T07:10:10Z</time>
      </trkpt>
      <trkpt lat="45.7412" lon="5.961">
        <ele>467</ele>
        <time>2011-07-03T07:10:11Z</time>
      </trkpt>
      <trkpt lat="45.74124" lon="5.96102">
        <ele>467</ele>
        <time>2011-07-03T07:10:12Z</time>
      </trkpt>
      <trkpt lat="45.74128" lon="5.96105">
        <ele>467</ele>
        <time>2011-07-03T07:10:13Z</time>
      </trkpt>
      <trkpt lat="45.74132" lon="5.96108">
        <ele>467</ele>
        <time>2011-07-03T07:10:14Z</time>
      </trkpt>
      <trkpt lat="45.74136" lon="5.96111">
        <ele>467</ele>
        <time>2011-07-03T07:10:15Z</time>
      </trkpt>
      <trkpt lat="45.7414" lon="5.96115">
        <ele>467</ele>
        <time>2011-07-03T07:10:16Z</time>
      </trkpt>
      <trkpt lat="45.74144" lon="5.96119">
        <ele>467</ele>
        <time>2011-07-03T07:10:17Z</time>
      </trkpt>
      <trkpt lat="45.74148" lon="5.96124">
        <ele>467</ele>
        <time>2011-07-03T07:10:18Z</time>
      </trkpt>
      <trkpt lat="45.74152" lon="5.96128">
        <ele>467</ele>
        <time>2011-07-03T07:10:19Z</time>
      </trkpt>
      <trkpt lat="45.74156" lon="5.96132">
        <ele>467</ele>
        <time>2011-07-03T07:10:20Z</time>
      </trkpt>
      <trkpt lat="45.7416" lon="5.96137">
        <ele>467</ele>
        <time>2011-07-03T07:10:21Z</time>
      </trkpt>
      <trkpt lat="45.74163" lon="5.96141">
        <ele>467</ele>
        <time>2011-07-03T07:10:22Z</time>
      </trkpt>
      <trkpt lat="45.74167" lon="5.96145">
        <ele>467</ele>
        <time>2011-07-03T07:10:23Z</time>
      </trkpt>
      <trkpt lat="45.7417" lon="5.96149">
        <ele>467</ele>
        <time>2011-07-03T07:10:24Z</time>
      </trkpt>
      <trkpt lat="45.74174" lon="5.96153">
        <ele>467</ele>
        <time>2011-07-03T07:10:25Z</time>
      </trkpt>
      <trkpt lat="45.74177" lon="5.96158">
        <ele>467</ele>
        <time>2011-07-03T07:10:26Z</time>
      </trkpt>
      <trkpt lat="45.7418" lon="5.96162">
        <ele>467</ele>
        <time>2011-07-03T07:10:27Z</time>
      </trkpt>
      <trkpt lat="45.74184" lon="5.96166">
        <ele>467</ele>
        <time>2011-07-03T07:10:28Z</time>
      </trkpt>
      <trkpt lat="45.74187" lon="5.9617">
        <ele>467</ele>
        <time>2011-07-03T07:10:29Z</time>
      </trkpt>
      <trkpt lat="45.7419" lon="5.96174">
        <ele>467</ele>
        <time>2011-07-03T07:10:30Z</time>
      </trkpt>
      <trkpt lat="45.74193" lon="5.96178">
        <ele>467</ele>
        <time>2011-07-03T07:10:31Z</time>
      </trkpt>
      <trkpt lat="45.74196" lon="5.96182">
        <ele>467</ele>
        <time>2011-07-03T07:10:32Z</time>
      </trkpt>
      <trkpt lat="45.74199" lon="5.96186">
        <ele>467</ele>
        <time>2011-07-03T07:10:33Z</time>
      </trkpt>
      <trkpt lat="45.74202" lon="5.96189">
        <ele>467</ele>
        <time>2011-07-03T07:10:34Z</time>
      </trkpt>
      <trkpt lat="45.74206" lon="5.96189">
        <ele>467</ele>
        <time>2011-07-03T07:10:35Z</time>
      </trkpt>
      <trkpt lat="45.74209" lon="5.96188">
        <ele>467</ele>
        <time>2011-07-03T07:10:36Z</time>
      </trkpt>
      <trkpt lat="45.74212" lon="5.96187">
        <ele>467</ele>
        <time>2011-07-03T07:10:37Z</time>
      </trkpt>
      <trkpt lat="45.74215" lon="5.96185">
        <ele>467</ele>
        <time>2011-07-03T07:10:38Z</time>
      </trkpt>
      <trkpt lat="45.74218" lon="5.96184">
        <ele>467</ele>
        <time>2011-07-03T07:10:39Z</time>
      </trkpt>
      <trkpt lat="45.74221" lon="5.96182">
        <ele>467</ele>
        <time>2011-07-03T07:10:40Z</time>
      </trkpt>
      <trkpt lat="45.74224" lon="5.96181">
        <ele>467</ele>
        <time>2011-07-03T07:10:41Z</time>
      </trkpt>
      <trkpt lat="45.74227" lon="5.96179">
        <ele>467</ele>
        <time>2011-07-03T07:10:42Z</time>
      </trkpt>
      <trkpt lat="45.74231" lon="5.96177">
        <ele>467</ele>
        <time>2011-07-03T07:10:43Z</time>
      </trkpt>
      <trkpt lat="45.74234" lon="5.96176">
        <ele>467</ele>
        <time>2011-07-03T07:10:44Z</time>
      </trkpt>
      <trkpt lat="45.74237" lon="5.96174">
        <ele>467</ele>
        <time>2011-07-03T07:10:45Z</time>
      </trkpt>
      <trkpt lat="45.74239" lon="5.96173">
        <ele>467</ele>
        <time>2011-07-03T07:10:46Z</time>
      </trkpt>
      <trkpt lat="45.74242" lon="5.96172">
        <ele>467</ele>
        <time>2011-07-03T07:10:47Z</time>
      </trkpt>
      <trkpt lat="45.74244" lon="5.9617">
        <ele>467</ele>
        <time>2011-07-03T07:10:48Z</time>
      </trkpt>
      <trkpt lat="45.74245" lon="5.9617">
        <ele>467</ele>
        <time>2011-07-03T07:10:49Z</time>
      </trkpt>
      <trkpt lat="45.74244" lon="5.96171">
        <ele>467</ele>
        <time>2011-07-03T07:10:55Z</time>
      </trkpt>
      <trkpt lat="45.74243" lon="5.9617">
        <ele>467</ele>
        <time>2011-07-03T07:10:59Z</time>
      </trkpt>
      <trkpt lat="45.74243" lon="5.96172">
        <ele>467</ele>
        <time>2011-07-03T07:11:03Z</time>
      </trkpt>
      <trkpt lat="45.74243" lon="5.96173">
        <ele>467</ele>
        <time>2011-07-03T07:11:09Z</time>
      </trkpt>
      <trkpt lat="45.74243" lon="5.96175">
        <ele>467</ele>
        <time>2011-07-03T07:11:16Z</time>
      </trkpt>
      <trkpt lat="45.74244" lon="5.96176">
        <ele>467</ele>
        <time>2011-07-03T07:11:26Z</time>
      </trkpt>
      <trkpt lat="45.74243" lon="5.96178">
        <ele>467</ele>
        <time>2011-07-03T07:11:48Z</time>
      </trkpt>
      <trkpt lat="45.74244" lon="5.96176">
        <ele>467</ele>
        <time>2011-07-03T07:13:00Z</time>
      </trkpt>
      <trkpt lat="45.74243" lon="5.96175">
        <ele>470</ele>
        <time>2011-07-03T07:13:33Z</time>
      </trkpt>
      <trkpt lat="45.74243" lon="5.96173">
        <ele>472</ele>
        <time>2011-07-03T07:14:09Z</time>
      </trkpt>
      <trkpt lat="45.74245" lon="5.96175">
        <ele>473</ele>
        <time>2011-07-03T07:14:50Z</time>
      </trkpt>
      <trkpt lat="45.74243" lon="5.96173">
        <ele>473</ele>
        <time>2011-07-03T07:14:54Z</time>
      </trkpt>
      <trkpt lat="45.74245" lon="5.96173">
        <ele>473</ele>
        <time>2011-07-03T07:14:59Z</time>
      </trkpt>
      <trkpt lat="45.74246" lon="5.96173">
        <ele>473</ele>
        <time>2011-07-03T07:15:00Z</time>
      </trkpt>
      <trkpt lat="45.74249" lon="5.96172">
        <ele>473</ele>
        <time>2011-07-03T07:15:01Z</time>
      </trkpt>
      <trkpt lat="45.74252" lon="5.96172">
        <ele>473</ele>
        <time>2011-07-03T07:15:02Z</time>
      </trkpt>
      <trkpt lat="45.74254" lon="5.96173">
        <ele>473</ele>
        <time>2011-07-03T07:15:03Z</time>
      </trkpt>
      <trkpt lat="45.74256" lon="5.96175">
        <ele>473</ele>
        <time>2011-07-03T07:15:04Z</time>
      </trkpt>
      <trkpt lat="45.74258" lon="5.9618">
        <ele>473</ele>
        <time>2011-07-03T07:15:05Z</time>
      </trkpt>
      <trkpt lat="45.74258" lon="5.96185">
        <ele>473</ele>
        <time>2011-07-03T07:15:06Z</time>
      </trkpt>
      <trkpt lat="45.74259" lon="5.96191">
        <ele>473</ele>
        <time>2011-07-03T07:15:07Z</time>
      </trkpt>
      <trkpt lat="45.74259" lon="5.96195">
        <ele>473</ele>
        <time>2011-07-03T07:15:08Z</time>
      </trkpt>
      <trkpt lat="45.7426" lon="5.962">
        <ele>473</ele>
        <time>2011-07-03T07:15:09Z</time>
      </trkpt>
      <trkpt lat="45.7426" lon="5.96204">
        <ele>473</ele>
        <time>2011-07-03T07:15:10Z</time>
      </trkpt>
      <trkpt lat="45.7426" lon="5.96207">
        <ele>473</ele>
        <time>2011-07-03T07:15:11Z</time>
      </trkpt>
      <trkpt lat="45.7426" lon="5.9621">
        <ele>473</ele>
        <time>2011-07-03T07:15:12Z</time>
      </trkpt>
      <trkpt lat="45.74261" lon="5.96212">
        <ele>473</ele>
        <time>2011-07-03T07:15:13Z</time>
      </trkpt>
      <trkpt lat="45.74261" lon="5.96214">
        <ele>473</ele>
        <time>2011-07-03T07:15:14Z</time>
      </trkpt>
      <trkpt lat="45.74262" lon="5.96216">
        <ele>473</ele>
        <time>2011-07-03T07:15:15Z</time>
      </trkpt>
      <trkpt lat="45.74262" lon="5.96218">
        <ele>473</ele>
        <time>2011-07-03T07:15:16Z</time>
      </trkpt>
      <trkpt lat="45.74262" lon="5.9622">
        <ele>473</ele>
        <time>2011-07-03T07:15:17Z</time>
      </trkpt>
      <trkpt lat="45.74261" lon="5.96224">
        <ele>472</ele>
        <time>2011-07-03T07:15:18Z</time>
      </trkpt>
      <trkpt lat="45.74262" lon="5.96226">
        <ele>472</ele>
        <time>2011-07-03T07:15:19Z</time>
      </trkpt>
      <trkpt lat="45.74263" lon="5.96228">
        <ele>471</ele>
        <time>2011-07-03T07:15:20Z</time>
      </trkpt>
      <trkpt lat="45.74266" lon="5.96229">
        <ele>471</ele>
        <time>2011-07-03T07:15:21Z</time>
      </trkpt>
      <trkpt lat="45.74268" lon="5.96229">
        <ele>470</ele>
        <time>2011-07-03T07:15:22Z</time>
      </trkpt>
      <trkpt lat="45.74271" lon="5.9623">
        <ele>470</ele>
        <time>2011-07-03T07:15:23Z</time>
      </trkpt>
      <trkpt lat="45.74272" lon="5.96231">
        <ele>470</ele>
        <time>2011-07-03T07:15:24Z</time>
      </trkpt>
      <trkpt lat="45.74274" lon="5.96233">
        <ele>470</ele>
        <time>2011-07-03T07:15:25Z</time>
      </trkpt>
      <trkpt lat="45.74275" lon="5.96235">
        <ele>470</ele>
        <time>2011-07-03T07:15:26Z</time>
      </trkpt>
      <trkpt lat="45.74276" lon="5.96237">
        <ele>470</ele>
        <time>2011-07-03T07:15:27Z</time>
      </trkpt>
      <trkpt lat="45.74277" lon="5.9624">
        <ele>469</ele>
        <time>2011-07-03T07:15:28Z</time>
      </trkpt>
      <trkpt lat="45.74278" lon="5.96243">
        <ele>469</ele>
        <time>2011-07-03T07:15:29Z</time>
      </trkpt>
      <trkpt lat="45.74278" lon="5.96246">
        <ele>468</ele>
        <time>2011-07-03T07:15:30Z</time>
      </trkpt>
      <trkpt lat="45.74279" lon="5.96248">
        <ele>467</ele>
        <time>2011-07-03T07:15:31Z</time>
      </trkpt>
      <trkpt lat="45.7428" lon="5.9625">
        <ele>466</ele>
        <time>2011-07-03T07:15:32Z</time>
      </trkpt>
      <trkpt lat="45.74282" lon="5.96251">
        <ele>466</ele>
        <time>2011-07-03T07:15:33Z</time>
      </trkpt>
      <trkpt lat="45.74284" lon="5.9625">
        <ele>466</ele>
        <time>2011-07-03T07:15:34Z</time>
      </trkpt>
      <trkpt lat="45.74286" lon="5.9625">
        <ele>466</ele>
        <time>2011-07-03T07:15:35Z</time>
      </trkpt>
      <trkpt lat="45.74287" lon="5.96248">
        <ele>466</ele>
        <time>2011-07-03T07:15:36Z</time>
      </trkpt>
      <trkpt lat="45.74289" lon="5.96247">
        <ele>466</ele>
        <time>2011-07-03T07:15:37Z</time>
      </trkpt>
      <trkpt lat="45.74292" lon="5.96247">
        <ele>466</ele>
        <time>2011-07-03T07:15:38Z</time>
      </trkpt>
      <trkpt lat="45.74294" lon="5.96249">
        <ele>466</ele>
        <time>2011-07-03T07:15:39Z</time>
      </trkpt>
      <trkpt lat="45.74295" lon="5.96251">
        <ele>466</ele>
        <time>2011-07-03T07:15:40Z</time>
      </trkpt>
      <trkpt lat="45.74297" lon="5.96253">
        <ele>466</ele>
        <time>2011-07-03T07:15:41Z</time>
      </trkpt>
      <trkpt lat="45.74298" lon="5.96256">
        <ele>466</ele>
        <time>2011-07-03T07:15:42Z</time>
      </trkpt>
      <trkpt lat="45.74299" lon="5.96258">
        <ele>466</ele>
        <time>2011-07-03T07:15:43Z</time>
      </trkpt>
      <trkpt lat="45.743" lon="5.96261">
        <ele>466</ele>
        <time>2011-07-03T07:15:44Z</time>
      </trkpt>
      <trkpt lat="45.74301" lon="5.96263">
        <ele>466</ele>
        <time>2011-07-03T07:15:45Z</time>
      </trkpt>
      <trkpt lat="45.74302" lon="5.96266">
        <ele>466</ele>
        <time>2011-07-03T07:15:46Z</time>
      </trkpt>
      <trkpt lat="45.74303" lon="5.96269">
        <ele>466</ele>
        <time>2011-07-03T07:15:47Z</time>
      </trkpt>
      <trkpt lat="45.74304" lon="5.96272">
        <ele>466</ele>
        <time>2011-07-03T07:15:48Z</time>
      </trkpt>
      <trkpt lat="45.74305" lon="5.96275">
        <ele>466</ele>
        <time>2011-07-03T07:15:49Z</time>
      </trkpt>
      <trkpt lat="45.74306" lon="5.96278">
        <ele>466</ele>
        <time>2011-07-03T07:15:50Z</time>
      </trkpt>
      <trkpt lat="45.74307" lon="5.9628">
        <ele>466</ele>
        <time>2011-07-03T07:15:51Z</time>
      </trkpt>
      <trkpt lat="45.74308" lon="5.96283">
        <ele>466</ele>
        <time>2011-07-03T07:15:52Z</time>
      </trkpt>
      <trkpt lat="45.74309" lon="5.96285">
        <ele>466</ele>
        <time>2011-07-03T07:15:53Z</time>
      </trkpt>
      <trkpt lat="45.7431" lon="5.96287">
        <ele>466</ele>
        <time>2011-07-03T07:15:54Z</time>
      </trkpt>
      <trkpt lat="45.74311" lon="5.9629">
        <ele>466</ele>
        <time>2011-07-03T07:15:55Z</time>
      </trkpt>
      <trkpt lat="45.74312" lon="5.96292">
        <ele>466</ele>
        <time>2011-07-03T07:15:56Z</time>
      </trkpt>
      <trkpt lat="45.74313" lon="5.96295">
        <ele>466</ele>
        <time>2011-07-03T07:15:57Z</time>
      </trkpt>
      <trkpt lat="45.74314" lon="5.96297">
        <ele>466</ele>
        <time>2011-07-03T07:15:58Z</time>
      </trkpt>
      <trkpt lat="45.74315" lon="5.96299">
        <ele>466</ele>
        <time>2011-07-03T07:15:59Z</time>
      </trkpt>
      <trkpt lat="45.74317" lon="5.96301">
        <ele>466</ele>
        <time>2011-07-03T07:16:00Z</time>
      </trkpt>
      <trkpt lat="45.74318" lon="5.96303">
        <ele>466</ele>
        <time>2011-07-03T07:16:01Z</time>
      </trkpt>
      <trkpt lat="45.7432" lon="5.96305">
        <ele>466</ele>
        <time>2011-07-03T07:16:02Z</time>
      </trkpt>
      <trkpt lat="45.74321" lon="5.96307">
        <ele>466</ele>
        <time>2011-07-03T07:16:03Z</time>
      </trkpt>
      <trkpt lat="45.74323" lon="5.96308">
        <ele>466</ele>
        <time>2011-07-03T07:16:04Z</time>
      </trkpt>
      <trkpt lat="45.74324" lon="5.96309">
        <ele>466</ele>
        <time>2011-07-03T07:16:05Z</time>
      </trkpt>
      <trkpt lat="45.74326" lon="5.96309">
        <ele>466</ele>
        <time>2011-07-03T07:16:06Z</time>
      </trkpt>
      <trkpt lat="45.74327" lon="5.9631">
        <ele>466</ele>
        <time>2011-07-03T07:16:07Z</time>
      </trkpt>
      <trkpt lat="45.74328" lon="5.9631">
        <ele>466</ele>
        <time>2011-07-03T07:16:08Z</time>
      </trkpt>
      <trkpt lat="45.7433" lon="5.9631">
        <ele>466</ele>
        <time>2011-07-03T07:16:09Z</time>
      </trkpt>
      <trkpt lat="45.74331" lon="5.9631">
        <ele>466</ele>
        <time>2011-07-03T07:16:10Z</time>
      </trkpt>
      <trkpt lat="45.74332" lon="5.9631">
        <ele>466</ele>
        <time>2011-07-03T07:16:11Z</time>
      </trkpt>
      <trkpt lat="45.74334" lon="5.9631">
        <ele>466</ele>
        <time>2011-07-03T07:16:12Z</time>
      </trkpt>
      <trkpt lat="45.74335" lon="5.96309">
        <ele>466</ele>
        <time>2011-07-03T07:16:13Z</time>
      </trkpt>
      <trkpt lat="45.74337" lon="5.96309">
        <ele>466</ele>
        <time>2011-07-03T07:16:14Z</time>
      </trkpt>
      <trkpt lat="45.74338" lon="5.96309">
        <ele>466</ele>
        <time>2011-07-03T07:16:15Z</time>
      </trkpt>
      <trkpt lat="45.74339" lon="5.96308">
        <ele>466</ele>
        <time>2011-07-03T07:16:16Z</time>
      </trkpt>
      <trkpt lat="45.74341" lon="5.96308">
        <ele>466</ele>
        <time>2011-07-03T07:16:17Z</time>
      </trkpt>
      <trkpt lat="45.74342" lon="5.96307">
        <ele>466</ele>
        <time>2011-07-03T07:16:18Z</time>
      </trkpt>
      <trkpt lat="45.74345" lon="5.96306">
        <ele>466</ele>
        <time>2011-07-03T07:16:20Z</time>
      </trkpt>
      <trkpt lat="45.74346" lon="5.96305">
        <ele>466</ele>
        <time>2011-07-03T07:16:21Z</time>
      </trkpt>
      <trkpt lat="45.74348" lon="5.96304">
        <ele>466</ele>
        <time>2011-07-03T07:16:23Z</time>
      </trkpt>
      <trkpt lat="45.7435" lon="5.96303">
        <ele>466</ele>
        <time>2011-07-03T07:16:25Z</time>
      </trkpt>
      <trkpt lat="45.74351" lon="5.96303">
        <ele>466</ele>
        <time>2011-07-03T07:16:26Z</time>
      </trkpt>
      <trkpt lat="45.74352" lon="5.96303">
        <ele>466</ele>
        <time>2011-07-03T07:16:27Z</time>
      </trkpt>
      <trkpt lat="45.74353" lon="5.96303">
        <ele>466</ele>
        <time>2011-07-03T07:16:28Z</time>
      </trkpt>
      <trkpt lat="45.74355" lon="5.96304">
        <ele>466</ele>
        <time>2011-07-03T07:16:29Z</time>
      </trkpt>
      <trkpt lat="45.74357" lon="5.96304">
        <ele>466</ele>
        <time>2011-07-03T07:16:30Z</time>
      </trkpt>
      <trkpt lat="45.74359" lon="5.96305">
        <ele>466</ele>
        <time>2011-07-03T07:16:32Z</time>
      </trkpt>
      <trkpt lat="45.7436" lon="5.96307">
        <ele>466</ele>
        <time>2011-07-03T07:16:34Z</time>
      </trkpt>
      <trkpt lat="45.74362" lon="5.96309">
        <ele>466</ele>
        <time>2011-07-03T07:16:36Z</time>
      </trkpt>
      <trkpt lat="45.74363" lon="5.96311">
        <ele>467</ele>
        <time>2011-07-03T07:16:38Z</time>
      </trkpt>
      <trkpt lat="45.74364" lon="5.96313">
        <ele>468</ele>
        <time>2011-07-03T07:16:39Z</time>
      </trkpt>
      <trkpt lat="45.74365" lon="5.96314">
        <ele>469</ele>
        <time>2011-07-03T07:16:40Z</time>
      </trkpt>
      <trkpt lat="45.74366" lon="5.96316">
        <ele>469</ele>
        <time>2011-07-03T07:16:41Z</time>
      </trkpt>
      <trkpt lat="45.74367" lon="5.96319">
        <ele>470</ele>
        <time>2011-07-03T07:16:42Z</time>
      </trkpt>
      <trkpt lat="45.74368" lon="5.96321">
        <ele>470</ele>
        <time>2011-07-03T07:16:43Z</time>
      </trkpt>
      <trkpt lat="45.74368" lon="5.96322">
        <ele>470</ele>
        <time>2011-07-03T07:16:44Z</time>
      </trkpt>
      <trkpt lat="45.74369" lon="5.96325">
        <ele>471</ele>
        <time>2011-07-03T07:16:45Z</time>
      </trkpt>
      <trkpt lat="45.74369" lon="5.96327">
        <ele>471</ele>
        <time>2011-07-03T07:16:46Z</time>
      </trkpt>
      <trkpt lat="45.7437" lon="5.96328">
        <ele>472</ele>
        <time>2011-07-03T07:16:47Z</time>
      </trkpt>
      <trkpt lat="45.7437" lon="5.9633">
        <ele>472</ele>
        <time>2011-07-03T07:16:48Z</time>
      </trkpt>
      <trkpt lat="45.7437" lon="5.96333">
        <ele>473</ele>
        <time>2011-07-03T07:16:49Z</time>
      </trkpt>
      <trkpt lat="45.7437" lon="5.96335">
        <ele>473</ele>
        <time>2011-07-03T07:16:50Z</time>
      </trkpt>
      <trkpt lat="45.7437" lon="5.96337">
        <ele>473</ele>
        <time>2011-07-03T07:16:51Z</time>
      </trkpt>
      <trkpt lat="45.74371" lon="5.96339">
        <ele>474</ele>
        <time>2011-07-03T07:16:52Z</time>
      </trkpt>
      <trkpt lat="45.74371" lon="5.96341">
        <ele>474</ele>
        <time>2011-07-03T07:16:53Z</time>
      </trkpt>
      <trkpt lat="45.74371" lon="5.96343">
        <ele>474</ele>
        <time>2011-07-03T07:16:54Z</time>
      </trkpt>
      <trkpt lat="45.74371" lon="5.96345">
        <ele>474</ele>
        <time>2011-07-03T07:16:55Z</time>
      </trkpt>
      <trkpt lat="45.74372" lon="5.96348">
        <ele>474</ele>
        <time>2011-07-03T07:16:56Z</time>
      </trkpt>
      <trkpt lat="45.74372" lon="5.9635">
        <ele>474</ele>
        <time>2011-07-03T07:16:57Z</time>
      </trkpt>
      <trkpt lat="45.74373" lon="5.96352">
        <ele>474</ele>
        <time>2011-07-03T07:16:58Z</time>
      </trkpt>
      <trkpt lat="45.74374" lon="5.96353">
        <ele>474</ele>
        <time>2011-07-03T07:16:59Z</time>
      </trkpt>
      <trkpt lat="45.74374" lon="5.96356">
        <ele>474</ele>
        <time>2011-07-03T07:17:00Z</time>
      </trkpt>
      <trkpt lat="45.74374" lon="5.96357">
        <ele>474</ele>
        <time>2011-07-03T07:17:01Z</time>
      </trkpt>
      <trkpt lat="45.74374" lon="5.96359">
        <ele>474</ele>
        <time>2011-07-03T07:17:02Z</time>
      </trkpt>
      <trkpt lat="45.74375" lon="5.96361">
        <ele>474</ele>
        <time>2011-07-03T07:17:03Z</time>
      </trkpt>
      <trkpt lat="45.74375" lon="5.96362">
        <ele>474</ele>
        <time>2011-07-03T07:17:04Z</time>
      </trkpt>
      <trkpt lat="45.74375" lon="5.96364">
        <ele>475</ele>
        <time>2011-07-03T07:17:05Z</time>
      </trkpt>
      <trkpt lat="45.74377" lon="5.96368">
        <ele>475</ele>
        <time>2011-07-03T07:17:07Z</time>
      </trkpt>
      <trkpt lat="45.74378" lon="5.9637">
        <ele>475</ele>
        <time>2011-07-03T07:17:08Z</time>
      </trkpt>
      <trkpt lat="45.74379" lon="5.96371">
        <ele>475</ele>
        <time>2011-07-03T07:17:09Z</time>
      </trkpt>
      <trkpt lat="45.7438" lon="5.96373">
        <ele>475</ele>
        <time>2011-07-03T07:17:10Z</time>
      </trkpt>
      <trkpt lat="45.74381" lon="5.96374">
        <ele>475</ele>
        <time>2011-07-03T07:17:11Z</time>
      </trkpt>
      <trkpt lat="45.74382" lon="5.96376">
        <ele>475</ele>
        <time>2011-07-03T07:17:12Z</time>
      </trkpt>
      <trkpt lat="45.74384" lon="5.96379">
        <ele>475</ele>
        <time>2011-07-03T07:17:14Z</time>
      </trkpt>
      <trkpt lat="45.74384" lon="5.9638">
        <ele>475</ele>
        <time>2011-07-03T07:17:15Z</time>
      </trkpt>
      <trkpt lat="45.74385" lon="5.96382">
        <ele>475</ele>
        <time>2011-07-03T07:17:17Z</time>
      </trkpt>
      <trkpt lat="45.74387" lon="5.96383">
        <ele>475</ele>
        <time>2011-07-03T07:17:19Z</time>
      </trkpt>
      <trkpt lat="45.74389" lon="5.96384">
        <ele>475</ele>
        <time>2011-07-03T07:17:20Z</time>
      </trkpt>
      <trkpt lat="45.7439" lon="5.96385">
        <ele>475</ele>
        <time>2011-07-03T07:17:21Z</time>
      </trkpt>
      <trkpt lat="45.74391" lon="5.96385">
        <ele>475</ele>
        <time>2011-07-03T07:17:22Z</time>
      </trkpt>
      <trkpt lat="45.74393" lon="5.96386">
        <ele>475</ele>
        <time>2011-07-03T07:17:24Z</time>
      </trkpt>
      <trkpt lat="45.74395" lon="5.96387">
        <ele>475</ele>
        <time>2011-07-03T07:17:26Z</time>
      </trkpt>
      <trkpt lat="45.74396" lon="5.96387">
        <ele>475</ele>
        <time>2011-07-03T07:17:27Z</time>
      </trkpt>
      <trkpt lat="45.74397" lon="5.96388">
        <ele>475</ele>
        <time>2011-07-03T07:17:28Z</time>
      </trkpt>
      <trkpt lat="45.74399" lon="5.9639">
        <ele>475</ele>
        <time>2011-07-03T07:17:30Z</time>
      </trkpt>
      <trkpt lat="45.74401" lon="5.9639">
        <ele>475</ele>
        <time>2011-07-03T07:17:31Z</time>
      </trkpt>
      <trkpt lat="45.74402" lon="5.96391">
        <ele>475</ele>
        <time>2011-07-03T07:17:32Z</time>
      </trkpt>
      <trkpt lat="45.74404" lon="5.96391">
        <ele>475</ele>
        <time>2011-07-03T07:17:33Z</time>
      </trkpt>
      <trkpt lat="45.74406" lon="5.96392">
        <ele>475</ele>
        <time>2011-07-03T07:17:34Z</time>
      </trkpt>
      <trkpt lat="45.74408" lon="5.96394">
        <ele>476</ele>
        <time>2011-07-03T07:17:36Z</time>
      </trkpt>
      <trkpt lat="45.74408" lon="5.96396">
        <ele>476</ele>
        <time>2011-07-03T07:17:37Z</time>
      </trkpt>
      <trkpt lat="45.74409" lon="5.96397">
        <ele>476</ele>
        <time>2011-07-03T07:17:38Z</time>
      </trkpt>
      <trkpt lat="45.7441" lon="5.96399">
        <ele>477</ele>
        <time>2011-07-03T07:17:39Z</time>
      </trkpt>
      <trkpt lat="45.7441" lon="5.96401">
        <ele>478</ele>
        <time>2011-07-03T07:17:40Z</time>
      </trkpt>
      <trkpt lat="45.7441" lon="5.96403">
        <ele>478</ele>
        <time>2011-07-03T07:17:41Z</time>
      </trkpt>
      <trkpt lat="45.7441" lon="5.96405">
        <ele>479</ele>
        <time>2011-07-03T07:17:42Z</time>
      </trkpt>
      <trkpt lat="45.7441" lon="5.96407">
        <ele>479</ele>
        <time>2011-07-03T07:17:43Z</time>
      </trkpt>
      <trkpt lat="45.7441" lon="5.96409">
        <ele>480</ele>
        <time>2011-07-03T07:17:44Z</time>
      </trkpt>
      <trkpt lat="45.74409" lon="5.96412">
        <ele>481</ele>
        <time>2011-07-03T07:17:46Z</time>
      </trkpt>
      <trkpt lat="45.74408" lon="5.96414">
        <ele>482</ele>
        <time>2011-07-03T07:17:48Z</time>
      </trkpt>
      <trkpt lat="45.74408" lon="5.96417">
        <ele>483</ele>
        <time>2011-07-03T07:17:49Z</time>
      </trkpt>
      <trkpt lat="45.74408" lon="5.96419">
        <ele>484</ele>
        <time>2011-07-03T07:17:50Z</time>
      </trkpt>
      <trkpt lat="45.74407" lon="5.9642">
        <ele>485</ele>
        <time>2011-07-03T07:17:51Z</time>
      </trkpt>
      <trkpt lat="45.74408" lon="5.96422">
        <ele>486</ele>
        <time>2011-07-03T07:17:52Z</time>
      </trkpt>
      <trkpt lat="45.74408" lon="5.96425">
        <ele>486</ele>
        <time>2011-07-03T07:17:53Z</time>
      </trkpt>
      <trkpt lat="45.74409" lon="5.96428">
        <ele>487</ele>
        <time>2011-07-03T07:17:54Z</time>
      </trkpt>
      <trkpt lat="45.74409" lon="5.96431">
        <ele>487</ele>
        <time>2011-07-03T07:17:55Z</time>
      </trkpt>
      <trkpt lat="45.7441" lon="5.96434">
        <ele>487</ele>
        <time>2011-07-03T07:17:56Z</time>
      </trkpt>
      <trkpt lat="45.74411" lon="5.96435">
        <ele>487</ele>
        <time>2011-07-03T07:17:57Z</time>
      </trkpt>
      <trkpt lat="45.74413" lon="5.96438">
        <ele>487</ele>
        <time>2011-07-03T07:17:58Z</time>
      </trkpt>
      <trkpt lat="45.74415" lon="5.96441">
        <ele>487</ele>
        <time>2011-07-03T07:17:59Z</time>
      </trkpt>
      <trkpt lat="45.74416" lon="5.96443">
        <ele>487</ele>
        <time>2011-07-03T07:18:00Z</time>
      </trkpt>
      <trkpt lat="45.74418" lon="5.96445">
        <ele>487</ele>
        <time>2011-07-03T07:18:01Z</time>
      </trkpt>
      <trkpt lat="45.74419" lon="5.96445">
        <ele>487</ele>
        <time>2011-07-03T07:18:02Z</time>
      </trkpt>
      <trkpt lat="45.74421" lon="5.96446">
        <ele>487</ele>
        <time>2011-07-03T07:18:03Z</time>
      </trkpt>
      <trkpt lat="45.74423" lon="5.96447">
        <ele>487</ele>
        <time>2011-07-03T07:18:04Z</time>
      </trkpt>
      <trkpt lat="45.74424" lon="5.96448">
        <ele>487</ele>
        <time>2011-07-03T07:18:05Z</time>
      </trkpt>
      <trkpt lat="45.74426" lon="5.96449">
        <ele>487</ele>
        <time>2011-07-03T07:18:06Z</time>
      </trkpt>
      <trkpt lat="45.74427" lon="5.9645">
        <ele>487</ele>
        <time>2011-07-03T07:18:07Z</time>
      </trkpt>
      <trkpt lat="45.74429" lon="5.96451">
        <ele>487</ele>
        <time>2011-07-03T07:18:08Z</time>
      </trkpt>
      <trkpt lat="45.7443" lon="5.96452">
        <ele>487</ele>
        <time>2011-07-03T07:18:09Z</time>
      </trkpt>
      <trkpt lat="45.74431" lon="5.96453">
        <ele>487</ele>
        <time>2011-07-03T07:18:10Z</time>
      </trkpt>
      <trkpt lat="45.74432" lon="5.96454">
        <ele>487</ele>
        <time>2011-07-03T07:18:11Z</time>
      </trkpt>
      <trkpt lat="45.74434" lon="5.96455">
        <ele>487</ele>
        <time>2011-07-03T07:18:12Z</time>
      </trkpt>
      <trkpt lat="45.74436" lon="5.96457">
        <ele>487</ele>
        <time>2011-07-03T07:18:14Z</time>
      </trkpt>
      <trkpt lat="45.74436" lon="5.96459">
        <ele>487</ele>
        <time>2011-07-03T07:18:16Z</time>
      </trkpt>
      <trkpt lat="45.74436" lon="5.96461">
        <ele>487</ele>
        <time>2011-07-03T07:18:17Z</time>
      </trkpt>
      <trkpt lat="45.74435" lon="5.96463">
        <ele>487</ele>
        <time>2011-07-03T07:18:18Z</time>
      </trkpt>
      <trkpt lat="45.74435" lon="5.96465">
        <ele>487</ele>
        <time>2011-07-03T07:18:19Z</time>
      </trkpt>
      <trkpt lat="45.74435" lon="5.96467">
        <ele>487</ele>
        <time>2011-07-03T07:18:20Z</time>
      </trkpt>
      <trkpt lat="45.74435" lon="5.9647">
        <ele>487</ele>
        <time>2011-07-03T07:18:21Z</time>
      </trkpt>
      <trkpt lat="45.74435" lon="5.96472">
        <ele>487</ele>
        <time>2011-07-03T07:18:22Z</time>
      </trkpt>
      <trkpt lat="45.74434" lon="5.96474">
        <ele>487</ele>
        <time>2011-07-03T07:18:23Z</time>
      </trkpt>
      <trkpt lat="45.74434" lon="5.96477">
        <ele>487</ele>
        <time>2011-07-03T07:18:24Z</time>
      </trkpt>
      <trkpt lat="45.74434" lon="5.9648">
        <ele>487</ele>
        <time>2011-07-03T07:18:25Z</time>
      </trkpt>
      <trkpt lat="45.74434" lon="5.96481">
        <ele>487</ele>
        <time>2011-07-03T07:18:26Z</time>
      </trkpt>
      <trkpt lat="45.74434" lon="5.96483">
        <ele>487</ele>
        <time>2011-07-03T07:18:27Z</time>
      </trkpt>
      <trkpt lat="45.74435" lon="5.96485">
        <ele>487</ele>
        <time>2011-07-03T07:18:28Z</time>
      </trkpt>
      <trkpt lat="45.74435" lon="5.96487">
        <ele>487</ele>
        <time>2011-07-03T07:18:29Z</time>
      </trkpt>
      <trkpt lat="45.74435" lon="5.96489">
        <ele>487</ele>
        <time>2011-07-03T07:18:30Z</time>
      </trkpt>
      <trkpt lat="45.74435" lon="5.96491">
        <ele>487</ele>
        <time>2011-07-03T07:18:31Z</time>
      </trkpt>
      <trkpt lat="45.74435" lon="5.96493">
        <ele>487</ele>
        <time>2011-07-03T07:18:32Z</time>
      </trkpt>
      <trkpt lat="45.74435" lon="5.96494">
        <ele>487</ele>
        <time>2011-07-03T07:18:33Z</time>
      </trkpt>
      <trkpt lat="45.74435" lon="5.96496">
        <ele>487</ele>
        <time>2011-07-03T07:18:34Z</time>
      </trkpt>
      <trkpt lat="45.74436" lon="5.96498">
        <ele>487</ele>
        <time>2011-07-03T07:18:35Z</time>
      </trkpt>
      <trkpt lat="45.74436" lon="5.96501">
        <ele>487</ele>
        <time>2011-07-03T07:18:36Z</time>
      </trkpt>
      <trkpt lat="45.74436" lon="5.96503">
        <ele>487</ele>
        <time>2011-07-03T07:18:38Z</time>
      </trkpt>
      <trkpt lat="45.74436" lon="5.96505">
        <ele>487</ele>
        <time>2011-07-03T07:18:40Z</time>
      </trkpt>
      <trkpt lat="45.74435" lon="5.96507">
        <ele>487</ele>
        <time>2011-07-03T07:18:42Z</time>
      </trkpt>
      <trkpt lat="45.74435" lon="5.9651">
        <ele>488</ele>
        <time>2011-07-03T07:18:44Z</time>
      </trkpt>
      <trkpt lat="45.74434" lon="5.96512">
        <ele>488</ele>
        <time>2011-07-03T07:18:45Z</time>
      </trkpt>
      <trkpt lat="45.74434" lon="5.96513">
        <ele>489</ele>
        <time>2011-07-03T07:18:46Z</time>
      </trkpt>
      <trkpt lat="45.74434" lon="5.96515">
        <ele>490</ele>
        <time>2011-07-03T07:18:47Z</time>
      </trkpt>
      <trkpt lat="45.74434" lon="5.96516">
        <ele>490</ele>
        <time>2011-07-03T07:18:48Z</time>
      </trkpt>
      <trkpt lat="45.74434" lon="5.96518">
        <ele>491</ele>
        <time>2011-07-03T07:18:49Z</time>
      </trkpt>
      <trkpt lat="45.74434" lon="5.9652">
        <ele>491</ele>
        <time>2011-07-03T07:18:50Z</time>
      </trkpt>
      <trkpt lat="45.74435" lon="5.96522">
        <ele>491</ele>
        <time>2011-07-03T07:18:51Z</time>
      </trkpt>
      <trkpt lat="45.74435" lon="5.96524">
        <ele>492</ele>
        <time>2011-07-03T07:18:52Z</time>
      </trkpt>
      <trkpt lat="45.74435" lon="5.96526">
        <ele>492</ele>
        <time>2011-07-03T07:18:53Z</time>
      </trkpt>
      <trkpt lat="45.74435" lon="5.96528">
        <ele>492</ele>
        <time>2011-07-03T07:18:54Z</time>
      </trkpt>
      <trkpt lat="45.74435" lon="5.9653">
        <ele>492</ele>
        <time>2011-07-03T07:18:55Z</time>
      </trkpt>
      <trkpt lat="45.74435" lon="5.96532">
        <ele>492</ele>
        <time>2011-07-03T07:18:56Z</time>
      </trkpt>
      <trkpt lat="45.74436" lon="5.96534">
        <ele>492</ele>
        <time>2011-07-03T07:18:57Z</time>
      </trkpt>
      <trkpt lat="45.74437" lon="5.96536">
        <ele>492</ele>
        <time>2011-07-03T07:18:58Z</time>
      </trkpt>
      <trkpt lat="45.74438" lon="5.96538">
        <ele>492</ele>
        <time>2011-07-03T07:18:59Z</time>
      </trkpt>
      <trkpt lat="45.74439" lon="5.96539">
        <ele>492</ele>
        <time>2011-07-03T07:19:00Z</time>
      </trkpt>
      <trkpt lat="45.7444" lon="5.9654">
        <ele>492</ele>
        <time>2011-07-03T07:19:01Z</time>
      </trkpt>
      <trkpt lat="45.74442" lon="5.96541">
        <ele>492</ele>
        <time>2011-07-03T07:19:02Z</time>
      </trkpt>
      <trkpt lat="45.74444" lon="5.96542">
        <ele>492</ele>
        <time>2011-07-03T07:19:03Z</time>
      </trkpt>
      <trkpt lat="45.74445" lon="5.96542">
        <ele>492</ele>
        <time>2011-07-03T07:19:04Z</time>
      </trkpt>
      <trkpt lat="45.74448" lon="5.96542">
        <ele>492</ele>
        <time>2011-07-03T07:19:05Z</time>
      </trkpt>
      <trkpt lat="45.74449" lon="5.96542">
        <ele>492</ele>
        <time>2011-07-03T07:19:06Z</time>
      </trkpt>
      <trkpt lat="45.74451" lon="5.96542">
        <ele>492</ele>
        <time>2011-07-03T07:19:07Z</time>
      </trkpt>
      <trkpt lat="45.74453" lon="5.96543">
        <ele>492</ele>
        <time>2011-07-03T07:19:08Z</time>
      </trkpt>
      <trkpt lat="45.74455" lon="5.96544">
        <ele>492</ele>
        <time>2011-07-03T07:19:09Z</time>
      </trkpt>
      <trkpt lat="45.74456" lon="5.96544">
        <ele>492</ele>
        <time>2011-07-03T07:19:10Z</time>
      </trkpt>
      <trkpt lat="45.74458" lon="5.96544">
        <ele>492</ele>
        <time>2011-07-03T07:19:11Z</time>
      </trkpt>
      <trkpt lat="45.74459" lon="5.96545">
        <ele>492</ele>
        <time>2011-07-03T07:19:12Z</time>
      </trkpt>
      <trkpt lat="45.74461" lon="5.96546">
        <ele>492</ele>
        <time>2011-07-03T07:19:13Z</time>
      </trkpt>
      <trkpt lat="45.74462" lon="5.96547">
        <ele>492</ele>
        <time>2011-07-03T07:19:14Z</time>
      </trkpt>
      <trkpt lat="45.74464" lon="5.96547">
        <ele>492</ele>
        <time>2011-07-03T07:19:15Z</time>
      </trkpt>
      <trkpt lat="45.74465" lon="5.96548">
        <ele>492</ele>
        <time>2011-07-03T07:19:16Z</time>
      </trkpt>
      <trkpt lat="45.74467" lon="5.96549">
        <ele>492</ele>
        <time>2011-07-03T07:19:17Z</time>
      </trkpt>
      <trkpt lat="45.74468" lon="5.96549">
        <ele>492</ele>
        <time>2011-07-03T07:19:18Z</time>
      </trkpt>
      <trkpt lat="45.74469" lon="5.96551">
        <ele>492</ele>
        <time>2011-07-03T07:19:19Z</time>
      </trkpt>
      <trkpt lat="45.74471" lon="5.96551">
        <ele>492</ele>
        <time>2011-07-03T07:19:20Z</time>
      </trkpt>
      <trkpt lat="45.74472" lon="5.96552">
        <ele>492</ele>
        <time>2011-07-03T07:19:21Z</time>
      </trkpt>
      <trkpt lat="45.74474" lon="5.96553">
        <ele>492</ele>
        <time>2011-07-03T07:19:22Z</time>
      </trkpt>
      <trkpt lat="45.74475" lon="5.96553">
        <ele>492</ele>
        <time>2011-07-03T07:19:23Z</time>
      </trkpt>
      <trkpt lat="45.74477" lon="5.96553">
        <ele>492</ele>
        <time>2011-07-03T07:19:24Z</time>
      </trkpt>
      <trkpt lat="45.74479" lon="5.96553">
        <ele>492</ele>
        <time>2011-07-03T07:19:25Z</time>
      </trkpt>
      <trkpt lat="45.7448" lon="5.96553">
        <ele>492</ele>
        <time>2011-07-03T07:19:26Z</time>
      </trkpt>
      <trkpt lat="45.74482" lon="5.96554">
        <ele>492</ele>
        <time>2011-07-03T07:19:27Z</time>
      </trkpt>
      <trkpt lat="45.74484" lon="5.96554">
        <ele>492</ele>
        <time>2011-07-03T07:19:28Z</time>
      </trkpt>
      <trkpt lat="45.74485" lon="5.96555">
        <ele>492</ele>
        <time>2011-07-03T07:19:29Z</time>
      </trkpt>
      <trkpt lat="45.74487" lon="5.96556">
        <ele>492</ele>
        <time>2011-07-03T07:19:30Z</time>
      </trkpt>
      <trkpt lat="45.74488" lon="5.96556">
        <ele>492</ele>
        <time>2011-07-03T07:19:31Z</time>
      </trkpt>
      <trkpt lat="45.7449" lon="5.96556">
        <ele>492</ele>
        <time>2011-07-03T07:19:32Z</time>
      </trkpt>
      <trkpt lat="45.74492" lon="5.96556">
        <ele>492</ele>
        <time>2011-07-03T07:19:33Z</time>
      </trkpt>
      <trkpt lat="45.74493" lon="5.96557">
        <ele>492</ele>
        <time>2011-07-03T07:19:34Z</time>
      </trkpt>
      <trkpt lat="45.74495" lon="5.96557">
        <ele>492</ele>
        <time>2011-07-03T07:19:35Z</time>
      </trkpt>
      <trkpt lat="45.74497" lon="5.96557">
        <ele>492</ele>
        <time>2011-07-03T07:19:36Z</time>
      </trkpt>
      <trkpt lat="45.74498" lon="5.96558">
        <ele>492</ele>
        <time>2011-07-03T07:19:37Z</time>
      </trkpt>
      <trkpt lat="45.74499" lon="5.96559">
        <ele>492</ele>
        <time>2011-07-03T07:19:38Z</time>
      </trkpt>
      <trkpt lat="45.74501" lon="5.96559">
        <ele>492</ele>
        <time>2011-07-03T07:19:39Z</time>
      </trkpt>
      <trkpt lat="45.74502" lon="5.9656">
        <ele>492</ele>
        <time>2011-07-03T07:19:40Z</time>
      </trkpt>
      <trkpt lat="45.74503" lon="5.96561">
        <ele>492</ele>
        <time>2011-07-03T07:19:41Z</time>
      </trkpt>
      <trkpt lat="45.74504" lon="5.96562">
        <ele>492</ele>
        <time>2011-07-03T07:19:42Z</time>
      </trkpt>
      <trkpt lat="45.74506" lon="5.96563">
        <ele>492</ele>
        <time>2011-07-03T07:19:43Z</time>
      </trkpt>
      <trkpt lat="45.74507" lon="5.96563">
        <ele>492</ele>
        <time>2011-07-03T07:19:44Z</time>
      </trkpt>
      <trkpt lat="45.74509" lon="5.96564">
        <ele>492</ele>
        <time>2011-07-03T07:19:45Z</time>
      </trkpt>
      <trkpt lat="45.74511" lon="5.96566">
        <ele>492</ele>
        <time>2011-07-03T07:19:47Z</time>
      </trkpt>
      <trkpt lat="45.74512" lon="5.96567">
        <ele>492</ele>
        <time>2011-07-03T07:19:48Z</time>
      </trkpt>
      <trkpt lat="45.74514" lon="5.96568">
        <ele>492</ele>
        <time>2011-07-03T07:19:50Z</time>
      </trkpt>
      <trkpt lat="45.74515" lon="5.9657">
        <ele>492</ele>
        <time>2011-07-03T07:19:52Z</time>
      </trkpt>
      <trkpt lat="45.74517" lon="5.96571">
        <ele>492</ele>
        <time>2011-07-03T07:19:53Z</time>
      </trkpt>
      <trkpt lat="45.74519" lon="5.96573">
        <ele>493</ele>
        <time>2011-07-03T07:19:55Z</time>
      </trkpt>
      <trkpt lat="45.7452" lon="5.96576">
        <ele>493</ele>
        <time>2011-07-03T07:19:57Z</time>
      </trkpt>
      <trkpt lat="45.7452" lon="5.96578">
        <ele>493</ele>
        <time>2011-07-03T07:19:58Z</time>
      </trkpt>
      <trkpt lat="45.74521" lon="5.96579">
        <ele>493</ele>
        <time>2011-07-03T07:19:59Z</time>
      </trkpt>
      <trkpt lat="45.7452" lon="5.96582">
        <ele>494</ele>
        <time>2011-07-03T07:20:01Z</time>
      </trkpt>
      <trkpt lat="45.7452" lon="5.96584">
        <ele>494</ele>
        <time>2011-07-03T07:20:02Z</time>
      </trkpt>
      <trkpt lat="45.74519" lon="5.96587">
        <ele>494</ele>
        <time>2011-07-03T07:20:03Z</time>
      </trkpt>
      <trkpt lat="45.74519" lon="5.96589">
        <ele>495</ele>
        <time>2011-07-03T07:20:04Z</time>
      </trkpt>
      <trkpt lat="45.74519" lon="5.96591">
        <ele>495</ele>
        <time>2011-07-03T07:20:05Z</time>
      </trkpt>
      <trkpt lat="45.74519" lon="5.96593">
        <ele>495</ele>
        <time>2011-07-03T07:20:06Z</time>
      </trkpt>
      <trkpt lat="45.74519" lon="5.96594">
        <ele>495</ele>
        <time>2011-07-03T07:20:07Z</time>
      </trkpt>
      <trkpt lat="45.74519" lon="5.96596">
        <ele>495</ele>
        <time>2011-07-03T07:20:08Z</time>
      </trkpt>
      <trkpt lat="45.74518" lon="5.96598">
        <ele>495</ele>
        <time>2011-07-03T07:20:09Z</time>
      </trkpt>
      <trkpt lat="45.74519" lon="5.96601">
        <ele>495</ele>
        <time>2011-07-03T07:20:10Z</time>
      </trkpt>
      <trkpt lat="45.7452" lon="5.96603">
        <ele>495</ele>
        <time>2011-07-03T07:20:11Z</time>
      </trkpt>
      <trkpt lat="45.74521" lon="5.96605">
        <ele>496</ele>
        <time>2011-07-03T07:20:12Z</time>
      </trkpt>
      <trkpt lat="45.74522" lon="5.96607">
        <ele>496</ele>
        <time>2011-07-03T07:20:13Z</time>
      </trkpt>
      <trkpt lat="45.74523" lon="5.96608">
        <ele>496</ele>
        <time>2011-07-03T07:20:14Z</time>
      </trkpt>
      <trkpt lat="45.74525" lon="5.9661">
        <ele>496</ele>
        <time>2011-07-03T07:20:15Z</time>
      </trkpt>
      <trkpt lat="45.74526" lon="5.96611">
        <ele>496</ele>
        <time>2011-07-03T07:20:16Z</time>
      </trkpt>
      <trkpt lat="45.74528" lon="5.96611">
        <ele>496</ele>
        <time>2011-07-03T07:20:17Z</time>
      </trkpt>
      <trkpt lat="45.74529" lon="5.96611">
        <ele>496</ele>
        <time>2011-07-03T07:20:18Z</time>
      </trkpt>
      <trkpt lat="45.74531" lon="5.96612">
        <ele>496</ele>
        <time>2011-07-03T07:20:19Z</time>
      </trkpt>
      <trkpt lat="45.74532" lon="5.96613">
        <ele>496</ele>
        <time>2011-07-03T07:20:20Z</time>
      </trkpt>
      <trkpt lat="45.74533" lon="5.96614">
        <ele>496</ele>
        <time>2011-07-03T07:20:21Z</time>
      </trkpt>
      <trkpt lat="45.74535" lon="5.96615">
        <ele>496</ele>
        <time>2011-07-03T07:20:22Z</time>
      </trkpt>
      <trkpt lat="45.74537" lon="5.96616">
        <ele>496</ele>
        <time>2011-07-03T07:20:23Z</time>
      </trkpt>
      <trkpt lat="45.74538" lon="5.96617">
        <ele>496</ele>
        <time>2011-07-03T07:20:24Z</time>
      </trkpt>
      <trkpt lat="45.7454" lon="5.96617">
        <ele>496</ele>
        <time>2011-07-03T07:20:25Z</time>
      </trkpt>
      <trkpt lat="45.74541" lon="5.96617">
        <ele>496</ele>
        <time>2011-07-03T07:20:26Z</time>
      </trkpt>
      <trkpt lat="45.74543" lon="5.96617">
        <ele>496</ele>
        <time>2011-07-03T07:20:27Z</time>
      </trkpt>
      <trkpt lat="45.74544" lon="5.96618">
        <ele>496</ele>
        <time>2011-07-03T07:20:28Z</time>
      </trkpt>
      <trkpt lat="45.74546" lon="5.96619">
        <ele>496</ele>
        <time>2011-07-03T07:20:29Z</time>
      </trkpt>
      <trkpt lat="45.74547" lon="5.96619">
        <ele>496</ele>
        <time>2011-07-03T07:20:30Z</time>
      </trkpt>
      <trkpt lat="45.74549" lon="5.9662">
        <ele>496</ele>
        <time>2011-07-03T07:20:31Z</time>
      </trkpt>
      <trkpt lat="45.7455" lon="5.96621">
        <ele>496</ele>
        <time>2011-07-03T07:20:32Z</time>
      </trkpt>
      <trkpt lat="45.74552" lon="5.96621">
        <ele>496</ele>
        <time>2011-07-03T07:20:33Z</time>
      </trkpt>
      <trkpt lat="45.74553" lon="5.96622">
        <ele>496</ele>
        <time>2011-07-03T07:20:34Z</time>
      </trkpt>
      <trkpt lat="45.74555" lon="5.96623">
        <ele>496</ele>
        <time>2011-07-03T07:20:36Z</time>
      </trkpt>
      <trkpt lat="45.74557" lon="5.96624">
        <ele>497</ele>
        <time>2011-07-03T07:20:38Z</time>
      </trkpt>
      <trkpt lat="45.74559" lon="5.96624">
        <ele>497</ele>
        <time>2011-07-03T07:20:39Z</time>
      </trkpt>
      <trkpt lat="45.7456" lon="5.96624">
        <ele>497</ele>
        <time>2011-07-03T07:20:40Z</time>
      </trkpt>
      <trkpt lat="45.74562" lon="5.96624">
        <ele>498</ele>
        <time>2011-07-03T07:20:41Z</time>
      </trkpt>
      <trkpt lat="45.74564" lon="5.96624">
        <ele>498</ele>
        <time>2011-07-03T07:20:42Z</time>
      </trkpt>
      <trkpt lat="45.74567" lon="5.96624">
        <ele>498</ele>
        <time>2011-07-03T07:20:43Z</time>
      </trkpt>
      <trkpt lat="45.74568" lon="5.96624">
        <ele>498</ele>
        <time>2011-07-03T07:20:44Z</time>
      </trkpt>
      <trkpt lat="45.7457" lon="5.96624">
        <ele>498</ele>
        <time>2011-07-03T07:20:45Z</time>
      </trkpt>
      <trkpt lat="45.74572" lon="5.96624">
        <ele>498</ele>
        <time>2011-07-03T07:20:46Z</time>
      </trkpt>
      <trkpt lat="45.74574" lon="5.96624">
        <ele>498</ele>
        <time>2011-07-03T07:20:47Z</time>
      </trkpt>
      <trkpt lat="45.74575" lon="5.96625">
        <ele>498</ele>
        <time>2011-07-03T07:20:48Z</time>
      </trkpt>
      <trkpt lat="45.74577" lon="5.96625">
        <ele>498</ele>
        <time>2011-07-03T07:20:49Z</time>
      </trkpt>
      <trkpt lat="45.74579" lon="5.96626">
        <ele>498</ele>
        <time>2011-07-03T07:20:50Z</time>
      </trkpt>
      <trkpt lat="45.7458" lon="5.96625">
        <ele>498</ele>
        <time>2011-07-03T07:20:51Z</time>
      </trkpt>
      <trkpt lat="45.74582" lon="5.96626">
        <ele>498</ele>
        <time>2011-07-03T07:20:52Z</time>
      </trkpt>
      <trkpt lat="45.74584" lon="5.96625">
        <ele>498</ele>
        <time>2011-07-03T07:20:53Z</time>
      </trkpt>
      <trkpt lat="45.74586" lon="5.96625">
        <ele>498</ele>
        <time>2011-07-03T07:20:54Z</time>
      </trkpt>
      <trkpt lat="45.74587" lon="5.96626">
        <ele>498</ele>
        <time>2011-07-03T07:20:55Z</time>
      </trkpt>
      <trkpt lat="45.74589" lon="5.96627">
        <ele>498</ele>
        <time>2011-07-03T07:20:56Z</time>
      </trkpt>
      <trkpt lat="45.7459" lon="5.96627">
        <ele>498</ele>
        <time>2011-07-03T07:20:57Z</time>
      </trkpt>
      <trkpt lat="45.74592" lon="5.96627">
        <ele>498</ele>
        <time>2011-07-03T07:20:58Z</time>
      </trkpt>
      <trkpt lat="45.74594" lon="5.96627">
        <ele>498</ele>
        <time>2011-07-03T07:20:59Z</time>
      </trkpt>
      <trkpt lat="45.74596" lon="5.96627">
        <ele>498</ele>
        <time>2011-07-03T07:21:00Z</time>
      </trkpt>
      <trkpt lat="45.74597" lon="5.96626">
        <ele>498</ele>
        <time>2011-07-03T07:21:01Z</time>
      </trkpt>
      <trkpt lat="45.74598" lon="5.96626">
        <ele>498</ele>
        <time>2011-07-03T07:21:02Z</time>
      </trkpt>
      <trkpt lat="45.746" lon="5.96626">
        <ele>498</ele>
        <time>2011-07-03T07:21:03Z</time>
      </trkpt>
      <trkpt lat="45.74601" lon="5.96626">
        <ele>498</ele>
        <time>2011-07-03T07:21:04Z</time>
      </trkpt>
      <trkpt lat="45.74603" lon="5.96626">
        <ele>498</ele>
        <time>2011-07-03T07:21:05Z</time>
      </trkpt>
      <trkpt lat="45.74605" lon="5.96626">
        <ele>498</ele>
        <time>2011-07-03T07:21:06Z</time>
      </trkpt>
      <trkpt lat="45.74607" lon="5.96626">
        <ele>498</ele>
        <time>2011-07-03T07:21:07Z</time>
      </trkpt>
      <trkpt lat="45.74609" lon="5.96626">
        <ele>498</ele>
        <time>2011-07-03T07:21:08Z</time>
      </trkpt>
      <trkpt lat="45.7461" lon="5.96625">
        <ele>498</ele>
        <time>2011-07-03T07:21:09Z</time>
      </trkpt>
      <trkpt lat="45.74612" lon="5.96625">
        <ele>498</ele>
        <time>2011-07-03T07:21:10Z</time>
      </trkpt>
      <trkpt lat="45.74614" lon="5.96625">
        <ele>498</ele>
        <time>2011-07-03T07:21:11Z</time>
      </trkpt>
      <trkpt lat="45.74616" lon="5.96624">
        <ele>498</ele>
        <time>2011-07-03T07:21:12Z</time>
      </trkpt>
      <trkpt lat="45.74617" lon="5.96624">
        <ele>498</ele>
        <time>2011-07-03T07:21:13Z</time>
      </trkpt>
      <trkpt lat="45.74619" lon="5.96623">
        <ele>498</ele>
        <time>2011-07-03T07:21:14Z</time>
      </trkpt>
      <trkpt lat="45.74621" lon="5.96623">
        <ele>498</ele>
        <time>2011-07-03T07:21:15Z</time>
      </trkpt>
      <trkpt lat="45.74622" lon="5.96623">
        <ele>498</ele>
        <time>2011-07-03T07:21:16Z</time>
      </trkpt>
      <trkpt lat="45.74624" lon="5.96623">
        <ele>498</ele>
        <time>2011-07-03T07:21:17Z</time>
      </trkpt>
      <trkpt lat="45.74625" lon="5.96623">
        <ele>498</ele>
        <time>2011-07-03T07:21:18Z</time>
      </trkpt>
      <trkpt lat="45.74627" lon="5.96622">
        <ele>498</ele>
        <time>2011-07-03T07:21:19Z</time>
      </trkpt>
      <trkpt lat="45.74628" lon="5.96622">
        <ele>498</ele>
        <time>2011-07-03T07:21:20Z</time>
      </trkpt>
      <trkpt lat="45.7463" lon="5.96622">
        <ele>499</ele>
        <time>2011-07-03T07:21:21Z</time>
      </trkpt>
      <trkpt lat="45.74632" lon="5.96622">
        <ele>499</ele>
        <time>2011-07-03T07:21:22Z</time>
      </trkpt>
      <trkpt lat="45.74633" lon="5.96621">
        <ele>499</ele>
        <time>2011-07-03T07:21:23Z</time>
      </trkpt>
      <trkpt lat="45.74635" lon="5.96621">
        <ele>499</ele>
        <time>2011-07-03T07:21:24Z</time>
      </trkpt>
      <trkpt lat="45.74637" lon="5.96621">
        <ele>499</ele>
        <time>2011-07-03T07:21:25Z</time>
      </trkpt>
      <trkpt lat="45.74638" lon="5.96622">
        <ele>499</ele>
        <time>2011-07-03T07:21:26Z</time>
      </trkpt>
      <trkpt lat="45.7464" lon="5.96622">
        <ele>499</ele>
        <time>2011-07-03T07:21:27Z</time>
      </trkpt>
      <trkpt lat="45.74641" lon="5.96622">
        <ele>499</ele>
        <time>2011-07-03T07:21:28Z</time>
      </trkpt>
      <trkpt lat="45.74643" lon="5.96622">
        <ele>500</ele>
        <time>2011-07-03T07:21:30Z</time>
      </trkpt>
      <trkpt lat="45.74645" lon="5.96623">
        <ele>500</ele>
        <time>2011-07-03T07:21:31Z</time>
      </trkpt>
      <trkpt lat="45.74647" lon="5.96623">
        <ele>500</ele>
        <time>2011-07-03T07:21:32Z</time>
      </trkpt>
      <trkpt lat="45.74649" lon="5.96623">
        <ele>500</ele>
        <time>2011-07-03T07:21:33Z</time>
      </trkpt>
      <trkpt lat="45.7465" lon="5.96623">
        <ele>500</ele>
        <time>2011-07-03T07:21:34Z</time>
      </trkpt>
      <trkpt lat="45.74651" lon="5.96623">
        <ele>500</ele>
        <time>2011-07-03T07:21:35Z</time>
      </trkpt>
      <trkpt lat="45.74653" lon="5.96624">
        <ele>500</ele>
        <time>2011-07-03T07:21:36Z</time>
      </trkpt>
      <trkpt lat="45.74655" lon="5.96625">
        <ele>501</ele>
        <time>2011-07-03T07:21:37Z</time>
      </trkpt>
      <trkpt lat="45.74656" lon="5.96627">
        <ele>501</ele>
        <time>2011-07-03T07:21:38Z</time>
      </trkpt>
      <trkpt lat="45.74657" lon="5.96628">
        <ele>501</ele>
        <time>2011-07-03T07:21:39Z</time>
      </trkpt>
      <trkpt lat="45.74658" lon="5.9663">
        <ele>502</ele>
        <time>2011-07-03T07:21:40Z</time>
      </trkpt>
      <trkpt lat="45.74659" lon="5.96632">
        <ele>502</ele>
        <time>2011-07-03T07:21:41Z</time>
      </trkpt>
      <trkpt lat="45.74659" lon="5.96635">
        <ele>502</ele>
        <time>2011-07-03T07:21:42Z</time>
      </trkpt>
      <trkpt lat="45.7466" lon="5.96637">
        <ele>503</ele>
        <time>2011-07-03T07:21:43Z</time>
      </trkpt>
      <trkpt lat="45.7466" lon="5.96638">
        <ele>503</ele>
        <time>2011-07-03T07:21:44Z</time>
      </trkpt>
      <trkpt lat="45.7466" lon="5.96641">
        <ele>503</ele>
        <time>2011-07-03T07:21:45Z</time>
      </trkpt>
      <trkpt lat="45.7466" lon="5.96643">
        <ele>503</ele>
        <time>2011-07-03T07:21:46Z</time>
      </trkpt>
      <trkpt lat="45.7466" lon="5.96646">
        <ele>503</ele>
        <time>2011-07-03T07:21:47Z</time>
      </trkpt>
      <trkpt lat="45.7466" lon="5.96648">
        <ele>503</ele>
        <time>2011-07-03T07:21:48Z</time>
      </trkpt>
      <trkpt lat="45.7466" lon="5.96651">
        <ele>503</ele>
        <time>2011-07-03T07:21:49Z</time>
      </trkpt>
      <trkpt lat="45.7466" lon="5.96653">
        <ele>503</ele>
        <time>2011-07-03T07:21:50Z</time>
      </trkpt>
      <trkpt lat="45.74659" lon="5.96656">
        <ele>503</ele>
        <time>2011-07-03T07:21:51Z</time>
      </trkpt>
      <trkpt lat="45.74659" lon="5.96658">
        <ele>503</ele>
        <time>2011-07-03T07:21:52Z</time>
      </trkpt>
      <trkpt lat="45.74659" lon="5.9666">
        <ele>503</ele>
        <time>2011-07-03T07:21:53Z</time>
      </trkpt>
      <trkpt lat="45.74658" lon="5.96662">
        <ele>503</ele>
        <time>2011-07-03T07:21:54Z</time>
      </trkpt>
      <trkpt lat="45.74658" lon="5.96664">
        <ele>503</ele>
        <time>2011-07-03T07:21:55Z</time>
      </trkpt>
      <trkpt lat="45.74657" lon="5.96667">
        <ele>503</ele>
        <time>2011-07-03T07:21:56Z</time>
      </trkpt>
      <trkpt lat="45.74657" lon="5.96669">
        <ele>503</ele>
        <time>2011-07-03T07:21:57Z</time>
      </trkpt>
      <trkpt lat="45.74657" lon="5.96672">
        <ele>503</ele>
        <time>2011-07-03T07:21:58Z</time>
      </trkpt>
      <trkpt lat="45.74657" lon="5.96674">
        <ele>503</ele>
        <time>2011-07-03T07:21:59Z</time>
      </trkpt>
      <trkpt lat="45.74656" lon="5.96676">
        <ele>503</ele>
        <time>2011-07-03T07:22:00Z</time>
      </trkpt>
      <trkpt lat="45.74656" lon="5.96679">
        <ele>503</ele>
        <time>2011-07-03T07:22:01Z</time>
      </trkpt>
      <trkpt lat="45.74655" lon="5.96682">
        <ele>503</ele>
        <time>2011-07-03T07:22:02Z</time>
      </trkpt>
      <trkpt lat="45.74655" lon="5.96685">
        <ele>503</ele>
        <time>2011-07-03T07:22:03Z</time>
      </trkpt>
      <trkpt lat="45.74655" lon="5.96688">
        <ele>503</ele>
        <time>2011-07-03T07:22:04Z</time>
      </trkpt>
      <trkpt lat="45.74654" lon="5.96691">
        <ele>503</ele>
        <time>2011-07-03T07:22:05Z</time>
      </trkpt>
      <trkpt lat="45.74654" lon="5.96694">
        <ele>503</ele>
        <time>2011-07-03T07:22:06Z</time>
      </trkpt>
      <trkpt lat="45.74654" lon="5.96697">
        <ele>503</ele>
        <time>2011-07-03T07:22:07Z</time>
      </trkpt>
      <trkpt lat="45.74653" lon="5.967">
        <ele>503</ele>
        <time>2011-07-03T07:22:08Z</time>
      </trkpt>
      <trkpt lat="45.74653" lon="5.96703">
        <ele>503</ele>
        <time>2011-07-03T07:22:09Z</time>
      </trkpt>
      <trkpt lat="45.74653" lon="5.96705">
        <ele>503</ele>
        <time>2011-07-03T07:22:10Z</time>
      </trkpt>
      <trkpt lat="45.74652" lon="5.96708">
        <ele>503</ele>
        <time>2011-07-03T07:22:11Z</time>
      </trkpt>
      <trkpt lat="45.74652" lon="5.96711">
        <ele>503</ele>
        <time>2011-07-03T07:22:12Z</time>
      </trkpt>
      <trkpt lat="45.74651" lon="5.96714">
        <ele>503</ele>
        <time>2011-07-03T07:22:13Z</time>
      </trkpt>
      <trkpt lat="45.74651" lon="5.96717">
        <ele>503</ele>
        <time>2011-07-03T07:22:14Z</time>
      </trkpt>
      <trkpt lat="45.74651" lon="5.9672">
        <ele>503</ele>
        <time>2011-07-03T07:22:15Z</time>
      </trkpt>
      <trkpt lat="45.7465" lon="5.96722">
        <ele>503</ele>
        <time>2011-07-03T07:22:16Z</time>
      </trkpt>
      <trkpt lat="45.7465" lon="5.96725">
        <ele>503</ele>
        <time>2011-07-03T07:22:17Z</time>
      </trkpt>
      <trkpt lat="45.74649" lon="5.96728">
        <ele>503</ele>
        <time>2011-07-03T07:22:18Z</time>
      </trkpt>
      <trkpt lat="45.74649" lon="5.9673">
        <ele>503</ele>
        <time>2011-07-03T07:22:19Z</time>
      </trkpt>
      <trkpt lat="45.74649" lon="5.96733">
        <ele>504</ele>
        <time>2011-07-03T07:22:20Z</time>
      </trkpt>
      <trkpt lat="45.74649" lon="5.96735">
        <ele>504</ele>
        <time>2011-07-03T07:22:21Z</time>
      </trkpt>
      <trkpt lat="45.74649" lon="5.96737">
        <ele>504</ele>
        <time>2011-07-03T07:22:22Z</time>
      </trkpt>
      <trkpt lat="45.74649" lon="5.9674">
        <ele>505</ele>
        <time>2011-07-03T07:22:23Z</time>
      </trkpt>
      <trkpt lat="45.7465" lon="5.96743">
        <ele>505</ele>
        <time>2011-07-03T07:22:24Z</time>
      </trkpt>
      <trkpt lat="45.74651" lon="5.96746">
        <ele>506</ele>
        <time>2011-07-03T07:22:25Z</time>
      </trkpt>
      <trkpt lat="45.74652" lon="5.96749">
        <ele>506</ele>
        <time>2011-07-03T07:22:26Z</time>
      </trkpt>
      <trkpt lat="45.74654" lon="5.96751">
        <ele>506</ele>
        <time>2011-07-03T07:22:27Z</time>
      </trkpt>
      <trkpt lat="45.74654" lon="5.96754">
        <ele>507</ele>
        <time>2011-07-03T07:22:28Z</time>
      </trkpt>
      <trkpt lat="45.74655" lon="5.96757">
        <ele>507</ele>
        <time>2011-07-03T07:22:29Z</time>
      </trkpt>
      <trkpt lat="45.74656" lon="5.96759">
        <ele>507</ele>
        <time>2011-07-03T07:22:30Z</time>
      </trkpt>
      <trkpt lat="45.74657" lon="5.96761">
        <ele>507</ele>
        <time>2011-07-03T07:22:31Z</time>
      </trkpt>
      <trkpt lat="45.74657" lon="5.96764">
        <ele>507</ele>
        <time>2011-07-03T07:22:32Z</time>
      </trkpt>
      <trkpt lat="45.74657" lon="5.96767">
        <ele>507</ele>
        <time>2011-07-03T07:22:33Z</time>
      </trkpt>
      <trkpt lat="45.74657" lon="5.9677">
        <ele>507</ele>
        <time>2011-07-03T07:22:34Z</time>
      </trkpt>
      <trkpt lat="45.74658" lon="5.96773">
        <ele>507</ele>
        <time>2011-07-03T07:22:35Z</time>
      </trkpt>
      <trkpt lat="45.74659" lon="5.96776">
        <ele>507</ele>
        <time>2011-07-03T07:22:36Z</time>
      </trkpt>
      <trkpt lat="45.74659" lon="5.96779">
        <ele>507</ele>
        <time>2011-07-03T07:22:37Z</time>
      </trkpt>
      <trkpt lat="45.74659" lon="5.96782">
        <ele>507</ele>
        <time>2011-07-03T07:22:38Z</time>
      </trkpt>
      <trkpt lat="45.74659" lon="5.96785">
        <ele>507</ele>
        <time>2011-07-03T07:22:39Z</time>
      </trkpt>
      <trkpt lat="45.74659" lon="5.96789">
        <ele>507</ele>
        <time>2011-07-03T07:22:40Z</time>
      </trkpt>
      <trkpt lat="45.74658" lon="5.96791">
        <ele>507</ele>
        <time>2011-07-03T07:22:41Z</time>
      </trkpt>
      <trkpt lat="45.74659" lon="5.96794">
        <ele>507</ele>
        <time>2011-07-03T07:22:42Z</time>
      </trkpt>
      <trkpt lat="45.74659" lon="5.96796">
        <ele>507</ele>
        <time>2011-07-03T07:22:43Z</time>
      </trkpt>
      <trkpt lat="45.74659" lon="5.96799">
        <ele>507</ele>
        <time>2011-07-03T07:22:44Z</time>
      </trkpt>
      <trkpt lat="45.74661" lon="5.96801">
        <ele>507</ele>
        <time>2011-07-03T07:22:45Z</time>
      </trkpt>
      <trkpt lat="45.74663" lon="5.96802">
        <ele>507</ele>
        <time>2011-07-03T07:22:46Z</time>
      </trkpt>
      <trkpt lat="45.74666" lon="5.96802">
        <ele>507</ele>
        <time>2011-07-03T07:22:47Z</time>
      </trkpt>
      <trkpt lat="45.74668" lon="5.96803">
        <ele>507</ele>
        <time>2011-07-03T07:22:48Z</time>
      </trkpt>
      <trkpt lat="45.7467" lon="5.96804">
        <ele>507</ele>
        <time>2011-07-03T07:22:49Z</time>
      </trkpt>
      <trkpt lat="45.74673" lon="5.96805">
        <ele>507</ele>
        <time>2011-07-03T07:22:50Z</time>
      </trkpt>
      <trkpt lat="45.74675" lon="5.96806">
        <ele>507</ele>
        <time>2011-07-03T07:22:51Z</time>
      </trkpt>
      <trkpt lat="45.74678" lon="5.96808">
        <ele>507</ele>
        <time>2011-07-03T07:22:52Z</time>
      </trkpt>
      <trkpt lat="45.7468" lon="5.96809">
        <ele>507</ele>
        <time>2011-07-03T07:22:53Z</time>
      </trkpt>
      <trkpt lat="45.74682" lon="5.9681">
        <ele>507</ele>
        <time>2011-07-03T07:22:54Z</time>
      </trkpt>
      <trkpt lat="45.74685" lon="5.96811">
        <ele>507</ele>
        <time>2011-07-03T07:22:55Z</time>
      </trkpt>
      <trkpt lat="45.74687" lon="5.96812">
        <ele>507</ele>
        <time>2011-07-03T07:22:56Z</time>
      </trkpt>
      <trkpt lat="45.74689" lon="5.96813">
        <ele>507</ele>
        <time>2011-07-03T07:22:57Z</time>
      </trkpt>
      <trkpt lat="45.74692" lon="5.96815">
        <ele>507</ele>
        <time>2011-07-03T07:22:58Z</time>
      </trkpt>
      <trkpt lat="45.74695" lon="5.96816">
        <ele>507</ele>
        <time>2011-07-03T07:22:59Z</time>
      </trkpt>
      <trkpt lat="45.74697" lon="5.96817">
        <ele>507</ele>
        <time>2011-07-03T07:23:00Z</time>
      </trkpt>
      <trkpt lat="45.747" lon="5.96817">
        <ele>507</ele>
        <time>2011-07-03T07:23:01Z</time>
      </trkpt>
      <trkpt lat="45.74702" lon="5.96817">
        <ele>507</ele>
        <time>2011-07-03T07:23:02Z</time>
      </trkpt>
      <trkpt lat="45.74705" lon="5.96817">
        <ele>507</ele>
        <time>2011-07-03T07:23:03Z</time>
      </trkpt>
      <trkpt lat="45.74707" lon="5.96817">
        <ele>507</ele>
        <time>2011-07-03T07:23:04Z</time>
      </trkpt>
      <trkpt lat="45.74709" lon="5.96816">
        <ele>507</ele>
        <time>2011-07-03T07:23:05Z</time>
      </trkpt>
      <trkpt lat="45.74712" lon="5.96816">
        <ele>507</ele>
        <time>2011-07-03T07:23:06Z</time>
      </trkpt>
      <trkpt lat="45.74714" lon="5.96815">
        <ele>508</ele>
        <time>2011-07-03T07:23:07Z</time>
      </trkpt>
      <trkpt lat="45.74716" lon="5.96815">
        <ele>508</ele>
        <time>2011-07-03T07:23:08Z</time>
      </trkpt>
      <trkpt lat="45.74719" lon="5.96815">
        <ele>508</ele>
        <time>2011-07-03T07:23:09Z</time>
      </trkpt>
      <trkpt lat="45.74721" lon="5.96815">
        <ele>508</ele>
        <time>2011-07-03T07:23:10Z</time>
      </trkpt>
      <trkpt lat="45.74724" lon="5.96814">
        <ele>508</ele>
        <time>2011-07-03T07:23:11Z</time>
      </trkpt>
      <trkpt lat="45.74726" lon="5.96814">
        <ele>508</ele>
        <time>2011-07-03T07:23:12Z</time>
      </trkpt>
      <trkpt lat="45.74728" lon="5.96814">
        <ele>509</ele>
        <time>2011-07-03T07:23:13Z</time>
      </trkpt>
      <trkpt lat="45.74731" lon="5.96813">
        <ele>509</ele>
        <time>2011-07-03T07:23:14Z</time>
      </trkpt>
      <trkpt lat="45.74733" lon="5.96813">
        <ele>509</ele>
        <time>2011-07-03T07:23:15Z</time>
      </trkpt>
      <trkpt lat="45.74736" lon="5.96813">
        <ele>509</ele>
        <time>2011-07-03T07:23:16Z</time>
      </trkpt>
      <trkpt lat="45.74738" lon="5.96813">
        <ele>509</ele>
        <time>2011-07-03T07:23:17Z</time>
      </trkpt>
      <trkpt lat="45.7474" lon="5.96813">
        <ele>509</ele>
        <time>2011-07-03T07:23:18Z</time>
      </trkpt>
      <trkpt lat="45.74743" lon="5.96813">
        <ele>509</ele>
        <time>2011-07-03T07:23:19Z</time>
      </trkpt>
      <trkpt lat="45.74745" lon="5.96813">
        <ele>510</ele>
        <time>2011-07-03T07:23:20Z</time>
      </trkpt>
      <trkpt lat="45.74748" lon="5.96814">
        <ele>510</ele>
        <time>2011-07-03T07:23:21Z</time>
      </trkpt>
      <trkpt lat="45.7475" lon="5.96816">
        <ele>510</ele>
        <time>2011-07-03T07:23:22Z</time>
      </trkpt>
      <trkpt lat="45.74752" lon="5.96818">
        <ele>511</ele>
        <time>2011-07-03T07:23:23Z</time>
      </trkpt>
      <trkpt lat="45.74754" lon="5.96819">
        <ele>511</ele>
        <time>2011-07-03T07:23:24Z</time>
      </trkpt>
      <trkpt lat="45.74756" lon="5.96821">
        <ele>511</ele>
        <time>2011-07-03T07:23:25Z</time>
      </trkpt>
      <trkpt lat="45.74757" lon="5.96823">
        <ele>512</ele>
        <time>2011-07-03T07:23:26Z</time>
      </trkpt>
      <trkpt lat="45.74759" lon="5.96826">
        <ele>512</ele>
        <time>2011-07-03T07:23:27Z</time>
      </trkpt>
      <trkpt lat="45.74761" lon="5.96828">
        <ele>512</ele>
        <time>2011-07-03T07:23:28Z</time>
      </trkpt>
      <trkpt lat="45.74763" lon="5.9683">
        <ele>513</ele>
        <time>2011-07-03T07:23:29Z</time>
      </trkpt>
      <trkpt lat="45.74765" lon="5.96833">
        <ele>513</ele>
        <time>2011-07-03T07:23:30Z</time>
      </trkpt>
      <trkpt lat="45.74766" lon="5.96835">
        <ele>513</ele>
        <time>2011-07-03T07:23:31Z</time>
      </trkpt>
      <trkpt lat="45.74767" lon="5.96838">
        <ele>514</ele>
        <time>2011-07-03T07:23:32Z</time>
      </trkpt>
      <trkpt lat="45.74768" lon="5.9684">
        <ele>514</ele>
        <time>2011-07-03T07:23:33Z</time>
      </trkpt>
      <trkpt lat="45.74769" lon="5.96843">
        <ele>514</ele>
        <time>2011-07-03T07:23:34Z</time>
      </trkpt>
      <trkpt lat="45.7477" lon="5.96846">
        <ele>515</ele>
        <time>2011-07-03T07:23:35Z</time>
      </trkpt>
      <trkpt lat="45.74771" lon="5.96849">
        <ele>515</ele>
        <time>2011-07-03T07:23:36Z</time>
      </trkpt>
      <trkpt lat="45.74772" lon="5.96852">
        <ele>516</ele>
        <time>2011-07-03T07:23:37Z</time>
      </trkpt>
      <trkpt lat="45.74774" lon="5.96856">
        <ele>516</ele>
        <time>2011-07-03T07:23:38Z</time>
      </trkpt>
      <trkpt lat="45.74776" lon="5.96859">
        <ele>516</ele>
        <time>2011-07-03T07:23:39Z</time>
      </trkpt>
      <trkpt lat="45.74778" lon="5.96862">
        <ele>516</ele>
        <time>2011-07-03T07:23:40Z</time>
      </trkpt>
      <trkpt lat="45.7478" lon="5.96865">
        <ele>516</ele>
        <time>2011-07-03T07:23:41Z</time>
      </trkpt>
      <trkpt lat="45.74781" lon="5.96868">
        <ele>516</ele>
        <time>2011-07-03T07:23:42Z</time>
      </trkpt>
      <trkpt lat="45.74783" lon="5.9687">
        <ele>516</ele>
        <time>2011-07-03T07:23:43Z</time>
      </trkpt>
      <trkpt lat="45.74784" lon="5.96872">
        <ele>516</ele>
        <time>2011-07-03T07:23:44Z</time>
      </trkpt>
      <trkpt lat="45.74786" lon="5.96874">
        <ele>516</ele>
        <time>2011-07-03T07:23:45Z</time>
      </trkpt>
      <trkpt lat="45.74788" lon="5.96876">
        <ele>516</ele>
        <time>2011-07-03T07:23:46Z</time>
      </trkpt>
      <trkpt lat="45.74789" lon="5.96878">
        <ele>516</ele>
        <time>2011-07-03T07:23:47Z</time>
      </trkpt>
      <trkpt lat="45.74791" lon="5.9688">
        <ele>516</ele>
        <time>2011-07-03T07:23:48Z</time>
      </trkpt>
      <trkpt lat="45.74794" lon="5.96881">
        <ele>516</ele>
        <time>2011-07-03T07:23:49Z</time>
      </trkpt>
      <trkpt lat="45.74796" lon="5.96883">
        <ele>516</ele>
        <time>2011-07-03T07:23:50Z</time>
      </trkpt>
      <trkpt lat="45.74798" lon="5.96885">
        <ele>516</ele>
        <time>2011-07-03T07:23:51Z</time>
      </trkpt>
      <trkpt lat="45.748" lon="5.96887">
        <ele>516</ele>
        <time>2011-07-03T07:23:52Z</time>
      </trkpt>
      <trkpt lat="45.74802" lon="5.96889">
        <ele>516</ele>
        <time>2011-07-03T07:23:53Z</time>
      </trkpt>
      <trkpt lat="45.74804" lon="5.96891">
        <ele>516</ele>
        <time>2011-07-03T07:23:54Z</time>
      </trkpt>
      <trkpt lat="45.74806" lon="5.96893">
        <ele>516</ele>
        <time>2011-07-03T07:23:55Z</time>
      </trkpt>
      <trkpt lat="45.74808" lon="5.96895">
        <ele>516</ele>
        <time>2011-07-03T07:23:56Z</time>
      </trkpt>
      <trkpt lat="45.7481" lon="5.96896">
        <ele>516</ele>
        <time>2011-07-03T07:23:57Z</time>
      </trkpt>
      <trkpt lat="45.74813" lon="5.96897">
        <ele>516</ele>
        <time>2011-07-03T07:23:58Z</time>
      </trkpt>
      <trkpt lat="45.74815" lon="5.96898">
        <ele>516</ele>
        <time>2011-07-03T07:23:59Z</time>
      </trkpt>
      <trkpt lat="45.74817" lon="5.96899">
        <ele>516</ele>
        <time>2011-07-03T07:24:00Z</time>
      </trkpt>
      <trkpt lat="45.74818" lon="5.969">
        <ele>516</ele>
        <time>2011-07-03T07:24:01Z</time>
      </trkpt>
      <trkpt lat="45.7482" lon="5.969">
        <ele>516</ele>
        <time>2011-07-03T07:24:02Z</time>
      </trkpt>
      <trkpt lat="45.74821" lon="5.96901">
        <ele>516</ele>
        <time>2011-07-03T07:24:03Z</time>
      </trkpt>
      <trkpt lat="45.74823" lon="5.96901">
        <ele>516</ele>
        <time>2011-07-03T07:24:04Z</time>
      </trkpt>
      <trkpt lat="45.74825" lon="5.96902">
        <ele>516</ele>
        <time>2011-07-03T07:24:05Z</time>
      </trkpt>
      <trkpt lat="45.74827" lon="5.96902">
        <ele>516</ele>
        <time>2011-07-03T07:24:06Z</time>
      </trkpt>
      <trkpt lat="45.74829" lon="5.96902">
        <ele>516</ele>
        <time>2011-07-03T07:24:07Z</time>
      </trkpt>
      <trkpt lat="45.74831" lon="5.96902">
        <ele>516</ele>
        <time>2011-07-03T07:24:08Z</time>
      </trkpt>
      <trkpt lat="45.74833" lon="5.96902">
        <ele>516</ele>
        <time>2011-07-03T07:24:09Z</time>
      </trkpt>
      <trkpt lat="45.74835" lon="5.96902">
        <ele>516</ele>
        <time>2011-07-03T07:24:10Z</time>
      </trkpt>
      <trkpt lat="45.74837" lon="5.96901">
        <ele>516</ele>
        <time>2011-07-03T07:24:11Z</time>
      </trkpt>
      <trkpt lat="45.74839" lon="5.96901">
        <ele>516</ele>
        <time>2011-07-03T07:24:12Z</time>
      </trkpt>
      <trkpt lat="45.74841" lon="5.96901">
        <ele>516</ele>
        <time>2011-07-03T07:24:13Z</time>
      </trkpt>
      <trkpt lat="45.74843" lon="5.969">
        <ele>516</ele>
        <time>2011-07-03T07:24:14Z</time>
      </trkpt>
      <trkpt lat="45.74845" lon="5.969">
        <ele>516</ele>
        <time>2011-07-03T07:24:15Z</time>
      </trkpt>
      <trkpt lat="45.74847" lon="5.969">
        <ele>516</ele>
        <time>2011-07-03T07:24:16Z</time>
      </trkpt>
      <trkpt lat="45.74848" lon="5.96901">
        <ele>516</ele>
        <time>2011-07-03T07:24:17Z</time>
      </trkpt>
      <trkpt lat="45.74851" lon="5.96901">
        <ele>516</ele>
        <time>2011-07-03T07:24:18Z</time>
      </trkpt>
      <trkpt lat="45.74853" lon="5.96901">
        <ele>517</ele>
        <time>2011-07-03T07:24:19Z</time>
      </trkpt>
      <trkpt lat="45.74855" lon="5.96901">
        <ele>517</ele>
        <time>2011-07-03T07:24:20Z</time>
      </trkpt>
      <trkpt lat="45.74857" lon="5.96901">
        <ele>517</ele>
        <time>2011-07-03T07:24:21Z</time>
      </trkpt>
      <trkpt lat="45.74859" lon="5.96902">
        <ele>518</ele>
        <time>2011-07-03T07:24:22Z</time>
      </trkpt>
      <trkpt lat="45.74862" lon="5.96902">
        <ele>518</ele>
        <time>2011-07-03T07:24:23Z</time>
      </trkpt>
      <trkpt lat="45.74864" lon="5.96902">
        <ele>518</ele>
        <time>2011-07-03T07:24:24Z</time>
      </trkpt>
      <trkpt lat="45.74866" lon="5.96902">
        <ele>518</ele>
        <time>2011-07-03T07:24:25Z</time>
      </trkpt>
      <trkpt lat="45.74868" lon="5.96902">
        <ele>518</ele>
        <time>2011-07-03T07:24:26Z</time>
      </trkpt>
      <trkpt lat="45.74869" lon="5.96902">
        <ele>518</ele>
        <time>2011-07-03T07:24:27Z</time>
      </trkpt>
      <trkpt lat="45.74871" lon="5.96901">
        <ele>518</ele>
        <time>2011-07-03T07:24:28Z</time>
      </trkpt>
      <trkpt lat="45.74872" lon="5.96901">
        <ele>518</ele>
        <time>2011-07-03T07:24:29Z</time>
      </trkpt>
      <trkpt lat="45.74874" lon="5.96901">
        <ele>518</ele>
        <time>2011-07-03T07:24:30Z</time>
      </trkpt>
      <trkpt lat="45.74876" lon="5.96901">
        <ele>518</ele>
        <time>2011-07-03T07:24:31Z</time>
      </trkpt>
      <trkpt lat="45.74878" lon="5.96901">
        <ele>518</ele>
        <time>2011-07-03T07:24:32Z</time>
      </trkpt>
      <trkpt lat="45.7488" lon="5.969">
        <ele>518</ele>
        <time>2011-07-03T07:24:33Z</time>
      </trkpt>
      <trkpt lat="45.74882" lon="5.969">
        <ele>518</ele>
        <time>2011-07-03T07:24:34Z</time>
      </trkpt>
      <trkpt lat="45.74884" lon="5.96899">
        <ele>518</ele>
        <time>2011-07-03T07:24:35Z</time>
      </trkpt>
      <trkpt lat="45.74886" lon="5.96899">
        <ele>518</ele>
        <time>2011-07-03T07:24:36Z</time>
      </trkpt>
      <trkpt lat="45.74888" lon="5.96899">
        <ele>518</ele>
        <time>2011-07-03T07:24:37Z</time>
      </trkpt>
      <trkpt lat="45.7489" lon="5.96898">
        <ele>518</ele>
        <time>2011-07-03T07:24:38Z</time>
      </trkpt>
      <trkpt lat="45.74892" lon="5.96898">
        <ele>518</ele>
        <time>2011-07-03T07:24:39Z</time>
      </trkpt>
      <trkpt lat="45.74894" lon="5.96898">
        <ele>518</ele>
        <time>2011-07-03T07:24:40Z</time>
      </trkpt>
      <trkpt lat="45.74896" lon="5.96898">
        <ele>518</ele>
        <time>2011-07-03T07:24:41Z</time>
      </trkpt>
      <trkpt lat="45.74898" lon="5.96898">
        <ele>518</ele>
        <time>2011-07-03T07:24:42Z</time>
      </trkpt>
      <trkpt lat="45.749" lon="5.96898">
        <ele>518</ele>
        <time>2011-07-03T07:24:43Z</time>
      </trkpt>
      <trkpt lat="45.74902" lon="5.96898">
        <ele>518</ele>
        <time>2011-07-03T07:24:44Z</time>
      </trkpt>
      <trkpt lat="45.74904" lon="5.96898">
        <ele>518</ele>
        <time>2011-07-03T07:24:45Z</time>
      </trkpt>
      <trkpt lat="45.74906" lon="5.96899">
        <ele>518</ele>
        <time>2011-07-03T07:24:46Z</time>
      </trkpt>
      <trkpt lat="45.74908" lon="5.969">
        <ele>519</ele>
        <time>2011-07-03T07:24:47Z</time>
      </trkpt>
      <trkpt lat="45.7491" lon="5.96901">
        <ele>519</ele>
        <time>2011-07-03T07:24:48Z</time>
      </trkpt>
      <trkpt lat="45.74912" lon="5.96902">
        <ele>519</ele>
        <time>2011-07-03T07:24:49Z</time>
      </trkpt>
      <trkpt lat="45.74914" lon="5.96903">
        <ele>519</ele>
        <time>2011-07-03T07:24:50Z</time>
      </trkpt>
      <trkpt lat="45.74916" lon="5.96905">
        <ele>519</ele>
        <time>2011-07-03T07:24:51Z</time>
      </trkpt>
      <trkpt lat="45.74918" lon="5.96906">
        <ele>519</ele>
        <time>2011-07-03T07:24:52Z</time>
      </trkpt>
      <trkpt lat="45.7492" lon="5.96908">
        <ele>519</ele>
        <time>2011-07-03T07:24:53Z</time>
      </trkpt>
      <trkpt lat="45.74923" lon="5.96909">
        <ele>519</ele>
        <time>2011-07-03T07:24:54Z</time>
      </trkpt>
      <trkpt lat="45.74925" lon="5.9691">
        <ele>519</ele>
        <time>2011-07-03T07:24:55Z</time>
      </trkpt>
      <trkpt lat="45.74927" lon="5.96911">
        <ele>519</ele>
        <time>2011-07-03T07:24:56Z</time>
      </trkpt>
      <trkpt lat="45.74929" lon="5.96912">
        <ele>519</ele>
        <time>2011-07-03T07:24:57Z</time>
      </trkpt>
      <trkpt lat="45.74931" lon="5.96914">
        <ele>520</ele>
        <time>2011-07-03T07:24:58Z</time>
      </trkpt>
      <trkpt lat="45.74933" lon="5.96915">
        <ele>520</ele>
        <time>2011-07-03T07:24:59Z</time>
      </trkpt>
      <trkpt lat="45.74935" lon="5.96916">
        <ele>520</ele>
        <time>2011-07-03T07:25:00Z</time>
      </trkpt>
      <trkpt lat="45.74937" lon="5.96917">
        <ele>520</ele>
        <time>2011-07-03T07:25:01Z</time>
      </trkpt>
      <trkpt lat="45.74939" lon="5.96918">
        <ele>520</ele>
        <time>2011-07-03T07:25:02Z</time>
      </trkpt>
      <trkpt lat="45.7494" lon="5.96919">
        <ele>521</ele>
        <time>2011-07-03T07:25:03Z</time>
      </trkpt>
      <trkpt lat="45.74942" lon="5.96921">
        <ele>521</ele>
        <time>2011-07-03T07:25:04Z</time>
      </trkpt>
      <trkpt lat="45.74944" lon="5.96922">
        <ele>521</ele>
        <time>2011-07-03T07:25:05Z</time>
      </trkpt>
      <trkpt lat="45.74945" lon="5.96924">
        <ele>522</ele>
        <time>2011-07-03T07:25:06Z</time>
      </trkpt>
      <trkpt lat="45.74947" lon="5.96925">
        <ele>522</ele>
        <time>2011-07-03T07:25:07Z</time>
      </trkpt>
      <trkpt lat="45.74949" lon="5.96926">
        <ele>522</ele>
        <time>2011-07-03T07:25:08Z</time>
      </trkpt>
      <trkpt lat="45.7495" lon="5.96927">
        <ele>522</ele>
        <time>2011-07-03T07:25:09Z</time>
      </trkpt>
      <trkpt lat="45.74952" lon="5.96929">
        <ele>523</ele>
        <time>2011-07-03T07:25:10Z</time>
      </trkpt>
      <trkpt lat="45.74954" lon="5.96931">
        <ele>523</ele>
        <time>2011-07-03T07:25:11Z</time>
      </trkpt>
      <trkpt lat="45.74956" lon="5.96933">
        <ele>523</ele>
        <time>2011-07-03T07:25:12Z</time>
      </trkpt>
      <trkpt lat="45.74957" lon="5.96935">
        <ele>523</ele>
        <time>2011-07-03T07:25:13Z</time>
      </trkpt>
      <trkpt lat="45.74958" lon="5.96938">
        <ele>524</ele>
        <time>2011-07-03T07:25:14Z</time>
      </trkpt>
      <trkpt lat="45.74958" lon="5.96939">
        <ele>524</ele>
        <time>2011-07-03T07:25:15Z</time>
      </trkpt>
      <trkpt lat="45.74958" lon="5.96941">
        <ele>524</ele>
        <time>2011-07-03T07:25:16Z</time>
      </trkpt>
      <trkpt lat="45.74958" lon="5.96944">
        <ele>524</ele>
        <time>2011-07-03T07:25:17Z</time>
      </trkpt>
      <trkpt lat="45.74959" lon="5.96946">
        <ele>525</ele>
        <time>2011-07-03T07:25:18Z</time>
      </trkpt>
      <trkpt lat="45.74959" lon="5.96948">
        <ele>525</ele>
        <time>2011-07-03T07:25:19Z</time>
      </trkpt>
      <trkpt lat="45.74958" lon="5.9695">
        <ele>526</ele>
        <time>2011-07-03T07:25:20Z</time>
      </trkpt>
      <trkpt lat="45.74958" lon="5.96952">
        <ele>526</ele>
        <time>2011-07-03T07:25:22Z</time>
      </trkpt>
      <trkpt lat="45.74959" lon="5.96954">
        <ele>526</ele>
        <time>2011-07-03T07:25:25Z</time>
      </trkpt>
      <trkpt lat="45.7496" lon="5.96956">
        <ele>526</ele>
        <time>2011-07-03T07:25:28Z</time>
      </trkpt>
      <trkpt lat="45.74961" lon="5.96956">
        <ele>526</ele>
        <time>2011-07-03T07:25:32Z</time>
      </trkpt>
      <trkpt lat="45.7496" lon="5.96958">
        <ele>528</ele>
        <time>2011-07-03T07:26:53Z</time>
      </trkpt>
      <trkpt lat="45.7496" lon="5.96956">
        <ele>528</ele>
        <time>2011-07-03T07:27:04Z</time>
      </trkpt>
      <trkpt lat="45.74959" lon="5.96954">
        <ele>531</ele>
        <time>2011-07-03T07:27:09Z</time>
      </trkpt>
      <trkpt lat="45.74959" lon="5.96953">
        <ele>534</ele>
        <time>2011-07-03T07:27:15Z</time>
      </trkpt>
      <trkpt lat="45.74958" lon="5.96951">
        <ele>537</ele>
        <time>2011-07-03T07:27:22Z</time>
      </trkpt>
      <trkpt lat="45.74958" lon="5.9695">
        <ele>538</ele>
        <time>2011-07-03T07:27:34Z</time>
      </trkpt>
      <trkpt lat="45.74957" lon="5.96948">
        <ele>540</ele>
        <time>2011-07-03T07:27:42Z</time>
      </trkpt>
      <trkpt lat="45.74956" lon="5.96947">
        <ele>542</ele>
        <time>2011-07-03T07:27:48Z</time>
      </trkpt>
      <trkpt lat="45.74955" lon="5.96945">
        <ele>544</ele>
        <time>2011-07-03T07:27:54Z</time>
      </trkpt>
      <trkpt lat="45.74955" lon="5.96944">
        <ele>546</ele>
        <time>2011-07-03T07:28:01Z</time>
      </trkpt>
      <trkpt lat="45.74954" lon="5.96942">
        <ele>548</ele>
        <time>2011-07-03T07:28:15Z</time>
      </trkpt>
      <trkpt lat="45.74954" lon="5.96941">
        <ele>551</ele>
        <time>2011-07-03T07:28:46Z</time>
      </trkpt>
      <trkpt lat="45.74953" lon="5.96939">
        <ele>552</ele>
        <time>2011-07-03T07:29:07Z</time>
      </trkpt>
      <trkpt lat="45.74952" lon="5.96938">
        <ele>554</ele>
        <time>2011-07-03T07:29:33Z</time>
      </trkpt>
      <trkpt lat="45.74951" lon="5.96938">
        <ele>557</ele>
        <time>2011-07-03T07:30:32Z</time>
      </trkpt>
      <trkpt lat="45.7495" lon="5.96938">
        <ele>557</ele>
        <time>2011-07-03T07:30:44Z</time>
      </trkpt>
      <trkpt lat="45.7495" lon="5.9694">
        <ele>557</ele>
        <time>2011-07-03T07:31:02Z</time>
      </trkpt>
      <trkpt lat="45.74952" lon="5.96942">
        <ele>557</ele>
        <time>2011-07-03T07:31:05Z</time>
      </trkpt>
      <trkpt lat="45.74952" lon="5.96943">
        <ele>556</ele>
        <time>2011-07-03T07:31:08Z</time>
      </trkpt>
      <trkpt lat="45.74954" lon="5.96946">
        <ele>554</ele>
        <time>2011-07-03T07:31:11Z</time>
      </trkpt>
      <trkpt lat="45.74955" lon="5.96947">
        <ele>553</ele>
        <time>2011-07-03T07:31:12Z</time>
      </trkpt>
      <trkpt lat="45.74955" lon="5.96949">
        <ele>539</ele>
        <time>2011-07-03T07:31:52Z</time>
      </trkpt>
      <trkpt lat="45.74956" lon="5.96951">
        <ele>537</ele>
        <time>2011-07-03T07:32:02Z</time>
      </trkpt>
      <trkpt lat="45.74957" lon="5.96953">
        <ele>537</ele>
        <time>2011-07-03T07:32:05Z</time>
      </trkpt>
      <trkpt lat="45.74958" lon="5.96954">
        <ele>536</ele>
        <time>2011-07-03T07:32:07Z</time>
      </trkpt>
      <trkpt lat="45.74958" lon="5.96956">
        <ele>534</ele>
        <time>2011-07-03T07:32:10Z</time>
      </trkpt>
      <trkpt lat="45.74958" lon="5.96958">
        <ele>534</ele>
        <time>2011-07-03T07:32:17Z</time>
      </trkpt>
      <trkpt lat="45.74958" lon="5.9696">
        <ele>534</ele>
        <time>2011-07-03T07:32:20Z</time>
      </trkpt>
      <trkpt lat="45.74958" lon="5.96962">
        <ele>534</ele>
        <time>2011-07-03T07:32:22Z</time>
      </trkpt>
      <trkpt lat="45.7496" lon="5.96964">
        <ele>533</ele>
        <time>2011-07-03T07:32:24Z</time>
      </trkpt>
      <trkpt lat="45.7496" lon="5.96965">
        <ele>533</ele>
        <time>2011-07-03T07:32:25Z</time>
      </trkpt>
      <trkpt lat="45.7496" lon="5.96968">
        <ele>533</ele>
        <time>2011-07-03T07:32:27Z</time>
      </trkpt>
      <trkpt lat="45.7496" lon="5.9697">
        <ele>533</ele>
        <time>2011-07-03T07:32:29Z</time>
      </trkpt>
      <trkpt lat="45.74961" lon="5.96973">
        <ele>533</ele>
        <time>2011-07-03T07:32:31Z</time>
      </trkpt>
      <trkpt lat="45.74961" lon="5.96975">
        <ele>533</ele>
        <time>2011-07-03T07:32:32Z</time>
      </trkpt>
      <trkpt lat="45.74963" lon="5.96977">
        <ele>533</ele>
        <time>2011-07-03T07:32:34Z</time>
      </trkpt>
      <trkpt lat="45.74965" lon="5.96979">
        <ele>533</ele>
        <time>2011-07-03T07:32:36Z</time>
      </trkpt>
      <trkpt lat="45.74967" lon="5.96981">
        <ele>533</ele>
        <time>2011-07-03T07:32:38Z</time>
      </trkpt>
      <trkpt lat="45.74968" lon="5.96982">
        <ele>533</ele>
        <time>2011-07-03T07:32:40Z</time>
      </trkpt>
      <trkpt lat="45.7497" lon="5.96983">
        <ele>533</ele>
        <time>2011-07-03T07:32:42Z</time>
      </trkpt>
      <trkpt lat="45.74972" lon="5.96984">
        <ele>533</ele>
        <time>2011-07-03T07:32:43Z</time>
      </trkpt>
      <trkpt lat="45.74974" lon="5.96984">
        <ele>533</ele>
        <time>2011-07-03T07:32:44Z</time>
      </trkpt>
      <trkpt lat="45.74975" lon="5.96985">
        <ele>533</ele>
        <time>2011-07-03T07:32:45Z</time>
      </trkpt>
      <trkpt lat="45.74978" lon="5.96985">
        <ele>533</ele>
        <time>2011-07-03T07:32:46Z</time>
      </trkpt>
      <trkpt lat="45.7498" lon="5.96986">
        <ele>533</ele>
        <time>2011-07-03T07:32:47Z</time>
      </trkpt>
      <trkpt lat="45.74982" lon="5.96986">
        <ele>533</ele>
        <time>2011-07-03T07:32:48Z</time>
      </trkpt>
      <trkpt lat="45.74985" lon="5.96986">
        <ele>533</ele>
        <time>2011-07-03T07:32:49Z</time>
      </trkpt>
      <trkpt lat="45.74987" lon="5.96986">
        <ele>533</ele>
        <time>2011-07-03T07:32:50Z</time>
      </trkpt>
      <trkpt lat="45.7499" lon="5.96986">
        <ele>533</ele>
        <time>2011-07-03T07:32:51Z</time>
      </trkpt>
      <trkpt lat="45.74993" lon="5.96986">
        <ele>533</ele>
        <time>2011-07-03T07:32:52Z</time>
      </trkpt>
      <trkpt lat="45.74996" lon="5.96985">
        <ele>533</ele>
        <time>2011-07-03T07:32:53Z</time>
      </trkpt>
      <trkpt lat="45.74998" lon="5.96984">
        <ele>533</ele>
        <time>2011-07-03T07:32:54Z</time>
      </trkpt>
      <trkpt lat="45.75001" lon="5.96982">
        <ele>533</ele>
        <time>2011-07-03T07:32:55Z</time>
      </trkpt>
      <trkpt lat="45.75003" lon="5.9698">
        <ele>533</ele>
        <time>2011-07-03T07:32:56Z</time>
      </trkpt>
      <trkpt lat="45.75005" lon="5.96977">
        <ele>533</ele>
        <time>2011-07-03T07:32:57Z</time>
      </trkpt>
      <trkpt lat="45.75007" lon="5.96974">
        <ele>533</ele>
        <time>2011-07-03T07:32:58Z</time>
      </trkpt>
      <trkpt lat="45.75008" lon="5.9697">
        <ele>533</ele>
        <time>2011-07-03T07:32:59Z</time>
      </trkpt>
      <trkpt lat="45.75008" lon="5.96967">
        <ele>533</ele>
        <time>2011-07-03T07:33:00Z</time>
      </trkpt>
      <trkpt lat="45.75008" lon="5.96964">
        <ele>533</ele>
        <time>2011-07-03T07:33:01Z</time>
      </trkpt>
      <trkpt lat="45.75009" lon="5.9696">
        <ele>533</ele>
        <time>2011-07-03T07:33:02Z</time>
      </trkpt>
      <trkpt lat="45.75008" lon="5.96956">
        <ele>533</ele>
        <time>2011-07-03T07:33:03Z</time>
      </trkpt>
      <trkpt lat="45.75008" lon="5.96952">
        <ele>533</ele>
        <time>2011-07-03T07:33:04Z</time>
      </trkpt>
      <trkpt lat="45.75009" lon="5.96948">
        <ele>533</ele>
        <time>2011-07-03T07:33:05Z</time>
      </trkpt>
      <trkpt lat="45.7501" lon="5.96945">
        <ele>533</ele>
        <time>2011-07-03T07:33:06Z</time>
      </trkpt>
      <trkpt lat="45.75011" lon="5.9694">
        <ele>533</ele>
        <time>2011-07-03T07:33:07Z</time>
      </trkpt>
      <trkpt lat="45.75013" lon="5.96936">
        <ele>533</ele>
        <time>2011-07-03T07:33:08Z</time>
      </trkpt>
      <trkpt lat="45.75015" lon="5.96931">
        <ele>532</ele>
        <time>2011-07-03T07:33:09Z</time>
      </trkpt>
      <trkpt lat="45.75017" lon="5.96927">
        <ele>531</ele>
        <time>2011-07-03T07:33:10Z</time>
      </trkpt>
      <trkpt lat="45.75018" lon="5.96922">
        <ele>531</ele>
        <time>2011-07-03T07:33:11Z</time>
      </trkpt>
      <trkpt lat="45.7502" lon="5.96918">
        <ele>531</ele>
        <time>2011-07-03T07:33:12Z</time>
      </trkpt>
      <trkpt lat="45.75022" lon="5.96914">
        <ele>531</ele>
        <time>2011-07-03T07:33:13Z</time>
      </trkpt>
      <trkpt lat="45.75024" lon="5.96911">
        <ele>530</ele>
        <time>2011-07-03T07:33:14Z</time>
      </trkpt>
      <trkpt lat="45.75026" lon="5.96908">
        <ele>530</ele>
        <time>2011-07-03T07:33:15Z</time>
      </trkpt>
      <trkpt lat="45.75027" lon="5.96905">
        <ele>530</ele>
        <time>2011-07-03T07:33:16Z</time>
      </trkpt>
      <trkpt lat="45.75029" lon="5.96901">
        <ele>530</ele>
        <time>2011-07-03T07:33:17Z</time>
      </trkpt>
      <trkpt lat="45.7503" lon="5.96898">
        <ele>530</ele>
        <time>2011-07-03T07:33:18Z</time>
      </trkpt>
      <trkpt lat="45.75031" lon="5.96895">
        <ele>530</ele>
        <time>2011-07-03T07:33:19Z</time>
      </trkpt>
      <trkpt lat="45.75032" lon="5.96892">
        <ele>530</ele>
        <time>2011-07-03T07:33:20Z</time>
      </trkpt>
      <trkpt lat="45.75034" lon="5.96889">
        <ele>529</ele>
        <time>2011-07-03T07:33:21Z</time>
      </trkpt>
      <trkpt lat="45.75035" lon="5.96887">
        <ele>529</ele>
        <time>2011-07-03T07:33:22Z</time>
      </trkpt>
      <trkpt lat="45.75037" lon="5.96885">
        <ele>529</ele>
        <time>2011-07-03T07:33:23Z</time>
      </trkpt>
      <trkpt lat="45.75038" lon="5.96883">
        <ele>529</ele>
        <time>2011-07-03T07:33:24Z</time>
      </trkpt>
      <trkpt lat="45.75039" lon="5.9688">
        <ele>529</ele>
        <time>2011-07-03T07:33:25Z</time>
      </trkpt>
      <trkpt lat="45.7504" lon="5.96877">
        <ele>529</ele>
        <time>2011-07-03T07:33:26Z</time>
      </trkpt>
      <trkpt lat="45.75041" lon="5.96874">
        <ele>529</ele>
        <time>2011-07-03T07:33:27Z</time>
      </trkpt>
      <trkpt lat="45.75042" lon="5.96871">
        <ele>529</ele>
        <time>2011-07-03T07:33:28Z</time>
      </trkpt>
      <trkpt lat="45.75043" lon="5.96867">
        <ele>529</ele>
        <time>2011-07-03T07:33:29Z</time>
      </trkpt>
      <trkpt lat="45.75045" lon="5.96865">
        <ele>529</ele>
        <time>2011-07-03T07:33:30Z</time>
      </trkpt>
      <trkpt lat="45.75047" lon="5.96862">
        <ele>528</ele>
        <time>2011-07-03T07:33:31Z</time>
      </trkpt>
      <trkpt lat="45.75048" lon="5.96859">
        <ele>528</ele>
        <time>2011-07-03T07:33:32Z</time>
      </trkpt>
      <trkpt lat="45.7505" lon="5.96856">
        <ele>528</ele>
        <time>2011-07-03T07:33:33Z</time>
      </trkpt>
      <trkpt lat="45.75051" lon="5.96854">
        <ele>528</ele>
        <time>2011-07-03T07:33:34Z</time>
      </trkpt>
      <trkpt lat="45.75052" lon="5.96852">
        <ele>528</ele>
        <time>2011-07-03T07:33:35Z</time>
      </trkpt>
      <trkpt lat="45.75054" lon="5.9685">
        <ele>528</ele>
        <time>2011-07-03T07:33:36Z</time>
      </trkpt>
      <trkpt lat="45.75056" lon="5.96849">
        <ele>527</ele>
        <time>2011-07-03T07:33:37Z</time>
      </trkpt>
      <trkpt lat="45.75057" lon="5.96849">
        <ele>527</ele>
        <time>2011-07-03T07:33:38Z</time>
      </trkpt>
      <trkpt lat="45.75058" lon="5.96848">
        <ele>527</ele>
        <time>2011-07-03T07:33:39Z</time>
      </trkpt>
      <trkpt lat="45.7506" lon="5.96848">
        <ele>527</ele>
        <time>2011-07-03T07:33:41Z</time>
      </trkpt>
      <trkpt lat="45.75061" lon="5.96847">
        <ele>527</ele>
        <time>2011-07-03T07:33:43Z</time>
      </trkpt>
      <trkpt lat="45.75063" lon="5.96847">
        <ele>527</ele>
        <time>2011-07-03T07:33:45Z</time>
      </trkpt>
      <trkpt lat="45.75064" lon="5.96848">
        <ele>527</ele>
        <time>2011-07-03T07:33:48Z</time>
      </trkpt>
      <trkpt lat="45.75065" lon="5.96848">
        <ele>527</ele>
        <time>2011-07-03T07:33:50Z</time>
      </trkpt>
      <trkpt lat="45.75066" lon="5.96848">
        <ele>527</ele>
        <time>2011-07-03T07:33:51Z</time>
      </trkpt>
      <trkpt lat="45.75068" lon="5.96848">
        <ele>527</ele>
        <time>2011-07-03T07:33:53Z</time>
      </trkpt>
      <trkpt lat="45.75069" lon="5.96847">
        <ele>527</ele>
        <time>2011-07-03T07:33:55Z</time>
      </trkpt>
      <trkpt lat="45.75071" lon="5.96847">
        <ele>527</ele>
        <time>2011-07-03T07:34:00Z</time>
      </trkpt>
      <trkpt lat="45.75073" lon="5.96847">
        <ele>527</ele>
        <time>2011-07-03T07:34:01Z</time>
      </trkpt>
      <trkpt lat="45.75074" lon="5.96847">
        <ele>526</ele>
        <time>2011-07-03T07:34:04Z</time>
      </trkpt>
      <trkpt lat="45.75077" lon="5.96848">
        <ele>526</ele>
        <time>2011-07-03T07:34:06Z</time>
      </trkpt>
      <trkpt lat="45.75079" lon="5.96848">
        <ele>526</ele>
        <time>2011-07-03T07:34:08Z</time>
      </trkpt>
      <trkpt lat="45.75081" lon="5.96848">
        <ele>526</ele>
        <time>2011-07-03T07:34:09Z</time>
      </trkpt>
      <trkpt lat="45.75083" lon="5.96848">
        <ele>526</ele>
        <time>2011-07-03T07:34:10Z</time>
      </trkpt>
      <trkpt lat="45.75085" lon="5.96849">
        <ele>526</ele>
        <time>2011-07-03T07:34:11Z</time>
      </trkpt>
      <trkpt lat="45.75087" lon="5.96849">
        <ele>526</ele>
        <time>2011-07-03T07:34:12Z</time>
      </trkpt>
      <trkpt lat="45.75089" lon="5.96849">
        <ele>526</ele>
        <time>2011-07-03T07:34:13Z</time>
      </trkpt>
      <trkpt lat="45.7509" lon="5.96848">
        <ele>525</ele>
        <time>2011-07-03T07:34:14Z</time>
      </trkpt>
      <trkpt lat="45.75092" lon="5.96848">
        <ele>525</ele>
        <time>2011-07-03T07:34:15Z</time>
      </trkpt>
      <trkpt lat="45.75093" lon="5.96848">
        <ele>525</ele>
        <time>2011-07-03T07:34:16Z</time>
      </trkpt>
      <trkpt lat="45.75095" lon="5.96849">
        <ele>525</ele>
        <time>2011-07-03T07:34:17Z</time>
      </trkpt>
      <trkpt lat="45.75097" lon="5.96848">
        <ele>525</ele>
        <time>2011-07-03T07:34:18Z</time>
      </trkpt>
      <trkpt lat="45.75098" lon="5.96847">
        <ele>524</ele>
        <time>2011-07-03T07:34:19Z</time>
      </trkpt>
      <trkpt lat="45.75099" lon="5.96844">
        <ele>524</ele>
        <time>2011-07-03T07:34:20Z</time>
      </trkpt>
      <trkpt lat="45.751" lon="5.96842">
        <ele>524</ele>
        <time>2011-07-03T07:34:21Z</time>
      </trkpt>
      <trkpt lat="45.751" lon="5.96841">
        <ele>524</ele>
        <time>2011-07-03T07:34:22Z</time>
      </trkpt>
      <trkpt lat="45.75101" lon="5.96839">
        <ele>524</ele>
        <time>2011-07-03T07:34:23Z</time>
      </trkpt>
      <trkpt lat="45.75102" lon="5.96838">
        <ele>524</ele>
        <time>2011-07-03T07:34:24Z</time>
      </trkpt>
      <trkpt lat="45.75103" lon="5.96836">
        <ele>524</ele>
        <time>2011-07-03T07:34:25Z</time>
      </trkpt>
      <trkpt lat="45.75105" lon="5.96834">
        <ele>524</ele>
        <time>2011-07-03T07:34:26Z</time>
      </trkpt>
      <trkpt lat="45.75106" lon="5.96834">
        <ele>524</ele>
        <time>2011-07-03T07:34:27Z</time>
      </trkpt>
      <trkpt lat="45.75108" lon="5.96834">
        <ele>524</ele>
        <time>2011-07-03T07:34:28Z</time>
      </trkpt>
      <trkpt lat="45.7511" lon="5.96835">
        <ele>524</ele>
        <time>2011-07-03T07:34:29Z</time>
      </trkpt>
      <trkpt lat="45.75112" lon="5.96835">
        <ele>524</ele>
        <time>2011-07-03T07:34:30Z</time>
      </trkpt>
      <trkpt lat="45.75114" lon="5.96836">
        <ele>524</ele>
        <time>2011-07-03T07:34:31Z</time>
      </trkpt>
      <trkpt lat="45.75116" lon="5.96837">
        <ele>524</ele>
        <time>2011-07-03T07:34:32Z</time>
      </trkpt>
      <trkpt lat="45.75118" lon="5.96838">
        <ele>524</ele>
        <time>2011-07-03T07:34:33Z</time>
      </trkpt>
      <trkpt lat="45.75121" lon="5.96838">
        <ele>524</ele>
        <time>2011-07-03T07:34:34Z</time>
      </trkpt>
      <trkpt lat="45.75123" lon="5.96838">
        <ele>524</ele>
        <time>2011-07-03T07:34:35Z</time>
      </trkpt>
      <trkpt lat="45.75126" lon="5.96838">
        <ele>524</ele>
        <time>2011-07-03T07:34:36Z</time>
      </trkpt>
      <trkpt lat="45.75129" lon="5.96837">
        <ele>524</ele>
        <time>2011-07-03T07:34:37Z</time>
      </trkpt>
      <trkpt lat="45.75132" lon="5.96836">
        <ele>524</ele>
        <time>2011-07-03T07:34:38Z</time>
      </trkpt>
      <trkpt lat="45.75135" lon="5.96836">
        <ele>524</ele>
        <time>2011-07-03T07:34:39Z</time>
      </trkpt>
      <trkpt lat="45.75136" lon="5.96835">
        <ele>524</ele>
        <time>2011-07-03T07:34:40Z</time>
      </trkpt>
      <trkpt lat="45.75139" lon="5.96834">
        <ele>524</ele>
        <time>2011-07-03T07:34:41Z</time>
      </trkpt>
      <trkpt lat="45.75141" lon="5.96832">
        <ele>524</ele>
        <time>2011-07-03T07:34:42Z</time>
      </trkpt>
      <trkpt lat="45.75143" lon="5.96831">
        <ele>524</ele>
        <time>2011-07-03T07:34:43Z</time>
      </trkpt>
      <trkpt lat="45.75146" lon="5.9683">
        <ele>524</ele>
        <time>2011-07-03T07:34:44Z</time>
      </trkpt>
      <trkpt lat="45.75149" lon="5.9683">
        <ele>524</ele>
        <time>2011-07-03T07:34:45Z</time>
      </trkpt>
      <trkpt lat="45.75151" lon="5.9683">
        <ele>524</ele>
        <time>2011-07-03T07:34:46Z</time>
      </trkpt>
      <trkpt lat="45.75154" lon="5.9683">
        <ele>524</ele>
        <time>2011-07-03T07:34:47Z</time>
      </trkpt>
      <trkpt lat="45.75157" lon="5.96831">
        <ele>524</ele>
        <time>2011-07-03T07:34:48Z</time>
      </trkpt>
      <trkpt lat="45.7516" lon="5.96832">
        <ele>524</ele>
        <time>2011-07-03T07:34:49Z</time>
      </trkpt>
      <trkpt lat="45.75163" lon="5.96832">
        <ele>523</ele>
        <time>2011-07-03T07:34:50Z</time>
      </trkpt>
      <trkpt lat="45.75166" lon="5.96833">
        <ele>523</ele>
        <time>2011-07-03T07:34:51Z</time>
      </trkpt>
      <trkpt lat="45.75169" lon="5.96833">
        <ele>523</ele>
        <time>2011-07-03T07:34:52Z</time>
      </trkpt>
      <trkpt lat="45.75172" lon="5.96832">
        <ele>523</ele>
        <time>2011-07-03T07:34:53Z</time>
      </trkpt>
      <trkpt lat="45.75176" lon="5.96832">
        <ele>522</ele>
        <time>2011-07-03T07:34:54Z</time>
      </trkpt>
      <trkpt lat="45.7518" lon="5.96832">
        <ele>522</ele>
        <time>2011-07-03T07:34:55Z</time>
      </trkpt>
      <trkpt lat="45.75182" lon="5.96833">
        <ele>522</ele>
        <time>2011-07-03T07:34:56Z</time>
      </trkpt>
      <trkpt lat="45.75185" lon="5.96834">
        <ele>522</ele>
        <time>2011-07-03T07:34:57Z</time>
      </trkpt>
      <trkpt lat="45.75187" lon="5.96835">
        <ele>522</ele>
        <time>2011-07-03T07:34:58Z</time>
      </trkpt>
      <trkpt lat="45.7519" lon="5.96835">
        <ele>522</ele>
        <time>2011-07-03T07:34:59Z</time>
      </trkpt>
      <trkpt lat="45.75192" lon="5.96835">
        <ele>522</ele>
        <time>2011-07-03T07:35:00Z</time>
      </trkpt>
      <trkpt lat="45.75195" lon="5.96834">
        <ele>522</ele>
        <time>2011-07-03T07:35:01Z</time>
      </trkpt>
      <trkpt lat="45.75198" lon="5.96834">
        <ele>522</ele>
        <time>2011-07-03T07:35:02Z</time>
      </trkpt>
      <trkpt lat="45.752" lon="5.96834">
        <ele>522</ele>
        <time>2011-07-03T07:35:03Z</time>
      </trkpt>
      <trkpt lat="45.75203" lon="5.96835">
        <ele>522</ele>
        <time>2011-07-03T07:35:04Z</time>
      </trkpt>
      <trkpt lat="45.75206" lon="5.96835">
        <ele>522</ele>
        <time>2011-07-03T07:35:05Z</time>
      </trkpt>
      <trkpt lat="45.75209" lon="5.96836">
        <ele>522</ele>
        <time>2011-07-03T07:35:06Z</time>
      </trkpt>
      <trkpt lat="45.75211" lon="5.96837">
        <ele>522</ele>
        <time>2011-07-03T07:35:07Z</time>
      </trkpt>
      <trkpt lat="45.75214" lon="5.96837">
        <ele>522</ele>
        <time>2011-07-03T07:35:08Z</time>
      </trkpt>
      <trkpt lat="45.75217" lon="5.96838">
        <ele>521</ele>
        <time>2011-07-03T07:35:09Z</time>
      </trkpt>
      <trkpt lat="45.75219" lon="5.96838">
        <ele>521</ele>
        <time>2011-07-03T07:35:10Z</time>
      </trkpt>
      <trkpt lat="45.75221" lon="5.96839">
        <ele>521</ele>
        <time>2011-07-03T07:35:11Z</time>
      </trkpt>
      <trkpt lat="45.75224" lon="5.96839">
        <ele>520</ele>
        <time>2011-07-03T07:35:12Z</time>
      </trkpt>
      <trkpt lat="45.75227" lon="5.9684">
        <ele>520</ele>
        <time>2011-07-03T07:35:13Z</time>
      </trkpt>
      <trkpt lat="45.7523" lon="5.9684">
        <ele>520</ele>
        <time>2011-07-03T07:35:14Z</time>
      </trkpt>
      <trkpt lat="45.75232" lon="5.96841">
        <ele>520</ele>
        <time>2011-07-03T07:35:15Z</time>
      </trkpt>
      <trkpt lat="45.75235" lon="5.96841">
        <ele>520</ele>
        <time>2011-07-03T07:35:16Z</time>
      </trkpt>
      <trkpt lat="45.75238" lon="5.96842">
        <ele>520</ele>
        <time>2011-07-03T07:35:17Z</time>
      </trkpt>
      <trkpt lat="45.75241" lon="5.96844">
        <ele>520</ele>
        <time>2011-07-03T07:35:18Z</time>
      </trkpt>
      <trkpt lat="45.75245" lon="5.96843">
        <ele>520</ele>
        <time>2011-07-03T07:35:19Z</time>
      </trkpt>
      <trkpt lat="45.75248" lon="5.96844">
        <ele>520</ele>
        <time>2011-07-03T07:35:20Z</time>
      </trkpt>
      <trkpt lat="45.7525" lon="5.96845">
        <ele>520</ele>
        <time>2011-07-03T07:35:21Z</time>
      </trkpt>
      <trkpt lat="45.75253" lon="5.96846">
        <ele>520</ele>
        <time>2011-07-03T07:35:22Z</time>
      </trkpt>
      <trkpt lat="45.75255" lon="5.96846">
        <ele>520</ele>
        <time>2011-07-03T07:35:23Z</time>
      </trkpt>
      <trkpt lat="45.75257" lon="5.96847">
        <ele>520</ele>
        <time>2011-07-03T07:35:24Z</time>
      </trkpt>
      <trkpt lat="45.75259" lon="5.96847">
        <ele>520</ele>
        <time>2011-07-03T07:35:25Z</time>
      </trkpt>
      <trkpt lat="45.75261" lon="5.96848">
        <ele>520</ele>
        <time>2011-07-03T07:35:26Z</time>
      </trkpt>
      <trkpt lat="45.75262" lon="5.9685">
        <ele>520</ele>
        <time>2011-07-03T07:35:27Z</time>
      </trkpt>
      <trkpt lat="45.75264" lon="5.9685">
        <ele>520</ele>
        <time>2011-07-03T07:35:28Z</time>
      </trkpt>
      <trkpt lat="45.75266" lon="5.9685">
        <ele>520</ele>
        <time>2011-07-03T07:35:29Z</time>
      </trkpt>
      <trkpt lat="45.75268" lon="5.9685">
        <ele>520</ele>
        <time>2011-07-03T07:35:30Z</time>
      </trkpt>
      <trkpt lat="45.7527" lon="5.96851">
        <ele>520</ele>
        <time>2011-07-03T07:35:31Z</time>
      </trkpt>
      <trkpt lat="45.75272" lon="5.96851">
        <ele>520</ele>
        <time>2011-07-03T07:35:32Z</time>
      </trkpt>
      <trkpt lat="45.75275" lon="5.9685">
        <ele>520</ele>
        <time>2011-07-03T07:35:33Z</time>
      </trkpt>
      <trkpt lat="45.75278" lon="5.9685">
        <ele>520</ele>
        <time>2011-07-03T07:35:34Z</time>
      </trkpt>
      <trkpt lat="45.75281" lon="5.9685">
        <ele>520</ele>
        <time>2011-07-03T07:35:35Z</time>
      </trkpt>
      <trkpt lat="45.75285" lon="5.96851">
        <ele>520</ele>
        <time>2011-07-03T07:35:36Z</time>
      </trkpt>
      <trkpt lat="45.75288" lon="5.96851">
        <ele>520</ele>
        <time>2011-07-03T07:35:37Z</time>
      </trkpt>
      <trkpt lat="45.75292" lon="5.96852">
        <ele>520</ele>
        <time>2011-07-03T07:35:38Z</time>
      </trkpt>
      <trkpt lat="45.75296" lon="5.96853">
        <ele>520</ele>
        <time>2011-07-03T07:35:39Z</time>
      </trkpt>
      <trkpt lat="45.75299" lon="5.96854">
        <ele>520</ele>
        <time>2011-07-03T07:35:40Z</time>
      </trkpt>
      <trkpt lat="45.75302" lon="5.96855">
        <ele>520</ele>
        <time>2011-07-03T07:35:41Z</time>
      </trkpt>
      <trkpt lat="45.75305" lon="5.96857">
        <ele>520</ele>
        <time>2011-07-03T07:35:42Z</time>
      </trkpt>
      <trkpt lat="45.75309" lon="5.96858">
        <ele>520</ele>
        <time>2011-07-03T07:35:43Z</time>
      </trkpt>
      <trkpt lat="45.75312" lon="5.96858">
        <ele>520</ele>
        <time>2011-07-03T07:35:44Z</time>
      </trkpt>
      <trkpt lat="45.75316" lon="5.96858">
        <ele>520</ele>
        <time>2011-07-03T07:35:45Z</time>
      </trkpt>
      <trkpt lat="45.75319" lon="5.96858">
        <ele>520</ele>
        <time>2011-07-03T07:35:46Z</time>
      </trkpt>
      <trkpt lat="45.75322" lon="5.96858">
        <ele>520</ele>
        <time>2011-07-03T07:35:47Z</time>
      </trkpt>
      <trkpt lat="45.75325" lon="5.96858">
        <ele>520</ele>
        <time>2011-07-03T07:35:48Z</time>
      </trkpt>
      <trkpt lat="45.75327" lon="5.96858">
        <ele>520</ele>
        <time>2011-07-03T07:35:49Z</time>
      </trkpt>
      <trkpt lat="45.75329" lon="5.96858">
        <ele>520</ele>
        <time>2011-07-03T07:35:50Z</time>
      </trkpt>
      <trkpt lat="45.75331" lon="5.96859">
        <ele>520</ele>
        <time>2011-07-03T07:35:51Z</time>
      </trkpt>
      <trkpt lat="45.75333" lon="5.96859">
        <ele>520</ele>
        <time>2011-07-03T07:35:52Z</time>
      </trkpt>
      <trkpt lat="45.75336" lon="5.96859">
        <ele>520</ele>
        <time>2011-07-03T07:35:53Z</time>
      </trkpt>
      <trkpt lat="45.7534" lon="5.9686">
        <ele>520</ele>
        <time>2011-07-03T07:35:54Z</time>
      </trkpt>
      <trkpt lat="45.75343" lon="5.9686">
        <ele>520</ele>
        <time>2011-07-03T07:35:55Z</time>
      </trkpt>
      <trkpt lat="45.75346" lon="5.96861">
        <ele>520</ele>
        <time>2011-07-03T07:35:56Z</time>
      </trkpt>
      <trkpt lat="45.75347" lon="5.96863">
        <ele>520</ele>
        <time>2011-07-03T07:35:57Z</time>
      </trkpt>
      <trkpt lat="45.7535" lon="5.96865">
        <ele>520</ele>
        <time>2011-07-03T07:35:58Z</time>
      </trkpt>
      <trkpt lat="45.75355" lon="5.96866">
        <ele>520</ele>
        <time>2011-07-03T07:36:00Z</time>
      </trkpt>
      <trkpt lat="45.75357" lon="5.96869">
        <ele>520</ele>
        <time>2011-07-03T07:36:01Z</time>
      </trkpt>
      <trkpt lat="45.7536" lon="5.9687">
        <ele>520</ele>
        <time>2011-07-03T07:36:02Z</time>
      </trkpt>
      <trkpt lat="45.75363" lon="5.96873">
        <ele>520</ele>
        <time>2011-07-03T07:36:03Z</time>
      </trkpt>
      <trkpt lat="45.75365" lon="5.96874">
        <ele>520</ele>
        <time>2011-07-03T07:36:04Z</time>
      </trkpt>
      <trkpt lat="45.75367" lon="5.96874">
        <ele>520</ele>
        <time>2011-07-03T07:36:05Z</time>
      </trkpt>
      <trkpt lat="45.7537" lon="5.96874">
        <ele>520</ele>
        <time>2011-07-03T07:36:06Z</time>
      </trkpt>
      <trkpt lat="45.75372" lon="5.96874">
        <ele>520</ele>
        <time>2011-07-03T07:36:07Z</time>
      </trkpt>
      <trkpt lat="45.75375" lon="5.96874">
        <ele>520</ele>
        <time>2011-07-03T07:36:08Z</time>
      </trkpt>
      <trkpt lat="45.75378" lon="5.96875">
        <ele>520</ele>
        <time>2011-07-03T07:36:09Z</time>
      </trkpt>
      <trkpt lat="45.75381" lon="5.96876">
        <ele>520</ele>
        <time>2011-07-03T07:36:10Z</time>
      </trkpt>
      <trkpt lat="45.75384" lon="5.96877">
        <ele>520</ele>
        <time>2011-07-03T07:36:11Z</time>
      </trkpt>
      <trkpt lat="45.75387" lon="5.96878">
        <ele>520</ele>
        <time>2011-07-03T07:36:12Z</time>
      </trkpt>
      <trkpt lat="45.75389" lon="5.9688">
        <ele>520</ele>
        <time>2011-07-03T07:36:13Z</time>
      </trkpt>
      <trkpt lat="45.75391" lon="5.96882">
        <ele>520</ele>
        <time>2011-07-03T07:36:14Z</time>
      </trkpt>
      <trkpt lat="45.75394" lon="5.96884">
        <ele>520</ele>
        <time>2011-07-03T07:36:15Z</time>
      </trkpt>
      <trkpt lat="45.75397" lon="5.96885">
        <ele>520</ele>
        <time>2011-07-03T07:36:16Z</time>
      </trkpt>
      <trkpt lat="45.75399" lon="5.96887">
        <ele>520</ele>
        <time>2011-07-03T07:36:17Z</time>
      </trkpt>
      <trkpt lat="45.75401" lon="5.96889">
        <ele>520</ele>
        <time>2011-07-03T07:36:18Z</time>
      </trkpt>
      <trkpt lat="45.75404" lon="5.96889">
        <ele>520</ele>
        <time>2011-07-03T07:36:19Z</time>
      </trkpt>
      <trkpt lat="45.75407" lon="5.9689">
        <ele>520</ele>
        <time>2011-07-03T07:36:20Z</time>
      </trkpt>
      <trkpt lat="45.75411" lon="5.9689">
        <ele>520</ele>
        <time>2011-07-03T07:36:21Z</time>
      </trkpt>
      <trkpt lat="45.75414" lon="5.96891">
        <ele>520</ele>
        <time>2011-07-03T07:36:22Z</time>
      </trkpt>
      <trkpt lat="45.75417" lon="5.96891">
        <ele>519</ele>
        <time>2011-07-03T07:36:23Z</time>
      </trkpt>
      <trkpt lat="45.7542" lon="5.96892">
        <ele>519</ele>
        <time>2011-07-03T07:36:24Z</time>
      </trkpt>
      <trkpt lat="45.75421" lon="5.96892">
        <ele>519</ele>
        <time>2011-07-03T07:36:25Z</time>
      </trkpt>
      <trkpt lat="45.75423" lon="5.96892">
        <ele>519</ele>
        <time>2011-07-03T07:36:26Z</time>
      </trkpt>
      <trkpt lat="45.75423" lon="5.9689">
        <ele>517</ele>
        <time>2011-07-03T07:36:37Z</time>
      </trkpt>
      <trkpt lat="45.75424" lon="5.9689">
        <ele>517</ele>
        <time>2011-07-03T07:36:39Z</time>
      </trkpt>
      <trkpt lat="45.75425" lon="5.96891">
        <ele>517</ele>
        <time>2011-07-03T07:36:40Z</time>
      </trkpt>
      <trkpt lat="45.75428" lon="5.96892">
        <ele>517</ele>
        <time>2011-07-03T07:36:41Z</time>
      </trkpt>
      <trkpt lat="45.7543" lon="5.96894">
        <ele>517</ele>
        <time>2011-07-03T07:36:42Z</time>
      </trkpt>
      <trkpt lat="45.75432" lon="5.96895">
        <ele>517</ele>
        <time>2011-07-03T07:36:43Z</time>
      </trkpt>
      <trkpt lat="45.75435" lon="5.96896">
        <ele>517</ele>
        <time>2011-07-03T07:36:44Z</time>
      </trkpt>
      <trkpt lat="45.75438" lon="5.96897">
        <ele>517</ele>
        <time>2011-07-03T07:36:45Z</time>
      </trkpt>
      <trkpt lat="45.7544" lon="5.96897">
        <ele>517</ele>
        <time>2011-07-03T07:36:46Z</time>
      </trkpt>
      <trkpt lat="45.75443" lon="5.96898">
        <ele>517</ele>
        <time>2011-07-03T07:36:47Z</time>
      </trkpt>
      <trkpt lat="45.75446" lon="5.96898">
        <ele>517</ele>
        <time>2011-07-03T07:36:48Z</time>
      </trkpt>
      <trkpt lat="45.75448" lon="5.96899">
        <ele>517</ele>
        <time>2011-07-03T07:36:49Z</time>
      </trkpt>
      <trkpt lat="45.75451" lon="5.96899">
        <ele>517</ele>
        <time>2011-07-03T07:36:50Z</time>
      </trkpt>
      <trkpt lat="45.75454" lon="5.96899">
        <ele>517</ele>
        <time>2011-07-03T07:36:51Z</time>
      </trkpt>
      <trkpt lat="45.75456" lon="5.96899">
        <ele>517</ele>
        <time>2011-07-03T07:36:52Z</time>
      </trkpt>
      <trkpt lat="45.75459" lon="5.96899">
        <ele>517</ele>
        <time>2011-07-03T07:36:53Z</time>
      </trkpt>
      <trkpt lat="45.75462" lon="5.96898">
        <ele>517</ele>
        <time>2011-07-03T07:36:54Z</time>
      </trkpt>
      <trkpt lat="45.75466" lon="5.96899">
        <ele>517</ele>
        <time>2011-07-03T07:36:55Z</time>
      </trkpt>
      <trkpt lat="45.75469" lon="5.96899">
        <ele>517</ele>
        <time>2011-07-03T07:36:56Z</time>
      </trkpt>
      <trkpt lat="45.75472" lon="5.96899">
        <ele>517</ele>
        <time>2011-07-03T07:36:57Z</time>
      </trkpt>
      <trkpt lat="45.75475" lon="5.969">
        <ele>517</ele>
        <time>2011-07-03T07:36:58Z</time>
      </trkpt>
      <trkpt lat="45.75478" lon="5.969">
        <ele>517</ele>
        <time>2011-07-03T07:36:59Z</time>
      </trkpt>
      <trkpt lat="45.75481" lon="5.969">
        <ele>517</ele>
        <time>2011-07-03T07:37:00Z</time>
      </trkpt>
      <trkpt lat="45.75484" lon="5.969">
        <ele>517</ele>
        <time>2011-07-03T07:37:01Z</time>
      </trkpt>
      <trkpt lat="45.75487" lon="5.969">
        <ele>517</ele>
        <time>2011-07-03T07:37:02Z</time>
      </trkpt>
      <trkpt lat="45.7549" lon="5.96901">
        <ele>517</ele>
        <time>2011-07-03T07:37:03Z</time>
      </trkpt>
      <trkpt lat="45.75493" lon="5.96901">
        <ele>517</ele>
        <time>2011-07-03T07:37:04Z</time>
      </trkpt>
      <trkpt lat="45.75496" lon="5.969">
        <ele>517</ele>
        <time>2011-07-03T07:37:05Z</time>
      </trkpt>
      <trkpt lat="45.755" lon="5.969">
        <ele>517</ele>
        <time>2011-07-03T07:37:06Z</time>
      </trkpt>
      <trkpt lat="45.75503" lon="5.969">
        <ele>517</ele>
        <time>2011-07-03T07:37:07Z</time>
      </trkpt>
      <trkpt lat="45.75506" lon="5.96901">
        <ele>517</ele>
        <time>2011-07-03T07:37:08Z</time>
      </trkpt>
      <trkpt lat="45.75509" lon="5.96901">
        <ele>517</ele>
        <time>2011-07-03T07:37:09Z</time>
      </trkpt>
      <trkpt lat="45.75512" lon="5.96901">
        <ele>516</ele>
        <time>2011-07-03T07:37:10Z</time>
      </trkpt>
      <trkpt lat="45.75515" lon="5.96901">
        <ele>516</ele>
        <time>2011-07-03T07:37:11Z</time>
      </trkpt>
      <trkpt lat="45.75518" lon="5.96901">
        <ele>516</ele>
        <time>2011-07-03T07:37:12Z</time>
      </trkpt>
      <trkpt lat="45.75521" lon="5.96901">
        <ele>516</ele>
        <time>2011-07-03T07:37:13Z</time>
      </trkpt>
      <trkpt lat="45.75524" lon="5.96901">
        <ele>516</ele>
        <time>2011-07-03T07:37:14Z</time>
      </trkpt>
      <trkpt lat="45.75527" lon="5.96901">
        <ele>515</ele>
        <time>2011-07-03T07:37:15Z</time>
      </trkpt>
      <trkpt lat="45.7553" lon="5.96901">
        <ele>515</ele>
        <time>2011-07-03T07:37:16Z</time>
      </trkpt>
      <trkpt lat="45.75533" lon="5.96902">
        <ele>515</ele>
        <time>2011-07-03T07:37:17Z</time>
      </trkpt>
      <trkpt lat="45.75535" lon="5.96902">
        <ele>515</ele>
        <time>2011-07-03T07:37:18Z</time>
      </trkpt>
      <trkpt lat="45.75538" lon="5.96902">
        <ele>515</ele>
        <time>2011-07-03T07:37:19Z</time>
      </trkpt>
      <trkpt lat="45.7554" lon="5.96902">
        <ele>515</ele>
        <time>2011-07-03T07:37:20Z</time>
      </trkpt>
      <trkpt lat="45.75543" lon="5.96903">
        <ele>515</ele>
        <time>2011-07-03T07:37:21Z</time>
      </trkpt>
      <trkpt lat="45.75546" lon="5.96903">
        <ele>515</ele>
        <time>2011-07-03T07:37:22Z</time>
      </trkpt>
      <trkpt lat="45.75549" lon="5.96904">
        <ele>514</ele>
        <time>2011-07-03T07:37:23Z</time>
      </trkpt>
      <trkpt lat="45.75553" lon="5.96904">
        <ele>514</ele>
        <time>2011-07-03T07:37:24Z</time>
      </trkpt>
      <trkpt lat="45.75557" lon="5.96904">
        <ele>514</ele>
        <time>2011-07-03T07:37:25Z</time>
      </trkpt>
      <trkpt lat="45.7556" lon="5.96905">
        <ele>514</ele>
        <time>2011-07-03T07:37:26Z</time>
      </trkpt>
      <trkpt lat="45.75564" lon="5.96906">
        <ele>514</ele>
        <time>2011-07-03T07:37:27Z</time>
      </trkpt>
      <trkpt lat="45.75568" lon="5.96907">
        <ele>514</ele>
        <time>2011-07-03T07:37:28Z</time>
      </trkpt>
      <trkpt lat="45.75572" lon="5.96908">
        <ele>513</ele>
        <time>2011-07-03T07:37:29Z</time>
      </trkpt>
      <trkpt lat="45.75576" lon="5.96909">
        <ele>513</ele>
        <time>2011-07-03T07:37:30Z</time>
      </trkpt>
      <trkpt lat="45.75581" lon="5.9691">
        <ele>513</ele>
        <time>2011-07-03T07:37:31Z</time>
      </trkpt>
      <trkpt lat="45.75585" lon="5.96912">
        <ele>512</ele>
        <time>2011-07-03T07:37:32Z</time>
      </trkpt>
      <trkpt lat="45.75589" lon="5.96914">
        <ele>512</ele>
        <time>2011-07-03T07:37:33Z</time>
      </trkpt>
      <trkpt lat="45.75592" lon="5.96915">
        <ele>511</ele>
        <time>2011-07-03T07:37:34Z</time>
      </trkpt>
      <trkpt lat="45.75596" lon="5.96916">
        <ele>511</ele>
        <time>2011-07-03T07:37:35Z</time>
      </trkpt>
      <trkpt lat="45.75599" lon="5.96918">
        <ele>511</ele>
        <time>2011-07-03T07:37:36Z</time>
      </trkpt>
      <trkpt lat="45.75602" lon="5.9692">
        <ele>510</ele>
        <time>2011-07-03T07:37:37Z</time>
      </trkpt>
      <trkpt lat="45.75605" lon="5.96922">
        <ele>510</ele>
        <time>2011-07-03T07:37:38Z</time>
      </trkpt>
      <trkpt lat="45.75609" lon="5.96923">
        <ele>510</ele>
        <time>2011-07-03T07:37:39Z</time>
      </trkpt>
      <trkpt lat="45.75612" lon="5.96925">
        <ele>510</ele>
        <time>2011-07-03T07:37:40Z</time>
      </trkpt>
      <trkpt lat="45.75615" lon="5.96926">
        <ele>510</ele>
        <time>2011-07-03T07:37:41Z</time>
      </trkpt>
      <trkpt lat="45.75618" lon="5.96928">
        <ele>510</ele>
        <time>2011-07-03T07:37:42Z</time>
      </trkpt>
      <trkpt lat="45.75621" lon="5.9693">
        <ele>510</ele>
        <time>2011-07-03T07:37:43Z</time>
      </trkpt>
      <trkpt lat="45.75624" lon="5.96932">
        <ele>510</ele>
        <time>2011-07-03T07:37:44Z</time>
      </trkpt>
      <trkpt lat="45.75627" lon="5.96934">
        <ele>510</ele>
        <time>2011-07-03T07:37:45Z</time>
      </trkpt>
      <trkpt lat="45.7563" lon="5.96936">
        <ele>510</ele>
        <time>2011-07-03T07:37:46Z</time>
      </trkpt>
      <trkpt lat="45.75633" lon="5.96938">
        <ele>510</ele>
        <time>2011-07-03T07:37:47Z</time>
      </trkpt>
      <trkpt lat="45.75636" lon="5.9694">
        <ele>510</ele>
        <time>2011-07-03T07:37:48Z</time>
      </trkpt>
      <trkpt lat="45.75639" lon="5.96941">
        <ele>509</ele>
        <time>2011-07-03T07:37:49Z</time>
      </trkpt>
      <trkpt lat="45.75642" lon="5.96943">
        <ele>509</ele>
        <time>2011-07-03T07:37:50Z</time>
      </trkpt>
      <trkpt lat="45.75644" lon="5.96945">
        <ele>509</ele>
        <time>2011-07-03T07:37:51Z</time>
      </trkpt>
      <trkpt lat="45.75647" lon="5.96946">
        <ele>509</ele>
        <time>2011-07-03T07:37:52Z</time>
      </trkpt>
      <trkpt lat="45.7565" lon="5.96948">
        <ele>509</ele>
        <time>2011-07-03T07:37:53Z</time>
      </trkpt>
      <trkpt lat="45.75652" lon="5.9695">
        <ele>509</ele>
        <time>2011-07-03T07:37:54Z</time>
      </trkpt>
      <trkpt lat="45.75655" lon="5.96951">
        <ele>509</ele>
        <time>2011-07-03T07:37:55Z</time>
      </trkpt>
      <trkpt lat="45.75657" lon="5.96953">
        <ele>509</ele>
        <time>2011-07-03T07:37:56Z</time>
      </trkpt>
      <trkpt lat="45.7566" lon="5.96954">
        <ele>509</ele>
        <time>2011-07-03T07:37:57Z</time>
      </trkpt>
      <trkpt lat="45.75663" lon="5.96956">
        <ele>509</ele>
        <time>2011-07-03T07:37:58Z</time>
      </trkpt>
      <trkpt lat="45.75666" lon="5.96957">
        <ele>508</ele>
        <time>2011-07-03T07:37:59Z</time>
      </trkpt>
      <trkpt lat="45.7567" lon="5.96959">
        <ele>508</ele>
        <time>2011-07-03T07:38:00Z</time>
      </trkpt>
      <trkpt lat="45.75673" lon="5.96961">
        <ele>508</ele>
        <time>2011-07-03T07:38:01Z</time>
      </trkpt>
      <trkpt lat="45.75677" lon="5.96964">
        <ele>507</ele>
        <time>2011-07-03T07:38:02Z</time>
      </trkpt>
      <trkpt lat="45.75681" lon="5.96966">
        <ele>507</ele>
        <time>2011-07-03T07:38:03Z</time>
      </trkpt>
      <trkpt lat="45.75685" lon="5.96968">
        <ele>506</ele>
        <time>2011-07-03T07:38:04Z</time>
      </trkpt>
      <trkpt lat="45.75689" lon="5.96969">
        <ele>505</ele>
        <time>2011-07-03T07:38:05Z</time>
      </trkpt>
      <trkpt lat="45.75692" lon="5.96971">
        <ele>505</ele>
        <time>2011-07-03T07:38:06Z</time>
      </trkpt>
      <trkpt lat="45.75695" lon="5.96972">
        <ele>505</ele>
        <time>2011-07-03T07:38:07Z</time>
      </trkpt>
      <trkpt lat="45.75698" lon="5.96973">
        <ele>504</ele>
        <time>2011-07-03T07:38:08Z</time>
      </trkpt>
      <trkpt lat="45.75702" lon="5.96975">
        <ele>504</ele>
        <time>2011-07-03T07:38:09Z</time>
      </trkpt>
      <trkpt lat="45.75704" lon="5.96975">
        <ele>504</ele>
        <time>2011-07-03T07:38:10Z</time>
      </trkpt>
      <trkpt lat="45.75706" lon="5.96976">
        <ele>503</ele>
        <time>2011-07-03T07:38:11Z</time>
      </trkpt>
      <trkpt lat="45.75709" lon="5.96977">
        <ele>503</ele>
        <time>2011-07-03T07:38:12Z</time>
      </trkpt>
      <trkpt lat="45.75711" lon="5.96977">
        <ele>503</ele>
        <time>2011-07-03T07:38:13Z</time>
      </trkpt>
      <trkpt lat="45.75714" lon="5.96978">
        <ele>503</ele>
        <time>2011-07-03T07:38:14Z</time>
      </trkpt>
      <trkpt lat="45.75716" lon="5.96978">
        <ele>502</ele>
        <time>2011-07-03T07:38:15Z</time>
      </trkpt>
      <trkpt lat="45.75719" lon="5.96978">
        <ele>502</ele>
        <time>2011-07-03T07:38:16Z</time>
      </trkpt>
      <trkpt lat="45.75723" lon="5.96979">
        <ele>502</ele>
        <time>2011-07-03T07:38:17Z</time>
      </trkpt>
      <trkpt lat="45.75727" lon="5.9698">
        <ele>502</ele>
        <time>2011-07-03T07:38:18Z</time>
      </trkpt>
      <trkpt lat="45.75731" lon="5.96981">
        <ele>502</ele>
        <time>2011-07-03T07:38:19Z</time>
      </trkpt>
      <trkpt lat="45.75736" lon="5.96982">
        <ele>502</ele>
        <time>2011-07-03T07:38:20Z</time>
      </trkpt>
      <trkpt lat="45.75741" lon="5.96984">
        <ele>501</ele>
        <time>2011-07-03T07:38:21Z</time>
      </trkpt>
      <trkpt lat="45.75746" lon="5.96986">
        <ele>501</ele>
        <time>2011-07-03T07:38:22Z</time>
      </trkpt>
      <trkpt lat="45.7575" lon="5.96989">
        <ele>501</ele>
        <time>2011-07-03T07:38:23Z</time>
      </trkpt>
      <trkpt lat="45.75755" lon="5.96992">
        <ele>501</ele>
        <time>2011-07-03T07:38:24Z</time>
      </trkpt>
      <trkpt lat="45.75758" lon="5.96995">
        <ele>501</ele>
        <time>2011-07-03T07:38:25Z</time>
      </trkpt>
      <trkpt lat="45.7576" lon="5.96998">
        <ele>500</ele>
        <time>2011-07-03T07:38:26Z</time>
      </trkpt>
      <trkpt lat="45.7576" lon="5.97002">
        <ele>500</ele>
        <time>2011-07-03T07:38:27Z</time>
      </trkpt>
      <trkpt lat="45.7576" lon="5.97006">
        <ele>500</ele>
        <time>2011-07-03T07:38:28Z</time>
      </trkpt>
      <trkpt lat="45.75759" lon="5.97007">
        <ele>500</ele>
        <time>2011-07-03T07:38:30Z</time>
      </trkpt>
      <trkpt lat="45.7576" lon="5.97009">
        <ele>500</ele>
        <time>2011-07-03T07:38:35Z</time>
      </trkpt>
      <trkpt lat="45.7576" lon="5.97011">
        <ele>500</ele>
        <time>2011-07-03T07:38:37Z</time>
      </trkpt>
      <trkpt lat="45.75759" lon="5.97013">
        <ele>500</ele>
        <time>2011-07-03T07:38:38Z</time>
      </trkpt>
      <trkpt lat="45.75758" lon="5.97015">
        <ele>500</ele>
        <time>2011-07-03T07:38:39Z</time>
      </trkpt>
      <trkpt lat="45.75757" lon="5.97018">
        <ele>500</ele>
        <time>2011-07-03T07:38:40Z</time>
      </trkpt>
      <trkpt lat="45.75756" lon="5.9702">
        <ele>499</ele>
        <time>2011-07-03T07:38:41Z</time>
      </trkpt>
      <trkpt lat="45.75753" lon="5.97023">
        <ele>499</ele>
        <time>2011-07-03T07:38:42Z</time>
      </trkpt>
      <trkpt lat="45.75751" lon="5.97026">
        <ele>499</ele>
        <time>2011-07-03T07:38:43Z</time>
      </trkpt>
      <trkpt lat="45.7575" lon="5.97029">
        <ele>499</ele>
        <time>2011-07-03T07:38:44Z</time>
      </trkpt>
      <trkpt lat="45.75747" lon="5.97033">
        <ele>499</ele>
        <time>2011-07-03T07:38:45Z</time>
      </trkpt>
      <trkpt lat="45.75745" lon="5.97037">
        <ele>499</ele>
        <time>2011-07-03T07:38:46Z</time>
      </trkpt>
      <trkpt lat="45.75743" lon="5.97041">
        <ele>499</ele>
        <time>2011-07-03T07:38:47Z</time>
      </trkpt>
      <trkpt lat="45.75741" lon="5.97045">
        <ele>499</ele>
        <time>2011-07-03T07:38:48Z</time>
      </trkpt>
      <trkpt lat="45.75739" lon="5.97048">
        <ele>499</ele>
        <time>2011-07-03T07:38:49Z</time>
      </trkpt>
      <trkpt lat="45.75737" lon="5.97052">
        <ele>499</ele>
        <time>2011-07-03T07:38:50Z</time>
      </trkpt>
      <trkpt lat="45.75735" lon="5.97056">
        <ele>498</ele>
        <time>2011-07-03T07:38:51Z</time>
      </trkpt>
      <trkpt lat="45.75733" lon="5.9706">
        <ele>498</ele>
        <time>2011-07-03T07:38:52Z</time>
      </trkpt>
      <trkpt lat="45.75731" lon="5.97065">
        <ele>498</ele>
        <time>2011-07-03T07:38:53Z</time>
      </trkpt>
      <trkpt lat="45.75729" lon="5.97069">
        <ele>498</ele>
        <time>2011-07-03T07:38:54Z</time>
      </trkpt>
      <trkpt lat="45.75727" lon="5.97073">
        <ele>497</ele>
        <time>2011-07-03T07:38:55Z</time>
      </trkpt>
      <trkpt lat="45.75725" lon="5.97077">
        <ele>497</ele>
        <time>2011-07-03T07:38:56Z</time>
      </trkpt>
      <trkpt lat="45.75723" lon="5.97081">
        <ele>497</ele>
        <time>2011-07-03T07:38:57Z</time>
      </trkpt>
      <trkpt lat="45.75721" lon="5.97085">
        <ele>497</ele>
        <time>2011-07-03T07:38:58Z</time>
      </trkpt>
      <trkpt lat="45.75719" lon="5.97088">
        <ele>496</ele>
        <time>2011-07-03T07:38:59Z</time>
      </trkpt>
      <trkpt lat="45.75717" lon="5.97092">
        <ele>496</ele>
        <time>2011-07-03T07:39:00Z</time>
      </trkpt>
      <trkpt lat="45.75715" lon="5.97096">
        <ele>496</ele>
        <time>2011-07-03T07:39:01Z</time>
      </trkpt>
      <trkpt lat="45.75713" lon="5.971">
        <ele>496</ele>
        <time>2011-07-03T07:39:02Z</time>
      </trkpt>
      <trkpt lat="45.75711" lon="5.97104">
        <ele>495</ele>
        <time>2011-07-03T07:39:03Z</time>
      </trkpt>
      <trkpt lat="45.7571" lon="5.97108">
        <ele>495</ele>
        <time>2011-07-03T07:39:04Z</time>
      </trkpt>
      <trkpt lat="45.75708" lon="5.97111">
        <ele>495</ele>
        <time>2011-07-03T07:39:05Z</time>
      </trkpt>
      <trkpt lat="45.75706" lon="5.97114">
        <ele>495</ele>
        <time>2011-07-03T07:39:06Z</time>
      </trkpt>
      <trkpt lat="45.75704" lon="5.97118">
        <ele>495</ele>
        <time>2011-07-03T07:39:07Z</time>
      </trkpt>
      <trkpt lat="45.75703" lon="5.97121">
        <ele>494</ele>
        <time>2011-07-03T07:39:08Z</time>
      </trkpt>
      <trkpt lat="45.75701" lon="5.97124">
        <ele>494</ele>
        <time>2011-07-03T07:39:09Z</time>
      </trkpt>
      <trkpt lat="45.757" lon="5.97126">
        <ele>494</ele>
        <time>2011-07-03T07:39:10Z</time>
      </trkpt>
      <trkpt lat="45.75698" lon="5.97129">
        <ele>494</ele>
        <time>2011-07-03T07:39:11Z</time>
      </trkpt>
      <trkpt lat="45.75697" lon="5.97132">
        <ele>494</ele>
        <time>2011-07-03T07:39:12Z</time>
      </trkpt>
      <trkpt lat="45.75696" lon="5.97135">
        <ele>494</ele>
        <time>2011-07-03T07:39:13Z</time>
      </trkpt>
      <trkpt lat="45.75696" lon="5.97139">
        <ele>494</ele>
        <time>2011-07-03T07:39:14Z</time>
      </trkpt>
      <trkpt lat="45.75696" lon="5.97142">
        <ele>494</ele>
        <time>2011-07-03T07:39:15Z</time>
      </trkpt>
      <trkpt lat="45.75697" lon="5.97145">
        <ele>494</ele>
        <time>2011-07-03T07:39:16Z</time>
      </trkpt>
      <trkpt lat="45.75698" lon="5.97148">
        <ele>494</ele>
        <time>2011-07-03T07:39:17Z</time>
      </trkpt>
      <trkpt lat="45.75699" lon="5.97152">
        <ele>494</ele>
        <time>2011-07-03T07:39:18Z</time>
      </trkpt>
      <trkpt lat="45.75701" lon="5.97156">
        <ele>494</ele>
        <time>2011-07-03T07:39:19Z</time>
      </trkpt>
      <trkpt lat="45.75703" lon="5.97159">
        <ele>494</ele>
        <time>2011-07-03T07:39:20Z</time>
      </trkpt>
      <trkpt lat="45.75704" lon="5.97164">
        <ele>494</ele>
        <time>2011-07-03T07:39:21Z</time>
      </trkpt>
      <trkpt lat="45.75706" lon="5.97168">
        <ele>494</ele>
        <time>2011-07-03T07:39:22Z</time>
      </trkpt>
      <trkpt lat="45.75708" lon="5.97172">
        <ele>494</ele>
        <time>2011-07-03T07:39:23Z</time>
      </trkpt>
      <trkpt lat="45.7571" lon="5.97176">
        <ele>494</ele>
        <time>2011-07-03T07:39:24Z</time>
      </trkpt>
      <trkpt lat="45.75711" lon="5.9718">
        <ele>494</ele>
        <time>2011-07-03T07:39:25Z</time>
      </trkpt>
      <trkpt lat="45.75713" lon="5.97184">
        <ele>494</ele>
        <time>2011-07-03T07:39:26Z</time>
      </trkpt>
      <trkpt lat="45.75714" lon="5.97188">
        <ele>494</ele>
        <time>2011-07-03T07:39:27Z</time>
      </trkpt>
      <trkpt lat="45.75716" lon="5.97192">
        <ele>494</ele>
        <time>2011-07-03T07:39:28Z</time>
      </trkpt>
      <trkpt lat="45.75716" lon="5.97195">
        <ele>494</ele>
        <time>2011-07-03T07:39:29Z</time>
      </trkpt>
      <trkpt lat="45.75717" lon="5.97197">
        <ele>494</ele>
        <time>2011-07-03T07:39:30Z</time>
      </trkpt>
      <trkpt lat="45.75718" lon="5.972">
        <ele>494</ele>
        <time>2011-07-03T07:39:31Z</time>
      </trkpt>
      <trkpt lat="45.75718" lon="5.97202">
        <ele>494</ele>
        <time>2011-07-03T07:39:32Z</time>
      </trkpt>
      <trkpt lat="45.75719" lon="5.97205">
        <ele>494</ele>
        <time>2011-07-03T07:39:33Z</time>
      </trkpt>
      <trkpt lat="45.7572" lon="5.97208">
        <ele>494</ele>
        <time>2011-07-03T07:39:34Z</time>
      </trkpt>
      <trkpt lat="45.7572" lon="5.97211">
        <ele>494</ele>
        <time>2011-07-03T07:39:35Z</time>
      </trkpt>
      <trkpt lat="45.75721" lon="5.97213">
        <ele>494</ele>
        <time>2011-07-03T07:39:36Z</time>
      </trkpt>
      <trkpt lat="45.75722" lon="5.97216">
        <ele>494</ele>
        <time>2011-07-03T07:39:37Z</time>
      </trkpt>
      <trkpt lat="45.75723" lon="5.97219">
        <ele>494</ele>
        <time>2011-07-03T07:39:38Z</time>
      </trkpt>
      <trkpt lat="45.75724" lon="5.97222">
        <ele>495</ele>
        <time>2011-07-03T07:39:39Z</time>
      </trkpt>
      <trkpt lat="45.75725" lon="5.97225">
        <ele>495</ele>
        <time>2011-07-03T07:39:40Z</time>
      </trkpt>
      <trkpt lat="45.75726" lon="5.97228">
        <ele>495</ele>
        <time>2011-07-03T07:39:41Z</time>
      </trkpt>
      <trkpt lat="45.75727" lon="5.97231">
        <ele>495</ele>
        <time>2011-07-03T07:39:42Z</time>
      </trkpt>
      <trkpt lat="45.75727" lon="5.97234">
        <ele>495</ele>
        <time>2011-07-03T07:39:43Z</time>
      </trkpt>
      <trkpt lat="45.75728" lon="5.97237">
        <ele>496</ele>
        <time>2011-07-03T07:39:44Z</time>
      </trkpt>
      <trkpt lat="45.75729" lon="5.9724">
        <ele>496</ele>
        <time>2011-07-03T07:39:45Z</time>
      </trkpt>
      <trkpt lat="45.7573" lon="5.97242">
        <ele>496</ele>
        <time>2011-07-03T07:39:46Z</time>
      </trkpt>
      <trkpt lat="45.75731" lon="5.97245">
        <ele>496</ele>
        <time>2011-07-03T07:39:47Z</time>
      </trkpt>
      <trkpt lat="45.75731" lon="5.97248">
        <ele>496</ele>
        <time>2011-07-03T07:39:48Z</time>
      </trkpt>
      <trkpt lat="45.75732" lon="5.9725">
        <ele>496</ele>
        <time>2011-07-03T07:39:49Z</time>
      </trkpt>
      <trkpt lat="45.75733" lon="5.97253">
        <ele>496</ele>
        <time>2011-07-03T07:39:50Z</time>
      </trkpt>
      <trkpt lat="45.75733" lon="5.97255">
        <ele>496</ele>
        <time>2011-07-03T07:39:51Z</time>
      </trkpt>
      <trkpt lat="45.75734" lon="5.97257">
        <ele>496</ele>
        <time>2011-07-03T07:39:52Z</time>
      </trkpt>
      <trkpt lat="45.75734" lon="5.97259">
        <ele>496</ele>
        <time>2011-07-03T07:39:53Z</time>
      </trkpt>
      <trkpt lat="45.75734" lon="5.97261">
        <ele>497</ele>
        <time>2011-07-03T07:39:56Z</time>
      </trkpt>
      <trkpt lat="45.75735" lon="5.97263">
        <ele>497</ele>
        <time>2011-07-03T07:39:57Z</time>
      </trkpt>
      <trkpt lat="45.75735" lon="5.97266">
        <ele>497</ele>
        <time>2011-07-03T07:39:58Z</time>
      </trkpt>
      <trkpt lat="45.75735" lon="5.97269">
        <ele>497</ele>
        <time>2011-07-03T07:39:59Z</time>
      </trkpt>
      <trkpt lat="45.75734" lon="5.97272">
        <ele>497</ele>
        <time>2011-07-03T07:40:00Z</time>
      </trkpt>
      <trkpt lat="45.75732" lon="5.97275">
        <ele>497</ele>
        <time>2011-07-03T07:40:01Z</time>
      </trkpt>
      <trkpt lat="45.75731" lon="5.97279">
        <ele>497</ele>
        <time>2011-07-03T07:40:02Z</time>
      </trkpt>
      <trkpt lat="45.75728" lon="5.97282">
        <ele>497</ele>
        <time>2011-07-03T07:40:03Z</time>
      </trkpt>
      <trkpt lat="45.75725" lon="5.97286">
        <ele>497</ele>
        <time>2011-07-03T07:40:04Z</time>
      </trkpt>
      <trkpt lat="45.75722" lon="5.97289">
        <ele>497</ele>
        <time>2011-07-03T07:40:05Z</time>
      </trkpt>
      <trkpt lat="45.7572" lon="5.97294">
        <ele>497</ele>
        <time>2011-07-03T07:40:06Z</time>
      </trkpt>
      <trkpt lat="45.75717" lon="5.97298">
        <ele>497</ele>
        <time>2011-07-03T07:40:07Z</time>
      </trkpt>
      <trkpt lat="45.75714" lon="5.97303">
        <ele>496</ele>
        <time>2011-07-03T07:40:08Z</time>
      </trkpt>
      <trkpt lat="45.75711" lon="5.97307">
        <ele>495</ele>
        <time>2011-07-03T07:40:09Z</time>
      </trkpt>
      <trkpt lat="45.75707" lon="5.97311">
        <ele>494</ele>
        <time>2011-07-03T07:40:10Z</time>
      </trkpt>
      <trkpt lat="45.75704" lon="5.97315">
        <ele>493</ele>
        <time>2011-07-03T07:40:11Z</time>
      </trkpt>
      <trkpt lat="45.75702" lon="5.97319">
        <ele>492</ele>
        <time>2011-07-03T07:40:12Z</time>
      </trkpt>
      <trkpt lat="45.75699" lon="5.97322">
        <ele>491</ele>
        <time>2011-07-03T07:40:13Z</time>
      </trkpt>
      <trkpt lat="45.75696" lon="5.97324">
        <ele>490</ele>
        <time>2011-07-03T07:40:14Z</time>
      </trkpt>
      <trkpt lat="45.75694" lon="5.97327">
        <ele>489</ele>
        <time>2011-07-03T07:40:15Z</time>
      </trkpt>
      <trkpt lat="45.75692" lon="5.9733">
        <ele>488</ele>
        <time>2011-07-03T07:40:16Z</time>
      </trkpt>
      <trkpt lat="45.7569" lon="5.97333">
        <ele>487</ele>
        <time>2011-07-03T07:40:17Z</time>
      </trkpt>
      <trkpt lat="45.75687" lon="5.97335">
        <ele>487</ele>
        <time>2011-07-03T07:40:18Z</time>
      </trkpt>
      <trkpt lat="45.75685" lon="5.97337">
        <ele>487</ele>
        <time>2011-07-03T07:40:19Z</time>
      </trkpt>
      <trkpt lat="45.75683" lon="5.9734">
        <ele>487</ele>
        <time>2011-07-03T07:40:20Z</time>
      </trkpt>
      <trkpt lat="45.75681" lon="5.97342">
        <ele>487</ele>
        <time>2011-07-03T07:40:21Z</time>
      </trkpt>
      <trkpt lat="45.75678" lon="5.97345">
        <ele>487</ele>
        <time>2011-07-03T07:40:22Z</time>
      </trkpt>
      <trkpt lat="45.75675" lon="5.97348">
        <ele>486</ele>
        <time>2011-07-03T07:40:23Z</time>
      </trkpt>
      <trkpt lat="45.75673" lon="5.9735">
        <ele>486</ele>
        <time>2011-07-03T07:40:24Z</time>
      </trkpt>
      <trkpt lat="45.75671" lon="5.97352">
        <ele>486</ele>
        <time>2011-07-03T07:40:25Z</time>
      </trkpt>
      <trkpt lat="45.75668" lon="5.97354">
        <ele>486</ele>
        <time>2011-07-03T07:40:26Z</time>
      </trkpt>
      <trkpt lat="45.75666" lon="5.97356">
        <ele>485</ele>
        <time>2011-07-03T07:40:27Z</time>
      </trkpt>
      <trkpt lat="45.75664" lon="5.97359">
        <ele>485</ele>
        <time>2011-07-03T07:40:28Z</time>
      </trkpt>
      <trkpt lat="45.75662" lon="5.97362">
        <ele>485</ele>
        <time>2011-07-03T07:40:29Z</time>
      </trkpt>
      <trkpt lat="45.75659" lon="5.97365">
        <ele>485</ele>
        <time>2011-07-03T07:40:30Z</time>
      </trkpt>
      <trkpt lat="45.75657" lon="5.97367">
        <ele>485</ele>
        <time>2011-07-03T07:40:31Z</time>
      </trkpt>
      <trkpt lat="45.75655" lon="5.97369">
        <ele>485</ele>
        <time>2011-07-03T07:40:32Z</time>
      </trkpt>
      <trkpt lat="45.75652" lon="5.97372">
        <ele>485</ele>
        <time>2011-07-03T07:40:33Z</time>
      </trkpt>
      <trkpt lat="45.75649" lon="5.97375">
        <ele>485</ele>
        <time>2011-07-03T07:40:34Z</time>
      </trkpt>
      <trkpt lat="45.75647" lon="5.97378">
        <ele>485</ele>
        <time>2011-07-03T07:40:35Z</time>
      </trkpt>
      <trkpt lat="45.75644" lon="5.9738">
        <ele>485</ele>
        <time>2011-07-03T07:40:36Z</time>
      </trkpt>
      <trkpt lat="45.75641" lon="5.97383">
        <ele>485</ele>
        <time>2011-07-03T07:40:37Z</time>
      </trkpt>
      <trkpt lat="45.75639" lon="5.97385">
        <ele>485</ele>
        <time>2011-07-03T07:40:38Z</time>
      </trkpt>
      <trkpt lat="45.75636" lon="5.97388">
        <ele>485</ele>
        <time>2011-07-03T07:40:39Z</time>
      </trkpt>
      <trkpt lat="45.75634" lon="5.9739">
        <ele>485</ele>
        <time>2011-07-03T07:40:40Z</time>
      </trkpt>
      <trkpt lat="45.75631" lon="5.97393">
        <ele>485</ele>
        <time>2011-07-03T07:40:41Z</time>
      </trkpt>
      <trkpt lat="45.75628" lon="5.97395">
        <ele>485</ele>
        <time>2011-07-03T07:40:42Z</time>
      </trkpt>
      <trkpt lat="45.75626" lon="5.97397">
        <ele>485</ele>
        <time>2011-07-03T07:40:43Z</time>
      </trkpt>
      <trkpt lat="45.75624" lon="5.97399">
        <ele>485</ele>
        <time>2011-07-03T07:40:44Z</time>
      </trkpt>
      <trkpt lat="45.75622" lon="5.97401">
        <ele>485</ele>
        <time>2011-07-03T07:40:45Z</time>
      </trkpt>
      <trkpt lat="45.7562" lon="5.97403">
        <ele>485</ele>
        <time>2011-07-03T07:40:46Z</time>
      </trkpt>
      <trkpt lat="45.75618" lon="5.97404">
        <ele>485</ele>
        <time>2011-07-03T07:40:47Z</time>
      </trkpt>
      <trkpt lat="45.75616" lon="5.97406">
        <ele>485</ele>
        <time>2011-07-03T07:40:48Z</time>
      </trkpt>
      <trkpt lat="45.75615" lon="5.97407">
        <ele>485</ele>
        <time>2011-07-03T07:40:49Z</time>
      </trkpt>
      <trkpt lat="45.75613" lon="5.97409">
        <ele>485</ele>
        <time>2011-07-03T07:40:50Z</time>
      </trkpt>
      <trkpt lat="45.75612" lon="5.9741">
        <ele>485</ele>
        <time>2011-07-03T07:40:51Z</time>
      </trkpt>
      <trkpt lat="45.7561" lon="5.97412">
        <ele>485</ele>
        <time>2011-07-03T07:40:52Z</time>
      </trkpt>
      <trkpt lat="45.75608" lon="5.97414">
        <ele>485</ele>
        <time>2011-07-03T07:40:54Z</time>
      </trkpt>
      <trkpt lat="45.75607" lon="5.97415">
        <ele>485</ele>
        <time>2011-07-03T07:40:55Z</time>
      </trkpt>
      <trkpt lat="45.75605" lon="5.97417">
        <ele>485</ele>
        <time>2011-07-03T07:40:56Z</time>
      </trkpt>
      <trkpt lat="45.75604" lon="5.97418">
        <ele>485</ele>
        <time>2011-07-03T07:40:57Z</time>
      </trkpt>
      <trkpt lat="45.75602" lon="5.97419">
        <ele>485</ele>
        <time>2011-07-03T07:40:58Z</time>
      </trkpt>
      <trkpt lat="45.75601" lon="5.9742">
        <ele>485</ele>
        <time>2011-07-03T07:40:59Z</time>
      </trkpt>
      <trkpt lat="45.756" lon="5.97421">
        <ele>485</ele>
        <time>2011-07-03T07:41:00Z</time>
      </trkpt>
      <trkpt lat="45.75599" lon="5.97422">
        <ele>485</ele>
        <time>2011-07-03T07:41:01Z</time>
      </trkpt>
      <trkpt lat="45.75597" lon="5.97423">
        <ele>485</ele>
        <time>2011-07-03T07:41:02Z</time>
      </trkpt>
      <trkpt lat="45.75596" lon="5.97424">
        <ele>485</ele>
        <time>2011-07-03T07:41:03Z</time>
      </trkpt>
      <trkpt lat="45.75595" lon="5.97425">
        <ele>485</ele>
        <time>2011-07-03T07:41:04Z</time>
      </trkpt>
      <trkpt lat="45.75594" lon="5.97427">
        <ele>485</ele>
        <time>2011-07-03T07:41:05Z</time>
      </trkpt>
      <trkpt lat="45.75592" lon="5.97428">
        <ele>485</ele>
        <time>2011-07-03T07:41:06Z</time>
      </trkpt>
      <trkpt lat="45.7559" lon="5.97428">
        <ele>485</ele>
        <time>2011-07-03T07:41:07Z</time>
      </trkpt>
      <trkpt lat="45.75589" lon="5.97429">
        <ele>485</ele>
        <time>2011-07-03T07:41:08Z</time>
      </trkpt>
      <trkpt lat="45.75587" lon="5.9743">
        <ele>485</ele>
        <time>2011-07-03T07:41:09Z</time>
      </trkpt>
      <trkpt lat="45.75586" lon="5.97431">
        <ele>485</ele>
        <time>2011-07-03T07:41:10Z</time>
      </trkpt>
      <trkpt lat="45.75584" lon="5.97432">
        <ele>485</ele>
        <time>2011-07-03T07:41:11Z</time>
      </trkpt>
      <trkpt lat="45.75583" lon="5.97433">
        <ele>485</ele>
        <time>2011-07-03T07:41:12Z</time>
      </trkpt>
      <trkpt lat="45.75581" lon="5.97433">
        <ele>485</ele>
        <time>2011-07-03T07:41:13Z</time>
      </trkpt>
      <trkpt lat="45.7558" lon="5.97434">
        <ele>485</ele>
        <time>2011-07-03T07:41:14Z</time>
      </trkpt>
      <trkpt lat="45.75578" lon="5.97434">
        <ele>486</ele>
        <time>2011-07-03T07:41:15Z</time>
      </trkpt>
      <trkpt lat="45.75576" lon="5.97435">
        <ele>486</ele>
        <time>2011-07-03T07:41:16Z</time>
      </trkpt>
      <trkpt lat="45.75574" lon="5.97435">
        <ele>486</ele>
        <time>2011-07-03T07:41:17Z</time>
      </trkpt>
      <trkpt lat="45.75573" lon="5.97436">
        <ele>486</ele>
        <time>2011-07-03T07:41:18Z</time>
      </trkpt>
      <trkpt lat="45.75571" lon="5.97436">
        <ele>486</ele>
        <time>2011-07-03T07:41:19Z</time>
      </trkpt>
      <trkpt lat="45.7557" lon="5.97437">
        <ele>486</ele>
        <time>2011-07-03T07:41:20Z</time>
      </trkpt>
      <trkpt lat="45.75568" lon="5.97437">
        <ele>487</ele>
        <time>2011-07-03T07:41:21Z</time>
      </trkpt>
      <trkpt lat="45.75567" lon="5.97438">
        <ele>487</ele>
        <time>2011-07-03T07:41:22Z</time>
      </trkpt>
      <trkpt lat="45.75565" lon="5.97439">
        <ele>487</ele>
        <time>2011-07-03T07:41:23Z</time>
      </trkpt>
      <trkpt lat="45.75564" lon="5.9744">
        <ele>488</ele>
        <time>2011-07-03T07:41:24Z</time>
      </trkpt>
      <trkpt lat="45.75563" lon="5.97441">
        <ele>488</ele>
        <time>2011-07-03T07:41:25Z</time>
      </trkpt>
      <trkpt lat="45.75561" lon="5.97441">
        <ele>488</ele>
        <time>2011-07-03T07:41:26Z</time>
      </trkpt>
      <trkpt lat="45.7556" lon="5.97442">
        <ele>489</ele>
        <time>2011-07-03T07:41:27Z</time>
      </trkpt>
      <trkpt lat="45.75558" lon="5.97443">
        <ele>489</ele>
        <time>2011-07-03T07:41:28Z</time>
      </trkpt>
      <trkpt lat="45.75557" lon="5.97443">
        <ele>489</ele>
        <time>2011-07-03T07:41:29Z</time>
      </trkpt>
      <trkpt lat="45.75555" lon="5.97444">
        <ele>489</ele>
        <time>2011-07-03T07:41:30Z</time>
      </trkpt>
      <trkpt lat="45.75554" lon="5.97444">
        <ele>490</ele>
        <time>2011-07-03T07:41:31Z</time>
      </trkpt>
      <trkpt lat="45.75552" lon="5.97445">
        <ele>490</ele>
        <time>2011-07-03T07:41:32Z</time>
      </trkpt>
      <trkpt lat="45.7555" lon="5.97446">
        <ele>490</ele>
        <time>2011-07-03T07:41:33Z</time>
      </trkpt>
      <trkpt lat="45.75549" lon="5.97446">
        <ele>490</ele>
        <time>2011-07-03T07:41:34Z</time>
      </trkpt>
      <trkpt lat="45.75547" lon="5.97446">
        <ele>491</ele>
        <time>2011-07-03T07:41:35Z</time>
      </trkpt>
      <trkpt lat="45.75545" lon="5.97447">
        <ele>491</ele>
        <time>2011-07-03T07:41:36Z</time>
      </trkpt>
      <trkpt lat="45.75543" lon="5.97447">
        <ele>491</ele>
        <time>2011-07-03T07:41:37Z</time>
      </trkpt>
      <trkpt lat="45.75542" lon="5.97447">
        <ele>491</ele>
        <time>2011-07-03T07:41:38Z</time>
      </trkpt>
      <trkpt lat="45.7554" lon="5.97448">
        <ele>491</ele>
        <time>2011-07-03T07:41:39Z</time>
      </trkpt>
      <trkpt lat="45.75538" lon="5.97448">
        <ele>491</ele>
        <time>2011-07-03T07:41:40Z</time>
      </trkpt>
      <trkpt lat="45.75537" lon="5.97449">
        <ele>491</ele>
        <time>2011-07-03T07:41:41Z</time>
      </trkpt>
      <trkpt lat="45.75535" lon="5.97449">
        <ele>491</ele>
        <time>2011-07-03T07:41:42Z</time>
      </trkpt>
      <trkpt lat="45.75534" lon="5.9745">
        <ele>491</ele>
        <time>2011-07-03T07:41:43Z</time>
      </trkpt>
      <trkpt lat="45.75532" lon="5.97451">
        <ele>491</ele>
        <time>2011-07-03T07:41:44Z</time>
      </trkpt>
      <trkpt lat="45.75531" lon="5.97451">
        <ele>491</ele>
        <time>2011-07-03T07:41:45Z</time>
      </trkpt>
      <trkpt lat="45.75529" lon="5.97452">
        <ele>491</ele>
        <time>2011-07-03T07:41:47Z</time>
      </trkpt>
      <trkpt lat="45.75527" lon="5.97455">
        <ele>491</ele>
        <time>2011-07-03T07:41:49Z</time>
      </trkpt>
      <trkpt lat="45.75527" lon="5.97457">
        <ele>491</ele>
        <time>2011-07-03T07:41:50Z</time>
      </trkpt>
      <trkpt lat="45.75529" lon="5.97458">
        <ele>491</ele>
        <time>2011-07-03T07:41:51Z</time>
      </trkpt>
      <trkpt lat="45.75531" lon="5.97459">
        <ele>491</ele>
        <time>2011-07-03T07:41:52Z</time>
      </trkpt>
      <trkpt lat="45.75532" lon="5.97458">
        <ele>491</ele>
        <time>2011-07-03T07:41:53Z</time>
      </trkpt>
      <trkpt lat="45.75533" lon="5.97455">
        <ele>491</ele>
        <time>2011-07-03T07:41:54Z</time>
      </trkpt>
      <trkpt lat="45.75532" lon="5.97453">
        <ele>491</ele>
        <time>2011-07-03T07:41:55Z</time>
      </trkpt>
      <trkpt lat="45.75529" lon="5.97452">
        <ele>491</ele>
        <time>2011-07-03T07:41:56Z</time>
      </trkpt>
      <trkpt lat="45.75526" lon="5.97453">
        <ele>491</ele>
        <time>2011-07-03T07:41:57Z</time>
      </trkpt>
      <trkpt lat="45.75523" lon="5.97455">
        <ele>491</ele>
        <time>2011-07-03T07:41:58Z</time>
      </trkpt>
      <trkpt lat="45.75519" lon="5.97457">
        <ele>491</ele>
        <time>2011-07-03T07:41:59Z</time>
      </trkpt>
      <trkpt lat="45.75516" lon="5.97459">
        <ele>491</ele>
        <time>2011-07-03T07:42:00Z</time>
      </trkpt>
      <trkpt lat="45.75514" lon="5.97462">
        <ele>491</ele>
        <time>2011-07-03T07:42:01Z</time>
      </trkpt>
      <trkpt lat="45.75512" lon="5.97464">
        <ele>491</ele>
        <time>2011-07-03T07:42:02Z</time>
      </trkpt>
      <trkpt lat="45.75511" lon="5.97466">
        <ele>491</ele>
        <time>2011-07-03T07:42:03Z</time>
      </trkpt>
      <trkpt lat="45.75509" lon="5.97468">
        <ele>491</ele>
        <time>2011-07-03T07:42:04Z</time>
      </trkpt>
      <trkpt lat="45.75508" lon="5.97471">
        <ele>491</ele>
        <time>2011-07-03T07:42:05Z</time>
      </trkpt>
      <trkpt lat="45.75507" lon="5.97473">
        <ele>491</ele>
        <time>2011-07-03T07:42:06Z</time>
      </trkpt>
      <trkpt lat="45.75506" lon="5.97476">
        <ele>491</ele>
        <time>2011-07-03T07:42:07Z</time>
      </trkpt>
      <trkpt lat="45.75505" lon="5.97479">
        <ele>491</ele>
        <time>2011-07-03T07:42:08Z</time>
      </trkpt>
      <trkpt lat="45.75503" lon="5.97483">
        <ele>491</ele>
        <time>2011-07-03T07:42:09Z</time>
      </trkpt>
      <trkpt lat="45.75502" lon="5.97486">
        <ele>491</ele>
        <time>2011-07-03T07:42:10Z</time>
      </trkpt>
      <trkpt lat="45.755" lon="5.9749">
        <ele>491</ele>
        <time>2011-07-03T07:42:11Z</time>
      </trkpt>
      <trkpt lat="45.755" lon="5.97495">
        <ele>491</ele>
        <time>2011-07-03T07:42:12Z</time>
      </trkpt>
      <trkpt lat="45.75499" lon="5.97499">
        <ele>491</ele>
        <time>2011-07-03T07:42:13Z</time>
      </trkpt>
      <trkpt lat="45.75498" lon="5.97502">
        <ele>491</ele>
        <time>2011-07-03T07:42:14Z</time>
      </trkpt>
      <trkpt lat="45.75497" lon="5.97506">
        <ele>491</ele>
        <time>2011-07-03T07:42:15Z</time>
      </trkpt>
      <trkpt lat="45.75496" lon="5.9751">
        <ele>491</ele>
        <time>2011-07-03T07:42:16Z</time>
      </trkpt>
      <trkpt lat="45.75495" lon="5.97513">
        <ele>491</ele>
        <time>2011-07-03T07:42:17Z</time>
      </trkpt>
      <trkpt lat="45.75494" lon="5.97516">
        <ele>491</ele>
        <time>2011-07-03T07:42:18Z</time>
      </trkpt>
      <trkpt lat="45.75493" lon="5.9752">
        <ele>491</ele>
        <time>2011-07-03T07:42:19Z</time>
      </trkpt>
      <trkpt lat="45.75492" lon="5.97524">
        <ele>491</ele>
        <time>2011-07-03T07:42:20Z</time>
      </trkpt>
      <trkpt lat="45.75491" lon="5.97527">
        <ele>492</ele>
        <time>2011-07-03T07:42:21Z</time>
      </trkpt>
      <trkpt lat="45.75491" lon="5.97531">
        <ele>492</ele>
        <time>2011-07-03T07:42:22Z</time>
      </trkpt>
      <trkpt lat="45.75491" lon="5.97535">
        <ele>493</ele>
        <time>2011-07-03T07:42:23Z</time>
      </trkpt>
      <trkpt lat="45.75491" lon="5.97539">
        <ele>493</ele>
        <time>2011-07-03T07:42:24Z</time>
      </trkpt>
      <trkpt lat="45.75491" lon="5.97543">
        <ele>493</ele>
        <time>2011-07-03T07:42:25Z</time>
      </trkpt>
      <trkpt lat="45.75491" lon="5.97547">
        <ele>493</ele>
        <time>2011-07-03T07:42:26Z</time>
      </trkpt>
      <trkpt lat="45.75492" lon="5.97551">
        <ele>493</ele>
        <time>2011-07-03T07:42:27Z</time>
      </trkpt>
      <trkpt lat="45.75493" lon="5.97555">
        <ele>493</ele>
        <time>2011-07-03T07:42:28Z</time>
      </trkpt>
      <trkpt lat="45.75494" lon="5.97559">
        <ele>493</ele>
        <time>2011-07-03T07:42:29Z</time>
      </trkpt>
      <trkpt lat="45.75496" lon="5.97563">
        <ele>493</ele>
        <time>2011-07-03T07:42:30Z</time>
      </trkpt>
      <trkpt lat="45.75498" lon="5.97566">
        <ele>493</ele>
        <time>2011-07-03T07:42:31Z</time>
      </trkpt>
      <trkpt lat="45.755" lon="5.97569">
        <ele>493</ele>
        <time>2011-07-03T07:42:32Z</time>
      </trkpt>
      <trkpt lat="45.75503" lon="5.97571">
        <ele>493</ele>
        <time>2011-07-03T07:42:33Z</time>
      </trkpt>
      <trkpt lat="45.75505" lon="5.97574">
        <ele>493</ele>
        <time>2011-07-03T07:42:34Z</time>
      </trkpt>
      <trkpt lat="45.75508" lon="5.97576">
        <ele>493</ele>
        <time>2011-07-03T07:42:35Z</time>
      </trkpt>
      <trkpt lat="45.75512" lon="5.97578">
        <ele>493</ele>
        <time>2011-07-03T07:42:36Z</time>
      </trkpt>
      <trkpt lat="45.75515" lon="5.97579">
        <ele>493</ele>
        <time>2011-07-03T07:42:37Z</time>
      </trkpt>
      <trkpt lat="45.75518" lon="5.97581">
        <ele>493</ele>
        <time>2011-07-03T07:42:38Z</time>
      </trkpt>
      <trkpt lat="45.7552" lon="5.97582">
        <ele>493</ele>
        <time>2011-07-03T07:42:39Z</time>
      </trkpt>
      <trkpt lat="45.75523" lon="5.97583">
        <ele>493</ele>
        <time>2011-07-03T07:42:40Z</time>
      </trkpt>
      <trkpt lat="45.75526" lon="5.97585">
        <ele>493</ele>
        <time>2011-07-03T07:42:41Z</time>
      </trkpt>
      <trkpt lat="45.75528" lon="5.97585">
        <ele>493</ele>
        <time>2011-07-03T07:42:42Z</time>
      </trkpt>
      <trkpt lat="45.75531" lon="5.97586">
        <ele>493</ele>
        <time>2011-07-03T07:42:43Z</time>
      </trkpt>
      <trkpt lat="45.75533" lon="5.97588">
        <ele>493</ele>
        <time>2011-07-03T07:42:44Z</time>
      </trkpt>
      <trkpt lat="45.75535" lon="5.97589">
        <ele>493</ele>
        <time>2011-07-03T07:42:45Z</time>
      </trkpt>
      <trkpt lat="45.75537" lon="5.9759">
        <ele>493</ele>
        <time>2011-07-03T07:42:46Z</time>
      </trkpt>
      <trkpt lat="45.75539" lon="5.97592">
        <ele>493</ele>
        <time>2011-07-03T07:42:47Z</time>
      </trkpt>
      <trkpt lat="45.7554" lon="5.97592">
        <ele>496</ele>
        <time>2011-07-03T07:42:52Z</time>
      </trkpt>
      <trkpt lat="45.75541" lon="5.97594">
        <ele>497</ele>
        <time>2011-07-03T07:43:02Z</time>
      </trkpt>
      <trkpt lat="45.75542" lon="5.97593">
        <ele>499</ele>
        <time>2011-07-03T07:43:18Z</time>
      </trkpt>
      <trkpt lat="45.75543" lon="5.97593">
        <ele>500</ele>
        <time>2011-07-03T07:43:20Z</time>
      </trkpt>
      <trkpt lat="45.75544" lon="5.97592">
        <ele>500</ele>
        <time>2011-07-03T07:43:25Z</time>
      </trkpt>
      <trkpt lat="45.75543" lon="5.9759">
        <ele>501</ele>
        <time>2011-07-03T07:43:29Z</time>
      </trkpt>
      <trkpt lat="45.75542" lon="5.97588">
        <ele>501</ele>
        <time>2011-07-03T07:43:32Z</time>
      </trkpt>
      <trkpt lat="45.75543" lon="5.97589">
        <ele>501</ele>
        <time>2011-07-03T07:43:35Z</time>
      </trkpt>
      <trkpt lat="45.75545" lon="5.9759">
        <ele>501</ele>
        <time>2011-07-03T07:43:38Z</time>
      </trkpt>
      <trkpt lat="45.75546" lon="5.9759">
        <ele>501</ele>
        <time>2011-07-03T07:43:41Z</time>
      </trkpt>
      <trkpt lat="45.75547" lon="5.9759">
        <ele>501</ele>
        <time>2011-07-03T07:43:50Z</time>
      </trkpt>
      <trkpt lat="45.75549" lon="5.97591">
        <ele>501</ele>
        <time>2011-07-03T07:43:53Z</time>
      </trkpt>
      <trkpt lat="45.75551" lon="5.97592">
        <ele>501</ele>
        <time>2011-07-03T07:43:54Z</time>
      </trkpt>
      <trkpt lat="45.75553" lon="5.97594">
        <ele>501</ele>
        <time>2011-07-03T07:43:55Z</time>
      </trkpt>
      <trkpt lat="45.75556" lon="5.97595">
        <ele>501</ele>
        <time>2011-07-03T07:43:56Z</time>
      </trkpt>
      <trkpt lat="45.75558" lon="5.97597">
        <ele>501</ele>
        <time>2011-07-03T07:43:57Z</time>
      </trkpt>
      <trkpt lat="45.7556" lon="5.97598">
        <ele>501</ele>
        <time>2011-07-03T07:43:58Z</time>
      </trkpt>
      <trkpt lat="45.75563" lon="5.976">
        <ele>501</ele>
        <time>2011-07-03T07:43:59Z</time>
      </trkpt>
      <trkpt lat="45.75566" lon="5.97601">
        <ele>502</ele>
        <time>2011-07-03T07:44:00Z</time>
      </trkpt>
      <trkpt lat="45.75568" lon="5.97602">
        <ele>502</ele>
        <time>2011-07-03T07:44:01Z</time>
      </trkpt>
      <trkpt lat="45.75571" lon="5.97603">
        <ele>503</ele>
        <time>2011-07-03T07:44:02Z</time>
      </trkpt>
      <trkpt lat="45.75573" lon="5.97605">
        <ele>504</ele>
        <time>2011-07-03T07:44:03Z</time>
      </trkpt>
      <trkpt lat="45.75576" lon="5.97606">
        <ele>504</ele>
        <time>2011-07-03T07:44:04Z</time>
      </trkpt>
      <trkpt lat="45.75579" lon="5.97607">
        <ele>505</ele>
        <time>2011-07-03T07:44:05Z</time>
      </trkpt>
      <trkpt lat="45.75581" lon="5.97608">
        <ele>505</ele>
        <time>2011-07-03T07:44:06Z</time>
      </trkpt>
      <trkpt lat="45.75584" lon="5.97609">
        <ele>505</ele>
        <time>2011-07-03T07:44:07Z</time>
      </trkpt>
      <trkpt lat="45.75586" lon="5.9761">
        <ele>505</ele>
        <time>2011-07-03T07:44:08Z</time>
      </trkpt>
      <trkpt lat="45.75588" lon="5.97611">
        <ele>506</ele>
        <time>2011-07-03T07:44:09Z</time>
      </trkpt>
      <trkpt lat="45.7559" lon="5.97612">
        <ele>506</ele>
        <time>2011-07-03T07:44:10Z</time>
      </trkpt>
      <trkpt lat="45.75592" lon="5.97614">
        <ele>506</ele>
        <time>2011-07-03T07:44:11Z</time>
      </trkpt>
      <trkpt lat="45.75594" lon="5.97615">
        <ele>506</ele>
        <time>2011-07-03T07:44:12Z</time>
      </trkpt>
      <trkpt lat="45.75596" lon="5.97615">
        <ele>506</ele>
        <time>2011-07-03T07:44:13Z</time>
      </trkpt>
      <trkpt lat="45.75598" lon="5.97616">
        <ele>506</ele>
        <time>2011-07-03T07:44:14Z</time>
      </trkpt>
      <trkpt lat="45.756" lon="5.97616">
        <ele>507</ele>
        <time>2011-07-03T07:44:15Z</time>
      </trkpt>
      <trkpt lat="45.75603" lon="5.97618">
        <ele>507</ele>
        <time>2011-07-03T07:44:16Z</time>
      </trkpt>
      <trkpt lat="45.75605" lon="5.97619">
        <ele>507</ele>
        <time>2011-07-03T07:44:17Z</time>
      </trkpt>
      <trkpt lat="45.75607" lon="5.9762">
        <ele>507</ele>
        <time>2011-07-03T07:44:18Z</time>
      </trkpt>
      <trkpt lat="45.7561" lon="5.97621">
        <ele>507</ele>
        <time>2011-07-03T07:44:19Z</time>
      </trkpt>
      <trkpt lat="45.75612" lon="5.97622">
        <ele>507</ele>
        <time>2011-07-03T07:44:20Z</time>
      </trkpt>
      <trkpt lat="45.75614" lon="5.97623">
        <ele>507</ele>
        <time>2011-07-03T07:44:21Z</time>
      </trkpt>
      <trkpt lat="45.75616" lon="5.97625">
        <ele>507</ele>
        <time>2011-07-03T07:44:22Z</time>
      </trkpt>
      <trkpt lat="45.75618" lon="5.97626">
        <ele>507</ele>
        <time>2011-07-03T07:44:23Z</time>
      </trkpt>
      <trkpt lat="45.7562" lon="5.97628">
        <ele>507</ele>
        <time>2011-07-03T07:44:24Z</time>
      </trkpt>
      <trkpt lat="45.75622" lon="5.97629">
        <ele>507</ele>
        <time>2011-07-03T07:44:25Z</time>
      </trkpt>
      <trkpt lat="45.75624" lon="5.9763">
        <ele>507</ele>
        <time>2011-07-03T07:44:26Z</time>
      </trkpt>
      <trkpt lat="45.75626" lon="5.97631">
        <ele>508</ele>
        <time>2011-07-03T07:44:27Z</time>
      </trkpt>
      <trkpt lat="45.75628" lon="5.97632">
        <ele>508</ele>
        <time>2011-07-03T07:44:28Z</time>
      </trkpt>
      <trkpt lat="45.75631" lon="5.97634">
        <ele>508</ele>
        <time>2011-07-03T07:44:29Z</time>
      </trkpt>
      <trkpt lat="45.75633" lon="5.97635">
        <ele>508</ele>
        <time>2011-07-03T07:44:30Z</time>
      </trkpt>
      <trkpt lat="45.75635" lon="5.97636">
        <ele>508</ele>
        <time>2011-07-03T07:44:31Z</time>
      </trkpt>
      <trkpt lat="45.75637" lon="5.97638">
        <ele>508</ele>
        <time>2011-07-03T07:44:32Z</time>
      </trkpt>
      <trkpt lat="45.75639" lon="5.97639">
        <ele>508</ele>
        <time>2011-07-03T07:44:33Z</time>
      </trkpt>
      <trkpt lat="45.75641" lon="5.9764">
        <ele>508</ele>
        <time>2011-07-03T07:44:34Z</time>
      </trkpt>
      <trkpt lat="45.75643" lon="5.97642">
        <ele>508</ele>
        <time>2011-07-03T07:44:35Z</time>
      </trkpt>
      <trkpt lat="45.75645" lon="5.97644">
        <ele>508</ele>
        <time>2011-07-03T07:44:36Z</time>
      </trkpt>
      <trkpt lat="45.75647" lon="5.97646">
        <ele>508</ele>
        <time>2011-07-03T07:44:37Z</time>
      </trkpt>
      <trkpt lat="45.75648" lon="5.97648">
        <ele>509</ele>
        <time>2011-07-03T07:44:38Z</time>
      </trkpt>
      <trkpt lat="45.7565" lon="5.97649">
        <ele>509</ele>
        <time>2011-07-03T07:44:39Z</time>
      </trkpt>
      <trkpt lat="45.75652" lon="5.97651">
        <ele>509</ele>
        <time>2011-07-03T07:44:40Z</time>
      </trkpt>
      <trkpt lat="45.75654" lon="5.97652">
        <ele>510</ele>
        <time>2011-07-03T07:44:41Z</time>
      </trkpt>
      <trkpt lat="45.75656" lon="5.97654">
        <ele>510</ele>
        <time>2011-07-03T07:44:42Z</time>
      </trkpt>
      <trkpt lat="45.75658" lon="5.97655">
        <ele>510</ele>
        <time>2011-07-03T07:44:43Z</time>
      </trkpt>
      <trkpt lat="45.7566" lon="5.97657">
        <ele>511</ele>
        <time>2011-07-03T07:44:44Z</time>
      </trkpt>
      <trkpt lat="45.75662" lon="5.97658">
        <ele>511</ele>
        <time>2011-07-03T07:44:45Z</time>
      </trkpt>
      <trkpt lat="45.75664" lon="5.9766">
        <ele>511</ele>
        <time>2011-07-03T07:44:46Z</time>
      </trkpt>
      <trkpt lat="45.75666" lon="5.97661">
        <ele>512</ele>
        <time>2011-07-03T07:44:47Z</time>
      </trkpt>
      <trkpt lat="45.75668" lon="5.97663">
        <ele>512</ele>
        <time>2011-07-03T07:44:48Z</time>
      </trkpt>
      <trkpt lat="45.7567" lon="5.97664">
        <ele>512</ele>
        <time>2011-07-03T07:44:49Z</time>
      </trkpt>
      <trkpt lat="45.75672" lon="5.97666">
        <ele>512</ele>
        <time>2011-07-03T07:44:50Z</time>
      </trkpt>
      <trkpt lat="45.75674" lon="5.97668">
        <ele>512</ele>
        <time>2011-07-03T07:44:51Z</time>
      </trkpt>
      <trkpt lat="45.75675" lon="5.9767">
        <ele>512</ele>
        <time>2011-07-03T07:44:52Z</time>
      </trkpt>
      <trkpt lat="45.75677" lon="5.97671">
        <ele>512</ele>
        <time>2011-07-03T07:44:53Z</time>
      </trkpt>
      <trkpt lat="45.75679" lon="5.97673">
        <ele>512</ele>
        <time>2011-07-03T07:44:54Z</time>
      </trkpt>
      <trkpt lat="45.75681" lon="5.97674">
        <ele>512</ele>
        <time>2011-07-03T07:44:55Z</time>
      </trkpt>
      <trkpt lat="45.75682" lon="5.97676">
        <ele>512</ele>
        <time>2011-07-03T07:44:56Z</time>
      </trkpt>
      <trkpt lat="45.75684" lon="5.97677">
        <ele>512</ele>
        <time>2011-07-03T07:44:57Z</time>
      </trkpt>
      <trkpt lat="45.75685" lon="5.97679">
        <ele>512</ele>
        <time>2011-07-03T07:44:58Z</time>
      </trkpt>
      <trkpt lat="45.75686" lon="5.9768">
        <ele>512</ele>
        <time>2011-07-03T07:44:59Z</time>
      </trkpt>
      <trkpt lat="45.75687" lon="5.97681">
        <ele>512</ele>
        <time>2011-07-03T07:45:00Z</time>
      </trkpt>
      <trkpt lat="45.75688" lon="5.97683">
        <ele>512</ele>
        <time>2011-07-03T07:45:01Z</time>
      </trkpt>
      <trkpt lat="45.75689" lon="5.97685">
        <ele>512</ele>
        <time>2011-07-03T07:45:02Z</time>
      </trkpt>
      <trkpt lat="45.75689" lon="5.97687">
        <ele>512</ele>
        <time>2011-07-03T07:45:03Z</time>
      </trkpt>
      <trkpt lat="45.75689" lon="5.97689">
        <ele>512</ele>
        <time>2011-07-03T07:45:04Z</time>
      </trkpt>
      <trkpt lat="45.75689" lon="5.97691">
        <ele>513</ele>
        <time>2011-07-03T07:45:05Z</time>
      </trkpt>
      <trkpt lat="45.75689" lon="5.97693">
        <ele>513</ele>
        <time>2011-07-03T07:45:06Z</time>
      </trkpt>
      <trkpt lat="45.75689" lon="5.97695">
        <ele>513</ele>
        <time>2011-07-03T07:45:07Z</time>
      </trkpt>
      <trkpt lat="45.75689" lon="5.97697">
        <ele>513</ele>
        <time>2011-07-03T07:45:08Z</time>
      </trkpt>
      <trkpt lat="45.75689" lon="5.97699">
        <ele>513</ele>
        <time>2011-07-03T07:45:09Z</time>
      </trkpt>
      <trkpt lat="45.75688" lon="5.97701">
        <ele>513</ele>
        <time>2011-07-03T07:45:10Z</time>
      </trkpt>
      <trkpt lat="45.75688" lon="5.97702">
        <ele>513</ele>
        <time>2011-07-03T07:45:11Z</time>
      </trkpt>
      <trkpt lat="45.75687" lon="5.97704">
        <ele>513</ele>
        <time>2011-07-03T07:45:12Z</time>
      </trkpt>
      <trkpt lat="45.75687" lon="5.97706">
        <ele>513</ele>
        <time>2011-07-03T07:45:13Z</time>
      </trkpt>
      <trkpt lat="45.75686" lon="5.97709">
        <ele>513</ele>
        <time>2011-07-03T07:45:14Z</time>
      </trkpt>
      <trkpt lat="45.75685" lon="5.97711">
        <ele>513</ele>
        <time>2011-07-03T07:45:15Z</time>
      </trkpt>
      <trkpt lat="45.75684" lon="5.97714">
        <ele>513</ele>
        <time>2011-07-03T07:45:16Z</time>
      </trkpt>
      <trkpt lat="45.75684" lon="5.97717">
        <ele>513</ele>
        <time>2011-07-03T07:45:17Z</time>
      </trkpt>
      <trkpt lat="45.75683" lon="5.97721">
        <ele>513</ele>
        <time>2011-07-03T07:45:18Z</time>
      </trkpt>
      <trkpt lat="45.75683" lon="5.97724">
        <ele>513</ele>
        <time>2011-07-03T07:45:19Z</time>
      </trkpt>
      <trkpt lat="45.75682" lon="5.97728">
        <ele>513</ele>
        <time>2011-07-03T07:45:20Z</time>
      </trkpt>
      <trkpt lat="45.75682" lon="5.97731">
        <ele>513</ele>
        <time>2011-07-03T07:45:21Z</time>
      </trkpt>
      <trkpt lat="45.75681" lon="5.97735">
        <ele>513</ele>
        <time>2011-07-03T07:45:22Z</time>
      </trkpt>
      <trkpt lat="45.75681" lon="5.97738">
        <ele>513</ele>
        <time>2011-07-03T07:45:23Z</time>
      </trkpt>
      <trkpt lat="45.7568" lon="5.97742">
        <ele>513</ele>
        <time>2011-07-03T07:45:24Z</time>
      </trkpt>
      <trkpt lat="45.75679" lon="5.97745">
        <ele>513</ele>
        <time>2011-07-03T07:45:25Z</time>
      </trkpt>
      <trkpt lat="45.75678" lon="5.97749">
        <ele>513</ele>
        <time>2011-07-03T07:45:26Z</time>
      </trkpt>
      <trkpt lat="45.75677" lon="5.97752">
        <ele>513</ele>
        <time>2011-07-03T07:45:27Z</time>
      </trkpt>
      <trkpt lat="45.75677" lon="5.97756">
        <ele>513</ele>
        <time>2011-07-03T07:45:28Z</time>
      </trkpt>
      <trkpt lat="45.75676" lon="5.9776">
        <ele>513</ele>
        <time>2011-07-03T07:45:29Z</time>
      </trkpt>
      <trkpt lat="45.75676" lon="5.97764">
        <ele>513</ele>
        <time>2011-07-03T07:45:30Z</time>
      </trkpt>
      <trkpt lat="45.75675" lon="5.97768">
        <ele>513</ele>
        <time>2011-07-03T07:45:31Z</time>
      </trkpt>
      <trkpt lat="45.75674" lon="5.97773">
        <ele>513</ele>
        <time>2011-07-03T07:45:32Z</time>
      </trkpt>
      <trkpt lat="45.75672" lon="5.97778">
        <ele>513</ele>
        <time>2011-07-03T07:45:33Z</time>
      </trkpt>
      <trkpt lat="45.75671" lon="5.97783">
        <ele>513</ele>
        <time>2011-07-03T07:45:34Z</time>
      </trkpt>
      <trkpt lat="45.7567" lon="5.97788">
        <ele>513</ele>
        <time>2011-07-03T07:45:35Z</time>
      </trkpt>
      <trkpt lat="45.75669" lon="5.97793">
        <ele>513</ele>
        <time>2011-07-03T07:45:36Z</time>
      </trkpt>
      <trkpt lat="45.75668" lon="5.97798">
        <ele>513</ele>
        <time>2011-07-03T07:45:37Z</time>
      </trkpt>
      <trkpt lat="45.75668" lon="5.97803">
        <ele>513</ele>
        <time>2011-07-03T07:45:38Z</time>
      </trkpt>
      <trkpt lat="45.75669" lon="5.97808">
        <ele>513</ele>
        <time>2011-07-03T07:45:39Z</time>
      </trkpt>
      <trkpt lat="45.75671" lon="5.97812">
        <ele>513</ele>
        <time>2011-07-03T07:45:40Z</time>
      </trkpt>
      <trkpt lat="45.75673" lon="5.97815">
        <ele>513</ele>
        <time>2011-07-03T07:45:41Z</time>
      </trkpt>
      <trkpt lat="45.75674" lon="5.97817">
        <ele>513</ele>
        <time>2011-07-03T07:45:42Z</time>
      </trkpt>
      <trkpt lat="45.75676" lon="5.9782">
        <ele>513</ele>
        <time>2011-07-03T07:45:43Z</time>
      </trkpt>
      <trkpt lat="45.75679" lon="5.97822">
        <ele>513</ele>
        <time>2011-07-03T07:45:44Z</time>
      </trkpt>
      <trkpt lat="45.75681" lon="5.97824">
        <ele>513</ele>
        <time>2011-07-03T07:45:45Z</time>
      </trkpt>
      <trkpt lat="45.75682" lon="5.97826">
        <ele>513</ele>
        <time>2011-07-03T07:45:46Z</time>
      </trkpt>
      <trkpt lat="45.75684" lon="5.97829">
        <ele>513</ele>
        <time>2011-07-03T07:45:47Z</time>
      </trkpt>
      <trkpt lat="45.75686" lon="5.97831">
        <ele>513</ele>
        <time>2011-07-03T07:45:48Z</time>
      </trkpt>
      <trkpt lat="45.75687" lon="5.97834">
        <ele>512</ele>
        <time>2011-07-03T07:45:49Z</time>
      </trkpt>
      <trkpt lat="45.75689" lon="5.97836">
        <ele>512</ele>
        <time>2011-07-03T07:45:50Z</time>
      </trkpt>
      <trkpt lat="45.7569" lon="5.97838">
        <ele>512</ele>
        <time>2011-07-03T07:45:51Z</time>
      </trkpt>
      <trkpt lat="45.75691" lon="5.97839">
        <ele>512</ele>
        <time>2011-07-03T07:45:52Z</time>
      </trkpt>
      <trkpt lat="45.75692" lon="5.9784">
        <ele>512</ele>
        <time>2011-07-03T07:45:53Z</time>
      </trkpt>
      <trkpt lat="45.75694" lon="5.97841">
        <ele>512</ele>
        <time>2011-07-03T07:45:55Z</time>
      </trkpt>
      <trkpt lat="45.75695" lon="5.97841">
        <ele>512</ele>
        <time>2011-07-03T07:45:56Z</time>
      </trkpt>
      <trkpt lat="45.75697" lon="5.97842">
        <ele>512</ele>
        <time>2011-07-03T07:45:58Z</time>
      </trkpt>
      <trkpt lat="45.75698" lon="5.97844">
        <ele>512</ele>
        <time>2011-07-03T07:46:00Z</time>
      </trkpt>
      <trkpt lat="45.75699" lon="5.97847">
        <ele>512</ele>
        <time>2011-07-03T07:46:02Z</time>
      </trkpt>
      <trkpt lat="45.75701" lon="5.97849">
        <ele>512</ele>
        <time>2011-07-03T07:46:04Z</time>
      </trkpt>
      <trkpt lat="45.75703" lon="5.97849">
        <ele>512</ele>
        <time>2011-07-03T07:46:05Z</time>
      </trkpt>
      <trkpt lat="45.75704" lon="5.9785">
        <ele>512</ele>
        <time>2011-07-03T07:46:06Z</time>
      </trkpt>
      <trkpt lat="45.75706" lon="5.9785">
        <ele>512</ele>
        <time>2011-07-03T07:46:09Z</time>
      </trkpt>
      <trkpt lat="45.75705" lon="5.97851">
        <ele>511</ele>
        <time>2011-07-03T07:46:26Z</time>
      </trkpt>
      <trkpt lat="45.75705" lon="5.97853">
        <ele>511</ele>
        <time>2011-07-03T07:47:23Z</time>
      </trkpt>
      <trkpt lat="45.75704" lon="5.97853">
        <ele>511</ele>
        <time>2011-07-03T07:48:31Z</time>
      </trkpt>
      <trkpt lat="45.75703" lon="5.97852">
        <ele>511</ele>
        <time>2011-07-03T07:49:06Z</time>
      </trkpt>
      <trkpt lat="45.75702" lon="5.97851">
        <ele>511</ele>
        <time>2011-07-03T07:49:38Z</time>
      </trkpt>
      <trkpt lat="45.757" lon="5.97852">
        <ele>511</ele>
        <time>2011-07-03T07:51:05Z</time>
      </trkpt>
      <trkpt lat="45.75699" lon="5.9785">
        <ele>513</ele>
        <time>2011-07-03T07:51:26Z</time>
      </trkpt>
      <trkpt lat="45.757" lon="5.97852">
        <ele>514</ele>
        <time>2011-07-03T07:52:03Z</time>
      </trkpt>
      <trkpt lat="45.757" lon="5.97853">
        <ele>514</ele>
        <time>2011-07-03T07:53:14Z</time>
      </trkpt>
      <trkpt lat="45.75701" lon="5.97853">
        <ele>515</ele>
        <time>2011-07-03T07:53:27Z</time>
      </trkpt>
      <trkpt lat="45.75702" lon="5.97853">
        <ele>516</ele>
        <time>2011-07-03T07:53:30Z</time>
      </trkpt>
      <trkpt lat="45.75703" lon="5.97853">
        <ele>516</ele>
        <time>2011-07-03T07:53:31Z</time>
      </trkpt>
      <trkpt lat="45.75705" lon="5.97853">
        <ele>516</ele>
        <time>2011-07-03T07:53:33Z</time>
      </trkpt>
      <trkpt lat="45.75707" lon="5.97853">
        <ele>516</ele>
        <time>2011-07-03T07:53:35Z</time>
      </trkpt>
      <trkpt lat="45.75708" lon="5.97853">
        <ele>516</ele>
        <time>2011-07-03T07:53:37Z</time>
      </trkpt>
      <trkpt lat="45.75709" lon="5.97852">
        <ele>516</ele>
        <time>2011-07-03T07:53:39Z</time>
      </trkpt>
      <trkpt lat="45.75711" lon="5.97852">
        <ele>516</ele>
        <time>2011-07-03T07:53:40Z</time>
      </trkpt>
      <trkpt lat="45.75712" lon="5.97851">
        <ele>516</ele>
        <time>2011-07-03T07:53:41Z</time>
      </trkpt>
      <trkpt lat="45.75713" lon="5.9785">
        <ele>516</ele>
        <time>2011-07-03T07:53:43Z</time>
      </trkpt>
      <trkpt lat="45.75714" lon="5.9785">
        <ele>516</ele>
        <time>2011-07-03T07:53:44Z</time>
      </trkpt>
      <trkpt lat="45.75716" lon="5.97849">
        <ele>516</ele>
        <time>2011-07-03T07:53:45Z</time>
      </trkpt>
      <trkpt lat="45.75717" lon="5.97847">
        <ele>515</ele>
        <time>2011-07-03T07:53:46Z</time>
      </trkpt>
      <trkpt lat="45.75718" lon="5.97844">
        <ele>515</ele>
        <time>2011-07-03T07:53:47Z</time>
      </trkpt>
      <trkpt lat="45.75719" lon="5.97841">
        <ele>514</ele>
        <time>2011-07-03T07:53:48Z</time>
      </trkpt>
      <trkpt lat="45.7572" lon="5.97839">
        <ele>514</ele>
        <time>2011-07-03T07:53:49Z</time>
      </trkpt>
      <trkpt lat="45.75721" lon="5.97837">
        <ele>513</ele>
        <time>2011-07-03T07:53:50Z</time>
      </trkpt>
      <trkpt lat="45.75721" lon="5.97834">
        <ele>513</ele>
        <time>2011-07-03T07:53:51Z</time>
      </trkpt>
      <trkpt lat="45.75722" lon="5.97833">
        <ele>513</ele>
        <time>2011-07-03T07:53:52Z</time>
      </trkpt>
      <trkpt lat="45.75722" lon="5.97831">
        <ele>513</ele>
        <time>2011-07-03T07:53:53Z</time>
      </trkpt>
      <trkpt lat="45.75723" lon="5.97829">
        <ele>512</ele>
        <time>2011-07-03T07:53:54Z</time>
      </trkpt>
      <trkpt lat="45.75724" lon="5.97826">
        <ele>512</ele>
        <time>2011-07-03T07:53:56Z</time>
      </trkpt>
      <trkpt lat="45.75724" lon="5.97825">
        <ele>511</ele>
        <time>2011-07-03T07:53:58Z</time>
      </trkpt>
      <trkpt lat="45.75724" lon="5.97823">
        <ele>511</ele>
        <time>2011-07-03T07:54:00Z</time>
      </trkpt>
      <trkpt lat="45.75724" lon="5.97821">
        <ele>511</ele>
        <time>2011-07-03T07:54:01Z</time>
      </trkpt>
      <trkpt lat="45.75724" lon="5.9782">
        <ele>511</ele>
        <time>2011-07-03T07:54:02Z</time>
      </trkpt>
      <trkpt lat="45.75725" lon="5.97817">
        <ele>511</ele>
        <time>2011-07-03T07:54:04Z</time>
      </trkpt>
      <trkpt lat="45.75726" lon="5.97815">
        <ele>510</ele>
        <time>2011-07-03T07:54:05Z</time>
      </trkpt>
      <trkpt lat="45.75726" lon="5.97812">
        <ele>510</ele>
        <time>2011-07-03T07:54:07Z</time>
      </trkpt>
      <trkpt lat="45.75728" lon="5.97809">
        <ele>509</ele>
        <time>2011-07-03T07:54:09Z</time>
      </trkpt>
      <trkpt lat="45.75729" lon="5.97807">
        <ele>509</ele>
        <time>2011-07-03T07:54:11Z</time>
      </trkpt>
      <trkpt lat="45.75731" lon="5.97804">
        <ele>509</ele>
        <time>2011-07-03T07:54:13Z</time>
      </trkpt>
      <trkpt lat="45.75731" lon="5.97802">
        <ele>509</ele>
        <time>2011-07-03T07:54:14Z</time>
      </trkpt>
      <trkpt lat="45.75731" lon="5.978">
        <ele>509</ele>
        <time>2011-07-03T07:54:15Z</time>
      </trkpt>
      <trkpt lat="45.75731" lon="5.97798">
        <ele>509</ele>
        <time>2011-07-03T07:54:16Z</time>
      </trkpt>
      <trkpt lat="45.75731" lon="5.97796">
        <ele>509</ele>
        <time>2011-07-03T07:54:17Z</time>
      </trkpt>
      <trkpt lat="45.75731" lon="5.97794">
        <ele>509</ele>
        <time>2011-07-03T07:54:18Z</time>
      </trkpt>
      <trkpt lat="45.75731" lon="5.97792">
        <ele>509</ele>
        <time>2011-07-03T07:54:19Z</time>
      </trkpt>
      <trkpt lat="45.75731" lon="5.9779">
        <ele>509</ele>
        <time>2011-07-03T07:54:20Z</time>
      </trkpt>
      <trkpt lat="45.75731" lon="5.97788">
        <ele>509</ele>
        <time>2011-07-03T07:54:21Z</time>
      </trkpt>
      <trkpt lat="45.7573" lon="5.97787">
        <ele>509</ele>
        <time>2011-07-03T07:54:22Z</time>
      </trkpt>
      <trkpt lat="45.75729" lon="5.97785">
        <ele>509</ele>
        <time>2011-07-03T07:54:23Z</time>
      </trkpt>
      <trkpt lat="45.75727" lon="5.97782">
        <ele>509</ele>
        <time>2011-07-03T07:54:25Z</time>
      </trkpt>
      <trkpt lat="45.75727" lon="5.9778">
        <ele>509</ele>
        <time>2011-07-03T07:54:26Z</time>
      </trkpt>
      <trkpt lat="45.75727" lon="5.97777">
        <ele>509</ele>
        <time>2011-07-03T07:54:27Z</time>
      </trkpt>
      <trkpt lat="45.75727" lon="5.97775">
        <ele>509</ele>
        <time>2011-07-03T07:54:28Z</time>
      </trkpt>
      <trkpt lat="45.75727" lon="5.97774">
        <ele>509</ele>
        <time>2011-07-03T07:54:29Z</time>
      </trkpt>
      <trkpt lat="45.75726" lon="5.97772">
        <ele>509</ele>
        <time>2011-07-03T07:54:30Z</time>
      </trkpt>
      <trkpt lat="45.75726" lon="5.97769">
        <ele>509</ele>
        <time>2011-07-03T07:54:31Z</time>
      </trkpt>
      <trkpt lat="45.75726" lon="5.97768">
        <ele>509</ele>
        <time>2011-07-03T07:54:32Z</time>
      </trkpt>
      <trkpt lat="45.75726" lon="5.97766">
        <ele>509</ele>
        <time>2011-07-03T07:54:33Z</time>
      </trkpt>
      <trkpt lat="45.75727" lon="5.97764">
        <ele>509</ele>
        <time>2011-07-03T07:54:34Z</time>
      </trkpt>
      <trkpt lat="45.75727" lon="5.97762">
        <ele>509</ele>
        <time>2011-07-03T07:54:35Z</time>
      </trkpt>
      <trkpt lat="45.75727" lon="5.9776">
        <ele>509</ele>
        <time>2011-07-03T07:54:36Z</time>
      </trkpt>
      <trkpt lat="45.75727" lon="5.97759">
        <ele>509</ele>
        <time>2011-07-03T07:54:37Z</time>
      </trkpt>
      <trkpt lat="45.75727" lon="5.97757">
        <ele>509</ele>
        <time>2011-07-03T07:54:38Z</time>
      </trkpt>
      <trkpt lat="45.75727" lon="5.97755">
        <ele>509</ele>
        <time>2011-07-03T07:54:39Z</time>
      </trkpt>
      <trkpt lat="45.75728" lon="5.97752">
        <ele>509</ele>
        <time>2011-07-03T07:54:40Z</time>
      </trkpt>
      <trkpt lat="45.75728" lon="5.97749">
        <ele>509</ele>
        <time>2011-07-03T07:54:41Z</time>
      </trkpt>
      <trkpt lat="45.75728" lon="5.97746">
        <ele>509</ele>
        <time>2011-07-03T07:54:42Z</time>
      </trkpt>
      <trkpt lat="45.75728" lon="5.97744">
        <ele>509</ele>
        <time>2011-07-03T07:54:43Z</time>
      </trkpt>
      <trkpt lat="45.75729" lon="5.97741">
        <ele>509</ele>
        <time>2011-07-03T07:54:44Z</time>
      </trkpt>
      <trkpt lat="45.75729" lon="5.97739">
        <ele>509</ele>
        <time>2011-07-03T07:54:45Z</time>
      </trkpt>
      <trkpt lat="45.75729" lon="5.97737">
        <ele>509</ele>
        <time>2011-07-03T07:54:46Z</time>
      </trkpt>
      <trkpt lat="45.75729" lon="5.97736">
        <ele>509</ele>
        <time>2011-07-03T07:54:47Z</time>
      </trkpt>
      <trkpt lat="45.75729" lon="5.97734">
        <ele>509</ele>
        <time>2011-07-03T07:54:48Z</time>
      </trkpt>
      <trkpt lat="45.75729" lon="5.97731">
        <ele>509</ele>
        <time>2011-07-03T07:54:50Z</time>
      </trkpt>
      <trkpt lat="45.75729" lon="5.97728">
        <ele>509</ele>
        <time>2011-07-03T07:54:52Z</time>
      </trkpt>
      <trkpt lat="45.7573" lon="5.97726">
        <ele>509</ele>
        <time>2011-07-03T07:54:53Z</time>
      </trkpt>
      <trkpt lat="45.75729" lon="5.97724">
        <ele>509</ele>
        <time>2011-07-03T07:54:54Z</time>
      </trkpt>
      <trkpt lat="45.75729" lon="5.97722">
        <ele>509</ele>
        <time>2011-07-03T07:54:55Z</time>
      </trkpt>
      <trkpt lat="45.75729" lon="5.9772">
        <ele>509</ele>
        <time>2011-07-03T07:54:56Z</time>
      </trkpt>
      <trkpt lat="45.75732" lon="5.97718">
        <ele>509</ele>
        <time>2011-07-03T07:54:58Z</time>
      </trkpt>
      <trkpt lat="45.75733" lon="5.97717">
        <ele>509</ele>
        <time>2011-07-03T07:54:59Z</time>
      </trkpt>
      <trkpt lat="45.75735" lon="5.97718">
        <ele>509</ele>
        <time>2011-07-03T07:55:00Z</time>
      </trkpt>
      <trkpt lat="45.75736" lon="5.97718">
        <ele>509</ele>
        <time>2011-07-03T07:55:01Z</time>
      </trkpt>
      <trkpt lat="45.75738" lon="5.97719">
        <ele>509</ele>
        <time>2011-07-03T07:55:03Z</time>
      </trkpt>
      <trkpt lat="45.75739" lon="5.97719">
        <ele>509</ele>
        <time>2011-07-03T07:55:04Z</time>
      </trkpt>
      <trkpt lat="45.7574" lon="5.97719">
        <ele>509</ele>
        <time>2011-07-03T07:55:05Z</time>
      </trkpt>
      <trkpt lat="45.75742" lon="5.9772">
        <ele>509</ele>
        <time>2011-07-03T07:55:06Z</time>
      </trkpt>
      <trkpt lat="45.75743" lon="5.97721">
        <ele>509</ele>
        <time>2011-07-03T07:55:07Z</time>
      </trkpt>
      <trkpt lat="45.75745" lon="5.97722">
        <ele>509</ele>
        <time>2011-07-03T07:55:08Z</time>
      </trkpt>
      <trkpt lat="45.75746" lon="5.97722">
        <ele>509</ele>
        <time>2011-07-03T07:55:09Z</time>
      </trkpt>
      <trkpt lat="45.75748" lon="5.97723">
        <ele>509</ele>
        <time>2011-07-03T07:55:10Z</time>
      </trkpt>
      <trkpt lat="45.7575" lon="5.97724">
        <ele>509</ele>
        <time>2011-07-03T07:55:11Z</time>
      </trkpt>
      <trkpt lat="45.75751" lon="5.97725">
        <ele>509</ele>
        <time>2011-07-03T07:55:12Z</time>
      </trkpt>
      <trkpt lat="45.75753" lon="5.97726">
        <ele>509</ele>
        <time>2011-07-03T07:55:13Z</time>
      </trkpt>
      <trkpt lat="45.75754" lon="5.97727">
        <ele>509</ele>
        <time>2011-07-03T07:55:14Z</time>
      </trkpt>
      <trkpt lat="45.75756" lon="5.97728">
        <ele>509</ele>
        <time>2011-07-03T07:55:16Z</time>
      </trkpt>
      <trkpt lat="45.75757" lon="5.97729">
        <ele>509</ele>
        <time>2011-07-03T07:55:17Z</time>
      </trkpt>
      <trkpt lat="45.75758" lon="5.9773">
        <ele>509</ele>
        <time>2011-07-03T07:55:18Z</time>
      </trkpt>
      <trkpt lat="45.75761" lon="5.97731">
        <ele>509</ele>
        <time>2011-07-03T07:55:20Z</time>
      </trkpt>
      <trkpt lat="45.75762" lon="5.97731">
        <ele>509</ele>
        <time>2011-07-03T07:55:21Z</time>
      </trkpt>
      <trkpt lat="45.75764" lon="5.97732">
        <ele>509</ele>
        <time>2011-07-03T07:55:22Z</time>
      </trkpt>
      <trkpt lat="45.75765" lon="5.97733">
        <ele>509</ele>
        <time>2011-07-03T07:55:23Z</time>
      </trkpt>
      <trkpt lat="45.75767" lon="5.97733">
        <ele>509</ele>
        <time>2011-07-03T07:55:24Z</time>
      </trkpt>
      <trkpt lat="45.75769" lon="5.97734">
        <ele>509</ele>
        <time>2011-07-03T07:55:25Z</time>
      </trkpt>
      <trkpt lat="45.7577" lon="5.97736">
        <ele>509</ele>
        <time>2011-07-03T07:55:26Z</time>
      </trkpt>
      <trkpt lat="45.75771" lon="5.97737">
        <ele>509</ele>
        <time>2011-07-03T07:55:27Z</time>
      </trkpt>
      <trkpt lat="45.75773" lon="5.97738">
        <ele>509</ele>
        <time>2011-07-03T07:55:28Z</time>
      </trkpt>
      <trkpt lat="45.75775" lon="5.97738">
        <ele>509</ele>
        <time>2011-07-03T07:55:29Z</time>
      </trkpt>
      <trkpt lat="45.75777" lon="5.9774">
        <ele>509</ele>
        <time>2011-07-03T07:55:30Z</time>
      </trkpt>
      <trkpt lat="45.75779" lon="5.97741">
        <ele>509</ele>
        <time>2011-07-03T07:55:31Z</time>
      </trkpt>
      <trkpt lat="45.75781" lon="5.97742">
        <ele>509</ele>
        <time>2011-07-03T07:55:32Z</time>
      </trkpt>
      <trkpt lat="45.75782" lon="5.97743">
        <ele>509</ele>
        <time>2011-07-03T07:55:33Z</time>
      </trkpt>
      <trkpt lat="45.75784" lon="5.97744">
        <ele>509</ele>
        <time>2011-07-03T07:55:34Z</time>
      </trkpt>
      <trkpt lat="45.75786" lon="5.97745">
        <ele>509</ele>
        <time>2011-07-03T07:55:35Z</time>
      </trkpt>
      <trkpt lat="45.75788" lon="5.97745">
        <ele>509</ele>
        <time>2011-07-03T07:55:36Z</time>
      </trkpt>
      <trkpt lat="45.7579" lon="5.97747">
        <ele>509</ele>
        <time>2011-07-03T07:55:37Z</time>
      </trkpt>
      <trkpt lat="45.75792" lon="5.97748">
        <ele>509</ele>
        <time>2011-07-03T07:55:38Z</time>
      </trkpt>
      <trkpt lat="45.75795" lon="5.97749">
        <ele>509</ele>
        <time>2011-07-03T07:55:39Z</time>
      </trkpt>
      <trkpt lat="45.75796" lon="5.97749">
        <ele>509</ele>
        <time>2011-07-03T07:55:40Z</time>
      </trkpt>
      <trkpt lat="45.75798" lon="5.9775">
        <ele>509</ele>
        <time>2011-07-03T07:55:41Z</time>
      </trkpt>
      <trkpt lat="45.758" lon="5.97751">
        <ele>510</ele>
        <time>2011-07-03T07:55:42Z</time>
      </trkpt>
      <trkpt lat="45.75801" lon="5.97752">
        <ele>510</ele>
        <time>2011-07-03T07:55:43Z</time>
      </trkpt>
      <trkpt lat="45.75803" lon="5.97752">
        <ele>511</ele>
        <time>2011-07-03T07:55:44Z</time>
      </trkpt>
      <trkpt lat="45.75805" lon="5.97752">
        <ele>511</ele>
        <time>2011-07-03T07:55:45Z</time>
      </trkpt>
      <trkpt lat="45.75807" lon="5.97751">
        <ele>512</ele>
        <time>2011-07-03T07:55:46Z</time>
      </trkpt>
      <trkpt lat="45.75809" lon="5.97751">
        <ele>512</ele>
        <time>2011-07-03T07:55:47Z</time>
      </trkpt>
      <trkpt lat="45.75811" lon="5.97751">
        <ele>512</ele>
        <time>2011-07-03T07:55:48Z</time>
      </trkpt>
      <trkpt lat="45.75813" lon="5.97752">
        <ele>513</ele>
        <time>2011-07-03T07:55:49Z</time>
      </trkpt>
      <trkpt lat="45.75815" lon="5.97752">
        <ele>514</ele>
        <time>2011-07-03T07:55:50Z</time>
      </trkpt>
      <trkpt lat="45.75817" lon="5.97753">
        <ele>515</ele>
        <time>2011-07-03T07:55:51Z</time>
      </trkpt>
      <trkpt lat="45.75819" lon="5.97753">
        <ele>516</ele>
        <time>2011-07-03T07:55:52Z</time>
      </trkpt>
      <trkpt lat="45.7582" lon="5.97753">
        <ele>516</ele>
        <time>2011-07-03T07:55:53Z</time>
      </trkpt>
      <trkpt lat="45.75822" lon="5.97754">
        <ele>517</ele>
        <time>2011-07-03T07:55:54Z</time>
      </trkpt>
      <trkpt lat="45.75824" lon="5.97754">
        <ele>518</ele>
        <time>2011-07-03T07:55:55Z</time>
      </trkpt>
      <trkpt lat="45.75826" lon="5.97754">
        <ele>519</ele>
        <time>2011-07-03T07:55:56Z</time>
      </trkpt>
      <trkpt lat="45.75828" lon="5.97754">
        <ele>520</ele>
        <time>2011-07-03T07:55:57Z</time>
      </trkpt>
      <trkpt lat="45.75829" lon="5.97754">
        <ele>521</ele>
        <time>2011-07-03T07:55:58Z</time>
      </trkpt>
      <trkpt lat="45.75831" lon="5.97754">
        <ele>521</ele>
        <time>2011-07-03T07:55:59Z</time>
      </trkpt>
      <trkpt lat="45.75833" lon="5.97754">
        <ele>522</ele>
        <time>2011-07-03T07:56:00Z</time>
      </trkpt>
      <trkpt lat="45.75835" lon="5.97753">
        <ele>522</ele>
        <time>2011-07-03T07:56:01Z</time>
      </trkpt>
      <trkpt lat="45.75837" lon="5.97753">
        <ele>523</ele>
        <time>2011-07-03T07:56:02Z</time>
      </trkpt>
      <trkpt lat="45.75839" lon="5.97753">
        <ele>523</ele>
        <time>2011-07-03T07:56:03Z</time>
      </trkpt>
      <trkpt lat="45.7584" lon="5.97754">
        <ele>523</ele>
        <time>2011-07-03T07:56:04Z</time>
      </trkpt>
      <trkpt lat="45.75841" lon="5.97754">
        <ele>523</ele>
        <time>2011-07-03T07:56:05Z</time>
      </trkpt>
      <trkpt lat="45.75842" lon="5.97755">
        <ele>523</ele>
        <time>2011-07-03T07:56:06Z</time>
      </trkpt>
      <trkpt lat="45.75844" lon="5.97755">
        <ele>523</ele>
        <time>2011-07-03T07:56:07Z</time>
      </trkpt>
      <trkpt lat="45.75845" lon="5.97755">
        <ele>524</ele>
        <time>2011-07-03T07:56:08Z</time>
      </trkpt>
      <trkpt lat="45.75847" lon="5.97755">
        <ele>524</ele>
        <time>2011-07-03T07:56:09Z</time>
      </trkpt>
      <trkpt lat="45.75849" lon="5.97756">
        <ele>524</ele>
        <time>2011-07-03T07:56:10Z</time>
      </trkpt>
      <trkpt lat="45.75851" lon="5.97756">
        <ele>524</ele>
        <time>2011-07-03T07:56:11Z</time>
      </trkpt>
      <trkpt lat="45.75853" lon="5.97756">
        <ele>524</ele>
        <time>2011-07-03T07:56:12Z</time>
      </trkpt>
      <trkpt lat="45.75855" lon="5.97756">
        <ele>524</ele>
        <time>2011-07-03T07:56:13Z</time>
      </trkpt>
      <trkpt lat="45.75857" lon="5.97757">
        <ele>524</ele>
        <time>2011-07-03T07:56:14Z</time>
      </trkpt>
      <trkpt lat="45.75859" lon="5.97757">
        <ele>524</ele>
        <time>2011-07-03T07:56:15Z</time>
      </trkpt>
      <trkpt lat="45.75861" lon="5.97756">
        <ele>524</ele>
        <time>2011-07-03T07:56:16Z</time>
      </trkpt>
      <trkpt lat="45.75864" lon="5.97756">
        <ele>524</ele>
        <time>2011-07-03T07:56:17Z</time>
      </trkpt>
      <trkpt lat="45.75866" lon="5.97756">
        <ele>524</ele>
        <time>2011-07-03T07:56:18Z</time>
      </trkpt>
      <trkpt lat="45.75867" lon="5.97757">
        <ele>524</ele>
        <time>2011-07-03T07:56:19Z</time>
      </trkpt>
      <trkpt lat="45.75869" lon="5.97757">
        <ele>524</ele>
        <time>2011-07-03T07:56:20Z</time>
      </trkpt>
      <trkpt lat="45.75872" lon="5.97756">
        <ele>524</ele>
        <time>2011-07-03T07:56:21Z</time>
      </trkpt>
      <trkpt lat="45.75874" lon="5.97756">
        <ele>524</ele>
        <time>2011-07-03T07:56:22Z</time>
      </trkpt>
      <trkpt lat="45.75876" lon="5.97756">
        <ele>524</ele>
        <time>2011-07-03T07:56:23Z</time>
      </trkpt>
      <trkpt lat="45.75878" lon="5.97755">
        <ele>524</ele>
        <time>2011-07-03T07:56:24Z</time>
      </trkpt>
      <trkpt lat="45.7588" lon="5.97755">
        <ele>524</ele>
        <time>2011-07-03T07:56:25Z</time>
      </trkpt>
      <trkpt lat="45.75881" lon="5.97755">
        <ele>524</ele>
        <time>2011-07-03T07:56:26Z</time>
      </trkpt>
      <trkpt lat="45.75883" lon="5.97755">
        <ele>524</ele>
        <time>2011-07-03T07:56:27Z</time>
      </trkpt>
      <trkpt lat="45.75885" lon="5.97754">
        <ele>524</ele>
        <time>2011-07-03T07:56:28Z</time>
      </trkpt>
      <trkpt lat="45.75887" lon="5.97754">
        <ele>524</ele>
        <time>2011-07-03T07:56:29Z</time>
      </trkpt>
      <trkpt lat="45.75888" lon="5.97753">
        <ele>525</ele>
        <time>2011-07-03T07:56:30Z</time>
      </trkpt>
      <trkpt lat="45.7589" lon="5.97753">
        <ele>525</ele>
        <time>2011-07-03T07:56:31Z</time>
      </trkpt>
      <trkpt lat="45.75892" lon="5.97753">
        <ele>526</ele>
        <time>2011-07-03T07:56:32Z</time>
      </trkpt>
      <trkpt lat="45.75894" lon="5.97753">
        <ele>526</ele>
        <time>2011-07-03T07:56:33Z</time>
      </trkpt>
      <trkpt lat="45.75896" lon="5.97752">
        <ele>526</ele>
        <time>2011-07-03T07:56:34Z</time>
      </trkpt>
      <trkpt lat="45.75898" lon="5.97752">
        <ele>526</ele>
        <time>2011-07-03T07:56:35Z</time>
      </trkpt>
      <trkpt lat="45.759" lon="5.97751">
        <ele>527</ele>
        <time>2011-07-03T07:56:36Z</time>
      </trkpt>
      <trkpt lat="45.75903" lon="5.97751">
        <ele>527</ele>
        <time>2011-07-03T07:56:37Z</time>
      </trkpt>
      <trkpt lat="45.75905" lon="5.97751">
        <ele>527</ele>
        <time>2011-07-03T07:56:38Z</time>
      </trkpt>
      <trkpt lat="45.75907" lon="5.97751">
        <ele>527</ele>
        <time>2011-07-03T07:56:39Z</time>
      </trkpt>
      <trkpt lat="45.75909" lon="5.9775">
        <ele>527</ele>
        <time>2011-07-03T07:56:40Z</time>
      </trkpt>
      <trkpt lat="45.75911" lon="5.9775">
        <ele>527</ele>
        <time>2011-07-03T07:56:41Z</time>
      </trkpt>
      <trkpt lat="45.75913" lon="5.9775">
        <ele>527</ele>
        <time>2011-07-03T07:56:42Z</time>
      </trkpt>
      <trkpt lat="45.75916" lon="5.9775">
        <ele>527</ele>
        <time>2011-07-03T07:56:43Z</time>
      </trkpt>
      <trkpt lat="45.75918" lon="5.9775">
        <ele>527</ele>
        <time>2011-07-03T07:56:44Z</time>
      </trkpt>
      <trkpt lat="45.7592" lon="5.9775">
        <ele>527</ele>
        <time>2011-07-03T07:56:45Z</time>
      </trkpt>
      <trkpt lat="45.75922" lon="5.97749">
        <ele>527</ele>
        <time>2011-07-03T07:56:46Z</time>
      </trkpt>
      <trkpt lat="45.75925" lon="5.97749">
        <ele>527</ele>
        <time>2011-07-03T07:56:47Z</time>
      </trkpt>
      <trkpt lat="45.75927" lon="5.97749">
        <ele>528</ele>
        <time>2011-07-03T07:56:48Z</time>
      </trkpt>
      <trkpt lat="45.75929" lon="5.97749">
        <ele>528</ele>
        <time>2011-07-03T07:56:49Z</time>
      </trkpt>
      <trkpt lat="45.75931" lon="5.97749">
        <ele>528</ele>
        <time>2011-07-03T07:56:50Z</time>
      </trkpt>
      <trkpt lat="45.75934" lon="5.97749">
        <ele>528</ele>
        <time>2011-07-03T07:56:51Z</time>
      </trkpt>
      <trkpt lat="45.75936" lon="5.97748">
        <ele>528</ele>
        <time>2011-07-03T07:56:52Z</time>
      </trkpt>
      <trkpt lat="45.75938" lon="5.97749">
        <ele>529</ele>
        <time>2011-07-03T07:56:53Z</time>
      </trkpt>
      <trkpt lat="45.75941" lon="5.97749">
        <ele>529</ele>
        <time>2011-07-03T07:56:54Z</time>
      </trkpt>
      <trkpt lat="45.75943" lon="5.97749">
        <ele>529</ele>
        <time>2011-07-03T07:56:55Z</time>
      </trkpt>
      <trkpt lat="45.75945" lon="5.97749">
        <ele>529</ele>
        <time>2011-07-03T07:56:56Z</time>
      </trkpt>
      <trkpt lat="45.75947" lon="5.97749">
        <ele>529</ele>
        <time>2011-07-03T07:56:57Z</time>
      </trkpt>
      <trkpt lat="45.75949" lon="5.9775">
        <ele>529</ele>
        <time>2011-07-03T07:56:58Z</time>
      </trkpt>
      <trkpt lat="45.75951" lon="5.9775">
        <ele>529</ele>
        <time>2011-07-03T07:56:59Z</time>
      </trkpt>
      <trkpt lat="45.75953" lon="5.9775">
        <ele>530</ele>
        <time>2011-07-03T07:57:00Z</time>
      </trkpt>
      <trkpt lat="45.75955" lon="5.9775">
        <ele>530</ele>
        <time>2011-07-03T07:57:01Z</time>
      </trkpt>
      <trkpt lat="45.75957" lon="5.9775">
        <ele>530</ele>
        <time>2011-07-03T07:57:02Z</time>
      </trkpt>
      <trkpt lat="45.75958" lon="5.9775">
        <ele>530</ele>
        <time>2011-07-03T07:57:03Z</time>
      </trkpt>
      <trkpt lat="45.7596" lon="5.9775">
        <ele>530</ele>
        <time>2011-07-03T07:57:04Z</time>
      </trkpt>
      <trkpt lat="45.75962" lon="5.9775">
        <ele>530</ele>
        <time>2011-07-03T07:57:05Z</time>
      </trkpt>
      <trkpt lat="45.75963" lon="5.97749">
        <ele>530</ele>
        <time>2011-07-03T07:57:06Z</time>
      </trkpt>
      <trkpt lat="45.75965" lon="5.97749">
        <ele>530</ele>
        <time>2011-07-03T07:57:07Z</time>
      </trkpt>
      <trkpt lat="45.75967" lon="5.97749">
        <ele>530</ele>
        <time>2011-07-03T07:57:08Z</time>
      </trkpt>
      <trkpt lat="45.7597" lon="5.97749">
        <ele>530</ele>
        <time>2011-07-03T07:57:09Z</time>
      </trkpt>
      <trkpt lat="45.75973" lon="5.97748">
        <ele>530</ele>
        <time>2011-07-03T07:57:10Z</time>
      </trkpt>
      <trkpt lat="45.75976" lon="5.97747">
        <ele>530</ele>
        <time>2011-07-03T07:57:11Z</time>
      </trkpt>
      <trkpt lat="45.75978" lon="5.97747">
        <ele>530</ele>
        <time>2011-07-03T07:57:12Z</time>
      </trkpt>
      <trkpt lat="45.75981" lon="5.97746">
        <ele>530</ele>
        <time>2011-07-03T07:57:13Z</time>
      </trkpt>
      <trkpt lat="45.75985" lon="5.97746">
        <ele>530</ele>
        <time>2011-07-03T07:57:14Z</time>
      </trkpt>
      <trkpt lat="45.75988" lon="5.97746">
        <ele>530</ele>
        <time>2011-07-03T07:57:15Z</time>
      </trkpt>
      <trkpt lat="45.75991" lon="5.97745">
        <ele>530</ele>
        <time>2011-07-03T07:57:16Z</time>
      </trkpt>
      <trkpt lat="45.75995" lon="5.97745">
        <ele>529</ele>
        <time>2011-07-03T07:57:17Z</time>
      </trkpt>
      <trkpt lat="45.75998" lon="5.97744">
        <ele>528</ele>
        <time>2011-07-03T07:57:18Z</time>
      </trkpt>
      <trkpt lat="45.76001" lon="5.97744">
        <ele>528</ele>
        <time>2011-07-03T07:57:19Z</time>
      </trkpt>
      <trkpt lat="45.76004" lon="5.97745">
        <ele>527</ele>
        <time>2011-07-03T07:57:20Z</time>
      </trkpt>
      <trkpt lat="45.76007" lon="5.97745">
        <ele>527</ele>
        <time>2011-07-03T07:57:21Z</time>
      </trkpt>
      <trkpt lat="45.7601" lon="5.97746">
        <ele>526</ele>
        <time>2011-07-03T07:57:22Z</time>
      </trkpt>
      <trkpt lat="45.76014" lon="5.97745">
        <ele>526</ele>
        <time>2011-07-03T07:57:23Z</time>
      </trkpt>
      <trkpt lat="45.76017" lon="5.97745">
        <ele>526</ele>
        <time>2011-07-03T07:57:24Z</time>
      </trkpt>
      <trkpt lat="45.7602" lon="5.97745">
        <ele>526</ele>
        <time>2011-07-03T07:57:25Z</time>
      </trkpt>
      <trkpt lat="45.76024" lon="5.97744">
        <ele>525</ele>
        <time>2011-07-03T07:57:26Z</time>
      </trkpt>
      <trkpt lat="45.76028" lon="5.97744">
        <ele>525</ele>
        <time>2011-07-03T07:57:27Z</time>
      </trkpt>
      <trkpt lat="45.76031" lon="5.97744">
        <ele>525</ele>
        <time>2011-07-03T07:57:28Z</time>
      </trkpt>
      <trkpt lat="45.76035" lon="5.97744">
        <ele>525</ele>
        <time>2011-07-03T07:57:29Z</time>
      </trkpt>
      <trkpt lat="45.76039" lon="5.97744">
        <ele>524</ele>
        <time>2011-07-03T07:57:30Z</time>
      </trkpt>
      <trkpt lat="45.76043" lon="5.97744">
        <ele>524</ele>
        <time>2011-07-03T07:57:31Z</time>
      </trkpt>
      <trkpt lat="45.76046" lon="5.97745">
        <ele>524</ele>
        <time>2011-07-03T07:57:32Z</time>
      </trkpt>
      <trkpt lat="45.76049" lon="5.97745">
        <ele>523</ele>
        <time>2011-07-03T07:57:33Z</time>
      </trkpt>
      <trkpt lat="45.76053" lon="5.97744">
        <ele>523</ele>
        <time>2011-07-03T07:57:34Z</time>
      </trkpt>
      <trkpt lat="45.76057" lon="5.97744">
        <ele>523</ele>
        <time>2011-07-03T07:57:35Z</time>
      </trkpt>
      <trkpt lat="45.7606" lon="5.97744">
        <ele>523</ele>
        <time>2011-07-03T07:57:36Z</time>
      </trkpt>
      <trkpt lat="45.76064" lon="5.97744">
        <ele>523</ele>
        <time>2011-07-03T07:57:37Z</time>
      </trkpt>
      <trkpt lat="45.76067" lon="5.97743">
        <ele>523</ele>
        <time>2011-07-03T07:57:38Z</time>
      </trkpt>
      <trkpt lat="45.76071" lon="5.97741">
        <ele>523</ele>
        <time>2011-07-03T07:57:39Z</time>
      </trkpt>
      <trkpt lat="45.76075" lon="5.9774">
        <ele>523</ele>
        <time>2011-07-03T07:57:40Z</time>
      </trkpt>
      <trkpt lat="45.76079" lon="5.9774">
        <ele>523</ele>
        <time>2011-07-03T07:57:41Z</time>
      </trkpt>
      <trkpt lat="45.76083" lon="5.9774">
        <ele>523</ele>
        <time>2011-07-03T07:57:42Z</time>
      </trkpt>
      <trkpt lat="45.76086" lon="5.97741">
        <ele>523</ele>
        <time>2011-07-03T07:57:43Z</time>
      </trkpt>
      <trkpt lat="45.7609" lon="5.97743">
        <ele>523</ele>
        <time>2011-07-03T07:57:44Z</time>
      </trkpt>
      <trkpt lat="45.76093" lon="5.97744">
        <ele>523</ele>
        <time>2011-07-03T07:57:45Z</time>
      </trkpt>
      <trkpt lat="45.76096" lon="5.97745">
        <ele>523</ele>
        <time>2011-07-03T07:57:46Z</time>
      </trkpt>
      <trkpt lat="45.76099" lon="5.97747">
        <ele>523</ele>
        <time>2011-07-03T07:57:47Z</time>
      </trkpt>
      <trkpt lat="45.76103" lon="5.97748">
        <ele>523</ele>
        <time>2011-07-03T07:57:48Z</time>
      </trkpt>
      <trkpt lat="45.76106" lon="5.97749">
        <ele>523</ele>
        <time>2011-07-03T07:57:49Z</time>
      </trkpt>
      <trkpt lat="45.76109" lon="5.9775">
        <ele>523</ele>
        <time>2011-07-03T07:57:50Z</time>
      </trkpt>
      <trkpt lat="45.76112" lon="5.97751">
        <ele>523</ele>
        <time>2011-07-03T07:57:51Z</time>
      </trkpt>
      <trkpt lat="45.76115" lon="5.97751">
        <ele>523</ele>
        <time>2011-07-03T07:57:52Z</time>
      </trkpt>
      <trkpt lat="45.76118" lon="5.97752">
        <ele>523</ele>
        <time>2011-07-03T07:57:53Z</time>
      </trkpt>
      <trkpt lat="45.76122" lon="5.97753">
        <ele>523</ele>
        <time>2011-07-03T07:57:54Z</time>
      </trkpt>
      <trkpt lat="45.76125" lon="5.97753">
        <ele>523</ele>
        <time>2011-07-03T07:57:55Z</time>
      </trkpt>
      <trkpt lat="45.76128" lon="5.97754">
        <ele>523</ele>
        <time>2011-07-03T07:57:56Z</time>
      </trkpt>
      <trkpt lat="45.76131" lon="5.97754">
        <ele>523</ele>
        <time>2011-07-03T07:57:57Z</time>
      </trkpt>
      <trkpt lat="45.76133" lon="5.97755">
        <ele>522</ele>
        <time>2011-07-03T07:57:58Z</time>
      </trkpt>
      <trkpt lat="45.76136" lon="5.97756">
        <ele>522</ele>
        <time>2011-07-03T07:57:59Z</time>
      </trkpt>
      <trkpt lat="45.76139" lon="5.97757">
        <ele>522</ele>
        <time>2011-07-03T07:58:00Z</time>
      </trkpt>
      <trkpt lat="45.76142" lon="5.97757">
        <ele>522</ele>
        <time>2011-07-03T07:58:01Z</time>
      </trkpt>
      <trkpt lat="45.76145" lon="5.97758">
        <ele>522</ele>
        <time>2011-07-03T07:58:02Z</time>
      </trkpt>
      <trkpt lat="45.76149" lon="5.97758">
        <ele>522</ele>
        <time>2011-07-03T07:58:03Z</time>
      </trkpt>
      <trkpt lat="45.76152" lon="5.97759">
        <ele>522</ele>
        <time>2011-07-03T07:58:04Z</time>
      </trkpt>
      <trkpt lat="45.76155" lon="5.97759">
        <ele>522</ele>
        <time>2011-07-03T07:58:05Z</time>
      </trkpt>
      <trkpt lat="45.76158" lon="5.9776">
        <ele>522</ele>
        <time>2011-07-03T07:58:06Z</time>
      </trkpt>
      <trkpt lat="45.76161" lon="5.97761">
        <ele>522</ele>
        <time>2011-07-03T07:58:07Z</time>
      </trkpt>
      <trkpt lat="45.76164" lon="5.97761">
        <ele>522</ele>
        <time>2011-07-03T07:58:08Z</time>
      </trkpt>
      <trkpt lat="45.76168" lon="5.97762">
        <ele>522</ele>
        <time>2011-07-03T07:58:09Z</time>
      </trkpt>
      <trkpt lat="45.76171" lon="5.97763">
        <ele>522</ele>
        <time>2011-07-03T07:58:10Z</time>
      </trkpt>
      <trkpt lat="45.76175" lon="5.97763">
        <ele>522</ele>
        <time>2011-07-03T07:58:11Z</time>
      </trkpt>
      <trkpt lat="45.76178" lon="5.97764">
        <ele>522</ele>
        <time>2011-07-03T07:58:12Z</time>
      </trkpt>
      <trkpt lat="45.76181" lon="5.97764">
        <ele>522</ele>
        <time>2011-07-03T07:58:13Z</time>
      </trkpt>
      <trkpt lat="45.76184" lon="5.97765">
        <ele>522</ele>
        <time>2011-07-03T07:58:14Z</time>
      </trkpt>
      <trkpt lat="45.76188" lon="5.97766">
        <ele>522</ele>
        <time>2011-07-03T07:58:15Z</time>
      </trkpt>
      <trkpt lat="45.76191" lon="5.97766">
        <ele>521</ele>
        <time>2011-07-03T07:58:16Z</time>
      </trkpt>
      <trkpt lat="45.76194" lon="5.97767">
        <ele>521</ele>
        <time>2011-07-03T07:58:17Z</time>
      </trkpt>
      <trkpt lat="45.76197" lon="5.97768">
        <ele>521</ele>
        <time>2011-07-03T07:58:18Z</time>
      </trkpt>
      <trkpt lat="45.76199" lon="5.97768">
        <ele>521</ele>
        <time>2011-07-03T07:58:19Z</time>
      </trkpt>
      <trkpt lat="45.76201" lon="5.97768">
        <ele>521</ele>
        <time>2011-07-03T07:58:20Z</time>
      </trkpt>
      <trkpt lat="45.76204" lon="5.97769">
        <ele>521</ele>
        <time>2011-07-03T07:58:21Z</time>
      </trkpt>
      <trkpt lat="45.76206" lon="5.97769">
        <ele>521</ele>
        <time>2011-07-03T07:58:22Z</time>
      </trkpt>
      <trkpt lat="45.76209" lon="5.9777">
        <ele>521</ele>
        <time>2011-07-03T07:58:23Z</time>
      </trkpt>
      <trkpt lat="45.76211" lon="5.9777">
        <ele>521</ele>
        <time>2011-07-03T07:58:24Z</time>
      </trkpt>
      <trkpt lat="45.76214" lon="5.9777">
        <ele>521</ele>
        <time>2011-07-03T07:58:25Z</time>
      </trkpt>
      <trkpt lat="45.76217" lon="5.97768">
        <ele>521</ele>
        <time>2011-07-03T07:58:26Z</time>
      </trkpt>
      <trkpt lat="45.76218" lon="5.97764">
        <ele>520</ele>
        <time>2011-07-03T07:58:27Z</time>
      </trkpt>
      <trkpt lat="45.7622" lon="5.97758">
        <ele>520</ele>
        <time>2011-07-03T07:58:28Z</time>
      </trkpt>
      <trkpt lat="45.76221" lon="5.97752">
        <ele>520</ele>
        <time>2011-07-03T07:58:29Z</time>
      </trkpt>
      <trkpt lat="45.76222" lon="5.97747">
        <ele>519</ele>
        <time>2011-07-03T07:58:30Z</time>
      </trkpt>
      <trkpt lat="45.76225" lon="5.97741">
        <ele>519</ele>
        <time>2011-07-03T07:58:31Z</time>
      </trkpt>
      <trkpt lat="45.76228" lon="5.97738">
        <ele>519</ele>
        <time>2011-07-03T07:58:32Z</time>
      </trkpt>
      <trkpt lat="45.76232" lon="5.97737">
        <ele>518</ele>
        <time>2011-07-03T07:58:33Z</time>
      </trkpt>
      <trkpt lat="45.76236" lon="5.97737">
        <ele>518</ele>
        <time>2011-07-03T07:58:34Z</time>
      </trkpt>
      <trkpt lat="45.76241" lon="5.97738">
        <ele>518</ele>
        <time>2011-07-03T07:58:35Z</time>
      </trkpt>
      <trkpt lat="45.76246" lon="5.97739">
        <ele>518</ele>
        <time>2011-07-03T07:58:36Z</time>
      </trkpt>
      <trkpt lat="45.76251" lon="5.9774">
        <ele>518</ele>
        <time>2011-07-03T07:58:37Z</time>
      </trkpt>
      <trkpt lat="45.76256" lon="5.97741">
        <ele>517</ele>
        <time>2011-07-03T07:58:38Z</time>
      </trkpt>
      <trkpt lat="45.76262" lon="5.97742">
        <ele>517</ele>
        <time>2011-07-03T07:58:39Z</time>
      </trkpt>
      <trkpt lat="45.76267" lon="5.97743">
        <ele>517</ele>
        <time>2011-07-03T07:58:40Z</time>
      </trkpt>
      <trkpt lat="45.76272" lon="5.97744">
        <ele>517</ele>
        <time>2011-07-03T07:58:41Z</time>
      </trkpt>
      <trkpt lat="45.76278" lon="5.97744">
        <ele>516</ele>
        <time>2011-07-03T07:58:42Z</time>
      </trkpt>
      <trkpt lat="45.76282" lon="5.97745">
        <ele>516</ele>
        <time>2011-07-03T07:58:43Z</time>
      </trkpt>
      <trkpt lat="45.76287" lon="5.97745">
        <ele>516</ele>
        <time>2011-07-03T07:58:44Z</time>
      </trkpt>
      <trkpt lat="45.7629" lon="5.97744">
        <ele>516</ele>
        <time>2011-07-03T07:58:45Z</time>
      </trkpt>
      <trkpt lat="45.76294" lon="5.97745">
        <ele>516</ele>
        <time>2011-07-03T07:58:46Z</time>
      </trkpt>
      <trkpt lat="45.76298" lon="5.97747">
        <ele>516</ele>
        <time>2011-07-03T07:58:47Z</time>
      </trkpt>
      <trkpt lat="45.76301" lon="5.97749">
        <ele>516</ele>
        <time>2011-07-03T07:58:48Z</time>
      </trkpt>
      <trkpt lat="45.76305" lon="5.97753">
        <ele>516</ele>
        <time>2011-07-03T07:58:49Z</time>
      </trkpt>
      <trkpt lat="45.76308" lon="5.97759">
        <ele>516</ele>
        <time>2011-07-03T07:58:50Z</time>
      </trkpt>
      <trkpt lat="45.76311" lon="5.97766">
        <ele>516</ele>
        <time>2011-07-03T07:58:51Z</time>
      </trkpt>
      <trkpt lat="45.76314" lon="5.97773">
        <ele>515</ele>
        <time>2011-07-03T07:58:52Z</time>
      </trkpt>
      <trkpt lat="45.76316" lon="5.97778">
        <ele>515</ele>
        <time>2011-07-03T07:58:53Z</time>
      </trkpt>
      <trkpt lat="45.76318" lon="5.97783">
        <ele>515</ele>
        <time>2011-07-03T07:58:54Z</time>
      </trkpt>
      <trkpt lat="45.76318" lon="5.97788">
        <ele>514</ele>
        <time>2011-07-03T07:58:55Z</time>
      </trkpt>
      <trkpt lat="45.76318" lon="5.97791">
        <ele>514</ele>
        <time>2011-07-03T07:58:56Z</time>
      </trkpt>
      <trkpt lat="45.76318" lon="5.97793">
        <ele>514</ele>
        <time>2011-07-03T07:58:57Z</time>
      </trkpt>
      <trkpt lat="45.76318" lon="5.97795">
        <ele>513</ele>
        <time>2011-07-03T07:58:58Z</time>
      </trkpt>
      <trkpt lat="45.76319" lon="5.97797">
        <ele>513</ele>
        <time>2011-07-03T07:58:59Z</time>
      </trkpt>
      <trkpt lat="45.76319" lon="5.97799">
        <ele>513</ele>
        <time>2011-07-03T07:59:00Z</time>
      </trkpt>
      <trkpt lat="45.7632" lon="5.978">
        <ele>512</ele>
        <time>2011-07-03T07:59:01Z</time>
      </trkpt>
      <trkpt lat="45.7632" lon="5.97803">
        <ele>512</ele>
        <time>2011-07-03T07:59:02Z</time>
      </trkpt>
      <trkpt lat="45.7632" lon="5.97806">
        <ele>512</ele>
        <time>2011-07-03T07:59:03Z</time>
      </trkpt>
      <trkpt lat="45.76321" lon="5.97808">
        <ele>512</ele>
        <time>2011-07-03T07:59:04Z</time>
      </trkpt>
      <trkpt lat="45.76321" lon="5.9781">
        <ele>511</ele>
        <time>2011-07-03T07:59:05Z</time>
      </trkpt>
      <trkpt lat="45.76321" lon="5.97813">
        <ele>511</ele>
        <time>2011-07-03T07:59:06Z</time>
      </trkpt>
      <trkpt lat="45.76322" lon="5.97816">
        <ele>510</ele>
        <time>2011-07-03T07:59:07Z</time>
      </trkpt>
      <trkpt lat="45.76322" lon="5.97819">
        <ele>510</ele>
        <time>2011-07-03T07:59:08Z</time>
      </trkpt>
      <trkpt lat="45.76322" lon="5.97822">
        <ele>510</ele>
        <time>2011-07-03T07:59:09Z</time>
      </trkpt>
      <trkpt lat="45.76323" lon="5.97824">
        <ele>509</ele>
        <time>2011-07-03T07:59:10Z</time>
      </trkpt>
      <trkpt lat="45.76323" lon="5.97826">
        <ele>509</ele>
        <time>2011-07-03T07:59:11Z</time>
      </trkpt>
      <trkpt lat="45.76324" lon="5.97828">
        <ele>509</ele>
        <time>2011-07-03T07:59:12Z</time>
      </trkpt>
      <trkpt lat="45.76325" lon="5.97831">
        <ele>509</ele>
        <time>2011-07-03T07:59:13Z</time>
      </trkpt>
      <trkpt lat="45.76325" lon="5.97833">
        <ele>509</ele>
        <time>2011-07-03T07:59:14Z</time>
      </trkpt>
      <trkpt lat="45.76326" lon="5.97836">
        <ele>509</ele>
        <time>2011-07-03T07:59:15Z</time>
      </trkpt>
      <trkpt lat="45.76326" lon="5.97839">
        <ele>509</ele>
        <time>2011-07-03T07:59:16Z</time>
      </trkpt>
      <trkpt lat="45.76326" lon="5.97841">
        <ele>509</ele>
        <time>2011-07-03T07:59:17Z</time>
      </trkpt>
      <trkpt lat="45.76326" lon="5.97843">
        <ele>509</ele>
        <time>2011-07-03T07:59:18Z</time>
      </trkpt>
      <trkpt lat="45.76326" lon="5.97845">
        <ele>509</ele>
        <time>2011-07-03T07:59:19Z</time>
      </trkpt>
      <trkpt lat="45.76326" lon="5.97847">
        <ele>509</ele>
        <time>2011-07-03T07:59:20Z</time>
      </trkpt>
      <trkpt lat="45.76327" lon="5.97849">
        <ele>509</ele>
        <time>2011-07-03T07:59:21Z</time>
      </trkpt>
      <trkpt lat="45.76327" lon="5.97851">
        <ele>509</ele>
        <time>2011-07-03T07:59:22Z</time>
      </trkpt>
      <trkpt lat="45.76327" lon="5.97854">
        <ele>509</ele>
        <time>2011-07-03T07:59:23Z</time>
      </trkpt>
      <trkpt lat="45.76327" lon="5.97856">
        <ele>509</ele>
        <time>2011-07-03T07:59:24Z</time>
      </trkpt>
      <trkpt lat="45.76327" lon="5.97858">
        <ele>509</ele>
        <time>2011-07-03T07:59:25Z</time>
      </trkpt>
      <trkpt lat="45.76328" lon="5.9786">
        <ele>509</ele>
        <time>2011-07-03T07:59:26Z</time>
      </trkpt>
      <trkpt lat="45.76328" lon="5.97862">
        <ele>509</ele>
        <time>2011-07-03T07:59:27Z</time>
      </trkpt>
      <trkpt lat="45.76328" lon="5.97863">
        <ele>509</ele>
        <time>2011-07-03T07:59:28Z</time>
      </trkpt>
      <trkpt lat="45.76328" lon="5.97865">
        <ele>509</ele>
        <time>2011-07-03T07:59:29Z</time>
      </trkpt>
      <trkpt lat="45.76328" lon="5.97867">
        <ele>509</ele>
        <time>2011-07-03T07:59:30Z</time>
      </trkpt>
      <trkpt lat="45.76328" lon="5.97869">
        <ele>509</ele>
        <time>2011-07-03T07:59:31Z</time>
      </trkpt>
      <trkpt lat="45.76328" lon="5.97871">
        <ele>509</ele>
        <time>2011-07-03T07:59:32Z</time>
      </trkpt>
      <trkpt lat="45.76328" lon="5.97873">
        <ele>509</ele>
        <time>2011-07-03T07:59:33Z</time>
      </trkpt>
      <trkpt lat="45.76328" lon="5.97875">
        <ele>509</ele>
        <time>2011-07-03T07:59:34Z</time>
      </trkpt>
      <trkpt lat="45.76328" lon="5.97877">
        <ele>510</ele>
        <time>2011-07-03T07:59:35Z</time>
      </trkpt>
      <trkpt lat="45.76328" lon="5.97879">
        <ele>510</ele>
        <time>2011-07-03T07:59:36Z</time>
      </trkpt>
      <trkpt lat="45.76329" lon="5.97882">
        <ele>510</ele>
        <time>2011-07-03T07:59:37Z</time>
      </trkpt>
      <trkpt lat="45.76329" lon="5.97884">
        <ele>511</ele>
        <time>2011-07-03T07:59:38Z</time>
      </trkpt>
      <trkpt lat="45.76329" lon="5.97886">
        <ele>512</ele>
        <time>2011-07-03T07:59:39Z</time>
      </trkpt>
      <trkpt lat="45.76329" lon="5.97888">
        <ele>512</ele>
        <time>2011-07-03T07:59:40Z</time>
      </trkpt>
      <trkpt lat="45.76329" lon="5.97891">
        <ele>513</ele>
        <time>2011-07-03T07:59:41Z</time>
      </trkpt>
      <trkpt lat="45.76329" lon="5.97892">
        <ele>513</ele>
        <time>2011-07-03T07:59:42Z</time>
      </trkpt>
      <trkpt lat="45.76329" lon="5.97894">
        <ele>513</ele>
        <time>2011-07-03T07:59:43Z</time>
      </trkpt>
      <trkpt lat="45.76329" lon="5.97897">
        <ele>514</ele>
        <time>2011-07-03T07:59:44Z</time>
      </trkpt>
      <trkpt lat="45.76328" lon="5.97899">
        <ele>514</ele>
        <time>2011-07-03T07:59:45Z</time>
      </trkpt>
      <trkpt lat="45.76328" lon="5.97902">
        <ele>515</ele>
        <time>2011-07-03T07:59:46Z</time>
      </trkpt>
      <trkpt lat="45.76328" lon="5.97904">
        <ele>515</ele>
        <time>2011-07-03T07:59:47Z</time>
      </trkpt>
      <trkpt lat="45.76328" lon="5.97907">
        <ele>515</ele>
        <time>2011-07-03T07:59:48Z</time>
      </trkpt>
      <trkpt lat="45.76326" lon="5.97909">
        <ele>516</ele>
        <time>2011-07-03T07:59:49Z</time>
      </trkpt>
      <trkpt lat="45.76325" lon="5.9791">
        <ele>516</ele>
        <time>2011-07-03T07:59:50Z</time>
      </trkpt>
      <trkpt lat="45.76324" lon="5.97911">
        <ele>517</ele>
        <time>2011-07-03T07:59:51Z</time>
      </trkpt>
      <trkpt lat="45.76322" lon="5.97911">
        <ele>517</ele>
        <time>2011-07-03T07:59:52Z</time>
      </trkpt>
      <trkpt lat="45.76321" lon="5.97911">
        <ele>518</ele>
        <time>2011-07-03T07:59:53Z</time>
      </trkpt>
      <trkpt lat="45.76319" lon="5.9791">
        <ele>518</ele>
        <time>2011-07-03T07:59:54Z</time>
      </trkpt>
      <trkpt lat="45.76318" lon="5.97909">
        <ele>519</ele>
        <time>2011-07-03T07:59:55Z</time>
      </trkpt>
      <trkpt lat="45.76316" lon="5.97907">
        <ele>519</ele>
        <time>2011-07-03T07:59:56Z</time>
      </trkpt>
      <trkpt lat="45.76315" lon="5.97905">
        <ele>519</ele>
        <time>2011-07-03T07:59:57Z</time>
      </trkpt>
      <trkpt lat="45.76313" lon="5.97902">
        <ele>520</ele>
        <time>2011-07-03T07:59:58Z</time>
      </trkpt>
      <trkpt lat="45.76311" lon="5.979">
        <ele>520</ele>
        <time>2011-07-03T07:59:59Z</time>
      </trkpt>
      <trkpt lat="45.76308" lon="5.97899">
        <ele>520</ele>
        <time>2011-07-03T08:00:00Z</time>
      </trkpt>
      <trkpt lat="45.76306" lon="5.97898">
        <ele>520</ele>
        <time>2011-07-03T08:00:01Z</time>
      </trkpt>
      <trkpt lat="45.76304" lon="5.97898">
        <ele>521</ele>
        <time>2011-07-03T08:00:02Z</time>
      </trkpt>
      <trkpt lat="45.76301" lon="5.97897">
        <ele>521</ele>
        <time>2011-07-03T08:00:03Z</time>
      </trkpt>
      <trkpt lat="45.76299" lon="5.97896">
        <ele>521</ele>
        <time>2011-07-03T08:00:04Z</time>
      </trkpt>
      <trkpt lat="45.76297" lon="5.97895">
        <ele>521</ele>
        <time>2011-07-03T08:00:05Z</time>
      </trkpt>
      <trkpt lat="45.76294" lon="5.97893">
        <ele>521</ele>
        <time>2011-07-03T08:00:06Z</time>
      </trkpt>
      <trkpt lat="45.76293" lon="5.97893">
        <ele>521</ele>
        <time>2011-07-03T08:00:07Z</time>
      </trkpt>
      <trkpt lat="45.76293" lon="5.97894">
        <ele>521</ele>
        <time>2011-07-03T08:00:11Z</time>
      </trkpt>
      <trkpt lat="45.76291" lon="5.97895">
        <ele>521</ele>
        <time>2011-07-03T08:00:13Z</time>
      </trkpt>
      <trkpt lat="45.76289" lon="5.97895">
        <ele>521</ele>
        <time>2011-07-03T08:00:15Z</time>
      </trkpt>
      <trkpt lat="45.76289" lon="5.97897">
        <ele>522</ele>
        <time>2011-07-03T08:00:18Z</time>
      </trkpt>
      <trkpt lat="45.76289" lon="5.97899">
        <ele>522</ele>
        <time>2011-07-03T08:00:20Z</time>
      </trkpt>
      <trkpt lat="45.76289" lon="5.97901">
        <ele>522</ele>
        <time>2011-07-03T08:00:22Z</time>
      </trkpt>
      <trkpt lat="45.76289" lon="5.97904">
        <ele>522</ele>
        <time>2011-07-03T08:00:24Z</time>
      </trkpt>
      <trkpt lat="45.76289" lon="5.97906">
        <ele>522</ele>
        <time>2011-07-03T08:00:26Z</time>
      </trkpt>
      <trkpt lat="45.76289" lon="5.97908">
        <ele>522</ele>
        <time>2011-07-03T08:00:28Z</time>
      </trkpt>
      <trkpt lat="45.7629" lon="5.9791">
        <ele>522</ele>
        <time>2011-07-03T08:00:30Z</time>
      </trkpt>
      <trkpt lat="45.7629" lon="5.97912">
        <ele>522</ele>
        <time>2011-07-03T08:00:32Z</time>
      </trkpt>
      <trkpt lat="45.76291" lon="5.97914">
        <ele>522</ele>
        <time>2011-07-03T08:00:34Z</time>
      </trkpt>
      <trkpt lat="45.76291" lon="5.97916">
        <ele>522</ele>
        <time>2011-07-03T08:00:36Z</time>
      </trkpt>
      <trkpt lat="45.76291" lon="5.97919">
        <ele>522</ele>
        <time>2011-07-03T08:00:38Z</time>
      </trkpt>
      <trkpt lat="45.76291" lon="5.97921">
        <ele>523</ele>
        <time>2011-07-03T08:00:40Z</time>
      </trkpt>
      <trkpt lat="45.76291" lon="5.97923">
        <ele>524</ele>
        <time>2011-07-03T08:00:42Z</time>
      </trkpt>
      <trkpt lat="45.76291" lon="5.97924">
        <ele>525</ele>
        <time>2011-07-03T08:00:48Z</time>
      </trkpt>
      <trkpt lat="45.76291" lon="5.97923">
        <ele>526</ele>
        <time>2011-07-03T08:01:01Z</time>
      </trkpt>
      <trkpt lat="45.7629" lon="5.97924">
        <ele>529</ele>
        <time>2011-07-03T08:01:08Z</time>
      </trkpt>
      <trkpt lat="45.7629" lon="5.97926">
        <ele>531</ele>
        <time>2011-07-03T08:01:13Z</time>
      </trkpt>
      <trkpt lat="45.7629" lon="5.97928">
        <ele>531</ele>
        <time>2011-07-03T08:01:15Z</time>
      </trkpt>
      <trkpt lat="45.7629" lon="5.97929">
        <ele>531</ele>
        <time>2011-07-03T08:01:17Z</time>
      </trkpt>
      <trkpt lat="45.7629" lon="5.97931">
        <ele>532</ele>
        <time>2011-07-03T08:01:19Z</time>
      </trkpt>
      <trkpt lat="45.76291" lon="5.97933">
        <ele>533</ele>
        <time>2011-07-03T08:01:21Z</time>
      </trkpt>
      <trkpt lat="45.76291" lon="5.97936">
        <ele>534</ele>
        <time>2011-07-03T08:01:25Z</time>
      </trkpt>
      <trkpt lat="45.76292" lon="5.97939">
        <ele>534</ele>
        <time>2011-07-03T08:01:29Z</time>
      </trkpt>
      <trkpt lat="45.76292" lon="5.97937">
        <ele>534</ele>
        <time>2011-07-03T08:01:32Z</time>
      </trkpt>
      <trkpt lat="45.76292" lon="5.97936">
        <ele>535</ele>
        <time>2011-07-03T08:01:33Z</time>
      </trkpt>
      <trkpt lat="45.76293" lon="5.97934">
        <ele>536</ele>
        <time>2011-07-03T08:01:35Z</time>
      </trkpt>
      <trkpt lat="45.76293" lon="5.97932">
        <ele>536</ele>
        <time>2011-07-03T08:01:37Z</time>
      </trkpt>
      <trkpt lat="45.76293" lon="5.9793">
        <ele>536</ele>
        <time>2011-07-03T08:01:39Z</time>
      </trkpt>
      <trkpt lat="45.76294" lon="5.97928">
        <ele>536</ele>
        <time>2011-07-03T08:01:40Z</time>
      </trkpt>
      <trkpt lat="45.76294" lon="5.97926">
        <ele>536</ele>
        <time>2011-07-03T08:01:41Z</time>
      </trkpt>
      <trkpt lat="45.76295" lon="5.97924">
        <ele>536</ele>
        <time>2011-07-03T08:01:42Z</time>
      </trkpt>
      <trkpt lat="45.76297" lon="5.97923">
        <ele>536</ele>
        <time>2011-07-03T08:01:43Z</time>
      </trkpt>
      <trkpt lat="45.76299" lon="5.97923">
        <ele>536</ele>
        <time>2011-07-03T08:01:45Z</time>
      </trkpt>
      <trkpt lat="45.763" lon="5.97924">
        <ele>535</ele>
        <time>2011-07-03T08:01:46Z</time>
      </trkpt>
      <trkpt lat="45.76301" lon="5.97926">
        <ele>533</ele>
        <time>2011-07-03T08:01:48Z</time>
      </trkpt>
      <trkpt lat="45.76302" lon="5.97928">
        <ele>530</ele>
        <time>2011-07-03T08:01:51Z</time>
      </trkpt>
      <trkpt lat="45.76301" lon="5.97929">
        <ele>526</ele>
        <time>2011-07-03T08:01:58Z</time>
      </trkpt>
      <trkpt lat="45.763" lon="5.97929">
        <ele>526</ele>
        <time>2011-07-03T08:02:03Z</time>
      </trkpt>
      <trkpt lat="45.763" lon="5.97927">
        <ele>526</ele>
        <time>2011-07-03T08:02:10Z</time>
      </trkpt>
      <trkpt lat="45.76301" lon="5.97925">
        <ele>526</ele>
        <time>2011-07-03T08:02:11Z</time>
      </trkpt>
      <trkpt lat="45.76301" lon="5.97923">
        <ele>526</ele>
        <time>2011-07-03T08:02:13Z</time>
      </trkpt>
      <trkpt lat="45.76302" lon="5.97921">
        <ele>526</ele>
        <time>2011-07-03T08:02:17Z</time>
      </trkpt>
      <trkpt lat="45.76302" lon="5.9792">
        <ele>526</ele>
        <time>2011-07-03T08:02:19Z</time>
      </trkpt>
      <trkpt lat="45.76303" lon="5.97917">
        <ele>527</ele>
        <time>2011-07-03T08:02:21Z</time>
      </trkpt>
      <trkpt lat="45.76303" lon="5.97914">
        <ele>527</ele>
        <time>2011-07-03T08:02:23Z</time>
      </trkpt>
      <trkpt lat="45.76302" lon="5.97916">
        <ele>528</ele>
        <time>2011-07-03T08:02:27Z</time>
      </trkpt>
      <trkpt lat="45.76301" lon="5.97915">
        <ele>532</ele>
        <time>2011-07-03T08:02:32Z</time>
      </trkpt>
      <trkpt lat="45.763" lon="5.97914">
        <ele>533</ele>
        <time>2011-07-03T08:02:34Z</time>
      </trkpt>
      <trkpt lat="45.76298" lon="5.97913">
        <ele>535</ele>
        <time>2011-07-03T08:02:38Z</time>
      </trkpt>
      <trkpt lat="45.76297" lon="5.97913">
        <ele>536</ele>
        <time>2011-07-03T08:02:40Z</time>
      </trkpt>
      <trkpt lat="45.76297" lon="5.97914">
        <ele>537</ele>
        <time>2011-07-03T08:02:41Z</time>
      </trkpt>
      <trkpt lat="45.76296" lon="5.97912">
        <ele>539</ele>
        <time>2011-07-03T08:02:43Z</time>
      </trkpt>
      <trkpt lat="45.76295" lon="5.97913">
        <ele>540</ele>
        <time>2011-07-03T08:02:46Z</time>
      </trkpt>
      <trkpt lat="45.76294" lon="5.97914">
        <ele>540</ele>
        <time>2011-07-03T08:02:48Z</time>
      </trkpt>
      <trkpt lat="45.76294" lon="5.97913">
        <ele>541</ele>
        <time>2011-07-03T08:02:53Z</time>
      </trkpt>
      <trkpt lat="45.76294" lon="5.97914">
        <ele>541</ele>
        <time>2011-07-03T08:02:54Z</time>
      </trkpt>
      <trkpt lat="45.76295" lon="5.97916">
        <ele>541</ele>
        <time>2011-07-03T08:02:55Z</time>
      </trkpt>
      <trkpt lat="45.76295" lon="5.97917">
        <ele>541</ele>
        <time>2011-07-03T08:02:56Z</time>
      </trkpt>
      <trkpt lat="45.76293" lon="5.97918">
        <ele>541</ele>
        <time>2011-07-03T08:02:58Z</time>
      </trkpt>
      <trkpt lat="45.76292" lon="5.9792">
        <ele>541</ele>
        <time>2011-07-03T08:02:59Z</time>
      </trkpt>
      <trkpt lat="45.76292" lon="5.97921">
        <ele>543</ele>
        <time>2011-07-03T08:03:01Z</time>
      </trkpt>
      <trkpt lat="45.76291" lon="5.97924">
        <ele>545</ele>
        <time>2011-07-03T08:03:04Z</time>
      </trkpt>
      <trkpt lat="45.76293" lon="5.97924">
        <ele>551</ele>
        <time>2011-07-03T08:03:10Z</time>
      </trkpt>
      <trkpt lat="45.76295" lon="5.97921">
        <ele>551</ele>
        <time>2011-07-03T08:03:12Z</time>
      </trkpt>
      <trkpt lat="45.76294" lon="5.97923">
        <ele>556</ele>
        <time>2011-07-03T08:03:27Z</time>
      </trkpt>
      <trkpt lat="45.76294" lon="5.97921">
        <ele>559</ele>
        <time>2011-07-03T08:03:30Z</time>
      </trkpt>
      <trkpt lat="45.76295" lon="5.9792">
        <ele>562</ele>
        <time>2011-07-03T08:03:33Z</time>
      </trkpt>
      <trkpt lat="45.76294" lon="5.97919">
        <ele>562</ele>
        <time>2011-07-03T08:03:40Z</time>
      </trkpt>
      <trkpt lat="45.76293" lon="5.97917">
        <ele>562</ele>
        <time>2011-07-03T08:03:42Z</time>
      </trkpt>
      <trkpt lat="45.76292" lon="5.97916">
        <ele>563</ele>
        <time>2011-07-03T08:03:44Z</time>
      </trkpt>
      <trkpt lat="45.76291" lon="5.97915">
        <ele>563</ele>
        <time>2011-07-03T08:03:46Z</time>
      </trkpt>
      <trkpt lat="45.76289" lon="5.97912">
        <ele>564</ele>
        <time>2011-07-03T08:03:48Z</time>
      </trkpt>
      <trkpt lat="45.76289" lon="5.97911">
        <ele>567</ele>
        <time>2011-07-03T08:03:51Z</time>
      </trkpt>
      <trkpt lat="45.7629" lon="5.9791">
        <ele>568</ele>
        <time>2011-07-03T08:03:54Z</time>
      </trkpt>
      <trkpt lat="45.76292" lon="5.97912">
        <ele>568</ele>
        <time>2011-07-03T08:03:56Z</time>
      </trkpt>
      <trkpt lat="45.7629" lon="5.9791">
        <ele>567</ele>
        <time>2011-07-03T08:03:58Z</time>
      </trkpt>
      <trkpt lat="45.7629" lon="5.97912">
        <ele>565</ele>
        <time>2011-07-03T08:04:01Z</time>
      </trkpt>
      <trkpt lat="45.7629" lon="5.97914">
        <ele>565</ele>
        <time>2011-07-03T08:04:02Z</time>
      </trkpt>
      <trkpt lat="45.76291" lon="5.97917">
        <ele>564</ele>
        <time>2011-07-03T08:04:03Z</time>
      </trkpt>
      <trkpt lat="45.76291" lon="5.97918">
        <ele>563</ele>
        <time>2011-07-03T08:04:04Z</time>
      </trkpt>
      <trkpt lat="45.76292" lon="5.9792">
        <ele>562</ele>
        <time>2011-07-03T08:04:05Z</time>
      </trkpt>
      <trkpt lat="45.76292" lon="5.97922">
        <ele>559</ele>
        <time>2011-07-03T08:04:07Z</time>
      </trkpt>
      <trkpt lat="45.76294" lon="5.97926">
        <ele>555</ele>
        <time>2011-07-03T08:04:09Z</time>
      </trkpt>
      <trkpt lat="45.76296" lon="5.97928">
        <ele>553</ele>
        <time>2011-07-03T08:04:10Z</time>
      </trkpt>
      <trkpt lat="45.76297" lon="5.97931">
        <ele>551</ele>
        <time>2011-07-03T08:04:11Z</time>
      </trkpt>
      <trkpt lat="45.76299" lon="5.97934">
        <ele>549</ele>
        <time>2011-07-03T08:04:12Z</time>
      </trkpt>
      <trkpt lat="45.763" lon="5.97936">
        <ele>544</ele>
        <time>2011-07-03T08:04:14Z</time>
      </trkpt>
      <trkpt lat="45.76303" lon="5.97939">
        <ele>538</ele>
        <time>2011-07-03T08:04:16Z</time>
      </trkpt>
      <trkpt lat="45.76304" lon="5.97941">
        <ele>535</ele>
        <time>2011-07-03T08:04:17Z</time>
      </trkpt>
      <trkpt lat="45.76305" lon="5.97941">
        <ele>532</ele>
        <time>2011-07-03T08:04:18Z</time>
      </trkpt>
      <trkpt lat="45.76308" lon="5.97943">
        <ele>526</ele>
        <time>2011-07-03T08:04:20Z</time>
      </trkpt>
      <trkpt lat="45.76308" lon="5.97945">
        <ele>519</ele>
        <time>2011-07-03T08:04:23Z</time>
      </trkpt>
      <trkpt lat="45.76308" lon="5.97947">
        <ele>515</ele>
        <time>2011-07-03T08:04:25Z</time>
      </trkpt>
      <trkpt lat="45.7631" lon="5.97945">
        <ele>506</ele>
        <time>2011-07-03T08:04:33Z</time>
      </trkpt>
      <trkpt lat="45.76307" lon="5.97942">
        <ele>503</ele>
        <time>2011-07-03T08:04:36Z</time>
      </trkpt>
      <trkpt lat="45.76306" lon="5.97941">
        <ele>502</ele>
        <time>2011-07-03T08:04:37Z</time>
      </trkpt>
      <trkpt lat="45.76304" lon="5.9794">
        <ele>502</ele>
        <time>2011-07-03T08:04:38Z</time>
      </trkpt>
      <trkpt lat="45.76304" lon="5.97937">
        <ele>502</ele>
        <time>2011-07-03T08:04:39Z</time>
      </trkpt>
      <trkpt lat="45.76302" lon="5.97934">
        <ele>502</ele>
        <time>2011-07-03T08:04:40Z</time>
      </trkpt>
      <trkpt lat="45.76301" lon="5.97931">
        <ele>503</ele>
        <time>2011-07-03T08:04:41Z</time>
      </trkpt>
      <trkpt lat="45.76299" lon="5.9793">
        <ele>504</ele>
        <time>2011-07-03T08:04:42Z</time>
      </trkpt>
      <trkpt lat="45.76298" lon="5.97927">
        <ele>507</ele>
        <time>2011-07-03T08:04:44Z</time>
      </trkpt>
      <trkpt lat="45.76297" lon="5.97926">
        <ele>509</ele>
        <time>2011-07-03T08:04:45Z</time>
      </trkpt>
      <trkpt lat="45.76296" lon="5.97923">
        <ele>511</ele>
        <time>2011-07-03T08:04:46Z</time>
      </trkpt>
      <trkpt lat="45.76295" lon="5.97921">
        <ele>513</ele>
        <time>2011-07-03T08:04:47Z</time>
      </trkpt>
      <trkpt lat="45.76293" lon="5.97919">
        <ele>517</ele>
        <time>2011-07-03T08:04:49Z</time>
      </trkpt>
      <trkpt lat="45.76292" lon="5.97917">
        <ele>519</ele>
        <time>2011-07-03T08:04:50Z</time>
      </trkpt>
      <trkpt lat="45.76291" lon="5.97915">
        <ele>523</ele>
        <time>2011-07-03T08:04:52Z</time>
      </trkpt>
      <trkpt lat="45.76291" lon="5.97913">
        <ele>527</ele>
        <time>2011-07-03T08:04:54Z</time>
      </trkpt>
      <trkpt lat="45.76291" lon="5.97911">
        <ele>529</ele>
        <time>2011-07-03T08:04:55Z</time>
      </trkpt>
      <trkpt lat="45.76291" lon="5.97909">
        <ele>531</ele>
        <time>2011-07-03T08:04:57Z</time>
      </trkpt>
      <trkpt lat="45.76292" lon="5.97907">
        <ele>534</ele>
        <time>2011-07-03T08:05:00Z</time>
      </trkpt>
      <trkpt lat="45.76293" lon="5.97905">
        <ele>537</ele>
        <time>2011-07-03T08:05:06Z</time>
      </trkpt>
      <trkpt lat="45.76294" lon="5.97903">
        <ele>537</ele>
        <time>2011-07-03T08:05:07Z</time>
      </trkpt>
      <trkpt lat="45.76296" lon="5.97902">
        <ele>537</ele>
        <time>2011-07-03T08:05:08Z</time>
      </trkpt>
      <trkpt lat="45.76298" lon="5.979">
        <ele>537</ele>
        <time>2011-07-03T08:05:09Z</time>
      </trkpt>
      <trkpt lat="45.763" lon="5.97899">
        <ele>537</ele>
        <time>2011-07-03T08:05:10Z</time>
      </trkpt>
      <trkpt lat="45.76302" lon="5.97899">
        <ele>537</ele>
        <time>2011-07-03T08:05:11Z</time>
      </trkpt>
      <trkpt lat="45.76305" lon="5.97899">
        <ele>537</ele>
        <time>2011-07-03T08:05:12Z</time>
      </trkpt>
      <trkpt lat="45.76307" lon="5.97899">
        <ele>537</ele>
        <time>2011-07-03T08:05:13Z</time>
      </trkpt>
      <trkpt lat="45.76309" lon="5.979">
        <ele>536</ele>
        <time>2011-07-03T08:05:14Z</time>
      </trkpt>
      <trkpt lat="45.76311" lon="5.97901">
        <ele>535</ele>
        <time>2011-07-03T08:05:15Z</time>
      </trkpt>
      <trkpt lat="45.76313" lon="5.97903">
        <ele>534</ele>
        <time>2011-07-03T08:05:16Z</time>
      </trkpt>
      <trkpt lat="45.76314" lon="5.97905">
        <ele>533</ele>
        <time>2011-07-03T08:05:17Z</time>
      </trkpt>
      <trkpt lat="45.76316" lon="5.97907">
        <ele>533</ele>
        <time>2011-07-03T08:05:18Z</time>
      </trkpt>
      <trkpt lat="45.76318" lon="5.97909">
        <ele>533</ele>
        <time>2011-07-03T08:05:19Z</time>
      </trkpt>
      <trkpt lat="45.7632" lon="5.97912">
        <ele>532</ele>
        <time>2011-07-03T08:05:20Z</time>
      </trkpt>
      <trkpt lat="45.76322" lon="5.97915">
        <ele>532</ele>
        <time>2011-07-03T08:05:21Z</time>
      </trkpt>
      <trkpt lat="45.76323" lon="5.97916">
        <ele>531</ele>
        <time>2011-07-03T08:05:22Z</time>
      </trkpt>
      <trkpt lat="45.76324" lon="5.97918">
        <ele>530</ele>
        <time>2011-07-03T08:05:23Z</time>
      </trkpt>
      <trkpt lat="45.76326" lon="5.9792">
        <ele>530</ele>
        <time>2011-07-03T08:05:24Z</time>
      </trkpt>
      <trkpt lat="45.76327" lon="5.97922">
        <ele>529</ele>
        <time>2011-07-03T08:05:25Z</time>
      </trkpt>
      <trkpt lat="45.76328" lon="5.97924">
        <ele>529</ele>
        <time>2011-07-03T08:05:26Z</time>
      </trkpt>
      <trkpt lat="45.76328" lon="5.97927">
        <ele>529</ele>
        <time>2011-07-03T08:05:27Z</time>
      </trkpt>
      <trkpt lat="45.76329" lon="5.97929">
        <ele>529</ele>
        <time>2011-07-03T08:05:28Z</time>
      </trkpt>
      <trkpt lat="45.76329" lon="5.97932">
        <ele>529</ele>
        <time>2011-07-03T08:05:29Z</time>
      </trkpt>
      <trkpt lat="45.76329" lon="5.97934">
        <ele>529</ele>
        <time>2011-07-03T08:05:30Z</time>
      </trkpt>
      <trkpt lat="45.76329" lon="5.97935">
        <ele>529</ele>
        <time>2011-07-03T08:05:31Z</time>
      </trkpt>
      <trkpt lat="45.76329" lon="5.97938">
        <ele>529</ele>
        <time>2011-07-03T08:05:32Z</time>
      </trkpt>
      <trkpt lat="45.76329" lon="5.9794">
        <ele>529</ele>
        <time>2011-07-03T08:05:33Z</time>
      </trkpt>
      <trkpt lat="45.76329" lon="5.97943">
        <ele>529</ele>
        <time>2011-07-03T08:05:34Z</time>
      </trkpt>
      <trkpt lat="45.76329" lon="5.97945">
        <ele>529</ele>
        <time>2011-07-03T08:05:35Z</time>
      </trkpt>
      <trkpt lat="45.76328" lon="5.97948">
        <ele>529</ele>
        <time>2011-07-03T08:05:36Z</time>
      </trkpt>
      <trkpt lat="45.76328" lon="5.97951">
        <ele>529</ele>
        <time>2011-07-03T08:05:37Z</time>
      </trkpt>
      <trkpt lat="45.76327" lon="5.97953">
        <ele>529</ele>
        <time>2011-07-03T08:05:38Z</time>
      </trkpt>
      <trkpt lat="45.76327" lon="5.97956">
        <ele>529</ele>
        <time>2011-07-03T08:05:39Z</time>
      </trkpt>
      <trkpt lat="45.76326" lon="5.97959">
        <ele>529</ele>
        <time>2011-07-03T08:05:40Z</time>
      </trkpt>
      <trkpt lat="45.76326" lon="5.97961">
        <ele>529</ele>
        <time>2011-07-03T08:05:41Z</time>
      </trkpt>
      <trkpt lat="45.76325" lon="5.97963">
        <ele>529</ele>
        <time>2011-07-03T08:05:42Z</time>
      </trkpt>
      <trkpt lat="45.76324" lon="5.97965">
        <ele>529</ele>
        <time>2011-07-03T08:05:43Z</time>
      </trkpt>
      <trkpt lat="45.76323" lon="5.97967">
        <ele>529</ele>
        <time>2011-07-03T08:05:44Z</time>
      </trkpt>
      <trkpt lat="45.76323" lon="5.97969">
        <ele>529</ele>
        <time>2011-07-03T08:05:45Z</time>
      </trkpt>
      <trkpt lat="45.76321" lon="5.97971">
        <ele>529</ele>
        <time>2011-07-03T08:05:47Z</time>
      </trkpt>
      <trkpt lat="45.7632" lon="5.97973">
        <ele>529</ele>
        <time>2011-07-03T08:05:48Z</time>
      </trkpt>
      <trkpt lat="45.76318" lon="5.97974">
        <ele>529</ele>
        <time>2011-07-03T08:05:49Z</time>
      </trkpt>
      <trkpt lat="45.76317" lon="5.97976">
        <ele>529</ele>
        <time>2011-07-03T08:05:50Z</time>
      </trkpt>
      <trkpt lat="45.76316" lon="5.97978">
        <ele>529</ele>
        <time>2011-07-03T08:05:51Z</time>
      </trkpt>
      <trkpt lat="45.76315" lon="5.97979">
        <ele>529</ele>
        <time>2011-07-03T08:05:52Z</time>
      </trkpt>
      <trkpt lat="45.76314" lon="5.97981">
        <ele>529</ele>
        <time>2011-07-03T08:05:53Z</time>
      </trkpt>
      <trkpt lat="45.76313" lon="5.97983">
        <ele>529</ele>
        <time>2011-07-03T08:05:54Z</time>
      </trkpt>
      <trkpt lat="45.76312" lon="5.97984">
        <ele>530</ele>
        <time>2011-07-03T08:05:55Z</time>
      </trkpt>
      <trkpt lat="45.76311" lon="5.97986">
        <ele>530</ele>
        <time>2011-07-03T08:05:56Z</time>
      </trkpt>
      <trkpt lat="45.7631" lon="5.97988">
        <ele>531</ele>
        <time>2011-07-03T08:05:57Z</time>
      </trkpt>
      <trkpt lat="45.76309" lon="5.97989">
        <ele>531</ele>
        <time>2011-07-03T08:05:58Z</time>
      </trkpt>
      <trkpt lat="45.76308" lon="5.97992">
        <ele>532</ele>
        <time>2011-07-03T08:06:00Z</time>
      </trkpt>
      <trkpt lat="45.76305" lon="5.97994">
        <ele>532</ele>
        <time>2011-07-03T08:06:02Z</time>
      </trkpt>
      <trkpt lat="45.76303" lon="5.97995">
        <ele>532</ele>
        <time>2011-07-03T08:06:03Z</time>
      </trkpt>
      <trkpt lat="45.76302" lon="5.97997">
        <ele>533</ele>
        <time>2011-07-03T08:06:05Z</time>
      </trkpt>
      <trkpt lat="45.763" lon="5.98">
        <ele>533</ele>
        <time>2011-07-03T08:06:07Z</time>
      </trkpt>
      <trkpt lat="45.76299" lon="5.98002">
        <ele>533</ele>
        <time>2011-07-03T08:06:09Z</time>
      </trkpt>
      <trkpt lat="45.76298" lon="5.98003">
        <ele>533</ele>
        <time>2011-07-03T08:06:10Z</time>
      </trkpt>
      <trkpt lat="45.76296" lon="5.98006">
        <ele>533</ele>
        <time>2011-07-03T08:06:12Z</time>
      </trkpt>
      <trkpt lat="45.76294" lon="5.98008">
        <ele>533</ele>
        <time>2011-07-03T08:06:14Z</time>
      </trkpt>
      <trkpt lat="45.76293" lon="5.9801">
        <ele>534</ele>
        <time>2011-07-03T08:06:16Z</time>
      </trkpt>
      <trkpt lat="45.76292" lon="5.98012">
        <ele>534</ele>
        <time>2011-07-03T08:06:17Z</time>
      </trkpt>
      <trkpt lat="45.76291" lon="5.98014">
        <ele>534</ele>
        <time>2011-07-03T08:06:18Z</time>
      </trkpt>
      <trkpt lat="45.76291" lon="5.98017">
        <ele>535</ele>
        <time>2011-07-03T08:06:20Z</time>
      </trkpt>
      <trkpt lat="45.76291" lon="5.98019">
        <ele>535</ele>
        <time>2011-07-03T08:06:21Z</time>
      </trkpt>
      <trkpt lat="45.76291" lon="5.9802">
        <ele>535</ele>
        <time>2011-07-03T08:06:22Z</time>
      </trkpt>
      <trkpt lat="45.76291" lon="5.98022">
        <ele>535</ele>
        <time>2011-07-03T08:06:23Z</time>
      </trkpt>
      <trkpt lat="45.76291" lon="5.98024">
        <ele>535</ele>
        <time>2011-07-03T08:06:24Z</time>
      </trkpt>
      <trkpt lat="45.7629" lon="5.98026">
        <ele>535</ele>
        <time>2011-07-03T08:06:25Z</time>
      </trkpt>
      <trkpt lat="45.76289" lon="5.98028">
        <ele>535</ele>
        <time>2011-07-03T08:06:26Z</time>
      </trkpt>
      <trkpt lat="45.76289" lon="5.98029">
        <ele>535</ele>
        <time>2011-07-03T08:06:27Z</time>
      </trkpt>
      <trkpt lat="45.76289" lon="5.98031">
        <ele>535</ele>
        <time>2011-07-03T08:06:28Z</time>
      </trkpt>
      <trkpt lat="45.76289" lon="5.98033">
        <ele>535</ele>
        <time>2011-07-03T08:06:29Z</time>
      </trkpt>
      <trkpt lat="45.76289" lon="5.98035">
        <ele>535</ele>
        <time>2011-07-03T08:06:30Z</time>
      </trkpt>
      <trkpt lat="45.76289" lon="5.98037">
        <ele>535</ele>
        <time>2011-07-03T08:06:31Z</time>
      </trkpt>
      <trkpt lat="45.76288" lon="5.9804">
        <ele>535</ele>
        <time>2011-07-03T08:06:32Z</time>
      </trkpt>
      <trkpt lat="45.76287" lon="5.98042">
        <ele>534</ele>
        <time>2011-07-03T08:06:33Z</time>
      </trkpt>
      <trkpt lat="45.76288" lon="5.98044">
        <ele>534</ele>
        <time>2011-07-03T08:06:34Z</time>
      </trkpt>
      <trkpt lat="45.76287" lon="5.98046">
        <ele>533</ele>
        <time>2011-07-03T08:06:35Z</time>
      </trkpt>
      <trkpt lat="45.76287" lon="5.98048">
        <ele>533</ele>
        <time>2011-07-03T08:06:36Z</time>
      </trkpt>
      <trkpt lat="45.76287" lon="5.9805">
        <ele>533</ele>
        <time>2011-07-03T08:06:37Z</time>
      </trkpt>
      <trkpt lat="45.76286" lon="5.98053">
        <ele>533</ele>
        <time>2011-07-03T08:06:38Z</time>
      </trkpt>
      <trkpt lat="45.76286" lon="5.98054">
        <ele>533</ele>
        <time>2011-07-03T08:06:39Z</time>
      </trkpt>
      <trkpt lat="45.76286" lon="5.98056">
        <ele>533</ele>
        <time>2011-07-03T08:06:40Z</time>
      </trkpt>
      <trkpt lat="45.76286" lon="5.98059">
        <ele>532</ele>
        <time>2011-07-03T08:06:41Z</time>
      </trkpt>
      <trkpt lat="45.76286" lon="5.98061">
        <ele>531</ele>
        <time>2011-07-03T08:06:42Z</time>
      </trkpt>
      <trkpt lat="45.76285" lon="5.98063">
        <ele>531</ele>
        <time>2011-07-03T08:06:43Z</time>
      </trkpt>
      <trkpt lat="45.76284" lon="5.98065">
        <ele>530</ele>
        <time>2011-07-03T08:06:44Z</time>
      </trkpt>
      <trkpt lat="45.76283" lon="5.98067">
        <ele>529</ele>
        <time>2011-07-03T08:06:45Z</time>
      </trkpt>
      <trkpt lat="45.76281" lon="5.98069">
        <ele>529</ele>
        <time>2011-07-03T08:06:46Z</time>
      </trkpt>
      <trkpt lat="45.7628" lon="5.9807">
        <ele>529</ele>
        <time>2011-07-03T08:06:47Z</time>
      </trkpt>
      <trkpt lat="45.76279" lon="5.98071">
        <ele>529</ele>
        <time>2011-07-03T08:06:48Z</time>
      </trkpt>
      <trkpt lat="45.76279" lon="5.98073">
        <ele>529</ele>
        <time>2011-07-03T08:06:49Z</time>
      </trkpt>
      <trkpt lat="45.76279" lon="5.98076">
        <ele>529</ele>
        <time>2011-07-03T08:06:51Z</time>
      </trkpt>
      <trkpt lat="45.76279" lon="5.98077">
        <ele>529</ele>
        <time>2011-07-03T08:06:52Z</time>
      </trkpt>
      <trkpt lat="45.76279" lon="5.98081">
        <ele>529</ele>
        <time>2011-07-03T08:06:54Z</time>
      </trkpt>
      <trkpt lat="45.76278" lon="5.98083">
        <ele>529</ele>
        <time>2011-07-03T08:06:55Z</time>
      </trkpt>
      <trkpt lat="45.76277" lon="5.98085">
        <ele>529</ele>
        <time>2011-07-03T08:06:56Z</time>
      </trkpt>
      <trkpt lat="45.76276" lon="5.98088">
        <ele>529</ele>
        <time>2011-07-03T08:06:57Z</time>
      </trkpt>
      <trkpt lat="45.76274" lon="5.9809">
        <ele>529</ele>
        <time>2011-07-03T08:06:59Z</time>
      </trkpt>
      <trkpt lat="45.76273" lon="5.98092">
        <ele>529</ele>
        <time>2011-07-03T08:07:00Z</time>
      </trkpt>
      <trkpt lat="45.76272" lon="5.98093">
        <ele>529</ele>
        <time>2011-07-03T08:07:02Z</time>
      </trkpt>
      <trkpt lat="45.7627" lon="5.98093">
        <ele>529</ele>
        <time>2011-07-03T08:07:03Z</time>
      </trkpt>
      <trkpt lat="45.76268" lon="5.98094">
        <ele>529</ele>
        <time>2011-07-03T08:07:04Z</time>
      </trkpt>
      <trkpt lat="45.76266" lon="5.98094">
        <ele>530</ele>
        <time>2011-07-03T08:07:05Z</time>
      </trkpt>
      <trkpt lat="45.76264" lon="5.98095">
        <ele>531</ele>
        <time>2011-07-03T08:07:06Z</time>
      </trkpt>
      <trkpt lat="45.76262" lon="5.98097">
        <ele>532</ele>
        <time>2011-07-03T08:07:08Z</time>
      </trkpt>
      <trkpt lat="45.7626" lon="5.98098">
        <ele>533</ele>
        <time>2011-07-03T08:07:09Z</time>
      </trkpt>
      <trkpt lat="45.76259" lon="5.981">
        <ele>534</ele>
        <time>2011-07-03T08:07:10Z</time>
      </trkpt>
      <trkpt lat="45.76257" lon="5.98101">
        <ele>535</ele>
        <time>2011-07-03T08:07:11Z</time>
      </trkpt>
      <trkpt lat="45.76256" lon="5.98103">
        <ele>535</ele>
        <time>2011-07-03T08:07:12Z</time>
      </trkpt>
      <trkpt lat="45.76256" lon="5.98105">
        <ele>536</ele>
        <time>2011-07-03T08:07:13Z</time>
      </trkpt>
      <trkpt lat="45.76256" lon="5.98107">
        <ele>536</ele>
        <time>2011-07-03T08:07:14Z</time>
      </trkpt>
      <trkpt lat="45.76254" lon="5.98108">
        <ele>537</ele>
        <time>2011-07-03T08:07:15Z</time>
      </trkpt>
      <trkpt lat="45.76253" lon="5.9811">
        <ele>538</ele>
        <time>2011-07-03T08:07:16Z</time>
      </trkpt>
      <trkpt lat="45.76252" lon="5.98111">
        <ele>538</ele>
        <time>2011-07-03T08:07:17Z</time>
      </trkpt>
      <trkpt lat="45.7625" lon="5.98111">
        <ele>538</ele>
        <time>2011-07-03T08:07:18Z</time>
      </trkpt>
      <trkpt lat="45.76249" lon="5.98112">
        <ele>539</ele>
        <time>2011-07-03T08:07:19Z</time>
      </trkpt>
      <trkpt lat="45.76248" lon="5.98113">
        <ele>539</ele>
        <time>2011-07-03T08:07:20Z</time>
      </trkpt>
      <trkpt lat="45.76247" lon="5.98114">
        <ele>539</ele>
        <time>2011-07-03T08:07:21Z</time>
      </trkpt>
      <trkpt lat="45.76245" lon="5.98117">
        <ele>539</ele>
        <time>2011-07-03T08:07:23Z</time>
      </trkpt>
      <trkpt lat="45.76243" lon="5.9812">
        <ele>539</ele>
        <time>2011-07-03T08:07:24Z</time>
      </trkpt>
      <trkpt lat="45.76241" lon="5.98122">
        <ele>540</ele>
        <time>2011-07-03T08:07:25Z</time>
      </trkpt>
      <trkpt lat="45.7624" lon="5.98122">
        <ele>540</ele>
        <time>2011-07-03T08:07:26Z</time>
      </trkpt>
      <trkpt lat="45.76239" lon="5.98123">
        <ele>541</ele>
        <time>2011-07-03T08:07:27Z</time>
      </trkpt>
      <trkpt lat="45.76237" lon="5.98124">
        <ele>541</ele>
        <time>2011-07-03T08:07:28Z</time>
      </trkpt>
      <trkpt lat="45.76236" lon="5.98126">
        <ele>542</ele>
        <time>2011-07-03T08:07:29Z</time>
      </trkpt>
      <trkpt lat="45.76235" lon="5.98127">
        <ele>542</ele>
        <time>2011-07-03T08:07:30Z</time>
      </trkpt>
      <trkpt lat="45.76234" lon="5.98129">
        <ele>543</ele>
        <time>2011-07-03T08:07:31Z</time>
      </trkpt>
      <trkpt lat="45.76233" lon="5.9813">
        <ele>543</ele>
        <time>2011-07-03T08:07:32Z</time>
      </trkpt>
      <trkpt lat="45.76231" lon="5.98131">
        <ele>543</ele>
        <time>2011-07-03T08:07:33Z</time>
      </trkpt>
      <trkpt lat="45.7623" lon="5.98132">
        <ele>544</ele>
        <time>2011-07-03T08:07:34Z</time>
      </trkpt>
      <trkpt lat="45.76229" lon="5.98134">
        <ele>544</ele>
        <time>2011-07-03T08:07:35Z</time>
      </trkpt>
      <trkpt lat="45.76227" lon="5.98136">
        <ele>544</ele>
        <time>2011-07-03T08:07:36Z</time>
      </trkpt>
      <trkpt lat="45.76225" lon="5.98138">
        <ele>545</ele>
        <time>2011-07-03T08:07:37Z</time>
      </trkpt>
      <trkpt lat="45.76223" lon="5.98139">
        <ele>545</ele>
        <time>2011-07-03T08:07:38Z</time>
      </trkpt>
      <trkpt lat="45.76221" lon="5.9814">
        <ele>545</ele>
        <time>2011-07-03T08:07:39Z</time>
      </trkpt>
      <trkpt lat="45.76219" lon="5.98141">
        <ele>545</ele>
        <time>2011-07-03T08:07:40Z</time>
      </trkpt>
      <trkpt lat="45.76217" lon="5.98142">
        <ele>545</ele>
        <time>2011-07-03T08:07:41Z</time>
      </trkpt>
      <trkpt lat="45.76216" lon="5.98143">
        <ele>545</ele>
        <time>2011-07-03T08:07:42Z</time>
      </trkpt>
      <trkpt lat="45.76214" lon="5.98144">
        <ele>545</ele>
        <time>2011-07-03T08:07:43Z</time>
      </trkpt>
      <trkpt lat="45.76212" lon="5.98144">
        <ele>546</ele>
        <time>2011-07-03T08:07:44Z</time>
      </trkpt>
      <trkpt lat="45.7621" lon="5.98145">
        <ele>546</ele>
        <time>2011-07-03T08:07:45Z</time>
      </trkpt>
      <trkpt lat="45.76208" lon="5.98147">
        <ele>546</ele>
        <time>2011-07-03T08:07:46Z</time>
      </trkpt>
      <trkpt lat="45.76206" lon="5.98149">
        <ele>546</ele>
        <time>2011-07-03T08:07:47Z</time>
      </trkpt>
      <trkpt lat="45.76205" lon="5.98151">
        <ele>546</ele>
        <time>2011-07-03T08:07:48Z</time>
      </trkpt>
      <trkpt lat="45.76204" lon="5.98152">
        <ele>546</ele>
        <time>2011-07-03T08:07:49Z</time>
      </trkpt>
      <trkpt lat="45.76202" lon="5.98154">
        <ele>546</ele>
        <time>2011-07-03T08:07:50Z</time>
      </trkpt>
      <trkpt lat="45.76201" lon="5.98156">
        <ele>546</ele>
        <time>2011-07-03T08:07:51Z</time>
      </trkpt>
      <trkpt lat="45.762" lon="5.98158">
        <ele>546</ele>
        <time>2011-07-03T08:07:52Z</time>
      </trkpt>
      <trkpt lat="45.76198" lon="5.98159">
        <ele>546</ele>
        <time>2011-07-03T08:07:53Z</time>
      </trkpt>
      <trkpt lat="45.76196" lon="5.9816">
        <ele>546</ele>
        <time>2011-07-03T08:07:54Z</time>
      </trkpt>
      <trkpt lat="45.76195" lon="5.98162">
        <ele>546</ele>
        <time>2011-07-03T08:07:55Z</time>
      </trkpt>
      <trkpt lat="45.76194" lon="5.98164">
        <ele>546</ele>
        <time>2011-07-03T08:07:56Z</time>
      </trkpt>
      <trkpt lat="45.76193" lon="5.98167">
        <ele>546</ele>
        <time>2011-07-03T08:07:57Z</time>
      </trkpt>
      <trkpt lat="45.76192" lon="5.98169">
        <ele>547</ele>
        <time>2011-07-03T08:07:58Z</time>
      </trkpt>
      <trkpt lat="45.76191" lon="5.98171">
        <ele>547</ele>
        <time>2011-07-03T08:07:59Z</time>
      </trkpt>
      <trkpt lat="45.7619" lon="5.98174">
        <ele>547</ele>
        <time>2011-07-03T08:08:00Z</time>
      </trkpt>
      <trkpt lat="45.76189" lon="5.98176">
        <ele>547</ele>
        <time>2011-07-03T08:08:01Z</time>
      </trkpt>
      <trkpt lat="45.76189" lon="5.98178">
        <ele>547</ele>
        <time>2011-07-03T08:08:02Z</time>
      </trkpt>
      <trkpt lat="45.76188" lon="5.98181">
        <ele>547</ele>
        <time>2011-07-03T08:08:03Z</time>
      </trkpt>
      <trkpt lat="45.76187" lon="5.98183">
        <ele>547</ele>
        <time>2011-07-03T08:08:04Z</time>
      </trkpt>
      <trkpt lat="45.76186" lon="5.98186">
        <ele>547</ele>
        <time>2011-07-03T08:08:05Z</time>
      </trkpt>
      <trkpt lat="45.76186" lon="5.98189">
        <ele>547</ele>
        <time>2011-07-03T08:08:06Z</time>
      </trkpt>
      <trkpt lat="45.76185" lon="5.98191">
        <ele>547</ele>
        <time>2011-07-03T08:08:07Z</time>
      </trkpt>
      <trkpt lat="45.76184" lon="5.98194">
        <ele>547</ele>
        <time>2011-07-03T08:08:08Z</time>
      </trkpt>
      <trkpt lat="45.76184" lon="5.98197">
        <ele>547</ele>
        <time>2011-07-03T08:08:09Z</time>
      </trkpt>
      <trkpt lat="45.76183" lon="5.982">
        <ele>547</ele>
        <time>2011-07-03T08:08:10Z</time>
      </trkpt>
      <trkpt lat="45.76183" lon="5.98202">
        <ele>547</ele>
        <time>2011-07-03T08:08:11Z</time>
      </trkpt>
      <trkpt lat="45.76183" lon="5.98205">
        <ele>547</ele>
        <time>2011-07-03T08:08:12Z</time>
      </trkpt>
      <trkpt lat="45.76182" lon="5.98207">
        <ele>547</ele>
        <time>2011-07-03T08:08:13Z</time>
      </trkpt>
      <trkpt lat="45.76182" lon="5.9821">
        <ele>547</ele>
        <time>2011-07-03T08:08:14Z</time>
      </trkpt>
      <trkpt lat="45.76181" lon="5.98212">
        <ele>547</ele>
        <time>2011-07-03T08:08:15Z</time>
      </trkpt>
      <trkpt lat="45.7618" lon="5.98214">
        <ele>547</ele>
        <time>2011-07-03T08:08:16Z</time>
      </trkpt>
      <trkpt lat="45.76179" lon="5.98216">
        <ele>547</ele>
        <time>2011-07-03T08:08:17Z</time>
      </trkpt>
      <trkpt lat="45.76178" lon="5.98218">
        <ele>547</ele>
        <time>2011-07-03T08:08:18Z</time>
      </trkpt>
      <trkpt lat="45.76176" lon="5.9822">
        <ele>547</ele>
        <time>2011-07-03T08:08:19Z</time>
      </trkpt>
      <trkpt lat="45.76175" lon="5.98222">
        <ele>547</ele>
        <time>2011-07-03T08:08:20Z</time>
      </trkpt>
      <trkpt lat="45.76174" lon="5.98224">
        <ele>547</ele>
        <time>2011-07-03T08:08:21Z</time>
      </trkpt>
      <trkpt lat="45.76174" lon="5.98226">
        <ele>547</ele>
        <time>2011-07-03T08:08:22Z</time>
      </trkpt>
      <trkpt lat="45.76173" lon="5.98228">
        <ele>547</ele>
        <time>2011-07-03T08:08:23Z</time>
      </trkpt>
      <trkpt lat="45.76173" lon="5.9823">
        <ele>547</ele>
        <time>2011-07-03T08:08:24Z</time>
      </trkpt>
      <trkpt lat="45.76173" lon="5.98232">
        <ele>547</ele>
        <time>2011-07-03T08:08:25Z</time>
      </trkpt>
      <trkpt lat="45.76173" lon="5.98234">
        <ele>547</ele>
        <time>2011-07-03T08:08:26Z</time>
      </trkpt>
      <trkpt lat="45.76173" lon="5.98236">
        <ele>547</ele>
        <time>2011-07-03T08:08:27Z</time>
      </trkpt>
      <trkpt lat="45.76173" lon="5.98238">
        <ele>547</ele>
        <time>2011-07-03T08:08:28Z</time>
      </trkpt>
      <trkpt lat="45.76173" lon="5.98239">
        <ele>547</ele>
        <time>2011-07-03T08:08:29Z</time>
      </trkpt>
      <trkpt lat="45.76174" lon="5.98241">
        <ele>547</ele>
        <time>2011-07-03T08:08:30Z</time>
      </trkpt>
      <trkpt lat="45.76175" lon="5.98244">
        <ele>547</ele>
        <time>2011-07-03T08:08:32Z</time>
      </trkpt>
      <trkpt lat="45.76175" lon="5.98245">
        <ele>547</ele>
        <time>2011-07-03T08:08:33Z</time>
      </trkpt>
      <trkpt lat="45.76176" lon="5.98248">
        <ele>547</ele>
        <time>2011-07-03T08:08:35Z</time>
      </trkpt>
      <trkpt lat="45.76177" lon="5.9825">
        <ele>547</ele>
        <time>2011-07-03T08:08:37Z</time>
      </trkpt>
      <trkpt lat="45.76178" lon="5.98252">
        <ele>547</ele>
        <time>2011-07-03T08:08:39Z</time>
      </trkpt>
      <trkpt lat="45.76179" lon="5.98254">
        <ele>547</ele>
        <time>2011-07-03T08:08:40Z</time>
      </trkpt>
      <trkpt lat="45.7618" lon="5.98256">
        <ele>547</ele>
        <time>2011-07-03T08:08:42Z</time>
      </trkpt>
      <trkpt lat="45.76182" lon="5.98259">
        <ele>547</ele>
        <time>2011-07-03T08:08:44Z</time>
      </trkpt>
      <trkpt lat="45.76183" lon="5.98261">
        <ele>547</ele>
        <time>2011-07-03T08:08:45Z</time>
      </trkpt>
      <trkpt lat="45.76184" lon="5.98264">
        <ele>547</ele>
        <time>2011-07-03T08:08:47Z</time>
      </trkpt>
      <trkpt lat="45.76185" lon="5.98267">
        <ele>547</ele>
        <time>2011-07-03T08:08:49Z</time>
      </trkpt>
      <trkpt lat="45.76187" lon="5.98269">
        <ele>547</ele>
        <time>2011-07-03T08:08:51Z</time>
      </trkpt>
      <trkpt lat="45.76189" lon="5.98271">
        <ele>547</ele>
        <time>2011-07-03T08:08:52Z</time>
      </trkpt>
      <trkpt lat="45.76189" lon="5.98273">
        <ele>547</ele>
        <time>2011-07-03T08:08:53Z</time>
      </trkpt>
      <trkpt lat="45.76191" lon="5.98275">
        <ele>547</ele>
        <time>2011-07-03T08:08:54Z</time>
      </trkpt>
      <trkpt lat="45.76192" lon="5.98276">
        <ele>547</ele>
        <time>2011-07-03T08:08:55Z</time>
      </trkpt>
      <trkpt lat="45.76192" lon="5.98278">
        <ele>547</ele>
        <time>2011-07-03T08:08:56Z</time>
      </trkpt>
      <trkpt lat="45.76193" lon="5.98279">
        <ele>547</ele>
        <time>2011-07-03T08:08:57Z</time>
      </trkpt>
      <trkpt lat="45.76194" lon="5.98281">
        <ele>547</ele>
        <time>2011-07-03T08:08:58Z</time>
      </trkpt>
      <trkpt lat="45.76196" lon="5.98283">
        <ele>547</ele>
        <time>2011-07-03T08:08:59Z</time>
      </trkpt>
      <trkpt lat="45.76197" lon="5.98284">
        <ele>547</ele>
        <time>2011-07-03T08:09:00Z</time>
      </trkpt>
      <trkpt lat="45.76198" lon="5.98287">
        <ele>547</ele>
        <time>2011-07-03T08:09:02Z</time>
      </trkpt>
      <trkpt lat="45.762" lon="5.98289">
        <ele>548</ele>
        <time>2011-07-03T08:09:04Z</time>
      </trkpt>
      <trkpt lat="45.762" lon="5.98291">
        <ele>548</ele>
        <time>2011-07-03T08:09:05Z</time>
      </trkpt>
      <trkpt lat="45.76201" lon="5.98293">
        <ele>548</ele>
        <time>2011-07-03T08:09:07Z</time>
      </trkpt>
      <trkpt lat="45.76203" lon="5.98295">
        <ele>548</ele>
        <time>2011-07-03T08:09:09Z</time>
      </trkpt>
      <trkpt lat="45.76204" lon="5.98297">
        <ele>549</ele>
        <time>2011-07-03T08:09:10Z</time>
      </trkpt>
      <trkpt lat="45.76205" lon="5.98299">
        <ele>549</ele>
        <time>2011-07-03T08:09:11Z</time>
      </trkpt>
      <trkpt lat="45.76206" lon="5.983">
        <ele>550</ele>
        <time>2011-07-03T08:09:12Z</time>
      </trkpt>
      <trkpt lat="45.76207" lon="5.98302">
        <ele>550</ele>
        <time>2011-07-03T08:09:13Z</time>
      </trkpt>
      <trkpt lat="45.76208" lon="5.98303">
        <ele>550</ele>
        <time>2011-07-03T08:09:14Z</time>
      </trkpt>
      <trkpt lat="45.76209" lon="5.98305">
        <ele>550</ele>
        <time>2011-07-03T08:09:15Z</time>
      </trkpt>
      <trkpt lat="45.7621" lon="5.98306">
        <ele>551</ele>
        <time>2011-07-03T08:09:16Z</time>
      </trkpt>
      <trkpt lat="45.7621" lon="5.98308">
        <ele>551</ele>
        <time>2011-07-03T08:09:17Z</time>
      </trkpt>
      <trkpt lat="45.76212" lon="5.98311">
        <ele>551</ele>
        <time>2011-07-03T08:09:19Z</time>
      </trkpt>
      <trkpt lat="45.76212" lon="5.98312">
        <ele>551</ele>
        <time>2011-07-03T08:09:20Z</time>
      </trkpt>
      <trkpt lat="45.76212" lon="5.98314">
        <ele>551</ele>
        <time>2011-07-03T08:09:21Z</time>
      </trkpt>
      <trkpt lat="45.76213" lon="5.98315">
        <ele>552</ele>
        <time>2011-07-03T08:09:22Z</time>
      </trkpt>
      <trkpt lat="45.76214" lon="5.98318">
        <ele>552</ele>
        <time>2011-07-03T08:09:24Z</time>
      </trkpt>
      <trkpt lat="45.76215" lon="5.9832">
        <ele>553</ele>
        <time>2011-07-03T08:09:26Z</time>
      </trkpt>
      <trkpt lat="45.76215" lon="5.98323">
        <ele>553</ele>
        <time>2011-07-03T08:09:28Z</time>
      </trkpt>
      <trkpt lat="45.76215" lon="5.98325">
        <ele>554</ele>
        <time>2011-07-03T08:09:30Z</time>
      </trkpt>
      <trkpt lat="45.76216" lon="5.98327">
        <ele>554</ele>
        <time>2011-07-03T08:09:31Z</time>
      </trkpt>
      <trkpt lat="45.76217" lon="5.98329">
        <ele>555</ele>
        <time>2011-07-03T08:09:32Z</time>
      </trkpt>
      <trkpt lat="45.76217" lon="5.98332">
        <ele>555</ele>
        <time>2011-07-03T08:09:34Z</time>
      </trkpt>
      <trkpt lat="45.76218" lon="5.98335">
        <ele>556</ele>
        <time>2011-07-03T08:09:35Z</time>
      </trkpt>
      <trkpt lat="45.76219" lon="5.98337">
        <ele>556</ele>
        <time>2011-07-03T08:09:36Z</time>
      </trkpt>
      <trkpt lat="45.76219" lon="5.98338">
        <ele>556</ele>
        <time>2011-07-03T08:09:37Z</time>
      </trkpt>
      <trkpt lat="45.76219" lon="5.98341">
        <ele>556</ele>
        <time>2011-07-03T08:09:39Z</time>
      </trkpt>
      <trkpt lat="45.7622" lon="5.98343">
        <ele>556</ele>
        <time>2011-07-03T08:09:41Z</time>
      </trkpt>
      <trkpt lat="45.76221" lon="5.98346">
        <ele>556</ele>
        <time>2011-07-03T08:09:42Z</time>
      </trkpt>
      <trkpt lat="45.76222" lon="5.98348">
        <ele>556</ele>
        <time>2011-07-03T08:09:43Z</time>
      </trkpt>
      <trkpt lat="45.76223" lon="5.98349">
        <ele>556</ele>
        <time>2011-07-03T08:09:44Z</time>
      </trkpt>
      <trkpt lat="45.76224" lon="5.98351">
        <ele>556</ele>
        <time>2011-07-03T08:09:45Z</time>
      </trkpt>
      <trkpt lat="45.76225" lon="5.98353">
        <ele>556</ele>
        <time>2011-07-03T08:09:46Z</time>
      </trkpt>
      <trkpt lat="45.76225" lon="5.98354">
        <ele>556</ele>
        <time>2011-07-03T08:09:47Z</time>
      </trkpt>
      <trkpt lat="45.76226" lon="5.98356">
        <ele>556</ele>
        <time>2011-07-03T08:09:48Z</time>
      </trkpt>
      <trkpt lat="45.76227" lon="5.98358">
        <ele>556</ele>
        <time>2011-07-03T08:09:49Z</time>
      </trkpt>
      <trkpt lat="45.76228" lon="5.98359">
        <ele>556</ele>
        <time>2011-07-03T08:09:50Z</time>
      </trkpt>
      <trkpt lat="45.76229" lon="5.9836">
        <ele>556</ele>
        <time>2011-07-03T08:09:51Z</time>
      </trkpt>
      <trkpt lat="45.76229" lon="5.98363">
        <ele>556</ele>
        <time>2011-07-03T08:09:52Z</time>
      </trkpt>
      <trkpt lat="45.7623" lon="5.98365">
        <ele>556</ele>
        <time>2011-07-03T08:09:53Z</time>
      </trkpt>
      <trkpt lat="45.7623" lon="5.98367">
        <ele>556</ele>
        <time>2011-07-03T08:09:55Z</time>
      </trkpt>
      <trkpt lat="45.7623" lon="5.98369">
        <ele>556</ele>
        <time>2011-07-03T08:09:57Z</time>
      </trkpt>
      <trkpt lat="45.76231" lon="5.98371">
        <ele>556</ele>
        <time>2011-07-03T08:09:58Z</time>
      </trkpt>
      <trkpt lat="45.76232" lon="5.98372">
        <ele>556</ele>
        <time>2011-07-03T08:10:00Z</time>
      </trkpt>
      <trkpt lat="45.76233" lon="5.98374">
        <ele>556</ele>
        <time>2011-07-03T08:10:02Z</time>
      </trkpt>
      <trkpt lat="45.76234" lon="5.98375">
        <ele>556</ele>
        <time>2011-07-03T08:10:04Z</time>
      </trkpt>
      <trkpt lat="45.76235" lon="5.98378">
        <ele>556</ele>
        <time>2011-07-03T08:10:06Z</time>
      </trkpt>
      <trkpt lat="45.76234" lon="5.9838">
        <ele>556</ele>
        <time>2011-07-03T08:10:08Z</time>
      </trkpt>
      <trkpt lat="45.76234" lon="5.98382">
        <ele>557</ele>
        <time>2011-07-03T08:10:09Z</time>
      </trkpt>
      <trkpt lat="45.76235" lon="5.98384">
        <ele>558</ele>
        <time>2011-07-03T08:10:10Z</time>
      </trkpt>
      <trkpt lat="45.76236" lon="5.98386">
        <ele>559</ele>
        <time>2011-07-03T08:10:11Z</time>
      </trkpt>
      <trkpt lat="45.76237" lon="5.98388">
        <ele>559</ele>
        <time>2011-07-03T08:10:12Z</time>
      </trkpt>
      <trkpt lat="45.76238" lon="5.9839">
        <ele>559</ele>
        <time>2011-07-03T08:10:13Z</time>
      </trkpt>
      <trkpt lat="45.76239" lon="5.98392">
        <ele>559</ele>
        <time>2011-07-03T08:10:14Z</time>
      </trkpt>
      <trkpt lat="45.76239" lon="5.98394">
        <ele>559</ele>
        <time>2011-07-03T08:10:15Z</time>
      </trkpt>
      <trkpt lat="45.7624" lon="5.98395">
        <ele>560</ele>
        <time>2011-07-03T08:10:16Z</time>
      </trkpt>
      <trkpt lat="45.76241" lon="5.98398">
        <ele>560</ele>
        <time>2011-07-03T08:10:18Z</time>
      </trkpt>
      <trkpt lat="45.76242" lon="5.984">
        <ele>560</ele>
        <time>2011-07-03T08:10:19Z</time>
      </trkpt>
      <trkpt lat="45.76243" lon="5.98402">
        <ele>560</ele>
        <time>2011-07-03T08:10:20Z</time>
      </trkpt>
      <trkpt lat="45.76244" lon="5.98404">
        <ele>560</ele>
        <time>2011-07-03T08:10:21Z</time>
      </trkpt>
      <trkpt lat="45.76244" lon="5.98406">
        <ele>560</ele>
        <time>2011-07-03T08:10:22Z</time>
      </trkpt>
      <trkpt lat="45.76245" lon="5.98409">
        <ele>560</ele>
        <time>2011-07-03T08:10:23Z</time>
      </trkpt>
      <trkpt lat="45.76245" lon="5.98412">
        <ele>560</ele>
        <time>2011-07-03T08:10:24Z</time>
      </trkpt>
      <trkpt lat="45.76246" lon="5.98414">
        <ele>560</ele>
        <time>2011-07-03T08:10:25Z</time>
      </trkpt>
      <trkpt lat="45.76247" lon="5.98416">
        <ele>560</ele>
        <time>2011-07-03T08:10:26Z</time>
      </trkpt>
      <trkpt lat="45.76248" lon="5.98418">
        <ele>560</ele>
        <time>2011-07-03T08:10:27Z</time>
      </trkpt>
      <trkpt lat="45.76249" lon="5.9842">
        <ele>561</ele>
        <time>2011-07-03T08:10:28Z</time>
      </trkpt>
      <trkpt lat="45.7625" lon="5.98422">
        <ele>561</ele>
        <time>2011-07-03T08:10:29Z</time>
      </trkpt>
      <trkpt lat="45.76253" lon="5.98425">
        <ele>561</ele>
        <time>2011-07-03T08:10:31Z</time>
      </trkpt>
      <trkpt lat="45.76254" lon="5.98427">
        <ele>561</ele>
        <time>2011-07-03T08:10:32Z</time>
      </trkpt>
      <trkpt lat="45.76255" lon="5.98429">
        <ele>561</ele>
        <time>2011-07-03T08:10:33Z</time>
      </trkpt>
      <trkpt lat="45.76256" lon="5.9843">
        <ele>561</ele>
        <time>2011-07-03T08:10:34Z</time>
      </trkpt>
      <trkpt lat="45.76258" lon="5.98432">
        <ele>561</ele>
        <time>2011-07-03T08:10:36Z</time>
      </trkpt>
      <trkpt lat="45.76259" lon="5.98433">
        <ele>562</ele>
        <time>2011-07-03T08:10:37Z</time>
      </trkpt>
      <trkpt lat="45.7626" lon="5.98434">
        <ele>562</ele>
        <time>2011-07-03T08:10:38Z</time>
      </trkpt>
      <trkpt lat="45.76262" lon="5.98435">
        <ele>563</ele>
        <time>2011-07-03T08:10:39Z</time>
      </trkpt>
      <trkpt lat="45.76263" lon="5.98436">
        <ele>563</ele>
        <time>2011-07-03T08:10:40Z</time>
      </trkpt>
      <trkpt lat="45.76265" lon="5.98438">
        <ele>564</ele>
        <time>2011-07-03T08:10:42Z</time>
      </trkpt>
      <trkpt lat="45.76266" lon="5.9844">
        <ele>566</ele>
        <time>2011-07-03T08:10:44Z</time>
      </trkpt>
      <trkpt lat="45.76269" lon="5.98444">
        <ele>568</ele>
        <time>2011-07-03T08:10:46Z</time>
      </trkpt>
      <trkpt lat="45.7627" lon="5.98446">
        <ele>568</ele>
        <time>2011-07-03T08:10:47Z</time>
      </trkpt>
      <trkpt lat="45.76271" lon="5.98448">
        <ele>568</ele>
        <time>2011-07-03T08:10:48Z</time>
      </trkpt>
      <trkpt lat="45.76273" lon="5.9845">
        <ele>568</ele>
        <time>2011-07-03T08:10:49Z</time>
      </trkpt>
      <trkpt lat="45.76274" lon="5.98453">
        <ele>568</ele>
        <time>2011-07-03T08:10:50Z</time>
      </trkpt>
      <trkpt lat="45.76275" lon="5.98455">
        <ele>568</ele>
        <time>2011-07-03T08:10:51Z</time>
      </trkpt>
      <trkpt lat="45.76276" lon="5.98456">
        <ele>568</ele>
        <time>2011-07-03T08:10:52Z</time>
      </trkpt>
      <trkpt lat="45.76277" lon="5.98457">
        <ele>568</ele>
        <time>2011-07-03T08:10:53Z</time>
      </trkpt>
      <trkpt lat="45.76278" lon="5.98459">
        <ele>568</ele>
        <time>2011-07-03T08:10:54Z</time>
      </trkpt>
      <trkpt lat="45.76279" lon="5.98461">
        <ele>568</ele>
        <time>2011-07-03T08:10:55Z</time>
      </trkpt>
      <trkpt lat="45.7628" lon="5.98463">
        <ele>568</ele>
        <time>2011-07-03T08:10:56Z</time>
      </trkpt>
      <trkpt lat="45.76281" lon="5.98465">
        <ele>568</ele>
        <time>2011-07-03T08:10:57Z</time>
      </trkpt>
      <trkpt lat="45.76283" lon="5.98468">
        <ele>568</ele>
        <time>2011-07-03T08:10:58Z</time>
      </trkpt>
      <trkpt lat="45.76283" lon="5.9847">
        <ele>568</ele>
        <time>2011-07-03T08:10:59Z</time>
      </trkpt>
      <trkpt lat="45.76284" lon="5.98472">
        <ele>568</ele>
        <time>2011-07-03T08:11:00Z</time>
      </trkpt>
      <trkpt lat="45.76285" lon="5.98475">
        <ele>568</ele>
        <time>2011-07-03T08:11:01Z</time>
      </trkpt>
      <trkpt lat="45.76286" lon="5.98477">
        <ele>568</ele>
        <time>2011-07-03T08:11:02Z</time>
      </trkpt>
      <trkpt lat="45.76287" lon="5.9848">
        <ele>568</ele>
        <time>2011-07-03T08:11:03Z</time>
      </trkpt>
      <trkpt lat="45.76289" lon="5.98482">
        <ele>568</ele>
        <time>2011-07-03T08:11:04Z</time>
      </trkpt>
      <trkpt lat="45.76289" lon="5.98484">
        <ele>568</ele>
        <time>2011-07-03T08:11:05Z</time>
      </trkpt>
      <trkpt lat="45.7629" lon="5.98487">
        <ele>568</ele>
        <time>2011-07-03T08:11:06Z</time>
      </trkpt>
      <trkpt lat="45.76291" lon="5.98489">
        <ele>568</ele>
        <time>2011-07-03T08:11:07Z</time>
      </trkpt>
      <trkpt lat="45.76292" lon="5.9849">
        <ele>568</ele>
        <time>2011-07-03T08:11:09Z</time>
      </trkpt>
      <trkpt lat="45.76294" lon="5.98493">
        <ele>568</ele>
        <time>2011-07-03T08:11:11Z</time>
      </trkpt>
      <trkpt lat="45.76295" lon="5.98494">
        <ele>569</ele>
        <time>2011-07-03T08:11:12Z</time>
      </trkpt>
      <trkpt lat="45.76296" lon="5.98496">
        <ele>570</ele>
        <time>2011-07-03T08:11:13Z</time>
      </trkpt>
      <trkpt lat="45.76297" lon="5.98498">
        <ele>571</ele>
        <time>2011-07-03T08:11:15Z</time>
      </trkpt>
      <trkpt lat="45.76299" lon="5.98501">
        <ele>573</ele>
        <time>2011-07-03T08:11:17Z</time>
      </trkpt>
      <trkpt lat="45.763" lon="5.98503">
        <ele>573</ele>
        <time>2011-07-03T08:11:18Z</time>
      </trkpt>
      <trkpt lat="45.76301" lon="5.98504">
        <ele>574</ele>
        <time>2011-07-03T08:11:19Z</time>
      </trkpt>
      <trkpt lat="45.76302" lon="5.98506">
        <ele>574</ele>
        <time>2011-07-03T08:11:20Z</time>
      </trkpt>
      <trkpt lat="45.76303" lon="5.98507">
        <ele>575</ele>
        <time>2011-07-03T08:11:21Z</time>
      </trkpt>
      <trkpt lat="45.76305" lon="5.98511">
        <ele>575</ele>
        <time>2011-07-03T08:11:23Z</time>
      </trkpt>
      <trkpt lat="45.76307" lon="5.98513">
        <ele>576</ele>
        <time>2011-07-03T08:11:24Z</time>
      </trkpt>
      <trkpt lat="45.76308" lon="5.98514">
        <ele>576</ele>
        <time>2011-07-03T08:11:25Z</time>
      </trkpt>
      <trkpt lat="45.76309" lon="5.98516">
        <ele>577</ele>
        <time>2011-07-03T08:11:26Z</time>
      </trkpt>
      <trkpt lat="45.7631" lon="5.98517">
        <ele>577</ele>
        <time>2011-07-03T08:11:27Z</time>
      </trkpt>
      <trkpt lat="45.76311" lon="5.98519">
        <ele>578</ele>
        <time>2011-07-03T08:11:28Z</time>
      </trkpt>
      <trkpt lat="45.76313" lon="5.98521">
        <ele>578</ele>
        <time>2011-07-03T08:11:29Z</time>
      </trkpt>
      <trkpt lat="45.76314" lon="5.98522">
        <ele>579</ele>
        <time>2011-07-03T08:11:30Z</time>
      </trkpt>
      <trkpt lat="45.76315" lon="5.98523">
        <ele>579</ele>
        <time>2011-07-03T08:11:31Z</time>
      </trkpt>
      <trkpt lat="45.76317" lon="5.98525">
        <ele>580</ele>
        <time>2011-07-03T08:11:32Z</time>
      </trkpt>
      <trkpt lat="45.76318" lon="5.98526">
        <ele>580</ele>
        <time>2011-07-03T08:11:33Z</time>
      </trkpt>
      <trkpt lat="45.76319" lon="5.98528">
        <ele>580</ele>
        <time>2011-07-03T08:11:34Z</time>
      </trkpt>
      <trkpt lat="45.7632" lon="5.9853">
        <ele>581</ele>
        <time>2011-07-03T08:11:35Z</time>
      </trkpt>
      <trkpt lat="45.76321" lon="5.98532">
        <ele>581</ele>
        <time>2011-07-03T08:11:36Z</time>
      </trkpt>
      <trkpt lat="45.76321" lon="5.98534">
        <ele>581</ele>
        <time>2011-07-03T08:11:37Z</time>
      </trkpt>
      <trkpt lat="45.76322" lon="5.98536">
        <ele>582</ele>
        <time>2011-07-03T08:11:38Z</time>
      </trkpt>
      <trkpt lat="45.76323" lon="5.98538">
        <ele>583</ele>
        <time>2011-07-03T08:11:40Z</time>
      </trkpt>
      <trkpt lat="45.76324" lon="5.98538">
        <ele>583</ele>
        <time>2011-07-03T08:11:44Z</time>
      </trkpt>
      <trkpt lat="45.76326" lon="5.98537">
        <ele>583</ele>
        <time>2011-07-03T08:11:47Z</time>
      </trkpt>
      <trkpt lat="45.76327" lon="5.98538">
        <ele>583</ele>
        <time>2011-07-03T08:11:50Z</time>
      </trkpt>
      <trkpt lat="45.76327" lon="5.98539">
        <ele>583</ele>
        <time>2011-07-03T08:11:54Z</time>
      </trkpt>
      <trkpt lat="45.76328" lon="5.98541">
        <ele>583</ele>
        <time>2011-07-03T08:12:00Z</time>
      </trkpt>
      <trkpt lat="45.76328" lon="5.98542">
        <ele>585</ele>
        <time>2011-07-03T08:12:15Z</time>
      </trkpt>
      <trkpt lat="45.76329" lon="5.98544">
        <ele>588</ele>
        <time>2011-07-03T08:12:45Z</time>
      </trkpt>
      <trkpt lat="45.7633" lon="5.98546">
        <ele>588</ele>
        <time>2011-07-03T08:12:56Z</time>
      </trkpt>
      <trkpt lat="45.76329" lon="5.98545">
        <ele>590</ele>
        <time>2011-07-03T08:13:28Z</time>
      </trkpt>
      <trkpt lat="45.7633" lon="5.98547">
        <ele>591</ele>
        <time>2011-07-03T08:13:38Z</time>
      </trkpt>
      <trkpt lat="45.76331" lon="5.98548">
        <ele>591</ele>
        <time>2011-07-03T08:13:44Z</time>
      </trkpt>
      <trkpt lat="45.76329" lon="5.98549">
        <ele>591</ele>
        <time>2011-07-03T08:14:05Z</time>
      </trkpt>
      <trkpt lat="45.76331" lon="5.98549">
        <ele>591</ele>
        <time>2011-07-03T08:14:11Z</time>
      </trkpt>
      <trkpt lat="45.76331" lon="5.98551">
        <ele>591</ele>
        <time>2011-07-03T08:14:13Z</time>
      </trkpt>
      <trkpt lat="45.76332" lon="5.98552">
        <ele>591</ele>
        <time>2011-07-03T08:14:14Z</time>
      </trkpt>
      <trkpt lat="45.76333" lon="5.98554">
        <ele>591</ele>
        <time>2011-07-03T08:14:15Z</time>
      </trkpt>
      <trkpt lat="45.76334" lon="5.98556">
        <ele>591</ele>
        <time>2011-07-03T08:14:16Z</time>
      </trkpt>
      <trkpt lat="45.76335" lon="5.98558">
        <ele>591</ele>
        <time>2011-07-03T08:14:17Z</time>
      </trkpt>
      <trkpt lat="45.76336" lon="5.9856">
        <ele>591</ele>
        <time>2011-07-03T08:14:18Z</time>
      </trkpt>
      <trkpt lat="45.76337" lon="5.98562">
        <ele>591</ele>
        <time>2011-07-03T08:14:19Z</time>
      </trkpt>
      <trkpt lat="45.76338" lon="5.98564">
        <ele>591</ele>
        <time>2011-07-03T08:14:20Z</time>
      </trkpt>
      <trkpt lat="45.76339" lon="5.98567">
        <ele>591</ele>
        <time>2011-07-03T08:14:21Z</time>
      </trkpt>
      <trkpt lat="45.7634" lon="5.98569">
        <ele>591</ele>
        <time>2011-07-03T08:14:22Z</time>
      </trkpt>
      <trkpt lat="45.7634" lon="5.98571">
        <ele>592</ele>
        <time>2011-07-03T08:14:23Z</time>
      </trkpt>
      <trkpt lat="45.76341" lon="5.98573">
        <ele>592</ele>
        <time>2011-07-03T08:14:24Z</time>
      </trkpt>
      <trkpt lat="45.76342" lon="5.98575">
        <ele>592</ele>
        <time>2011-07-03T08:14:25Z</time>
      </trkpt>
      <trkpt lat="45.76343" lon="5.98577">
        <ele>592</ele>
        <time>2011-07-03T08:14:26Z</time>
      </trkpt>
      <trkpt lat="45.76344" lon="5.9858">
        <ele>592</ele>
        <time>2011-07-03T08:14:27Z</time>
      </trkpt>
      <trkpt lat="45.76344" lon="5.98582">
        <ele>592</ele>
        <time>2011-07-03T08:14:28Z</time>
      </trkpt>
      <trkpt lat="45.76345" lon="5.98584">
        <ele>592</ele>
        <time>2011-07-03T08:14:29Z</time>
      </trkpt>
      <trkpt lat="45.76345" lon="5.98586">
        <ele>592</ele>
        <time>2011-07-03T08:14:30Z</time>
      </trkpt>
      <trkpt lat="45.76346" lon="5.98588">
        <ele>592</ele>
        <time>2011-07-03T08:14:31Z</time>
      </trkpt>
      <trkpt lat="45.76347" lon="5.9859">
        <ele>592</ele>
        <time>2011-07-03T08:14:32Z</time>
      </trkpt>
      <trkpt lat="45.76349" lon="5.98593">
        <ele>592</ele>
        <time>2011-07-03T08:14:33Z</time>
      </trkpt>
      <trkpt lat="45.7635" lon="5.98596">
        <ele>592</ele>
        <time>2011-07-03T08:14:34Z</time>
      </trkpt>
      <trkpt lat="45.76352" lon="5.98598">
        <ele>592</ele>
        <time>2011-07-03T08:14:35Z</time>
      </trkpt>
      <trkpt lat="45.76353" lon="5.98601">
        <ele>592</ele>
        <time>2011-07-03T08:14:36Z</time>
      </trkpt>
      <trkpt lat="45.76354" lon="5.98603">
        <ele>592</ele>
        <time>2011-07-03T08:14:37Z</time>
      </trkpt>
      <trkpt lat="45.76355" lon="5.98606">
        <ele>592</ele>
        <time>2011-07-03T08:14:38Z</time>
      </trkpt>
      <trkpt lat="45.76355" lon="5.98607">
        <ele>592</ele>
        <time>2011-07-03T08:14:39Z</time>
      </trkpt>
      <trkpt lat="45.76355" lon="5.98609">
        <ele>592</ele>
        <time>2011-07-03T08:14:40Z</time>
      </trkpt>
      <trkpt lat="45.76356" lon="5.98612">
        <ele>592</ele>
        <time>2011-07-03T08:14:41Z</time>
      </trkpt>
      <trkpt lat="45.76356" lon="5.98614">
        <ele>592</ele>
        <time>2011-07-03T08:14:42Z</time>
      </trkpt>
      <trkpt lat="45.76357" lon="5.98615">
        <ele>592</ele>
        <time>2011-07-03T08:14:43Z</time>
      </trkpt>
      <trkpt lat="45.76357" lon="5.98617">
        <ele>592</ele>
        <time>2011-07-03T08:14:44Z</time>
      </trkpt>
      <trkpt lat="45.76357" lon="5.98619">
        <ele>592</ele>
        <time>2011-07-03T08:14:45Z</time>
      </trkpt>
      <trkpt lat="45.76358" lon="5.98621">
        <ele>592</ele>
        <time>2011-07-03T08:14:46Z</time>
      </trkpt>
      <trkpt lat="45.76358" lon="5.98622">
        <ele>593</ele>
        <time>2011-07-03T08:14:47Z</time>
      </trkpt>
      <trkpt lat="45.76358" lon="5.98624">
        <ele>593</ele>
        <time>2011-07-03T08:14:48Z</time>
      </trkpt>
      <trkpt lat="45.76357" lon="5.98626">
        <ele>593</ele>
        <time>2011-07-03T08:14:50Z</time>
      </trkpt>
      <trkpt lat="45.76356" lon="5.98627">
        <ele>594</ele>
        <time>2011-07-03T08:14:52Z</time>
      </trkpt>
      <trkpt lat="45.76355" lon="5.98629">
        <ele>594</ele>
        <time>2011-07-03T08:14:54Z</time>
      </trkpt>
      <trkpt lat="45.76353" lon="5.98631">
        <ele>594</ele>
        <time>2011-07-03T08:14:56Z</time>
      </trkpt>
      <trkpt lat="45.76352" lon="5.98633">
        <ele>594</ele>
        <time>2011-07-03T08:14:58Z</time>
      </trkpt>
      <trkpt lat="45.76352" lon="5.98635">
        <ele>594</ele>
        <time>2011-07-03T08:14:59Z</time>
      </trkpt>
      <trkpt lat="45.76352" lon="5.98637">
        <ele>594</ele>
        <time>2011-07-03T08:15:01Z</time>
      </trkpt>
      <trkpt lat="45.76353" lon="5.98638">
        <ele>594</ele>
        <time>2011-07-03T08:15:02Z</time>
      </trkpt>
      <trkpt lat="45.76355" lon="5.98638">
        <ele>595</ele>
        <time>2011-07-03T08:15:04Z</time>
      </trkpt>
      <trkpt lat="45.76356" lon="5.98639">
        <ele>595</ele>
        <time>2011-07-03T08:15:05Z</time>
      </trkpt>
      <trkpt lat="45.76357" lon="5.9864">
        <ele>595</ele>
        <time>2011-07-03T08:15:06Z</time>
      </trkpt>
      <trkpt lat="45.76359" lon="5.98642">
        <ele>596</ele>
        <time>2011-07-03T08:15:08Z</time>
      </trkpt>
      <trkpt lat="45.7636" lon="5.98643">
        <ele>597</ele>
        <time>2011-07-03T08:15:10Z</time>
      </trkpt>
      <trkpt lat="45.76362" lon="5.98645">
        <ele>597</ele>
        <time>2011-07-03T08:15:12Z</time>
      </trkpt>
      <trkpt lat="45.76364" lon="5.98648">
        <ele>598</ele>
        <time>2011-07-03T08:15:14Z</time>
      </trkpt>
      <trkpt lat="45.76364" lon="5.9865">
        <ele>598</ele>
        <time>2011-07-03T08:15:15Z</time>
      </trkpt>
      <trkpt lat="45.76365" lon="5.98652">
        <ele>598</ele>
        <time>2011-07-03T08:15:16Z</time>
      </trkpt>
      <trkpt lat="45.76365" lon="5.98653">
        <ele>598</ele>
        <time>2011-07-03T08:15:17Z</time>
      </trkpt>
      <trkpt lat="45.76366" lon="5.98655">
        <ele>598</ele>
        <time>2011-07-03T08:15:18Z</time>
      </trkpt>
      <trkpt lat="45.76366" lon="5.98656">
        <ele>598</ele>
        <time>2011-07-03T08:15:19Z</time>
      </trkpt>
      <trkpt lat="45.76367" lon="5.98658">
        <ele>598</ele>
        <time>2011-07-03T08:15:20Z</time>
      </trkpt>
      <trkpt lat="45.76368" lon="5.9866">
        <ele>598</ele>
        <time>2011-07-03T08:15:21Z</time>
      </trkpt>
      <trkpt lat="45.76369" lon="5.98663">
        <ele>598</ele>
        <time>2011-07-03T08:15:22Z</time>
      </trkpt>
      <trkpt lat="45.76371" lon="5.98665">
        <ele>598</ele>
        <time>2011-07-03T08:15:23Z</time>
      </trkpt>
      <trkpt lat="45.76372" lon="5.98667">
        <ele>598</ele>
        <time>2011-07-03T08:15:24Z</time>
      </trkpt>
      <trkpt lat="45.76373" lon="5.9867">
        <ele>598</ele>
        <time>2011-07-03T08:15:25Z</time>
      </trkpt>
      <trkpt lat="45.76374" lon="5.98671">
        <ele>598</ele>
        <time>2011-07-03T08:15:26Z</time>
      </trkpt>
      <trkpt lat="45.76375" lon="5.98674">
        <ele>598</ele>
        <time>2011-07-03T08:15:27Z</time>
      </trkpt>
      <trkpt lat="45.76376" lon="5.98676">
        <ele>598</ele>
        <time>2011-07-03T08:15:28Z</time>
      </trkpt>
      <trkpt lat="45.76378" lon="5.98678">
        <ele>598</ele>
        <time>2011-07-03T08:15:29Z</time>
      </trkpt>
      <trkpt lat="45.7638" lon="5.9868">
        <ele>598</ele>
        <time>2011-07-03T08:15:31Z</time>
      </trkpt>
      <trkpt lat="45.76381" lon="5.98681">
        <ele>598</ele>
        <time>2011-07-03T08:15:32Z</time>
      </trkpt>
      <trkpt lat="45.76382" lon="5.98682">
        <ele>598</ele>
        <time>2011-07-03T08:15:33Z</time>
      </trkpt>
      <trkpt lat="45.76384" lon="5.98683">
        <ele>598</ele>
        <time>2011-07-03T08:15:34Z</time>
      </trkpt>
      <trkpt lat="45.76385" lon="5.98684">
        <ele>598</ele>
        <time>2011-07-03T08:15:35Z</time>
      </trkpt>
      <trkpt lat="45.76386" lon="5.98684">
        <ele>598</ele>
        <time>2011-07-03T08:15:36Z</time>
      </trkpt>
      <trkpt lat="45.76388" lon="5.98684">
        <ele>598</ele>
        <time>2011-07-03T08:15:37Z</time>
      </trkpt>
      <trkpt lat="45.76389" lon="5.98684">
        <ele>598</ele>
        <time>2011-07-03T08:15:38Z</time>
      </trkpt>
      <trkpt lat="45.76391" lon="5.98685">
        <ele>598</ele>
        <time>2011-07-03T08:15:39Z</time>
      </trkpt>
      <trkpt lat="45.76392" lon="5.98685">
        <ele>598</ele>
        <time>2011-07-03T08:15:40Z</time>
      </trkpt>
      <trkpt lat="45.76394" lon="5.98686">
        <ele>598</ele>
        <time>2011-07-03T08:15:41Z</time>
      </trkpt>
      <trkpt lat="45.76395" lon="5.98686">
        <ele>598</ele>
        <time>2011-07-03T08:15:42Z</time>
      </trkpt>
      <trkpt lat="45.76397" lon="5.98687">
        <ele>598</ele>
        <time>2011-07-03T08:15:43Z</time>
      </trkpt>
      <trkpt lat="45.76398" lon="5.98687">
        <ele>598</ele>
        <time>2011-07-03T08:15:44Z</time>
      </trkpt>
      <trkpt lat="45.764" lon="5.98688">
        <ele>598</ele>
        <time>2011-07-03T08:15:46Z</time>
      </trkpt>
      <trkpt lat="45.76401" lon="5.98688">
        <ele>598</ele>
        <time>2011-07-03T08:15:47Z</time>
      </trkpt>
      <trkpt lat="45.76403" lon="5.98687">
        <ele>598</ele>
        <time>2011-07-03T08:15:48Z</time>
      </trkpt>
      <trkpt lat="45.76404" lon="5.98688">
        <ele>598</ele>
        <time>2011-07-03T08:15:50Z</time>
      </trkpt>
      <trkpt lat="45.76406" lon="5.98688">
        <ele>598</ele>
        <time>2011-07-03T08:15:52Z</time>
      </trkpt>
      <trkpt lat="45.76408" lon="5.98688">
        <ele>598</ele>
        <time>2011-07-03T08:15:53Z</time>
      </trkpt>
      <trkpt lat="45.76409" lon="5.98687">
        <ele>598</ele>
        <time>2011-07-03T08:15:55Z</time>
      </trkpt>
      <trkpt lat="45.7641" lon="5.98688">
        <ele>598</ele>
        <time>2011-07-03T08:15:56Z</time>
      </trkpt>
      <trkpt lat="45.76412" lon="5.98688">
        <ele>598</ele>
        <time>2011-07-03T08:15:57Z</time>
      </trkpt>
      <trkpt lat="45.76413" lon="5.98689">
        <ele>598</ele>
        <time>2011-07-03T08:15:59Z</time>
      </trkpt>
      <trkpt lat="45.76414" lon="5.98691">
        <ele>598</ele>
        <time>2011-07-03T08:16:01Z</time>
      </trkpt>
      <trkpt lat="45.76415" lon="5.98693">
        <ele>599</ele>
        <time>2011-07-03T08:16:03Z</time>
      </trkpt>
      <trkpt lat="45.76415" lon="5.98694">
        <ele>599</ele>
        <time>2011-07-03T08:16:04Z</time>
      </trkpt>
      <trkpt lat="45.76415" lon="5.98696">
        <ele>600</ele>
        <time>2011-07-03T08:16:05Z</time>
      </trkpt>
      <trkpt lat="45.76416" lon="5.98698">
        <ele>600</ele>
        <time>2011-07-03T08:16:06Z</time>
      </trkpt>
      <trkpt lat="45.76416" lon="5.987">
        <ele>600</ele>
        <time>2011-07-03T08:16:07Z</time>
      </trkpt>
      <trkpt lat="45.76416" lon="5.98701">
        <ele>600</ele>
        <time>2011-07-03T08:16:08Z</time>
      </trkpt>
      <trkpt lat="45.76416" lon="5.98703">
        <ele>601</ele>
        <time>2011-07-03T08:16:09Z</time>
      </trkpt>
      <trkpt lat="45.76416" lon="5.98705">
        <ele>601</ele>
        <time>2011-07-03T08:16:10Z</time>
      </trkpt>
      <trkpt lat="45.76417" lon="5.98707">
        <ele>601</ele>
        <time>2011-07-03T08:16:11Z</time>
      </trkpt>
      <trkpt lat="45.76417" lon="5.98708">
        <ele>601</ele>
        <time>2011-07-03T08:16:12Z</time>
      </trkpt>
      <trkpt lat="45.76417" lon="5.98711">
        <ele>602</ele>
        <time>2011-07-03T08:16:13Z</time>
      </trkpt>
      <trkpt lat="45.76417" lon="5.98712">
        <ele>602</ele>
        <time>2011-07-03T08:16:14Z</time>
      </trkpt>
      <trkpt lat="45.76417" lon="5.98715">
        <ele>603</ele>
        <time>2011-07-03T08:16:15Z</time>
      </trkpt>
      <trkpt lat="45.76417" lon="5.98717">
        <ele>603</ele>
        <time>2011-07-03T08:16:16Z</time>
      </trkpt>
      <trkpt lat="45.76418" lon="5.98719">
        <ele>603</ele>
        <time>2011-07-03T08:16:17Z</time>
      </trkpt>
      <trkpt lat="45.76417" lon="5.98721">
        <ele>604</ele>
        <time>2011-07-03T08:16:18Z</time>
      </trkpt>
      <trkpt lat="45.76418" lon="5.98724">
        <ele>604</ele>
        <time>2011-07-03T08:16:19Z</time>
      </trkpt>
      <trkpt lat="45.76418" lon="5.98726">
        <ele>604</ele>
        <time>2011-07-03T08:16:20Z</time>
      </trkpt>
      <trkpt lat="45.76418" lon="5.98728">
        <ele>604</ele>
        <time>2011-07-03T08:16:21Z</time>
      </trkpt>
      <trkpt lat="45.76418" lon="5.98731">
        <ele>604</ele>
        <time>2011-07-03T08:16:22Z</time>
      </trkpt>
      <trkpt lat="45.76418" lon="5.98733">
        <ele>604</ele>
        <time>2011-07-03T08:16:23Z</time>
      </trkpt>
      <trkpt lat="45.76418" lon="5.98735">
        <ele>604</ele>
        <time>2011-07-03T08:16:24Z</time>
      </trkpt>
      <trkpt lat="45.76418" lon="5.98737">
        <ele>604</ele>
        <time>2011-07-03T08:16:25Z</time>
      </trkpt>
      <trkpt lat="45.76418" lon="5.98739">
        <ele>604</ele>
        <time>2011-07-03T08:16:26Z</time>
      </trkpt>
      <trkpt lat="45.76418" lon="5.98742">
        <ele>604</ele>
        <time>2011-07-03T08:16:27Z</time>
      </trkpt>
      <trkpt lat="45.76418" lon="5.98744">
        <ele>604</ele>
        <time>2011-07-03T08:16:28Z</time>
      </trkpt>
      <trkpt lat="45.76418" lon="5.98746">
        <ele>604</ele>
        <time>2011-07-03T08:16:29Z</time>
      </trkpt>
      <trkpt lat="45.76417" lon="5.98748">
        <ele>604</ele>
        <time>2011-07-03T08:16:30Z</time>
      </trkpt>
      <trkpt lat="45.76417" lon="5.9875">
        <ele>604</ele>
        <time>2011-07-03T08:16:31Z</time>
      </trkpt>
      <trkpt lat="45.76416" lon="5.98752">
        <ele>604</ele>
        <time>2011-07-03T08:16:32Z</time>
      </trkpt>
      <trkpt lat="45.76416" lon="5.98754">
        <ele>604</ele>
        <time>2011-07-03T08:16:33Z</time>
      </trkpt>
      <trkpt lat="45.76416" lon="5.98756">
        <ele>604</ele>
        <time>2011-07-03T08:16:34Z</time>
      </trkpt>
      <trkpt lat="45.76416" lon="5.98758">
        <ele>604</ele>
        <time>2011-07-03T08:16:35Z</time>
      </trkpt>
      <trkpt lat="45.76415" lon="5.9876">
        <ele>604</ele>
        <time>2011-07-03T08:16:36Z</time>
      </trkpt>
      <trkpt lat="45.76415" lon="5.98763">
        <ele>604</ele>
        <time>2011-07-03T08:16:37Z</time>
      </trkpt>
      <trkpt lat="45.76415" lon="5.98765">
        <ele>604</ele>
        <time>2011-07-03T08:16:38Z</time>
      </trkpt>
      <trkpt lat="45.76415" lon="5.98767">
        <ele>604</ele>
        <time>2011-07-03T08:16:39Z</time>
      </trkpt>
      <trkpt lat="45.76415" lon="5.98769">
        <ele>605</ele>
        <time>2011-07-03T08:16:40Z</time>
      </trkpt>
      <trkpt lat="45.76414" lon="5.98771">
        <ele>605</ele>
        <time>2011-07-03T08:16:41Z</time>
      </trkpt>
      <trkpt lat="45.76414" lon="5.98773">
        <ele>605</ele>
        <time>2011-07-03T08:16:42Z</time>
      </trkpt>
      <trkpt lat="45.76414" lon="5.98774">
        <ele>605</ele>
        <time>2011-07-03T08:16:43Z</time>
      </trkpt>
      <trkpt lat="45.76414" lon="5.98776">
        <ele>605</ele>
        <time>2011-07-03T08:16:44Z</time>
      </trkpt>
      <trkpt lat="45.76413" lon="5.98778">
        <ele>606</ele>
        <time>2011-07-03T08:16:45Z</time>
      </trkpt>
      <trkpt lat="45.76413" lon="5.9878">
        <ele>606</ele>
        <time>2011-07-03T08:16:46Z</time>
      </trkpt>
      <trkpt lat="45.76413" lon="5.98782">
        <ele>606</ele>
        <time>2011-07-03T08:16:47Z</time>
      </trkpt>
      <trkpt lat="45.76412" lon="5.98784">
        <ele>606</ele>
        <time>2011-07-03T08:16:48Z</time>
      </trkpt>
      <trkpt lat="45.76412" lon="5.98786">
        <ele>606</ele>
        <time>2011-07-03T08:16:49Z</time>
      </trkpt>
      <trkpt lat="45.76411" lon="5.98788">
        <ele>606</ele>
        <time>2011-07-03T08:16:50Z</time>
      </trkpt>
      <trkpt lat="45.76411" lon="5.9879">
        <ele>606</ele>
        <time>2011-07-03T08:16:51Z</time>
      </trkpt>
      <trkpt lat="45.76411" lon="5.98792">
        <ele>606</ele>
        <time>2011-07-03T08:16:52Z</time>
      </trkpt>
      <trkpt lat="45.7641" lon="5.98794">
        <ele>606</ele>
        <time>2011-07-03T08:16:53Z</time>
      </trkpt>
      <trkpt lat="45.7641" lon="5.98796">
        <ele>607</ele>
        <time>2011-07-03T08:16:54Z</time>
      </trkpt>
      <trkpt lat="45.76409" lon="5.98798">
        <ele>607</ele>
        <time>2011-07-03T08:16:55Z</time>
      </trkpt>
      <trkpt lat="45.76409" lon="5.98801">
        <ele>607</ele>
        <time>2011-07-03T08:16:56Z</time>
      </trkpt>
      <trkpt lat="45.76408" lon="5.98803">
        <ele>607</ele>
        <time>2011-07-03T08:16:57Z</time>
      </trkpt>
      <trkpt lat="45.76408" lon="5.98805">
        <ele>607</ele>
        <time>2011-07-03T08:16:58Z</time>
      </trkpt>
      <trkpt lat="45.76408" lon="5.98807">
        <ele>607</ele>
        <time>2011-07-03T08:16:59Z</time>
      </trkpt>
      <trkpt lat="45.76407" lon="5.98809">
        <ele>607</ele>
        <time>2011-07-03T08:17:00Z</time>
      </trkpt>
      <trkpt lat="45.76407" lon="5.98811">
        <ele>607</ele>
        <time>2011-07-03T08:17:01Z</time>
      </trkpt>
      <trkpt lat="45.76406" lon="5.98813">
        <ele>608</ele>
        <time>2011-07-03T08:17:02Z</time>
      </trkpt>
      <trkpt lat="45.76406" lon="5.98815">
        <ele>608</ele>
        <time>2011-07-03T08:17:03Z</time>
      </trkpt>
      <trkpt lat="45.76405" lon="5.98817">
        <ele>608</ele>
        <time>2011-07-03T08:17:04Z</time>
      </trkpt>
      <trkpt lat="45.76405" lon="5.98819">
        <ele>608</ele>
        <time>2011-07-03T08:17:05Z</time>
      </trkpt>
      <trkpt lat="45.76405" lon="5.98821">
        <ele>608</ele>
        <time>2011-07-03T08:17:06Z</time>
      </trkpt>
      <trkpt lat="45.76404" lon="5.98823">
        <ele>608</ele>
        <time>2011-07-03T08:17:07Z</time>
      </trkpt>
      <trkpt lat="45.76404" lon="5.98825">
        <ele>609</ele>
        <time>2011-07-03T08:17:08Z</time>
      </trkpt>
      <trkpt lat="45.76403" lon="5.98827">
        <ele>609</ele>
        <time>2011-07-03T08:17:09Z</time>
      </trkpt>
      <trkpt lat="45.76403" lon="5.98828">
        <ele>609</ele>
        <time>2011-07-03T08:17:10Z</time>
      </trkpt>
      <trkpt lat="45.76403" lon="5.9883">
        <ele>609</ele>
        <time>2011-07-03T08:17:11Z</time>
      </trkpt>
      <trkpt lat="45.76402" lon="5.98832">
        <ele>609</ele>
        <time>2011-07-03T08:17:12Z</time>
      </trkpt>
      <trkpt lat="45.76402" lon="5.98834">
        <ele>610</ele>
        <time>2011-07-03T08:17:13Z</time>
      </trkpt>
      <trkpt lat="45.76401" lon="5.98836">
        <ele>610</ele>
        <time>2011-07-03T08:17:14Z</time>
      </trkpt>
      <trkpt lat="45.76401" lon="5.98837">
        <ele>610</ele>
        <time>2011-07-03T08:17:15Z</time>
      </trkpt>
      <trkpt lat="45.76401" lon="5.98839">
        <ele>610</ele>
        <time>2011-07-03T08:17:16Z</time>
      </trkpt>
      <trkpt lat="45.76401" lon="5.98841">
        <ele>610</ele>
        <time>2011-07-03T08:17:17Z</time>
      </trkpt>
      <trkpt lat="45.764" lon="5.98843">
        <ele>610</ele>
        <time>2011-07-03T08:17:18Z</time>
      </trkpt>
      <trkpt lat="45.764" lon="5.98845">
        <ele>610</ele>
        <time>2011-07-03T08:17:19Z</time>
      </trkpt>
      <trkpt lat="45.76399" lon="5.98846">
        <ele>610</ele>
        <time>2011-07-03T08:17:20Z</time>
      </trkpt>
      <trkpt lat="45.76399" lon="5.98848">
        <ele>610</ele>
        <time>2011-07-03T08:17:21Z</time>
      </trkpt>
      <trkpt lat="45.76398" lon="5.98849">
        <ele>610</ele>
        <time>2011-07-03T08:17:22Z</time>
      </trkpt>
      <trkpt lat="45.76398" lon="5.98851">
        <ele>610</ele>
        <time>2011-07-03T08:17:23Z</time>
      </trkpt>
      <trkpt lat="45.76398" lon="5.98853">
        <ele>610</ele>
        <time>2011-07-03T08:17:24Z</time>
      </trkpt>
      <trkpt lat="45.76398" lon="5.98855">
        <ele>610</ele>
        <time>2011-07-03T08:17:25Z</time>
      </trkpt>
      <trkpt lat="45.76398" lon="5.98857">
        <ele>610</ele>
        <time>2011-07-03T08:17:26Z</time>
      </trkpt>
      <trkpt lat="45.76397" lon="5.98859">
        <ele>610</ele>
        <time>2011-07-03T08:17:27Z</time>
      </trkpt>
      <trkpt lat="45.76397" lon="5.9886">
        <ele>610</ele>
        <time>2011-07-03T08:17:28Z</time>
      </trkpt>
      <trkpt lat="45.76397" lon="5.98862">
        <ele>610</ele>
        <time>2011-07-03T08:17:29Z</time>
      </trkpt>
      <trkpt lat="45.76397" lon="5.98864">
        <ele>610</ele>
        <time>2011-07-03T08:17:30Z</time>
      </trkpt>
      <trkpt lat="45.76396" lon="5.98866">
        <ele>610</ele>
        <time>2011-07-03T08:17:31Z</time>
      </trkpt>
      <trkpt lat="45.76396" lon="5.98869">
        <ele>610</ele>
        <time>2011-07-03T08:17:32Z</time>
      </trkpt>
      <trkpt lat="45.76396" lon="5.98871">
        <ele>610</ele>
        <time>2011-07-03T08:17:33Z</time>
      </trkpt>
      <trkpt lat="45.76395" lon="5.98873">
        <ele>610</ele>
        <time>2011-07-03T08:17:34Z</time>
      </trkpt>
      <trkpt lat="45.76395" lon="5.98875">
        <ele>610</ele>
        <time>2011-07-03T08:17:35Z</time>
      </trkpt>
      <trkpt lat="45.76395" lon="5.98876">
        <ele>610</ele>
        <time>2011-07-03T08:17:36Z</time>
      </trkpt>
      <trkpt lat="45.76395" lon="5.98878">
        <ele>610</ele>
        <time>2011-07-03T08:17:37Z</time>
      </trkpt>
      <trkpt lat="45.76394" lon="5.9888">
        <ele>610</ele>
        <time>2011-07-03T08:17:38Z</time>
      </trkpt>
      <trkpt lat="45.76394" lon="5.98882">
        <ele>610</ele>
        <time>2011-07-03T08:17:39Z</time>
      </trkpt>
      <trkpt lat="45.76393" lon="5.98883">
        <ele>610</ele>
        <time>2011-07-03T08:17:40Z</time>
      </trkpt>
      <trkpt lat="45.76393" lon="5.98885">
        <ele>610</ele>
        <time>2011-07-03T08:17:41Z</time>
      </trkpt>
      <trkpt lat="45.76392" lon="5.98887">
        <ele>610</ele>
        <time>2011-07-03T08:17:42Z</time>
      </trkpt>
      <trkpt lat="45.76392" lon="5.98889">
        <ele>610</ele>
        <time>2011-07-03T08:17:43Z</time>
      </trkpt>
      <trkpt lat="45.76392" lon="5.98891">
        <ele>610</ele>
        <time>2011-07-03T08:17:44Z</time>
      </trkpt>
      <trkpt lat="45.76391" lon="5.98893">
        <ele>610</ele>
        <time>2011-07-03T08:17:45Z</time>
      </trkpt>
      <trkpt lat="45.76391" lon="5.98895">
        <ele>610</ele>
        <time>2011-07-03T08:17:46Z</time>
      </trkpt>
      <trkpt lat="45.7639" lon="5.98897">
        <ele>611</ele>
        <time>2011-07-03T08:17:47Z</time>
      </trkpt>
      <trkpt lat="45.7639" lon="5.98899">
        <ele>611</ele>
        <time>2011-07-03T08:17:48Z</time>
      </trkpt>
      <trkpt lat="45.7639" lon="5.98901">
        <ele>611</ele>
        <time>2011-07-03T08:17:49Z</time>
      </trkpt>
      <trkpt lat="45.76389" lon="5.98903">
        <ele>611</ele>
        <time>2011-07-03T08:17:50Z</time>
      </trkpt>
      <trkpt lat="45.76389" lon="5.98905">
        <ele>611</ele>
        <time>2011-07-03T08:17:51Z</time>
      </trkpt>
      <trkpt lat="45.76388" lon="5.98907">
        <ele>611</ele>
        <time>2011-07-03T08:17:52Z</time>
      </trkpt>
      <trkpt lat="45.76388" lon="5.98909">
        <ele>612</ele>
        <time>2011-07-03T08:17:53Z</time>
      </trkpt>
      <trkpt lat="45.76388" lon="5.9891">
        <ele>612</ele>
        <time>2011-07-03T08:17:54Z</time>
      </trkpt>
      <trkpt lat="45.76388" lon="5.98912">
        <ele>612</ele>
        <time>2011-07-03T08:17:55Z</time>
      </trkpt>
      <trkpt lat="45.76388" lon="5.98914">
        <ele>613</ele>
        <time>2011-07-03T08:17:56Z</time>
      </trkpt>
      <trkpt lat="45.76387" lon="5.98916">
        <ele>613</ele>
        <time>2011-07-03T08:17:57Z</time>
      </trkpt>
      <trkpt lat="45.76386" lon="5.98918">
        <ele>614</ele>
        <time>2011-07-03T08:17:59Z</time>
      </trkpt>
      <trkpt lat="45.76384" lon="5.9892">
        <ele>615</ele>
        <time>2011-07-03T08:18:02Z</time>
      </trkpt>
      <trkpt lat="45.76383" lon="5.9892">
        <ele>615</ele>
        <time>2011-07-03T08:18:05Z</time>
      </trkpt>
      <trkpt lat="45.76382" lon="5.98921">
        <ele>615</ele>
        <time>2011-07-03T08:18:09Z</time>
      </trkpt>
      <trkpt lat="45.76381" lon="5.98923">
        <ele>615</ele>
        <time>2011-07-03T08:18:13Z</time>
      </trkpt>
      <trkpt lat="45.76381" lon="5.98924">
        <ele>613</ele>
        <time>2011-07-03T08:18:17Z</time>
      </trkpt>
      <trkpt lat="45.7638" lon="5.98925">
        <ele>612</ele>
        <time>2011-07-03T08:18:20Z</time>
      </trkpt>
      <trkpt lat="45.76379" lon="5.98926">
        <ele>612</ele>
        <time>2011-07-03T08:18:22Z</time>
      </trkpt>
      <trkpt lat="45.76377" lon="5.98927">
        <ele>612</ele>
        <time>2011-07-03T08:18:25Z</time>
      </trkpt>
      <trkpt lat="45.76378" lon="5.98929">
        <ele>612</ele>
        <time>2011-07-03T08:18:32Z</time>
      </trkpt>
      <trkpt lat="45.76379" lon="5.98928">
        <ele>611</ele>
        <time>2011-07-03T08:18:35Z</time>
      </trkpt>
      <trkpt lat="45.76379" lon="5.98926">
        <ele>611</ele>
        <time>2011-07-03T08:18:37Z</time>
      </trkpt>
      <trkpt lat="45.76379" lon="5.98927">
        <ele>611</ele>
        <time>2011-07-03T08:18:40Z</time>
      </trkpt>
      <trkpt lat="45.7638" lon="5.98929">
        <ele>611</ele>
        <time>2011-07-03T08:18:42Z</time>
      </trkpt>
      <trkpt lat="45.76382" lon="5.98929">
        <ele>611</ele>
        <time>2011-07-03T08:18:44Z</time>
      </trkpt>
      <trkpt lat="45.76383" lon="5.9893">
        <ele>611</ele>
        <time>2011-07-03T08:18:47Z</time>
      </trkpt>
      <trkpt lat="45.76384" lon="5.98933">
        <ele>608</ele>
        <time>2011-07-03T08:18:51Z</time>
      </trkpt>
      <trkpt lat="45.76386" lon="5.98931">
        <ele>603</ele>
        <time>2011-07-03T08:18:58Z</time>
      </trkpt>
      <trkpt lat="45.76388" lon="5.98929">
        <ele>603</ele>
        <time>2011-07-03T08:19:00Z</time>
      </trkpt>
      <trkpt lat="45.76389" lon="5.98928">
        <ele>603</ele>
        <time>2011-07-03T08:19:01Z</time>
      </trkpt>
      <trkpt lat="45.7639" lon="5.98928">
        <ele>604</ele>
        <time>2011-07-03T08:19:02Z</time>
      </trkpt>
      <trkpt lat="45.76392" lon="5.98929">
        <ele>605</ele>
        <time>2011-07-03T08:19:03Z</time>
      </trkpt>
      <trkpt lat="45.76395" lon="5.9893">
        <ele>607</ele>
        <time>2011-07-03T08:19:05Z</time>
      </trkpt>
      <trkpt lat="45.76397" lon="5.98931">
        <ele>608</ele>
        <time>2011-07-03T08:19:06Z</time>
      </trkpt>
      <trkpt lat="45.764" lon="5.98933">
        <ele>609</ele>
        <time>2011-07-03T08:19:07Z</time>
      </trkpt>
      <trkpt lat="45.76402" lon="5.98934">
        <ele>610</ele>
        <time>2011-07-03T08:19:08Z</time>
      </trkpt>
      <trkpt lat="45.76405" lon="5.98937">
        <ele>611</ele>
        <time>2011-07-03T08:19:09Z</time>
      </trkpt>
      <trkpt lat="45.76409" lon="5.98939">
        <ele>611</ele>
        <time>2011-07-03T08:19:10Z</time>
      </trkpt>
      <trkpt lat="45.76412" lon="5.98942">
        <ele>611</ele>
        <time>2011-07-03T08:19:11Z</time>
      </trkpt>
      <trkpt lat="45.76416" lon="5.98946">
        <ele>612</ele>
        <time>2011-07-03T08:19:12Z</time>
      </trkpt>
      <trkpt lat="45.7642" lon="5.98948">
        <ele>612</ele>
        <time>2011-07-03T08:19:13Z</time>
      </trkpt>
      <trkpt lat="45.76424" lon="5.98952">
        <ele>612</ele>
        <time>2011-07-03T08:19:14Z</time>
      </trkpt>
      <trkpt lat="45.76428" lon="5.98956">
        <ele>612</ele>
        <time>2011-07-03T08:19:15Z</time>
      </trkpt>
      <trkpt lat="45.76431" lon="5.98961">
        <ele>612</ele>
        <time>2011-07-03T08:19:16Z</time>
      </trkpt>
      <trkpt lat="45.76433" lon="5.98966">
        <ele>612</ele>
        <time>2011-07-03T08:19:17Z</time>
      </trkpt>
      <trkpt lat="45.76435" lon="5.98972">
        <ele>612</ele>
        <time>2011-07-03T08:19:18Z</time>
      </trkpt>
      <trkpt lat="45.76437" lon="5.98978">
        <ele>612</ele>
        <time>2011-07-03T08:19:19Z</time>
      </trkpt>
      <trkpt lat="45.76439" lon="5.98984">
        <ele>612</ele>
        <time>2011-07-03T08:19:20Z</time>
      </trkpt>
      <trkpt lat="45.76442" lon="5.98989">
        <ele>612</ele>
        <time>2011-07-03T08:19:21Z</time>
      </trkpt>
      <trkpt lat="45.76445" lon="5.98994">
        <ele>612</ele>
        <time>2011-07-03T08:19:22Z</time>
      </trkpt>
      <trkpt lat="45.76448" lon="5.98998">
        <ele>612</ele>
        <time>2011-07-03T08:19:23Z</time>
      </trkpt>
      <trkpt lat="45.76452" lon="5.99003">
        <ele>612</ele>
        <time>2011-07-03T08:19:24Z</time>
      </trkpt>
      <trkpt lat="45.76455" lon="5.99007">
        <ele>612</ele>
        <time>2011-07-03T08:19:25Z</time>
      </trkpt>
      <trkpt lat="45.76459" lon="5.99011">
        <ele>612</ele>
        <time>2011-07-03T08:19:26Z</time>
      </trkpt>
      <trkpt lat="45.76462" lon="5.99015">
        <ele>611</ele>
        <time>2011-07-03T08:19:27Z</time>
      </trkpt>
      <trkpt lat="45.76466" lon="5.99019">
        <ele>611</ele>
        <time>2011-07-03T08:19:28Z</time>
      </trkpt>
      <trkpt lat="45.7647" lon="5.99023">
        <ele>611</ele>
        <time>2011-07-03T08:19:29Z</time>
      </trkpt>
      <trkpt lat="45.76474" lon="5.99027">
        <ele>611</ele>
        <time>2011-07-03T08:19:30Z</time>
      </trkpt>
      <trkpt lat="45.76477" lon="5.99031">
        <ele>611</ele>
        <time>2011-07-03T08:19:31Z</time>
      </trkpt>
      <trkpt lat="45.76482" lon="5.99035">
        <ele>610</ele>
        <time>2011-07-03T08:19:32Z</time>
      </trkpt>
      <trkpt lat="45.76486" lon="5.99039">
        <ele>610</ele>
        <time>2011-07-03T08:19:33Z</time>
      </trkpt>
      <trkpt lat="45.7649" lon="5.99043">
        <ele>610</ele>
        <time>2011-07-03T08:19:34Z</time>
      </trkpt>
      <trkpt lat="45.76494" lon="5.99047">
        <ele>609</ele>
        <time>2011-07-03T08:19:35Z</time>
      </trkpt>
      <trkpt lat="45.76497" lon="5.99051">
        <ele>609</ele>
        <time>2011-07-03T08:19:36Z</time>
      </trkpt>
      <trkpt lat="45.76501" lon="5.99055">
        <ele>609</ele>
        <time>2011-07-03T08:19:37Z</time>
      </trkpt>
      <trkpt lat="45.76504" lon="5.99059">
        <ele>609</ele>
        <time>2011-07-03T08:19:38Z</time>
      </trkpt>
      <trkpt lat="45.76507" lon="5.99063">
        <ele>609</ele>
        <time>2011-07-03T08:19:39Z</time>
      </trkpt>
      <trkpt lat="45.7651" lon="5.99066">
        <ele>609</ele>
        <time>2011-07-03T08:19:40Z</time>
      </trkpt>
      <trkpt lat="45.76513" lon="5.9907">
        <ele>609</ele>
        <time>2011-07-03T08:19:41Z</time>
      </trkpt>
      <trkpt lat="45.76515" lon="5.99073">
        <ele>609</ele>
        <time>2011-07-03T08:19:42Z</time>
      </trkpt>
      <trkpt lat="45.76518" lon="5.99076">
        <ele>609</ele>
        <time>2011-07-03T08:19:43Z</time>
      </trkpt>
      <trkpt lat="45.76521" lon="5.9908">
        <ele>609</ele>
        <time>2011-07-03T08:19:44Z</time>
      </trkpt>
      <trkpt lat="45.76524" lon="5.99084">
        <ele>609</ele>
        <time>2011-07-03T08:19:45Z</time>
      </trkpt>
      <trkpt lat="45.76526" lon="5.99087">
        <ele>609</ele>
        <time>2011-07-03T08:19:46Z</time>
      </trkpt>
      <trkpt lat="45.76528" lon="5.99091">
        <ele>609</ele>
        <time>2011-07-03T08:19:47Z</time>
      </trkpt>
      <trkpt lat="45.76531" lon="5.99095">
        <ele>609</ele>
        <time>2011-07-03T08:19:48Z</time>
      </trkpt>
      <trkpt lat="45.76532" lon="5.99099">
        <ele>609</ele>
        <time>2011-07-03T08:19:49Z</time>
      </trkpt>
      <trkpt lat="45.76534" lon="5.99103">
        <ele>609</ele>
        <time>2011-07-03T08:19:50Z</time>
      </trkpt>
      <trkpt lat="45.76535" lon="5.99107">
        <ele>609</ele>
        <time>2011-07-03T08:19:51Z</time>
      </trkpt>
      <trkpt lat="45.76537" lon="5.99112">
        <ele>609</ele>
        <time>2011-07-03T08:19:52Z</time>
      </trkpt>
      <trkpt lat="45.76537" lon="5.99117">
        <ele>609</ele>
        <time>2011-07-03T08:19:53Z</time>
      </trkpt>
      <trkpt lat="45.76537" lon="5.99121">
        <ele>609</ele>
        <time>2011-07-03T08:19:54Z</time>
      </trkpt>
      <trkpt lat="45.76538" lon="5.99124">
        <ele>609</ele>
        <time>2011-07-03T08:19:55Z</time>
      </trkpt>
      <trkpt lat="45.76539" lon="5.99127">
        <ele>609</ele>
        <time>2011-07-03T08:19:56Z</time>
      </trkpt>
      <trkpt lat="45.76539" lon="5.99129">
        <ele>609</ele>
        <time>2011-07-03T08:19:57Z</time>
      </trkpt>
      <trkpt lat="45.7654" lon="5.99131">
        <ele>609</ele>
        <time>2011-07-03T08:19:58Z</time>
      </trkpt>
      <trkpt lat="45.76543" lon="5.99133">
        <ele>609</ele>
        <time>2011-07-03T08:19:59Z</time>
      </trkpt>
      <trkpt lat="45.76546" lon="5.99135">
        <ele>609</ele>
        <time>2011-07-03T08:20:00Z</time>
      </trkpt>
      <trkpt lat="45.76549" lon="5.99135">
        <ele>609</ele>
        <time>2011-07-03T08:20:01Z</time>
      </trkpt>
      <trkpt lat="45.76551" lon="5.99136">
        <ele>609</ele>
        <time>2011-07-03T08:20:02Z</time>
      </trkpt>
      <trkpt lat="45.76554" lon="5.99137">
        <ele>609</ele>
        <time>2011-07-03T08:20:03Z</time>
      </trkpt>
      <trkpt lat="45.76556" lon="5.99137">
        <ele>609</ele>
        <time>2011-07-03T08:20:04Z</time>
      </trkpt>
      <trkpt lat="45.76559" lon="5.99137">
        <ele>609</ele>
        <time>2011-07-03T08:20:05Z</time>
      </trkpt>
      <trkpt lat="45.76562" lon="5.99136">
        <ele>609</ele>
        <time>2011-07-03T08:20:06Z</time>
      </trkpt>
      <trkpt lat="45.76564" lon="5.99137">
        <ele>609</ele>
        <time>2011-07-03T08:20:07Z</time>
      </trkpt>
      <trkpt lat="45.76566" lon="5.99138">
        <ele>609</ele>
        <time>2011-07-03T08:20:08Z</time>
      </trkpt>
      <trkpt lat="45.76569" lon="5.99139">
        <ele>609</ele>
        <time>2011-07-03T08:20:09Z</time>
      </trkpt>
      <trkpt lat="45.7657" lon="5.9914">
        <ele>609</ele>
        <time>2011-07-03T08:20:10Z</time>
      </trkpt>
      <trkpt lat="45.76572" lon="5.99142">
        <ele>609</ele>
        <time>2011-07-03T08:20:11Z</time>
      </trkpt>
      <trkpt lat="45.76574" lon="5.99143">
        <ele>609</ele>
        <time>2011-07-03T08:20:12Z</time>
      </trkpt>
      <trkpt lat="45.76576" lon="5.99144">
        <ele>609</ele>
        <time>2011-07-03T08:20:13Z</time>
      </trkpt>
      <trkpt lat="45.76578" lon="5.99145">
        <ele>609</ele>
        <time>2011-07-03T08:20:14Z</time>
      </trkpt>
      <trkpt lat="45.7658" lon="5.99146">
        <ele>609</ele>
        <time>2011-07-03T08:20:15Z</time>
      </trkpt>
      <trkpt lat="45.76581" lon="5.99146">
        <ele>609</ele>
        <time>2011-07-03T08:20:16Z</time>
      </trkpt>
      <trkpt lat="45.76583" lon="5.99146">
        <ele>609</ele>
        <time>2011-07-03T08:20:17Z</time>
      </trkpt>
      <trkpt lat="45.76586" lon="5.99147">
        <ele>609</ele>
        <time>2011-07-03T08:20:18Z</time>
      </trkpt>
      <trkpt lat="45.76588" lon="5.99148">
        <ele>609</ele>
        <time>2011-07-03T08:20:19Z</time>
      </trkpt>
      <trkpt lat="45.7659" lon="5.99149">
        <ele>609</ele>
        <time>2011-07-03T08:20:20Z</time>
      </trkpt>
      <trkpt lat="45.76591" lon="5.99151">
        <ele>609</ele>
        <time>2011-07-03T08:20:21Z</time>
      </trkpt>
      <trkpt lat="45.76593" lon="5.99151">
        <ele>609</ele>
        <time>2011-07-03T08:20:22Z</time>
      </trkpt>
      <trkpt lat="45.76594" lon="5.99152">
        <ele>609</ele>
        <time>2011-07-03T08:20:23Z</time>
      </trkpt>
      <trkpt lat="45.76596" lon="5.99153">
        <ele>609</ele>
        <time>2011-07-03T08:20:24Z</time>
      </trkpt>
      <trkpt lat="45.76598" lon="5.99154">
        <ele>609</ele>
        <time>2011-07-03T08:20:25Z</time>
      </trkpt>
      <trkpt lat="45.766" lon="5.99156">
        <ele>609</ele>
        <time>2011-07-03T08:20:26Z</time>
      </trkpt>
      <trkpt lat="45.76602" lon="5.99158">
        <ele>609</ele>
        <time>2011-07-03T08:20:27Z</time>
      </trkpt>
      <trkpt lat="45.76604" lon="5.99159">
        <ele>609</ele>
        <time>2011-07-03T08:20:28Z</time>
      </trkpt>
      <trkpt lat="45.76606" lon="5.99161">
        <ele>609</ele>
        <time>2011-07-03T08:20:29Z</time>
      </trkpt>
      <trkpt lat="45.76607" lon="5.99162">
        <ele>609</ele>
        <time>2011-07-03T08:20:30Z</time>
      </trkpt>
      <trkpt lat="45.76609" lon="5.99163">
        <ele>609</ele>
        <time>2011-07-03T08:20:31Z</time>
      </trkpt>
      <trkpt lat="45.76611" lon="5.99164">
        <ele>609</ele>
        <time>2011-07-03T08:20:32Z</time>
      </trkpt>
      <trkpt lat="45.76613" lon="5.99165">
        <ele>609</ele>
        <time>2011-07-03T08:20:33Z</time>
      </trkpt>
      <trkpt lat="45.76615" lon="5.99168">
        <ele>609</ele>
        <time>2011-07-03T08:20:34Z</time>
      </trkpt>
      <trkpt lat="45.76617" lon="5.9917">
        <ele>609</ele>
        <time>2011-07-03T08:20:35Z</time>
      </trkpt>
      <trkpt lat="45.76619" lon="5.99172">
        <ele>609</ele>
        <time>2011-07-03T08:20:36Z</time>
      </trkpt>
      <trkpt lat="45.7662" lon="5.99173">
        <ele>609</ele>
        <time>2011-07-03T08:20:37Z</time>
      </trkpt>
      <trkpt lat="45.76623" lon="5.99174">
        <ele>609</ele>
        <time>2011-07-03T08:20:38Z</time>
      </trkpt>
      <trkpt lat="45.76624" lon="5.99174">
        <ele>609</ele>
        <time>2011-07-03T08:20:39Z</time>
      </trkpt>
      <trkpt lat="45.76626" lon="5.99175">
        <ele>609</ele>
        <time>2011-07-03T08:20:40Z</time>
      </trkpt>
      <trkpt lat="45.76628" lon="5.99175">
        <ele>609</ele>
        <time>2011-07-03T08:20:41Z</time>
      </trkpt>
      <trkpt lat="45.7663" lon="5.99175">
        <ele>609</ele>
        <time>2011-07-03T08:20:42Z</time>
      </trkpt>
      <trkpt lat="45.76632" lon="5.99175">
        <ele>609</ele>
        <time>2011-07-03T08:20:43Z</time>
      </trkpt>
      <trkpt lat="45.76633" lon="5.99176">
        <ele>610</ele>
        <time>2011-07-03T08:20:44Z</time>
      </trkpt>
      <trkpt lat="45.76635" lon="5.99177">
        <ele>610</ele>
        <time>2011-07-03T08:20:45Z</time>
      </trkpt>
      <trkpt lat="45.76637" lon="5.99178">
        <ele>610</ele>
        <time>2011-07-03T08:20:46Z</time>
      </trkpt>
      <trkpt lat="45.76638" lon="5.99179">
        <ele>610</ele>
        <time>2011-07-03T08:20:47Z</time>
      </trkpt>
      <trkpt lat="45.7664" lon="5.99179">
        <ele>610</ele>
        <time>2011-07-03T08:20:48Z</time>
      </trkpt>
      <trkpt lat="45.76641" lon="5.9918">
        <ele>610</ele>
        <time>2011-07-03T08:20:49Z</time>
      </trkpt>
      <trkpt lat="45.76643" lon="5.99179">
        <ele>610</ele>
        <time>2011-07-03T08:20:50Z</time>
      </trkpt>
      <trkpt lat="45.76645" lon="5.99179">
        <ele>610</ele>
        <time>2011-07-03T08:20:51Z</time>
      </trkpt>
      <trkpt lat="45.76647" lon="5.99178">
        <ele>610</ele>
        <time>2011-07-03T08:20:52Z</time>
      </trkpt>
      <trkpt lat="45.76649" lon="5.99178">
        <ele>610</ele>
        <time>2011-07-03T08:20:53Z</time>
      </trkpt>
      <trkpt lat="45.76651" lon="5.99178">
        <ele>610</ele>
        <time>2011-07-03T08:20:54Z</time>
      </trkpt>
      <trkpt lat="45.76653" lon="5.99178">
        <ele>610</ele>
        <time>2011-07-03T08:20:55Z</time>
      </trkpt>
      <trkpt lat="45.76656" lon="5.99178">
        <ele>610</ele>
        <time>2011-07-03T08:20:56Z</time>
      </trkpt>
      <trkpt lat="45.76658" lon="5.99177">
        <ele>610</ele>
        <time>2011-07-03T08:20:57Z</time>
      </trkpt>
      <trkpt lat="45.7666" lon="5.99177">
        <ele>610</ele>
        <time>2011-07-03T08:20:58Z</time>
      </trkpt>
      <trkpt lat="45.76663" lon="5.99177">
        <ele>610</ele>
        <time>2011-07-03T08:20:59Z</time>
      </trkpt>
      <trkpt lat="45.76665" lon="5.99177">
        <ele>610</ele>
        <time>2011-07-03T08:21:00Z</time>
      </trkpt>
      <trkpt lat="45.76667" lon="5.99176">
        <ele>610</ele>
        <time>2011-07-03T08:21:01Z</time>
      </trkpt>
      <trkpt lat="45.76669" lon="5.99176">
        <ele>611</ele>
        <time>2011-07-03T08:21:02Z</time>
      </trkpt>
      <trkpt lat="45.76671" lon="5.99176">
        <ele>611</ele>
        <time>2011-07-03T08:21:03Z</time>
      </trkpt>
      <trkpt lat="45.76673" lon="5.99176">
        <ele>612</ele>
        <time>2011-07-03T08:21:04Z</time>
      </trkpt>
      <trkpt lat="45.76675" lon="5.99176">
        <ele>612</ele>
        <time>2011-07-03T08:21:05Z</time>
      </trkpt>
      <trkpt lat="45.76678" lon="5.99176">
        <ele>612</ele>
        <time>2011-07-03T08:21:06Z</time>
      </trkpt>
      <trkpt lat="45.7668" lon="5.99176">
        <ele>612</ele>
        <time>2011-07-03T08:21:07Z</time>
      </trkpt>
      <trkpt lat="45.76682" lon="5.99176">
        <ele>612</ele>
        <time>2011-07-03T08:21:08Z</time>
      </trkpt>
      <trkpt lat="45.76683" lon="5.99174">
        <ele>612</ele>
        <time>2011-07-03T08:21:09Z</time>
      </trkpt>
      <trkpt lat="45.76685" lon="5.99174">
        <ele>612</ele>
        <time>2011-07-03T08:21:10Z</time>
      </trkpt>
      <trkpt lat="45.76687" lon="5.99174">
        <ele>613</ele>
        <time>2011-07-03T08:21:11Z</time>
      </trkpt>
      <trkpt lat="45.76689" lon="5.99175">
        <ele>613</ele>
        <time>2011-07-03T08:21:12Z</time>
      </trkpt>
      <trkpt lat="45.76691" lon="5.99175">
        <ele>613</ele>
        <time>2011-07-03T08:21:13Z</time>
      </trkpt>
      <trkpt lat="45.76693" lon="5.99175">
        <ele>613</ele>
        <time>2011-07-03T08:21:14Z</time>
      </trkpt>
      <trkpt lat="45.76695" lon="5.99174">
        <ele>613</ele>
        <time>2011-07-03T08:21:15Z</time>
      </trkpt>
      <trkpt lat="45.76697" lon="5.99174">
        <ele>613</ele>
        <time>2011-07-03T08:21:16Z</time>
      </trkpt>
      <trkpt lat="45.76699" lon="5.99173">
        <ele>613</ele>
        <time>2011-07-03T08:21:17Z</time>
      </trkpt>
      <trkpt lat="45.76702" lon="5.99173">
        <ele>613</ele>
        <time>2011-07-03T08:21:18Z</time>
      </trkpt>
      <trkpt lat="45.76705" lon="5.99173">
        <ele>613</ele>
        <time>2011-07-03T08:21:19Z</time>
      </trkpt>
      <trkpt lat="45.76707" lon="5.99172">
        <ele>613</ele>
        <time>2011-07-03T08:21:20Z</time>
      </trkpt>
      <trkpt lat="45.76709" lon="5.99172">
        <ele>613</ele>
        <time>2011-07-03T08:21:21Z</time>
      </trkpt>
      <trkpt lat="45.76711" lon="5.99172">
        <ele>613</ele>
        <time>2011-07-03T08:21:22Z</time>
      </trkpt>
      <trkpt lat="45.76712" lon="5.99172">
        <ele>613</ele>
        <time>2011-07-03T08:21:23Z</time>
      </trkpt>
      <trkpt lat="45.76714" lon="5.99172">
        <ele>613</ele>
        <time>2011-07-03T08:21:24Z</time>
      </trkpt>
      <trkpt lat="45.76715" lon="5.99171">
        <ele>613</ele>
        <time>2011-07-03T08:21:25Z</time>
      </trkpt>
      <trkpt lat="45.76717" lon="5.99171">
        <ele>613</ele>
        <time>2011-07-03T08:21:26Z</time>
      </trkpt>
      <trkpt lat="45.76718" lon="5.99172">
        <ele>613</ele>
        <time>2011-07-03T08:21:27Z</time>
      </trkpt>
      <trkpt lat="45.76719" lon="5.99172">
        <ele>613</ele>
        <time>2011-07-03T08:21:28Z</time>
      </trkpt>
      <trkpt lat="45.76721" lon="5.99172">
        <ele>613</ele>
        <time>2011-07-03T08:21:30Z</time>
      </trkpt>
      <trkpt lat="45.76722" lon="5.99172">
        <ele>613</ele>
        <time>2011-07-03T08:21:31Z</time>
      </trkpt>
      <trkpt lat="45.76724" lon="5.99173">
        <ele>613</ele>
        <time>2011-07-03T08:21:32Z</time>
      </trkpt>
      <trkpt lat="45.76725" lon="5.99174">
        <ele>613</ele>
        <time>2011-07-03T08:21:33Z</time>
      </trkpt>
      <trkpt lat="45.76727" lon="5.99174">
        <ele>613</ele>
        <time>2011-07-03T08:21:34Z</time>
      </trkpt>
      <trkpt lat="45.76728" lon="5.99174">
        <ele>613</ele>
        <time>2011-07-03T08:21:35Z</time>
      </trkpt>
      <trkpt lat="45.7673" lon="5.99175">
        <ele>613</ele>
        <time>2011-07-03T08:21:37Z</time>
      </trkpt>
      <trkpt lat="45.76732" lon="5.99176">
        <ele>613</ele>
        <time>2011-07-03T08:21:38Z</time>
      </trkpt>
      <trkpt lat="45.76733" lon="5.99177">
        <ele>614</ele>
        <time>2011-07-03T08:21:39Z</time>
      </trkpt>
      <trkpt lat="45.76735" lon="5.99177">
        <ele>614</ele>
        <time>2011-07-03T08:21:41Z</time>
      </trkpt>
      <trkpt lat="45.76736" lon="5.99177">
        <ele>614</ele>
        <time>2011-07-03T08:21:42Z</time>
      </trkpt>
      <trkpt lat="45.76738" lon="5.99177">
        <ele>614</ele>
        <time>2011-07-03T08:21:43Z</time>
      </trkpt>
      <trkpt lat="45.76739" lon="5.99178">
        <ele>615</ele>
        <time>2011-07-03T08:21:44Z</time>
      </trkpt>
      <trkpt lat="45.76742" lon="5.99179">
        <ele>615</ele>
        <time>2011-07-03T08:21:46Z</time>
      </trkpt>
      <trkpt lat="45.76743" lon="5.99179">
        <ele>615</ele>
        <time>2011-07-03T08:21:47Z</time>
      </trkpt>
      <trkpt lat="45.76745" lon="5.99179">
        <ele>616</ele>
        <time>2011-07-03T08:21:49Z</time>
      </trkpt>
      <trkpt lat="45.76747" lon="5.99179">
        <ele>616</ele>
        <time>2011-07-03T08:21:50Z</time>
      </trkpt>
      <trkpt lat="45.76749" lon="5.9918">
        <ele>616</ele>
        <time>2011-07-03T08:21:52Z</time>
      </trkpt>
      <trkpt lat="45.76751" lon="5.9918">
        <ele>616</ele>
        <time>2011-07-03T08:21:53Z</time>
      </trkpt>
      <trkpt lat="45.76753" lon="5.99181">
        <ele>616</ele>
        <time>2011-07-03T08:21:55Z</time>
      </trkpt>
      <trkpt lat="45.76754" lon="5.99182">
        <ele>616</ele>
        <time>2011-07-03T08:21:57Z</time>
      </trkpt>
      <trkpt lat="45.76756" lon="5.99182">
        <ele>618</ele>
        <time>2011-07-03T08:21:59Z</time>
      </trkpt>
      <trkpt lat="45.76758" lon="5.99183">
        <ele>620</ele>
        <time>2011-07-03T08:22:01Z</time>
      </trkpt>
      <trkpt lat="45.7676" lon="5.99182">
        <ele>622</ele>
        <time>2011-07-03T08:22:03Z</time>
      </trkpt>
      <trkpt lat="45.76761" lon="5.99182">
        <ele>624</ele>
        <time>2011-07-03T08:22:05Z</time>
      </trkpt>
      <trkpt lat="45.76763" lon="5.99182">
        <ele>626</ele>
        <time>2011-07-03T08:22:07Z</time>
      </trkpt>
      <trkpt lat="45.76764" lon="5.99181">
        <ele>628</ele>
        <time>2011-07-03T08:22:09Z</time>
      </trkpt>
      <trkpt lat="45.76766" lon="5.99182">
        <ele>629</ele>
        <time>2011-07-03T08:22:11Z</time>
      </trkpt>
      <trkpt lat="45.76768" lon="5.99183">
        <ele>629</ele>
        <time>2011-07-03T08:22:12Z</time>
      </trkpt>
      <trkpt lat="45.76769" lon="5.99184">
        <ele>630</ele>
        <time>2011-07-03T08:22:13Z</time>
      </trkpt>
      <trkpt lat="45.7677" lon="5.99185">
        <ele>630</ele>
        <time>2011-07-03T08:22:14Z</time>
      </trkpt>
      <trkpt lat="45.76773" lon="5.99186">
        <ele>630</ele>
        <time>2011-07-03T08:22:16Z</time>
      </trkpt>
      <trkpt lat="45.76774" lon="5.99186">
        <ele>630</ele>
        <time>2011-07-03T08:22:17Z</time>
      </trkpt>
      <trkpt lat="45.76776" lon="5.99185">
        <ele>630</ele>
        <time>2011-07-03T08:22:19Z</time>
      </trkpt>
      <trkpt lat="45.76778" lon="5.99186">
        <ele>631</ele>
        <time>2011-07-03T08:22:21Z</time>
      </trkpt>
      <trkpt lat="45.76779" lon="5.99186">
        <ele>631</ele>
        <time>2011-07-03T08:22:22Z</time>
      </trkpt>
      <trkpt lat="45.76781" lon="5.99186">
        <ele>632</ele>
        <time>2011-07-03T08:22:24Z</time>
      </trkpt>
      <trkpt lat="45.76783" lon="5.99187">
        <ele>632</ele>
        <time>2011-07-03T08:22:26Z</time>
      </trkpt>
      <trkpt lat="45.76785" lon="5.99187">
        <ele>632</ele>
        <time>2011-07-03T08:22:27Z</time>
      </trkpt>
      <trkpt lat="45.76786" lon="5.99188">
        <ele>632</ele>
        <time>2011-07-03T08:22:28Z</time>
      </trkpt>
      <trkpt lat="45.76788" lon="5.99189">
        <ele>632</ele>
        <time>2011-07-03T08:22:29Z</time>
      </trkpt>
      <trkpt lat="45.7679" lon="5.99191">
        <ele>632</ele>
        <time>2011-07-03T08:22:30Z</time>
      </trkpt>
      <trkpt lat="45.76792" lon="5.99192">
        <ele>632</ele>
        <time>2011-07-03T08:22:32Z</time>
      </trkpt>
      <trkpt lat="45.76794" lon="5.99192">
        <ele>633</ele>
        <time>2011-07-03T08:22:34Z</time>
      </trkpt>
      <trkpt lat="45.76797" lon="5.99195">
        <ele>634</ele>
        <time>2011-07-03T08:22:36Z</time>
      </trkpt>
      <trkpt lat="45.76798" lon="5.99196">
        <ele>634</ele>
        <time>2011-07-03T08:22:37Z</time>
      </trkpt>
      <trkpt lat="45.76799" lon="5.99197">
        <ele>634</ele>
        <time>2011-07-03T08:22:38Z</time>
      </trkpt>
      <trkpt lat="45.768" lon="5.99198">
        <ele>634</ele>
        <time>2011-07-03T08:22:39Z</time>
      </trkpt>
      <trkpt lat="45.76802" lon="5.99198">
        <ele>634</ele>
        <time>2011-07-03T08:22:40Z</time>
      </trkpt>
      <trkpt lat="45.76803" lon="5.99199">
        <ele>634</ele>
        <time>2011-07-03T08:22:41Z</time>
      </trkpt>
      <trkpt lat="45.76804" lon="5.992">
        <ele>634</ele>
        <time>2011-07-03T08:22:42Z</time>
      </trkpt>
      <trkpt lat="45.76805" lon="5.99201">
        <ele>634</ele>
        <time>2011-07-03T08:22:43Z</time>
      </trkpt>
      <trkpt lat="45.76807" lon="5.99201">
        <ele>634</ele>
        <time>2011-07-03T08:22:44Z</time>
      </trkpt>
      <trkpt lat="45.76808" lon="5.99203">
        <ele>634</ele>
        <time>2011-07-03T08:22:46Z</time>
      </trkpt>
      <trkpt lat="45.7681" lon="5.99204">
        <ele>634</ele>
        <time>2011-07-03T08:22:48Z</time>
      </trkpt>
      <trkpt lat="45.76812" lon="5.99205">
        <ele>634</ele>
        <time>2011-07-03T08:22:49Z</time>
      </trkpt>
      <trkpt lat="45.76814" lon="5.99205">
        <ele>634</ele>
        <time>2011-07-03T08:22:51Z</time>
      </trkpt>
      <trkpt lat="45.76817" lon="5.99207">
        <ele>634</ele>
        <time>2011-07-03T08:22:53Z</time>
      </trkpt>
      <trkpt lat="45.76818" lon="5.99208">
        <ele>635</ele>
        <time>2011-07-03T08:22:55Z</time>
      </trkpt>
      <trkpt lat="45.7682" lon="5.9921">
        <ele>635</ele>
        <time>2011-07-03T08:22:57Z</time>
      </trkpt>
      <trkpt lat="45.76822" lon="5.99211">
        <ele>635</ele>
        <time>2011-07-03T08:22:59Z</time>
      </trkpt>
      <trkpt lat="45.76824" lon="5.99212">
        <ele>635</ele>
        <time>2011-07-03T08:23:01Z</time>
      </trkpt>
      <trkpt lat="45.76825" lon="5.99212">
        <ele>635</ele>
        <time>2011-07-03T08:23:02Z</time>
      </trkpt>
      <trkpt lat="45.76827" lon="5.99213">
        <ele>635</ele>
        <time>2011-07-03T08:23:03Z</time>
      </trkpt>
      <trkpt lat="45.76829" lon="5.99214">
        <ele>635</ele>
        <time>2011-07-03T08:23:05Z</time>
      </trkpt>
      <trkpt lat="45.76831" lon="5.99216">
        <ele>635</ele>
        <time>2011-07-03T08:23:07Z</time>
      </trkpt>
      <trkpt lat="45.76833" lon="5.99217">
        <ele>636</ele>
        <time>2011-07-03T08:23:09Z</time>
      </trkpt>
      <trkpt lat="45.76834" lon="5.99218">
        <ele>636</ele>
        <time>2011-07-03T08:23:10Z</time>
      </trkpt>
      <trkpt lat="45.76837" lon="5.99221">
        <ele>637</ele>
        <time>2011-07-03T08:23:12Z</time>
      </trkpt>
      <trkpt lat="45.7684" lon="5.99224">
        <ele>637</ele>
        <time>2011-07-03T08:23:13Z</time>
      </trkpt>
      <trkpt lat="45.76842" lon="5.99225">
        <ele>637</ele>
        <time>2011-07-03T08:23:14Z</time>
      </trkpt>
      <trkpt lat="45.76843" lon="5.99224">
        <ele>637</ele>
        <time>2011-07-03T08:23:15Z</time>
      </trkpt>
      <trkpt lat="45.76845" lon="5.99224">
        <ele>637</ele>
        <time>2011-07-03T08:23:16Z</time>
      </trkpt>
      <trkpt lat="45.76846" lon="5.99224">
        <ele>637</ele>
        <time>2011-07-03T08:23:17Z</time>
      </trkpt>
      <trkpt lat="45.76848" lon="5.99224">
        <ele>637</ele>
        <time>2011-07-03T08:23:18Z</time>
      </trkpt>
      <trkpt lat="45.76849" lon="5.99224">
        <ele>637</ele>
        <time>2011-07-03T08:23:19Z</time>
      </trkpt>
      <trkpt lat="45.76851" lon="5.99225">
        <ele>637</ele>
        <time>2011-07-03T08:23:20Z</time>
      </trkpt>
      <trkpt lat="45.76853" lon="5.99225">
        <ele>637</ele>
        <time>2011-07-03T08:23:21Z</time>
      </trkpt>
      <trkpt lat="45.76854" lon="5.99226">
        <ele>637</ele>
        <time>2011-07-03T08:23:22Z</time>
      </trkpt>
      <trkpt lat="45.76856" lon="5.99226">
        <ele>637</ele>
        <time>2011-07-03T08:23:23Z</time>
      </trkpt>
      <trkpt lat="45.76857" lon="5.99227">
        <ele>637</ele>
        <time>2011-07-03T08:23:24Z</time>
      </trkpt>
      <trkpt lat="45.76859" lon="5.99228">
        <ele>637</ele>
        <time>2011-07-03T08:23:25Z</time>
      </trkpt>
      <trkpt lat="45.76861" lon="5.99228">
        <ele>637</ele>
        <time>2011-07-03T08:23:26Z</time>
      </trkpt>
      <trkpt lat="45.76863" lon="5.99229">
        <ele>638</ele>
        <time>2011-07-03T08:23:27Z</time>
      </trkpt>
      <trkpt lat="45.76864" lon="5.9923">
        <ele>638</ele>
        <time>2011-07-03T08:23:28Z</time>
      </trkpt>
      <trkpt lat="45.76867" lon="5.99232">
        <ele>638</ele>
        <time>2011-07-03T08:23:29Z</time>
      </trkpt>
      <trkpt lat="45.76868" lon="5.99233">
        <ele>638</ele>
        <time>2011-07-03T08:23:30Z</time>
      </trkpt>
      <trkpt lat="45.7687" lon="5.99234">
        <ele>638</ele>
        <time>2011-07-03T08:23:31Z</time>
      </trkpt>
      <trkpt lat="45.76872" lon="5.99236">
        <ele>638</ele>
        <time>2011-07-03T08:23:32Z</time>
      </trkpt>
      <trkpt lat="45.76874" lon="5.99237">
        <ele>638</ele>
        <time>2011-07-03T08:23:33Z</time>
      </trkpt>
      <trkpt lat="45.76875" lon="5.99238">
        <ele>638</ele>
        <time>2011-07-03T08:23:34Z</time>
      </trkpt>
      <trkpt lat="45.76877" lon="5.9924">
        <ele>638</ele>
        <time>2011-07-03T08:23:35Z</time>
      </trkpt>
      <trkpt lat="45.76878" lon="5.99241">
        <ele>638</ele>
        <time>2011-07-03T08:23:36Z</time>
      </trkpt>
      <trkpt lat="45.7688" lon="5.99241">
        <ele>639</ele>
        <time>2011-07-03T08:23:37Z</time>
      </trkpt>
      <trkpt lat="45.76882" lon="5.99242">
        <ele>640</ele>
        <time>2011-07-03T08:23:38Z</time>
      </trkpt>
      <trkpt lat="45.76883" lon="5.99243">
        <ele>640</ele>
        <time>2011-07-03T08:23:39Z</time>
      </trkpt>
      <trkpt lat="45.76885" lon="5.99244">
        <ele>640</ele>
        <time>2011-07-03T08:23:40Z</time>
      </trkpt>
      <trkpt lat="45.76886" lon="5.99245">
        <ele>641</ele>
        <time>2011-07-03T08:23:41Z</time>
      </trkpt>
      <trkpt lat="45.76888" lon="5.99247">
        <ele>641</ele>
        <time>2011-07-03T08:23:42Z</time>
      </trkpt>
      <trkpt lat="45.7689" lon="5.99249">
        <ele>642</ele>
        <time>2011-07-03T08:23:44Z</time>
      </trkpt>
      <trkpt lat="45.76891" lon="5.99251">
        <ele>643</ele>
        <time>2011-07-03T08:23:45Z</time>
      </trkpt>
      <trkpt lat="45.76892" lon="5.99253">
        <ele>644</ele>
        <time>2011-07-03T08:23:46Z</time>
      </trkpt>
      <trkpt lat="45.76894" lon="5.99255">
        <ele>644</ele>
        <time>2011-07-03T08:23:47Z</time>
      </trkpt>
      <trkpt lat="45.76895" lon="5.99256">
        <ele>645</ele>
        <time>2011-07-03T08:23:48Z</time>
      </trkpt>
      <trkpt lat="45.76897" lon="5.99259">
        <ele>646</ele>
        <time>2011-07-03T08:23:50Z</time>
      </trkpt>
      <trkpt lat="45.76899" lon="5.9926">
        <ele>647</ele>
        <time>2011-07-03T08:23:52Z</time>
      </trkpt>
      <trkpt lat="45.769" lon="5.99261">
        <ele>648</ele>
        <time>2011-07-03T08:23:53Z</time>
      </trkpt>
      <trkpt lat="45.76902" lon="5.99264">
        <ele>649</ele>
        <time>2011-07-03T08:23:55Z</time>
      </trkpt>
      <trkpt lat="45.76904" lon="5.99265">
        <ele>649</ele>
        <time>2011-07-03T08:23:56Z</time>
      </trkpt>
      <trkpt lat="45.76905" lon="5.99266">
        <ele>649</ele>
        <time>2011-07-03T08:23:57Z</time>
      </trkpt>
      <trkpt lat="45.76907" lon="5.99267">
        <ele>650</ele>
        <time>2011-07-03T08:23:58Z</time>
      </trkpt>
      <trkpt lat="45.76908" lon="5.99268">
        <ele>650</ele>
        <time>2011-07-03T08:23:59Z</time>
      </trkpt>
      <trkpt lat="45.76909" lon="5.99268">
        <ele>651</ele>
        <time>2011-07-03T08:24:00Z</time>
      </trkpt>
      <trkpt lat="45.76912" lon="5.99271">
        <ele>652</ele>
        <time>2011-07-03T08:24:03Z</time>
      </trkpt>
      <trkpt lat="45.76913" lon="5.99273">
        <ele>652</ele>
        <time>2011-07-03T08:24:04Z</time>
      </trkpt>
      <trkpt lat="45.76914" lon="5.99274">
        <ele>652</ele>
        <time>2011-07-03T08:24:05Z</time>
      </trkpt>
      <trkpt lat="45.76915" lon="5.99275">
        <ele>652</ele>
        <time>2011-07-03T08:24:14Z</time>
      </trkpt>
      <trkpt lat="45.76916" lon="5.99276">
        <ele>654</ele>
        <time>2011-07-03T08:24:22Z</time>
      </trkpt>
      <trkpt lat="45.76918" lon="5.99279">
        <ele>654</ele>
        <time>2011-07-03T08:24:29Z</time>
      </trkpt>
      <trkpt lat="45.76919" lon="5.99278">
        <ele>654</ele>
        <time>2011-07-03T08:24:32Z</time>
      </trkpt>
      <trkpt lat="45.7692" lon="5.99279">
        <ele>653</ele>
        <time>2011-07-03T08:24:39Z</time>
      </trkpt>
      <trkpt lat="45.76921" lon="5.9928">
        <ele>653</ele>
        <time>2011-07-03T08:24:41Z</time>
      </trkpt>
      <trkpt lat="45.76923" lon="5.99282">
        <ele>653</ele>
        <time>2011-07-03T08:24:43Z</time>
      </trkpt>
      <trkpt lat="45.76925" lon="5.99284">
        <ele>654</ele>
        <time>2011-07-03T08:24:45Z</time>
      </trkpt>
      <trkpt lat="45.76926" lon="5.99285">
        <ele>654</ele>
        <time>2011-07-03T08:24:46Z</time>
      </trkpt>
      <trkpt lat="45.76928" lon="5.99287">
        <ele>655</ele>
        <time>2011-07-03T08:24:48Z</time>
      </trkpt>
      <trkpt lat="45.7693" lon="5.9929">
        <ele>656</ele>
        <time>2011-07-03T08:24:50Z</time>
      </trkpt>
      <trkpt lat="45.76931" lon="5.99291">
        <ele>657</ele>
        <time>2011-07-03T08:24:52Z</time>
      </trkpt>
      <trkpt lat="45.76933" lon="5.99293">
        <ele>657</ele>
        <time>2011-07-03T08:24:54Z</time>
      </trkpt>
      <trkpt lat="45.76934" lon="5.99296">
        <ele>657</ele>
        <time>2011-07-03T08:24:56Z</time>
      </trkpt>
      <trkpt lat="45.76936" lon="5.99298">
        <ele>657</ele>
        <time>2011-07-03T08:24:58Z</time>
      </trkpt>
      <trkpt lat="45.76938" lon="5.99299">
        <ele>657</ele>
        <time>2011-07-03T08:24:59Z</time>
      </trkpt>
      <trkpt lat="45.76939" lon="5.993">
        <ele>657</ele>
        <time>2011-07-03T08:25:00Z</time>
      </trkpt>
      <trkpt lat="45.76941" lon="5.99301">
        <ele>657</ele>
        <time>2011-07-03T08:25:01Z</time>
      </trkpt>
      <trkpt lat="45.76943" lon="5.99303">
        <ele>657</ele>
        <time>2011-07-03T08:25:03Z</time>
      </trkpt>
      <trkpt lat="45.76945" lon="5.99305">
        <ele>657</ele>
        <time>2011-07-03T08:25:04Z</time>
      </trkpt>
      <trkpt lat="45.76947" lon="5.99307">
        <ele>657</ele>
        <time>2011-07-03T08:25:05Z</time>
      </trkpt>
      <trkpt lat="45.76948" lon="5.99308">
        <ele>657</ele>
        <time>2011-07-03T08:25:06Z</time>
      </trkpt>
      <trkpt lat="45.7695" lon="5.99309">
        <ele>657</ele>
        <time>2011-07-03T08:25:07Z</time>
      </trkpt>
      <trkpt lat="45.76951" lon="5.9931">
        <ele>657</ele>
        <time>2011-07-03T08:25:08Z</time>
      </trkpt>
      <trkpt lat="45.76953" lon="5.99312">
        <ele>657</ele>
        <time>2011-07-03T08:25:09Z</time>
      </trkpt>
      <trkpt lat="45.76955" lon="5.99313">
        <ele>657</ele>
        <time>2011-07-03T08:25:10Z</time>
      </trkpt>
      <trkpt lat="45.76957" lon="5.99315">
        <ele>657</ele>
        <time>2011-07-03T08:25:11Z</time>
      </trkpt>
      <trkpt lat="45.76958" lon="5.99316">
        <ele>657</ele>
        <time>2011-07-03T08:25:12Z</time>
      </trkpt>
      <trkpt lat="45.7696" lon="5.99318">
        <ele>657</ele>
        <time>2011-07-03T08:25:14Z</time>
      </trkpt>
      <trkpt lat="45.76961" lon="5.99319">
        <ele>657</ele>
        <time>2011-07-03T08:25:15Z</time>
      </trkpt>
      <trkpt lat="45.76963" lon="5.99322">
        <ele>657</ele>
        <time>2011-07-03T08:25:16Z</time>
      </trkpt>
      <trkpt lat="45.76965" lon="5.99323">
        <ele>657</ele>
        <time>2011-07-03T08:25:17Z</time>
      </trkpt>
      <trkpt lat="45.76967" lon="5.99325">
        <ele>657</ele>
        <time>2011-07-03T08:25:18Z</time>
      </trkpt>
      <trkpt lat="45.7697" lon="5.99327">
        <ele>657</ele>
        <time>2011-07-03T08:25:20Z</time>
      </trkpt>
      <trkpt lat="45.76971" lon="5.99327">
        <ele>657</ele>
        <time>2011-07-03T08:25:21Z</time>
      </trkpt>
      <trkpt lat="45.76972" lon="5.99328">
        <ele>657</ele>
        <time>2011-07-03T08:25:22Z</time>
      </trkpt>
      <trkpt lat="45.76974" lon="5.99329">
        <ele>657</ele>
        <time>2011-07-03T08:25:23Z</time>
      </trkpt>
      <trkpt lat="45.76975" lon="5.99329">
        <ele>657</ele>
        <time>2011-07-03T08:25:24Z</time>
      </trkpt>
      <trkpt lat="45.76976" lon="5.9933">
        <ele>657</ele>
        <time>2011-07-03T08:25:25Z</time>
      </trkpt>
      <trkpt lat="45.76979" lon="5.99332">
        <ele>657</ele>
        <time>2011-07-03T08:25:27Z</time>
      </trkpt>
      <trkpt lat="45.76981" lon="5.99334">
        <ele>657</ele>
        <time>2011-07-03T08:25:29Z</time>
      </trkpt>
      <trkpt lat="45.76982" lon="5.99335">
        <ele>657</ele>
        <time>2011-07-03T08:25:30Z</time>
      </trkpt>
      <trkpt lat="45.76983" lon="5.99336">
        <ele>658</ele>
        <time>2011-07-03T08:25:31Z</time>
      </trkpt>
      <trkpt lat="45.76985" lon="5.99338">
        <ele>659</ele>
        <time>2011-07-03T08:25:32Z</time>
      </trkpt>
      <trkpt lat="45.76986" lon="5.99339">
        <ele>659</ele>
        <time>2011-07-03T08:25:33Z</time>
      </trkpt>
      <trkpt lat="45.76987" lon="5.99342">
        <ele>660</ele>
        <time>2011-07-03T08:25:35Z</time>
      </trkpt>
      <trkpt lat="45.76989" lon="5.99345">
        <ele>660</ele>
        <time>2011-07-03T08:25:37Z</time>
      </trkpt>
      <trkpt lat="45.7699" lon="5.99347">
        <ele>661</ele>
        <time>2011-07-03T08:25:39Z</time>
      </trkpt>
      <trkpt lat="45.76992" lon="5.9935">
        <ele>661</ele>
        <time>2011-07-03T08:25:41Z</time>
      </trkpt>
      <trkpt lat="45.76993" lon="5.99352">
        <ele>662</ele>
        <time>2011-07-03T08:25:43Z</time>
      </trkpt>
      <trkpt lat="45.76994" lon="5.99354">
        <ele>662</ele>
        <time>2011-07-03T08:25:44Z</time>
      </trkpt>
      <trkpt lat="45.76995" lon="5.99355">
        <ele>662</ele>
        <time>2011-07-03T08:25:45Z</time>
      </trkpt>
      <trkpt lat="45.76996" lon="5.99356">
        <ele>662</ele>
        <time>2011-07-03T08:25:46Z</time>
      </trkpt>
      <trkpt lat="45.76998" lon="5.99358">
        <ele>662</ele>
        <time>2011-07-03T08:25:47Z</time>
      </trkpt>
      <trkpt lat="45.76999" lon="5.99361">
        <ele>662</ele>
        <time>2011-07-03T08:25:49Z</time>
      </trkpt>
      <trkpt lat="45.77" lon="5.99362">
        <ele>663</ele>
        <time>2011-07-03T08:25:50Z</time>
      </trkpt>
      <trkpt lat="45.77002" lon="5.99365">
        <ele>663</ele>
        <time>2011-07-03T08:25:51Z</time>
      </trkpt>
      <trkpt lat="45.77004" lon="5.99367">
        <ele>663</ele>
        <time>2011-07-03T08:25:53Z</time>
      </trkpt>
      <trkpt lat="45.77006" lon="5.99369">
        <ele>663</ele>
        <time>2011-07-03T08:25:55Z</time>
      </trkpt>
      <trkpt lat="45.77007" lon="5.99371">
        <ele>663</ele>
        <time>2011-07-03T08:25:56Z</time>
      </trkpt>
      <trkpt lat="45.77008" lon="5.99373">
        <ele>663</ele>
        <time>2011-07-03T08:25:57Z</time>
      </trkpt>
      <trkpt lat="45.77009" lon="5.99374">
        <ele>663</ele>
        <time>2011-07-03T08:25:58Z</time>
      </trkpt>
      <trkpt lat="45.7701" lon="5.99375">
        <ele>664</ele>
        <time>2011-07-03T08:25:59Z</time>
      </trkpt>
      <trkpt lat="45.77011" lon="5.99378">
        <ele>664</ele>
        <time>2011-07-03T08:26:01Z</time>
      </trkpt>
      <trkpt lat="45.77013" lon="5.9938">
        <ele>665</ele>
        <time>2011-07-03T08:26:03Z</time>
      </trkpt>
      <trkpt lat="45.77014" lon="5.99382">
        <ele>665</ele>
        <time>2011-07-03T08:26:04Z</time>
      </trkpt>
      <trkpt lat="45.77016" lon="5.99385">
        <ele>666</ele>
        <time>2011-07-03T08:26:06Z</time>
      </trkpt>
      <trkpt lat="45.77017" lon="5.99387">
        <ele>666</ele>
        <time>2011-07-03T08:26:08Z</time>
      </trkpt>
      <trkpt lat="45.77018" lon="5.99388">
        <ele>666</ele>
        <time>2011-07-03T08:26:09Z</time>
      </trkpt>
      <trkpt lat="45.7702" lon="5.99391">
        <ele>666</ele>
        <time>2011-07-03T08:26:11Z</time>
      </trkpt>
      <trkpt lat="45.77021" lon="5.99393">
        <ele>667</ele>
        <time>2011-07-03T08:26:13Z</time>
      </trkpt>
      <trkpt lat="45.77023" lon="5.99395">
        <ele>667</ele>
        <time>2011-07-03T08:26:15Z</time>
      </trkpt>
      <trkpt lat="45.77024" lon="5.99397">
        <ele>668</ele>
        <time>2011-07-03T08:26:17Z</time>
      </trkpt>
      <trkpt lat="45.77025" lon="5.99399">
        <ele>668</ele>
        <time>2011-07-03T08:26:19Z</time>
      </trkpt>
      <trkpt lat="45.77027" lon="5.99401">
        <ele>669</ele>
        <time>2011-07-03T08:26:21Z</time>
      </trkpt>
      <trkpt lat="45.77028" lon="5.99403">
        <ele>669</ele>
        <time>2011-07-03T08:26:23Z</time>
      </trkpt>
      <trkpt lat="45.77028" lon="5.99405">
        <ele>669</ele>
        <time>2011-07-03T08:26:25Z</time>
      </trkpt>
      <trkpt lat="45.7703" lon="5.99407">
        <ele>670</ele>
        <time>2011-07-03T08:26:27Z</time>
      </trkpt>
      <trkpt lat="45.77031" lon="5.99408">
        <ele>670</ele>
        <time>2011-07-03T08:26:29Z</time>
      </trkpt>
      <trkpt lat="45.77033" lon="5.99411">
        <ele>670</ele>
        <time>2011-07-03T08:26:31Z</time>
      </trkpt>
      <trkpt lat="45.77034" lon="5.99412">
        <ele>670</ele>
        <time>2011-07-03T08:26:32Z</time>
      </trkpt>
      <trkpt lat="45.77036" lon="5.99413">
        <ele>670</ele>
        <time>2011-07-03T08:26:33Z</time>
      </trkpt>
      <trkpt lat="45.77037" lon="5.99414">
        <ele>671</ele>
        <time>2011-07-03T08:26:34Z</time>
      </trkpt>
      <trkpt lat="45.77038" lon="5.99415">
        <ele>671</ele>
        <time>2011-07-03T08:26:35Z</time>
      </trkpt>
      <trkpt lat="45.7704" lon="5.99417">
        <ele>672</ele>
        <time>2011-07-03T08:26:36Z</time>
      </trkpt>
      <trkpt lat="45.77042" lon="5.99419">
        <ele>672</ele>
        <time>2011-07-03T08:26:38Z</time>
      </trkpt>
      <trkpt lat="45.77043" lon="5.99421">
        <ele>673</ele>
        <time>2011-07-03T08:26:39Z</time>
      </trkpt>
      <trkpt lat="45.77045" lon="5.99422">
        <ele>673</ele>
        <time>2011-07-03T08:26:40Z</time>
      </trkpt>
      <trkpt lat="45.77046" lon="5.99423">
        <ele>673</ele>
        <time>2011-07-03T08:26:41Z</time>
      </trkpt>
      <trkpt lat="45.77048" lon="5.99425">
        <ele>674</ele>
        <time>2011-07-03T08:26:43Z</time>
      </trkpt>
      <trkpt lat="45.7705" lon="5.99427">
        <ele>675</ele>
        <time>2011-07-03T08:26:45Z</time>
      </trkpt>
      <trkpt lat="45.77051" lon="5.99428">
        <ele>675</ele>
        <time>2011-07-03T08:26:46Z</time>
      </trkpt>
      <trkpt lat="45.77052" lon="5.9943">
        <ele>675</ele>
        <time>2011-07-03T08:26:47Z</time>
      </trkpt>
      <trkpt lat="45.77053" lon="5.99432">
        <ele>675</ele>
        <time>2011-07-03T08:26:49Z</time>
      </trkpt>
      <trkpt lat="45.77054" lon="5.99434">
        <ele>675</ele>
        <time>2011-07-03T08:26:50Z</time>
      </trkpt>
      <trkpt lat="45.77057" lon="5.99436">
        <ele>675</ele>
        <time>2011-07-03T08:26:51Z</time>
      </trkpt>
      <trkpt lat="45.77058" lon="5.99437">
        <ele>675</ele>
        <time>2011-07-03T08:26:52Z</time>
      </trkpt>
      <trkpt lat="45.77059" lon="5.99438">
        <ele>675</ele>
        <time>2011-07-03T08:26:53Z</time>
      </trkpt>
      <trkpt lat="45.7706" lon="5.99439">
        <ele>675</ele>
        <time>2011-07-03T08:26:54Z</time>
      </trkpt>
      <trkpt lat="45.77062" lon="5.9944">
        <ele>675</ele>
        <time>2011-07-03T08:26:55Z</time>
      </trkpt>
      <trkpt lat="45.77063" lon="5.99441">
        <ele>675</ele>
        <time>2011-07-03T08:26:56Z</time>
      </trkpt>
      <trkpt lat="45.77064" lon="5.99442">
        <ele>675</ele>
        <time>2011-07-03T08:26:57Z</time>
      </trkpt>
      <trkpt lat="45.77067" lon="5.99446">
        <ele>675</ele>
        <time>2011-07-03T08:26:59Z</time>
      </trkpt>
      <trkpt lat="45.77068" lon="5.99449">
        <ele>675</ele>
        <time>2011-07-03T08:27:00Z</time>
      </trkpt>
      <trkpt lat="45.77071" lon="5.99451">
        <ele>675</ele>
        <time>2011-07-03T08:27:02Z</time>
      </trkpt>
      <trkpt lat="45.77072" lon="5.99452">
        <ele>675</ele>
        <time>2011-07-03T08:27:03Z</time>
      </trkpt>
      <trkpt lat="45.77074" lon="5.99455">
        <ele>675</ele>
        <time>2011-07-03T08:27:05Z</time>
      </trkpt>
      <trkpt lat="45.77076" lon="5.99459">
        <ele>675</ele>
        <time>2011-07-03T08:27:07Z</time>
      </trkpt>
      <trkpt lat="45.77078" lon="5.99462">
        <ele>675</ele>
        <time>2011-07-03T08:27:08Z</time>
      </trkpt>
      <trkpt lat="45.7708" lon="5.99464">
        <ele>675</ele>
        <time>2011-07-03T08:27:09Z</time>
      </trkpt>
      <trkpt lat="45.77082" lon="5.99466">
        <ele>675</ele>
        <time>2011-07-03T08:27:10Z</time>
      </trkpt>
      <trkpt lat="45.77083" lon="5.99468">
        <ele>675</ele>
        <time>2011-07-03T08:27:11Z</time>
      </trkpt>
      <trkpt lat="45.77084" lon="5.9947">
        <ele>675</ele>
        <time>2011-07-03T08:27:12Z</time>
      </trkpt>
      <trkpt lat="45.77085" lon="5.99472">
        <ele>675</ele>
        <time>2011-07-03T08:27:13Z</time>
      </trkpt>
      <trkpt lat="45.77086" lon="5.99474">
        <ele>675</ele>
        <time>2011-07-03T08:27:15Z</time>
      </trkpt>
      <trkpt lat="45.77087" lon="5.99476">
        <ele>675</ele>
        <time>2011-07-03T08:27:16Z</time>
      </trkpt>
      <trkpt lat="45.77089" lon="5.99478">
        <ele>675</ele>
        <time>2011-07-03T08:27:17Z</time>
      </trkpt>
      <trkpt lat="45.7709" lon="5.9948">
        <ele>674</ele>
        <time>2011-07-03T08:27:19Z</time>
      </trkpt>
      <trkpt lat="45.77092" lon="5.99482">
        <ele>674</ele>
        <time>2011-07-03T08:27:21Z</time>
      </trkpt>
      <trkpt lat="45.77094" lon="5.99484">
        <ele>674</ele>
        <time>2011-07-03T08:27:23Z</time>
      </trkpt>
      <trkpt lat="45.77096" lon="5.99487">
        <ele>674</ele>
        <time>2011-07-03T08:27:25Z</time>
      </trkpt>
      <trkpt lat="45.77098" lon="5.99489">
        <ele>674</ele>
        <time>2011-07-03T08:27:27Z</time>
      </trkpt>
      <trkpt lat="45.77099" lon="5.99492">
        <ele>674</ele>
        <time>2011-07-03T08:27:29Z</time>
      </trkpt>
      <trkpt lat="45.771" lon="5.99494">
        <ele>674</ele>
        <time>2011-07-03T08:27:31Z</time>
      </trkpt>
      <trkpt lat="45.771" lon="5.99496">
        <ele>674</ele>
        <time>2011-07-03T08:27:33Z</time>
      </trkpt>
      <trkpt lat="45.77101" lon="5.99499">
        <ele>674</ele>
        <time>2011-07-03T08:27:34Z</time>
      </trkpt>
      <trkpt lat="45.77102" lon="5.99501">
        <ele>674</ele>
        <time>2011-07-03T08:27:35Z</time>
      </trkpt>
      <trkpt lat="45.77102" lon="5.99504">
        <ele>673</ele>
        <time>2011-07-03T08:27:36Z</time>
      </trkpt>
      <trkpt lat="45.77103" lon="5.99505">
        <ele>673</ele>
        <time>2011-07-03T08:27:37Z</time>
      </trkpt>
      <trkpt lat="45.77102" lon="5.99507">
        <ele>672</ele>
        <time>2011-07-03T08:27:38Z</time>
      </trkpt>
      <trkpt lat="45.77101" lon="5.99509">
        <ele>672</ele>
        <time>2011-07-03T08:27:39Z</time>
      </trkpt>
      <trkpt lat="45.771" lon="5.9951">
        <ele>672</ele>
        <time>2011-07-03T08:27:40Z</time>
      </trkpt>
      <trkpt lat="45.77099" lon="5.99513">
        <ele>672</ele>
        <time>2011-07-03T08:27:42Z</time>
      </trkpt>
      <trkpt lat="45.77097" lon="5.99513">
        <ele>672</ele>
        <time>2011-07-03T08:27:43Z</time>
      </trkpt>
      <trkpt lat="45.77095" lon="5.99515">
        <ele>671</ele>
        <time>2011-07-03T08:27:45Z</time>
      </trkpt>
      <trkpt lat="45.77093" lon="5.99516">
        <ele>670</ele>
        <time>2011-07-03T08:27:47Z</time>
      </trkpt>
      <trkpt lat="45.77092" lon="5.99515">
        <ele>670</ele>
        <time>2011-07-03T08:27:48Z</time>
      </trkpt>
      <trkpt lat="45.7709" lon="5.99514">
        <ele>670</ele>
        <time>2011-07-03T08:27:49Z</time>
      </trkpt>
      <trkpt lat="45.77088" lon="5.99513">
        <ele>670</ele>
        <time>2011-07-03T08:27:51Z</time>
      </trkpt>
      <trkpt lat="45.77086" lon="5.99513">
        <ele>670</ele>
        <time>2011-07-03T08:27:53Z</time>
      </trkpt>
      <trkpt lat="45.77084" lon="5.99512">
        <ele>670</ele>
        <time>2011-07-03T08:27:54Z</time>
      </trkpt>
      <trkpt lat="45.77083" lon="5.99512">
        <ele>670</ele>
        <time>2011-07-03T08:27:55Z</time>
      </trkpt>
      <trkpt lat="45.77081" lon="5.99511">
        <ele>670</ele>
        <time>2011-07-03T08:27:56Z</time>
      </trkpt>
      <trkpt lat="45.7708" lon="5.9951">
        <ele>670</ele>
        <time>2011-07-03T08:27:57Z</time>
      </trkpt>
      <trkpt lat="45.77078" lon="5.99509">
        <ele>670</ele>
        <time>2011-07-03T08:27:58Z</time>
      </trkpt>
      <trkpt lat="45.77076" lon="5.99509">
        <ele>670</ele>
        <time>2011-07-03T08:27:59Z</time>
      </trkpt>
      <trkpt lat="45.77074" lon="5.99508">
        <ele>670</ele>
        <time>2011-07-03T08:28:00Z</time>
      </trkpt>
      <trkpt lat="45.77073" lon="5.99507">
        <ele>670</ele>
        <time>2011-07-03T08:28:01Z</time>
      </trkpt>
      <trkpt lat="45.77071" lon="5.99506">
        <ele>670</ele>
        <time>2011-07-03T08:28:02Z</time>
      </trkpt>
      <trkpt lat="45.7707" lon="5.99505">
        <ele>670</ele>
        <time>2011-07-03T08:28:03Z</time>
      </trkpt>
      <trkpt lat="45.77068" lon="5.99504">
        <ele>670</ele>
        <time>2011-07-03T08:28:04Z</time>
      </trkpt>
      <trkpt lat="45.77067" lon="5.99503">
        <ele>671</ele>
        <time>2011-07-03T08:28:05Z</time>
      </trkpt>
      <trkpt lat="45.77066" lon="5.99503">
        <ele>671</ele>
        <time>2011-07-03T08:28:06Z</time>
      </trkpt>
      <trkpt lat="45.77064" lon="5.99503">
        <ele>672</ele>
        <time>2011-07-03T08:28:07Z</time>
      </trkpt>
      <trkpt lat="45.77063" lon="5.99502">
        <ele>672</ele>
        <time>2011-07-03T08:28:08Z</time>
      </trkpt>
      <trkpt lat="45.77061" lon="5.99502">
        <ele>672</ele>
        <time>2011-07-03T08:28:09Z</time>
      </trkpt>
      <trkpt lat="45.7706" lon="5.99501">
        <ele>673</ele>
        <time>2011-07-03T08:28:10Z</time>
      </trkpt>
      <trkpt lat="45.77058" lon="5.99501">
        <ele>673</ele>
        <time>2011-07-03T08:28:11Z</time>
      </trkpt>
      <trkpt lat="45.77056" lon="5.99501">
        <ele>674</ele>
        <time>2011-07-03T08:28:12Z</time>
      </trkpt>
      <trkpt lat="45.77055" lon="5.99501">
        <ele>674</ele>
        <time>2011-07-03T08:28:13Z</time>
      </trkpt>
      <trkpt lat="45.77053" lon="5.995">
        <ele>675</ele>
        <time>2011-07-03T08:28:14Z</time>
      </trkpt>
      <trkpt lat="45.7705" lon="5.99501">
        <ele>675</ele>
        <time>2011-07-03T08:28:15Z</time>
      </trkpt>
      <trkpt lat="45.77048" lon="5.99501">
        <ele>676</ele>
        <time>2011-07-03T08:28:16Z</time>
      </trkpt>
      <trkpt lat="45.77047" lon="5.99501">
        <ele>676</ele>
        <time>2011-07-03T08:28:17Z</time>
      </trkpt>
      <trkpt lat="45.77045" lon="5.995">
        <ele>677</ele>
        <time>2011-07-03T08:28:18Z</time>
      </trkpt>
      <trkpt lat="45.77042" lon="5.995">
        <ele>677</ele>
        <time>2011-07-03T08:28:19Z</time>
      </trkpt>
      <trkpt lat="45.7704" lon="5.995">
        <ele>677</ele>
        <time>2011-07-03T08:28:20Z</time>
      </trkpt>
      <trkpt lat="45.77038" lon="5.995">
        <ele>677</ele>
        <time>2011-07-03T08:28:21Z</time>
      </trkpt>
      <trkpt lat="45.77036" lon="5.99501">
        <ele>677</ele>
        <time>2011-07-03T08:28:22Z</time>
      </trkpt>
      <trkpt lat="45.77034" lon="5.99501">
        <ele>677</ele>
        <time>2011-07-03T08:28:23Z</time>
      </trkpt>
      <trkpt lat="45.77032" lon="5.99501">
        <ele>678</ele>
        <time>2011-07-03T08:28:24Z</time>
      </trkpt>
      <trkpt lat="45.7703" lon="5.99502">
        <ele>678</ele>
        <time>2011-07-03T08:28:25Z</time>
      </trkpt>
      <trkpt lat="45.77028" lon="5.99502">
        <ele>679</ele>
        <time>2011-07-03T08:28:26Z</time>
      </trkpt>
      <trkpt lat="45.77025" lon="5.99503">
        <ele>679</ele>
        <time>2011-07-03T08:28:27Z</time>
      </trkpt>
      <trkpt lat="45.77023" lon="5.99504">
        <ele>679</ele>
        <time>2011-07-03T08:28:28Z</time>
      </trkpt>
      <trkpt lat="45.77021" lon="5.99505">
        <ele>680</ele>
        <time>2011-07-03T08:28:29Z</time>
      </trkpt>
      <trkpt lat="45.77019" lon="5.99506">
        <ele>680</ele>
        <time>2011-07-03T08:28:30Z</time>
      </trkpt>
      <trkpt lat="45.77016" lon="5.99506">
        <ele>680</ele>
        <time>2011-07-03T08:28:31Z</time>
      </trkpt>
      <trkpt lat="45.77015" lon="5.99507">
        <ele>680</ele>
        <time>2011-07-03T08:28:32Z</time>
      </trkpt>
      <trkpt lat="45.77014" lon="5.99507">
        <ele>680</ele>
        <time>2011-07-03T08:28:33Z</time>
      </trkpt>
      <trkpt lat="45.77013" lon="5.99507">
        <ele>680</ele>
        <time>2011-07-03T08:28:34Z</time>
      </trkpt>
      <trkpt lat="45.77011" lon="5.99508">
        <ele>680</ele>
        <time>2011-07-03T08:28:35Z</time>
      </trkpt>
      <trkpt lat="45.77009" lon="5.99508">
        <ele>680</ele>
        <time>2011-07-03T08:28:36Z</time>
      </trkpt>
      <trkpt lat="45.77007" lon="5.99509">
        <ele>680</ele>
        <time>2011-07-03T08:28:37Z</time>
      </trkpt>
      <trkpt lat="45.77005" lon="5.99509">
        <ele>680</ele>
        <time>2011-07-03T08:28:38Z</time>
      </trkpt>
      <trkpt lat="45.77004" lon="5.9951">
        <ele>680</ele>
        <time>2011-07-03T08:28:39Z</time>
      </trkpt>
      <trkpt lat="45.77002" lon="5.99511">
        <ele>680</ele>
        <time>2011-07-03T08:28:40Z</time>
      </trkpt>
      <trkpt lat="45.77001" lon="5.99512">
        <ele>680</ele>
        <time>2011-07-03T08:28:41Z</time>
      </trkpt>
      <trkpt lat="45.76999" lon="5.99513">
        <ele>680</ele>
        <time>2011-07-03T08:28:42Z</time>
      </trkpt>
      <trkpt lat="45.76997" lon="5.99513">
        <ele>680</ele>
        <time>2011-07-03T08:28:43Z</time>
      </trkpt>
      <trkpt lat="45.76996" lon="5.99513">
        <ele>680</ele>
        <time>2011-07-03T08:28:44Z</time>
      </trkpt>
      <trkpt lat="45.76994" lon="5.99513">
        <ele>680</ele>
        <time>2011-07-03T08:28:45Z</time>
      </trkpt>
      <trkpt lat="45.76992" lon="5.99514">
        <ele>680</ele>
        <time>2011-07-03T08:28:46Z</time>
      </trkpt>
      <trkpt lat="45.7699" lon="5.99514">
        <ele>680</ele>
        <time>2011-07-03T08:28:47Z</time>
      </trkpt>
      <trkpt lat="45.76989" lon="5.99515">
        <ele>680</ele>
        <time>2011-07-03T08:28:48Z</time>
      </trkpt>
      <trkpt lat="45.76987" lon="5.99516">
        <ele>680</ele>
        <time>2011-07-03T08:28:49Z</time>
      </trkpt>
      <trkpt lat="45.76985" lon="5.99516">
        <ele>680</ele>
        <time>2011-07-03T08:28:50Z</time>
      </trkpt>
      <trkpt lat="45.76984" lon="5.99517">
        <ele>680</ele>
        <time>2011-07-03T08:28:51Z</time>
      </trkpt>
      <trkpt lat="45.76982" lon="5.99517">
        <ele>680</ele>
        <time>2011-07-03T08:28:52Z</time>
      </trkpt>
      <trkpt lat="45.76981" lon="5.99517">
        <ele>680</ele>
        <time>2011-07-03T08:28:53Z</time>
      </trkpt>
      <trkpt lat="45.76979" lon="5.99518">
        <ele>680</ele>
        <time>2011-07-03T08:28:54Z</time>
      </trkpt>
      <trkpt lat="45.76977" lon="5.99518">
        <ele>680</ele>
        <time>2011-07-03T08:28:55Z</time>
      </trkpt>
      <trkpt lat="45.76976" lon="5.99518">
        <ele>680</ele>
        <time>2011-07-03T08:28:56Z</time>
      </trkpt>
      <trkpt lat="45.76974" lon="5.99518">
        <ele>680</ele>
        <time>2011-07-03T08:28:57Z</time>
      </trkpt>
      <trkpt lat="45.76973" lon="5.99518">
        <ele>680</ele>
        <time>2011-07-03T08:28:58Z</time>
      </trkpt>
      <trkpt lat="45.76971" lon="5.99519">
        <ele>680</ele>
        <time>2011-07-03T08:28:59Z</time>
      </trkpt>
      <trkpt lat="45.7697" lon="5.99519">
        <ele>680</ele>
        <time>2011-07-03T08:29:00Z</time>
      </trkpt>
      <trkpt lat="45.76968" lon="5.99519">
        <ele>680</ele>
        <time>2011-07-03T08:29:01Z</time>
      </trkpt>
      <trkpt lat="45.76966" lon="5.9952">
        <ele>680</ele>
        <time>2011-07-03T08:29:02Z</time>
      </trkpt>
      <trkpt lat="45.76964" lon="5.9952">
        <ele>680</ele>
        <time>2011-07-03T08:29:03Z</time>
      </trkpt>
      <trkpt lat="45.76963" lon="5.9952">
        <ele>680</ele>
        <time>2011-07-03T08:29:04Z</time>
      </trkpt>
      <trkpt lat="45.76961" lon="5.9952">
        <ele>680</ele>
        <time>2011-07-03T08:29:05Z</time>
      </trkpt>
      <trkpt lat="45.76959" lon="5.9952">
        <ele>680</ele>
        <time>2011-07-03T08:29:06Z</time>
      </trkpt>
      <trkpt lat="45.76957" lon="5.9952">
        <ele>680</ele>
        <time>2011-07-03T08:29:07Z</time>
      </trkpt>
      <trkpt lat="45.76955" lon="5.99521">
        <ele>681</ele>
        <time>2011-07-03T08:29:08Z</time>
      </trkpt>
      <trkpt lat="45.76954" lon="5.99521">
        <ele>681</ele>
        <time>2011-07-03T08:29:09Z</time>
      </trkpt>
      <trkpt lat="45.76952" lon="5.99521">
        <ele>681</ele>
        <time>2011-07-03T08:29:10Z</time>
      </trkpt>
      <trkpt lat="45.76951" lon="5.99521">
        <ele>681</ele>
        <time>2011-07-03T08:29:11Z</time>
      </trkpt>
      <trkpt lat="45.76949" lon="5.99521">
        <ele>681</ele>
        <time>2011-07-03T08:29:12Z</time>
      </trkpt>
      <trkpt lat="45.76948" lon="5.99522">
        <ele>681</ele>
        <time>2011-07-03T08:29:13Z</time>
      </trkpt>
      <trkpt lat="45.76946" lon="5.99522">
        <ele>681</ele>
        <time>2011-07-03T08:29:14Z</time>
      </trkpt>
      <trkpt lat="45.76945" lon="5.99522">
        <ele>681</ele>
        <time>2011-07-03T08:29:15Z</time>
      </trkpt>
      <trkpt lat="45.76944" lon="5.99521">
        <ele>681</ele>
        <time>2011-07-03T08:29:16Z</time>
      </trkpt>
      <trkpt lat="45.76942" lon="5.99521">
        <ele>681</ele>
        <time>2011-07-03T08:29:17Z</time>
      </trkpt>
      <trkpt lat="45.7694" lon="5.99521">
        <ele>681</ele>
        <time>2011-07-03T08:29:18Z</time>
      </trkpt>
      <trkpt lat="45.76939" lon="5.99521">
        <ele>681</ele>
        <time>2011-07-03T08:29:19Z</time>
      </trkpt>
      <trkpt lat="45.76937" lon="5.99521">
        <ele>681</ele>
        <time>2011-07-03T08:29:20Z</time>
      </trkpt>
      <trkpt lat="45.76936" lon="5.99521">
        <ele>681</ele>
        <time>2011-07-03T08:29:21Z</time>
      </trkpt>
      <trkpt lat="45.76935" lon="5.99521">
        <ele>681</ele>
        <time>2011-07-03T08:29:22Z</time>
      </trkpt>
      <trkpt lat="45.76933" lon="5.99521">
        <ele>682</ele>
        <time>2011-07-03T08:29:23Z</time>
      </trkpt>
      <trkpt lat="45.76932" lon="5.99521">
        <ele>682</ele>
        <time>2011-07-03T08:29:24Z</time>
      </trkpt>
      <trkpt lat="45.76931" lon="5.99521">
        <ele>682</ele>
        <time>2011-07-03T08:29:25Z</time>
      </trkpt>
      <trkpt lat="45.76929" lon="5.99521">
        <ele>682</ele>
        <time>2011-07-03T08:29:26Z</time>
      </trkpt>
      <trkpt lat="45.76928" lon="5.99521">
        <ele>682</ele>
        <time>2011-07-03T08:29:27Z</time>
      </trkpt>
      <trkpt lat="45.76926" lon="5.9952">
        <ele>682</ele>
        <time>2011-07-03T08:29:28Z</time>
      </trkpt>
      <trkpt lat="45.76925" lon="5.99519">
        <ele>682</ele>
        <time>2011-07-03T08:29:29Z</time>
      </trkpt>
      <trkpt lat="45.76923" lon="5.99519">
        <ele>683</ele>
        <time>2011-07-03T08:29:30Z</time>
      </trkpt>
      <trkpt lat="45.76922" lon="5.99519">
        <ele>683</ele>
        <time>2011-07-03T08:29:31Z</time>
      </trkpt>
      <trkpt lat="45.7692" lon="5.9952">
        <ele>683</ele>
        <time>2011-07-03T08:29:32Z</time>
      </trkpt>
      <trkpt lat="45.76919" lon="5.9952">
        <ele>684</ele>
        <time>2011-07-03T08:29:33Z</time>
      </trkpt>
      <trkpt lat="45.76918" lon="5.9952">
        <ele>684</ele>
        <time>2011-07-03T08:29:34Z</time>
      </trkpt>
      <trkpt lat="45.76916" lon="5.9952">
        <ele>684</ele>
        <time>2011-07-03T08:29:35Z</time>
      </trkpt>
      <trkpt lat="45.76915" lon="5.99519">
        <ele>684</ele>
        <time>2011-07-03T08:29:36Z</time>
      </trkpt>
      <trkpt lat="45.76913" lon="5.99519">
        <ele>684</ele>
        <time>2011-07-03T08:29:37Z</time>
      </trkpt>
      <trkpt lat="45.76912" lon="5.9952">
        <ele>684</ele>
        <time>2011-07-03T08:29:38Z</time>
      </trkpt>
      <trkpt lat="45.7691" lon="5.9952">
        <ele>684</ele>
        <time>2011-07-03T08:29:39Z</time>
      </trkpt>
      <trkpt lat="45.76909" lon="5.9952">
        <ele>685</ele>
        <time>2011-07-03T08:29:40Z</time>
      </trkpt>
      <trkpt lat="45.76907" lon="5.9952">
        <ele>685</ele>
        <time>2011-07-03T08:29:41Z</time>
      </trkpt>
      <trkpt lat="45.76906" lon="5.99519">
        <ele>685</ele>
        <time>2011-07-03T08:29:42Z</time>
      </trkpt>
      <trkpt lat="45.76904" lon="5.99519">
        <ele>685</ele>
        <time>2011-07-03T08:29:43Z</time>
      </trkpt>
      <trkpt lat="45.76903" lon="5.99519">
        <ele>685</ele>
        <time>2011-07-03T08:29:44Z</time>
      </trkpt>
      <trkpt lat="45.76902" lon="5.99519">
        <ele>685</ele>
        <time>2011-07-03T08:29:45Z</time>
      </trkpt>
      <trkpt lat="45.769" lon="5.99519">
        <ele>685</ele>
        <time>2011-07-03T08:29:46Z</time>
      </trkpt>
      <trkpt lat="45.76899" lon="5.99519">
        <ele>685</ele>
        <time>2011-07-03T08:29:47Z</time>
      </trkpt>
      <trkpt lat="45.76898" lon="5.99518">
        <ele>685</ele>
        <time>2011-07-03T08:29:48Z</time>
      </trkpt>
      <trkpt lat="45.76896" lon="5.99518">
        <ele>686</ele>
        <time>2011-07-03T08:29:49Z</time>
      </trkpt>
      <trkpt lat="45.76895" lon="5.99518">
        <ele>686</ele>
        <time>2011-07-03T08:29:50Z</time>
      </trkpt>
      <trkpt lat="45.76894" lon="5.99518">
        <ele>686</ele>
        <time>2011-07-03T08:29:51Z</time>
      </trkpt>
      <trkpt lat="45.76892" lon="5.99518">
        <ele>687</ele>
        <time>2011-07-03T08:29:52Z</time>
      </trkpt>
      <trkpt lat="45.76891" lon="5.99518">
        <ele>687</ele>
        <time>2011-07-03T08:29:53Z</time>
      </trkpt>
      <trkpt lat="45.7689" lon="5.99518">
        <ele>687</ele>
        <time>2011-07-03T08:29:54Z</time>
      </trkpt>
      <trkpt lat="45.76889" lon="5.99517">
        <ele>688</ele>
        <time>2011-07-03T08:29:55Z</time>
      </trkpt>
      <trkpt lat="45.76888" lon="5.99517">
        <ele>688</ele>
        <time>2011-07-03T08:29:56Z</time>
      </trkpt>
      <trkpt lat="45.76886" lon="5.99517">
        <ele>688</ele>
        <time>2011-07-03T08:29:57Z</time>
      </trkpt>
      <trkpt lat="45.76885" lon="5.99517">
        <ele>688</ele>
        <time>2011-07-03T08:29:58Z</time>
      </trkpt>
      <trkpt lat="45.76883" lon="5.99517">
        <ele>688</ele>
        <time>2011-07-03T08:29:59Z</time>
      </trkpt>
      <trkpt lat="45.76882" lon="5.99517">
        <ele>688</ele>
        <time>2011-07-03T08:30:00Z</time>
      </trkpt>
      <trkpt lat="45.7688" lon="5.99517">
        <ele>688</ele>
        <time>2011-07-03T08:30:01Z</time>
      </trkpt>
      <trkpt lat="45.76878" lon="5.99517">
        <ele>688</ele>
        <time>2011-07-03T08:30:02Z</time>
      </trkpt>
      <trkpt lat="45.76876" lon="5.99517">
        <ele>688</ele>
        <time>2011-07-03T08:30:03Z</time>
      </trkpt>
      <trkpt lat="45.76875" lon="5.99518">
        <ele>688</ele>
        <time>2011-07-03T08:30:04Z</time>
      </trkpt>
      <trkpt lat="45.76873" lon="5.99517">
        <ele>688</ele>
        <time>2011-07-03T08:30:05Z</time>
      </trkpt>
      <trkpt lat="45.76872" lon="5.99518">
        <ele>688</ele>
        <time>2011-07-03T08:30:06Z</time>
      </trkpt>
      <trkpt lat="45.7687" lon="5.99518">
        <ele>688</ele>
        <time>2011-07-03T08:30:07Z</time>
      </trkpt>
      <trkpt lat="45.76868" lon="5.99517">
        <ele>688</ele>
        <time>2011-07-03T08:30:08Z</time>
      </trkpt>
      <trkpt lat="45.76867" lon="5.99517">
        <ele>688</ele>
        <time>2011-07-03T08:30:09Z</time>
      </trkpt>
      <trkpt lat="45.76866" lon="5.99518">
        <ele>688</ele>
        <time>2011-07-03T08:30:10Z</time>
      </trkpt>
      <trkpt lat="45.76864" lon="5.99517">
        <ele>688</ele>
        <time>2011-07-03T08:30:11Z</time>
      </trkpt>
      <trkpt lat="45.76863" lon="5.99517">
        <ele>688</ele>
        <time>2011-07-03T08:30:13Z</time>
      </trkpt>
      <trkpt lat="45.76862" lon="5.99518">
        <ele>688</ele>
        <time>2011-07-03T08:30:14Z</time>
      </trkpt>
      <trkpt lat="45.7686" lon="5.99519">
        <ele>688</ele>
        <time>2011-07-03T08:30:15Z</time>
      </trkpt>
      <trkpt lat="45.76858" lon="5.9952">
        <ele>688</ele>
        <time>2011-07-03T08:30:16Z</time>
      </trkpt>
      <trkpt lat="45.76857" lon="5.9952">
        <ele>688</ele>
        <time>2011-07-03T08:30:17Z</time>
      </trkpt>
      <trkpt lat="45.76855" lon="5.99521">
        <ele>688</ele>
        <time>2011-07-03T08:30:18Z</time>
      </trkpt>
      <trkpt lat="45.76854" lon="5.99521">
        <ele>688</ele>
        <time>2011-07-03T08:30:19Z</time>
      </trkpt>
      <trkpt lat="45.76852" lon="5.99521">
        <ele>688</ele>
        <time>2011-07-03T08:30:20Z</time>
      </trkpt>
      <trkpt lat="45.76851" lon="5.99521">
        <ele>688</ele>
        <time>2011-07-03T08:30:21Z</time>
      </trkpt>
      <trkpt lat="45.7685" lon="5.99522">
        <ele>688</ele>
        <time>2011-07-03T08:30:22Z</time>
      </trkpt>
      <trkpt lat="45.76848" lon="5.99522">
        <ele>688</ele>
        <time>2011-07-03T08:30:24Z</time>
      </trkpt>
      <trkpt lat="45.76846" lon="5.99523">
        <ele>688</ele>
        <time>2011-07-03T08:30:25Z</time>
      </trkpt>
      <trkpt lat="45.76845" lon="5.99524">
        <ele>688</ele>
        <time>2011-07-03T08:30:26Z</time>
      </trkpt>
      <trkpt lat="45.76843" lon="5.99524">
        <ele>688</ele>
        <time>2011-07-03T08:30:27Z</time>
      </trkpt>
      <trkpt lat="45.76842" lon="5.99526">
        <ele>688</ele>
        <time>2011-07-03T08:30:31Z</time>
      </trkpt>
      <trkpt lat="45.76842" lon="5.99524">
        <ele>688</ele>
        <time>2011-07-03T08:30:44Z</time>
      </trkpt>
      <trkpt lat="45.76842" lon="5.99526">
        <ele>688</ele>
        <time>2011-07-03T08:30:47Z</time>
      </trkpt>
      <trkpt lat="45.76842" lon="5.99528">
        <ele>687</ele>
        <time>2011-07-03T08:30:49Z</time>
      </trkpt>
      <trkpt lat="45.76841" lon="5.99526">
        <ele>684</ele>
        <time>2011-07-03T08:30:52Z</time>
      </trkpt>
      <trkpt lat="45.76842" lon="5.99526">
        <ele>684</ele>
        <time>2011-07-03T08:30:56Z</time>
      </trkpt>
      <trkpt lat="45.76842" lon="5.99525">
        <ele>684</ele>
        <time>2011-07-03T08:30:59Z</time>
      </trkpt>
      <trkpt lat="45.76841" lon="5.99522">
        <ele>684</ele>
        <time>2011-07-03T08:31:08Z</time>
      </trkpt>
      <trkpt lat="45.7684" lon="5.99521">
        <ele>686</ele>
        <time>2011-07-03T08:31:11Z</time>
      </trkpt>
      <trkpt lat="45.76839" lon="5.99519">
        <ele>687</ele>
        <time>2011-07-03T08:31:12Z</time>
      </trkpt>
      <trkpt lat="45.76838" lon="5.99518">
        <ele>689</ele>
        <time>2011-07-03T08:31:14Z</time>
      </trkpt>
      <trkpt lat="45.76836" lon="5.99517">
        <ele>692</ele>
        <time>2011-07-03T08:31:17Z</time>
      </trkpt>
      <trkpt lat="45.76836" lon="5.99519">
        <ele>693</ele>
        <time>2011-07-03T08:31:24Z</time>
      </trkpt>
      <trkpt lat="45.76835" lon="5.99518">
        <ele>693</ele>
        <time>2011-07-03T08:31:29Z</time>
      </trkpt>
      <trkpt lat="45.76833" lon="5.99516">
        <ele>693</ele>
        <time>2011-07-03T08:31:37Z</time>
      </trkpt>
      <trkpt lat="45.76834" lon="5.99516">
        <ele>693</ele>
        <time>2011-07-03T08:31:40Z</time>
      </trkpt>
      <trkpt lat="45.76834" lon="5.99515">
        <ele>694</ele>
        <time>2011-07-03T08:31:44Z</time>
      </trkpt>
      <trkpt lat="45.76834" lon="5.99517">
        <ele>695</ele>
        <time>2011-07-03T08:31:48Z</time>
      </trkpt>
      <trkpt lat="45.76833" lon="5.99519">
        <ele>695</ele>
        <time>2011-07-03T08:31:50Z</time>
      </trkpt>
      <trkpt lat="45.76831" lon="5.9952">
        <ele>695</ele>
        <time>2011-07-03T08:31:51Z</time>
      </trkpt>
      <trkpt lat="45.7683" lon="5.99521">
        <ele>695</ele>
        <time>2011-07-03T08:31:52Z</time>
      </trkpt>
      <trkpt lat="45.76828" lon="5.99522">
        <ele>695</ele>
        <time>2011-07-03T08:31:53Z</time>
      </trkpt>
      <trkpt lat="45.76826" lon="5.99523">
        <ele>695</ele>
        <time>2011-07-03T08:31:54Z</time>
      </trkpt>
      <trkpt lat="45.76825" lon="5.99524">
        <ele>695</ele>
        <time>2011-07-03T08:31:55Z</time>
      </trkpt>
      <trkpt lat="45.76823" lon="5.99525">
        <ele>694</ele>
        <time>2011-07-03T08:31:56Z</time>
      </trkpt>
      <trkpt lat="45.76821" lon="5.99526">
        <ele>694</ele>
        <time>2011-07-03T08:31:57Z</time>
      </trkpt>
      <trkpt lat="45.76819" lon="5.99526">
        <ele>694</ele>
        <time>2011-07-03T08:31:58Z</time>
      </trkpt>
      <trkpt lat="45.76816" lon="5.99526">
        <ele>694</ele>
        <time>2011-07-03T08:31:59Z</time>
      </trkpt>
      <trkpt lat="45.76813" lon="5.99527">
        <ele>694</ele>
        <time>2011-07-03T08:32:00Z</time>
      </trkpt>
      <trkpt lat="45.7681" lon="5.99529">
        <ele>693</ele>
        <time>2011-07-03T08:32:01Z</time>
      </trkpt>
      <trkpt lat="45.76806" lon="5.99529">
        <ele>693</ele>
        <time>2011-07-03T08:32:02Z</time>
      </trkpt>
      <trkpt lat="45.76803" lon="5.99531">
        <ele>692</ele>
        <time>2011-07-03T08:32:03Z</time>
      </trkpt>
      <trkpt lat="45.76799" lon="5.99532">
        <ele>691</ele>
        <time>2011-07-03T08:32:04Z</time>
      </trkpt>
      <trkpt lat="45.76794" lon="5.99532">
        <ele>691</ele>
        <time>2011-07-03T08:32:05Z</time>
      </trkpt>
      <trkpt lat="45.76791" lon="5.99532">
        <ele>691</ele>
        <time>2011-07-03T08:32:06Z</time>
      </trkpt>
      <trkpt lat="45.76786" lon="5.99533">
        <ele>690</ele>
        <time>2011-07-03T08:32:07Z</time>
      </trkpt>
      <trkpt lat="45.76782" lon="5.99533">
        <ele>690</ele>
        <time>2011-07-03T08:32:08Z</time>
      </trkpt>
      <trkpt lat="45.76778" lon="5.99534">
        <ele>690</ele>
        <time>2011-07-03T08:32:09Z</time>
      </trkpt>
      <trkpt lat="45.76773" lon="5.99534">
        <ele>690</ele>
        <time>2011-07-03T08:32:10Z</time>
      </trkpt>
      <trkpt lat="45.76769" lon="5.99536">
        <ele>690</ele>
        <time>2011-07-03T08:32:11Z</time>
      </trkpt>
      <trkpt lat="45.76765" lon="5.99537">
        <ele>690</ele>
        <time>2011-07-03T08:32:12Z</time>
      </trkpt>
      <trkpt lat="45.76761" lon="5.99538">
        <ele>690</ele>
        <time>2011-07-03T08:32:13Z</time>
      </trkpt>
      <trkpt lat="45.76757" lon="5.99538">
        <ele>690</ele>
        <time>2011-07-03T08:32:14Z</time>
      </trkpt>
      <trkpt lat="45.76753" lon="5.99538">
        <ele>690</ele>
        <time>2011-07-03T08:32:15Z</time>
      </trkpt>
      <trkpt lat="45.76749" lon="5.99539">
        <ele>690</ele>
        <time>2011-07-03T08:32:16Z</time>
      </trkpt>
      <trkpt lat="45.76745" lon="5.99539">
        <ele>690</ele>
        <time>2011-07-03T08:32:17Z</time>
      </trkpt>
      <trkpt lat="45.76741" lon="5.99539">
        <ele>690</ele>
        <time>2011-07-03T08:32:18Z</time>
      </trkpt>
      <trkpt lat="45.76738" lon="5.9954">
        <ele>690</ele>
        <time>2011-07-03T08:32:19Z</time>
      </trkpt>
      <trkpt lat="45.76735" lon="5.9954">
        <ele>690</ele>
        <time>2011-07-03T08:32:20Z</time>
      </trkpt>
      <trkpt lat="45.76732" lon="5.99541">
        <ele>690</ele>
        <time>2011-07-03T08:32:21Z</time>
      </trkpt>
      <trkpt lat="45.76728" lon="5.99542">
        <ele>690</ele>
        <time>2011-07-03T08:32:22Z</time>
      </trkpt>
      <trkpt lat="45.76724" lon="5.99544">
        <ele>690</ele>
        <time>2011-07-03T08:32:23Z</time>
      </trkpt>
      <trkpt lat="45.7672" lon="5.99546">
        <ele>690</ele>
        <time>2011-07-03T08:32:24Z</time>
      </trkpt>
      <trkpt lat="45.76715" lon="5.99547">
        <ele>690</ele>
        <time>2011-07-03T08:32:25Z</time>
      </trkpt>
      <trkpt lat="45.7671" lon="5.99549">
        <ele>690</ele>
        <time>2011-07-03T08:32:26Z</time>
      </trkpt>
      <trkpt lat="45.76705" lon="5.99549">
        <ele>690</ele>
        <time>2011-07-03T08:32:27Z</time>
      </trkpt>
      <trkpt lat="45.767" lon="5.9955">
        <ele>690</ele>
        <time>2011-07-03T08:32:28Z</time>
      </trkpt>
      <trkpt lat="45.76694" lon="5.99552">
        <ele>690</ele>
        <time>2011-07-03T08:32:29Z</time>
      </trkpt>
      <trkpt lat="45.7669" lon="5.99553">
        <ele>690</ele>
        <time>2011-07-03T08:32:30Z</time>
      </trkpt>
      <trkpt lat="45.76685" lon="5.99555">
        <ele>690</ele>
        <time>2011-07-03T08:32:31Z</time>
      </trkpt>
      <trkpt lat="45.76681" lon="5.99557">
        <ele>690</ele>
        <time>2011-07-03T08:32:32Z</time>
      </trkpt>
      <trkpt lat="45.76676" lon="5.99559">
        <ele>690</ele>
        <time>2011-07-03T08:32:33Z</time>
      </trkpt>
      <trkpt lat="45.76672" lon="5.99561">
        <ele>690</ele>
        <time>2011-07-03T08:32:34Z</time>
      </trkpt>
      <trkpt lat="45.76668" lon="5.99563">
        <ele>690</ele>
        <time>2011-07-03T08:32:35Z</time>
      </trkpt>
      <trkpt lat="45.76664" lon="5.99565">
        <ele>690</ele>
        <time>2011-07-03T08:32:36Z</time>
      </trkpt>
      <trkpt lat="45.76659" lon="5.99567">
        <ele>690</ele>
        <time>2011-07-03T08:32:37Z</time>
      </trkpt>
      <trkpt lat="45.76654" lon="5.99568">
        <ele>690</ele>
        <time>2011-07-03T08:32:38Z</time>
      </trkpt>
      <trkpt lat="45.7665" lon="5.9957">
        <ele>690</ele>
        <time>2011-07-03T08:32:39Z</time>
      </trkpt>
      <trkpt lat="45.76645" lon="5.99571">
        <ele>690</ele>
        <time>2011-07-03T08:32:40Z</time>
      </trkpt>
      <trkpt lat="45.7664" lon="5.99572">
        <ele>690</ele>
        <time>2011-07-03T08:32:41Z</time>
      </trkpt>
      <trkpt lat="45.76635" lon="5.99572">
        <ele>690</ele>
        <time>2011-07-03T08:32:42Z</time>
      </trkpt>
      <trkpt lat="45.76629" lon="5.99574">
        <ele>690</ele>
        <time>2011-07-03T08:32:43Z</time>
      </trkpt>
      <trkpt lat="45.76623" lon="5.99576">
        <ele>690</ele>
        <time>2011-07-03T08:32:44Z</time>
      </trkpt>
      <trkpt lat="45.76616" lon="5.99576">
        <ele>689</ele>
        <time>2011-07-03T08:32:45Z</time>
      </trkpt>
      <trkpt lat="45.7661" lon="5.99578">
        <ele>688</ele>
        <time>2011-07-03T08:32:46Z</time>
      </trkpt>
      <trkpt lat="45.76604" lon="5.9958">
        <ele>688</ele>
        <time>2011-07-03T08:32:47Z</time>
      </trkpt>
      <trkpt lat="45.76597" lon="5.99582">
        <ele>687</ele>
        <time>2011-07-03T08:32:48Z</time>
      </trkpt>
      <trkpt lat="45.76591" lon="5.99583">
        <ele>687</ele>
        <time>2011-07-03T08:32:49Z</time>
      </trkpt>
      <trkpt lat="45.76585" lon="5.99585">
        <ele>687</ele>
        <time>2011-07-03T08:32:50Z</time>
      </trkpt>
      <trkpt lat="45.7658" lon="5.99586">
        <ele>686</ele>
        <time>2011-07-03T08:32:51Z</time>
      </trkpt>
      <trkpt lat="45.76575" lon="5.99588">
        <ele>686</ele>
        <time>2011-07-03T08:32:52Z</time>
      </trkpt>
      <trkpt lat="45.7657" lon="5.99588">
        <ele>686</ele>
        <time>2011-07-03T08:32:53Z</time>
      </trkpt>
      <trkpt lat="45.76565" lon="5.99589">
        <ele>686</ele>
        <time>2011-07-03T08:32:54Z</time>
      </trkpt>
      <trkpt lat="45.7656" lon="5.9959">
        <ele>686</ele>
        <time>2011-07-03T08:32:55Z</time>
      </trkpt>
      <trkpt lat="45.76556" lon="5.9959">
        <ele>686</ele>
        <time>2011-07-03T08:32:56Z</time>
      </trkpt>
      <trkpt lat="45.76551" lon="5.99591">
        <ele>686</ele>
        <time>2011-07-03T08:32:57Z</time>
      </trkpt>
      <trkpt lat="45.76546" lon="5.99592">
        <ele>685</ele>
        <time>2011-07-03T08:32:58Z</time>
      </trkpt>
      <trkpt lat="45.76542" lon="5.99592">
        <ele>685</ele>
        <time>2011-07-03T08:32:59Z</time>
      </trkpt>
      <trkpt lat="45.76537" lon="5.99592">
        <ele>685</ele>
        <time>2011-07-03T08:33:00Z</time>
      </trkpt>
      <trkpt lat="45.76532" lon="5.99591">
        <ele>685</ele>
        <time>2011-07-03T08:33:01Z</time>
      </trkpt>
      <trkpt lat="45.76527" lon="5.9959">
        <ele>685</ele>
        <time>2011-07-03T08:33:02Z</time>
      </trkpt>
      <trkpt lat="45.76521" lon="5.99588">
        <ele>685</ele>
        <time>2011-07-03T08:33:03Z</time>
      </trkpt>
      <trkpt lat="45.76516" lon="5.99585">
        <ele>684</ele>
        <time>2011-07-03T08:33:04Z</time>
      </trkpt>
      <trkpt lat="45.76511" lon="5.99581">
        <ele>684</ele>
        <time>2011-07-03T08:33:05Z</time>
      </trkpt>
      <trkpt lat="45.76507" lon="5.99578">
        <ele>684</ele>
        <time>2011-07-03T08:33:06Z</time>
      </trkpt>
      <trkpt lat="45.76503" lon="5.99574">
        <ele>683</ele>
        <time>2011-07-03T08:33:07Z</time>
      </trkpt>
      <trkpt lat="45.76498" lon="5.99571">
        <ele>683</ele>
        <time>2011-07-03T08:33:08Z</time>
      </trkpt>
      <trkpt lat="45.76494" lon="5.99567">
        <ele>683</ele>
        <time>2011-07-03T08:33:09Z</time>
      </trkpt>
      <trkpt lat="45.7649" lon="5.99562">
        <ele>682</ele>
        <time>2011-07-03T08:33:10Z</time>
      </trkpt>
      <trkpt lat="45.76485" lon="5.99559">
        <ele>682</ele>
        <time>2011-07-03T08:33:11Z</time>
      </trkpt>
      <trkpt lat="45.76482" lon="5.99558">
        <ele>682</ele>
        <time>2011-07-03T08:33:12Z</time>
      </trkpt>
      <trkpt lat="45.76479" lon="5.9956">
        <ele>682</ele>
        <time>2011-07-03T08:33:13Z</time>
      </trkpt>
      <trkpt lat="45.76476" lon="5.99562">
        <ele>682</ele>
        <time>2011-07-03T08:33:14Z</time>
      </trkpt>
      <trkpt lat="45.76474" lon="5.99567">
        <ele>682</ele>
        <time>2011-07-03T08:33:15Z</time>
      </trkpt>
      <trkpt lat="45.76473" lon="5.99572">
        <ele>682</ele>
        <time>2011-07-03T08:33:16Z</time>
      </trkpt>
      <trkpt lat="45.76472" lon="5.99578">
        <ele>682</ele>
        <time>2011-07-03T08:33:17Z</time>
      </trkpt>
      <trkpt lat="45.76471" lon="5.99584">
        <ele>682</ele>
        <time>2011-07-03T08:33:18Z</time>
      </trkpt>
      <trkpt lat="45.7647" lon="5.9959">
        <ele>682</ele>
        <time>2011-07-03T08:33:19Z</time>
      </trkpt>
      <trkpt lat="45.76469" lon="5.99596">
        <ele>682</ele>
        <time>2011-07-03T08:33:20Z</time>
      </trkpt>
      <trkpt lat="45.76468" lon="5.99601">
        <ele>682</ele>
        <time>2011-07-03T08:33:21Z</time>
      </trkpt>
      <trkpt lat="45.76467" lon="5.99606">
        <ele>682</ele>
        <time>2011-07-03T08:33:22Z</time>
      </trkpt>
      <trkpt lat="45.76466" lon="5.99612">
        <ele>682</ele>
        <time>2011-07-03T08:33:23Z</time>
      </trkpt>
      <trkpt lat="45.76466" lon="5.99616">
        <ele>682</ele>
        <time>2011-07-03T08:33:24Z</time>
      </trkpt>
      <trkpt lat="45.76464" lon="5.99621">
        <ele>682</ele>
        <time>2011-07-03T08:33:25Z</time>
      </trkpt>
      <trkpt lat="45.76463" lon="5.99626">
        <ele>682</ele>
        <time>2011-07-03T08:33:26Z</time>
      </trkpt>
      <trkpt lat="45.76463" lon="5.99631">
        <ele>682</ele>
        <time>2011-07-03T08:33:27Z</time>
      </trkpt>
      <trkpt lat="45.76462" lon="5.99635">
        <ele>682</ele>
        <time>2011-07-03T08:33:28Z</time>
      </trkpt>
      <trkpt lat="45.76461" lon="5.99639">
        <ele>682</ele>
        <time>2011-07-03T08:33:29Z</time>
      </trkpt>
      <trkpt lat="45.76461" lon="5.99643">
        <ele>682</ele>
        <time>2011-07-03T08:33:30Z</time>
      </trkpt>
      <trkpt lat="45.7646" lon="5.99647">
        <ele>682</ele>
        <time>2011-07-03T08:33:31Z</time>
      </trkpt>
      <trkpt lat="45.76459" lon="5.99651">
        <ele>682</ele>
        <time>2011-07-03T08:33:32Z</time>
      </trkpt>
      <trkpt lat="45.76459" lon="5.99655">
        <ele>682</ele>
        <time>2011-07-03T08:33:33Z</time>
      </trkpt>
      <trkpt lat="45.76458" lon="5.99659">
        <ele>682</ele>
        <time>2011-07-03T08:33:34Z</time>
      </trkpt>
      <trkpt lat="45.76457" lon="5.99663">
        <ele>682</ele>
        <time>2011-07-03T08:33:35Z</time>
      </trkpt>
      <trkpt lat="45.76456" lon="5.99667">
        <ele>682</ele>
        <time>2011-07-03T08:33:36Z</time>
      </trkpt>
      <trkpt lat="45.76455" lon="5.9967">
        <ele>682</ele>
        <time>2011-07-03T08:33:37Z</time>
      </trkpt>
      <trkpt lat="45.76453" lon="5.99673">
        <ele>682</ele>
        <time>2011-07-03T08:33:38Z</time>
      </trkpt>
      <trkpt lat="45.76451" lon="5.99676">
        <ele>682</ele>
        <time>2011-07-03T08:33:39Z</time>
      </trkpt>
      <trkpt lat="45.7645" lon="5.99681">
        <ele>682</ele>
        <time>2011-07-03T08:33:40Z</time>
      </trkpt>
      <trkpt lat="45.76448" lon="5.99684">
        <ele>682</ele>
        <time>2011-07-03T08:33:41Z</time>
      </trkpt>
      <trkpt lat="45.76445" lon="5.99688">
        <ele>682</ele>
        <time>2011-07-03T08:33:42Z</time>
      </trkpt>
      <trkpt lat="45.76443" lon="5.9969">
        <ele>682</ele>
        <time>2011-07-03T08:33:43Z</time>
      </trkpt>
      <trkpt lat="45.76441" lon="5.99693">
        <ele>682</ele>
        <time>2011-07-03T08:33:44Z</time>
      </trkpt>
      <trkpt lat="45.76439" lon="5.99696">
        <ele>682</ele>
        <time>2011-07-03T08:33:45Z</time>
      </trkpt>
      <trkpt lat="45.76436" lon="5.99698">
        <ele>682</ele>
        <time>2011-07-03T08:33:46Z</time>
      </trkpt>
      <trkpt lat="45.76434" lon="5.99701">
        <ele>682</ele>
        <time>2011-07-03T08:33:47Z</time>
      </trkpt>
      <trkpt lat="45.76432" lon="5.99705">
        <ele>682</ele>
        <time>2011-07-03T08:33:48Z</time>
      </trkpt>
      <trkpt lat="45.76429" lon="5.99708">
        <ele>682</ele>
        <time>2011-07-03T08:33:49Z</time>
      </trkpt>
      <trkpt lat="45.76426" lon="5.99712">
        <ele>682</ele>
        <time>2011-07-03T08:33:50Z</time>
      </trkpt>
      <trkpt lat="45.76423" lon="5.99716">
        <ele>682</ele>
        <time>2011-07-03T08:33:51Z</time>
      </trkpt>
      <trkpt lat="45.76419" lon="5.9972">
        <ele>682</ele>
        <time>2011-07-03T08:33:52Z</time>
      </trkpt>
      <trkpt lat="45.76415" lon="5.99725">
        <ele>682</ele>
        <time>2011-07-03T08:33:53Z</time>
      </trkpt>
      <trkpt lat="45.76411" lon="5.99729">
        <ele>682</ele>
        <time>2011-07-03T08:33:54Z</time>
      </trkpt>
      <trkpt lat="45.76406" lon="5.99734">
        <ele>682</ele>
        <time>2011-07-03T08:33:55Z</time>
      </trkpt>
      <trkpt lat="45.76402" lon="5.99738">
        <ele>682</ele>
        <time>2011-07-03T08:33:56Z</time>
      </trkpt>
      <trkpt lat="45.76397" lon="5.99742">
        <ele>682</ele>
        <time>2011-07-03T08:33:57Z</time>
      </trkpt>
      <trkpt lat="45.76392" lon="5.99745">
        <ele>682</ele>
        <time>2011-07-03T08:33:58Z</time>
      </trkpt>
      <trkpt lat="45.76387" lon="5.99749">
        <ele>681</ele>
        <time>2011-07-03T08:33:59Z</time>
      </trkpt>
      <trkpt lat="45.76382" lon="5.99753">
        <ele>681</ele>
        <time>2011-07-03T08:34:00Z</time>
      </trkpt>
      <trkpt lat="45.76377" lon="5.99756">
        <ele>680</ele>
        <time>2011-07-03T08:34:01Z</time>
      </trkpt>
      <trkpt lat="45.76372" lon="5.9976">
        <ele>680</ele>
        <time>2011-07-03T08:34:02Z</time>
      </trkpt>
      <trkpt lat="45.76367" lon="5.99763">
        <ele>679</ele>
        <time>2011-07-03T08:34:03Z</time>
      </trkpt>
      <trkpt lat="45.76362" lon="5.99768">
        <ele>679</ele>
        <time>2011-07-03T08:34:04Z</time>
      </trkpt>
      <trkpt lat="45.76357" lon="5.99772">
        <ele>679</ele>
        <time>2011-07-03T08:34:05Z</time>
      </trkpt>
      <trkpt lat="45.76353" lon="5.99777">
        <ele>679</ele>
        <time>2011-07-03T08:34:06Z</time>
      </trkpt>
      <trkpt lat="45.7635" lon="5.99783">
        <ele>678</ele>
        <time>2011-07-03T08:34:07Z</time>
      </trkpt>
      <trkpt lat="45.76348" lon="5.9979">
        <ele>678</ele>
        <time>2011-07-03T08:34:08Z</time>
      </trkpt>
      <trkpt lat="45.76347" lon="5.99797">
        <ele>678</ele>
        <time>2011-07-03T08:34:09Z</time>
      </trkpt>
      <trkpt lat="45.76345" lon="5.99803">
        <ele>678</ele>
        <time>2011-07-03T08:34:10Z</time>
      </trkpt>
      <trkpt lat="45.76343" lon="5.99809">
        <ele>678</ele>
        <time>2011-07-03T08:34:11Z</time>
      </trkpt>
      <trkpt lat="45.76342" lon="5.99815">
        <ele>678</ele>
        <time>2011-07-03T08:34:12Z</time>
      </trkpt>
      <trkpt lat="45.76341" lon="5.99822">
        <ele>678</ele>
        <time>2011-07-03T08:34:13Z</time>
      </trkpt>
      <trkpt lat="45.76339" lon="5.99828">
        <ele>678</ele>
        <time>2011-07-03T08:34:14Z</time>
      </trkpt>
      <trkpt lat="45.76337" lon="5.99833">
        <ele>678</ele>
        <time>2011-07-03T08:34:15Z</time>
      </trkpt>
      <trkpt lat="45.76337" lon="5.99839">
        <ele>678</ele>
        <time>2011-07-03T08:34:16Z</time>
      </trkpt>
      <trkpt lat="45.76336" lon="5.99845">
        <ele>678</ele>
        <time>2011-07-03T08:34:17Z</time>
      </trkpt>
      <trkpt lat="45.76335" lon="5.99852">
        <ele>678</ele>
        <time>2011-07-03T08:34:18Z</time>
      </trkpt>
      <trkpt lat="45.76333" lon="5.99857">
        <ele>678</ele>
        <time>2011-07-03T08:34:19Z</time>
      </trkpt>
      <trkpt lat="45.76332" lon="5.99862">
        <ele>678</ele>
        <time>2011-07-03T08:34:20Z</time>
      </trkpt>
      <trkpt lat="45.76331" lon="5.99868">
        <ele>678</ele>
        <time>2011-07-03T08:34:21Z</time>
      </trkpt>
      <trkpt lat="45.7633" lon="5.99873">
        <ele>678</ele>
        <time>2011-07-03T08:34:22Z</time>
      </trkpt>
      <trkpt lat="45.76329" lon="5.99878">
        <ele>678</ele>
        <time>2011-07-03T08:34:23Z</time>
      </trkpt>
      <trkpt lat="45.76328" lon="5.99882">
        <ele>678</ele>
        <time>2011-07-03T08:34:24Z</time>
      </trkpt>
      <trkpt lat="45.76327" lon="5.99886">
        <ele>678</ele>
        <time>2011-07-03T08:34:25Z</time>
      </trkpt>
      <trkpt lat="45.76326" lon="5.99891">
        <ele>678</ele>
        <time>2011-07-03T08:34:26Z</time>
      </trkpt>
      <trkpt lat="45.76326" lon="5.99896">
        <ele>678</ele>
        <time>2011-07-03T08:34:27Z</time>
      </trkpt>
      <trkpt lat="45.76326" lon="5.99901">
        <ele>678</ele>
        <time>2011-07-03T08:34:28Z</time>
      </trkpt>
      <trkpt lat="45.76326" lon="5.99906">
        <ele>678</ele>
        <time>2011-07-03T08:34:29Z</time>
      </trkpt>
      <trkpt lat="45.76326" lon="5.9991">
        <ele>678</ele>
        <time>2011-07-03T08:34:30Z</time>
      </trkpt>
      <trkpt lat="45.76326" lon="5.99914">
        <ele>678</ele>
        <time>2011-07-03T08:34:31Z</time>
      </trkpt>
      <trkpt lat="45.76327" lon="5.99917">
        <ele>678</ele>
        <time>2011-07-03T08:34:32Z</time>
      </trkpt>
      <trkpt lat="45.76327" lon="5.9992">
        <ele>678</ele>
        <time>2011-07-03T08:34:33Z</time>
      </trkpt>
      <trkpt lat="45.76328" lon="5.99922">
        <ele>678</ele>
        <time>2011-07-03T08:34:34Z</time>
      </trkpt>
      <trkpt lat="45.76328" lon="5.99925">
        <ele>678</ele>
        <time>2011-07-03T08:34:35Z</time>
      </trkpt>
      <trkpt lat="45.76329" lon="5.99927">
        <ele>678</ele>
        <time>2011-07-03T08:34:36Z</time>
      </trkpt>
      <trkpt lat="45.76329" lon="5.99929">
        <ele>678</ele>
        <time>2011-07-03T08:34:37Z</time>
      </trkpt>
      <trkpt lat="45.7633" lon="5.99931">
        <ele>678</ele>
        <time>2011-07-03T08:34:38Z</time>
      </trkpt>
      <trkpt lat="45.76331" lon="5.99932">
        <ele>678</ele>
        <time>2011-07-03T08:34:39Z</time>
      </trkpt>
      <trkpt lat="45.76332" lon="5.99933">
        <ele>678</ele>
        <time>2011-07-03T08:34:40Z</time>
      </trkpt>
      <trkpt lat="45.76334" lon="5.99936">
        <ele>678</ele>
        <time>2011-07-03T08:34:41Z</time>
      </trkpt>
      <trkpt lat="45.76335" lon="5.9994">
        <ele>677</ele>
        <time>2011-07-03T08:34:42Z</time>
      </trkpt>
      <trkpt lat="45.76334" lon="5.99943">
        <ele>676</ele>
        <time>2011-07-03T08:34:43Z</time>
      </trkpt>
      <trkpt lat="45.76335" lon="5.99949">
        <ele>675</ele>
        <time>2011-07-03T08:34:44Z</time>
      </trkpt>
      <trkpt lat="45.76334" lon="5.99953">
        <ele>674</ele>
        <time>2011-07-03T08:34:45Z</time>
      </trkpt>
      <trkpt lat="45.76333" lon="5.99958">
        <ele>673</ele>
        <time>2011-07-03T08:34:46Z</time>
      </trkpt>
      <trkpt lat="45.76332" lon="5.99963">
        <ele>672</ele>
        <time>2011-07-03T08:34:47Z</time>
      </trkpt>
      <trkpt lat="45.76331" lon="5.99968">
        <ele>671</ele>
        <time>2011-07-03T08:34:48Z</time>
      </trkpt>
      <trkpt lat="45.7633" lon="5.99972">
        <ele>670</ele>
        <time>2011-07-03T08:34:49Z</time>
      </trkpt>
      <trkpt lat="45.76329" lon="5.99976">
        <ele>669</ele>
        <time>2011-07-03T08:34:50Z</time>
      </trkpt>
      <trkpt lat="45.76327" lon="5.99979">
        <ele>668</ele>
        <time>2011-07-03T08:34:51Z</time>
      </trkpt>
      <trkpt lat="45.76326" lon="5.99981">
        <ele>667</ele>
        <time>2011-07-03T08:34:52Z</time>
      </trkpt>
      <trkpt lat="45.76325" lon="5.99984">
        <ele>666</ele>
        <time>2011-07-03T08:34:53Z</time>
      </trkpt>
      <trkpt lat="45.76325" lon="5.99987">
        <ele>665</ele>
        <time>2011-07-03T08:34:54Z</time>
      </trkpt>
      <trkpt lat="45.76324" lon="5.99991">
        <ele>664</ele>
        <time>2011-07-03T08:34:55Z</time>
      </trkpt>
      <trkpt lat="45.76322" lon="5.99994">
        <ele>663</ele>
        <time>2011-07-03T08:34:56Z</time>
      </trkpt>
      <trkpt lat="45.7632" lon="5.99997">
        <ele>662</ele>
        <time>2011-07-03T08:34:57Z</time>
      </trkpt>
      <trkpt lat="45.76318" lon="6">
        <ele>661</ele>
        <time>2011-07-03T08:34:58Z</time>
      </trkpt>
      <trkpt lat="45.76316" lon="6.00003">
        <ele>660</ele>
        <time>2011-07-03T08:34:59Z</time>
      </trkpt>
      <trkpt lat="45.76314" lon="6.00006">
        <ele>659</ele>
        <time>2011-07-03T08:35:00Z</time>
      </trkpt>
      <trkpt lat="45.76313" lon="6.00008">
        <ele>658</ele>
        <time>2011-07-03T08:35:01Z</time>
      </trkpt>
      <trkpt lat="45.7631" lon="6.00011">
        <ele>657</ele>
        <time>2011-07-03T08:35:02Z</time>
      </trkpt>
      <trkpt lat="45.76307" lon="6.00014">
        <ele>656</ele>
        <time>2011-07-03T08:35:03Z</time>
      </trkpt>
      <trkpt lat="45.76303" lon="6.00017">
        <ele>656</ele>
        <time>2011-07-03T08:35:04Z</time>
      </trkpt>
      <trkpt lat="45.763" lon="6.0002">
        <ele>655</ele>
        <time>2011-07-03T08:35:05Z</time>
      </trkpt>
      <trkpt lat="45.76297" lon="6.00024">
        <ele>655</ele>
        <time>2011-07-03T08:35:06Z</time>
      </trkpt>
      <trkpt lat="45.76294" lon="6.00027">
        <ele>654</ele>
        <time>2011-07-03T08:35:07Z</time>
      </trkpt>
      <trkpt lat="45.76291" lon="6.0003">
        <ele>654</ele>
        <time>2011-07-03T08:35:08Z</time>
      </trkpt>
      <trkpt lat="45.76288" lon="6.00033">
        <ele>653</ele>
        <time>2011-07-03T08:35:09Z</time>
      </trkpt>
      <trkpt lat="45.76284" lon="6.00036">
        <ele>652</ele>
        <time>2011-07-03T08:35:10Z</time>
      </trkpt>
      <trkpt lat="45.76281" lon="6.00039">
        <ele>651</ele>
        <time>2011-07-03T08:35:11Z</time>
      </trkpt>
      <trkpt lat="45.76278" lon="6.00042">
        <ele>651</ele>
        <time>2011-07-03T08:35:12Z</time>
      </trkpt>
      <trkpt lat="45.76274" lon="6.00044">
        <ele>650</ele>
        <time>2011-07-03T08:35:13Z</time>
      </trkpt>
      <trkpt lat="45.76271" lon="6.00047">
        <ele>649</ele>
        <time>2011-07-03T08:35:14Z</time>
      </trkpt>
      <trkpt lat="45.76268" lon="6.0005">
        <ele>649</ele>
        <time>2011-07-03T08:35:15Z</time>
      </trkpt>
      <trkpt lat="45.76265" lon="6.00052">
        <ele>649</ele>
        <time>2011-07-03T08:35:16Z</time>
      </trkpt>
      <trkpt lat="45.76262" lon="6.00054">
        <ele>649</ele>
        <time>2011-07-03T08:35:17Z</time>
      </trkpt>
      <trkpt lat="45.76258" lon="6.00055">
        <ele>649</ele>
        <time>2011-07-03T08:35:18Z</time>
      </trkpt>
      <trkpt lat="45.76255" lon="6.00057">
        <ele>649</ele>
        <time>2011-07-03T08:35:19Z</time>
      </trkpt>
      <trkpt lat="45.76252" lon="6.00059">
        <ele>649</ele>
        <time>2011-07-03T08:35:20Z</time>
      </trkpt>
      <trkpt lat="45.76249" lon="6.00062">
        <ele>649</ele>
        <time>2011-07-03T08:35:21Z</time>
      </trkpt>
      <trkpt lat="45.76247" lon="6.00064">
        <ele>649</ele>
        <time>2011-07-03T08:35:22Z</time>
      </trkpt>
      <trkpt lat="45.76244" lon="6.00066">
        <ele>649</ele>
        <time>2011-07-03T08:35:23Z</time>
      </trkpt>
      <trkpt lat="45.76242" lon="6.00068">
        <ele>649</ele>
        <time>2011-07-03T08:35:24Z</time>
      </trkpt>
      <trkpt lat="45.76239" lon="6.0007">
        <ele>649</ele>
        <time>2011-07-03T08:35:25Z</time>
      </trkpt>
      <trkpt lat="45.76237" lon="6.00072">
        <ele>649</ele>
        <time>2011-07-03T08:35:26Z</time>
      </trkpt>
      <trkpt lat="45.76235" lon="6.00074">
        <ele>649</ele>
        <time>2011-07-03T08:35:27Z</time>
      </trkpt>
      <trkpt lat="45.76233" lon="6.00075">
        <ele>649</ele>
        <time>2011-07-03T08:35:28Z</time>
      </trkpt>
      <trkpt lat="45.76231" lon="6.00076">
        <ele>650</ele>
        <time>2011-07-03T08:35:29Z</time>
      </trkpt>
      <trkpt lat="45.7623" lon="6.00076">
        <ele>650</ele>
        <time>2011-07-03T08:35:30Z</time>
      </trkpt>
      <trkpt lat="45.76228" lon="6.00075">
        <ele>650</ele>
        <time>2011-07-03T08:35:31Z</time>
      </trkpt>
      <trkpt lat="45.76227" lon="6.00074">
        <ele>651</ele>
        <time>2011-07-03T08:35:32Z</time>
      </trkpt>
      <trkpt lat="45.76226" lon="6.00073">
        <ele>651</ele>
        <time>2011-07-03T08:35:33Z</time>
      </trkpt>
      <trkpt lat="45.76224" lon="6.00071">
        <ele>651</ele>
        <time>2011-07-03T08:35:34Z</time>
      </trkpt>
      <trkpt lat="45.76223" lon="6.0007">
        <ele>651</ele>
        <time>2011-07-03T08:35:35Z</time>
      </trkpt>
      <trkpt lat="45.76221" lon="6.00068">
        <ele>651</ele>
        <time>2011-07-03T08:35:36Z</time>
      </trkpt>
      <trkpt lat="45.7622" lon="6.00066">
        <ele>651</ele>
        <time>2011-07-03T08:35:37Z</time>
      </trkpt>
      <trkpt lat="45.76219" lon="6.00064">
        <ele>651</ele>
        <time>2011-07-03T08:35:38Z</time>
      </trkpt>
      <trkpt lat="45.76217" lon="6.00063">
        <ele>651</ele>
        <time>2011-07-03T08:35:39Z</time>
      </trkpt>
      <trkpt lat="45.76216" lon="6.00062">
        <ele>651</ele>
        <time>2011-07-03T08:35:40Z</time>
      </trkpt>
      <trkpt lat="45.76215" lon="6.00061">
        <ele>651</ele>
        <time>2011-07-03T08:35:41Z</time>
      </trkpt>
      <trkpt lat="45.76213" lon="6.0006">
        <ele>652</ele>
        <time>2011-07-03T08:35:42Z</time>
      </trkpt>
      <trkpt lat="45.76211" lon="6.00058">
        <ele>652</ele>
        <time>2011-07-03T08:35:43Z</time>
      </trkpt>
      <trkpt lat="45.76209" lon="6.00057">
        <ele>652</ele>
        <time>2011-07-03T08:35:44Z</time>
      </trkpt>
      <trkpt lat="45.76206" lon="6.00055">
        <ele>652</ele>
        <time>2011-07-03T08:35:45Z</time>
      </trkpt>
      <trkpt lat="45.76203" lon="6.00054">
        <ele>652</ele>
        <time>2011-07-03T08:35:46Z</time>
      </trkpt>
      <trkpt lat="45.762" lon="6.00052">
        <ele>652</ele>
        <time>2011-07-03T08:35:47Z</time>
      </trkpt>
      <trkpt lat="45.76198" lon="6.00051">
        <ele>652</ele>
        <time>2011-07-03T08:35:48Z</time>
      </trkpt>
      <trkpt lat="45.76195" lon="6.00049">
        <ele>652</ele>
        <time>2011-07-03T08:35:49Z</time>
      </trkpt>
      <trkpt lat="45.76193" lon="6.00048">
        <ele>652</ele>
        <time>2011-07-03T08:35:50Z</time>
      </trkpt>
      <trkpt lat="45.76191" lon="6.00045">
        <ele>652</ele>
        <time>2011-07-03T08:35:51Z</time>
      </trkpt>
      <trkpt lat="45.76189" lon="6.00043">
        <ele>652</ele>
        <time>2011-07-03T08:35:52Z</time>
      </trkpt>
      <trkpt lat="45.76186" lon="6.00041">
        <ele>652</ele>
        <time>2011-07-03T08:35:53Z</time>
      </trkpt>
      <trkpt lat="45.76184" lon="6.0004">
        <ele>652</ele>
        <time>2011-07-03T08:35:54Z</time>
      </trkpt>
      <trkpt lat="45.76183" lon="6.00038">
        <ele>652</ele>
        <time>2011-07-03T08:35:55Z</time>
      </trkpt>
      <trkpt lat="45.76181" lon="6.00036">
        <ele>652</ele>
        <time>2011-07-03T08:35:56Z</time>
      </trkpt>
      <trkpt lat="45.7618" lon="6.00034">
        <ele>652</ele>
        <time>2011-07-03T08:35:57Z</time>
      </trkpt>
      <trkpt lat="45.76178" lon="6.00032">
        <ele>652</ele>
        <time>2011-07-03T08:35:58Z</time>
      </trkpt>
      <trkpt lat="45.76176" lon="6.00029">
        <ele>652</ele>
        <time>2011-07-03T08:36:00Z</time>
      </trkpt>
      <trkpt lat="45.76175" lon="6.00028">
        <ele>652</ele>
        <time>2011-07-03T08:36:01Z</time>
      </trkpt>
      <trkpt lat="45.76174" lon="6.00025">
        <ele>652</ele>
        <time>2011-07-03T08:36:02Z</time>
      </trkpt>
      <trkpt lat="45.76172" lon="6.00022">
        <ele>652</ele>
        <time>2011-07-03T08:36:03Z</time>
      </trkpt>
      <trkpt lat="45.7617" lon="6.00019">
        <ele>652</ele>
        <time>2011-07-03T08:36:04Z</time>
      </trkpt>
      <trkpt lat="45.76168" lon="6.00016">
        <ele>652</ele>
        <time>2011-07-03T08:36:05Z</time>
      </trkpt>
      <trkpt lat="45.76167" lon="6.00014">
        <ele>652</ele>
        <time>2011-07-03T08:36:06Z</time>
      </trkpt>
      <trkpt lat="45.76165" lon="6.00012">
        <ele>652</ele>
        <time>2011-07-03T08:36:07Z</time>
      </trkpt>
      <trkpt lat="45.76164" lon="6.00009">
        <ele>652</ele>
        <time>2011-07-03T08:36:08Z</time>
      </trkpt>
      <trkpt lat="45.76162" lon="6.00005">
        <ele>652</ele>
        <time>2011-07-03T08:36:09Z</time>
      </trkpt>
      <trkpt lat="45.7616" lon="6.00003">
        <ele>652</ele>
        <time>2011-07-03T08:36:10Z</time>
      </trkpt>
      <trkpt lat="45.76159" lon="6">
        <ele>652</ele>
        <time>2011-07-03T08:36:11Z</time>
      </trkpt>
      <trkpt lat="45.76157" lon="5.99997">
        <ele>652</ele>
        <time>2011-07-03T08:36:12Z</time>
      </trkpt>
      <trkpt lat="45.76155" lon="5.99995">
        <ele>652</ele>
        <time>2011-07-03T08:36:13Z</time>
      </trkpt>
      <trkpt lat="45.76154" lon="5.99992">
        <ele>652</ele>
        <time>2011-07-03T08:36:14Z</time>
      </trkpt>
      <trkpt lat="45.76152" lon="5.9999">
        <ele>652</ele>
        <time>2011-07-03T08:36:15Z</time>
      </trkpt>
      <trkpt lat="45.76149" lon="5.99986">
        <ele>652</ele>
        <time>2011-07-03T08:36:16Z</time>
      </trkpt>
      <trkpt lat="45.76147" lon="5.99984">
        <ele>652</ele>
        <time>2011-07-03T08:36:17Z</time>
      </trkpt>
      <trkpt lat="45.76144" lon="5.9998">
        <ele>652</ele>
        <time>2011-07-03T08:36:18Z</time>
      </trkpt>
      <trkpt lat="45.76141" lon="5.99977">
        <ele>652</ele>
        <time>2011-07-03T08:36:19Z</time>
      </trkpt>
      <trkpt lat="45.76138" lon="5.99974">
        <ele>652</ele>
        <time>2011-07-03T08:36:20Z</time>
      </trkpt>
      <trkpt lat="45.76136" lon="5.99971">
        <ele>652</ele>
        <time>2011-07-03T08:36:21Z</time>
      </trkpt>
      <trkpt lat="45.76133" lon="5.99968">
        <ele>652</ele>
        <time>2011-07-03T08:36:22Z</time>
      </trkpt>
      <trkpt lat="45.76131" lon="5.99965">
        <ele>652</ele>
        <time>2011-07-03T08:36:23Z</time>
      </trkpt>
      <trkpt lat="45.76129" lon="5.99962">
        <ele>652</ele>
        <time>2011-07-03T08:36:24Z</time>
      </trkpt>
      <trkpt lat="45.76127" lon="5.9996">
        <ele>652</ele>
        <time>2011-07-03T08:36:25Z</time>
      </trkpt>
      <trkpt lat="45.76125" lon="5.99957">
        <ele>652</ele>
        <time>2011-07-03T08:36:26Z</time>
      </trkpt>
      <trkpt lat="45.76122" lon="5.99955">
        <ele>652</ele>
        <time>2011-07-03T08:36:27Z</time>
      </trkpt>
      <trkpt lat="45.76119" lon="5.99952">
        <ele>652</ele>
        <time>2011-07-03T08:36:28Z</time>
      </trkpt>
      <trkpt lat="45.76114" lon="5.99949">
        <ele>652</ele>
        <time>2011-07-03T08:36:29Z</time>
      </trkpt>
      <trkpt lat="45.7611" lon="5.99946">
        <ele>652</ele>
        <time>2011-07-03T08:36:30Z</time>
      </trkpt>
      <trkpt lat="45.76105" lon="5.99943">
        <ele>652</ele>
        <time>2011-07-03T08:36:31Z</time>
      </trkpt>
      <trkpt lat="45.761" lon="5.9994">
        <ele>652</ele>
        <time>2011-07-03T08:36:32Z</time>
      </trkpt>
      <trkpt lat="45.76095" lon="5.99937">
        <ele>652</ele>
        <time>2011-07-03T08:36:33Z</time>
      </trkpt>
      <trkpt lat="45.7609" lon="5.99934">
        <ele>652</ele>
        <time>2011-07-03T08:36:34Z</time>
      </trkpt>
      <trkpt lat="45.76086" lon="5.99931">
        <ele>652</ele>
        <time>2011-07-03T08:36:35Z</time>
      </trkpt>
      <trkpt lat="45.76081" lon="5.99929">
        <ele>652</ele>
        <time>2011-07-03T08:36:36Z</time>
      </trkpt>
      <trkpt lat="45.76078" lon="5.99926">
        <ele>652</ele>
        <time>2011-07-03T08:36:37Z</time>
      </trkpt>
      <trkpt lat="45.76074" lon="5.99923">
        <ele>652</ele>
        <time>2011-07-03T08:36:38Z</time>
      </trkpt>
      <trkpt lat="45.7607" lon="5.99921">
        <ele>652</ele>
        <time>2011-07-03T08:36:39Z</time>
      </trkpt>
      <trkpt lat="45.76067" lon="5.99918">
        <ele>652</ele>
        <time>2011-07-03T08:36:40Z</time>
      </trkpt>
      <trkpt lat="45.76063" lon="5.99916">
        <ele>652</ele>
        <time>2011-07-03T08:36:41Z</time>
      </trkpt>
      <trkpt lat="45.7606" lon="5.99914">
        <ele>653</ele>
        <time>2011-07-03T08:36:42Z</time>
      </trkpt>
      <trkpt lat="45.76056" lon="5.99912">
        <ele>653</ele>
        <time>2011-07-03T08:36:43Z</time>
      </trkpt>
      <trkpt lat="45.76052" lon="5.99909">
        <ele>653</ele>
        <time>2011-07-03T08:36:44Z</time>
      </trkpt>
      <trkpt lat="45.76048" lon="5.99906">
        <ele>653</ele>
        <time>2011-07-03T08:36:45Z</time>
      </trkpt>
      <trkpt lat="45.76044" lon="5.99902">
        <ele>653</ele>
        <time>2011-07-03T08:36:46Z</time>
      </trkpt>
      <trkpt lat="45.76041" lon="5.99899">
        <ele>653</ele>
        <time>2011-07-03T08:36:47Z</time>
      </trkpt>
      <trkpt lat="45.76038" lon="5.99895">
        <ele>653</ele>
        <time>2011-07-03T08:36:48Z</time>
      </trkpt>
      <trkpt lat="45.76035" lon="5.99891">
        <ele>653</ele>
        <time>2011-07-03T08:36:49Z</time>
      </trkpt>
      <trkpt lat="45.76033" lon="5.99887">
        <ele>653</ele>
        <time>2011-07-03T08:36:50Z</time>
      </trkpt>
      <trkpt lat="45.7603" lon="5.99883">
        <ele>653</ele>
        <time>2011-07-03T08:36:51Z</time>
      </trkpt>
      <trkpt lat="45.76028" lon="5.9988">
        <ele>653</ele>
        <time>2011-07-03T08:36:52Z</time>
      </trkpt>
      <trkpt lat="45.76025" lon="5.99876">
        <ele>653</ele>
        <time>2011-07-03T08:36:53Z</time>
      </trkpt>
      <trkpt lat="45.76022" lon="5.99872">
        <ele>653</ele>
        <time>2011-07-03T08:36:54Z</time>
      </trkpt>
      <trkpt lat="45.76019" lon="5.99869">
        <ele>653</ele>
        <time>2011-07-03T08:36:55Z</time>
      </trkpt>
      <trkpt lat="45.76016" lon="5.99866">
        <ele>653</ele>
        <time>2011-07-03T08:36:56Z</time>
      </trkpt>
      <trkpt lat="45.76013" lon="5.99863">
        <ele>653</ele>
        <time>2011-07-03T08:36:57Z</time>
      </trkpt>
      <trkpt lat="45.7601" lon="5.9986">
        <ele>653</ele>
        <time>2011-07-03T08:36:58Z</time>
      </trkpt>
      <trkpt lat="45.76007" lon="5.99858">
        <ele>653</ele>
        <time>2011-07-03T08:36:59Z</time>
      </trkpt>
      <trkpt lat="45.76003" lon="5.99855">
        <ele>653</ele>
        <time>2011-07-03T08:37:00Z</time>
      </trkpt>
      <trkpt lat="45.76" lon="5.99852">
        <ele>654</ele>
        <time>2011-07-03T08:37:01Z</time>
      </trkpt>
      <trkpt lat="45.75996" lon="5.99849">
        <ele>655</ele>
        <time>2011-07-03T08:37:02Z</time>
      </trkpt>
      <trkpt lat="45.75993" lon="5.99846">
        <ele>655</ele>
        <time>2011-07-03T08:37:03Z</time>
      </trkpt>
      <trkpt lat="45.7599" lon="5.99843">
        <ele>656</ele>
        <time>2011-07-03T08:37:04Z</time>
      </trkpt>
      <trkpt lat="45.75986" lon="5.99839">
        <ele>656</ele>
        <time>2011-07-03T08:37:05Z</time>
      </trkpt>
      <trkpt lat="45.75983" lon="5.99834">
        <ele>656</ele>
        <time>2011-07-03T08:37:06Z</time>
      </trkpt>
      <trkpt lat="45.75979" lon="5.99829">
        <ele>656</ele>
        <time>2011-07-03T08:37:07Z</time>
      </trkpt>
      <trkpt lat="45.75975" lon="5.99824">
        <ele>656</ele>
        <time>2011-07-03T08:37:08Z</time>
      </trkpt>
      <trkpt lat="45.75972" lon="5.99819">
        <ele>656</ele>
        <time>2011-07-03T08:37:09Z</time>
      </trkpt>
      <trkpt lat="45.75969" lon="5.99814">
        <ele>656</ele>
        <time>2011-07-03T08:37:10Z</time>
      </trkpt>
      <trkpt lat="45.75966" lon="5.99808">
        <ele>656</ele>
        <time>2011-07-03T08:37:11Z</time>
      </trkpt>
      <trkpt lat="45.75963" lon="5.99802">
        <ele>656</ele>
        <time>2011-07-03T08:37:12Z</time>
      </trkpt>
      <trkpt lat="45.75961" lon="5.99796">
        <ele>656</ele>
        <time>2011-07-03T08:37:13Z</time>
      </trkpt>
      <trkpt lat="45.75959" lon="5.99791">
        <ele>656</ele>
        <time>2011-07-03T08:37:14Z</time>
      </trkpt>
      <trkpt lat="45.75957" lon="5.99786">
        <ele>655</ele>
        <time>2011-07-03T08:37:15Z</time>
      </trkpt>
      <trkpt lat="45.75954" lon="5.9978">
        <ele>654</ele>
        <time>2011-07-03T08:37:16Z</time>
      </trkpt>
      <trkpt lat="45.75951" lon="5.99774">
        <ele>653</ele>
        <time>2011-07-03T08:37:17Z</time>
      </trkpt>
      <trkpt lat="45.75948" lon="5.99766">
        <ele>652</ele>
        <time>2011-07-03T08:37:18Z</time>
      </trkpt>
      <trkpt lat="45.75944" lon="5.99761">
        <ele>651</ele>
        <time>2011-07-03T08:37:19Z</time>
      </trkpt>
      <trkpt lat="45.75941" lon="5.99756">
        <ele>650</ele>
        <time>2011-07-03T08:37:20Z</time>
      </trkpt>
      <trkpt lat="45.75938" lon="5.99751">
        <ele>649</ele>
        <time>2011-07-03T08:37:21Z</time>
      </trkpt>
      <trkpt lat="45.75936" lon="5.99747">
        <ele>649</ele>
        <time>2011-07-03T08:37:22Z</time>
      </trkpt>
      <trkpt lat="45.75933" lon="5.99742">
        <ele>648</ele>
        <time>2011-07-03T08:37:23Z</time>
      </trkpt>
      <trkpt lat="45.75931" lon="5.99738">
        <ele>648</ele>
        <time>2011-07-03T08:37:24Z</time>
      </trkpt>
      <trkpt lat="45.75928" lon="5.99733">
        <ele>647</ele>
        <time>2011-07-03T08:37:25Z</time>
      </trkpt>
      <trkpt lat="45.75925" lon="5.99727">
        <ele>647</ele>
        <time>2011-07-03T08:37:26Z</time>
      </trkpt>
      <trkpt lat="45.75922" lon="5.99722">
        <ele>646</ele>
        <time>2011-07-03T08:37:27Z</time>
      </trkpt>
      <trkpt lat="45.7592" lon="5.99716">
        <ele>645</ele>
        <time>2011-07-03T08:37:28Z</time>
      </trkpt>
      <trkpt lat="45.75918" lon="5.99712">
        <ele>644</ele>
        <time>2011-07-03T08:37:29Z</time>
      </trkpt>
      <trkpt lat="45.75915" lon="5.99706">
        <ele>644</ele>
        <time>2011-07-03T08:37:30Z</time>
      </trkpt>
      <trkpt lat="45.75911" lon="5.99698">
        <ele>643</ele>
        <time>2011-07-03T08:37:31Z</time>
      </trkpt>
      <trkpt lat="45.75908" lon="5.99691">
        <ele>642</ele>
        <time>2011-07-03T08:37:32Z</time>
      </trkpt>
      <trkpt lat="45.75905" lon="5.99685">
        <ele>642</ele>
        <time>2011-07-03T08:37:33Z</time>
      </trkpt>
      <trkpt lat="45.75903" lon="5.99682">
        <ele>641</ele>
        <time>2011-07-03T08:37:34Z</time>
      </trkpt>
      <trkpt lat="45.75903" lon="5.99679">
        <ele>640</ele>
        <time>2011-07-03T08:37:35Z</time>
      </trkpt>
      <trkpt lat="45.75901" lon="5.99673">
        <ele>639</ele>
        <time>2011-07-03T08:37:36Z</time>
      </trkpt>
      <trkpt lat="45.75899" lon="5.99669">
        <ele>638</ele>
        <time>2011-07-03T08:37:37Z</time>
      </trkpt>
      <trkpt lat="45.75897" lon="5.99664">
        <ele>638</ele>
        <time>2011-07-03T08:37:38Z</time>
      </trkpt>
      <trkpt lat="45.75894" lon="5.99658">
        <ele>637</ele>
        <time>2011-07-03T08:37:39Z</time>
      </trkpt>
      <trkpt lat="45.75891" lon="5.99652">
        <ele>637</ele>
        <time>2011-07-03T08:37:40Z</time>
      </trkpt>
      <trkpt lat="45.75888" lon="5.99646">
        <ele>637</ele>
        <time>2011-07-03T08:37:41Z</time>
      </trkpt>
      <trkpt lat="45.75885" lon="5.9964">
        <ele>637</ele>
        <time>2011-07-03T08:37:42Z</time>
      </trkpt>
      <trkpt lat="45.75884" lon="5.99635">
        <ele>637</ele>
        <time>2011-07-03T08:37:43Z</time>
      </trkpt>
      <trkpt lat="45.75883" lon="5.99629">
        <ele>637</ele>
        <time>2011-07-03T08:37:44Z</time>
      </trkpt>
      <trkpt lat="45.75881" lon="5.99624">
        <ele>636</ele>
        <time>2011-07-03T08:37:45Z</time>
      </trkpt>
      <trkpt lat="45.75879" lon="5.99619">
        <ele>636</ele>
        <time>2011-07-03T08:37:46Z</time>
      </trkpt>
      <trkpt lat="45.75876" lon="5.99613">
        <ele>635</ele>
        <time>2011-07-03T08:37:47Z</time>
      </trkpt>
      <trkpt lat="45.75873" lon="5.99608">
        <ele>635</ele>
        <time>2011-07-03T08:37:48Z</time>
      </trkpt>
      <trkpt lat="45.75872" lon="5.99603">
        <ele>635</ele>
        <time>2011-07-03T08:37:49Z</time>
      </trkpt>
      <trkpt lat="45.75871" lon="5.99599">
        <ele>635</ele>
        <time>2011-07-03T08:37:50Z</time>
      </trkpt>
      <trkpt lat="45.75869" lon="5.99594">
        <ele>635</ele>
        <time>2011-07-03T08:37:51Z</time>
      </trkpt>
      <trkpt lat="45.75868" lon="5.99591">
        <ele>634</ele>
        <time>2011-07-03T08:37:52Z</time>
      </trkpt>
      <trkpt lat="45.75867" lon="5.99586">
        <ele>634</ele>
        <time>2011-07-03T08:37:53Z</time>
      </trkpt>
      <trkpt lat="45.75865" lon="5.99581">
        <ele>634</ele>
        <time>2011-07-03T08:37:54Z</time>
      </trkpt>
      <trkpt lat="45.75863" lon="5.99576">
        <ele>634</ele>
        <time>2011-07-03T08:37:55Z</time>
      </trkpt>
      <trkpt lat="45.75861" lon="5.9957">
        <ele>634</ele>
        <time>2011-07-03T08:37:56Z</time>
      </trkpt>
      <trkpt lat="45.75859" lon="5.99565">
        <ele>634</ele>
        <time>2011-07-03T08:37:57Z</time>
      </trkpt>
      <trkpt lat="45.75857" lon="5.99559">
        <ele>634</ele>
        <time>2011-07-03T08:37:58Z</time>
      </trkpt>
      <trkpt lat="45.75855" lon="5.99553">
        <ele>634</ele>
        <time>2011-07-03T08:37:59Z</time>
      </trkpt>
      <trkpt lat="45.75852" lon="5.99546">
        <ele>633</ele>
        <time>2011-07-03T08:38:00Z</time>
      </trkpt>
      <trkpt lat="45.75849" lon="5.99538">
        <ele>633</ele>
        <time>2011-07-03T08:38:01Z</time>
      </trkpt>
      <trkpt lat="45.75846" lon="5.99531">
        <ele>632</ele>
        <time>2011-07-03T08:38:02Z</time>
      </trkpt>
      <trkpt lat="45.75844" lon="5.99524">
        <ele>631</ele>
        <time>2011-07-03T08:38:03Z</time>
      </trkpt>
      <trkpt lat="45.75842" lon="5.99517">
        <ele>630</ele>
        <time>2011-07-03T08:38:04Z</time>
      </trkpt>
      <trkpt lat="45.75839" lon="5.9951">
        <ele>630</ele>
        <time>2011-07-03T08:38:05Z</time>
      </trkpt>
      <trkpt lat="45.75835" lon="5.99502">
        <ele>629</ele>
        <time>2011-07-03T08:38:06Z</time>
      </trkpt>
      <trkpt lat="45.75832" lon="5.99496">
        <ele>628</ele>
        <time>2011-07-03T08:38:07Z</time>
      </trkpt>
      <trkpt lat="45.75829" lon="5.99489">
        <ele>627</ele>
        <time>2011-07-03T08:38:08Z</time>
      </trkpt>
      <trkpt lat="45.75827" lon="5.99483">
        <ele>626</ele>
        <time>2011-07-03T08:38:09Z</time>
      </trkpt>
      <trkpt lat="45.75824" lon="5.99477">
        <ele>626</ele>
        <time>2011-07-03T08:38:10Z</time>
      </trkpt>
      <trkpt lat="45.75822" lon="5.99472">
        <ele>625</ele>
        <time>2011-07-03T08:38:11Z</time>
      </trkpt>
      <trkpt lat="45.7582" lon="5.99468">
        <ele>624</ele>
        <time>2011-07-03T08:38:12Z</time>
      </trkpt>
      <trkpt lat="45.75819" lon="5.99464">
        <ele>623</ele>
        <time>2011-07-03T08:38:13Z</time>
      </trkpt>
      <trkpt lat="45.75817" lon="5.9946">
        <ele>623</ele>
        <time>2011-07-03T08:38:14Z</time>
      </trkpt>
      <trkpt lat="45.75815" lon="5.99455">
        <ele>622</ele>
        <time>2011-07-03T08:38:15Z</time>
      </trkpt>
      <trkpt lat="45.75814" lon="5.9945">
        <ele>622</ele>
        <time>2011-07-03T08:38:16Z</time>
      </trkpt>
      <trkpt lat="45.75812" lon="5.99445">
        <ele>622</ele>
        <time>2011-07-03T08:38:17Z</time>
      </trkpt>
      <trkpt lat="45.75811" lon="5.9944">
        <ele>622</ele>
        <time>2011-07-03T08:38:18Z</time>
      </trkpt>
      <trkpt lat="45.7581" lon="5.99435">
        <ele>622</ele>
        <time>2011-07-03T08:38:19Z</time>
      </trkpt>
      <trkpt lat="45.75809" lon="5.99429">
        <ele>622</ele>
        <time>2011-07-03T08:38:20Z</time>
      </trkpt>
      <trkpt lat="45.75808" lon="5.99424">
        <ele>622</ele>
        <time>2011-07-03T08:38:21Z</time>
      </trkpt>
      <trkpt lat="45.75806" lon="5.99417">
        <ele>622</ele>
        <time>2011-07-03T08:38:22Z</time>
      </trkpt>
      <trkpt lat="45.75805" lon="5.99411">
        <ele>622</ele>
        <time>2011-07-03T08:38:23Z</time>
      </trkpt>
      <trkpt lat="45.75803" lon="5.99404">
        <ele>622</ele>
        <time>2011-07-03T08:38:24Z</time>
      </trkpt>
      <trkpt lat="45.75803" lon="5.99398">
        <ele>621</ele>
        <time>2011-07-03T08:38:25Z</time>
      </trkpt>
      <trkpt lat="45.75802" lon="5.99392">
        <ele>621</ele>
        <time>2011-07-03T08:38:26Z</time>
      </trkpt>
      <trkpt lat="45.75801" lon="5.99386">
        <ele>621</ele>
        <time>2011-07-03T08:38:27Z</time>
      </trkpt>
      <trkpt lat="45.75799" lon="5.99379">
        <ele>620</ele>
        <time>2011-07-03T08:38:28Z</time>
      </trkpt>
      <trkpt lat="45.75797" lon="5.99373">
        <ele>619</ele>
        <time>2011-07-03T08:38:29Z</time>
      </trkpt>
      <trkpt lat="45.75795" lon="5.99368">
        <ele>619</ele>
        <time>2011-07-03T08:38:30Z</time>
      </trkpt>
      <trkpt lat="45.75792" lon="5.99362">
        <ele>618</ele>
        <time>2011-07-03T08:38:31Z</time>
      </trkpt>
      <trkpt lat="45.75789" lon="5.99356">
        <ele>617</ele>
        <time>2011-07-03T08:38:32Z</time>
      </trkpt>
      <trkpt lat="45.75787" lon="5.9935">
        <ele>617</ele>
        <time>2011-07-03T08:38:33Z</time>
      </trkpt>
      <trkpt lat="45.75784" lon="5.99345">
        <ele>616</ele>
        <time>2011-07-03T08:38:34Z</time>
      </trkpt>
      <trkpt lat="45.75782" lon="5.9934">
        <ele>615</ele>
        <time>2011-07-03T08:38:35Z</time>
      </trkpt>
      <trkpt lat="45.7578" lon="5.99335">
        <ele>614</ele>
        <time>2011-07-03T08:38:36Z</time>
      </trkpt>
      <trkpt lat="45.75778" lon="5.9933">
        <ele>614</ele>
        <time>2011-07-03T08:38:37Z</time>
      </trkpt>
      <trkpt lat="45.75776" lon="5.99325">
        <ele>613</ele>
        <time>2011-07-03T08:38:38Z</time>
      </trkpt>
      <trkpt lat="45.75774" lon="5.9932">
        <ele>613</ele>
        <time>2011-07-03T08:38:39Z</time>
      </trkpt>
      <trkpt lat="45.75774" lon="5.99315">
        <ele>612</ele>
        <time>2011-07-03T08:38:40Z</time>
      </trkpt>
      <trkpt lat="45.75774" lon="5.9931">
        <ele>612</ele>
        <time>2011-07-03T08:38:41Z</time>
      </trkpt>
      <trkpt lat="45.75775" lon="5.99305">
        <ele>611</ele>
        <time>2011-07-03T08:38:42Z</time>
      </trkpt>
      <trkpt lat="45.75775" lon="5.99299">
        <ele>611</ele>
        <time>2011-07-03T08:38:43Z</time>
      </trkpt>
      <trkpt lat="45.75777" lon="5.99294">
        <ele>611</ele>
        <time>2011-07-03T08:38:44Z</time>
      </trkpt>
      <trkpt lat="45.75779" lon="5.99288">
        <ele>610</ele>
        <time>2011-07-03T08:38:45Z</time>
      </trkpt>
      <trkpt lat="45.75783" lon="5.99284">
        <ele>610</ele>
        <time>2011-07-03T08:38:46Z</time>
      </trkpt>
      <trkpt lat="45.75788" lon="5.99279">
        <ele>610</ele>
        <time>2011-07-03T08:38:47Z</time>
      </trkpt>
      <trkpt lat="45.75793" lon="5.99273">
        <ele>610</ele>
        <time>2011-07-03T08:38:48Z</time>
      </trkpt>
      <trkpt lat="45.75798" lon="5.99268">
        <ele>610</ele>
        <time>2011-07-03T08:38:49Z</time>
      </trkpt>
      <trkpt lat="45.75803" lon="5.99262">
        <ele>610</ele>
        <time>2011-07-03T08:38:50Z</time>
      </trkpt>
      <trkpt lat="45.75808" lon="5.99256">
        <ele>610</ele>
        <time>2011-07-03T08:38:51Z</time>
      </trkpt>
      <trkpt lat="45.75812" lon="5.99251">
        <ele>610</ele>
        <time>2011-07-03T08:38:52Z</time>
      </trkpt>
      <trkpt lat="45.75816" lon="5.99247">
        <ele>610</ele>
        <time>2011-07-03T08:38:53Z</time>
      </trkpt>
      <trkpt lat="45.75819" lon="5.99242">
        <ele>610</ele>
        <time>2011-07-03T08:38:54Z</time>
      </trkpt>
      <trkpt lat="45.75822" lon="5.99238">
        <ele>610</ele>
        <time>2011-07-03T08:38:55Z</time>
      </trkpt>
      <trkpt lat="45.75826" lon="5.99235">
        <ele>610</ele>
        <time>2011-07-03T08:38:56Z</time>
      </trkpt>
      <trkpt lat="45.75829" lon="5.99231">
        <ele>610</ele>
        <time>2011-07-03T08:38:57Z</time>
      </trkpt>
      <trkpt lat="45.75832" lon="5.99227">
        <ele>610</ele>
        <time>2011-07-03T08:38:58Z</time>
      </trkpt>
      <trkpt lat="45.75836" lon="5.99223">
        <ele>610</ele>
        <time>2011-07-03T08:38:59Z</time>
      </trkpt>
      <trkpt lat="45.7584" lon="5.99218">
        <ele>610</ele>
        <time>2011-07-03T08:39:00Z</time>
      </trkpt>
      <trkpt lat="45.75845" lon="5.99212">
        <ele>610</ele>
        <time>2011-07-03T08:39:01Z</time>
      </trkpt>
      <trkpt lat="45.75849" lon="5.99206">
        <ele>610</ele>
        <time>2011-07-03T08:39:02Z</time>
      </trkpt>
      <trkpt lat="45.75854" lon="5.992">
        <ele>610</ele>
        <time>2011-07-03T08:39:03Z</time>
      </trkpt>
      <trkpt lat="45.7586" lon="5.99194">
        <ele>610</ele>
        <time>2011-07-03T08:39:04Z</time>
      </trkpt>
      <trkpt lat="45.75864" lon="5.99189">
        <ele>610</ele>
        <time>2011-07-03T08:39:05Z</time>
      </trkpt>
      <trkpt lat="45.75869" lon="5.99183">
        <ele>610</ele>
        <time>2011-07-03T08:39:06Z</time>
      </trkpt>
      <trkpt lat="45.75874" lon="5.99178">
        <ele>610</ele>
        <time>2011-07-03T08:39:07Z</time>
      </trkpt>
      <trkpt lat="45.75878" lon="5.99173">
        <ele>610</ele>
        <time>2011-07-03T08:39:08Z</time>
      </trkpt>
      <trkpt lat="45.75882" lon="5.99167">
        <ele>610</ele>
        <time>2011-07-03T08:39:09Z</time>
      </trkpt>
      <trkpt lat="45.75885" lon="5.99159">
        <ele>610</ele>
        <time>2011-07-03T08:39:10Z</time>
      </trkpt>
      <trkpt lat="45.75888" lon="5.99151">
        <ele>610</ele>
        <time>2011-07-03T08:39:11Z</time>
      </trkpt>
      <trkpt lat="45.7589" lon="5.99142">
        <ele>610</ele>
        <time>2011-07-03T08:39:12Z</time>
      </trkpt>
      <trkpt lat="45.75894" lon="5.99132">
        <ele>610</ele>
        <time>2011-07-03T08:39:13Z</time>
      </trkpt>
      <trkpt lat="45.75897" lon="5.99123">
        <ele>609</ele>
        <time>2011-07-03T08:39:14Z</time>
      </trkpt>
      <trkpt lat="45.75899" lon="5.99113">
        <ele>609</ele>
        <time>2011-07-03T08:39:15Z</time>
      </trkpt>
      <trkpt lat="45.75902" lon="5.99104">
        <ele>609</ele>
        <time>2011-07-03T08:39:16Z</time>
      </trkpt>
      <trkpt lat="45.75905" lon="5.99099">
        <ele>609</ele>
        <time>2011-07-03T08:39:17Z</time>
      </trkpt>
      <trkpt lat="45.75908" lon="5.99093">
        <ele>608</ele>
        <time>2011-07-03T08:39:18Z</time>
      </trkpt>
      <trkpt lat="45.75911" lon="5.99088">
        <ele>608</ele>
        <time>2011-07-03T08:39:19Z</time>
      </trkpt>
      <trkpt lat="45.75914" lon="5.99083">
        <ele>607</ele>
        <time>2011-07-03T08:39:20Z</time>
      </trkpt>
      <trkpt lat="45.75916" lon="5.9908">
        <ele>607</ele>
        <time>2011-07-03T08:39:21Z</time>
      </trkpt>
      <trkpt lat="45.75918" lon="5.99077">
        <ele>607</ele>
        <time>2011-07-03T08:39:22Z</time>
      </trkpt>
      <trkpt lat="45.75917" lon="5.99073">
        <ele>606</ele>
        <time>2011-07-03T08:39:23Z</time>
      </trkpt>
      <trkpt lat="45.75916" lon="5.9907">
        <ele>605</ele>
        <time>2011-07-03T08:39:24Z</time>
      </trkpt>
      <trkpt lat="45.75912" lon="5.99068">
        <ele>605</ele>
        <time>2011-07-03T08:39:25Z</time>
      </trkpt>
      <trkpt lat="45.75907" lon="5.99067">
        <ele>604</ele>
        <time>2011-07-03T08:39:26Z</time>
      </trkpt>
      <trkpt lat="45.759" lon="5.99066">
        <ele>603</ele>
        <time>2011-07-03T08:39:27Z</time>
      </trkpt>
      <trkpt lat="45.75895" lon="5.99065">
        <ele>603</ele>
        <time>2011-07-03T08:39:28Z</time>
      </trkpt>
      <trkpt lat="45.75888" lon="5.99065">
        <ele>602</ele>
        <time>2011-07-03T08:39:29Z</time>
      </trkpt>
      <trkpt lat="45.75882" lon="5.99064">
        <ele>601</ele>
        <time>2011-07-03T08:39:30Z</time>
      </trkpt>
      <trkpt lat="45.75877" lon="5.99061">
        <ele>600</ele>
        <time>2011-07-03T08:39:31Z</time>
      </trkpt>
      <trkpt lat="45.75873" lon="5.99056">
        <ele>600</ele>
        <time>2011-07-03T08:39:32Z</time>
      </trkpt>
      <trkpt lat="45.75872" lon="5.9905">
        <ele>599</ele>
        <time>2011-07-03T08:39:33Z</time>
      </trkpt>
      <trkpt lat="45.75871" lon="5.99042">
        <ele>598</ele>
        <time>2011-07-03T08:39:34Z</time>
      </trkpt>
      <trkpt lat="45.75873" lon="5.99034">
        <ele>598</ele>
        <time>2011-07-03T08:39:35Z</time>
      </trkpt>
      <trkpt lat="45.75873" lon="5.99026">
        <ele>597</ele>
        <time>2011-07-03T08:39:36Z</time>
      </trkpt>
      <trkpt lat="45.7587" lon="5.99017">
        <ele>597</ele>
        <time>2011-07-03T08:39:37Z</time>
      </trkpt>
      <trkpt lat="45.75866" lon="5.99009">
        <ele>596</ele>
        <time>2011-07-03T08:39:38Z</time>
      </trkpt>
      <trkpt lat="45.75861" lon="5.99">
        <ele>595</ele>
        <time>2011-07-03T08:39:39Z</time>
      </trkpt>
      <trkpt lat="45.75854" lon="5.98992">
        <ele>594</ele>
        <time>2011-07-03T08:39:40Z</time>
      </trkpt>
      <trkpt lat="45.75848" lon="5.98985">
        <ele>593</ele>
        <time>2011-07-03T08:39:41Z</time>
      </trkpt>
      <trkpt lat="45.75843" lon="5.98978">
        <ele>592</ele>
        <time>2011-07-03T08:39:42Z</time>
      </trkpt>
      <trkpt lat="45.75838" lon="5.98972">
        <ele>591</ele>
        <time>2011-07-03T08:39:43Z</time>
      </trkpt>
      <trkpt lat="45.75834" lon="5.98965">
        <ele>590</ele>
        <time>2011-07-03T08:39:44Z</time>
      </trkpt>
      <trkpt lat="45.75829" lon="5.98958">
        <ele>589</ele>
        <time>2011-07-03T08:39:45Z</time>
      </trkpt>
      <trkpt lat="45.75823" lon="5.98952">
        <ele>588</ele>
        <time>2011-07-03T08:39:46Z</time>
      </trkpt>
      <trkpt lat="45.75818" lon="5.98947">
        <ele>587</ele>
        <time>2011-07-03T08:39:47Z</time>
      </trkpt>
      <trkpt lat="45.75811" lon="5.98943">
        <ele>586</ele>
        <time>2011-07-03T08:39:48Z</time>
      </trkpt>
      <trkpt lat="45.75804" lon="5.9894">
        <ele>585</ele>
        <time>2011-07-03T08:39:49Z</time>
      </trkpt>
      <trkpt lat="45.75797" lon="5.98936">
        <ele>584</ele>
        <time>2011-07-03T08:39:50Z</time>
      </trkpt>
      <trkpt lat="45.7579" lon="5.98933">
        <ele>583</ele>
        <time>2011-07-03T08:39:51Z</time>
      </trkpt>
      <trkpt lat="45.75785" lon="5.9893">
        <ele>582</ele>
        <time>2011-07-03T08:39:52Z</time>
      </trkpt>
      <trkpt lat="45.7578" lon="5.98928">
        <ele>581</ele>
        <time>2011-07-03T08:39:53Z</time>
      </trkpt>
      <trkpt lat="45.75776" lon="5.98925">
        <ele>581</ele>
        <time>2011-07-03T08:39:54Z</time>
      </trkpt>
      <trkpt lat="45.75771" lon="5.98924">
        <ele>580</ele>
        <time>2011-07-03T08:39:55Z</time>
      </trkpt>
      <trkpt lat="45.75768" lon="5.98922">
        <ele>580</ele>
        <time>2011-07-03T08:39:56Z</time>
      </trkpt>
      <trkpt lat="45.75764" lon="5.98919">
        <ele>579</ele>
        <time>2011-07-03T08:39:57Z</time>
      </trkpt>
      <trkpt lat="45.75761" lon="5.98913">
        <ele>579</ele>
        <time>2011-07-03T08:39:58Z</time>
      </trkpt>
      <trkpt lat="45.75758" lon="5.98907">
        <ele>578</ele>
        <time>2011-07-03T08:39:59Z</time>
      </trkpt>
      <trkpt lat="45.75757" lon="5.98899">
        <ele>578</ele>
        <time>2011-07-03T08:40:00Z</time>
      </trkpt>
      <trkpt lat="45.75756" lon="5.9889">
        <ele>578</ele>
        <time>2011-07-03T08:40:01Z</time>
      </trkpt>
      <trkpt lat="45.75755" lon="5.98884">
        <ele>578</ele>
        <time>2011-07-03T08:40:02Z</time>
      </trkpt>
      <trkpt lat="45.75755" lon="5.98879">
        <ele>578</ele>
        <time>2011-07-03T08:40:03Z</time>
      </trkpt>
      <trkpt lat="45.75756" lon="5.98874">
        <ele>578</ele>
        <time>2011-07-03T08:40:04Z</time>
      </trkpt>
      <trkpt lat="45.75758" lon="5.98869">
        <ele>578</ele>
        <time>2011-07-03T08:40:05Z</time>
      </trkpt>
      <trkpt lat="45.75761" lon="5.98866">
        <ele>578</ele>
        <time>2011-07-03T08:40:06Z</time>
      </trkpt>
      <trkpt lat="45.75766" lon="5.98864">
        <ele>578</ele>
        <time>2011-07-03T08:40:07Z</time>
      </trkpt>
      <trkpt lat="45.7577" lon="5.98862">
        <ele>578</ele>
        <time>2011-07-03T08:40:08Z</time>
      </trkpt>
      <trkpt lat="45.75775" lon="5.98859">
        <ele>578</ele>
        <time>2011-07-03T08:40:09Z</time>
      </trkpt>
      <trkpt lat="45.7578" lon="5.98854">
        <ele>578</ele>
        <time>2011-07-03T08:40:10Z</time>
      </trkpt>
      <trkpt lat="45.75786" lon="5.98848">
        <ele>578</ele>
        <time>2011-07-03T08:40:11Z</time>
      </trkpt>
      <trkpt lat="45.7579" lon="5.9884">
        <ele>578</ele>
        <time>2011-07-03T08:40:12Z</time>
      </trkpt>
      <trkpt lat="45.75795" lon="5.98832">
        <ele>578</ele>
        <time>2011-07-03T08:40:13Z</time>
      </trkpt>
      <trkpt lat="45.75799" lon="5.98823">
        <ele>578</ele>
        <time>2011-07-03T08:40:14Z</time>
      </trkpt>
      <trkpt lat="45.75804" lon="5.98815">
        <ele>578</ele>
        <time>2011-07-03T08:40:15Z</time>
      </trkpt>
      <trkpt lat="45.75809" lon="5.98808">
        <ele>577</ele>
        <time>2011-07-03T08:40:16Z</time>
      </trkpt>
      <trkpt lat="45.75814" lon="5.98801">
        <ele>577</ele>
        <time>2011-07-03T08:40:17Z</time>
      </trkpt>
      <trkpt lat="45.75819" lon="5.98795">
        <ele>577</ele>
        <time>2011-07-03T08:40:18Z</time>
      </trkpt>
      <trkpt lat="45.75823" lon="5.98788">
        <ele>576</ele>
        <time>2011-07-03T08:40:19Z</time>
      </trkpt>
      <trkpt lat="45.75827" lon="5.98782">
        <ele>576</ele>
        <time>2011-07-03T08:40:20Z</time>
      </trkpt>
      <trkpt lat="45.75832" lon="5.98777">
        <ele>575</ele>
        <time>2011-07-03T08:40:21Z</time>
      </trkpt>
      <trkpt lat="45.75836" lon="5.98774">
        <ele>575</ele>
        <time>2011-07-03T08:40:22Z</time>
      </trkpt>
      <trkpt lat="45.75839" lon="5.9877">
        <ele>575</ele>
        <time>2011-07-03T08:40:23Z</time>
      </trkpt>
      <trkpt lat="45.75843" lon="5.98767">
        <ele>575</ele>
        <time>2011-07-03T08:40:24Z</time>
      </trkpt>
      <trkpt lat="45.75845" lon="5.98764">
        <ele>574</ele>
        <time>2011-07-03T08:40:25Z</time>
      </trkpt>
      <trkpt lat="45.75848" lon="5.98761">
        <ele>574</ele>
        <time>2011-07-03T08:40:26Z</time>
      </trkpt>
      <trkpt lat="45.7585" lon="5.98757">
        <ele>574</ele>
        <time>2011-07-03T08:40:27Z</time>
      </trkpt>
      <trkpt lat="45.7585" lon="5.98752">
        <ele>574</ele>
        <time>2011-07-03T08:40:28Z</time>
      </trkpt>
      <trkpt lat="45.75849" lon="5.98747">
        <ele>573</ele>
        <time>2011-07-03T08:40:29Z</time>
      </trkpt>
      <trkpt lat="45.75848" lon="5.98743">
        <ele>572</ele>
        <time>2011-07-03T08:40:30Z</time>
      </trkpt>
      <trkpt lat="45.75846" lon="5.98739">
        <ele>572</ele>
        <time>2011-07-03T08:40:31Z</time>
      </trkpt>
      <trkpt lat="45.75843" lon="5.98735">
        <ele>571</ele>
        <time>2011-07-03T08:40:32Z</time>
      </trkpt>
      <trkpt lat="45.75841" lon="5.98732">
        <ele>570</ele>
        <time>2011-07-03T08:40:33Z</time>
      </trkpt>
      <trkpt lat="45.75838" lon="5.9873">
        <ele>569</ele>
        <time>2011-07-03T08:40:34Z</time>
      </trkpt>
      <trkpt lat="45.75834" lon="5.98728">
        <ele>568</ele>
        <time>2011-07-03T08:40:35Z</time>
      </trkpt>
      <trkpt lat="45.75831" lon="5.98727">
        <ele>568</ele>
        <time>2011-07-03T08:40:36Z</time>
      </trkpt>
      <trkpt lat="45.75829" lon="5.98727">
        <ele>567</ele>
        <time>2011-07-03T08:40:37Z</time>
      </trkpt>
      <trkpt lat="45.75827" lon="5.98727">
        <ele>567</ele>
        <time>2011-07-03T08:40:38Z</time>
      </trkpt>
      <trkpt lat="45.75825" lon="5.98726">
        <ele>567</ele>
        <time>2011-07-03T08:40:39Z</time>
      </trkpt>
      <trkpt lat="45.75823" lon="5.98726">
        <ele>567</ele>
        <time>2011-07-03T08:40:40Z</time>
      </trkpt>
      <trkpt lat="45.75821" lon="5.98725">
        <ele>567</ele>
        <time>2011-07-03T08:40:41Z</time>
      </trkpt>
      <trkpt lat="45.75819" lon="5.98725">
        <ele>567</ele>
        <time>2011-07-03T08:40:42Z</time>
      </trkpt>
      <trkpt lat="45.75817" lon="5.98725">
        <ele>567</ele>
        <time>2011-07-03T08:40:43Z</time>
      </trkpt>
      <trkpt lat="45.75815" lon="5.98725">
        <ele>567</ele>
        <time>2011-07-03T08:40:44Z</time>
      </trkpt>
      <trkpt lat="45.75814" lon="5.98724">
        <ele>567</ele>
        <time>2011-07-03T08:40:45Z</time>
      </trkpt>
      <trkpt lat="45.75812" lon="5.98724">
        <ele>567</ele>
        <time>2011-07-03T08:40:46Z</time>
      </trkpt>
      <trkpt lat="45.75809" lon="5.98724">
        <ele>567</ele>
        <time>2011-07-03T08:40:47Z</time>
      </trkpt>
      <trkpt lat="45.75806" lon="5.98724">
        <ele>567</ele>
        <time>2011-07-03T08:40:48Z</time>
      </trkpt>
      <trkpt lat="45.75804" lon="5.98723">
        <ele>567</ele>
        <time>2011-07-03T08:40:49Z</time>
      </trkpt>
      <trkpt lat="45.75802" lon="5.98723">
        <ele>567</ele>
        <time>2011-07-03T08:40:50Z</time>
      </trkpt>
      <trkpt lat="45.758" lon="5.98722">
        <ele>567</ele>
        <time>2011-07-03T08:40:51Z</time>
      </trkpt>
      <trkpt lat="45.75797" lon="5.98722">
        <ele>567</ele>
        <time>2011-07-03T08:40:52Z</time>
      </trkpt>
      <trkpt lat="45.75795" lon="5.98722">
        <ele>567</ele>
        <time>2011-07-03T08:40:53Z</time>
      </trkpt>
      <trkpt lat="45.75793" lon="5.98722">
        <ele>567</ele>
        <time>2011-07-03T08:40:54Z</time>
      </trkpt>
      <trkpt lat="45.75791" lon="5.98722">
        <ele>567</ele>
        <time>2011-07-03T08:40:55Z</time>
      </trkpt>
      <trkpt lat="45.7579" lon="5.98722">
        <ele>567</ele>
        <time>2011-07-03T08:40:56Z</time>
      </trkpt>
      <trkpt lat="45.75788" lon="5.98722">
        <ele>567</ele>
        <time>2011-07-03T08:40:57Z</time>
      </trkpt>
      <trkpt lat="45.75786" lon="5.98722">
        <ele>567</ele>
        <time>2011-07-03T08:40:58Z</time>
      </trkpt>
      <trkpt lat="45.75785" lon="5.98722">
        <ele>567</ele>
        <time>2011-07-03T08:40:59Z</time>
      </trkpt>
      <trkpt lat="45.75783" lon="5.98722">
        <ele>567</ele>
        <time>2011-07-03T08:41:00Z</time>
      </trkpt>
      <trkpt lat="45.75781" lon="5.98722">
        <ele>567</ele>
        <time>2011-07-03T08:41:01Z</time>
      </trkpt>
      <trkpt lat="45.75779" lon="5.98722">
        <ele>567</ele>
        <time>2011-07-03T08:41:02Z</time>
      </trkpt>
      <trkpt lat="45.75778" lon="5.98722">
        <ele>567</ele>
        <time>2011-07-03T08:41:03Z</time>
      </trkpt>
      <trkpt lat="45.75776" lon="5.98722">
        <ele>567</ele>
        <time>2011-07-03T08:41:04Z</time>
      </trkpt>
      <trkpt lat="45.75774" lon="5.98722">
        <ele>567</ele>
        <time>2011-07-03T08:41:05Z</time>
      </trkpt>
      <trkpt lat="45.75773" lon="5.98722">
        <ele>567</ele>
        <time>2011-07-03T08:41:06Z</time>
      </trkpt>
      <trkpt lat="45.75771" lon="5.98722">
        <ele>567</ele>
        <time>2011-07-03T08:41:07Z</time>
      </trkpt>
      <trkpt lat="45.75769" lon="5.98721">
        <ele>567</ele>
        <time>2011-07-03T08:41:08Z</time>
      </trkpt>
      <trkpt lat="45.75767" lon="5.98721">
        <ele>567</ele>
        <time>2011-07-03T08:41:09Z</time>
      </trkpt>
      <trkpt lat="45.75766" lon="5.98721">
        <ele>567</ele>
        <time>2011-07-03T08:41:10Z</time>
      </trkpt>
      <trkpt lat="45.75764" lon="5.98721">
        <ele>567</ele>
        <time>2011-07-03T08:41:11Z</time>
      </trkpt>
      <trkpt lat="45.75762" lon="5.9872">
        <ele>567</ele>
        <time>2011-07-03T08:41:12Z</time>
      </trkpt>
      <trkpt lat="45.75761" lon="5.9872">
        <ele>567</ele>
        <time>2011-07-03T08:41:13Z</time>
      </trkpt>
      <trkpt lat="45.75759" lon="5.9872">
        <ele>567</ele>
        <time>2011-07-03T08:41:14Z</time>
      </trkpt>
      <trkpt lat="45.75757" lon="5.9872">
        <ele>567</ele>
        <time>2011-07-03T08:41:15Z</time>
      </trkpt>
      <trkpt lat="45.75755" lon="5.9872">
        <ele>567</ele>
        <time>2011-07-03T08:41:16Z</time>
      </trkpt>
      <trkpt lat="45.75754" lon="5.98719">
        <ele>567</ele>
        <time>2011-07-03T08:41:17Z</time>
      </trkpt>
      <trkpt lat="45.75752" lon="5.98719">
        <ele>567</ele>
        <time>2011-07-03T08:41:18Z</time>
      </trkpt>
      <trkpt lat="45.7575" lon="5.98719">
        <ele>567</ele>
        <time>2011-07-03T08:41:19Z</time>
      </trkpt>
      <trkpt lat="45.75748" lon="5.98719">
        <ele>567</ele>
        <time>2011-07-03T08:41:20Z</time>
      </trkpt>
      <trkpt lat="45.75746" lon="5.98719">
        <ele>567</ele>
        <time>2011-07-03T08:41:21Z</time>
      </trkpt>
      <trkpt lat="45.75745" lon="5.98719">
        <ele>567</ele>
        <time>2011-07-03T08:41:22Z</time>
      </trkpt>
      <trkpt lat="45.75743" lon="5.98718">
        <ele>567</ele>
        <time>2011-07-03T08:41:23Z</time>
      </trkpt>
      <trkpt lat="45.75741" lon="5.98718">
        <ele>567</ele>
        <time>2011-07-03T08:41:24Z</time>
      </trkpt>
      <trkpt lat="45.7574" lon="5.98718">
        <ele>567</ele>
        <time>2011-07-03T08:41:25Z</time>
      </trkpt>
      <trkpt lat="45.75739" lon="5.98718">
        <ele>567</ele>
        <time>2011-07-03T08:41:26Z</time>
      </trkpt>
      <trkpt lat="45.75737" lon="5.98718">
        <ele>567</ele>
        <time>2011-07-03T08:41:27Z</time>
      </trkpt>
      <trkpt lat="45.75735" lon="5.98718">
        <ele>567</ele>
        <time>2011-07-03T08:41:28Z</time>
      </trkpt>
      <trkpt lat="45.75734" lon="5.98717">
        <ele>567</ele>
        <time>2011-07-03T08:41:29Z</time>
      </trkpt>
      <trkpt lat="45.75732" lon="5.98717">
        <ele>567</ele>
        <time>2011-07-03T08:41:30Z</time>
      </trkpt>
      <trkpt lat="45.75731" lon="5.98717">
        <ele>567</ele>
        <time>2011-07-03T08:41:31Z</time>
      </trkpt>
      <trkpt lat="45.75729" lon="5.98717">
        <ele>567</ele>
        <time>2011-07-03T08:41:32Z</time>
      </trkpt>
      <trkpt lat="45.75727" lon="5.98717">
        <ele>567</ele>
        <time>2011-07-03T08:41:33Z</time>
      </trkpt>
      <trkpt lat="45.75726" lon="5.98716">
        <ele>567</ele>
        <time>2011-07-03T08:41:34Z</time>
      </trkpt>
      <trkpt lat="45.75725" lon="5.98716">
        <ele>567</ele>
        <time>2011-07-03T08:41:35Z</time>
      </trkpt>
      <trkpt lat="45.75723" lon="5.98715">
        <ele>567</ele>
        <time>2011-07-03T08:41:36Z</time>
      </trkpt>
      <trkpt lat="45.75721" lon="5.98715">
        <ele>567</ele>
        <time>2011-07-03T08:41:37Z</time>
      </trkpt>
      <trkpt lat="45.75719" lon="5.98716">
        <ele>567</ele>
        <time>2011-07-03T08:41:38Z</time>
      </trkpt>
      <trkpt lat="45.75718" lon="5.98717">
        <ele>567</ele>
        <time>2011-07-03T08:41:39Z</time>
      </trkpt>
      <trkpt lat="45.75717" lon="5.98718">
        <ele>567</ele>
        <time>2011-07-03T08:41:40Z</time>
      </trkpt>
      <trkpt lat="45.75715" lon="5.9872">
        <ele>567</ele>
        <time>2011-07-03T08:41:41Z</time>
      </trkpt>
      <trkpt lat="45.75714" lon="5.98722">
        <ele>567</ele>
        <time>2011-07-03T08:41:42Z</time>
      </trkpt>
      <trkpt lat="45.75712" lon="5.98723">
        <ele>567</ele>
        <time>2011-07-03T08:41:43Z</time>
      </trkpt>
      <trkpt lat="45.75711" lon="5.98723">
        <ele>567</ele>
        <time>2011-07-03T08:41:44Z</time>
      </trkpt>
      <trkpt lat="45.75709" lon="5.98724">
        <ele>567</ele>
        <time>2011-07-03T08:41:45Z</time>
      </trkpt>
      <trkpt lat="45.75706" lon="5.98725">
        <ele>567</ele>
        <time>2011-07-03T08:41:46Z</time>
      </trkpt>
      <trkpt lat="45.75704" lon="5.98725">
        <ele>567</ele>
        <time>2011-07-03T08:41:47Z</time>
      </trkpt>
      <trkpt lat="45.75701" lon="5.98724">
        <ele>567</ele>
        <time>2011-07-03T08:41:48Z</time>
      </trkpt>
      <trkpt lat="45.75699" lon="5.98722">
        <ele>567</ele>
        <time>2011-07-03T08:41:49Z</time>
      </trkpt>
      <trkpt lat="45.75697" lon="5.98722">
        <ele>567</ele>
        <time>2011-07-03T08:41:50Z</time>
      </trkpt>
      <trkpt lat="45.75693" lon="5.98722">
        <ele>567</ele>
        <time>2011-07-03T08:41:51Z</time>
      </trkpt>
      <trkpt lat="45.7569" lon="5.98722">
        <ele>567</ele>
        <time>2011-07-03T08:41:52Z</time>
      </trkpt>
      <trkpt lat="45.75687" lon="5.98722">
        <ele>567</ele>
        <time>2011-07-03T08:41:53Z</time>
      </trkpt>
      <trkpt lat="45.75685" lon="5.98722">
        <ele>567</ele>
        <time>2011-07-03T08:41:54Z</time>
      </trkpt>
      <trkpt lat="45.75682" lon="5.98722">
        <ele>567</ele>
        <time>2011-07-03T08:41:55Z</time>
      </trkpt>
      <trkpt lat="45.75681" lon="5.98722">
        <ele>567</ele>
        <time>2011-07-03T08:41:56Z</time>
      </trkpt>
      <trkpt lat="45.75679" lon="5.98722">
        <ele>567</ele>
        <time>2011-07-03T08:41:57Z</time>
      </trkpt>
      <trkpt lat="45.75677" lon="5.98722">
        <ele>567</ele>
        <time>2011-07-03T08:41:58Z</time>
      </trkpt>
      <trkpt lat="45.75676" lon="5.98722">
        <ele>567</ele>
        <time>2011-07-03T08:41:59Z</time>
      </trkpt>
      <trkpt lat="45.75674" lon="5.98722">
        <ele>567</ele>
        <time>2011-07-03T08:42:00Z</time>
      </trkpt>
      <trkpt lat="45.75672" lon="5.98722">
        <ele>567</ele>
        <time>2011-07-03T08:42:01Z</time>
      </trkpt>
      <trkpt lat="45.75671" lon="5.98723">
        <ele>567</ele>
        <time>2011-07-03T08:42:02Z</time>
      </trkpt>
      <trkpt lat="45.75669" lon="5.98724">
        <ele>567</ele>
        <time>2011-07-03T08:42:03Z</time>
      </trkpt>
      <trkpt lat="45.75668" lon="5.98725">
        <ele>567</ele>
        <time>2011-07-03T08:42:04Z</time>
      </trkpt>
      <trkpt lat="45.75666" lon="5.98727">
        <ele>567</ele>
        <time>2011-07-03T08:42:05Z</time>
      </trkpt>
      <trkpt lat="45.75665" lon="5.98729">
        <ele>567</ele>
        <time>2011-07-03T08:42:06Z</time>
      </trkpt>
      <trkpt lat="45.75664" lon="5.9873">
        <ele>567</ele>
        <time>2011-07-03T08:42:07Z</time>
      </trkpt>
      <trkpt lat="45.75662" lon="5.98732">
        <ele>567</ele>
        <time>2011-07-03T08:42:08Z</time>
      </trkpt>
      <trkpt lat="45.75661" lon="5.98733">
        <ele>567</ele>
        <time>2011-07-03T08:42:09Z</time>
      </trkpt>
      <trkpt lat="45.75659" lon="5.98734">
        <ele>567</ele>
        <time>2011-07-03T08:42:10Z</time>
      </trkpt>
      <trkpt lat="45.75657" lon="5.98734">
        <ele>567</ele>
        <time>2011-07-03T08:42:11Z</time>
      </trkpt>
      <trkpt lat="45.75656" lon="5.98734">
        <ele>567</ele>
        <time>2011-07-03T08:42:12Z</time>
      </trkpt>
      <trkpt lat="45.75655" lon="5.98734">
        <ele>567</ele>
        <time>2011-07-03T08:42:13Z</time>
      </trkpt>
      <trkpt lat="45.75653" lon="5.98734">
        <ele>567</ele>
        <time>2011-07-03T08:42:14Z</time>
      </trkpt>
      <trkpt lat="45.75651" lon="5.98734">
        <ele>567</ele>
        <time>2011-07-03T08:42:15Z</time>
      </trkpt>
      <trkpt lat="45.7565" lon="5.98734">
        <ele>567</ele>
        <time>2011-07-03T08:42:16Z</time>
      </trkpt>
      <trkpt lat="45.75648" lon="5.98733">
        <ele>567</ele>
        <time>2011-07-03T08:42:17Z</time>
      </trkpt>
      <trkpt lat="45.75646" lon="5.98731">
        <ele>567</ele>
        <time>2011-07-03T08:42:18Z</time>
      </trkpt>
      <trkpt lat="45.75644" lon="5.98729">
        <ele>567</ele>
        <time>2011-07-03T08:42:19Z</time>
      </trkpt>
      <trkpt lat="45.75642" lon="5.98726">
        <ele>567</ele>
        <time>2011-07-03T08:42:20Z</time>
      </trkpt>
      <trkpt lat="45.7564" lon="5.98722">
        <ele>567</ele>
        <time>2011-07-03T08:42:21Z</time>
      </trkpt>
      <trkpt lat="45.75637" lon="5.9872">
        <ele>567</ele>
        <time>2011-07-03T08:42:22Z</time>
      </trkpt>
      <trkpt lat="45.75635" lon="5.98721">
        <ele>567</ele>
        <time>2011-07-03T08:42:23Z</time>
      </trkpt>
      <trkpt lat="45.75632" lon="5.98721">
        <ele>567</ele>
        <time>2011-07-03T08:42:24Z</time>
      </trkpt>
      <trkpt lat="45.7563" lon="5.98722">
        <ele>567</ele>
        <time>2011-07-03T08:42:25Z</time>
      </trkpt>
      <trkpt lat="45.75629" lon="5.98723">
        <ele>567</ele>
        <time>2011-07-03T08:42:26Z</time>
      </trkpt>
      <trkpt lat="45.75627" lon="5.98725">
        <ele>567</ele>
        <time>2011-07-03T08:42:28Z</time>
      </trkpt>
      <trkpt lat="45.75627" lon="5.98727">
        <ele>566</ele>
        <time>2011-07-03T08:42:32Z</time>
      </trkpt>
      <trkpt lat="45.75626" lon="5.98725">
        <ele>564</ele>
        <time>2011-07-03T08:42:41Z</time>
      </trkpt>
      <trkpt lat="45.75625" lon="5.98724">
        <ele>561</ele>
        <time>2011-07-03T08:42:55Z</time>
      </trkpt>
      <trkpt lat="45.75625" lon="5.98723">
        <ele>553</ele>
        <time>2011-07-03T08:43:23Z</time>
      </trkpt>
      <trkpt lat="45.75626" lon="5.98721">
        <ele>548</ele>
        <time>2011-07-03T08:43:37Z</time>
      </trkpt>
      <trkpt lat="45.75627" lon="5.9872">
        <ele>544</ele>
        <time>2011-07-03T08:43:52Z</time>
      </trkpt>
      <trkpt lat="45.75626" lon="5.98718">
        <ele>538</ele>
        <time>2011-07-03T08:44:08Z</time>
      </trkpt>
      <trkpt lat="45.75624" lon="5.98717">
        <ele>538</ele>
        <time>2011-07-03T08:44:12Z</time>
      </trkpt>
      <trkpt lat="45.75623" lon="5.98716">
        <ele>538</ele>
        <time>2011-07-03T08:44:17Z</time>
      </trkpt>
      <trkpt lat="45.75622" lon="5.98716">
        <ele>538</ele>
        <time>2011-07-03T08:44:22Z</time>
      </trkpt>
      <trkpt lat="45.75621" lon="5.98718">
        <ele>540</ele>
        <time>2011-07-03T08:44:35Z</time>
      </trkpt>
      <trkpt lat="45.75623" lon="5.9872">
        <ele>543</ele>
        <time>2011-07-03T08:44:38Z</time>
      </trkpt>
      <trkpt lat="45.75624" lon="5.98721">
        <ele>546</ele>
        <time>2011-07-03T08:44:41Z</time>
      </trkpt>
      <trkpt lat="45.75625" lon="5.98723">
        <ele>549</ele>
        <time>2011-07-03T08:44:45Z</time>
      </trkpt>
      <trkpt lat="45.75625" lon="5.98724">
        <ele>551</ele>
        <time>2011-07-03T08:44:49Z</time>
      </trkpt>
      <trkpt lat="45.75625" lon="5.98726">
        <ele>552</ele>
        <time>2011-07-03T08:44:56Z</time>
      </trkpt>
      <trkpt lat="45.75626" lon="5.98727">
        <ele>553</ele>
        <time>2011-07-03T08:45:07Z</time>
      </trkpt>
      <trkpt lat="45.75626" lon="5.98729">
        <ele>553</ele>
        <time>2011-07-03T08:45:19Z</time>
      </trkpt>
      <trkpt lat="45.75624" lon="5.98729">
        <ele>553</ele>
        <time>2011-07-03T08:45:33Z</time>
      </trkpt>
      <trkpt lat="45.75623" lon="5.98727">
        <ele>555</ele>
        <time>2011-07-03T08:45:35Z</time>
      </trkpt>
      <trkpt lat="45.75622" lon="5.98727">
        <ele>566</ele>
        <time>2011-07-03T08:45:49Z</time>
      </trkpt>
      <trkpt lat="45.75621" lon="5.98726">
        <ele>568</ele>
        <time>2011-07-03T08:45:51Z</time>
      </trkpt>
      <trkpt lat="45.7562" lon="5.98727">
        <ele>577</ele>
        <time>2011-07-03T08:46:18Z</time>
      </trkpt>
      <trkpt lat="45.75621" lon="5.98727">
        <ele>577</ele>
        <time>2011-07-03T08:46:24Z</time>
      </trkpt>
      <trkpt lat="45.75622" lon="5.98727">
        <ele>577</ele>
        <time>2011-07-03T08:46:30Z</time>
      </trkpt>
      <trkpt lat="45.75623" lon="5.98727">
        <ele>578</ele>
        <time>2011-07-03T08:46:36Z</time>
      </trkpt>
      <trkpt lat="45.75623" lon="5.98725">
        <ele>578</ele>
        <time>2011-07-03T08:46:49Z</time>
      </trkpt>
      <trkpt lat="45.75624" lon="5.98727">
        <ele>580</ele>
        <time>2011-07-03T08:47:02Z</time>
      </trkpt>
      <trkpt lat="45.75625" lon="5.98729">
        <ele>580</ele>
        <time>2011-07-03T08:47:04Z</time>
      </trkpt>
      <trkpt lat="45.75625" lon="5.98727">
        <ele>580</ele>
        <time>2011-07-03T08:47:12Z</time>
      </trkpt>
      <trkpt lat="45.75624" lon="5.98726">
        <ele>579</ele>
        <time>2011-07-03T08:47:27Z</time>
      </trkpt>
      <trkpt lat="45.75623" lon="5.98725">
        <ele>579</ele>
        <time>2011-07-03T08:47:38Z</time>
      </trkpt>
      <trkpt lat="45.75624" lon="5.98726">
        <ele>581</ele>
        <time>2011-07-03T08:47:52Z</time>
      </trkpt>
      <trkpt lat="45.75625" lon="5.98727">
        <ele>581</ele>
        <time>2011-07-03T08:47:55Z</time>
      </trkpt>
      <trkpt lat="45.75624" lon="5.98729">
        <ele>581</ele>
        <time>2011-07-03T08:47:59Z</time>
      </trkpt>
      <trkpt lat="45.75623" lon="5.98731">
        <ele>579</ele>
        <time>2011-07-03T08:48:01Z</time>
      </trkpt>
      <trkpt lat="45.75623" lon="5.98734">
        <ele>577</ele>
        <time>2011-07-03T08:48:03Z</time>
      </trkpt>
      <trkpt lat="45.75621" lon="5.98736">
        <ele>574</ele>
        <time>2011-07-03T08:48:06Z</time>
      </trkpt>
      <trkpt lat="45.75621" lon="5.98738">
        <ele>573</ele>
        <time>2011-07-03T08:48:07Z</time>
      </trkpt>
      <trkpt lat="45.7562" lon="5.98741">
        <ele>572</ele>
        <time>2011-07-03T08:48:08Z</time>
      </trkpt>
      <trkpt lat="45.75619" lon="5.98744">
        <ele>571</ele>
        <time>2011-07-03T08:48:09Z</time>
      </trkpt>
      <trkpt lat="45.75618" lon="5.98746">
        <ele>570</ele>
        <time>2011-07-03T08:48:10Z</time>
      </trkpt>
      <trkpt lat="45.75617" lon="5.98748">
        <ele>570</ele>
        <time>2011-07-03T08:48:11Z</time>
      </trkpt>
      <trkpt lat="45.75617" lon="5.98751">
        <ele>570</ele>
        <time>2011-07-03T08:48:12Z</time>
      </trkpt>
      <trkpt lat="45.75617" lon="5.98753">
        <ele>570</ele>
        <time>2011-07-03T08:48:13Z</time>
      </trkpt>
      <trkpt lat="45.75618" lon="5.98755">
        <ele>570</ele>
        <time>2011-07-03T08:48:14Z</time>
      </trkpt>
      <trkpt lat="45.75618" lon="5.98758">
        <ele>570</ele>
        <time>2011-07-03T08:48:15Z</time>
      </trkpt>
      <trkpt lat="45.75619" lon="5.98761">
        <ele>570</ele>
        <time>2011-07-03T08:48:16Z</time>
      </trkpt>
      <trkpt lat="45.75619" lon="5.98764">
        <ele>570</ele>
        <time>2011-07-03T08:48:17Z</time>
      </trkpt>
      <trkpt lat="45.7562" lon="5.98767">
        <ele>570</ele>
        <time>2011-07-03T08:48:18Z</time>
      </trkpt>
      <trkpt lat="45.75621" lon="5.9877">
        <ele>570</ele>
        <time>2011-07-03T08:48:19Z</time>
      </trkpt>
      <trkpt lat="45.75621" lon="5.98773">
        <ele>570</ele>
        <time>2011-07-03T08:48:20Z</time>
      </trkpt>
      <trkpt lat="45.75622" lon="5.98776">
        <ele>570</ele>
        <time>2011-07-03T08:48:21Z</time>
      </trkpt>
      <trkpt lat="45.75623" lon="5.98779">
        <ele>570</ele>
        <time>2011-07-03T08:48:22Z</time>
      </trkpt>
      <trkpt lat="45.75624" lon="5.98781">
        <ele>570</ele>
        <time>2011-07-03T08:48:23Z</time>
      </trkpt>
      <trkpt lat="45.75624" lon="5.98784">
        <ele>570</ele>
        <time>2011-07-03T08:48:24Z</time>
      </trkpt>
      <trkpt lat="45.75625" lon="5.98786">
        <ele>570</ele>
        <time>2011-07-03T08:48:25Z</time>
      </trkpt>
      <trkpt lat="45.75626" lon="5.98789">
        <ele>570</ele>
        <time>2011-07-03T08:48:26Z</time>
      </trkpt>
      <trkpt lat="45.75627" lon="5.98792">
        <ele>570</ele>
        <time>2011-07-03T08:48:27Z</time>
      </trkpt>
      <trkpt lat="45.75627" lon="5.98795">
        <ele>570</ele>
        <time>2011-07-03T08:48:28Z</time>
      </trkpt>
      <trkpt lat="45.75628" lon="5.98798">
        <ele>570</ele>
        <time>2011-07-03T08:48:29Z</time>
      </trkpt>
      <trkpt lat="45.75629" lon="5.98801">
        <ele>570</ele>
        <time>2011-07-03T08:48:30Z</time>
      </trkpt>
      <trkpt lat="45.7563" lon="5.98804">
        <ele>570</ele>
        <time>2011-07-03T08:48:31Z</time>
      </trkpt>
      <trkpt lat="45.75631" lon="5.98807">
        <ele>570</ele>
        <time>2011-07-03T08:48:32Z</time>
      </trkpt>
      <trkpt lat="45.75632" lon="5.9881">
        <ele>570</ele>
        <time>2011-07-03T08:48:33Z</time>
      </trkpt>
      <trkpt lat="45.75633" lon="5.98813">
        <ele>570</ele>
        <time>2011-07-03T08:48:34Z</time>
      </trkpt>
      <trkpt lat="45.75634" lon="5.98816">
        <ele>570</ele>
        <time>2011-07-03T08:48:35Z</time>
      </trkpt>
      <trkpt lat="45.75635" lon="5.98819">
        <ele>570</ele>
        <time>2011-07-03T08:48:36Z</time>
      </trkpt>
      <trkpt lat="45.75636" lon="5.98822">
        <ele>570</ele>
        <time>2011-07-03T08:48:37Z</time>
      </trkpt>
      <trkpt lat="45.75637" lon="5.98825">
        <ele>570</ele>
        <time>2011-07-03T08:48:38Z</time>
      </trkpt>
      <trkpt lat="45.75637" lon="5.98828">
        <ele>570</ele>
        <time>2011-07-03T08:48:39Z</time>
      </trkpt>
      <trkpt lat="45.75638" lon="5.98831">
        <ele>570</ele>
        <time>2011-07-03T08:48:40Z</time>
      </trkpt>
      <trkpt lat="45.75639" lon="5.98834">
        <ele>570</ele>
        <time>2011-07-03T08:48:41Z</time>
      </trkpt>
      <trkpt lat="45.7564" lon="5.98838">
        <ele>570</ele>
        <time>2011-07-03T08:48:42Z</time>
      </trkpt>
      <trkpt lat="45.75642" lon="5.98841">
        <ele>570</ele>
        <time>2011-07-03T08:48:43Z</time>
      </trkpt>
      <trkpt lat="45.75642" lon="5.98844">
        <ele>570</ele>
        <time>2011-07-03T08:48:44Z</time>
      </trkpt>
      <trkpt lat="45.75643" lon="5.98846">
        <ele>570</ele>
        <time>2011-07-03T08:48:45Z</time>
      </trkpt>
      <trkpt lat="45.75643" lon="5.98849">
        <ele>570</ele>
        <time>2011-07-03T08:48:46Z</time>
      </trkpt>
      <trkpt lat="45.75643" lon="5.98852">
        <ele>570</ele>
        <time>2011-07-03T08:48:47Z</time>
      </trkpt>
      <trkpt lat="45.75643" lon="5.98854">
        <ele>570</ele>
        <time>2011-07-03T08:48:48Z</time>
      </trkpt>
      <trkpt lat="45.75642" lon="5.98856">
        <ele>570</ele>
        <time>2011-07-03T08:48:49Z</time>
      </trkpt>
      <trkpt lat="45.75641" lon="5.98858">
        <ele>570</ele>
        <time>2011-07-03T08:48:50Z</time>
      </trkpt>
      <trkpt lat="45.75639" lon="5.98861">
        <ele>570</ele>
        <time>2011-07-03T08:48:51Z</time>
      </trkpt>
      <trkpt lat="45.75637" lon="5.98863">
        <ele>570</ele>
        <time>2011-07-03T08:48:52Z</time>
      </trkpt>
      <trkpt lat="45.75634" lon="5.98866">
        <ele>570</ele>
        <time>2011-07-03T08:48:53Z</time>
      </trkpt>
      <trkpt lat="45.75629" lon="5.98869">
        <ele>570</ele>
        <time>2011-07-03T08:48:54Z</time>
      </trkpt>
      <trkpt lat="45.75624" lon="5.98873">
        <ele>570</ele>
        <time>2011-07-03T08:48:55Z</time>
      </trkpt>
      <trkpt lat="45.75619" lon="5.98876">
        <ele>570</ele>
        <time>2011-07-03T08:48:56Z</time>
      </trkpt>
      <trkpt lat="45.75615" lon="5.98879">
        <ele>570</ele>
        <time>2011-07-03T08:48:57Z</time>
      </trkpt>
      <trkpt lat="45.7561" lon="5.98882">
        <ele>570</ele>
        <time>2011-07-03T08:48:58Z</time>
      </trkpt>
      <trkpt lat="45.75605" lon="5.98884">
        <ele>570</ele>
        <time>2011-07-03T08:48:59Z</time>
      </trkpt>
      <trkpt lat="45.75602" lon="5.98885">
        <ele>570</ele>
        <time>2011-07-03T08:49:00Z</time>
      </trkpt>
      <trkpt lat="45.75598" lon="5.98885">
        <ele>570</ele>
        <time>2011-07-03T08:49:01Z</time>
      </trkpt>
      <trkpt lat="45.75594" lon="5.98885">
        <ele>570</ele>
        <time>2011-07-03T08:49:02Z</time>
      </trkpt>
      <trkpt lat="45.7559" lon="5.98884">
        <ele>570</ele>
        <time>2011-07-03T08:49:03Z</time>
      </trkpt>
      <trkpt lat="45.75586" lon="5.98884">
        <ele>570</ele>
        <time>2011-07-03T08:49:04Z</time>
      </trkpt>
      <trkpt lat="45.75582" lon="5.98883">
        <ele>570</ele>
        <time>2011-07-03T08:49:05Z</time>
      </trkpt>
      <trkpt lat="45.75578" lon="5.98882">
        <ele>570</ele>
        <time>2011-07-03T08:49:06Z</time>
      </trkpt>
      <trkpt lat="45.75573" lon="5.9888">
        <ele>570</ele>
        <time>2011-07-03T08:49:07Z</time>
      </trkpt>
      <trkpt lat="45.75569" lon="5.9888">
        <ele>570</ele>
        <time>2011-07-03T08:49:08Z</time>
      </trkpt>
      <trkpt lat="45.75565" lon="5.98879">
        <ele>570</ele>
        <time>2011-07-03T08:49:09Z</time>
      </trkpt>
      <trkpt lat="45.75562" lon="5.98879">
        <ele>570</ele>
        <time>2011-07-03T08:49:10Z</time>
      </trkpt>
      <trkpt lat="45.75558" lon="5.98879">
        <ele>570</ele>
        <time>2011-07-03T08:49:11Z</time>
      </trkpt>
      <trkpt lat="45.75555" lon="5.9888">
        <ele>570</ele>
        <time>2011-07-03T08:49:12Z</time>
      </trkpt>
      <trkpt lat="45.75552" lon="5.98881">
        <ele>570</ele>
        <time>2011-07-03T08:49:13Z</time>
      </trkpt>
      <trkpt lat="45.75549" lon="5.98881">
        <ele>570</ele>
        <time>2011-07-03T08:49:14Z</time>
      </trkpt>
      <trkpt lat="45.75545" lon="5.98881">
        <ele>570</ele>
        <time>2011-07-03T08:49:15Z</time>
      </trkpt>
      <trkpt lat="45.75542" lon="5.98881">
        <ele>570</ele>
        <time>2011-07-03T08:49:16Z</time>
      </trkpt>
      <trkpt lat="45.75538" lon="5.98882">
        <ele>570</ele>
        <time>2011-07-03T08:49:17Z</time>
      </trkpt>
      <trkpt lat="45.75534" lon="5.98882">
        <ele>570</ele>
        <time>2011-07-03T08:49:18Z</time>
      </trkpt>
      <trkpt lat="45.75531" lon="5.98883">
        <ele>570</ele>
        <time>2011-07-03T08:49:19Z</time>
      </trkpt>
      <trkpt lat="45.75527" lon="5.98883">
        <ele>570</ele>
        <time>2011-07-03T08:49:20Z</time>
      </trkpt>
      <trkpt lat="45.75523" lon="5.98883">
        <ele>570</ele>
        <time>2011-07-03T08:49:21Z</time>
      </trkpt>
      <trkpt lat="45.75519" lon="5.98884">
        <ele>570</ele>
        <time>2011-07-03T08:49:22Z</time>
      </trkpt>
      <trkpt lat="45.75514" lon="5.98884">
        <ele>570</ele>
        <time>2011-07-03T08:49:23Z</time>
      </trkpt>
      <trkpt lat="45.7551" lon="5.98884">
        <ele>570</ele>
        <time>2011-07-03T08:49:24Z</time>
      </trkpt>
      <trkpt lat="45.75505" lon="5.98885">
        <ele>570</ele>
        <time>2011-07-03T08:49:25Z</time>
      </trkpt>
      <trkpt lat="45.755" lon="5.98885">
        <ele>570</ele>
        <time>2011-07-03T08:49:26Z</time>
      </trkpt>
      <trkpt lat="45.75495" lon="5.98885">
        <ele>570</ele>
        <time>2011-07-03T08:49:27Z</time>
      </trkpt>
      <trkpt lat="45.7549" lon="5.98886">
        <ele>570</ele>
        <time>2011-07-03T08:49:28Z</time>
      </trkpt>
      <trkpt lat="45.75485" lon="5.98886">
        <ele>570</ele>
        <time>2011-07-03T08:49:29Z</time>
      </trkpt>
      <trkpt lat="45.7548" lon="5.98886">
        <ele>570</ele>
        <time>2011-07-03T08:49:30Z</time>
      </trkpt>
      <trkpt lat="45.75473" lon="5.98885">
        <ele>570</ele>
        <time>2011-07-03T08:49:31Z</time>
      </trkpt>
      <trkpt lat="45.75467" lon="5.98885">
        <ele>570</ele>
        <time>2011-07-03T08:49:32Z</time>
      </trkpt>
      <trkpt lat="45.75461" lon="5.98884">
        <ele>570</ele>
        <time>2011-07-03T08:49:33Z</time>
      </trkpt>
      <trkpt lat="45.75454" lon="5.98882">
        <ele>569</ele>
        <time>2011-07-03T08:49:34Z</time>
      </trkpt>
      <trkpt lat="45.75448" lon="5.98881">
        <ele>569</ele>
        <time>2011-07-03T08:49:35Z</time>
      </trkpt>
      <trkpt lat="45.75441" lon="5.98881">
        <ele>568</ele>
        <time>2011-07-03T08:49:36Z</time>
      </trkpt>
      <trkpt lat="45.75435" lon="5.98879">
        <ele>568</ele>
        <time>2011-07-03T08:49:37Z</time>
      </trkpt>
      <trkpt lat="45.7543" lon="5.98879">
        <ele>567</ele>
        <time>2011-07-03T08:49:38Z</time>
      </trkpt>
      <trkpt lat="45.75425" lon="5.98879">
        <ele>567</ele>
        <time>2011-07-03T08:49:39Z</time>
      </trkpt>
      <trkpt lat="45.7542" lon="5.9888">
        <ele>567</ele>
        <time>2011-07-03T08:49:40Z</time>
      </trkpt>
      <trkpt lat="45.75415" lon="5.9888">
        <ele>567</ele>
        <time>2011-07-03T08:49:41Z</time>
      </trkpt>
      <trkpt lat="45.7541" lon="5.98881">
        <ele>567</ele>
        <time>2011-07-03T08:49:42Z</time>
      </trkpt>
      <trkpt lat="45.75406" lon="5.98882">
        <ele>567</ele>
        <time>2011-07-03T08:49:43Z</time>
      </trkpt>
      <trkpt lat="45.75404" lon="5.98884">
        <ele>567</ele>
        <time>2011-07-03T08:49:44Z</time>
      </trkpt>
      <trkpt lat="45.75402" lon="5.98884">
        <ele>567</ele>
        <time>2011-07-03T08:49:45Z</time>
      </trkpt>
      <trkpt lat="45.75398" lon="5.98885">
        <ele>567</ele>
        <time>2011-07-03T08:49:46Z</time>
      </trkpt>
      <trkpt lat="45.75396" lon="5.98885">
        <ele>567</ele>
        <time>2011-07-03T08:49:47Z</time>
      </trkpt>
      <trkpt lat="45.75392" lon="5.98886">
        <ele>567</ele>
        <time>2011-07-03T08:49:48Z</time>
      </trkpt>
      <trkpt lat="45.75388" lon="5.98886">
        <ele>567</ele>
        <time>2011-07-03T08:49:49Z</time>
      </trkpt>
      <trkpt lat="45.75384" lon="5.98886">
        <ele>567</ele>
        <time>2011-07-03T08:49:50Z</time>
      </trkpt>
      <trkpt lat="45.75379" lon="5.98886">
        <ele>567</ele>
        <time>2011-07-03T08:49:51Z</time>
      </trkpt>
      <trkpt lat="45.75375" lon="5.98884">
        <ele>567</ele>
        <time>2011-07-03T08:49:52Z</time>
      </trkpt>
      <trkpt lat="45.7537" lon="5.98883">
        <ele>566</ele>
        <time>2011-07-03T08:49:53Z</time>
      </trkpt>
      <trkpt lat="45.75366" lon="5.98881">
        <ele>565</ele>
        <time>2011-07-03T08:49:54Z</time>
      </trkpt>
      <trkpt lat="45.75361" lon="5.9888">
        <ele>565</ele>
        <time>2011-07-03T08:49:55Z</time>
      </trkpt>
      <trkpt lat="45.75356" lon="5.9888">
        <ele>565</ele>
        <time>2011-07-03T08:49:56Z</time>
      </trkpt>
      <trkpt lat="45.75351" lon="5.98879">
        <ele>565</ele>
        <time>2011-07-03T08:49:57Z</time>
      </trkpt>
      <trkpt lat="45.75346" lon="5.98879">
        <ele>565</ele>
        <time>2011-07-03T08:49:58Z</time>
      </trkpt>
      <trkpt lat="45.7534" lon="5.98878">
        <ele>565</ele>
        <time>2011-07-03T08:49:59Z</time>
      </trkpt>
      <trkpt lat="45.75335" lon="5.98879">
        <ele>565</ele>
        <time>2011-07-03T08:50:00Z</time>
      </trkpt>
      <trkpt lat="45.7533" lon="5.98879">
        <ele>565</ele>
        <time>2011-07-03T08:50:01Z</time>
      </trkpt>
      <trkpt lat="45.75325" lon="5.9888">
        <ele>564</ele>
        <time>2011-07-03T08:50:02Z</time>
      </trkpt>
      <trkpt lat="45.75319" lon="5.98881">
        <ele>564</ele>
        <time>2011-07-03T08:50:03Z</time>
      </trkpt>
      <trkpt lat="45.75314" lon="5.98882">
        <ele>564</ele>
        <time>2011-07-03T08:50:04Z</time>
      </trkpt>
      <trkpt lat="45.75309" lon="5.98882">
        <ele>564</ele>
        <time>2011-07-03T08:50:05Z</time>
      </trkpt>
      <trkpt lat="45.75304" lon="5.98884">
        <ele>563</ele>
        <time>2011-07-03T08:50:06Z</time>
      </trkpt>
      <trkpt lat="45.75299" lon="5.98885">
        <ele>563</ele>
        <time>2011-07-03T08:50:07Z</time>
      </trkpt>
      <trkpt lat="45.75293" lon="5.98886">
        <ele>563</ele>
        <time>2011-07-03T08:50:08Z</time>
      </trkpt>
      <trkpt lat="45.75288" lon="5.98886">
        <ele>563</ele>
        <time>2011-07-03T08:50:09Z</time>
      </trkpt>
      <trkpt lat="45.75283" lon="5.98884">
        <ele>562</ele>
        <time>2011-07-03T08:50:10Z</time>
      </trkpt>
      <trkpt lat="45.75278" lon="5.9888">
        <ele>561</ele>
        <time>2011-07-03T08:50:11Z</time>
      </trkpt>
      <trkpt lat="45.75273" lon="5.98874">
        <ele>561</ele>
        <time>2011-07-03T08:50:12Z</time>
      </trkpt>
      <trkpt lat="45.75269" lon="5.9887">
        <ele>560</ele>
        <time>2011-07-03T08:50:13Z</time>
      </trkpt>
      <trkpt lat="45.75264" lon="5.98869">
        <ele>559</ele>
        <time>2011-07-03T08:50:14Z</time>
      </trkpt>
      <trkpt lat="45.75259" lon="5.98869">
        <ele>559</ele>
        <time>2011-07-03T08:50:15Z</time>
      </trkpt>
      <trkpt lat="45.75255" lon="5.98872">
        <ele>558</ele>
        <time>2011-07-03T08:50:16Z</time>
      </trkpt>
      <trkpt lat="45.75252" lon="5.98876">
        <ele>558</ele>
        <time>2011-07-03T08:50:17Z</time>
      </trkpt>
      <trkpt lat="45.75249" lon="5.98881">
        <ele>557</ele>
        <time>2011-07-03T08:50:18Z</time>
      </trkpt>
      <trkpt lat="45.75246" lon="5.98887">
        <ele>557</ele>
        <time>2011-07-03T08:50:19Z</time>
      </trkpt>
      <trkpt lat="45.75244" lon="5.98892">
        <ele>556</ele>
        <time>2011-07-03T08:50:20Z</time>
      </trkpt>
      <trkpt lat="45.75242" lon="5.98899">
        <ele>556</ele>
        <time>2011-07-03T08:50:21Z</time>
      </trkpt>
      <trkpt lat="45.7524" lon="5.98905">
        <ele>555</ele>
        <time>2011-07-03T08:50:22Z</time>
      </trkpt>
      <trkpt lat="45.75238" lon="5.98912">
        <ele>555</ele>
        <time>2011-07-03T08:50:23Z</time>
      </trkpt>
      <trkpt lat="45.75236" lon="5.9892">
        <ele>554</ele>
        <time>2011-07-03T08:50:24Z</time>
      </trkpt>
      <trkpt lat="45.75235" lon="5.98928">
        <ele>554</ele>
        <time>2011-07-03T08:50:25Z</time>
      </trkpt>
      <trkpt lat="45.75232" lon="5.98937">
        <ele>553</ele>
        <time>2011-07-03T08:50:26Z</time>
      </trkpt>
      <trkpt lat="45.7523" lon="5.98946">
        <ele>553</ele>
        <time>2011-07-03T08:50:27Z</time>
      </trkpt>
      <trkpt lat="45.75228" lon="5.98955">
        <ele>552</ele>
        <time>2011-07-03T08:50:28Z</time>
      </trkpt>
      <trkpt lat="45.75226" lon="5.98965">
        <ele>551</ele>
        <time>2011-07-03T08:50:29Z</time>
      </trkpt>
      <trkpt lat="45.75224" lon="5.98975">
        <ele>550</ele>
        <time>2011-07-03T08:50:30Z</time>
      </trkpt>
      <trkpt lat="45.75223" lon="5.98984">
        <ele>550</ele>
        <time>2011-07-03T08:50:31Z</time>
      </trkpt>
      <trkpt lat="45.75221" lon="5.98993">
        <ele>549</ele>
        <time>2011-07-03T08:50:32Z</time>
      </trkpt>
      <trkpt lat="45.7522" lon="5.99002">
        <ele>548</ele>
        <time>2011-07-03T08:50:33Z</time>
      </trkpt>
      <trkpt lat="45.75218" lon="5.99011">
        <ele>548</ele>
        <time>2011-07-03T08:50:34Z</time>
      </trkpt>
      <trkpt lat="45.75217" lon="5.9902">
        <ele>547</ele>
        <time>2011-07-03T08:50:35Z</time>
      </trkpt>
      <trkpt lat="45.75216" lon="5.99028">
        <ele>547</ele>
        <time>2011-07-03T08:50:36Z</time>
      </trkpt>
      <trkpt lat="45.75214" lon="5.99038">
        <ele>546</ele>
        <time>2011-07-03T08:50:37Z</time>
      </trkpt>
      <trkpt lat="45.75212" lon="5.99047">
        <ele>545</ele>
        <time>2011-07-03T08:50:38Z</time>
      </trkpt>
      <trkpt lat="45.7521" lon="5.99055">
        <ele>545</ele>
        <time>2011-07-03T08:50:39Z</time>
      </trkpt>
      <trkpt lat="45.75205" lon="5.99061">
        <ele>544</ele>
        <time>2011-07-03T08:50:40Z</time>
      </trkpt>
      <trkpt lat="45.752" lon="5.99066">
        <ele>543</ele>
        <time>2011-07-03T08:50:41Z</time>
      </trkpt>
      <trkpt lat="45.75193" lon="5.99069">
        <ele>543</ele>
        <time>2011-07-03T08:50:42Z</time>
      </trkpt>
      <trkpt lat="45.75186" lon="5.99071">
        <ele>542</ele>
        <time>2011-07-03T08:50:43Z</time>
      </trkpt>
      <trkpt lat="45.75179" lon="5.99074">
        <ele>541</ele>
        <time>2011-07-03T08:50:44Z</time>
      </trkpt>
      <trkpt lat="45.75172" lon="5.99076">
        <ele>541</ele>
        <time>2011-07-03T08:50:45Z</time>
      </trkpt>
      <trkpt lat="45.75166" lon="5.99078">
        <ele>540</ele>
        <time>2011-07-03T08:50:46Z</time>
      </trkpt>
      <trkpt lat="45.7516" lon="5.99079">
        <ele>539</ele>
        <time>2011-07-03T08:50:47Z</time>
      </trkpt>
      <trkpt lat="45.75153" lon="5.99077">
        <ele>538</ele>
        <time>2011-07-03T08:50:48Z</time>
      </trkpt>
      <trkpt lat="45.75148" lon="5.99073">
        <ele>538</ele>
        <time>2011-07-03T08:50:49Z</time>
      </trkpt>
      <trkpt lat="45.75143" lon="5.99068">
        <ele>537</ele>
        <time>2011-07-03T08:50:50Z</time>
      </trkpt>
      <trkpt lat="45.75138" lon="5.99063">
        <ele>536</ele>
        <time>2011-07-03T08:50:51Z</time>
      </trkpt>
      <trkpt lat="45.75134" lon="5.99059">
        <ele>535</ele>
        <time>2011-07-03T08:50:52Z</time>
      </trkpt>
      <trkpt lat="45.7513" lon="5.99055">
        <ele>534</ele>
        <time>2011-07-03T08:50:53Z</time>
      </trkpt>
      <trkpt lat="45.75126" lon="5.99052">
        <ele>533</ele>
        <time>2011-07-03T08:50:54Z</time>
      </trkpt>
      <trkpt lat="45.75122" lon="5.99049">
        <ele>532</ele>
        <time>2011-07-03T08:50:55Z</time>
      </trkpt>
      <trkpt lat="45.75119" lon="5.99046">
        <ele>532</ele>
        <time>2011-07-03T08:50:56Z</time>
      </trkpt>
      <trkpt lat="45.75116" lon="5.99044">
        <ele>531</ele>
        <time>2011-07-03T08:50:57Z</time>
      </trkpt>
      <trkpt lat="45.75113" lon="5.99041">
        <ele>530</ele>
        <time>2011-07-03T08:50:58Z</time>
      </trkpt>
      <trkpt lat="45.7511" lon="5.99036">
        <ele>529</ele>
        <time>2011-07-03T08:50:59Z</time>
      </trkpt>
      <trkpt lat="45.75109" lon="5.99031">
        <ele>529</ele>
        <time>2011-07-03T08:51:00Z</time>
      </trkpt>
      <trkpt lat="45.75109" lon="5.99026">
        <ele>529</ele>
        <time>2011-07-03T08:51:01Z</time>
      </trkpt>
      <trkpt lat="45.7511" lon="5.99022">
        <ele>529</ele>
        <time>2011-07-03T08:51:02Z</time>
      </trkpt>
      <trkpt lat="45.75111" lon="5.99019">
        <ele>529</ele>
        <time>2011-07-03T08:51:03Z</time>
      </trkpt>
      <trkpt lat="45.75113" lon="5.99017">
        <ele>529</ele>
        <time>2011-07-03T08:51:04Z</time>
      </trkpt>
      <trkpt lat="45.75113" lon="5.99014">
        <ele>529</ele>
        <time>2011-07-03T08:51:05Z</time>
      </trkpt>
      <trkpt lat="45.75114" lon="5.99012">
        <ele>529</ele>
        <time>2011-07-03T08:51:06Z</time>
      </trkpt>
      <trkpt lat="45.75114" lon="5.9901">
        <ele>529</ele>
        <time>2011-07-03T08:51:07Z</time>
      </trkpt>
      <trkpt lat="45.75114" lon="5.99007">
        <ele>529</ele>
        <time>2011-07-03T08:51:08Z</time>
      </trkpt>
      <trkpt lat="45.75115" lon="5.99004">
        <ele>529</ele>
        <time>2011-07-03T08:51:09Z</time>
      </trkpt>
      <trkpt lat="45.75116" lon="5.99001">
        <ele>529</ele>
        <time>2011-07-03T08:51:10Z</time>
      </trkpt>
      <trkpt lat="45.75118" lon="5.98998">
        <ele>529</ele>
        <time>2011-07-03T08:51:11Z</time>
      </trkpt>
      <trkpt lat="45.75119" lon="5.98995">
        <ele>529</ele>
        <time>2011-07-03T08:51:12Z</time>
      </trkpt>
      <trkpt lat="45.7512" lon="5.98992">
        <ele>529</ele>
        <time>2011-07-03T08:51:13Z</time>
      </trkpt>
      <trkpt lat="45.75122" lon="5.98989">
        <ele>529</ele>
        <time>2011-07-03T08:51:14Z</time>
      </trkpt>
      <trkpt lat="45.75123" lon="5.98986">
        <ele>529</ele>
        <time>2011-07-03T08:51:15Z</time>
      </trkpt>
      <trkpt lat="45.75124" lon="5.98983">
        <ele>529</ele>
        <time>2011-07-03T08:51:16Z</time>
      </trkpt>
      <trkpt lat="45.75126" lon="5.98979">
        <ele>529</ele>
        <time>2011-07-03T08:51:17Z</time>
      </trkpt>
      <trkpt lat="45.75127" lon="5.98976">
        <ele>529</ele>
        <time>2011-07-03T08:51:18Z</time>
      </trkpt>
      <trkpt lat="45.75128" lon="5.98972">
        <ele>529</ele>
        <time>2011-07-03T08:51:19Z</time>
      </trkpt>
      <trkpt lat="45.75129" lon="5.98968">
        <ele>529</ele>
        <time>2011-07-03T08:51:20Z</time>
      </trkpt>
      <trkpt lat="45.7513" lon="5.98964">
        <ele>529</ele>
        <time>2011-07-03T08:51:21Z</time>
      </trkpt>
      <trkpt lat="45.75132" lon="5.9896">
        <ele>529</ele>
        <time>2011-07-03T08:51:22Z</time>
      </trkpt>
      <trkpt lat="45.75133" lon="5.98957">
        <ele>529</ele>
        <time>2011-07-03T08:51:23Z</time>
      </trkpt>
      <trkpt lat="45.75135" lon="5.98953">
        <ele>529</ele>
        <time>2011-07-03T08:51:24Z</time>
      </trkpt>
      <trkpt lat="45.75136" lon="5.98951">
        <ele>529</ele>
        <time>2011-07-03T08:51:25Z</time>
      </trkpt>
      <trkpt lat="45.75137" lon="5.98948">
        <ele>530</ele>
        <time>2011-07-03T08:51:26Z</time>
      </trkpt>
      <trkpt lat="45.75138" lon="5.98945">
        <ele>530</ele>
        <time>2011-07-03T08:51:27Z</time>
      </trkpt>
      <trkpt lat="45.75139" lon="5.98942">
        <ele>531</ele>
        <time>2011-07-03T08:51:28Z</time>
      </trkpt>
      <trkpt lat="45.7514" lon="5.98939">
        <ele>531</ele>
        <time>2011-07-03T08:51:29Z</time>
      </trkpt>
      <trkpt lat="45.75141" lon="5.98936">
        <ele>531</ele>
        <time>2011-07-03T08:51:30Z</time>
      </trkpt>
      <trkpt lat="45.75143" lon="5.98933">
        <ele>532</ele>
        <time>2011-07-03T08:51:31Z</time>
      </trkpt>
      <trkpt lat="45.75144" lon="5.9893">
        <ele>532</ele>
        <time>2011-07-03T08:51:32Z</time>
      </trkpt>
      <trkpt lat="45.75145" lon="5.98927">
        <ele>532</ele>
        <time>2011-07-03T08:51:33Z</time>
      </trkpt>
      <trkpt lat="45.75146" lon="5.98924">
        <ele>532</ele>
        <time>2011-07-03T08:51:34Z</time>
      </trkpt>
      <trkpt lat="45.75147" lon="5.98921">
        <ele>532</ele>
        <time>2011-07-03T08:51:35Z</time>
      </trkpt>
      <trkpt lat="45.75148" lon="5.98919">
        <ele>532</ele>
        <time>2011-07-03T08:51:36Z</time>
      </trkpt>
      <trkpt lat="45.75149" lon="5.98917">
        <ele>532</ele>
        <time>2011-07-03T08:51:37Z</time>
      </trkpt>
      <trkpt lat="45.7515" lon="5.98914">
        <ele>532</ele>
        <time>2011-07-03T08:51:38Z</time>
      </trkpt>
      <trkpt lat="45.7515" lon="5.98912">
        <ele>532</ele>
        <time>2011-07-03T08:51:39Z</time>
      </trkpt>
      <trkpt lat="45.75151" lon="5.98909">
        <ele>532</ele>
        <time>2011-07-03T08:51:40Z</time>
      </trkpt>
      <trkpt lat="45.75152" lon="5.98907">
        <ele>532</ele>
        <time>2011-07-03T08:51:41Z</time>
      </trkpt>
      <trkpt lat="45.75153" lon="5.98904">
        <ele>532</ele>
        <time>2011-07-03T08:51:42Z</time>
      </trkpt>
      <trkpt lat="45.75154" lon="5.98902">
        <ele>532</ele>
        <time>2011-07-03T08:51:43Z</time>
      </trkpt>
      <trkpt lat="45.75154" lon="5.98899">
        <ele>532</ele>
        <time>2011-07-03T08:51:44Z</time>
      </trkpt>
      <trkpt lat="45.75155" lon="5.98897">
        <ele>532</ele>
        <time>2011-07-03T08:51:45Z</time>
      </trkpt>
      <trkpt lat="45.75156" lon="5.98893">
        <ele>532</ele>
        <time>2011-07-03T08:51:46Z</time>
      </trkpt>
      <trkpt lat="45.75157" lon="5.9889">
        <ele>532</ele>
        <time>2011-07-03T08:51:47Z</time>
      </trkpt>
      <trkpt lat="45.75158" lon="5.98885">
        <ele>532</ele>
        <time>2011-07-03T08:51:48Z</time>
      </trkpt>
      <trkpt lat="45.75158" lon="5.98881">
        <ele>532</ele>
        <time>2011-07-03T08:51:49Z</time>
      </trkpt>
      <trkpt lat="45.75158" lon="5.98875">
        <ele>532</ele>
        <time>2011-07-03T08:51:50Z</time>
      </trkpt>
      <trkpt lat="45.75157" lon="5.98869">
        <ele>532</ele>
        <time>2011-07-03T08:51:51Z</time>
      </trkpt>
      <trkpt lat="45.75157" lon="5.98862">
        <ele>532</ele>
        <time>2011-07-03T08:51:52Z</time>
      </trkpt>
      <trkpt lat="45.75158" lon="5.98854">
        <ele>532</ele>
        <time>2011-07-03T08:51:53Z</time>
      </trkpt>
      <trkpt lat="45.75158" lon="5.98847">
        <ele>532</ele>
        <time>2011-07-03T08:51:54Z</time>
      </trkpt>
      <trkpt lat="45.75158" lon="5.9884">
        <ele>532</ele>
        <time>2011-07-03T08:51:55Z</time>
      </trkpt>
      <trkpt lat="45.75159" lon="5.98833">
        <ele>532</ele>
        <time>2011-07-03T08:51:56Z</time>
      </trkpt>
      <trkpt lat="45.7516" lon="5.98828">
        <ele>532</ele>
        <time>2011-07-03T08:51:57Z</time>
      </trkpt>
      <trkpt lat="45.75161" lon="5.98823">
        <ele>532</ele>
        <time>2011-07-03T08:51:58Z</time>
      </trkpt>
      <trkpt lat="45.75162" lon="5.98819">
        <ele>532</ele>
        <time>2011-07-03T08:51:59Z</time>
      </trkpt>
      <trkpt lat="45.75163" lon="5.98815">
        <ele>532</ele>
        <time>2011-07-03T08:52:00Z</time>
      </trkpt>
      <trkpt lat="45.75164" lon="5.98811">
        <ele>532</ele>
        <time>2011-07-03T08:52:01Z</time>
      </trkpt>
      <trkpt lat="45.75164" lon="5.98807">
        <ele>532</ele>
        <time>2011-07-03T08:52:02Z</time>
      </trkpt>
      <trkpt lat="45.75164" lon="5.98804">
        <ele>531</ele>
        <time>2011-07-03T08:52:03Z</time>
      </trkpt>
      <trkpt lat="45.75163" lon="5.988">
        <ele>531</ele>
        <time>2011-07-03T08:52:04Z</time>
      </trkpt>
      <trkpt lat="45.75162" lon="5.98796">
        <ele>530</ele>
        <time>2011-07-03T08:52:05Z</time>
      </trkpt>
      <trkpt lat="45.75161" lon="5.98793">
        <ele>530</ele>
        <time>2011-07-03T08:52:06Z</time>
      </trkpt>
      <trkpt lat="45.75159" lon="5.9879">
        <ele>529</ele>
        <time>2011-07-03T08:52:07Z</time>
      </trkpt>
      <trkpt lat="45.75158" lon="5.98785">
        <ele>529</ele>
        <time>2011-07-03T08:52:08Z</time>
      </trkpt>
      <trkpt lat="45.75157" lon="5.9878">
        <ele>528</ele>
        <time>2011-07-03T08:52:09Z</time>
      </trkpt>
      <trkpt lat="45.75156" lon="5.98776">
        <ele>528</ele>
        <time>2011-07-03T08:52:10Z</time>
      </trkpt>
      <trkpt lat="45.75154" lon="5.98773">
        <ele>527</ele>
        <time>2011-07-03T08:52:11Z</time>
      </trkpt>
      <trkpt lat="45.75152" lon="5.98771">
        <ele>526</ele>
        <time>2011-07-03T08:52:12Z</time>
      </trkpt>
      <trkpt lat="45.75147" lon="5.9877">
        <ele>526</ele>
        <time>2011-07-03T08:52:13Z</time>
      </trkpt>
      <trkpt lat="45.75142" lon="5.98769">
        <ele>525</ele>
        <time>2011-07-03T08:52:14Z</time>
      </trkpt>
      <trkpt lat="45.75137" lon="5.98768">
        <ele>524</ele>
        <time>2011-07-03T08:52:15Z</time>
      </trkpt>
      <trkpt lat="45.75133" lon="5.98768">
        <ele>523</ele>
        <time>2011-07-03T08:52:16Z</time>
      </trkpt>
      <trkpt lat="45.75129" lon="5.98768">
        <ele>523</ele>
        <time>2011-07-03T08:52:17Z</time>
      </trkpt>
      <trkpt lat="45.75125" lon="5.98769">
        <ele>522</ele>
        <time>2011-07-03T08:52:18Z</time>
      </trkpt>
      <trkpt lat="45.75121" lon="5.98771">
        <ele>521</ele>
        <time>2011-07-03T08:52:19Z</time>
      </trkpt>
      <trkpt lat="45.75116" lon="5.98771">
        <ele>520</ele>
        <time>2011-07-03T08:52:20Z</time>
      </trkpt>
      <trkpt lat="45.75112" lon="5.9877">
        <ele>519</ele>
        <time>2011-07-03T08:52:21Z</time>
      </trkpt>
      <trkpt lat="45.75108" lon="5.98767">
        <ele>518</ele>
        <time>2011-07-03T08:52:22Z</time>
      </trkpt>
      <trkpt lat="45.75105" lon="5.98764">
        <ele>517</ele>
        <time>2011-07-03T08:52:23Z</time>
      </trkpt>
      <trkpt lat="45.75101" lon="5.98761">
        <ele>516</ele>
        <time>2011-07-03T08:52:24Z</time>
      </trkpt>
      <trkpt lat="45.75098" lon="5.98757">
        <ele>515</ele>
        <time>2011-07-03T08:52:25Z</time>
      </trkpt>
      <trkpt lat="45.75094" lon="5.98754">
        <ele>514</ele>
        <time>2011-07-03T08:52:26Z</time>
      </trkpt>
      <trkpt lat="45.7509" lon="5.98751">
        <ele>513</ele>
        <time>2011-07-03T08:52:27Z</time>
      </trkpt>
      <trkpt lat="45.75086" lon="5.98747">
        <ele>513</ele>
        <time>2011-07-03T08:52:28Z</time>
      </trkpt>
      <trkpt lat="45.75082" lon="5.98743">
        <ele>512</ele>
        <time>2011-07-03T08:52:29Z</time>
      </trkpt>
      <trkpt lat="45.75079" lon="5.98738">
        <ele>511</ele>
        <time>2011-07-03T08:52:30Z</time>
      </trkpt>
      <trkpt lat="45.75075" lon="5.98732">
        <ele>510</ele>
        <time>2011-07-03T08:52:31Z</time>
      </trkpt>
      <trkpt lat="45.75072" lon="5.98728">
        <ele>509</ele>
        <time>2011-07-03T08:52:32Z</time>
      </trkpt>
      <trkpt lat="45.75068" lon="5.98724">
        <ele>509</ele>
        <time>2011-07-03T08:52:33Z</time>
      </trkpt>
      <trkpt lat="45.75064" lon="5.9872">
        <ele>508</ele>
        <time>2011-07-03T08:52:34Z</time>
      </trkpt>
      <trkpt lat="45.75061" lon="5.98714">
        <ele>508</ele>
        <time>2011-07-03T08:52:35Z</time>
      </trkpt>
      <trkpt lat="45.75058" lon="5.98709">
        <ele>507</ele>
        <time>2011-07-03T08:52:36Z</time>
      </trkpt>
      <trkpt lat="45.75055" lon="5.98704">
        <ele>507</ele>
        <time>2011-07-03T08:52:37Z</time>
      </trkpt>
      <trkpt lat="45.75051" lon="5.987">
        <ele>506</ele>
        <time>2011-07-03T08:52:38Z</time>
      </trkpt>
      <trkpt lat="45.75047" lon="5.98696">
        <ele>505</ele>
        <time>2011-07-03T08:52:39Z</time>
      </trkpt>
      <trkpt lat="45.75043" lon="5.98692">
        <ele>504</ele>
        <time>2011-07-03T08:52:40Z</time>
      </trkpt>
      <trkpt lat="45.75039" lon="5.98688">
        <ele>504</ele>
        <time>2011-07-03T08:52:41Z</time>
      </trkpt>
      <trkpt lat="45.75035" lon="5.98682">
        <ele>503</ele>
        <time>2011-07-03T08:52:42Z</time>
      </trkpt>
      <trkpt lat="45.7503" lon="5.98677">
        <ele>502</ele>
        <time>2011-07-03T08:52:43Z</time>
      </trkpt>
      <trkpt lat="45.75026" lon="5.98672">
        <ele>501</ele>
        <time>2011-07-03T08:52:44Z</time>
      </trkpt>
      <trkpt lat="45.75021" lon="5.98667">
        <ele>501</ele>
        <time>2011-07-03T08:52:45Z</time>
      </trkpt>
      <trkpt lat="45.75017" lon="5.98662">
        <ele>500</ele>
        <time>2011-07-03T08:52:46Z</time>
      </trkpt>
      <trkpt lat="45.75013" lon="5.98657">
        <ele>499</ele>
        <time>2011-07-03T08:52:47Z</time>
      </trkpt>
      <trkpt lat="45.75009" lon="5.98652">
        <ele>498</ele>
        <time>2011-07-03T08:52:48Z</time>
      </trkpt>
      <trkpt lat="45.75007" lon="5.98649">
        <ele>497</ele>
        <time>2011-07-03T08:52:49Z</time>
      </trkpt>
      <trkpt lat="45.75003" lon="5.98646">
        <ele>496</ele>
        <time>2011-07-03T08:52:50Z</time>
      </trkpt>
      <trkpt lat="45.74998" lon="5.98642">
        <ele>496</ele>
        <time>2011-07-03T08:52:51Z</time>
      </trkpt>
      <trkpt lat="45.74994" lon="5.98637">
        <ele>495</ele>
        <time>2011-07-03T08:52:52Z</time>
      </trkpt>
      <trkpt lat="45.74989" lon="5.98633">
        <ele>495</ele>
        <time>2011-07-03T08:52:53Z</time>
      </trkpt>
      <trkpt lat="45.74984" lon="5.9863">
        <ele>494</ele>
        <time>2011-07-03T08:52:54Z</time>
      </trkpt>
      <trkpt lat="45.7498" lon="5.98629">
        <ele>494</ele>
        <time>2011-07-03T08:52:55Z</time>
      </trkpt>
      <trkpt lat="45.74976" lon="5.98631">
        <ele>494</ele>
        <time>2011-07-03T08:52:56Z</time>
      </trkpt>
      <trkpt lat="45.74972" lon="5.98634">
        <ele>494</ele>
        <time>2011-07-03T08:52:57Z</time>
      </trkpt>
      <trkpt lat="45.74969" lon="5.98639">
        <ele>494</ele>
        <time>2011-07-03T08:52:58Z</time>
      </trkpt>
      <trkpt lat="45.74966" lon="5.98644">
        <ele>494</ele>
        <time>2011-07-03T08:52:59Z</time>
      </trkpt>
      <trkpt lat="45.74963" lon="5.98649">
        <ele>494</ele>
        <time>2011-07-03T08:53:00Z</time>
      </trkpt>
      <trkpt lat="45.74959" lon="5.98653">
        <ele>494</ele>
        <time>2011-07-03T08:53:01Z</time>
      </trkpt>
      <trkpt lat="45.74955" lon="5.98658">
        <ele>494</ele>
        <time>2011-07-03T08:53:02Z</time>
      </trkpt>
      <trkpt lat="45.74951" lon="5.98663">
        <ele>494</ele>
        <time>2011-07-03T08:53:03Z</time>
      </trkpt>
      <trkpt lat="45.74947" lon="5.98667">
        <ele>494</ele>
        <time>2011-07-03T08:53:04Z</time>
      </trkpt>
      <trkpt lat="45.74943" lon="5.98671">
        <ele>494</ele>
        <time>2011-07-03T08:53:05Z</time>
      </trkpt>
      <trkpt lat="45.74939" lon="5.98676">
        <ele>494</ele>
        <time>2011-07-03T08:53:06Z</time>
      </trkpt>
      <trkpt lat="45.74936" lon="5.9868">
        <ele>494</ele>
        <time>2011-07-03T08:53:07Z</time>
      </trkpt>
      <trkpt lat="45.74932" lon="5.98684">
        <ele>494</ele>
        <time>2011-07-03T08:53:08Z</time>
      </trkpt>
      <trkpt lat="45.74929" lon="5.98687">
        <ele>494</ele>
        <time>2011-07-03T08:53:09Z</time>
      </trkpt>
      <trkpt lat="45.74926" lon="5.98687">
        <ele>494</ele>
        <time>2011-07-03T08:53:10Z</time>
      </trkpt>
      <trkpt lat="45.74924" lon="5.98687">
        <ele>494</ele>
        <time>2011-07-03T08:53:11Z</time>
      </trkpt>
      <trkpt lat="45.74922" lon="5.98686">
        <ele>494</ele>
        <time>2011-07-03T08:53:12Z</time>
      </trkpt>
      <trkpt lat="45.74921" lon="5.98683">
        <ele>494</ele>
        <time>2011-07-03T08:53:13Z</time>
      </trkpt>
      <trkpt lat="45.74921" lon="5.98679">
        <ele>494</ele>
        <time>2011-07-03T08:53:14Z</time>
      </trkpt>
      <trkpt lat="45.7492" lon="5.98674">
        <ele>494</ele>
        <time>2011-07-03T08:53:15Z</time>
      </trkpt>
      <trkpt lat="45.74921" lon="5.98667">
        <ele>494</ele>
        <time>2011-07-03T08:53:16Z</time>
      </trkpt>
      <trkpt lat="45.74922" lon="5.98661">
        <ele>494</ele>
        <time>2011-07-03T08:53:17Z</time>
      </trkpt>
      <trkpt lat="45.74923" lon="5.98654">
        <ele>494</ele>
        <time>2011-07-03T08:53:18Z</time>
      </trkpt>
      <trkpt lat="45.74923" lon="5.98647">
        <ele>494</ele>
        <time>2011-07-03T08:53:19Z</time>
      </trkpt>
      <trkpt lat="45.74924" lon="5.9864">
        <ele>494</ele>
        <time>2011-07-03T08:53:20Z</time>
      </trkpt>
      <trkpt lat="45.74926" lon="5.98632">
        <ele>494</ele>
        <time>2011-07-03T08:53:21Z</time>
      </trkpt>
      <trkpt lat="45.74928" lon="5.98624">
        <ele>494</ele>
        <time>2011-07-03T08:53:22Z</time>
      </trkpt>
      <trkpt lat="45.74929" lon="5.98616">
        <ele>494</ele>
        <time>2011-07-03T08:53:23Z</time>
      </trkpt>
      <trkpt lat="45.74929" lon="5.98607">
        <ele>494</ele>
        <time>2011-07-03T08:53:24Z</time>
      </trkpt>
      <trkpt lat="45.7493" lon="5.98599">
        <ele>494</ele>
        <time>2011-07-03T08:53:25Z</time>
      </trkpt>
      <trkpt lat="45.74931" lon="5.9859">
        <ele>494</ele>
        <time>2011-07-03T08:53:26Z</time>
      </trkpt>
      <trkpt lat="45.74933" lon="5.98581">
        <ele>494</ele>
        <time>2011-07-03T08:53:27Z</time>
      </trkpt>
      <trkpt lat="45.74934" lon="5.98572">
        <ele>494</ele>
        <time>2011-07-03T08:53:28Z</time>
      </trkpt>
      <trkpt lat="45.74935" lon="5.98563">
        <ele>494</ele>
        <time>2011-07-03T08:53:29Z</time>
      </trkpt>
      <trkpt lat="45.74937" lon="5.98555">
        <ele>494</ele>
        <time>2011-07-03T08:53:30Z</time>
      </trkpt>
      <trkpt lat="45.74938" lon="5.98546">
        <ele>494</ele>
        <time>2011-07-03T08:53:31Z</time>
      </trkpt>
      <trkpt lat="45.74939" lon="5.98536">
        <ele>494</ele>
        <time>2011-07-03T08:53:32Z</time>
      </trkpt>
      <trkpt lat="45.7494" lon="5.98528">
        <ele>494</ele>
        <time>2011-07-03T08:53:33Z</time>
      </trkpt>
      <trkpt lat="45.74942" lon="5.98519">
        <ele>494</ele>
        <time>2011-07-03T08:53:34Z</time>
      </trkpt>
      <trkpt lat="45.74944" lon="5.9851">
        <ele>494</ele>
        <time>2011-07-03T08:53:35Z</time>
      </trkpt>
      <trkpt lat="45.74945" lon="5.98502">
        <ele>494</ele>
        <time>2011-07-03T08:53:36Z</time>
      </trkpt>
      <trkpt lat="45.74947" lon="5.98494">
        <ele>494</ele>
        <time>2011-07-03T08:53:37Z</time>
      </trkpt>
      <trkpt lat="45.74949" lon="5.98485">
        <ele>494</ele>
        <time>2011-07-03T08:53:38Z</time>
      </trkpt>
      <trkpt lat="45.74951" lon="5.98477">
        <ele>494</ele>
        <time>2011-07-03T08:53:39Z</time>
      </trkpt>
      <trkpt lat="45.74952" lon="5.98469">
        <ele>494</ele>
        <time>2011-07-03T08:53:40Z</time>
      </trkpt>
      <trkpt lat="45.74954" lon="5.98461">
        <ele>494</ele>
        <time>2011-07-03T08:53:41Z</time>
      </trkpt>
      <trkpt lat="45.74955" lon="5.98454">
        <ele>494</ele>
        <time>2011-07-03T08:53:42Z</time>
      </trkpt>
      <trkpt lat="45.74953" lon="5.98448">
        <ele>493</ele>
        <time>2011-07-03T08:53:43Z</time>
      </trkpt>
      <trkpt lat="45.74949" lon="5.98444">
        <ele>493</ele>
        <time>2011-07-03T08:53:44Z</time>
      </trkpt>
      <trkpt lat="45.74943" lon="5.98441">
        <ele>492</ele>
        <time>2011-07-03T08:53:45Z</time>
      </trkpt>
      <trkpt lat="45.74937" lon="5.98437">
        <ele>492</ele>
        <time>2011-07-03T08:53:46Z</time>
      </trkpt>
      <trkpt lat="45.7493" lon="5.98434">
        <ele>491</ele>
        <time>2011-07-03T08:53:47Z</time>
      </trkpt>
      <trkpt lat="45.74923" lon="5.9843">
        <ele>490</ele>
        <time>2011-07-03T08:53:48Z</time>
      </trkpt>
      <trkpt lat="45.74917" lon="5.98427">
        <ele>490</ele>
        <time>2011-07-03T08:53:49Z</time>
      </trkpt>
      <trkpt lat="45.7491" lon="5.98424">
        <ele>489</ele>
        <time>2011-07-03T08:53:50Z</time>
      </trkpt>
      <trkpt lat="45.74903" lon="5.98421">
        <ele>489</ele>
        <time>2011-07-03T08:53:51Z</time>
      </trkpt>
      <trkpt lat="45.74897" lon="5.98417">
        <ele>489</ele>
        <time>2011-07-03T08:53:52Z</time>
      </trkpt>
      <trkpt lat="45.7489" lon="5.98414">
        <ele>489</ele>
        <time>2011-07-03T08:53:53Z</time>
      </trkpt>
      <trkpt lat="45.74884" lon="5.9841">
        <ele>488</ele>
        <time>2011-07-03T08:53:54Z</time>
      </trkpt>
      <trkpt lat="45.74878" lon="5.98407">
        <ele>488</ele>
        <time>2011-07-03T08:53:55Z</time>
      </trkpt>
      <trkpt lat="45.74872" lon="5.98404">
        <ele>488</ele>
        <time>2011-07-03T08:53:56Z</time>
      </trkpt>
      <trkpt lat="45.74867" lon="5.98401">
        <ele>488</ele>
        <time>2011-07-03T08:53:57Z</time>
      </trkpt>
      <trkpt lat="45.74861" lon="5.98398">
        <ele>487</ele>
        <time>2011-07-03T08:53:58Z</time>
      </trkpt>
      <trkpt lat="45.74855" lon="5.98395">
        <ele>487</ele>
        <time>2011-07-03T08:53:59Z</time>
      </trkpt>
      <trkpt lat="45.74851" lon="5.98392">
        <ele>487</ele>
        <time>2011-07-03T08:54:00Z</time>
      </trkpt>
      <trkpt lat="45.74846" lon="5.98389">
        <ele>487</ele>
        <time>2011-07-03T08:54:01Z</time>
      </trkpt>
      <trkpt lat="45.74842" lon="5.98387">
        <ele>487</ele>
        <time>2011-07-03T08:54:02Z</time>
      </trkpt>
      <trkpt lat="45.74838" lon="5.98385">
        <ele>487</ele>
        <time>2011-07-03T08:54:03Z</time>
      </trkpt>
      <trkpt lat="45.74834" lon="5.98382">
        <ele>487</ele>
        <time>2011-07-03T08:54:04Z</time>
      </trkpt>
      <trkpt lat="45.74831" lon="5.9838">
        <ele>487</ele>
        <time>2011-07-03T08:54:05Z</time>
      </trkpt>
      <trkpt lat="45.74828" lon="5.98377">
        <ele>487</ele>
        <time>2011-07-03T08:54:06Z</time>
      </trkpt>
      <trkpt lat="45.74824" lon="5.98375">
        <ele>487</ele>
        <time>2011-07-03T08:54:07Z</time>
      </trkpt>
      <trkpt lat="45.74821" lon="5.98372">
        <ele>487</ele>
        <time>2011-07-03T08:54:08Z</time>
      </trkpt>
      <trkpt lat="45.74818" lon="5.98369">
        <ele>487</ele>
        <time>2011-07-03T08:54:09Z</time>
      </trkpt>
      <trkpt lat="45.74815" lon="5.98367">
        <ele>487</ele>
        <time>2011-07-03T08:54:10Z</time>
      </trkpt>
      <trkpt lat="45.74812" lon="5.98365">
        <ele>486</ele>
        <time>2011-07-03T08:54:11Z</time>
      </trkpt>
      <trkpt lat="45.74809" lon="5.98364">
        <ele>486</ele>
        <time>2011-07-03T08:54:12Z</time>
      </trkpt>
      <trkpt lat="45.74806" lon="5.98362">
        <ele>486</ele>
        <time>2011-07-03T08:54:13Z</time>
      </trkpt>
      <trkpt lat="45.74804" lon="5.98359">
        <ele>486</ele>
        <time>2011-07-03T08:54:14Z</time>
      </trkpt>
      <trkpt lat="45.74803" lon="5.98356">
        <ele>485</ele>
        <time>2011-07-03T08:54:15Z</time>
      </trkpt>
      <trkpt lat="45.74802" lon="5.98352">
        <ele>485</ele>
        <time>2011-07-03T08:54:16Z</time>
      </trkpt>
      <trkpt lat="45.74802" lon="5.98347">
        <ele>485</ele>
        <time>2011-07-03T08:54:17Z</time>
      </trkpt>
      <trkpt lat="45.74802" lon="5.98343">
        <ele>485</ele>
        <time>2011-07-03T08:54:18Z</time>
      </trkpt>
      <trkpt lat="45.74803" lon="5.98339">
        <ele>485</ele>
        <time>2011-07-03T08:54:19Z</time>
      </trkpt>
      <trkpt lat="45.74802" lon="5.98336">
        <ele>484</ele>
        <time>2011-07-03T08:54:20Z</time>
      </trkpt>
      <trkpt lat="45.74802" lon="5.98334">
        <ele>484</ele>
        <time>2011-07-03T08:54:21Z</time>
      </trkpt>
      <trkpt lat="45.748" lon="5.98333">
        <ele>484</ele>
        <time>2011-07-03T08:54:22Z</time>
      </trkpt>
      <trkpt lat="45.74797" lon="5.98333">
        <ele>483</ele>
        <time>2011-07-03T08:54:23Z</time>
      </trkpt>
      <trkpt lat="45.74795" lon="5.98332">
        <ele>483</ele>
        <time>2011-07-03T08:54:24Z</time>
      </trkpt>
      <trkpt lat="45.74793" lon="5.98332">
        <ele>483</ele>
        <time>2011-07-03T08:54:25Z</time>
      </trkpt>
      <trkpt lat="45.74791" lon="5.98331">
        <ele>483</ele>
        <time>2011-07-03T08:54:26Z</time>
      </trkpt>
      <trkpt lat="45.74789" lon="5.98329">
        <ele>483</ele>
        <time>2011-07-03T08:54:27Z</time>
      </trkpt>
      <trkpt lat="45.74787" lon="5.98328">
        <ele>483</ele>
        <time>2011-07-03T08:54:28Z</time>
      </trkpt>
      <trkpt lat="45.74784" lon="5.98327">
        <ele>483</ele>
        <time>2011-07-03T08:54:29Z</time>
      </trkpt>
      <trkpt lat="45.74782" lon="5.98326">
        <ele>483</ele>
        <time>2011-07-03T08:54:30Z</time>
      </trkpt>
      <trkpt lat="45.7478" lon="5.98327">
        <ele>483</ele>
        <time>2011-07-03T08:54:31Z</time>
      </trkpt>
      <trkpt lat="45.74778" lon="5.98329">
        <ele>483</ele>
        <time>2011-07-03T08:54:32Z</time>
      </trkpt>
      <trkpt lat="45.74778" lon="5.98331">
        <ele>483</ele>
        <time>2011-07-03T08:54:33Z</time>
      </trkpt>
      <trkpt lat="45.74778" lon="5.98334">
        <ele>483</ele>
        <time>2011-07-03T08:54:34Z</time>
      </trkpt>
      <trkpt lat="45.74779" lon="5.98335">
        <ele>483</ele>
        <time>2011-07-03T08:54:35Z</time>
      </trkpt>
      <trkpt lat="45.7478" lon="5.98335">
        <ele>483</ele>
        <time>2011-07-03T08:54:36Z</time>
      </trkpt>
      <trkpt lat="45.74781" lon="5.98333">
        <ele>483</ele>
        <time>2011-07-03T08:54:37Z</time>
      </trkpt>
      <trkpt lat="45.74781" lon="5.98331">
        <ele>483</ele>
        <time>2011-07-03T08:54:38Z</time>
      </trkpt>
      <trkpt lat="45.74778" lon="5.98331">
        <ele>483</ele>
        <time>2011-07-03T08:54:40Z</time>
      </trkpt>
      <trkpt lat="45.74778" lon="5.98332">
        <ele>483</ele>
        <time>2011-07-03T08:54:41Z</time>
      </trkpt>
      <trkpt lat="45.74778" lon="5.98334">
        <ele>483</ele>
        <time>2011-07-03T08:54:42Z</time>
      </trkpt>
      <trkpt lat="45.74778" lon="5.98336">
        <ele>483</ele>
        <time>2011-07-03T08:54:43Z</time>
      </trkpt>
      <trkpt lat="45.74779" lon="5.98338">
        <ele>483</ele>
        <time>2011-07-03T08:54:44Z</time>
      </trkpt>
      <trkpt lat="45.74779" lon="5.98339">
        <ele>483</ele>
        <time>2011-07-03T08:54:45Z</time>
      </trkpt>
      <trkpt lat="45.74779" lon="5.98341">
        <ele>483</ele>
        <time>2011-07-03T08:54:46Z</time>
      </trkpt>
      <trkpt lat="45.74779" lon="5.98343">
        <ele>483</ele>
        <time>2011-07-03T08:54:47Z</time>
      </trkpt>
      <trkpt lat="45.74779" lon="5.98345">
        <ele>483</ele>
        <time>2011-07-03T08:54:48Z</time>
      </trkpt>
      <trkpt lat="45.74778" lon="5.98347">
        <ele>483</ele>
        <time>2011-07-03T08:54:49Z</time>
      </trkpt>
      <trkpt lat="45.74778" lon="5.98349">
        <ele>483</ele>
        <time>2011-07-03T08:54:50Z</time>
      </trkpt>
      <trkpt lat="45.74778" lon="5.98351">
        <ele>483</ele>
        <time>2011-07-03T08:54:51Z</time>
      </trkpt>
      <trkpt lat="45.74778" lon="5.98353">
        <ele>483</ele>
        <time>2011-07-03T08:54:52Z</time>
      </trkpt>
      <trkpt lat="45.74778" lon="5.98355">
        <ele>483</ele>
        <time>2011-07-03T08:54:53Z</time>
      </trkpt>
      <trkpt lat="45.74778" lon="5.98357">
        <ele>483</ele>
        <time>2011-07-03T08:54:54Z</time>
      </trkpt>
      <trkpt lat="45.74778" lon="5.98359">
        <ele>482</ele>
        <time>2011-07-03T08:54:55Z</time>
      </trkpt>
      <trkpt lat="45.74777" lon="5.98361">
        <ele>482</ele>
        <time>2011-07-03T08:54:56Z</time>
      </trkpt>
      <trkpt lat="45.74777" lon="5.98362">
        <ele>482</ele>
        <time>2011-07-03T08:54:57Z</time>
      </trkpt>
      <trkpt lat="45.74777" lon="5.98364">
        <ele>482</ele>
        <time>2011-07-03T08:54:58Z</time>
      </trkpt>
      <trkpt lat="45.74776" lon="5.98366">
        <ele>482</ele>
        <time>2011-07-03T08:54:59Z</time>
      </trkpt>
      <trkpt lat="45.74776" lon="5.98368">
        <ele>482</ele>
        <time>2011-07-03T08:55:00Z</time>
      </trkpt>
      <trkpt lat="45.74775" lon="5.9837">
        <ele>482</ele>
        <time>2011-07-03T08:55:02Z</time>
      </trkpt>
      <trkpt lat="45.74775" lon="5.98372">
        <ele>482</ele>
        <time>2011-07-03T08:55:03Z</time>
      </trkpt>
      <trkpt lat="45.74775" lon="5.98374">
        <ele>482</ele>
        <time>2011-07-03T08:55:04Z</time>
      </trkpt>
      <trkpt lat="45.74777" lon="5.98374">
        <ele>482</ele>
        <time>2011-07-03T08:55:06Z</time>
      </trkpt>
      <trkpt lat="45.74777" lon="5.98371">
        <ele>482</ele>
        <time>2011-07-03T08:55:07Z</time>
      </trkpt>
      <trkpt lat="45.74777" lon="5.9837">
        <ele>482</ele>
        <time>2011-07-03T08:55:08Z</time>
      </trkpt>
      <trkpt lat="45.74775" lon="5.98369">
        <ele>482</ele>
        <time>2011-07-03T08:55:09Z</time>
      </trkpt>
      <trkpt lat="45.74775" lon="5.98373">
        <ele>482</ele>
        <time>2011-07-03T08:55:11Z</time>
      </trkpt>
      <trkpt lat="45.74776" lon="5.98374">
        <ele>482</ele>
        <time>2011-07-03T08:55:12Z</time>
      </trkpt>
      <trkpt lat="45.74777" lon="5.98372">
        <ele>482</ele>
        <time>2011-07-03T08:55:13Z</time>
      </trkpt>
      <trkpt lat="45.74777" lon="5.9837">
        <ele>482</ele>
        <time>2011-07-03T08:55:14Z</time>
      </trkpt>
      <trkpt lat="45.74777" lon="5.98368">
        <ele>482</ele>
        <time>2011-07-03T08:55:15Z</time>
      </trkpt>
      <trkpt lat="45.74775" lon="5.98369">
        <ele>482</ele>
        <time>2011-07-03T08:55:17Z</time>
      </trkpt>
      <trkpt lat="45.74775" lon="5.9837">
        <ele>482</ele>
        <time>2011-07-03T08:55:18Z</time>
      </trkpt>
      <trkpt lat="45.74775" lon="5.98372">
        <ele>482</ele>
        <time>2011-07-03T08:55:19Z</time>
      </trkpt>
      <trkpt lat="45.74775" lon="5.98374">
        <ele>482</ele>
        <time>2011-07-03T08:55:20Z</time>
      </trkpt>
      <trkpt lat="45.74776" lon="5.98375">
        <ele>482</ele>
        <time>2011-07-03T08:55:21Z</time>
      </trkpt>
      <trkpt lat="45.74775" lon="5.98377">
        <ele>482</ele>
        <time>2011-07-03T08:55:23Z</time>
      </trkpt>
      <trkpt lat="45.74774" lon="5.98379">
        <ele>481</ele>
        <time>2011-07-03T08:55:24Z</time>
      </trkpt>
      <trkpt lat="45.74773" lon="5.98381">
        <ele>481</ele>
        <time>2011-07-03T08:55:26Z</time>
      </trkpt>
      <trkpt lat="45.74774" lon="5.98381">
        <ele>481</ele>
        <time>2011-07-03T08:55:39Z</time>
      </trkpt>
      <trkpt lat="45.74775" lon="5.9838">
        <ele>481</ele>
        <time>2011-07-03T08:55:54Z</time>
      </trkpt>
      <trkpt lat="45.74776" lon="5.98382">
        <ele>481</ele>
        <time>2011-07-03T08:56:09Z</time>
      </trkpt>
      <trkpt lat="45.74776" lon="5.98384">
        <ele>481</ele>
        <time>2011-07-03T08:56:10Z</time>
      </trkpt>
      <trkpt lat="45.74775" lon="5.98387">
        <ele>481</ele>
        <time>2011-07-03T08:56:11Z</time>
      </trkpt>
      <trkpt lat="45.74775" lon="5.98391">
        <ele>481</ele>
        <time>2011-07-03T08:56:12Z</time>
      </trkpt>
      <trkpt lat="45.74774" lon="5.98395">
        <ele>481</ele>
        <time>2011-07-03T08:56:13Z</time>
      </trkpt>
      <trkpt lat="45.74775" lon="5.98399">
        <ele>481</ele>
        <time>2011-07-03T08:56:14Z</time>
      </trkpt>
      <trkpt lat="45.74775" lon="5.98403">
        <ele>481</ele>
        <time>2011-07-03T08:56:15Z</time>
      </trkpt>
      <trkpt lat="45.74775" lon="5.98407">
        <ele>481</ele>
        <time>2011-07-03T08:56:16Z</time>
      </trkpt>
      <trkpt lat="45.74774" lon="5.98411">
        <ele>481</ele>
        <time>2011-07-03T08:56:17Z</time>
      </trkpt>
      <trkpt lat="45.74774" lon="5.98415">
        <ele>481</ele>
        <time>2011-07-03T08:56:18Z</time>
      </trkpt>
      <trkpt lat="45.74774" lon="5.98419">
        <ele>481</ele>
        <time>2011-07-03T08:56:19Z</time>
      </trkpt>
      <trkpt lat="45.74773" lon="5.98423">
        <ele>481</ele>
        <time>2011-07-03T08:56:20Z</time>
      </trkpt>
      <trkpt lat="45.74773" lon="5.98427">
        <ele>481</ele>
        <time>2011-07-03T08:56:21Z</time>
      </trkpt>
      <trkpt lat="45.74773" lon="5.98431">
        <ele>481</ele>
        <time>2011-07-03T08:56:22Z</time>
      </trkpt>
      <trkpt lat="45.74773" lon="5.98435">
        <ele>481</ele>
        <time>2011-07-03T08:56:23Z</time>
      </trkpt>
      <trkpt lat="45.74773" lon="5.98439">
        <ele>481</ele>
        <time>2011-07-03T08:56:24Z</time>
      </trkpt>
      <trkpt lat="45.74772" lon="5.98443">
        <ele>481</ele>
        <time>2011-07-03T08:56:25Z</time>
      </trkpt>
      <trkpt lat="45.74772" lon="5.98447">
        <ele>481</ele>
        <time>2011-07-03T08:56:26Z</time>
      </trkpt>
      <trkpt lat="45.74772" lon="5.9845">
        <ele>481</ele>
        <time>2011-07-03T08:56:27Z</time>
      </trkpt>
      <trkpt lat="45.74773" lon="5.98452">
        <ele>481</ele>
        <time>2011-07-03T08:56:28Z</time>
      </trkpt>
      <trkpt lat="45.74773" lon="5.98454">
        <ele>481</ele>
        <time>2011-07-03T08:56:29Z</time>
      </trkpt>
      <trkpt lat="45.74772" lon="5.98457">
        <ele>481</ele>
        <time>2011-07-03T08:56:30Z</time>
      </trkpt>
      <trkpt lat="45.74772" lon="5.9846">
        <ele>481</ele>
        <time>2011-07-03T08:56:31Z</time>
      </trkpt>
      <trkpt lat="45.74771" lon="5.98463">
        <ele>481</ele>
        <time>2011-07-03T08:56:32Z</time>
      </trkpt>
      <trkpt lat="45.74771" lon="5.98467">
        <ele>481</ele>
        <time>2011-07-03T08:56:33Z</time>
      </trkpt>
      <trkpt lat="45.74771" lon="5.9847">
        <ele>481</ele>
        <time>2011-07-03T08:56:34Z</time>
      </trkpt>
      <trkpt lat="45.74771" lon="5.98474">
        <ele>481</ele>
        <time>2011-07-03T08:56:35Z</time>
      </trkpt>
      <trkpt lat="45.74771" lon="5.98477">
        <ele>482</ele>
        <time>2011-07-03T08:56:36Z</time>
      </trkpt>
      <trkpt lat="45.74771" lon="5.98481">
        <ele>482</ele>
        <time>2011-07-03T08:56:37Z</time>
      </trkpt>
      <trkpt lat="45.7477" lon="5.98485">
        <ele>482</ele>
        <time>2011-07-03T08:56:38Z</time>
      </trkpt>
      <trkpt lat="45.7477" lon="5.98488">
        <ele>482</ele>
        <time>2011-07-03T08:56:39Z</time>
      </trkpt>
      <trkpt lat="45.7477" lon="5.98491">
        <ele>482</ele>
        <time>2011-07-03T08:56:40Z</time>
      </trkpt>
      <trkpt lat="45.7477" lon="5.98494">
        <ele>482</ele>
        <time>2011-07-03T08:56:41Z</time>
      </trkpt>
      <trkpt lat="45.74769" lon="5.98497">
        <ele>482</ele>
        <time>2011-07-03T08:56:42Z</time>
      </trkpt>
      <trkpt lat="45.74769" lon="5.98501">
        <ele>482</ele>
        <time>2011-07-03T08:56:43Z</time>
      </trkpt>
      <trkpt lat="45.74769" lon="5.98504">
        <ele>482</ele>
        <time>2011-07-03T08:56:44Z</time>
      </trkpt>
      <trkpt lat="45.74769" lon="5.98507">
        <ele>482</ele>
        <time>2011-07-03T08:56:45Z</time>
      </trkpt>
      <trkpt lat="45.74769" lon="5.9851">
        <ele>482</ele>
        <time>2011-07-03T08:56:46Z</time>
      </trkpt>
      <trkpt lat="45.74768" lon="5.98514">
        <ele>483</ele>
        <time>2011-07-03T08:56:47Z</time>
      </trkpt>
      <trkpt lat="45.74768" lon="5.98518">
        <ele>483</ele>
        <time>2011-07-03T08:56:48Z</time>
      </trkpt>
      <trkpt lat="45.74768" lon="5.98524">
        <ele>483</ele>
        <time>2011-07-03T08:56:49Z</time>
      </trkpt>
      <trkpt lat="45.74768" lon="5.98529">
        <ele>483</ele>
        <time>2011-07-03T08:56:50Z</time>
      </trkpt>
      <trkpt lat="45.74767" lon="5.98535">
        <ele>483</ele>
        <time>2011-07-03T08:56:51Z</time>
      </trkpt>
      <trkpt lat="45.74767" lon="5.98541">
        <ele>483</ele>
        <time>2011-07-03T08:56:52Z</time>
      </trkpt>
      <trkpt lat="45.74767" lon="5.98548">
        <ele>483</ele>
        <time>2011-07-03T08:56:53Z</time>
      </trkpt>
      <trkpt lat="45.74766" lon="5.98554">
        <ele>483</ele>
        <time>2011-07-03T08:56:54Z</time>
      </trkpt>
      <trkpt lat="45.74765" lon="5.9856">
        <ele>483</ele>
        <time>2011-07-03T08:56:55Z</time>
      </trkpt>
      <trkpt lat="45.74765" lon="5.98566">
        <ele>483</ele>
        <time>2011-07-03T08:56:56Z</time>
      </trkpt>
      <trkpt lat="45.74764" lon="5.98571">
        <ele>483</ele>
        <time>2011-07-03T08:56:57Z</time>
      </trkpt>
      <trkpt lat="45.74763" lon="5.98577">
        <ele>483</ele>
        <time>2011-07-03T08:56:58Z</time>
      </trkpt>
      <trkpt lat="45.74762" lon="5.98581">
        <ele>483</ele>
        <time>2011-07-03T08:56:59Z</time>
      </trkpt>
      <trkpt lat="45.74762" lon="5.98585">
        <ele>483</ele>
        <time>2011-07-03T08:57:00Z</time>
      </trkpt>
      <trkpt lat="45.74761" lon="5.98589">
        <ele>483</ele>
        <time>2011-07-03T08:57:01Z</time>
      </trkpt>
      <trkpt lat="45.74761" lon="5.98592">
        <ele>483</ele>
        <time>2011-07-03T08:57:02Z</time>
      </trkpt>
      <trkpt lat="45.74762" lon="5.98595">
        <ele>483</ele>
        <time>2011-07-03T08:57:03Z</time>
      </trkpt>
      <trkpt lat="45.74762" lon="5.98598">
        <ele>483</ele>
        <time>2011-07-03T08:57:04Z</time>
      </trkpt>
      <trkpt lat="45.74762" lon="5.98602">
        <ele>483</ele>
        <time>2011-07-03T08:57:05Z</time>
      </trkpt>
      <trkpt lat="45.74761" lon="5.98606">
        <ele>483</ele>
        <time>2011-07-03T08:57:06Z</time>
      </trkpt>
      <trkpt lat="45.7476" lon="5.98609">
        <ele>483</ele>
        <time>2011-07-03T08:57:07Z</time>
      </trkpt>
      <trkpt lat="45.74759" lon="5.98614">
        <ele>483</ele>
        <time>2011-07-03T08:57:08Z</time>
      </trkpt>
      <trkpt lat="45.74759" lon="5.98618">
        <ele>483</ele>
        <time>2011-07-03T08:57:09Z</time>
      </trkpt>
      <trkpt lat="45.74758" lon="5.98622">
        <ele>483</ele>
        <time>2011-07-03T08:57:10Z</time>
      </trkpt>
      <trkpt lat="45.74758" lon="5.98627">
        <ele>483</ele>
        <time>2011-07-03T08:57:11Z</time>
      </trkpt>
      <trkpt lat="45.74757" lon="5.98631">
        <ele>483</ele>
        <time>2011-07-03T08:57:12Z</time>
      </trkpt>
      <trkpt lat="45.74757" lon="5.98636">
        <ele>483</ele>
        <time>2011-07-03T08:57:13Z</time>
      </trkpt>
      <trkpt lat="45.74756" lon="5.98641">
        <ele>483</ele>
        <time>2011-07-03T08:57:14Z</time>
      </trkpt>
      <trkpt lat="45.74756" lon="5.98646">
        <ele>483</ele>
        <time>2011-07-03T08:57:15Z</time>
      </trkpt>
      <trkpt lat="45.74756" lon="5.98652">
        <ele>483</ele>
        <time>2011-07-03T08:57:16Z</time>
      </trkpt>
      <trkpt lat="45.74756" lon="5.98657">
        <ele>483</ele>
        <time>2011-07-03T08:57:17Z</time>
      </trkpt>
      <trkpt lat="45.74757" lon="5.98663">
        <ele>483</ele>
        <time>2011-07-03T08:57:18Z</time>
      </trkpt>
      <trkpt lat="45.74757" lon="5.98668">
        <ele>483</ele>
        <time>2011-07-03T08:57:19Z</time>
      </trkpt>
      <trkpt lat="45.74759" lon="5.98674">
        <ele>483</ele>
        <time>2011-07-03T08:57:20Z</time>
      </trkpt>
      <trkpt lat="45.7476" lon="5.9868">
        <ele>483</ele>
        <time>2011-07-03T08:57:21Z</time>
      </trkpt>
      <trkpt lat="45.74761" lon="5.98686">
        <ele>483</ele>
        <time>2011-07-03T08:57:22Z</time>
      </trkpt>
      <trkpt lat="45.74762" lon="5.98691">
        <ele>483</ele>
        <time>2011-07-03T08:57:23Z</time>
      </trkpt>
      <trkpt lat="45.74763" lon="5.98696">
        <ele>483</ele>
        <time>2011-07-03T08:57:24Z</time>
      </trkpt>
      <trkpt lat="45.74766" lon="5.98701">
        <ele>483</ele>
        <time>2011-07-03T08:57:25Z</time>
      </trkpt>
      <trkpt lat="45.74769" lon="5.98704">
        <ele>483</ele>
        <time>2011-07-03T08:57:26Z</time>
      </trkpt>
      <trkpt lat="45.74772" lon="5.98706">
        <ele>483</ele>
        <time>2011-07-03T08:57:27Z</time>
      </trkpt>
      <trkpt lat="45.74776" lon="5.98707">
        <ele>483</ele>
        <time>2011-07-03T08:57:28Z</time>
      </trkpt>
      <trkpt lat="45.74779" lon="5.98705">
        <ele>483</ele>
        <time>2011-07-03T08:57:29Z</time>
      </trkpt>
      <trkpt lat="45.74781" lon="5.98702">
        <ele>483</ele>
        <time>2011-07-03T08:57:30Z</time>
      </trkpt>
      <trkpt lat="45.74782" lon="5.98697">
        <ele>483</ele>
        <time>2011-07-03T08:57:31Z</time>
      </trkpt>
      <trkpt lat="45.74781" lon="5.98691">
        <ele>483</ele>
        <time>2011-07-03T08:57:32Z</time>
      </trkpt>
      <trkpt lat="45.74779" lon="5.98687">
        <ele>483</ele>
        <time>2011-07-03T08:57:33Z</time>
      </trkpt>
      <trkpt lat="45.74776" lon="5.98683">
        <ele>483</ele>
        <time>2011-07-03T08:57:34Z</time>
      </trkpt>
      <trkpt lat="45.74775" lon="5.98681">
        <ele>483</ele>
        <time>2011-07-03T08:57:35Z</time>
      </trkpt>
      <trkpt lat="45.74773" lon="5.98679">
        <ele>483</ele>
        <time>2011-07-03T08:57:36Z</time>
      </trkpt>
      <trkpt lat="45.74771" lon="5.98676">
        <ele>483</ele>
        <time>2011-07-03T08:57:38Z</time>
      </trkpt>
      <trkpt lat="45.7477" lon="5.98674">
        <ele>483</ele>
        <time>2011-07-03T08:57:39Z</time>
      </trkpt>
      <trkpt lat="45.7477" lon="5.98673">
        <ele>483</ele>
        <time>2011-07-03T08:57:41Z</time>
      </trkpt>
      <trkpt lat="45.74769" lon="5.98671">
        <ele>483</ele>
        <time>2011-07-03T08:57:49Z</time>
      </trkpt>
      <trkpt lat="45.74769" lon="5.98669">
        <ele>483</ele>
        <time>2011-07-03T08:57:50Z</time>
      </trkpt>
      <trkpt lat="45.7477" lon="5.98667">
        <ele>483</ele>
        <time>2011-07-03T08:57:51Z</time>
      </trkpt>
      <trkpt lat="45.7477" lon="5.98664">
        <ele>483</ele>
        <time>2011-07-03T08:57:52Z</time>
      </trkpt>
      <trkpt lat="45.7477" lon="5.98661">
        <ele>483</ele>
        <time>2011-07-03T08:57:53Z</time>
      </trkpt>
      <trkpt lat="45.7477" lon="5.98658">
        <ele>483</ele>
        <time>2011-07-03T08:57:54Z</time>
      </trkpt>
      <trkpt lat="45.74771" lon="5.98655">
        <ele>483</ele>
        <time>2011-07-03T08:57:55Z</time>
      </trkpt>
      <trkpt lat="45.74772" lon="5.98651">
        <ele>483</ele>
        <time>2011-07-03T08:57:56Z</time>
      </trkpt>
      <trkpt lat="45.74772" lon="5.98647">
        <ele>483</ele>
        <time>2011-07-03T08:57:57Z</time>
      </trkpt>
      <trkpt lat="45.74773" lon="5.98642">
        <ele>482</ele>
        <time>2011-07-03T08:57:58Z</time>
      </trkpt>
      <trkpt lat="45.74773" lon="5.98636">
        <ele>482</ele>
        <time>2011-07-03T08:57:59Z</time>
      </trkpt>
      <trkpt lat="45.74772" lon="5.98631">
        <ele>482</ele>
        <time>2011-07-03T08:58:00Z</time>
      </trkpt>
      <trkpt lat="45.74772" lon="5.98627">
        <ele>482</ele>
        <time>2011-07-03T08:58:01Z</time>
      </trkpt>
      <trkpt lat="45.74771" lon="5.98623">
        <ele>482</ele>
        <time>2011-07-03T08:58:02Z</time>
      </trkpt>
      <trkpt lat="45.74771" lon="5.98619">
        <ele>482</ele>
        <time>2011-07-03T08:58:03Z</time>
      </trkpt>
      <trkpt lat="45.7477" lon="5.98615">
        <ele>482</ele>
        <time>2011-07-03T08:58:04Z</time>
      </trkpt>
      <trkpt lat="45.74769" lon="5.98612">
        <ele>482</ele>
        <time>2011-07-03T08:58:05Z</time>
      </trkpt>
      <trkpt lat="45.74768" lon="5.98609">
        <ele>482</ele>
        <time>2011-07-03T08:58:06Z</time>
      </trkpt>
      <trkpt lat="45.74768" lon="5.98607">
        <ele>482</ele>
        <time>2011-07-03T08:58:11Z</time>
      </trkpt>
      <trkpt lat="45.74766" lon="5.98608">
        <ele>482</ele>
        <time>2011-07-03T08:58:15Z</time>
      </trkpt>
      <trkpt lat="45.74768" lon="5.98607">
        <ele>482</ele>
        <time>2011-07-03T08:58:34Z</time>
      </trkpt>
      <trkpt lat="45.74768" lon="5.98607">
        <ele>482</ele>
        <time>2011-07-03T08:58:39Z</time>
      </trkpt>
      <trkpt lat="45.74768" lon="5.98658">
        <ele>500</ele>
        <time>2011-07-03T10:59:59Z</time>
      </trkpt>
      <trkpt lat="45.74784" lon="5.9869">
        <ele>496</ele>
        <time>2011-07-03T11:01:23Z</time>
      </trkpt>
      <trkpt lat="45.74785" lon="5.98693">
        <ele>496</ele>
        <time>2011-07-03T11:01:24Z</time>
      </trkpt>
      <trkpt lat="45.74785" lon="5.98698">
        <ele>496</ele>
        <time>2011-07-03T11:01:25Z</time>
      </trkpt>
      <trkpt lat="45.74785" lon="5.98702">
        <ele>496</ele>
        <time>2011-07-03T11:01:26Z</time>
      </trkpt>
      <trkpt lat="45.74784" lon="5.98706">
        <ele>496</ele>
        <time>2011-07-03T11:01:27Z</time>
      </trkpt>
      <trkpt lat="45.74784" lon="5.98709">
        <ele>496</ele>
        <time>2011-07-03T11:01:28Z</time>
      </trkpt>
      <trkpt lat="45.74783" lon="5.98712">
        <ele>496</ele>
        <time>2011-07-03T11:01:29Z</time>
      </trkpt>
      <trkpt lat="45.74783" lon="5.98715">
        <ele>496</ele>
        <time>2011-07-03T11:01:30Z</time>
      </trkpt>
      <trkpt lat="45.74784" lon="5.98719">
        <ele>496</ele>
        <time>2011-07-03T11:01:31Z</time>
      </trkpt>
      <trkpt lat="45.74785" lon="5.98722">
        <ele>495</ele>
        <time>2011-07-03T11:01:32Z</time>
      </trkpt>
      <trkpt lat="45.74786" lon="5.98726">
        <ele>495</ele>
        <time>2011-07-03T11:01:33Z</time>
      </trkpt>
      <trkpt lat="45.74787" lon="5.98729">
        <ele>495</ele>
        <time>2011-07-03T11:01:34Z</time>
      </trkpt>
      <trkpt lat="45.74789" lon="5.98733">
        <ele>495</ele>
        <time>2011-07-03T11:01:35Z</time>
      </trkpt>
      <trkpt lat="45.7479" lon="5.98736">
        <ele>495</ele>
        <time>2011-07-03T11:01:36Z</time>
      </trkpt>
      <trkpt lat="45.74791" lon="5.9874">
        <ele>495</ele>
        <time>2011-07-03T11:01:37Z</time>
      </trkpt>
      <trkpt lat="45.74792" lon="5.98744">
        <ele>495</ele>
        <time>2011-07-03T11:01:38Z</time>
      </trkpt>
      <trkpt lat="45.74794" lon="5.98748">
        <ele>495</ele>
        <time>2011-07-03T11:01:39Z</time>
      </trkpt>
      <trkpt lat="45.74795" lon="5.98753">
        <ele>495</ele>
        <time>2011-07-03T11:01:40Z</time>
      </trkpt>
      <trkpt lat="45.74796" lon="5.98757">
        <ele>495</ele>
        <time>2011-07-03T11:01:41Z</time>
      </trkpt>
      <trkpt lat="45.74797" lon="5.98762">
        <ele>495</ele>
        <time>2011-07-03T11:01:42Z</time>
      </trkpt>
      <trkpt lat="45.74797" lon="5.98767">
        <ele>495</ele>
        <time>2011-07-03T11:01:43Z</time>
      </trkpt>
      <trkpt lat="45.74796" lon="5.98771">
        <ele>494</ele>
        <time>2011-07-03T11:01:44Z</time>
      </trkpt>
      <trkpt lat="45.74795" lon="5.98775">
        <ele>493</ele>
        <time>2011-07-03T11:01:45Z</time>
      </trkpt>
      <trkpt lat="45.74794" lon="5.98778">
        <ele>492</ele>
        <time>2011-07-03T11:01:46Z</time>
      </trkpt>
      <trkpt lat="45.74793" lon="5.98781">
        <ele>492</ele>
        <time>2011-07-03T11:01:47Z</time>
      </trkpt>
      <trkpt lat="45.74791" lon="5.98783">
        <ele>491</ele>
        <time>2011-07-03T11:01:48Z</time>
      </trkpt>
      <trkpt lat="45.7479" lon="5.98786">
        <ele>491</ele>
        <time>2011-07-03T11:01:49Z</time>
      </trkpt>
      <trkpt lat="45.74789" lon="5.98789">
        <ele>491</ele>
        <time>2011-07-03T11:01:50Z</time>
      </trkpt>
      <trkpt lat="45.74789" lon="5.98792">
        <ele>491</ele>
        <time>2011-07-03T11:01:51Z</time>
      </trkpt>
      <trkpt lat="45.74789" lon="5.98795">
        <ele>491</ele>
        <time>2011-07-03T11:01:52Z</time>
      </trkpt>
      <trkpt lat="45.74789" lon="5.98798">
        <ele>491</ele>
        <time>2011-07-03T11:01:53Z</time>
      </trkpt>
      <trkpt lat="45.74789" lon="5.988">
        <ele>491</ele>
        <time>2011-07-03T11:01:54Z</time>
      </trkpt>
      <trkpt lat="45.74789" lon="5.98802">
        <ele>491</ele>
        <time>2011-07-03T11:01:55Z</time>
      </trkpt>
      <trkpt lat="45.74789" lon="5.98804">
        <ele>491</ele>
        <time>2011-07-03T11:01:57Z</time>
      </trkpt>
      <trkpt lat="45.74789" lon="5.98806">
        <ele>492</ele>
        <time>2011-07-03T11:01:58Z</time>
      </trkpt>
      <trkpt lat="45.74789" lon="5.98808">
        <ele>493</ele>
        <time>2011-07-03T11:01:59Z</time>
      </trkpt>
      <trkpt lat="45.74791" lon="5.98811">
        <ele>494</ele>
        <time>2011-07-03T11:02:00Z</time>
      </trkpt>
      <trkpt lat="45.74792" lon="5.98812">
        <ele>495</ele>
        <time>2011-07-03T11:02:01Z</time>
      </trkpt>
      <trkpt lat="45.74793" lon="5.98816">
        <ele>496</ele>
        <time>2011-07-03T11:02:03Z</time>
      </trkpt>
      <trkpt lat="45.74794" lon="5.98819">
        <ele>496</ele>
        <time>2011-07-03T11:02:04Z</time>
      </trkpt>
      <trkpt lat="45.74796" lon="5.98821">
        <ele>496</ele>
        <time>2011-07-03T11:02:05Z</time>
      </trkpt>
      <trkpt lat="45.74797" lon="5.98823">
        <ele>496</ele>
        <time>2011-07-03T11:02:06Z</time>
      </trkpt>
      <trkpt lat="45.74798" lon="5.98825">
        <ele>496</ele>
        <time>2011-07-03T11:02:07Z</time>
      </trkpt>
      <trkpt lat="45.74799" lon="5.98827">
        <ele>496</ele>
        <time>2011-07-03T11:02:08Z</time>
      </trkpt>
      <trkpt lat="45.74799" lon="5.98829">
        <ele>496</ele>
        <time>2011-07-03T11:02:09Z</time>
      </trkpt>
      <trkpt lat="45.748" lon="5.98832">
        <ele>496</ele>
        <time>2011-07-03T11:02:10Z</time>
      </trkpt>
      <trkpt lat="45.74801" lon="5.98834">
        <ele>496</ele>
        <time>2011-07-03T11:02:11Z</time>
      </trkpt>
      <trkpt lat="45.74802" lon="5.98836">
        <ele>496</ele>
        <time>2011-07-03T11:02:12Z</time>
      </trkpt>
      <trkpt lat="45.74803" lon="5.98838">
        <ele>496</ele>
        <time>2011-07-03T11:02:13Z</time>
      </trkpt>
      <trkpt lat="45.74804" lon="5.9884">
        <ele>496</ele>
        <time>2011-07-03T11:02:14Z</time>
      </trkpt>
      <trkpt lat="45.74805" lon="5.98843">
        <ele>496</ele>
        <time>2011-07-03T11:02:15Z</time>
      </trkpt>
      <trkpt lat="45.74807" lon="5.98845">
        <ele>496</ele>
        <time>2011-07-03T11:02:16Z</time>
      </trkpt>
      <trkpt lat="45.74808" lon="5.98847">
        <ele>496</ele>
        <time>2011-07-03T11:02:17Z</time>
      </trkpt>
      <trkpt lat="45.74808" lon="5.98848">
        <ele>496</ele>
        <time>2011-07-03T11:02:18Z</time>
      </trkpt>
      <trkpt lat="45.74808" lon="5.9885">
        <ele>496</ele>
        <time>2011-07-03T11:02:19Z</time>
      </trkpt>
      <trkpt lat="45.74809" lon="5.98852">
        <ele>496</ele>
        <time>2011-07-03T11:02:20Z</time>
      </trkpt>
      <trkpt lat="45.7481" lon="5.98855">
        <ele>496</ele>
        <time>2011-07-03T11:02:21Z</time>
      </trkpt>
      <trkpt lat="45.74811" lon="5.98857">
        <ele>496</ele>
        <time>2011-07-03T11:02:22Z</time>
      </trkpt>
      <trkpt lat="45.74812" lon="5.98859">
        <ele>496</ele>
        <time>2011-07-03T11:02:23Z</time>
      </trkpt>
      <trkpt lat="45.74812" lon="5.98862">
        <ele>496</ele>
        <time>2011-07-03T11:02:25Z</time>
      </trkpt>
      <trkpt lat="45.74812" lon="5.98865">
        <ele>496</ele>
        <time>2011-07-03T11:02:26Z</time>
      </trkpt>
      <trkpt lat="45.74813" lon="5.98868">
        <ele>496</ele>
        <time>2011-07-03T11:02:27Z</time>
      </trkpt>
      <trkpt lat="45.74813" lon="5.9887">
        <ele>496</ele>
        <time>2011-07-03T11:02:28Z</time>
      </trkpt>
      <trkpt lat="45.74813" lon="5.98873">
        <ele>496</ele>
        <time>2011-07-03T11:02:29Z</time>
      </trkpt>
      <trkpt lat="45.74814" lon="5.98876">
        <ele>496</ele>
        <time>2011-07-03T11:02:30Z</time>
      </trkpt>
      <trkpt lat="45.74815" lon="5.98878">
        <ele>496</ele>
        <time>2011-07-03T11:02:31Z</time>
      </trkpt>
      <trkpt lat="45.74815" lon="5.9888">
        <ele>496</ele>
        <time>2011-07-03T11:02:32Z</time>
      </trkpt>
      <trkpt lat="45.74815" lon="5.98882">
        <ele>496</ele>
        <time>2011-07-03T11:02:33Z</time>
      </trkpt>
      <trkpt lat="45.74816" lon="5.98885">
        <ele>496</ele>
        <time>2011-07-03T11:02:34Z</time>
      </trkpt>
      <trkpt lat="45.74816" lon="5.98886">
        <ele>496</ele>
        <time>2011-07-03T11:02:35Z</time>
      </trkpt>
      <trkpt lat="45.74816" lon="5.98888">
        <ele>496</ele>
        <time>2011-07-03T11:02:36Z</time>
      </trkpt>
      <trkpt lat="45.74816" lon="5.9889">
        <ele>496</ele>
        <time>2011-07-03T11:02:37Z</time>
      </trkpt>
      <trkpt lat="45.74816" lon="5.98893">
        <ele>497</ele>
        <time>2011-07-03T11:02:38Z</time>
      </trkpt>
      <trkpt lat="45.74817" lon="5.98895">
        <ele>497</ele>
        <time>2011-07-03T11:02:39Z</time>
      </trkpt>
      <trkpt lat="45.74818" lon="5.98897">
        <ele>497</ele>
        <time>2011-07-03T11:02:40Z</time>
      </trkpt>
      <trkpt lat="45.74818" lon="5.98899">
        <ele>498</ele>
        <time>2011-07-03T11:02:41Z</time>
      </trkpt>
      <trkpt lat="45.74819" lon="5.98901">
        <ele>498</ele>
        <time>2011-07-03T11:02:42Z</time>
      </trkpt>
      <trkpt lat="45.7482" lon="5.98903">
        <ele>498</ele>
        <time>2011-07-03T11:02:43Z</time>
      </trkpt>
      <trkpt lat="45.74821" lon="5.98905">
        <ele>498</ele>
        <time>2011-07-03T11:02:44Z</time>
      </trkpt>
      <trkpt lat="45.74822" lon="5.98908">
        <ele>498</ele>
        <time>2011-07-03T11:02:45Z</time>
      </trkpt>
      <trkpt lat="45.74823" lon="5.9891">
        <ele>498</ele>
        <time>2011-07-03T11:02:46Z</time>
      </trkpt>
      <trkpt lat="45.74823" lon="5.98912">
        <ele>498</ele>
        <time>2011-07-03T11:02:47Z</time>
      </trkpt>
      <trkpt lat="45.74823" lon="5.98915">
        <ele>498</ele>
        <time>2011-07-03T11:02:48Z</time>
      </trkpt>
      <trkpt lat="45.74823" lon="5.98917">
        <ele>498</ele>
        <time>2011-07-03T11:02:49Z</time>
      </trkpt>
      <trkpt lat="45.74823" lon="5.98919">
        <ele>498</ele>
        <time>2011-07-03T11:02:50Z</time>
      </trkpt>
      <trkpt lat="45.74823" lon="5.98921">
        <ele>498</ele>
        <time>2011-07-03T11:02:51Z</time>
      </trkpt>
      <trkpt lat="45.74823" lon="5.98923">
        <ele>498</ele>
        <time>2011-07-03T11:02:52Z</time>
      </trkpt>
      <trkpt lat="45.74823" lon="5.98925">
        <ele>498</ele>
        <time>2011-07-03T11:02:53Z</time>
      </trkpt>
      <trkpt lat="45.74823" lon="5.98928">
        <ele>498</ele>
        <time>2011-07-03T11:02:54Z</time>
      </trkpt>
      <trkpt lat="45.74824" lon="5.9893">
        <ele>498</ele>
        <time>2011-07-03T11:02:55Z</time>
      </trkpt>
      <trkpt lat="45.74824" lon="5.98933">
        <ele>498</ele>
        <time>2011-07-03T11:02:56Z</time>
      </trkpt>
      <trkpt lat="45.74825" lon="5.98936">
        <ele>498</ele>
        <time>2011-07-03T11:02:57Z</time>
      </trkpt>
      <trkpt lat="45.74825" lon="5.98938">
        <ele>498</ele>
        <time>2011-07-03T11:02:58Z</time>
      </trkpt>
      <trkpt lat="45.74826" lon="5.9894">
        <ele>498</ele>
        <time>2011-07-03T11:02:59Z</time>
      </trkpt>
      <trkpt lat="45.74826" lon="5.98943">
        <ele>498</ele>
        <time>2011-07-03T11:03:00Z</time>
      </trkpt>
      <trkpt lat="45.74827" lon="5.98946">
        <ele>498</ele>
        <time>2011-07-03T11:03:01Z</time>
      </trkpt>
      <trkpt lat="45.74828" lon="5.98948">
        <ele>498</ele>
        <time>2011-07-03T11:03:02Z</time>
      </trkpt>
      <trkpt lat="45.74828" lon="5.98951">
        <ele>498</ele>
        <time>2011-07-03T11:03:03Z</time>
      </trkpt>
      <trkpt lat="45.74829" lon="5.98954">
        <ele>498</ele>
        <time>2011-07-03T11:03:04Z</time>
      </trkpt>
      <trkpt lat="45.74829" lon="5.98956">
        <ele>498</ele>
        <time>2011-07-03T11:03:05Z</time>
      </trkpt>
      <trkpt lat="45.7483" lon="5.98959">
        <ele>498</ele>
        <time>2011-07-03T11:03:06Z</time>
      </trkpt>
      <trkpt lat="45.74831" lon="5.98962">
        <ele>498</ele>
        <time>2011-07-03T11:03:07Z</time>
      </trkpt>
      <trkpt lat="45.74831" lon="5.98964">
        <ele>498</ele>
        <time>2011-07-03T11:03:08Z</time>
      </trkpt>
      <trkpt lat="45.74831" lon="5.98966">
        <ele>498</ele>
        <time>2011-07-03T11:03:09Z</time>
      </trkpt>
      <trkpt lat="45.74831" lon="5.98968">
        <ele>498</ele>
        <time>2011-07-03T11:03:10Z</time>
      </trkpt>
      <trkpt lat="45.74831" lon="5.98969">
        <ele>499</ele>
        <time>2011-07-03T11:03:11Z</time>
      </trkpt>
      <trkpt lat="45.74831" lon="5.98971">
        <ele>499</ele>
        <time>2011-07-03T11:03:12Z</time>
      </trkpt>
      <trkpt lat="45.74832" lon="5.98973">
        <ele>500</ele>
        <time>2011-07-03T11:03:13Z</time>
      </trkpt>
      <trkpt lat="45.74832" lon="5.98976">
        <ele>500</ele>
        <time>2011-07-03T11:03:14Z</time>
      </trkpt>
      <trkpt lat="45.74833" lon="5.98978">
        <ele>500</ele>
        <time>2011-07-03T11:03:15Z</time>
      </trkpt>
      <trkpt lat="45.74834" lon="5.98981">
        <ele>501</ele>
        <time>2011-07-03T11:03:16Z</time>
      </trkpt>
      <trkpt lat="45.74836" lon="5.98983">
        <ele>501</ele>
        <time>2011-07-03T11:03:17Z</time>
      </trkpt>
      <trkpt lat="45.74837" lon="5.98986">
        <ele>501</ele>
        <time>2011-07-03T11:03:18Z</time>
      </trkpt>
      <trkpt lat="45.74839" lon="5.98989">
        <ele>502</ele>
        <time>2011-07-03T11:03:19Z</time>
      </trkpt>
      <trkpt lat="45.7484" lon="5.98993">
        <ele>502</ele>
        <time>2011-07-03T11:03:20Z</time>
      </trkpt>
      <trkpt lat="45.74841" lon="5.98995">
        <ele>502</ele>
        <time>2011-07-03T11:03:21Z</time>
      </trkpt>
      <trkpt lat="45.74841" lon="5.98997">
        <ele>503</ele>
        <time>2011-07-03T11:03:22Z</time>
      </trkpt>
      <trkpt lat="45.74842" lon="5.99">
        <ele>503</ele>
        <time>2011-07-03T11:03:23Z</time>
      </trkpt>
      <trkpt lat="45.74842" lon="5.99003">
        <ele>504</ele>
        <time>2011-07-03T11:03:24Z</time>
      </trkpt>
      <trkpt lat="45.74841" lon="5.99005">
        <ele>504</ele>
        <time>2011-07-03T11:03:25Z</time>
      </trkpt>
      <trkpt lat="45.74841" lon="5.99006">
        <ele>504</ele>
        <time>2011-07-03T11:03:26Z</time>
      </trkpt>
      <trkpt lat="45.74842" lon="5.99009">
        <ele>505</ele>
        <time>2011-07-03T11:03:27Z</time>
      </trkpt>
      <trkpt lat="45.74843" lon="5.99012">
        <ele>505</ele>
        <time>2011-07-03T11:03:28Z</time>
      </trkpt>
      <trkpt lat="45.74844" lon="5.99016">
        <ele>505</ele>
        <time>2011-07-03T11:03:29Z</time>
      </trkpt>
      <trkpt lat="45.74846" lon="5.99019">
        <ele>505</ele>
        <time>2011-07-03T11:03:30Z</time>
      </trkpt>
      <trkpt lat="45.74847" lon="5.99022">
        <ele>505</ele>
        <time>2011-07-03T11:03:31Z</time>
      </trkpt>
      <trkpt lat="45.74847" lon="5.99025">
        <ele>505</ele>
        <time>2011-07-03T11:03:32Z</time>
      </trkpt>
      <trkpt lat="45.74847" lon="5.99028">
        <ele>505</ele>
        <time>2011-07-03T11:03:33Z</time>
      </trkpt>
      <trkpt lat="45.74846" lon="5.9903">
        <ele>505</ele>
        <time>2011-07-03T11:03:34Z</time>
      </trkpt>
      <trkpt lat="45.74842" lon="5.99032">
        <ele>505</ele>
        <time>2011-07-03T11:03:35Z</time>
      </trkpt>
      <trkpt lat="45.7484" lon="5.99035">
        <ele>505</ele>
        <time>2011-07-03T11:03:36Z</time>
      </trkpt>
      <trkpt lat="45.74838" lon="5.99038">
        <ele>505</ele>
        <time>2011-07-03T11:03:37Z</time>
      </trkpt>
      <trkpt lat="45.74836" lon="5.99041">
        <ele>505</ele>
        <time>2011-07-03T11:03:38Z</time>
      </trkpt>
      <trkpt lat="45.74835" lon="5.99045">
        <ele>505</ele>
        <time>2011-07-03T11:03:39Z</time>
      </trkpt>
      <trkpt lat="45.74834" lon="5.99049">
        <ele>505</ele>
        <time>2011-07-03T11:03:40Z</time>
      </trkpt>
      <trkpt lat="45.74832" lon="5.99053">
        <ele>505</ele>
        <time>2011-07-03T11:03:41Z</time>
      </trkpt>
      <trkpt lat="45.7483" lon="5.99057">
        <ele>505</ele>
        <time>2011-07-03T11:03:42Z</time>
      </trkpt>
      <trkpt lat="45.74828" lon="5.99061">
        <ele>505</ele>
        <time>2011-07-03T11:03:43Z</time>
      </trkpt>
      <trkpt lat="45.74825" lon="5.99064">
        <ele>505</ele>
        <time>2011-07-03T11:03:44Z</time>
      </trkpt>
      <trkpt lat="45.74822" lon="5.99067">
        <ele>505</ele>
        <time>2011-07-03T11:03:45Z</time>
      </trkpt>
      <trkpt lat="45.74818" lon="5.99069">
        <ele>505</ele>
        <time>2011-07-03T11:03:46Z</time>
      </trkpt>
      <trkpt lat="45.74814" lon="5.99071">
        <ele>505</ele>
        <time>2011-07-03T11:03:47Z</time>
      </trkpt>
      <trkpt lat="45.74811" lon="5.99073">
        <ele>505</ele>
        <time>2011-07-03T11:03:48Z</time>
      </trkpt>
      <trkpt lat="45.74808" lon="5.99076">
        <ele>505</ele>
        <time>2011-07-03T11:03:49Z</time>
      </trkpt>
      <trkpt lat="45.74803" lon="5.99078">
        <ele>505</ele>
        <time>2011-07-03T11:03:50Z</time>
      </trkpt>
      <trkpt lat="45.74799" lon="5.99079">
        <ele>505</ele>
        <time>2011-07-03T11:03:51Z</time>
      </trkpt>
      <trkpt lat="45.74794" lon="5.99081">
        <ele>505</ele>
        <time>2011-07-03T11:03:52Z</time>
      </trkpt>
      <trkpt lat="45.74789" lon="5.99083">
        <ele>505</ele>
        <time>2011-07-03T11:03:53Z</time>
      </trkpt>
      <trkpt lat="45.74784" lon="5.99084">
        <ele>505</ele>
        <time>2011-07-03T11:03:54Z</time>
      </trkpt>
      <trkpt lat="45.74779" lon="5.99086">
        <ele>505</ele>
        <time>2011-07-03T11:03:55Z</time>
      </trkpt>
      <trkpt lat="45.74773" lon="5.99087">
        <ele>504</ele>
        <time>2011-07-03T11:03:56Z</time>
      </trkpt>
      <trkpt lat="45.74768" lon="5.99087">
        <ele>504</ele>
        <time>2011-07-03T11:03:57Z</time>
      </trkpt>
      <trkpt lat="45.74762" lon="5.99086">
        <ele>504</ele>
        <time>2011-07-03T11:03:58Z</time>
      </trkpt>
      <trkpt lat="45.74756" lon="5.99085">
        <ele>504</ele>
        <time>2011-07-03T11:03:59Z</time>
      </trkpt>
      <trkpt lat="45.7475" lon="5.99084">
        <ele>504</ele>
        <time>2011-07-03T11:04:00Z</time>
      </trkpt>
      <trkpt lat="45.74743" lon="5.99083">
        <ele>504</ele>
        <time>2011-07-03T11:04:01Z</time>
      </trkpt>
      <trkpt lat="45.74736" lon="5.99082">
        <ele>503</ele>
        <time>2011-07-03T11:04:02Z</time>
      </trkpt>
      <trkpt lat="45.7473" lon="5.99082">
        <ele>503</ele>
        <time>2011-07-03T11:04:03Z</time>
      </trkpt>
      <trkpt lat="45.74724" lon="5.99081">
        <ele>503</ele>
        <time>2011-07-03T11:04:04Z</time>
      </trkpt>
      <trkpt lat="45.74717" lon="5.99081">
        <ele>502</ele>
        <time>2011-07-03T11:04:05Z</time>
      </trkpt>
      <trkpt lat="45.74711" lon="5.99082">
        <ele>502</ele>
        <time>2011-07-03T11:04:06Z</time>
      </trkpt>
      <trkpt lat="45.74705" lon="5.99084">
        <ele>501</ele>
        <time>2011-07-03T11:04:07Z</time>
      </trkpt>
      <trkpt lat="45.74699" lon="5.99087">
        <ele>501</ele>
        <time>2011-07-03T11:04:08Z</time>
      </trkpt>
      <trkpt lat="45.74694" lon="5.99091">
        <ele>501</ele>
        <time>2011-07-03T11:04:09Z</time>
      </trkpt>
      <trkpt lat="45.74689" lon="5.99096">
        <ele>501</ele>
        <time>2011-07-03T11:04:10Z</time>
      </trkpt>
      <trkpt lat="45.74685" lon="5.99101">
        <ele>501</ele>
        <time>2011-07-03T11:04:11Z</time>
      </trkpt>
      <trkpt lat="45.7468" lon="5.99106">
        <ele>501</ele>
        <time>2011-07-03T11:04:12Z</time>
      </trkpt>
      <trkpt lat="45.74675" lon="5.99112">
        <ele>501</ele>
        <time>2011-07-03T11:04:13Z</time>
      </trkpt>
      <trkpt lat="45.74671" lon="5.99117">
        <ele>501</ele>
        <time>2011-07-03T11:04:14Z</time>
      </trkpt>
      <trkpt lat="45.74667" lon="5.99123">
        <ele>501</ele>
        <time>2011-07-03T11:04:15Z</time>
      </trkpt>
      <trkpt lat="45.74663" lon="5.99128">
        <ele>501</ele>
        <time>2011-07-03T11:04:16Z</time>
      </trkpt>
      <trkpt lat="45.74659" lon="5.99133">
        <ele>501</ele>
        <time>2011-07-03T11:04:17Z</time>
      </trkpt>
      <trkpt lat="45.74656" lon="5.99137">
        <ele>501</ele>
        <time>2011-07-03T11:04:18Z</time>
      </trkpt>
      <trkpt lat="45.74651" lon="5.99142">
        <ele>501</ele>
        <time>2011-07-03T11:04:19Z</time>
      </trkpt>
      <trkpt lat="45.74647" lon="5.99147">
        <ele>501</ele>
        <time>2011-07-03T11:04:20Z</time>
      </trkpt>
      <trkpt lat="45.74643" lon="5.99151">
        <ele>501</ele>
        <time>2011-07-03T11:04:21Z</time>
      </trkpt>
      <trkpt lat="45.74639" lon="5.99155">
        <ele>501</ele>
        <time>2011-07-03T11:04:22Z</time>
      </trkpt>
      <trkpt lat="45.74635" lon="5.99159">
        <ele>501</ele>
        <time>2011-07-03T11:04:23Z</time>
      </trkpt>
      <trkpt lat="45.74632" lon="5.99163">
        <ele>501</ele>
        <time>2011-07-03T11:04:24Z</time>
      </trkpt>
      <trkpt lat="45.74629" lon="5.99167">
        <ele>502</ele>
        <time>2011-07-03T11:04:25Z</time>
      </trkpt>
      <trkpt lat="45.74626" lon="5.9917">
        <ele>502</ele>
        <time>2011-07-03T11:04:26Z</time>
      </trkpt>
      <trkpt lat="45.74623" lon="5.99174">
        <ele>503</ele>
        <time>2011-07-03T11:04:27Z</time>
      </trkpt>
      <trkpt lat="45.7462" lon="5.99177">
        <ele>504</ele>
        <time>2011-07-03T11:04:28Z</time>
      </trkpt>
      <trkpt lat="45.74617" lon="5.99181">
        <ele>504</ele>
        <time>2011-07-03T11:04:29Z</time>
      </trkpt>
      <trkpt lat="45.74614" lon="5.99184">
        <ele>505</ele>
        <time>2011-07-03T11:04:30Z</time>
      </trkpt>
      <trkpt lat="45.74611" lon="5.99186">
        <ele>505</ele>
        <time>2011-07-03T11:04:31Z</time>
      </trkpt>
      <trkpt lat="45.74609" lon="5.99189">
        <ele>506</ele>
        <time>2011-07-03T11:04:32Z</time>
      </trkpt>
      <trkpt lat="45.74606" lon="5.99192">
        <ele>506</ele>
        <time>2011-07-03T11:04:33Z</time>
      </trkpt>
      <trkpt lat="45.74604" lon="5.99195">
        <ele>507</ele>
        <time>2011-07-03T11:04:34Z</time>
      </trkpt>
      <trkpt lat="45.74601" lon="5.99198">
        <ele>507</ele>
        <time>2011-07-03T11:04:35Z</time>
      </trkpt>
      <trkpt lat="45.74599" lon="5.99201">
        <ele>508</ele>
        <time>2011-07-03T11:04:36Z</time>
      </trkpt>
      <trkpt lat="45.74597" lon="5.99203">
        <ele>508</ele>
        <time>2011-07-03T11:04:37Z</time>
      </trkpt>
      <trkpt lat="45.74595" lon="5.99205">
        <ele>508</ele>
        <time>2011-07-03T11:04:38Z</time>
      </trkpt>
      <trkpt lat="45.74593" lon="5.99208">
        <ele>509</ele>
        <time>2011-07-03T11:04:39Z</time>
      </trkpt>
      <trkpt lat="45.7459" lon="5.99212">
        <ele>509</ele>
        <time>2011-07-03T11:04:40Z</time>
      </trkpt>
      <trkpt lat="45.74587" lon="5.99215">
        <ele>509</ele>
        <time>2011-07-03T11:04:41Z</time>
      </trkpt>
      <trkpt lat="45.74584" lon="5.99218">
        <ele>509</ele>
        <time>2011-07-03T11:04:42Z</time>
      </trkpt>
      <trkpt lat="45.74581" lon="5.99222">
        <ele>509</ele>
        <time>2011-07-03T11:04:43Z</time>
      </trkpt>
      <trkpt lat="45.74578" lon="5.99225">
        <ele>509</ele>
        <time>2011-07-03T11:04:44Z</time>
      </trkpt>
      <trkpt lat="45.74575" lon="5.99229">
        <ele>509</ele>
        <time>2011-07-03T11:04:45Z</time>
      </trkpt>
      <trkpt lat="45.74571" lon="5.99232">
        <ele>509</ele>
        <time>2011-07-03T11:04:46Z</time>
      </trkpt>
      <trkpt lat="45.74568" lon="5.99236">
        <ele>509</ele>
        <time>2011-07-03T11:04:47Z</time>
      </trkpt>
      <trkpt lat="45.74564" lon="5.9924">
        <ele>509</ele>
        <time>2011-07-03T11:04:48Z</time>
      </trkpt>
      <trkpt lat="45.74561" lon="5.99244">
        <ele>509</ele>
        <time>2011-07-03T11:04:49Z</time>
      </trkpt>
      <trkpt lat="45.74557" lon="5.99247">
        <ele>509</ele>
        <time>2011-07-03T11:04:50Z</time>
      </trkpt>
      <trkpt lat="45.74553" lon="5.99251">
        <ele>509</ele>
        <time>2011-07-03T11:04:51Z</time>
      </trkpt>
      <trkpt lat="45.7455" lon="5.99254">
        <ele>509</ele>
        <time>2011-07-03T11:04:52Z</time>
      </trkpt>
      <trkpt lat="45.74546" lon="5.99258">
        <ele>509</ele>
        <time>2011-07-03T11:04:53Z</time>
      </trkpt>
      <trkpt lat="45.74543" lon="5.99261">
        <ele>509</ele>
        <time>2011-07-03T11:04:54Z</time>
      </trkpt>
      <trkpt lat="45.74539" lon="5.99264">
        <ele>509</ele>
        <time>2011-07-03T11:04:55Z</time>
      </trkpt>
      <trkpt lat="45.74536" lon="5.99267">
        <ele>509</ele>
        <time>2011-07-03T11:04:56Z</time>
      </trkpt>
      <trkpt lat="45.74532" lon="5.9927">
        <ele>509</ele>
        <time>2011-07-03T11:04:57Z</time>
      </trkpt>
      <trkpt lat="45.74528" lon="5.99274">
        <ele>509</ele>
        <time>2011-07-03T11:04:58Z</time>
      </trkpt>
      <trkpt lat="45.74525" lon="5.99277">
        <ele>509</ele>
        <time>2011-07-03T11:04:59Z</time>
      </trkpt>
      <trkpt lat="45.74521" lon="5.9928">
        <ele>509</ele>
        <time>2011-07-03T11:05:00Z</time>
      </trkpt>
      <trkpt lat="45.74518" lon="5.99283">
        <ele>509</ele>
        <time>2011-07-03T11:05:01Z</time>
      </trkpt>
      <trkpt lat="45.74515" lon="5.99286">
        <ele>509</ele>
        <time>2011-07-03T11:05:02Z</time>
      </trkpt>
      <trkpt lat="45.74512" lon="5.9929">
        <ele>509</ele>
        <time>2011-07-03T11:05:03Z</time>
      </trkpt>
      <trkpt lat="45.74509" lon="5.99293">
        <ele>509</ele>
        <time>2011-07-03T11:05:04Z</time>
      </trkpt>
      <trkpt lat="45.74505" lon="5.99297">
        <ele>509</ele>
        <time>2011-07-03T11:05:05Z</time>
      </trkpt>
      <trkpt lat="45.74502" lon="5.993">
        <ele>509</ele>
        <time>2011-07-03T11:05:06Z</time>
      </trkpt>
      <trkpt lat="45.74499" lon="5.99303">
        <ele>509</ele>
        <time>2011-07-03T11:05:07Z</time>
      </trkpt>
      <trkpt lat="45.74496" lon="5.99307">
        <ele>509</ele>
        <time>2011-07-03T11:05:08Z</time>
      </trkpt>
      <trkpt lat="45.74494" lon="5.9931">
        <ele>509</ele>
        <time>2011-07-03T11:05:09Z</time>
      </trkpt>
      <trkpt lat="45.74492" lon="5.99313">
        <ele>509</ele>
        <time>2011-07-03T11:05:10Z</time>
      </trkpt>
      <trkpt lat="45.7449" lon="5.99316">
        <ele>509</ele>
        <time>2011-07-03T11:05:11Z</time>
      </trkpt>
      <trkpt lat="45.74487" lon="5.99319">
        <ele>509</ele>
        <time>2011-07-03T11:05:12Z</time>
      </trkpt>
      <trkpt lat="45.74485" lon="5.99322">
        <ele>509</ele>
        <time>2011-07-03T11:05:13Z</time>
      </trkpt>
      <trkpt lat="45.74483" lon="5.99325">
        <ele>509</ele>
        <time>2011-07-03T11:05:14Z</time>
      </trkpt>
      <trkpt lat="45.7448" lon="5.99328">
        <ele>509</ele>
        <time>2011-07-03T11:05:15Z</time>
      </trkpt>
      <trkpt lat="45.74479" lon="5.99331">
        <ele>509</ele>
        <time>2011-07-03T11:05:16Z</time>
      </trkpt>
      <trkpt lat="45.74477" lon="5.99334">
        <ele>509</ele>
        <time>2011-07-03T11:05:17Z</time>
      </trkpt>
      <trkpt lat="45.74475" lon="5.99336">
        <ele>509</ele>
        <time>2011-07-03T11:05:18Z</time>
      </trkpt>
      <trkpt lat="45.74474" lon="5.99339">
        <ele>509</ele>
        <time>2011-07-03T11:05:19Z</time>
      </trkpt>
      <trkpt lat="45.74472" lon="5.99341">
        <ele>510</ele>
        <time>2011-07-03T11:05:20Z</time>
      </trkpt>
      <trkpt lat="45.7447" lon="5.99344">
        <ele>511</ele>
        <time>2011-07-03T11:05:21Z</time>
      </trkpt>
      <trkpt lat="45.74468" lon="5.99347">
        <ele>511</ele>
        <time>2011-07-03T11:05:22Z</time>
      </trkpt>
      <trkpt lat="45.74467" lon="5.99349">
        <ele>512</ele>
        <time>2011-07-03T11:05:23Z</time>
      </trkpt>
      <trkpt lat="45.74465" lon="5.99352">
        <ele>512</ele>
        <time>2011-07-03T11:05:24Z</time>
      </trkpt>
      <trkpt lat="45.74464" lon="5.99354">
        <ele>513</ele>
        <time>2011-07-03T11:05:25Z</time>
      </trkpt>
      <trkpt lat="45.74463" lon="5.99357">
        <ele>513</ele>
        <time>2011-07-03T11:05:26Z</time>
      </trkpt>
      <trkpt lat="45.74461" lon="5.99359">
        <ele>513</ele>
        <time>2011-07-03T11:05:27Z</time>
      </trkpt>
      <trkpt lat="45.74459" lon="5.99361">
        <ele>514</ele>
        <time>2011-07-03T11:05:28Z</time>
      </trkpt>
      <trkpt lat="45.74457" lon="5.99364">
        <ele>514</ele>
        <time>2011-07-03T11:05:29Z</time>
      </trkpt>
      <trkpt lat="45.74455" lon="5.99366">
        <ele>514</ele>
        <time>2011-07-03T11:05:30Z</time>
      </trkpt>
      <trkpt lat="45.74453" lon="5.99369">
        <ele>514</ele>
        <time>2011-07-03T11:05:31Z</time>
      </trkpt>
      <trkpt lat="45.74452" lon="5.99372">
        <ele>514</ele>
        <time>2011-07-03T11:05:32Z</time>
      </trkpt>
      <trkpt lat="45.7445" lon="5.99374">
        <ele>514</ele>
        <time>2011-07-03T11:05:33Z</time>
      </trkpt>
      <trkpt lat="45.74449" lon="5.99376">
        <ele>514</ele>
        <time>2011-07-03T11:05:34Z</time>
      </trkpt>
      <trkpt lat="45.74447" lon="5.99379">
        <ele>514</ele>
        <time>2011-07-03T11:05:35Z</time>
      </trkpt>
      <trkpt lat="45.74446" lon="5.9938">
        <ele>515</ele>
        <time>2011-07-03T11:05:36Z</time>
      </trkpt>
      <trkpt lat="45.74445" lon="5.99382">
        <ele>515</ele>
        <time>2011-07-03T11:05:37Z</time>
      </trkpt>
      <trkpt lat="45.74443" lon="5.99384">
        <ele>515</ele>
        <time>2011-07-03T11:05:38Z</time>
      </trkpt>
      <trkpt lat="45.74442" lon="5.99386">
        <ele>515</ele>
        <time>2011-07-03T11:05:39Z</time>
      </trkpt>
      <trkpt lat="45.74441" lon="5.99387">
        <ele>515</ele>
        <time>2011-07-03T11:05:40Z</time>
      </trkpt>
      <trkpt lat="45.7444" lon="5.99389">
        <ele>515</ele>
        <time>2011-07-03T11:05:41Z</time>
      </trkpt>
      <trkpt lat="45.74438" lon="5.99391">
        <ele>515</ele>
        <time>2011-07-03T11:05:42Z</time>
      </trkpt>
      <trkpt lat="45.74437" lon="5.99393">
        <ele>515</ele>
        <time>2011-07-03T11:05:43Z</time>
      </trkpt>
      <trkpt lat="45.74436" lon="5.99394">
        <ele>516</ele>
        <time>2011-07-03T11:05:44Z</time>
      </trkpt>
      <trkpt lat="45.74435" lon="5.99396">
        <ele>516</ele>
        <time>2011-07-03T11:05:45Z</time>
      </trkpt>
      <trkpt lat="45.74434" lon="5.99398">
        <ele>516</ele>
        <time>2011-07-03T11:05:46Z</time>
      </trkpt>
      <trkpt lat="45.74433" lon="5.994">
        <ele>516</ele>
        <time>2011-07-03T11:05:47Z</time>
      </trkpt>
      <trkpt lat="45.74432" lon="5.99401">
        <ele>516</ele>
        <time>2011-07-03T11:05:48Z</time>
      </trkpt>
      <trkpt lat="45.74431" lon="5.99403">
        <ele>516</ele>
        <time>2011-07-03T11:05:49Z</time>
      </trkpt>
      <trkpt lat="45.7443" lon="5.99404">
        <ele>516</ele>
        <time>2011-07-03T11:05:50Z</time>
      </trkpt>
      <trkpt lat="45.74429" lon="5.99406">
        <ele>517</ele>
        <time>2011-07-03T11:05:51Z</time>
      </trkpt>
      <trkpt lat="45.74428" lon="5.99407">
        <ele>517</ele>
        <time>2011-07-03T11:05:52Z</time>
      </trkpt>
      <trkpt lat="45.74426" lon="5.9941">
        <ele>517</ele>
        <time>2011-07-03T11:05:54Z</time>
      </trkpt>
      <trkpt lat="45.74426" lon="5.99412">
        <ele>517</ele>
        <time>2011-07-03T11:05:55Z</time>
      </trkpt>
      <trkpt lat="45.74425" lon="5.99413">
        <ele>518</ele>
        <time>2011-07-03T11:05:56Z</time>
      </trkpt>
      <trkpt lat="45.74423" lon="5.99414">
        <ele>518</ele>
        <time>2011-07-03T11:05:58Z</time>
      </trkpt>
      <trkpt lat="45.74422" lon="5.99415">
        <ele>518</ele>
        <time>2011-07-03T11:05:59Z</time>
      </trkpt>
      <trkpt lat="45.74421" lon="5.99417">
        <ele>518</ele>
        <time>2011-07-03T11:06:00Z</time>
      </trkpt>
      <trkpt lat="45.74419" lon="5.99419">
        <ele>518</ele>
        <time>2011-07-03T11:06:01Z</time>
      </trkpt>
      <trkpt lat="45.74419" lon="5.9942">
        <ele>518</ele>
        <time>2011-07-03T11:06:02Z</time>
      </trkpt>
      <trkpt lat="45.74419" lon="5.99422">
        <ele>518</ele>
        <time>2011-07-03T11:06:03Z</time>
      </trkpt>
      <trkpt lat="45.74418" lon="5.99424">
        <ele>518</ele>
        <time>2011-07-03T11:06:04Z</time>
      </trkpt>
      <trkpt lat="45.74416" lon="5.99426">
        <ele>518</ele>
        <time>2011-07-03T11:06:06Z</time>
      </trkpt>
      <trkpt lat="45.74414" lon="5.99428">
        <ele>518</ele>
        <time>2011-07-03T11:06:08Z</time>
      </trkpt>
      <trkpt lat="45.74413" lon="5.99429">
        <ele>518</ele>
        <time>2011-07-03T11:06:09Z</time>
      </trkpt>
      <trkpt lat="45.74413" lon="5.99431">
        <ele>518</ele>
        <time>2011-07-03T11:06:10Z</time>
      </trkpt>
      <trkpt lat="45.74412" lon="5.99434">
        <ele>518</ele>
        <time>2011-07-03T11:06:12Z</time>
      </trkpt>
      <trkpt lat="45.7441" lon="5.99436">
        <ele>518</ele>
        <time>2011-07-03T11:06:14Z</time>
      </trkpt>
      <trkpt lat="45.74408" lon="5.99438">
        <ele>519</ele>
        <time>2011-07-03T11:06:16Z</time>
      </trkpt>
      <trkpt lat="45.74407" lon="5.99439">
        <ele>520</ele>
        <time>2011-07-03T11:06:17Z</time>
      </trkpt>
      <trkpt lat="45.74406" lon="5.9944">
        <ele>520</ele>
        <time>2011-07-03T11:06:18Z</time>
      </trkpt>
      <trkpt lat="45.74405" lon="5.99442">
        <ele>520</ele>
        <time>2011-07-03T11:06:19Z</time>
      </trkpt>
      <trkpt lat="45.74404" lon="5.99444">
        <ele>520</ele>
        <time>2011-07-03T11:06:20Z</time>
      </trkpt>
      <trkpt lat="45.74403" lon="5.99445">
        <ele>521</ele>
        <time>2011-07-03T11:06:21Z</time>
      </trkpt>
      <trkpt lat="45.744" lon="5.99448">
        <ele>521</ele>
        <time>2011-07-03T11:06:23Z</time>
      </trkpt>
      <trkpt lat="45.74399" lon="5.9945">
        <ele>522</ele>
        <time>2011-07-03T11:06:24Z</time>
      </trkpt>
      <trkpt lat="45.74397" lon="5.99452">
        <ele>522</ele>
        <time>2011-07-03T11:06:26Z</time>
      </trkpt>
      <trkpt lat="45.74395" lon="5.99453">
        <ele>523</ele>
        <time>2011-07-03T11:06:27Z</time>
      </trkpt>
      <trkpt lat="45.74394" lon="5.99454">
        <ele>523</ele>
        <time>2011-07-03T11:06:28Z</time>
      </trkpt>
      <trkpt lat="45.74392" lon="5.99456">
        <ele>524</ele>
        <time>2011-07-03T11:06:30Z</time>
      </trkpt>
      <trkpt lat="45.74391" lon="5.99458">
        <ele>524</ele>
        <time>2011-07-03T11:06:31Z</time>
      </trkpt>
      <trkpt lat="45.7439" lon="5.99459">
        <ele>524</ele>
        <time>2011-07-03T11:06:32Z</time>
      </trkpt>
      <trkpt lat="45.74388" lon="5.9946">
        <ele>524</ele>
        <time>2011-07-03T11:06:33Z</time>
      </trkpt>
      <trkpt lat="45.74387" lon="5.99462">
        <ele>524</ele>
        <time>2011-07-03T11:06:34Z</time>
      </trkpt>
      <trkpt lat="45.74385" lon="5.99463">
        <ele>524</ele>
        <time>2011-07-03T11:06:35Z</time>
      </trkpt>
      <trkpt lat="45.74384" lon="5.99464">
        <ele>524</ele>
        <time>2011-07-03T11:06:36Z</time>
      </trkpt>
      <trkpt lat="45.74382" lon="5.99466">
        <ele>524</ele>
        <time>2011-07-03T11:06:37Z</time>
      </trkpt>
      <trkpt lat="45.7438" lon="5.99467">
        <ele>524</ele>
        <time>2011-07-03T11:06:38Z</time>
      </trkpt>
      <trkpt lat="45.74378" lon="5.99468">
        <ele>524</ele>
        <time>2011-07-03T11:06:39Z</time>
      </trkpt>
      <trkpt lat="45.74377" lon="5.99469">
        <ele>524</ele>
        <time>2011-07-03T11:06:40Z</time>
      </trkpt>
      <trkpt lat="45.74375" lon="5.99471">
        <ele>524</ele>
        <time>2011-07-03T11:06:41Z</time>
      </trkpt>
      <trkpt lat="45.74374" lon="5.99472">
        <ele>524</ele>
        <time>2011-07-03T11:06:42Z</time>
      </trkpt>
      <trkpt lat="45.74372" lon="5.99473">
        <ele>524</ele>
        <time>2011-07-03T11:06:43Z</time>
      </trkpt>
      <trkpt lat="45.74371" lon="5.99474">
        <ele>524</ele>
        <time>2011-07-03T11:06:44Z</time>
      </trkpt>
      <trkpt lat="45.74369" lon="5.99475">
        <ele>524</ele>
        <time>2011-07-03T11:06:45Z</time>
      </trkpt>
      <trkpt lat="45.74368" lon="5.99476">
        <ele>524</ele>
        <time>2011-07-03T11:06:46Z</time>
      </trkpt>
      <trkpt lat="45.74365" lon="5.99479">
        <ele>524</ele>
        <time>2011-07-03T11:06:48Z</time>
      </trkpt>
      <trkpt lat="45.74363" lon="5.9948">
        <ele>524</ele>
        <time>2011-07-03T11:06:49Z</time>
      </trkpt>
      <trkpt lat="45.74361" lon="5.99481">
        <ele>524</ele>
        <time>2011-07-03T11:06:50Z</time>
      </trkpt>
      <trkpt lat="45.74359" lon="5.99482">
        <ele>524</ele>
        <time>2011-07-03T11:06:51Z</time>
      </trkpt>
      <trkpt lat="45.74357" lon="5.99482">
        <ele>524</ele>
        <time>2011-07-03T11:06:53Z</time>
      </trkpt>
      <trkpt lat="45.74356" lon="5.99483">
        <ele>524</ele>
        <time>2011-07-03T11:06:54Z</time>
      </trkpt>
      <trkpt lat="45.74354" lon="5.99484">
        <ele>524</ele>
        <time>2011-07-03T11:06:56Z</time>
      </trkpt>
      <trkpt lat="45.74352" lon="5.99486">
        <ele>525</ele>
        <time>2011-07-03T11:06:57Z</time>
      </trkpt>
      <trkpt lat="45.7435" lon="5.99488">
        <ele>525</ele>
        <time>2011-07-03T11:06:58Z</time>
      </trkpt>
      <trkpt lat="45.74348" lon="5.99489">
        <ele>525</ele>
        <time>2011-07-03T11:06:59Z</time>
      </trkpt>
      <trkpt lat="45.74347" lon="5.99491">
        <ele>525</ele>
        <time>2011-07-03T11:07:00Z</time>
      </trkpt>
      <trkpt lat="45.74346" lon="5.99493">
        <ele>525</ele>
        <time>2011-07-03T11:07:01Z</time>
      </trkpt>
      <trkpt lat="45.74344" lon="5.99495">
        <ele>525</ele>
        <time>2011-07-03T11:07:02Z</time>
      </trkpt>
      <trkpt lat="45.74343" lon="5.99496">
        <ele>525</ele>
        <time>2011-07-03T11:07:03Z</time>
      </trkpt>
      <trkpt lat="45.74341" lon="5.99498">
        <ele>525</ele>
        <time>2011-07-03T11:07:04Z</time>
      </trkpt>
      <trkpt lat="45.7434" lon="5.99498">
        <ele>525</ele>
        <time>2011-07-03T11:07:05Z</time>
      </trkpt>
      <trkpt lat="45.74338" lon="5.99499">
        <ele>525</ele>
        <time>2011-07-03T11:07:06Z</time>
      </trkpt>
      <trkpt lat="45.74336" lon="5.995">
        <ele>525</ele>
        <time>2011-07-03T11:07:07Z</time>
      </trkpt>
      <trkpt lat="45.74335" lon="5.99501">
        <ele>525</ele>
        <time>2011-07-03T11:07:08Z</time>
      </trkpt>
      <trkpt lat="45.74333" lon="5.99503">
        <ele>525</ele>
        <time>2011-07-03T11:07:10Z</time>
      </trkpt>
      <trkpt lat="45.74332" lon="5.99505">
        <ele>525</ele>
        <time>2011-07-03T11:07:11Z</time>
      </trkpt>
      <trkpt lat="45.7433" lon="5.99506">
        <ele>525</ele>
        <time>2011-07-03T11:07:12Z</time>
      </trkpt>
      <trkpt lat="45.74329" lon="5.99507">
        <ele>525</ele>
        <time>2011-07-03T11:07:13Z</time>
      </trkpt>
      <trkpt lat="45.74327" lon="5.99507">
        <ele>525</ele>
        <time>2011-07-03T11:07:14Z</time>
      </trkpt>
      <trkpt lat="45.74326" lon="5.99508">
        <ele>525</ele>
        <time>2011-07-03T11:07:15Z</time>
      </trkpt>
      <trkpt lat="45.74324" lon="5.99509">
        <ele>525</ele>
        <time>2011-07-03T11:07:16Z</time>
      </trkpt>
      <trkpt lat="45.74323" lon="5.99511">
        <ele>525</ele>
        <time>2011-07-03T11:07:17Z</time>
      </trkpt>
      <trkpt lat="45.74321" lon="5.99512">
        <ele>525</ele>
        <time>2011-07-03T11:07:18Z</time>
      </trkpt>
      <trkpt lat="45.74319" lon="5.99513">
        <ele>525</ele>
        <time>2011-07-03T11:07:19Z</time>
      </trkpt>
      <trkpt lat="45.74318" lon="5.99514">
        <ele>525</ele>
        <time>2011-07-03T11:07:20Z</time>
      </trkpt>
      <trkpt lat="45.74316" lon="5.99515">
        <ele>525</ele>
        <time>2011-07-03T11:07:21Z</time>
      </trkpt>
      <trkpt lat="45.74315" lon="5.99515">
        <ele>525</ele>
        <time>2011-07-03T11:07:22Z</time>
      </trkpt>
      <trkpt lat="45.74313" lon="5.99516">
        <ele>525</ele>
        <time>2011-07-03T11:07:23Z</time>
      </trkpt>
      <trkpt lat="45.74312" lon="5.99517">
        <ele>525</ele>
        <time>2011-07-03T11:07:24Z</time>
      </trkpt>
      <trkpt lat="45.7431" lon="5.99518">
        <ele>525</ele>
        <time>2011-07-03T11:07:25Z</time>
      </trkpt>
      <trkpt lat="45.74309" lon="5.99519">
        <ele>525</ele>
        <time>2011-07-03T11:07:26Z</time>
      </trkpt>
      <trkpt lat="45.74307" lon="5.99521">
        <ele>525</ele>
        <time>2011-07-03T11:07:27Z</time>
      </trkpt>
      <trkpt lat="45.74305" lon="5.99521">
        <ele>525</ele>
        <time>2011-07-03T11:07:28Z</time>
      </trkpt>
      <trkpt lat="45.74304" lon="5.99522">
        <ele>525</ele>
        <time>2011-07-03T11:07:29Z</time>
      </trkpt>
      <trkpt lat="45.74301" lon="5.99524">
        <ele>525</ele>
        <time>2011-07-03T11:07:31Z</time>
      </trkpt>
      <trkpt lat="45.743" lon="5.99525">
        <ele>525</ele>
        <time>2011-07-03T11:07:32Z</time>
      </trkpt>
      <trkpt lat="45.74298" lon="5.99526">
        <ele>525</ele>
        <time>2011-07-03T11:07:33Z</time>
      </trkpt>
      <trkpt lat="45.74296" lon="5.99527">
        <ele>525</ele>
        <time>2011-07-03T11:07:34Z</time>
      </trkpt>
      <trkpt lat="45.74294" lon="5.99528">
        <ele>525</ele>
        <time>2011-07-03T11:07:35Z</time>
      </trkpt>
      <trkpt lat="45.74293" lon="5.99529">
        <ele>525</ele>
        <time>2011-07-03T11:07:36Z</time>
      </trkpt>
      <trkpt lat="45.74291" lon="5.9953">
        <ele>525</ele>
        <time>2011-07-03T11:07:37Z</time>
      </trkpt>
      <trkpt lat="45.7429" lon="5.99531">
        <ele>525</ele>
        <time>2011-07-03T11:07:38Z</time>
      </trkpt>
      <trkpt lat="45.74289" lon="5.99532">
        <ele>525</ele>
        <time>2011-07-03T11:07:39Z</time>
      </trkpt>
      <trkpt lat="45.74287" lon="5.99533">
        <ele>525</ele>
        <time>2011-07-03T11:07:40Z</time>
      </trkpt>
      <trkpt lat="45.74285" lon="5.99534">
        <ele>525</ele>
        <time>2011-07-03T11:07:41Z</time>
      </trkpt>
      <trkpt lat="45.74284" lon="5.99534">
        <ele>525</ele>
        <time>2011-07-03T11:07:42Z</time>
      </trkpt>
      <trkpt lat="45.74282" lon="5.99535">
        <ele>525</ele>
        <time>2011-07-03T11:07:43Z</time>
      </trkpt>
      <trkpt lat="45.74281" lon="5.99536">
        <ele>525</ele>
        <time>2011-07-03T11:07:44Z</time>
      </trkpt>
      <trkpt lat="45.74279" lon="5.99537">
        <ele>525</ele>
        <time>2011-07-03T11:07:45Z</time>
      </trkpt>
      <trkpt lat="45.74277" lon="5.99538">
        <ele>525</ele>
        <time>2011-07-03T11:07:46Z</time>
      </trkpt>
      <trkpt lat="45.74275" lon="5.99539">
        <ele>525</ele>
        <time>2011-07-03T11:07:47Z</time>
      </trkpt>
      <trkpt lat="45.74274" lon="5.9954">
        <ele>525</ele>
        <time>2011-07-03T11:07:48Z</time>
      </trkpt>
      <trkpt lat="45.74272" lon="5.99541">
        <ele>525</ele>
        <time>2011-07-03T11:07:49Z</time>
      </trkpt>
      <trkpt lat="45.7427" lon="5.99542">
        <ele>525</ele>
        <time>2011-07-03T11:07:50Z</time>
      </trkpt>
      <trkpt lat="45.74269" lon="5.99543">
        <ele>525</ele>
        <time>2011-07-03T11:07:51Z</time>
      </trkpt>
      <trkpt lat="45.74267" lon="5.99544">
        <ele>525</ele>
        <time>2011-07-03T11:07:52Z</time>
      </trkpt>
      <trkpt lat="45.74266" lon="5.99544">
        <ele>525</ele>
        <time>2011-07-03T11:07:53Z</time>
      </trkpt>
      <trkpt lat="45.74265" lon="5.99545">
        <ele>525</ele>
        <time>2011-07-03T11:07:54Z</time>
      </trkpt>
      <trkpt lat="45.74263" lon="5.99546">
        <ele>525</ele>
        <time>2011-07-03T11:07:55Z</time>
      </trkpt>
      <trkpt lat="45.74261" lon="5.99547">
        <ele>525</ele>
        <time>2011-07-03T11:07:56Z</time>
      </trkpt>
      <trkpt lat="45.7426" lon="5.99549">
        <ele>525</ele>
        <time>2011-07-03T11:07:57Z</time>
      </trkpt>
      <trkpt lat="45.74258" lon="5.9955">
        <ele>525</ele>
        <time>2011-07-03T11:07:58Z</time>
      </trkpt>
      <trkpt lat="45.74257" lon="5.99551">
        <ele>525</ele>
        <time>2011-07-03T11:07:59Z</time>
      </trkpt>
      <trkpt lat="45.74255" lon="5.99552">
        <ele>525</ele>
        <time>2011-07-03T11:08:00Z</time>
      </trkpt>
      <trkpt lat="45.74253" lon="5.99553">
        <ele>525</ele>
        <time>2011-07-03T11:08:01Z</time>
      </trkpt>
      <trkpt lat="45.74251" lon="5.99554">
        <ele>525</ele>
        <time>2011-07-03T11:08:02Z</time>
      </trkpt>
      <trkpt lat="45.74249" lon="5.99556">
        <ele>525</ele>
        <time>2011-07-03T11:08:04Z</time>
      </trkpt>
      <trkpt lat="45.74247" lon="5.99557">
        <ele>525</ele>
        <time>2011-07-03T11:08:05Z</time>
      </trkpt>
      <trkpt lat="45.74246" lon="5.99559">
        <ele>525</ele>
        <time>2011-07-03T11:08:07Z</time>
      </trkpt>
      <trkpt lat="45.74244" lon="5.99562">
        <ele>525</ele>
        <time>2011-07-03T11:08:09Z</time>
      </trkpt>
      <trkpt lat="45.74242" lon="5.99564">
        <ele>526</ele>
        <time>2011-07-03T11:08:11Z</time>
      </trkpt>
      <trkpt lat="45.74242" lon="5.99566">
        <ele>527</ele>
        <time>2011-07-03T11:08:13Z</time>
      </trkpt>
      <trkpt lat="45.74241" lon="5.99568">
        <ele>529</ele>
        <time>2011-07-03T11:08:15Z</time>
      </trkpt>
      <trkpt lat="45.74239" lon="5.9957">
        <ele>530</ele>
        <time>2011-07-03T11:08:17Z</time>
      </trkpt>
      <trkpt lat="45.74238" lon="5.99572">
        <ele>532</ele>
        <time>2011-07-03T11:08:19Z</time>
      </trkpt>
      <trkpt lat="45.74236" lon="5.99573">
        <ele>532</ele>
        <time>2011-07-03T11:08:20Z</time>
      </trkpt>
      <trkpt lat="45.74234" lon="5.99574">
        <ele>532</ele>
        <time>2011-07-03T11:08:21Z</time>
      </trkpt>
      <trkpt lat="45.74233" lon="5.99576">
        <ele>533</ele>
        <time>2011-07-03T11:08:22Z</time>
      </trkpt>
      <trkpt lat="45.74231" lon="5.99578">
        <ele>533</ele>
        <time>2011-07-03T11:08:23Z</time>
      </trkpt>
      <trkpt lat="45.74231" lon="5.99579">
        <ele>533</ele>
        <time>2011-07-03T11:08:24Z</time>
      </trkpt>
      <trkpt lat="45.7423" lon="5.99581">
        <ele>533</ele>
        <time>2011-07-03T11:08:25Z</time>
      </trkpt>
      <trkpt lat="45.74229" lon="5.99583">
        <ele>533</ele>
        <time>2011-07-03T11:08:26Z</time>
      </trkpt>
      <trkpt lat="45.74228" lon="5.99584">
        <ele>533</ele>
        <time>2011-07-03T11:08:27Z</time>
      </trkpt>
      <trkpt lat="45.74227" lon="5.99586">
        <ele>533</ele>
        <time>2011-07-03T11:08:28Z</time>
      </trkpt>
      <trkpt lat="45.74226" lon="5.99588">
        <ele>533</ele>
        <time>2011-07-03T11:08:29Z</time>
      </trkpt>
      <trkpt lat="45.74225" lon="5.99589">
        <ele>533</ele>
        <time>2011-07-03T11:08:30Z</time>
      </trkpt>
      <trkpt lat="45.74224" lon="5.99591">
        <ele>533</ele>
        <time>2011-07-03T11:08:31Z</time>
      </trkpt>
      <trkpt lat="45.74223" lon="5.99592">
        <ele>533</ele>
        <time>2011-07-03T11:08:32Z</time>
      </trkpt>
      <trkpt lat="45.74222" lon="5.99594">
        <ele>533</ele>
        <time>2011-07-03T11:08:33Z</time>
      </trkpt>
      <trkpt lat="45.74221" lon="5.99596">
        <ele>533</ele>
        <time>2011-07-03T11:08:34Z</time>
      </trkpt>
      <trkpt lat="45.7422" lon="5.99598">
        <ele>533</ele>
        <time>2011-07-03T11:08:35Z</time>
      </trkpt>
      <trkpt lat="45.74219" lon="5.99599">
        <ele>533</ele>
        <time>2011-07-03T11:08:36Z</time>
      </trkpt>
      <trkpt lat="45.74218" lon="5.99601">
        <ele>533</ele>
        <time>2011-07-03T11:08:37Z</time>
      </trkpt>
      <trkpt lat="45.74217" lon="5.99603">
        <ele>533</ele>
        <time>2011-07-03T11:08:38Z</time>
      </trkpt>
      <trkpt lat="45.74216" lon="5.99605">
        <ele>533</ele>
        <time>2011-07-03T11:08:39Z</time>
      </trkpt>
      <trkpt lat="45.74215" lon="5.99607">
        <ele>533</ele>
        <time>2011-07-03T11:08:40Z</time>
      </trkpt>
      <trkpt lat="45.74214" lon="5.99608">
        <ele>533</ele>
        <time>2011-07-03T11:08:41Z</time>
      </trkpt>
      <trkpt lat="45.74213" lon="5.9961">
        <ele>533</ele>
        <time>2011-07-03T11:08:42Z</time>
      </trkpt>
      <trkpt lat="45.74213" lon="5.99612">
        <ele>533</ele>
        <time>2011-07-03T11:08:43Z</time>
      </trkpt>
      <trkpt lat="45.74212" lon="5.99614">
        <ele>533</ele>
        <time>2011-07-03T11:08:44Z</time>
      </trkpt>
      <trkpt lat="45.74211" lon="5.99616">
        <ele>534</ele>
        <time>2011-07-03T11:08:45Z</time>
      </trkpt>
      <trkpt lat="45.7421" lon="5.99618">
        <ele>534</ele>
        <time>2011-07-03T11:08:46Z</time>
      </trkpt>
      <trkpt lat="45.7421" lon="5.9962">
        <ele>534</ele>
        <time>2011-07-03T11:08:47Z</time>
      </trkpt>
      <trkpt lat="45.74209" lon="5.99622">
        <ele>534</ele>
        <time>2011-07-03T11:08:48Z</time>
      </trkpt>
      <trkpt lat="45.74209" lon="5.99623">
        <ele>534</ele>
        <time>2011-07-03T11:08:49Z</time>
      </trkpt>
      <trkpt lat="45.74208" lon="5.99625">
        <ele>534</ele>
        <time>2011-07-03T11:08:50Z</time>
      </trkpt>
      <trkpt lat="45.74207" lon="5.99627">
        <ele>534</ele>
        <time>2011-07-03T11:08:51Z</time>
      </trkpt>
      <trkpt lat="45.74206" lon="5.99629">
        <ele>534</ele>
        <time>2011-07-03T11:08:52Z</time>
      </trkpt>
      <trkpt lat="45.74205" lon="5.99631">
        <ele>534</ele>
        <time>2011-07-03T11:08:53Z</time>
      </trkpt>
      <trkpt lat="45.74205" lon="5.99633">
        <ele>534</ele>
        <time>2011-07-03T11:08:54Z</time>
      </trkpt>
      <trkpt lat="45.74204" lon="5.99634">
        <ele>535</ele>
        <time>2011-07-03T11:08:55Z</time>
      </trkpt>
      <trkpt lat="45.74203" lon="5.99636">
        <ele>535</ele>
        <time>2011-07-03T11:08:56Z</time>
      </trkpt>
      <trkpt lat="45.74202" lon="5.99637">
        <ele>536</ele>
        <time>2011-07-03T11:08:57Z</time>
      </trkpt>
      <trkpt lat="45.742" lon="5.99639">
        <ele>536</ele>
        <time>2011-07-03T11:08:58Z</time>
      </trkpt>
      <trkpt lat="45.74199" lon="5.9964">
        <ele>537</ele>
        <time>2011-07-03T11:08:59Z</time>
      </trkpt>
      <trkpt lat="45.74198" lon="5.99641">
        <ele>537</ele>
        <time>2011-07-03T11:09:00Z</time>
      </trkpt>
      <trkpt lat="45.74197" lon="5.99643">
        <ele>537</ele>
        <time>2011-07-03T11:09:01Z</time>
      </trkpt>
      <trkpt lat="45.74196" lon="5.99644">
        <ele>538</ele>
        <time>2011-07-03T11:09:02Z</time>
      </trkpt>
      <trkpt lat="45.74194" lon="5.99645">
        <ele>538</ele>
        <time>2011-07-03T11:09:03Z</time>
      </trkpt>
      <trkpt lat="45.74193" lon="5.99646">
        <ele>539</ele>
        <time>2011-07-03T11:09:04Z</time>
      </trkpt>
      <trkpt lat="45.74192" lon="5.99646">
        <ele>539</ele>
        <time>2011-07-03T11:09:05Z</time>
      </trkpt>
      <trkpt lat="45.7419" lon="5.99647">
        <ele>540</ele>
        <time>2011-07-03T11:09:06Z</time>
      </trkpt>
      <trkpt lat="45.74189" lon="5.99647">
        <ele>540</ele>
        <time>2011-07-03T11:09:07Z</time>
      </trkpt>
      <trkpt lat="45.74187" lon="5.99648">
        <ele>541</ele>
        <time>2011-07-03T11:09:08Z</time>
      </trkpt>
      <trkpt lat="45.74186" lon="5.99648">
        <ele>541</ele>
        <time>2011-07-03T11:09:09Z</time>
      </trkpt>
      <trkpt lat="45.74184" lon="5.99648">
        <ele>542</ele>
        <time>2011-07-03T11:09:10Z</time>
      </trkpt>
      <trkpt lat="45.74183" lon="5.99647">
        <ele>542</ele>
        <time>2011-07-03T11:09:11Z</time>
      </trkpt>
      <trkpt lat="45.74181" lon="5.99647">
        <ele>542</ele>
        <time>2011-07-03T11:09:12Z</time>
      </trkpt>
      <trkpt lat="45.74179" lon="5.99646">
        <ele>542</ele>
        <time>2011-07-03T11:09:13Z</time>
      </trkpt>
      <trkpt lat="45.74178" lon="5.99646">
        <ele>542</ele>
        <time>2011-07-03T11:09:14Z</time>
      </trkpt>
      <trkpt lat="45.74176" lon="5.99645">
        <ele>543</ele>
        <time>2011-07-03T11:09:15Z</time>
      </trkpt>
      <trkpt lat="45.74174" lon="5.99644">
        <ele>543</ele>
        <time>2011-07-03T11:09:16Z</time>
      </trkpt>
      <trkpt lat="45.74172" lon="5.99644">
        <ele>543</ele>
        <time>2011-07-03T11:09:17Z</time>
      </trkpt>
      <trkpt lat="45.74171" lon="5.99643">
        <ele>543</ele>
        <time>2011-07-03T11:09:18Z</time>
      </trkpt>
      <trkpt lat="45.74169" lon="5.99642">
        <ele>543</ele>
        <time>2011-07-03T11:09:19Z</time>
      </trkpt>
      <trkpt lat="45.74167" lon="5.99642">
        <ele>543</ele>
        <time>2011-07-03T11:09:20Z</time>
      </trkpt>
      <trkpt lat="45.74166" lon="5.99642">
        <ele>543</ele>
        <time>2011-07-03T11:09:21Z</time>
      </trkpt>
      <trkpt lat="45.74164" lon="5.99641">
        <ele>543</ele>
        <time>2011-07-03T11:09:22Z</time>
      </trkpt>
      <trkpt lat="45.74162" lon="5.99641">
        <ele>543</ele>
        <time>2011-07-03T11:09:23Z</time>
      </trkpt>
      <trkpt lat="45.74161" lon="5.9964">
        <ele>543</ele>
        <time>2011-07-03T11:09:24Z</time>
      </trkpt>
      <trkpt lat="45.7416" lon="5.99639">
        <ele>543</ele>
        <time>2011-07-03T11:09:25Z</time>
      </trkpt>
      <trkpt lat="45.74158" lon="5.99639">
        <ele>543</ele>
        <time>2011-07-03T11:09:26Z</time>
      </trkpt>
      <trkpt lat="45.74157" lon="5.99638">
        <ele>543</ele>
        <time>2011-07-03T11:09:27Z</time>
      </trkpt>
      <trkpt lat="45.74155" lon="5.99637">
        <ele>543</ele>
        <time>2011-07-03T11:09:28Z</time>
      </trkpt>
      <trkpt lat="45.74154" lon="5.99636">
        <ele>543</ele>
        <time>2011-07-03T11:09:29Z</time>
      </trkpt>
      <trkpt lat="45.74153" lon="5.99636">
        <ele>543</ele>
        <time>2011-07-03T11:09:30Z</time>
      </trkpt>
      <trkpt lat="45.74151" lon="5.99635">
        <ele>543</ele>
        <time>2011-07-03T11:09:31Z</time>
      </trkpt>
      <trkpt lat="45.7415" lon="5.99635">
        <ele>543</ele>
        <time>2011-07-03T11:09:32Z</time>
      </trkpt>
      <trkpt lat="45.74148" lon="5.99633">
        <ele>544</ele>
        <time>2011-07-03T11:09:34Z</time>
      </trkpt>
      <trkpt lat="45.74147" lon="5.99633">
        <ele>544</ele>
        <time>2011-07-03T11:09:35Z</time>
      </trkpt>
      <trkpt lat="45.74145" lon="5.99632">
        <ele>544</ele>
        <time>2011-07-03T11:09:36Z</time>
      </trkpt>
      <trkpt lat="45.74143" lon="5.99631">
        <ele>544</ele>
        <time>2011-07-03T11:09:37Z</time>
      </trkpt>
      <trkpt lat="45.74142" lon="5.9963">
        <ele>544</ele>
        <time>2011-07-03T11:09:38Z</time>
      </trkpt>
      <trkpt lat="45.7414" lon="5.99629">
        <ele>544</ele>
        <time>2011-07-03T11:09:39Z</time>
      </trkpt>
      <trkpt lat="45.74138" lon="5.99628">
        <ele>544</ele>
        <time>2011-07-03T11:09:40Z</time>
      </trkpt>
      <trkpt lat="45.74136" lon="5.99627">
        <ele>544</ele>
        <time>2011-07-03T11:09:41Z</time>
      </trkpt>
      <trkpt lat="45.74135" lon="5.99627">
        <ele>544</ele>
        <time>2011-07-03T11:09:42Z</time>
      </trkpt>
      <trkpt lat="45.74133" lon="5.99626">
        <ele>544</ele>
        <time>2011-07-03T11:09:43Z</time>
      </trkpt>
      <trkpt lat="45.74131" lon="5.99626">
        <ele>545</ele>
        <time>2011-07-03T11:09:44Z</time>
      </trkpt>
      <trkpt lat="45.74129" lon="5.99625">
        <ele>545</ele>
        <time>2011-07-03T11:09:45Z</time>
      </trkpt>
      <trkpt lat="45.74127" lon="5.99624">
        <ele>545</ele>
        <time>2011-07-03T11:09:46Z</time>
      </trkpt>
      <trkpt lat="45.74125" lon="5.99623">
        <ele>545</ele>
        <time>2011-07-03T11:09:47Z</time>
      </trkpt>
      <trkpt lat="45.74123" lon="5.99622">
        <ele>545</ele>
        <time>2011-07-03T11:09:48Z</time>
      </trkpt>
      <trkpt lat="45.74121" lon="5.99621">
        <ele>545</ele>
        <time>2011-07-03T11:09:49Z</time>
      </trkpt>
      <trkpt lat="45.7412" lon="5.9962">
        <ele>545</ele>
        <time>2011-07-03T11:09:50Z</time>
      </trkpt>
      <trkpt lat="45.74118" lon="5.9962">
        <ele>545</ele>
        <time>2011-07-03T11:09:51Z</time>
      </trkpt>
      <trkpt lat="45.74116" lon="5.99619">
        <ele>545</ele>
        <time>2011-07-03T11:09:52Z</time>
      </trkpt>
      <trkpt lat="45.74114" lon="5.99618">
        <ele>545</ele>
        <time>2011-07-03T11:09:53Z</time>
      </trkpt>
      <trkpt lat="45.74112" lon="5.99617">
        <ele>545</ele>
        <time>2011-07-03T11:09:54Z</time>
      </trkpt>
      <trkpt lat="45.74111" lon="5.99617">
        <ele>545</ele>
        <time>2011-07-03T11:09:55Z</time>
      </trkpt>
      <trkpt lat="45.74109" lon="5.99617">
        <ele>545</ele>
        <time>2011-07-03T11:09:56Z</time>
      </trkpt>
      <trkpt lat="45.74107" lon="5.99616">
        <ele>546</ele>
        <time>2011-07-03T11:09:57Z</time>
      </trkpt>
      <trkpt lat="45.74105" lon="5.99616">
        <ele>546</ele>
        <time>2011-07-03T11:09:58Z</time>
      </trkpt>
      <trkpt lat="45.74102" lon="5.99615">
        <ele>546</ele>
        <time>2011-07-03T11:09:59Z</time>
      </trkpt>
      <trkpt lat="45.74101" lon="5.99615">
        <ele>546</ele>
        <time>2011-07-03T11:10:00Z</time>
      </trkpt>
      <trkpt lat="45.74099" lon="5.99615">
        <ele>546</ele>
        <time>2011-07-03T11:10:01Z</time>
      </trkpt>
      <trkpt lat="45.74097" lon="5.99614">
        <ele>546</ele>
        <time>2011-07-03T11:10:02Z</time>
      </trkpt>
      <trkpt lat="45.74095" lon="5.99614">
        <ele>546</ele>
        <time>2011-07-03T11:10:03Z</time>
      </trkpt>
      <trkpt lat="45.74093" lon="5.99614">
        <ele>546</ele>
        <time>2011-07-03T11:10:04Z</time>
      </trkpt>
      <trkpt lat="45.74092" lon="5.99614">
        <ele>546</ele>
        <time>2011-07-03T11:10:05Z</time>
      </trkpt>
      <trkpt lat="45.7409" lon="5.99614">
        <ele>546</ele>
        <time>2011-07-03T11:10:06Z</time>
      </trkpt>
      <trkpt lat="45.74089" lon="5.99614">
        <ele>546</ele>
        <time>2011-07-03T11:10:07Z</time>
      </trkpt>
      <trkpt lat="45.74087" lon="5.99614">
        <ele>546</ele>
        <time>2011-07-03T11:10:08Z</time>
      </trkpt>
      <trkpt lat="45.74085" lon="5.99614">
        <ele>546</ele>
        <time>2011-07-03T11:10:09Z</time>
      </trkpt>
      <trkpt lat="45.74083" lon="5.99615">
        <ele>546</ele>
        <time>2011-07-03T11:10:10Z</time>
      </trkpt>
      <trkpt lat="45.74082" lon="5.99615">
        <ele>546</ele>
        <time>2011-07-03T11:10:11Z</time>
      </trkpt>
      <trkpt lat="45.7408" lon="5.99615">
        <ele>546</ele>
        <time>2011-07-03T11:10:12Z</time>
      </trkpt>
      <trkpt lat="45.74079" lon="5.99616">
        <ele>546</ele>
        <time>2011-07-03T11:10:13Z</time>
      </trkpt>
      <trkpt lat="45.74077" lon="5.99616">
        <ele>546</ele>
        <time>2011-07-03T11:10:14Z</time>
      </trkpt>
      <trkpt lat="45.74076" lon="5.99617">
        <ele>546</ele>
        <time>2011-07-03T11:10:15Z</time>
      </trkpt>
      <trkpt lat="45.74075" lon="5.99617">
        <ele>546</ele>
        <time>2011-07-03T11:10:16Z</time>
      </trkpt>
      <trkpt lat="45.74073" lon="5.99618">
        <ele>546</ele>
        <time>2011-07-03T11:10:17Z</time>
      </trkpt>
      <trkpt lat="45.74072" lon="5.99618">
        <ele>547</ele>
        <time>2011-07-03T11:10:18Z</time>
      </trkpt>
      <trkpt lat="45.7407" lon="5.99619">
        <ele>547</ele>
        <time>2011-07-03T11:10:19Z</time>
      </trkpt>
      <trkpt lat="45.74068" lon="5.99619">
        <ele>547</ele>
        <time>2011-07-03T11:10:20Z</time>
      </trkpt>
      <trkpt lat="45.74067" lon="5.99619">
        <ele>547</ele>
        <time>2011-07-03T11:10:21Z</time>
      </trkpt>
      <trkpt lat="45.74065" lon="5.9962">
        <ele>547</ele>
        <time>2011-07-03T11:10:22Z</time>
      </trkpt>
      <trkpt lat="45.74064" lon="5.99621">
        <ele>547</ele>
        <time>2011-07-03T11:10:23Z</time>
      </trkpt>
      <trkpt lat="45.74062" lon="5.99621">
        <ele>547</ele>
        <time>2011-07-03T11:10:24Z</time>
      </trkpt>
      <trkpt lat="45.74061" lon="5.99622">
        <ele>548</ele>
        <time>2011-07-03T11:10:25Z</time>
      </trkpt>
      <trkpt lat="45.74059" lon="5.99622">
        <ele>548</ele>
        <time>2011-07-03T11:10:26Z</time>
      </trkpt>
      <trkpt lat="45.74058" lon="5.99623">
        <ele>548</ele>
        <time>2011-07-03T11:10:27Z</time>
      </trkpt>
      <trkpt lat="45.74056" lon="5.99623">
        <ele>548</ele>
        <time>2011-07-03T11:10:28Z</time>
      </trkpt>
      <trkpt lat="45.74054" lon="5.99623">
        <ele>548</ele>
        <time>2011-07-03T11:10:29Z</time>
      </trkpt>
      <trkpt lat="45.74053" lon="5.99624">
        <ele>548</ele>
        <time>2011-07-03T11:10:30Z</time>
      </trkpt>
      <trkpt lat="45.74051" lon="5.99625">
        <ele>548</ele>
        <time>2011-07-03T11:10:31Z</time>
      </trkpt>
      <trkpt lat="45.7405" lon="5.99625">
        <ele>548</ele>
        <time>2011-07-03T11:10:32Z</time>
      </trkpt>
      <trkpt lat="45.74048" lon="5.99626">
        <ele>548</ele>
        <time>2011-07-03T11:10:33Z</time>
      </trkpt>
      <trkpt lat="45.74046" lon="5.99626">
        <ele>549</ele>
        <time>2011-07-03T11:10:34Z</time>
      </trkpt>
      <trkpt lat="45.74045" lon="5.99627">
        <ele>549</ele>
        <time>2011-07-03T11:10:35Z</time>
      </trkpt>
      <trkpt lat="45.74043" lon="5.99627">
        <ele>549</ele>
        <time>2011-07-03T11:10:36Z</time>
      </trkpt>
      <trkpt lat="45.74042" lon="5.99628">
        <ele>549</ele>
        <time>2011-07-03T11:10:37Z</time>
      </trkpt>
      <trkpt lat="45.7404" lon="5.99628">
        <ele>549</ele>
        <time>2011-07-03T11:10:38Z</time>
      </trkpt>
      <trkpt lat="45.74039" lon="5.99629">
        <ele>549</ele>
        <time>2011-07-03T11:10:39Z</time>
      </trkpt>
      <trkpt lat="45.74037" lon="5.99629">
        <ele>549</ele>
        <time>2011-07-03T11:10:40Z</time>
      </trkpt>
      <trkpt lat="45.74036" lon="5.99629">
        <ele>549</ele>
        <time>2011-07-03T11:10:41Z</time>
      </trkpt>
      <trkpt lat="45.74035" lon="5.99629">
        <ele>549</ele>
        <time>2011-07-03T11:10:42Z</time>
      </trkpt>
      <trkpt lat="45.74033" lon="5.9963">
        <ele>549</ele>
        <time>2011-07-03T11:10:43Z</time>
      </trkpt>
      <trkpt lat="45.74032" lon="5.9963">
        <ele>549</ele>
        <time>2011-07-03T11:10:44Z</time>
      </trkpt>
      <trkpt lat="45.7403" lon="5.9963">
        <ele>549</ele>
        <time>2011-07-03T11:10:46Z</time>
      </trkpt>
      <trkpt lat="45.74028" lon="5.99631">
        <ele>549</ele>
        <time>2011-07-03T11:10:47Z</time>
      </trkpt>
      <trkpt lat="45.74027" lon="5.99631">
        <ele>549</ele>
        <time>2011-07-03T11:10:48Z</time>
      </trkpt>
      <trkpt lat="45.74025" lon="5.99631">
        <ele>549</ele>
        <time>2011-07-03T11:10:49Z</time>
      </trkpt>
      <trkpt lat="45.74023" lon="5.99631">
        <ele>549</ele>
        <time>2011-07-03T11:10:51Z</time>
      </trkpt>
      <trkpt lat="45.74022" lon="5.99631">
        <ele>549</ele>
        <time>2011-07-03T11:10:52Z</time>
      </trkpt>
      <trkpt lat="45.7402" lon="5.99631">
        <ele>549</ele>
        <time>2011-07-03T11:10:53Z</time>
      </trkpt>
      <trkpt lat="45.74019" lon="5.99632">
        <ele>549</ele>
        <time>2011-07-03T11:10:54Z</time>
      </trkpt>
      <trkpt lat="45.74017" lon="5.99632">
        <ele>549</ele>
        <time>2011-07-03T11:10:55Z</time>
      </trkpt>
      <trkpt lat="45.74015" lon="5.99631">
        <ele>549</ele>
        <time>2011-07-03T11:10:56Z</time>
      </trkpt>
      <trkpt lat="45.74014" lon="5.99631">
        <ele>549</ele>
        <time>2011-07-03T11:10:57Z</time>
      </trkpt>
      <trkpt lat="45.74012" lon="5.99631">
        <ele>549</ele>
        <time>2011-07-03T11:10:58Z</time>
      </trkpt>
      <trkpt lat="45.74011" lon="5.9963">
        <ele>550</ele>
        <time>2011-07-03T11:10:59Z</time>
      </trkpt>
      <trkpt lat="45.7401" lon="5.99629">
        <ele>550</ele>
        <time>2011-07-03T11:11:00Z</time>
      </trkpt>
      <trkpt lat="45.74009" lon="5.99629">
        <ele>550</ele>
        <time>2011-07-03T11:11:01Z</time>
      </trkpt>
      <trkpt lat="45.74007" lon="5.99628">
        <ele>550</ele>
        <time>2011-07-03T11:11:02Z</time>
      </trkpt>
      <trkpt lat="45.74006" lon="5.99628">
        <ele>550</ele>
        <time>2011-07-03T11:11:03Z</time>
      </trkpt>
      <trkpt lat="45.74004" lon="5.99627">
        <ele>550</ele>
        <time>2011-07-03T11:11:04Z</time>
      </trkpt>
      <trkpt lat="45.74002" lon="5.99627">
        <ele>550</ele>
        <time>2011-07-03T11:11:05Z</time>
      </trkpt>
      <trkpt lat="45.74001" lon="5.99626">
        <ele>550</ele>
        <time>2011-07-03T11:11:06Z</time>
      </trkpt>
      <trkpt lat="45.73999" lon="5.99626">
        <ele>550</ele>
        <time>2011-07-03T11:11:07Z</time>
      </trkpt>
      <trkpt lat="45.73997" lon="5.99626">
        <ele>550</ele>
        <time>2011-07-03T11:11:08Z</time>
      </trkpt>
      <trkpt lat="45.73996" lon="5.99625">
        <ele>551</ele>
        <time>2011-07-03T11:11:09Z</time>
      </trkpt>
      <trkpt lat="45.73994" lon="5.99625">
        <ele>551</ele>
        <time>2011-07-03T11:11:10Z</time>
      </trkpt>
      <trkpt lat="45.73992" lon="5.99625">
        <ele>551</ele>
        <time>2011-07-03T11:11:11Z</time>
      </trkpt>
      <trkpt lat="45.7399" lon="5.99625">
        <ele>551</ele>
        <time>2011-07-03T11:11:12Z</time>
      </trkpt>
      <trkpt lat="45.73988" lon="5.99624">
        <ele>551</ele>
        <time>2011-07-03T11:11:13Z</time>
      </trkpt>
      <trkpt lat="45.73986" lon="5.99624">
        <ele>551</ele>
        <time>2011-07-03T11:11:14Z</time>
      </trkpt>
      <trkpt lat="45.73985" lon="5.99624">
        <ele>551</ele>
        <time>2011-07-03T11:11:15Z</time>
      </trkpt>
      <trkpt lat="45.73983" lon="5.99624">
        <ele>551</ele>
        <time>2011-07-03T11:11:16Z</time>
      </trkpt>
      <trkpt lat="45.73981" lon="5.99624">
        <ele>551</ele>
        <time>2011-07-03T11:11:17Z</time>
      </trkpt>
      <trkpt lat="45.7398" lon="5.99623">
        <ele>552</ele>
        <time>2011-07-03T11:11:18Z</time>
      </trkpt>
      <trkpt lat="45.73978" lon="5.99623">
        <ele>552</ele>
        <time>2011-07-03T11:11:19Z</time>
      </trkpt>
      <trkpt lat="45.73977" lon="5.99623">
        <ele>552</ele>
        <time>2011-07-03T11:11:20Z</time>
      </trkpt>
      <trkpt lat="45.73975" lon="5.99623">
        <ele>552</ele>
        <time>2011-07-03T11:11:21Z</time>
      </trkpt>
      <trkpt lat="45.73974" lon="5.99623">
        <ele>552</ele>
        <time>2011-07-03T11:11:22Z</time>
      </trkpt>
      <trkpt lat="45.73973" lon="5.99624">
        <ele>552</ele>
        <time>2011-07-03T11:11:23Z</time>
      </trkpt>
      <trkpt lat="45.73972" lon="5.99624">
        <ele>552</ele>
        <time>2011-07-03T11:11:24Z</time>
      </trkpt>
      <trkpt lat="45.7397" lon="5.99624">
        <ele>552</ele>
        <time>2011-07-03T11:11:25Z</time>
      </trkpt>
      <trkpt lat="45.73969" lon="5.99624">
        <ele>552</ele>
        <time>2011-07-03T11:11:26Z</time>
      </trkpt>
      <trkpt lat="45.73967" lon="5.99625">
        <ele>552</ele>
        <time>2011-07-03T11:11:27Z</time>
      </trkpt>
      <trkpt lat="45.73966" lon="5.99625">
        <ele>552</ele>
        <time>2011-07-03T11:11:28Z</time>
      </trkpt>
      <trkpt lat="45.73965" lon="5.99625">
        <ele>552</ele>
        <time>2011-07-03T11:11:29Z</time>
      </trkpt>
      <trkpt lat="45.73964" lon="5.99626">
        <ele>552</ele>
        <time>2011-07-03T11:11:30Z</time>
      </trkpt>
      <trkpt lat="45.73962" lon="5.99626">
        <ele>552</ele>
        <time>2011-07-03T11:11:31Z</time>
      </trkpt>
      <trkpt lat="45.73961" lon="5.99626">
        <ele>552</ele>
        <time>2011-07-03T11:11:32Z</time>
      </trkpt>
      <trkpt lat="45.7396" lon="5.99627">
        <ele>553</ele>
        <time>2011-07-03T11:11:33Z</time>
      </trkpt>
      <trkpt lat="45.73958" lon="5.99628">
        <ele>553</ele>
        <time>2011-07-03T11:11:35Z</time>
      </trkpt>
      <trkpt lat="45.73957" lon="5.99628">
        <ele>553</ele>
        <time>2011-07-03T11:11:36Z</time>
      </trkpt>
      <trkpt lat="45.73955" lon="5.99628">
        <ele>553</ele>
        <time>2011-07-03T11:11:37Z</time>
      </trkpt>
      <trkpt lat="45.73954" lon="5.99629">
        <ele>553</ele>
        <time>2011-07-03T11:11:38Z</time>
      </trkpt>
      <trkpt lat="45.73953" lon="5.9963">
        <ele>553</ele>
        <time>2011-07-03T11:11:39Z</time>
      </trkpt>
      <trkpt lat="45.73952" lon="5.9963">
        <ele>553</ele>
        <time>2011-07-03T11:11:40Z</time>
      </trkpt>
      <trkpt lat="45.7395" lon="5.99631">
        <ele>554</ele>
        <time>2011-07-03T11:11:41Z</time>
      </trkpt>
      <trkpt lat="45.73949" lon="5.99632">
        <ele>554</ele>
        <time>2011-07-03T11:11:42Z</time>
      </trkpt>
      <trkpt lat="45.73948" lon="5.99633">
        <ele>554</ele>
        <time>2011-07-03T11:11:43Z</time>
      </trkpt>
      <trkpt lat="45.73946" lon="5.99634">
        <ele>554</ele>
        <time>2011-07-03T11:11:44Z</time>
      </trkpt>
      <trkpt lat="45.73945" lon="5.99635">
        <ele>554</ele>
        <time>2011-07-03T11:11:45Z</time>
      </trkpt>
      <trkpt lat="45.73943" lon="5.99635">
        <ele>554</ele>
        <time>2011-07-03T11:11:46Z</time>
      </trkpt>
      <trkpt lat="45.73942" lon="5.99636">
        <ele>554</ele>
        <time>2011-07-03T11:11:47Z</time>
      </trkpt>
      <trkpt lat="45.7394" lon="5.99637">
        <ele>554</ele>
        <time>2011-07-03T11:11:48Z</time>
      </trkpt>
      <trkpt lat="45.73939" lon="5.99638">
        <ele>554</ele>
        <time>2011-07-03T11:11:49Z</time>
      </trkpt>
      <trkpt lat="45.73937" lon="5.99638">
        <ele>554</ele>
        <time>2011-07-03T11:11:50Z</time>
      </trkpt>
      <trkpt lat="45.73936" lon="5.99639">
        <ele>554</ele>
        <time>2011-07-03T11:11:51Z</time>
      </trkpt>
      <trkpt lat="45.73934" lon="5.9964">
        <ele>554</ele>
        <time>2011-07-03T11:11:52Z</time>
      </trkpt>
      <trkpt lat="45.73933" lon="5.9964">
        <ele>554</ele>
        <time>2011-07-03T11:11:53Z</time>
      </trkpt>
      <trkpt lat="45.7393" lon="5.99641">
        <ele>554</ele>
        <time>2011-07-03T11:11:55Z</time>
      </trkpt>
      <trkpt lat="45.73929" lon="5.99641">
        <ele>554</ele>
        <time>2011-07-03T11:11:56Z</time>
      </trkpt>
      <trkpt lat="45.73928" lon="5.99642">
        <ele>554</ele>
        <time>2011-07-03T11:11:57Z</time>
      </trkpt>
      <trkpt lat="45.73927" lon="5.99643">
        <ele>554</ele>
        <time>2011-07-03T11:11:58Z</time>
      </trkpt>
      <trkpt lat="45.73925" lon="5.99643">
        <ele>554</ele>
        <time>2011-07-03T11:11:59Z</time>
      </trkpt>
      <trkpt lat="45.73924" lon="5.99644">
        <ele>554</ele>
        <time>2011-07-03T11:12:00Z</time>
      </trkpt>
      <trkpt lat="45.73923" lon="5.99644">
        <ele>554</ele>
        <time>2011-07-03T11:12:01Z</time>
      </trkpt>
      <trkpt lat="45.73922" lon="5.99645">
        <ele>554</ele>
        <time>2011-07-03T11:12:02Z</time>
      </trkpt>
      <trkpt lat="45.7392" lon="5.99645">
        <ele>554</ele>
        <time>2011-07-03T11:12:03Z</time>
      </trkpt>
      <trkpt lat="45.73919" lon="5.99645">
        <ele>554</ele>
        <time>2011-07-03T11:12:04Z</time>
      </trkpt>
      <trkpt lat="45.73917" lon="5.99646">
        <ele>554</ele>
        <time>2011-07-03T11:12:05Z</time>
      </trkpt>
      <trkpt lat="45.73916" lon="5.99646">
        <ele>555</ele>
        <time>2011-07-03T11:12:06Z</time>
      </trkpt>
      <trkpt lat="45.73914" lon="5.99647">
        <ele>555</ele>
        <time>2011-07-03T11:12:07Z</time>
      </trkpt>
      <trkpt lat="45.73912" lon="5.99647">
        <ele>555</ele>
        <time>2011-07-03T11:12:08Z</time>
      </trkpt>
      <trkpt lat="45.73911" lon="5.99647">
        <ele>555</ele>
        <time>2011-07-03T11:12:09Z</time>
      </trkpt>
      <trkpt lat="45.73909" lon="5.99648">
        <ele>555</ele>
        <time>2011-07-03T11:12:10Z</time>
      </trkpt>
      <trkpt lat="45.73908" lon="5.99648">
        <ele>555</ele>
        <time>2011-07-03T11:12:11Z</time>
      </trkpt>
      <trkpt lat="45.73906" lon="5.99649">
        <ele>556</ele>
        <time>2011-07-03T11:12:12Z</time>
      </trkpt>
      <trkpt lat="45.73905" lon="5.99649">
        <ele>556</ele>
        <time>2011-07-03T11:12:13Z</time>
      </trkpt>
      <trkpt lat="45.73903" lon="5.99649">
        <ele>556</ele>
        <time>2011-07-03T11:12:14Z</time>
      </trkpt>
      <trkpt lat="45.73901" lon="5.99649">
        <ele>556</ele>
        <time>2011-07-03T11:12:15Z</time>
      </trkpt>
      <trkpt lat="45.73899" lon="5.99649">
        <ele>557</ele>
        <time>2011-07-03T11:12:16Z</time>
      </trkpt>
      <trkpt lat="45.73898" lon="5.99649">
        <ele>557</ele>
        <time>2011-07-03T11:12:17Z</time>
      </trkpt>
      <trkpt lat="45.73896" lon="5.99648">
        <ele>557</ele>
        <time>2011-07-03T11:12:18Z</time>
      </trkpt>
      <trkpt lat="45.73894" lon="5.99648">
        <ele>557</ele>
        <time>2011-07-03T11:12:19Z</time>
      </trkpt>
      <trkpt lat="45.73893" lon="5.99648">
        <ele>557</ele>
        <time>2011-07-03T11:12:20Z</time>
      </trkpt>
      <trkpt lat="45.73891" lon="5.99647">
        <ele>558</ele>
        <time>2011-07-03T11:12:21Z</time>
      </trkpt>
      <trkpt lat="45.73889" lon="5.99647">
        <ele>558</ele>
        <time>2011-07-03T11:12:22Z</time>
      </trkpt>
      <trkpt lat="45.73887" lon="5.99646">
        <ele>558</ele>
        <time>2011-07-03T11:12:23Z</time>
      </trkpt>
      <trkpt lat="45.73885" lon="5.99645">
        <ele>558</ele>
        <time>2011-07-03T11:12:24Z</time>
      </trkpt>
      <trkpt lat="45.73883" lon="5.99644">
        <ele>559</ele>
        <time>2011-07-03T11:12:25Z</time>
      </trkpt>
      <trkpt lat="45.73882" lon="5.99643">
        <ele>559</ele>
        <time>2011-07-03T11:12:26Z</time>
      </trkpt>
      <trkpt lat="45.7388" lon="5.99641">
        <ele>559</ele>
        <time>2011-07-03T11:12:27Z</time>
      </trkpt>
      <trkpt lat="45.73878" lon="5.9964">
        <ele>559</ele>
        <time>2011-07-03T11:12:28Z</time>
      </trkpt>
      <trkpt lat="45.73876" lon="5.99639">
        <ele>559</ele>
        <time>2011-07-03T11:12:29Z</time>
      </trkpt>
      <trkpt lat="45.73875" lon="5.99637">
        <ele>559</ele>
        <time>2011-07-03T11:12:30Z</time>
      </trkpt>
      <trkpt lat="45.73873" lon="5.99636">
        <ele>559</ele>
        <time>2011-07-03T11:12:31Z</time>
      </trkpt>
      <trkpt lat="45.73871" lon="5.99634">
        <ele>560</ele>
        <time>2011-07-03T11:12:32Z</time>
      </trkpt>
      <trkpt lat="45.73869" lon="5.99632">
        <ele>560</ele>
        <time>2011-07-03T11:12:33Z</time>
      </trkpt>
      <trkpt lat="45.73867" lon="5.99631">
        <ele>560</ele>
        <time>2011-07-03T11:12:34Z</time>
      </trkpt>
      <trkpt lat="45.73865" lon="5.99629">
        <ele>560</ele>
        <time>2011-07-03T11:12:35Z</time>
      </trkpt>
      <trkpt lat="45.73864" lon="5.99628">
        <ele>561</ele>
        <time>2011-07-03T11:12:36Z</time>
      </trkpt>
      <trkpt lat="45.73862" lon="5.99626">
        <ele>561</ele>
        <time>2011-07-03T11:12:37Z</time>
      </trkpt>
      <trkpt lat="45.7386" lon="5.99625">
        <ele>561</ele>
        <time>2011-07-03T11:12:38Z</time>
      </trkpt>
      <trkpt lat="45.73858" lon="5.99624">
        <ele>562</ele>
        <time>2011-07-03T11:12:39Z</time>
      </trkpt>
      <trkpt lat="45.73856" lon="5.99622">
        <ele>562</ele>
        <time>2011-07-03T11:12:40Z</time>
      </trkpt>
      <trkpt lat="45.73854" lon="5.99621">
        <ele>562</ele>
        <time>2011-07-03T11:12:41Z</time>
      </trkpt>
      <trkpt lat="45.73852" lon="5.99619">
        <ele>563</ele>
        <time>2011-07-03T11:12:42Z</time>
      </trkpt>
      <trkpt lat="45.73851" lon="5.99618">
        <ele>563</ele>
        <time>2011-07-03T11:12:43Z</time>
      </trkpt>
      <trkpt lat="45.73849" lon="5.99617">
        <ele>564</ele>
        <time>2011-07-03T11:12:44Z</time>
      </trkpt>
      <trkpt lat="45.73847" lon="5.99617">
        <ele>564</ele>
        <time>2011-07-03T11:12:45Z</time>
      </trkpt>
      <trkpt lat="45.73845" lon="5.99616">
        <ele>565</ele>
        <time>2011-07-03T11:12:46Z</time>
      </trkpt>
      <trkpt lat="45.73843" lon="5.99615">
        <ele>565</ele>
        <time>2011-07-03T11:12:47Z</time>
      </trkpt>
      <trkpt lat="45.73841" lon="5.99614">
        <ele>566</ele>
        <time>2011-07-03T11:12:48Z</time>
      </trkpt>
      <trkpt lat="45.7384" lon="5.99613">
        <ele>566</ele>
        <time>2011-07-03T11:12:49Z</time>
      </trkpt>
      <trkpt lat="45.73838" lon="5.99613">
        <ele>566</ele>
        <time>2011-07-03T11:12:50Z</time>
      </trkpt>
      <trkpt lat="45.73837" lon="5.99613">
        <ele>566</ele>
        <time>2011-07-03T11:12:51Z</time>
      </trkpt>
      <trkpt lat="45.73835" lon="5.99613">
        <ele>567</ele>
        <time>2011-07-03T11:12:52Z</time>
      </trkpt>
      <trkpt lat="45.73834" lon="5.99612">
        <ele>567</ele>
        <time>2011-07-03T11:12:53Z</time>
      </trkpt>
      <trkpt lat="45.73832" lon="5.99612">
        <ele>567</ele>
        <time>2011-07-03T11:12:54Z</time>
      </trkpt>
      <trkpt lat="45.73831" lon="5.99612">
        <ele>567</ele>
        <time>2011-07-03T11:12:55Z</time>
      </trkpt>
      <trkpt lat="45.73829" lon="5.99612">
        <ele>568</ele>
        <time>2011-07-03T11:12:56Z</time>
      </trkpt>
      <trkpt lat="45.73827" lon="5.99612">
        <ele>568</ele>
        <time>2011-07-03T11:12:57Z</time>
      </trkpt>
      <trkpt lat="45.73826" lon="5.99612">
        <ele>569</ele>
        <time>2011-07-03T11:12:58Z</time>
      </trkpt>
      <trkpt lat="45.73824" lon="5.99612">
        <ele>569</ele>
        <time>2011-07-03T11:12:59Z</time>
      </trkpt>
      <trkpt lat="45.73823" lon="5.99613">
        <ele>569</ele>
        <time>2011-07-03T11:13:00Z</time>
      </trkpt>
      <trkpt lat="45.73821" lon="5.99613">
        <ele>570</ele>
        <time>2011-07-03T11:13:01Z</time>
      </trkpt>
      <trkpt lat="45.73819" lon="5.99614">
        <ele>570</ele>
        <time>2011-07-03T11:13:02Z</time>
      </trkpt>
      <trkpt lat="45.73818" lon="5.99614">
        <ele>570</ele>
        <time>2011-07-03T11:13:03Z</time>
      </trkpt>
      <trkpt lat="45.73817" lon="5.99616">
        <ele>571</ele>
        <time>2011-07-03T11:13:05Z</time>
      </trkpt>
      <trkpt lat="45.73815" lon="5.99619">
        <ele>571</ele>
        <time>2011-07-03T11:13:07Z</time>
      </trkpt>
      <trkpt lat="45.73814" lon="5.99621">
        <ele>572</ele>
        <time>2011-07-03T11:13:09Z</time>
      </trkpt>
      <trkpt lat="45.73812" lon="5.99623">
        <ele>572</ele>
        <time>2011-07-03T11:13:11Z</time>
      </trkpt>
      <trkpt lat="45.73811" lon="5.99624">
        <ele>573</ele>
        <time>2011-07-03T11:13:12Z</time>
      </trkpt>
      <trkpt lat="45.73809" lon="5.99627">
        <ele>573</ele>
        <time>2011-07-03T11:13:14Z</time>
      </trkpt>
      <trkpt lat="45.73808" lon="5.99628">
        <ele>573</ele>
        <time>2011-07-03T11:13:15Z</time>
      </trkpt>
      <trkpt lat="45.73806" lon="5.99631">
        <ele>573</ele>
        <time>2011-07-03T11:13:17Z</time>
      </trkpt>
      <trkpt lat="45.73805" lon="5.99633">
        <ele>573</ele>
        <time>2011-07-03T11:13:18Z</time>
      </trkpt>
      <trkpt lat="45.73804" lon="5.99635">
        <ele>573</ele>
        <time>2011-07-03T11:13:19Z</time>
      </trkpt>
      <trkpt lat="45.73804" lon="5.99638">
        <ele>574</ele>
        <time>2011-07-03T11:13:20Z</time>
      </trkpt>
      <trkpt lat="45.73803" lon="5.9964">
        <ele>574</ele>
        <time>2011-07-03T11:13:21Z</time>
      </trkpt>
      <trkpt lat="45.73803" lon="5.99642">
        <ele>574</ele>
        <time>2011-07-03T11:13:22Z</time>
      </trkpt>
      <trkpt lat="45.73803" lon="5.99644">
        <ele>575</ele>
        <time>2011-07-03T11:13:23Z</time>
      </trkpt>
      <trkpt lat="45.73802" lon="5.99647">
        <ele>575</ele>
        <time>2011-07-03T11:13:24Z</time>
      </trkpt>
      <trkpt lat="45.73801" lon="5.99649">
        <ele>575</ele>
        <time>2011-07-03T11:13:25Z</time>
      </trkpt>
      <trkpt lat="45.73801" lon="5.99652">
        <ele>576</ele>
        <time>2011-07-03T11:13:26Z</time>
      </trkpt>
      <trkpt lat="45.73801" lon="5.99654">
        <ele>576</ele>
        <time>2011-07-03T11:13:27Z</time>
      </trkpt>
      <trkpt lat="45.738" lon="5.99656">
        <ele>576</ele>
        <time>2011-07-03T11:13:28Z</time>
      </trkpt>
      <trkpt lat="45.73799" lon="5.99659">
        <ele>577</ele>
        <time>2011-07-03T11:13:29Z</time>
      </trkpt>
      <trkpt lat="45.73799" lon="5.99661">
        <ele>577</ele>
        <time>2011-07-03T11:13:30Z</time>
      </trkpt>
      <trkpt lat="45.73798" lon="5.99663">
        <ele>577</ele>
        <time>2011-07-03T11:13:31Z</time>
      </trkpt>
      <trkpt lat="45.73798" lon="5.99666">
        <ele>577</ele>
        <time>2011-07-03T11:13:32Z</time>
      </trkpt>
      <trkpt lat="45.73797" lon="5.99668">
        <ele>578</ele>
        <time>2011-07-03T11:13:33Z</time>
      </trkpt>
      <trkpt lat="45.73796" lon="5.99671">
        <ele>578</ele>
        <time>2011-07-03T11:13:34Z</time>
      </trkpt>
      <trkpt lat="45.73796" lon="5.99673">
        <ele>578</ele>
        <time>2011-07-03T11:13:35Z</time>
      </trkpt>
      <trkpt lat="45.73795" lon="5.99675">
        <ele>578</ele>
        <time>2011-07-03T11:13:36Z</time>
      </trkpt>
      <trkpt lat="45.73794" lon="5.99677">
        <ele>578</ele>
        <time>2011-07-03T11:13:37Z</time>
      </trkpt>
      <trkpt lat="45.73794" lon="5.99679">
        <ele>578</ele>
        <time>2011-07-03T11:13:38Z</time>
      </trkpt>
      <trkpt lat="45.73793" lon="5.99682">
        <ele>579</ele>
        <time>2011-07-03T11:13:39Z</time>
      </trkpt>
      <trkpt lat="45.73793" lon="5.99684">
        <ele>579</ele>
        <time>2011-07-03T11:13:40Z</time>
      </trkpt>
      <trkpt lat="45.73792" lon="5.99686">
        <ele>579</ele>
        <time>2011-07-03T11:13:41Z</time>
      </trkpt>
      <trkpt lat="45.73792" lon="5.99688">
        <ele>579</ele>
        <time>2011-07-03T11:13:42Z</time>
      </trkpt>
      <trkpt lat="45.73791" lon="5.9969">
        <ele>580</ele>
        <time>2011-07-03T11:13:43Z</time>
      </trkpt>
      <trkpt lat="45.7379" lon="5.99692">
        <ele>580</ele>
        <time>2011-07-03T11:13:44Z</time>
      </trkpt>
      <trkpt lat="45.73789" lon="5.99693">
        <ele>580</ele>
        <time>2011-07-03T11:13:45Z</time>
      </trkpt>
      <trkpt lat="45.73788" lon="5.99696">
        <ele>581</ele>
        <time>2011-07-03T11:13:46Z</time>
      </trkpt>
      <trkpt lat="45.73788" lon="5.99698">
        <ele>581</ele>
        <time>2011-07-03T11:13:47Z</time>
      </trkpt>
      <trkpt lat="45.73787" lon="5.99699">
        <ele>581</ele>
        <time>2011-07-03T11:13:48Z</time>
      </trkpt>
      <trkpt lat="45.73786" lon="5.99701">
        <ele>582</ele>
        <time>2011-07-03T11:13:49Z</time>
      </trkpt>
      <trkpt lat="45.73785" lon="5.99703">
        <ele>582</ele>
        <time>2011-07-03T11:13:50Z</time>
      </trkpt>
      <trkpt lat="45.73785" lon="5.99705">
        <ele>582</ele>
        <time>2011-07-03T11:13:51Z</time>
      </trkpt>
      <trkpt lat="45.73784" lon="5.99706">
        <ele>583</ele>
        <time>2011-07-03T11:13:52Z</time>
      </trkpt>
      <trkpt lat="45.73783" lon="5.99708">
        <ele>583</ele>
        <time>2011-07-03T11:13:53Z</time>
      </trkpt>
      <trkpt lat="45.73782" lon="5.9971">
        <ele>584</ele>
        <time>2011-07-03T11:13:54Z</time>
      </trkpt>
      <trkpt lat="45.73781" lon="5.99711">
        <ele>584</ele>
        <time>2011-07-03T11:13:55Z</time>
      </trkpt>
      <trkpt lat="45.7378" lon="5.99713">
        <ele>585</ele>
        <time>2011-07-03T11:13:56Z</time>
      </trkpt>
      <trkpt lat="45.7378" lon="5.99715">
        <ele>585</ele>
        <time>2011-07-03T11:13:57Z</time>
      </trkpt>
      <trkpt lat="45.73778" lon="5.99716">
        <ele>585</ele>
        <time>2011-07-03T11:13:58Z</time>
      </trkpt>
      <trkpt lat="45.73777" lon="5.99718">
        <ele>586</ele>
        <time>2011-07-03T11:13:59Z</time>
      </trkpt>
      <trkpt lat="45.73776" lon="5.9972">
        <ele>586</ele>
        <time>2011-07-03T11:14:00Z</time>
      </trkpt>
      <trkpt lat="45.73775" lon="5.99721">
        <ele>586</ele>
        <time>2011-07-03T11:14:01Z</time>
      </trkpt>
      <trkpt lat="45.73773" lon="5.99723">
        <ele>586</ele>
        <time>2011-07-03T11:14:02Z</time>
      </trkpt>
      <trkpt lat="45.73772" lon="5.99724">
        <ele>586</ele>
        <time>2011-07-03T11:14:03Z</time>
      </trkpt>
      <trkpt lat="45.73772" lon="5.99726">
        <ele>586</ele>
        <time>2011-07-03T11:14:04Z</time>
      </trkpt>
      <trkpt lat="45.7377" lon="5.99728">
        <ele>586</ele>
        <time>2011-07-03T11:14:05Z</time>
      </trkpt>
      <trkpt lat="45.73769" lon="5.99729">
        <ele>586</ele>
        <time>2011-07-03T11:14:06Z</time>
      </trkpt>
      <trkpt lat="45.73768" lon="5.99731">
        <ele>586</ele>
        <time>2011-07-03T11:14:07Z</time>
      </trkpt>
      <trkpt lat="45.73766" lon="5.99733">
        <ele>586</ele>
        <time>2011-07-03T11:14:08Z</time>
      </trkpt>
      <trkpt lat="45.73764" lon="5.99735">
        <ele>586</ele>
        <time>2011-07-03T11:14:10Z</time>
      </trkpt>
      <trkpt lat="45.73763" lon="5.99737">
        <ele>586</ele>
        <time>2011-07-03T11:14:11Z</time>
      </trkpt>
      <trkpt lat="45.73762" lon="5.99739">
        <ele>586</ele>
        <time>2011-07-03T11:14:12Z</time>
      </trkpt>
      <trkpt lat="45.7376" lon="5.99741">
        <ele>586</ele>
        <time>2011-07-03T11:14:13Z</time>
      </trkpt>
      <trkpt lat="45.73759" lon="5.99742">
        <ele>586</ele>
        <time>2011-07-03T11:14:14Z</time>
      </trkpt>
      <trkpt lat="45.73758" lon="5.99744">
        <ele>586</ele>
        <time>2011-07-03T11:14:15Z</time>
      </trkpt>
      <trkpt lat="45.73757" lon="5.99746">
        <ele>586</ele>
        <time>2011-07-03T11:14:16Z</time>
      </trkpt>
      <trkpt lat="45.73756" lon="5.99747">
        <ele>586</ele>
        <time>2011-07-03T11:14:17Z</time>
      </trkpt>
      <trkpt lat="45.73754" lon="5.99748">
        <ele>586</ele>
        <time>2011-07-03T11:14:18Z</time>
      </trkpt>
      <trkpt lat="45.73753" lon="5.99749">
        <ele>586</ele>
        <time>2011-07-03T11:14:19Z</time>
      </trkpt>
      <trkpt lat="45.73751" lon="5.9975">
        <ele>586</ele>
        <time>2011-07-03T11:14:20Z</time>
      </trkpt>
      <trkpt lat="45.7375" lon="5.99751">
        <ele>586</ele>
        <time>2011-07-03T11:14:21Z</time>
      </trkpt>
      <trkpt lat="45.73749" lon="5.99754">
        <ele>586</ele>
        <time>2011-07-03T11:14:22Z</time>
      </trkpt>
      <trkpt lat="45.73748" lon="5.99756">
        <ele>586</ele>
        <time>2011-07-03T11:14:23Z</time>
      </trkpt>
      <trkpt lat="45.73747" lon="5.99759">
        <ele>586</ele>
        <time>2011-07-03T11:14:24Z</time>
      </trkpt>
      <trkpt lat="45.73746" lon="5.9976">
        <ele>586</ele>
        <time>2011-07-03T11:14:25Z</time>
      </trkpt>
      <trkpt lat="45.73745" lon="5.99762">
        <ele>586</ele>
        <time>2011-07-03T11:14:26Z</time>
      </trkpt>
      <trkpt lat="45.73744" lon="5.99765">
        <ele>586</ele>
        <time>2011-07-03T11:14:27Z</time>
      </trkpt>
      <trkpt lat="45.73743" lon="5.99767">
        <ele>586</ele>
        <time>2011-07-03T11:14:28Z</time>
      </trkpt>
      <trkpt lat="45.73742" lon="5.99769">
        <ele>586</ele>
        <time>2011-07-03T11:14:29Z</time>
      </trkpt>
      <trkpt lat="45.73741" lon="5.99771">
        <ele>587</ele>
        <time>2011-07-03T11:14:30Z</time>
      </trkpt>
      <trkpt lat="45.73739" lon="5.99772">
        <ele>587</ele>
        <time>2011-07-03T11:14:31Z</time>
      </trkpt>
      <trkpt lat="45.73738" lon="5.99775">
        <ele>587</ele>
        <time>2011-07-03T11:14:32Z</time>
      </trkpt>
      <trkpt lat="45.73738" lon="5.99778">
        <ele>588</ele>
        <time>2011-07-03T11:14:33Z</time>
      </trkpt>
      <trkpt lat="45.73738" lon="5.9978">
        <ele>588</ele>
        <time>2011-07-03T11:14:34Z</time>
      </trkpt>
      <trkpt lat="45.73737" lon="5.99783">
        <ele>589</ele>
        <time>2011-07-03T11:14:35Z</time>
      </trkpt>
      <trkpt lat="45.73737" lon="5.99785">
        <ele>590</ele>
        <time>2011-07-03T11:14:36Z</time>
      </trkpt>
      <trkpt lat="45.73737" lon="5.99787">
        <ele>590</ele>
        <time>2011-07-03T11:14:37Z</time>
      </trkpt>
      <trkpt lat="45.73737" lon="5.99789">
        <ele>591</ele>
        <time>2011-07-03T11:14:38Z</time>
      </trkpt>
      <trkpt lat="45.73736" lon="5.99791">
        <ele>592</ele>
        <time>2011-07-03T11:14:39Z</time>
      </trkpt>
      <trkpt lat="45.73736" lon="5.99794">
        <ele>592</ele>
        <time>2011-07-03T11:14:40Z</time>
      </trkpt>
      <trkpt lat="45.73735" lon="5.99796">
        <ele>593</ele>
        <time>2011-07-03T11:14:41Z</time>
      </trkpt>
      <trkpt lat="45.73735" lon="5.99798">
        <ele>593</ele>
        <time>2011-07-03T11:14:42Z</time>
      </trkpt>
      <trkpt lat="45.73734" lon="5.99799">
        <ele>594</ele>
        <time>2011-07-03T11:14:43Z</time>
      </trkpt>
      <trkpt lat="45.73734" lon="5.99801">
        <ele>594</ele>
        <time>2011-07-03T11:14:44Z</time>
      </trkpt>
      <trkpt lat="45.73733" lon="5.99803">
        <ele>595</ele>
        <time>2011-07-03T11:14:45Z</time>
      </trkpt>
      <trkpt lat="45.73732" lon="5.99805">
        <ele>595</ele>
        <time>2011-07-03T11:14:46Z</time>
      </trkpt>
      <trkpt lat="45.73732" lon="5.99808">
        <ele>596</ele>
        <time>2011-07-03T11:14:47Z</time>
      </trkpt>
      <trkpt lat="45.7373" lon="5.9981">
        <ele>596</ele>
        <time>2011-07-03T11:14:48Z</time>
      </trkpt>
      <trkpt lat="45.73729" lon="5.99812">
        <ele>596</ele>
        <time>2011-07-03T11:14:49Z</time>
      </trkpt>
      <trkpt lat="45.73728" lon="5.99815">
        <ele>596</ele>
        <time>2011-07-03T11:14:50Z</time>
      </trkpt>
      <trkpt lat="45.73727" lon="5.99817">
        <ele>597</ele>
        <time>2011-07-03T11:14:51Z</time>
      </trkpt>
      <trkpt lat="45.73726" lon="5.9982">
        <ele>597</ele>
        <time>2011-07-03T11:14:52Z</time>
      </trkpt>
      <trkpt lat="45.73724" lon="5.99823">
        <ele>597</ele>
        <time>2011-07-03T11:14:53Z</time>
      </trkpt>
      <trkpt lat="45.73723" lon="5.99825">
        <ele>597</ele>
        <time>2011-07-03T11:14:54Z</time>
      </trkpt>
      <trkpt lat="45.73722" lon="5.99828">
        <ele>597</ele>
        <time>2011-07-03T11:14:55Z</time>
      </trkpt>
      <trkpt lat="45.7372" lon="5.99831">
        <ele>597</ele>
        <time>2011-07-03T11:14:56Z</time>
      </trkpt>
      <trkpt lat="45.73719" lon="5.99834">
        <ele>597</ele>
        <time>2011-07-03T11:14:57Z</time>
      </trkpt>
      <trkpt lat="45.73718" lon="5.99836">
        <ele>597</ele>
        <time>2011-07-03T11:14:58Z</time>
      </trkpt>
      <trkpt lat="45.73716" lon="5.99839">
        <ele>597</ele>
        <time>2011-07-03T11:14:59Z</time>
      </trkpt>
      <trkpt lat="45.73715" lon="5.99841">
        <ele>597</ele>
        <time>2011-07-03T11:15:00Z</time>
      </trkpt>
      <trkpt lat="45.73714" lon="5.99843">
        <ele>597</ele>
        <time>2011-07-03T11:15:01Z</time>
      </trkpt>
      <trkpt lat="45.73713" lon="5.99845">
        <ele>597</ele>
        <time>2011-07-03T11:15:02Z</time>
      </trkpt>
      <trkpt lat="45.73712" lon="5.99848">
        <ele>597</ele>
        <time>2011-07-03T11:15:03Z</time>
      </trkpt>
      <trkpt lat="45.73712" lon="5.9985">
        <ele>597</ele>
        <time>2011-07-03T11:15:04Z</time>
      </trkpt>
      <trkpt lat="45.73711" lon="5.99853">
        <ele>597</ele>
        <time>2011-07-03T11:15:05Z</time>
      </trkpt>
      <trkpt lat="45.73711" lon="5.99856">
        <ele>597</ele>
        <time>2011-07-03T11:15:06Z</time>
      </trkpt>
      <trkpt lat="45.7371" lon="5.99858">
        <ele>597</ele>
        <time>2011-07-03T11:15:07Z</time>
      </trkpt>
      <trkpt lat="45.7371" lon="5.99861">
        <ele>597</ele>
        <time>2011-07-03T11:15:08Z</time>
      </trkpt>
      <trkpt lat="45.73709" lon="5.99863">
        <ele>597</ele>
        <time>2011-07-03T11:15:09Z</time>
      </trkpt>
      <trkpt lat="45.73708" lon="5.99866">
        <ele>597</ele>
        <time>2011-07-03T11:15:10Z</time>
      </trkpt>
      <trkpt lat="45.73706" lon="5.99869">
        <ele>597</ele>
        <time>2011-07-03T11:15:11Z</time>
      </trkpt>
      <trkpt lat="45.73705" lon="5.99872">
        <ele>597</ele>
        <time>2011-07-03T11:15:12Z</time>
      </trkpt>
      <trkpt lat="45.73704" lon="5.99875">
        <ele>597</ele>
        <time>2011-07-03T11:15:13Z</time>
      </trkpt>
      <trkpt lat="45.73703" lon="5.99877">
        <ele>597</ele>
        <time>2011-07-03T11:15:14Z</time>
      </trkpt>
      <trkpt lat="45.73702" lon="5.9988">
        <ele>597</ele>
        <time>2011-07-03T11:15:15Z</time>
      </trkpt>
      <trkpt lat="45.73701" lon="5.99884">
        <ele>597</ele>
        <time>2011-07-03T11:15:16Z</time>
      </trkpt>
      <trkpt lat="45.73699" lon="5.99887">
        <ele>597</ele>
        <time>2011-07-03T11:15:17Z</time>
      </trkpt>
      <trkpt lat="45.73697" lon="5.99891">
        <ele>597</ele>
        <time>2011-07-03T11:15:18Z</time>
      </trkpt>
      <trkpt lat="45.73695" lon="5.99894">
        <ele>597</ele>
        <time>2011-07-03T11:15:19Z</time>
      </trkpt>
      <trkpt lat="45.73693" lon="5.99898">
        <ele>597</ele>
        <time>2011-07-03T11:15:20Z</time>
      </trkpt>
      <trkpt lat="45.73691" lon="5.99901">
        <ele>597</ele>
        <time>2011-07-03T11:15:21Z</time>
      </trkpt>
      <trkpt lat="45.73689" lon="5.99905">
        <ele>597</ele>
        <time>2011-07-03T11:15:22Z</time>
      </trkpt>
      <trkpt lat="45.73687" lon="5.99909">
        <ele>597</ele>
        <time>2011-07-03T11:15:23Z</time>
      </trkpt>
      <trkpt lat="45.73684" lon="5.99913">
        <ele>597</ele>
        <time>2011-07-03T11:15:24Z</time>
      </trkpt>
      <trkpt lat="45.73682" lon="5.99917">
        <ele>597</ele>
        <time>2011-07-03T11:15:25Z</time>
      </trkpt>
      <trkpt lat="45.73681" lon="5.9992">
        <ele>597</ele>
        <time>2011-07-03T11:15:26Z</time>
      </trkpt>
      <trkpt lat="45.73679" lon="5.99924">
        <ele>597</ele>
        <time>2011-07-03T11:15:27Z</time>
      </trkpt>
      <trkpt lat="45.73678" lon="5.99928">
        <ele>597</ele>
        <time>2011-07-03T11:15:28Z</time>
      </trkpt>
      <trkpt lat="45.73676" lon="5.99931">
        <ele>597</ele>
        <time>2011-07-03T11:15:29Z</time>
      </trkpt>
      <trkpt lat="45.73675" lon="5.99933">
        <ele>597</ele>
        <time>2011-07-03T11:15:30Z</time>
      </trkpt>
      <trkpt lat="45.73674" lon="5.99934">
        <ele>597</ele>
        <time>2011-07-03T11:15:31Z</time>
      </trkpt>
      <trkpt lat="45.73673" lon="5.99936">
        <ele>597</ele>
        <time>2011-07-03T11:15:32Z</time>
      </trkpt>
      <trkpt lat="45.73672" lon="5.99938">
        <ele>597</ele>
        <time>2011-07-03T11:15:33Z</time>
      </trkpt>
      <trkpt lat="45.73671" lon="5.9994">
        <ele>596</ele>
        <time>2011-07-03T11:15:34Z</time>
      </trkpt>
      <trkpt lat="45.7367" lon="5.99942">
        <ele>596</ele>
        <time>2011-07-03T11:15:35Z</time>
      </trkpt>
      <trkpt lat="45.73669" lon="5.99945">
        <ele>595</ele>
        <time>2011-07-03T11:15:36Z</time>
      </trkpt>
      <trkpt lat="45.73668" lon="5.99948">
        <ele>595</ele>
        <time>2011-07-03T11:15:37Z</time>
      </trkpt>
      <trkpt lat="45.73666" lon="5.99952">
        <ele>594</ele>
        <time>2011-07-03T11:15:38Z</time>
      </trkpt>
      <trkpt lat="45.73664" lon="5.99955">
        <ele>594</ele>
        <time>2011-07-03T11:15:39Z</time>
      </trkpt>
      <trkpt lat="45.73662" lon="5.99958">
        <ele>594</ele>
        <time>2011-07-03T11:15:40Z</time>
      </trkpt>
      <trkpt lat="45.7366" lon="5.99962">
        <ele>594</ele>
        <time>2011-07-03T11:15:41Z</time>
      </trkpt>
      <trkpt lat="45.73658" lon="5.99965">
        <ele>594</ele>
        <time>2011-07-03T11:15:42Z</time>
      </trkpt>
      <trkpt lat="45.73655" lon="5.99968">
        <ele>594</ele>
        <time>2011-07-03T11:15:43Z</time>
      </trkpt>
      <trkpt lat="45.73652" lon="5.99972">
        <ele>594</ele>
        <time>2011-07-03T11:15:44Z</time>
      </trkpt>
      <trkpt lat="45.73649" lon="5.99976">
        <ele>594</ele>
        <time>2011-07-03T11:15:45Z</time>
      </trkpt>
      <trkpt lat="45.73646" lon="5.99979">
        <ele>594</ele>
        <time>2011-07-03T11:15:46Z</time>
      </trkpt>
      <trkpt lat="45.73642" lon="5.99983">
        <ele>594</ele>
        <time>2011-07-03T11:15:47Z</time>
      </trkpt>
      <trkpt lat="45.73639" lon="5.99987">
        <ele>594</ele>
        <time>2011-07-03T11:15:48Z</time>
      </trkpt>
      <trkpt lat="45.73635" lon="5.99991">
        <ele>594</ele>
        <time>2011-07-03T11:15:49Z</time>
      </trkpt>
      <trkpt lat="45.73631" lon="5.99996">
        <ele>594</ele>
        <time>2011-07-03T11:15:50Z</time>
      </trkpt>
      <trkpt lat="45.73627" lon="6">
        <ele>594</ele>
        <time>2011-07-03T11:15:51Z</time>
      </trkpt>
      <trkpt lat="45.73624" lon="6.00005">
        <ele>594</ele>
        <time>2011-07-03T11:15:52Z</time>
      </trkpt>
      <trkpt lat="45.7362" lon="6.0001">
        <ele>594</ele>
        <time>2011-07-03T11:15:53Z</time>
      </trkpt>
      <trkpt lat="45.73616" lon="6.00016">
        <ele>594</ele>
        <time>2011-07-03T11:15:54Z</time>
      </trkpt>
      <trkpt lat="45.73613" lon="6.00023">
        <ele>594</ele>
        <time>2011-07-03T11:15:55Z</time>
      </trkpt>
      <trkpt lat="45.7361" lon="6.00029">
        <ele>594</ele>
        <time>2011-07-03T11:15:56Z</time>
      </trkpt>
      <trkpt lat="45.73606" lon="6.00035">
        <ele>594</ele>
        <time>2011-07-03T11:15:57Z</time>
      </trkpt>
      <trkpt lat="45.73603" lon="6.00041">
        <ele>594</ele>
        <time>2011-07-03T11:15:58Z</time>
      </trkpt>
      <trkpt lat="45.736" lon="6.00048">
        <ele>594</ele>
        <time>2011-07-03T11:15:59Z</time>
      </trkpt>
      <trkpt lat="45.73596" lon="6.00054">
        <ele>594</ele>
        <time>2011-07-03T11:16:00Z</time>
      </trkpt>
      <trkpt lat="45.73593" lon="6.00059">
        <ele>594</ele>
        <time>2011-07-03T11:16:01Z</time>
      </trkpt>
      <trkpt lat="45.73589" lon="6.00064">
        <ele>594</ele>
        <time>2011-07-03T11:16:02Z</time>
      </trkpt>
      <trkpt lat="45.73586" lon="6.00069">
        <ele>594</ele>
        <time>2011-07-03T11:16:03Z</time>
      </trkpt>
      <trkpt lat="45.73583" lon="6.00074">
        <ele>594</ele>
        <time>2011-07-03T11:16:04Z</time>
      </trkpt>
      <trkpt lat="45.73581" lon="6.00078">
        <ele>594</ele>
        <time>2011-07-03T11:16:05Z</time>
      </trkpt>
      <trkpt lat="45.73579" lon="6.00083">
        <ele>594</ele>
        <time>2011-07-03T11:16:06Z</time>
      </trkpt>
      <trkpt lat="45.73577" lon="6.00087">
        <ele>594</ele>
        <time>2011-07-03T11:16:07Z</time>
      </trkpt>
      <trkpt lat="45.73575" lon="6.00091">
        <ele>594</ele>
        <time>2011-07-03T11:16:08Z</time>
      </trkpt>
      <trkpt lat="45.73574" lon="6.00096">
        <ele>594</ele>
        <time>2011-07-03T11:16:09Z</time>
      </trkpt>
      <trkpt lat="45.73572" lon="6.001">
        <ele>594</ele>
        <time>2011-07-03T11:16:10Z</time>
      </trkpt>
      <trkpt lat="45.7357" lon="6.00104">
        <ele>594</ele>
        <time>2011-07-03T11:16:11Z</time>
      </trkpt>
      <trkpt lat="45.73568" lon="6.00107">
        <ele>594</ele>
        <time>2011-07-03T11:16:12Z</time>
      </trkpt>
      <trkpt lat="45.73566" lon="6.0011">
        <ele>594</ele>
        <time>2011-07-03T11:16:13Z</time>
      </trkpt>
      <trkpt lat="45.73563" lon="6.00111">
        <ele>594</ele>
        <time>2011-07-03T11:16:14Z</time>
      </trkpt>
      <trkpt lat="45.7356" lon="6.00111">
        <ele>594</ele>
        <time>2011-07-03T11:16:15Z</time>
      </trkpt>
      <trkpt lat="45.73556" lon="6.00109">
        <ele>594</ele>
        <time>2011-07-03T11:16:16Z</time>
      </trkpt>
      <trkpt lat="45.73552" lon="6.00108">
        <ele>594</ele>
        <time>2011-07-03T11:16:17Z</time>
      </trkpt>
      <trkpt lat="45.73548" lon="6.00106">
        <ele>594</ele>
        <time>2011-07-03T11:16:18Z</time>
      </trkpt>
      <trkpt lat="45.73544" lon="6.00105">
        <ele>594</ele>
        <time>2011-07-03T11:16:19Z</time>
      </trkpt>
      <trkpt lat="45.7354" lon="6.00102">
        <ele>594</ele>
        <time>2011-07-03T11:16:20Z</time>
      </trkpt>
      <trkpt lat="45.73537" lon="6.001">
        <ele>594</ele>
        <time>2011-07-03T11:16:21Z</time>
      </trkpt>
      <trkpt lat="45.73534" lon="6.00098">
        <ele>594</ele>
        <time>2011-07-03T11:16:22Z</time>
      </trkpt>
      <trkpt lat="45.7353" lon="6.00096">
        <ele>594</ele>
        <time>2011-07-03T11:16:23Z</time>
      </trkpt>
      <trkpt lat="45.73527" lon="6.00093">
        <ele>594</ele>
        <time>2011-07-03T11:16:24Z</time>
      </trkpt>
      <trkpt lat="45.73523" lon="6.00091">
        <ele>594</ele>
        <time>2011-07-03T11:16:25Z</time>
      </trkpt>
      <trkpt lat="45.73519" lon="6.00089">
        <ele>594</ele>
        <time>2011-07-03T11:16:26Z</time>
      </trkpt>
      <trkpt lat="45.73515" lon="6.00087">
        <ele>594</ele>
        <time>2011-07-03T11:16:27Z</time>
      </trkpt>
      <trkpt lat="45.73511" lon="6.00085">
        <ele>594</ele>
        <time>2011-07-03T11:16:28Z</time>
      </trkpt>
      <trkpt lat="45.73507" lon="6.00083">
        <ele>594</ele>
        <time>2011-07-03T11:16:29Z</time>
      </trkpt>
      <trkpt lat="45.73503" lon="6.00081">
        <ele>594</ele>
        <time>2011-07-03T11:16:30Z</time>
      </trkpt>
      <trkpt lat="45.735" lon="6.00079">
        <ele>594</ele>
        <time>2011-07-03T11:16:31Z</time>
      </trkpt>
      <trkpt lat="45.73496" lon="6.00076">
        <ele>594</ele>
        <time>2011-07-03T11:16:32Z</time>
      </trkpt>
      <trkpt lat="45.73492" lon="6.00074">
        <ele>594</ele>
        <time>2011-07-03T11:16:33Z</time>
      </trkpt>
      <trkpt lat="45.73488" lon="6.00073">
        <ele>594</ele>
        <time>2011-07-03T11:16:34Z</time>
      </trkpt>
      <trkpt lat="45.73484" lon="6.00074">
        <ele>594</ele>
        <time>2011-07-03T11:16:35Z</time>
      </trkpt>
      <trkpt lat="45.7348" lon="6.00076">
        <ele>594</ele>
        <time>2011-07-03T11:16:36Z</time>
      </trkpt>
      <trkpt lat="45.73478" lon="6.00079">
        <ele>594</ele>
        <time>2011-07-03T11:16:37Z</time>
      </trkpt>
      <trkpt lat="45.73476" lon="6.00084">
        <ele>594</ele>
        <time>2011-07-03T11:16:38Z</time>
      </trkpt>
      <trkpt lat="45.73476" lon="6.00087">
        <ele>594</ele>
        <time>2011-07-03T11:16:39Z</time>
      </trkpt>
      <trkpt lat="45.73476" lon="6.00091">
        <ele>594</ele>
        <time>2011-07-03T11:16:40Z</time>
      </trkpt>
      <trkpt lat="45.73476" lon="6.00095">
        <ele>594</ele>
        <time>2011-07-03T11:16:41Z</time>
      </trkpt>
      <trkpt lat="45.73476" lon="6.00099">
        <ele>594</ele>
        <time>2011-07-03T11:16:42Z</time>
      </trkpt>
      <trkpt lat="45.73476" lon="6.00103">
        <ele>594</ele>
        <time>2011-07-03T11:16:43Z</time>
      </trkpt>
      <trkpt lat="45.73476" lon="6.00106">
        <ele>594</ele>
        <time>2011-07-03T11:16:44Z</time>
      </trkpt>
      <trkpt lat="45.73476" lon="6.00109">
        <ele>594</ele>
        <time>2011-07-03T11:16:45Z</time>
      </trkpt>
      <trkpt lat="45.73476" lon="6.00113">
        <ele>594</ele>
        <time>2011-07-03T11:16:46Z</time>
      </trkpt>
      <trkpt lat="45.73477" lon="6.00116">
        <ele>594</ele>
        <time>2011-07-03T11:16:47Z</time>
      </trkpt>
      <trkpt lat="45.73477" lon="6.00119">
        <ele>593</ele>
        <time>2011-07-03T11:16:48Z</time>
      </trkpt>
      <trkpt lat="45.73478" lon="6.00122">
        <ele>593</ele>
        <time>2011-07-03T11:16:49Z</time>
      </trkpt>
      <trkpt lat="45.73478" lon="6.00126">
        <ele>593</ele>
        <time>2011-07-03T11:16:50Z</time>
      </trkpt>
      <trkpt lat="45.73479" lon="6.00129">
        <ele>593</ele>
        <time>2011-07-03T11:16:51Z</time>
      </trkpt>
      <trkpt lat="45.73479" lon="6.00131">
        <ele>593</ele>
        <time>2011-07-03T11:16:52Z</time>
      </trkpt>
      <trkpt lat="45.7348" lon="6.00135">
        <ele>593</ele>
        <time>2011-07-03T11:16:53Z</time>
      </trkpt>
      <trkpt lat="45.73481" lon="6.00138">
        <ele>593</ele>
        <time>2011-07-03T11:16:54Z</time>
      </trkpt>
      <trkpt lat="45.73481" lon="6.00141">
        <ele>593</ele>
        <time>2011-07-03T11:16:55Z</time>
      </trkpt>
      <trkpt lat="45.73482" lon="6.00144">
        <ele>593</ele>
        <time>2011-07-03T11:16:56Z</time>
      </trkpt>
      <trkpt lat="45.73482" lon="6.00146">
        <ele>593</ele>
        <time>2011-07-03T11:16:57Z</time>
      </trkpt>
      <trkpt lat="45.73482" lon="6.00149">
        <ele>593</ele>
        <time>2011-07-03T11:16:58Z</time>
      </trkpt>
      <trkpt lat="45.73482" lon="6.0015">
        <ele>593</ele>
        <time>2011-07-03T11:16:59Z</time>
      </trkpt>
      <trkpt lat="45.73481" lon="6.00152">
        <ele>593</ele>
        <time>2011-07-03T11:17:02Z</time>
      </trkpt>
      <trkpt lat="45.7348" lon="6.00151">
        <ele>593</ele>
        <time>2011-07-03T11:17:06Z</time>
      </trkpt>
      <trkpt lat="45.73479" lon="6.00152">
        <ele>593</ele>
        <time>2011-07-03T11:17:08Z</time>
      </trkpt>
      <trkpt lat="45.73477" lon="6.0015">
        <ele>592</ele>
        <time>2011-07-03T11:17:10Z</time>
      </trkpt>
      <trkpt lat="45.73476" lon="6.0015">
        <ele>591</ele>
        <time>2011-07-03T11:17:13Z</time>
      </trkpt>
      <trkpt lat="45.73474" lon="6.0015">
        <ele>591</ele>
        <time>2011-07-03T11:17:16Z</time>
      </trkpt>
      <trkpt lat="45.73471" lon="6.00136">
        <ele>595</ele>
        <time>2011-07-03T11:17:20Z</time>
      </trkpt>
    </trkseg>
  </trk>
</gpx>